<?xml version="1.0" encoding="UTF-8"?>
<gpx creator="Garmin Connect" version="1.1"
  xsi:schemaLocation="http://www.topografix.com/GPX/1/1 http://www.topografix.com/GPX/11.xsd"
  xmlns="http://www.topografix.com/GPX/1/1"
  xmlns:ns3="http://www.garmin.com/xmlschemas/TrackPointExtension/v1"
  xmlns:ns2="http://www.garmin.com/xmlschemas/GpxExtensions/v3" xmlns:xsi="http://www.w3.org/2001/XMLSchema-instance">
  <metadata>
    <link href="connect.garmin.com">
      <text>Garmin Connect</text>
    </link>
    <time>2013-09-01T13:56:15.000Z</time>
  </metadata>
  <trk>
    <name>Cugy- Surpierre- Villarzel-Cugy</name>
    <desc>Parcours au départ de Cugy fr menant au château de Surpierre et au sources d'Henniez.</desc>
    <type>mountain_biking</type>
    <trkseg>
      <trkpt lat="46.81479225866496562957763671875" lon="6.89074046909809112548828125">
        <ele>364.20001220703125</ele>
        <time>2013-09-01T13:56:15.000Z</time>
        <extensions>
          <ns3:TrackPointExtension>
            <ns3:atemp>21.0</ns3:atemp>
          </ns3:TrackPointExtension>
        </extensions>
      </trkpt>
      <trkpt lat="46.814794354140758514404296875" lon="6.89094968140125274658203125">
        <ele>364.600006103515625</ele>
        <time>2013-09-01T13:56:19.000Z</time>
        <extensions>
          <ns3:TrackPointExtension>
            <ns3:atemp>21.0</ns3:atemp>
          </ns3:TrackPointExtension>
        </extensions>
      </trkpt>
      <trkpt lat="46.81479292921721935272216796875" lon="6.8909971229732036590576171875">
        <ele>365</ele>
        <time>2013-09-01T13:56:20.000Z</time>
        <extensions>
          <ns3:TrackPointExtension>
            <ns3:atemp>21.0</ns3:atemp>
          </ns3:TrackPointExtension>
        </extensions>
      </trkpt>
      <trkpt lat="46.81479058228433132171630859375" lon="6.89104892313480377197265625">
        <ele>364.79998779296875</ele>
        <time>2013-09-01T13:56:21.000Z</time>
        <extensions>
          <ns3:TrackPointExtension>
            <ns3:atemp>21.0</ns3:atemp>
          </ns3:TrackPointExtension>
        </extensions>
      </trkpt>
      <trkpt lat="46.81478194892406463623046875" lon="6.8910993821918964385986328125">
        <ele>364.79998779296875</ele>
        <time>2013-09-01T13:56:22.000Z</time>
        <extensions>
          <ns3:TrackPointExtension>
            <ns3:atemp>21.0</ns3:atemp>
          </ns3:TrackPointExtension>
        </extensions>
      </trkpt>
      <trkpt lat="46.8147750757634639739990234375" lon="6.89114724285900592803955078125">
        <ele>364.79998779296875</ele>
        <time>2013-09-01T13:56:23.000Z</time>
        <extensions>
          <ns3:TrackPointExtension>
            <ns3:atemp>21.0</ns3:atemp>
          </ns3:TrackPointExtension>
        </extensions>
      </trkpt>
      <trkpt lat="46.81477147154510021209716796875" lon="6.89119703136384487152099609375">
        <ele>365</ele>
        <time>2013-09-01T13:56:24.000Z</time>
        <extensions>
          <ns3:TrackPointExtension>
            <ns3:atemp>21.0</ns3:atemp>
          </ns3:TrackPointExtension>
        </extensions>
      </trkpt>
      <trkpt lat="46.8147705495357513427734375" lon="6.89124665223062038421630859375">
        <ele>365.399993896484375</ele>
        <time>2013-09-01T13:56:25.000Z</time>
        <extensions>
          <ns3:TrackPointExtension>
            <ns3:atemp>21.0</ns3:atemp>
          </ns3:TrackPointExtension>
        </extensions>
      </trkpt>
      <trkpt lat="46.8147737346589565277099609375" lon="6.8912958540022373199462890625">
        <ele>365.600006103515625</ele>
        <time>2013-09-01T13:56:26.000Z</time>
        <extensions>
          <ns3:TrackPointExtension>
            <ns3:atemp>21.0</ns3:atemp>
          </ns3:TrackPointExtension>
        </extensions>
      </trkpt>
      <trkpt lat="46.81477717123925685882568359375" lon="6.89134555868804454803466796875">
        <ele>365.600006103515625</ele>
        <time>2013-09-01T13:56:27.000Z</time>
        <extensions>
          <ns3:TrackPointExtension>
            <ns3:atemp>21.0</ns3:atemp>
          </ns3:TrackPointExtension>
        </extensions>
      </trkpt>
      <trkpt lat="46.81477230973541736602783203125" lon="6.89139132387936115264892578125">
        <ele>365.600006103515625</ele>
        <time>2013-09-01T13:56:28.000Z</time>
        <extensions>
          <ns3:TrackPointExtension>
            <ns3:atemp>21.0</ns3:atemp>
          </ns3:TrackPointExtension>
        </extensions>
      </trkpt>
      <trkpt lat="46.81477230973541736602783203125" lon="6.89143574796617031097412109375">
        <ele>365.79998779296875</ele>
        <time>2013-09-01T13:56:29.000Z</time>
        <extensions>
          <ns3:TrackPointExtension>
            <ns3:atemp>21.0</ns3:atemp>
          </ns3:TrackPointExtension>
        </extensions>
      </trkpt>
      <trkpt lat="46.814769208431243896484375" lon="6.89148101024329662322998046875">
        <ele>365.79998779296875</ele>
        <time>2013-09-01T13:56:30.000Z</time>
        <extensions>
          <ns3:TrackPointExtension>
            <ns3:atemp>21.0</ns3:atemp>
          </ns3:TrackPointExtension>
        </extensions>
      </trkpt>
      <trkpt lat="46.8147623352706432342529296875" lon="6.89152727834880352020263671875">
        <ele>365.399993896484375</ele>
        <time>2013-09-01T13:56:31.000Z</time>
        <extensions>
          <ns3:TrackPointExtension>
            <ns3:atemp>21.0</ns3:atemp>
          </ns3:TrackPointExtension>
        </extensions>
      </trkpt>
      <trkpt lat="46.81475403718650341033935546875" lon="6.89157136715948581695556640625">
        <ele>365.600006103515625</ele>
        <time>2013-09-01T13:56:32.000Z</time>
        <extensions>
          <ns3:TrackPointExtension>
            <ns3:atemp>21.0</ns3:atemp>
          </ns3:TrackPointExtension>
        </extensions>
      </trkpt>
      <trkpt lat="46.81474967859685420989990234375" lon="6.89161646179854869842529296875">
        <ele>365.399993896484375</ele>
        <time>2013-09-01T13:56:33.000Z</time>
        <extensions>
          <ns3:TrackPointExtension>
            <ns3:atemp>21.0</ns3:atemp>
          </ns3:TrackPointExtension>
        </extensions>
      </trkpt>
      <trkpt lat="46.814730651676654815673828125" lon="6.89163289032876491546630859375">
        <ele>366.20001220703125</ele>
        <time>2013-09-01T13:56:34.000Z</time>
        <extensions>
          <ns3:TrackPointExtension>
            <ns3:atemp>21.0</ns3:atemp>
          </ns3:TrackPointExtension>
        </extensions>
      </trkpt>
      <trkpt lat="46.8147195875644683837890625" lon="6.8916643224656581878662109375">
        <ele>365.399993896484375</ele>
        <time>2013-09-01T13:56:35.000Z</time>
        <extensions>
          <ns3:TrackPointExtension>
            <ns3:atemp>21.0</ns3:atemp>
          </ns3:TrackPointExtension>
        </extensions>
      </trkpt>
      <trkpt lat="46.81470894254744052886962890625" lon="6.89170480705797672271728515625">
        <ele>365.20001220703125</ele>
        <time>2013-09-01T13:56:36.000Z</time>
        <extensions>
          <ns3:TrackPointExtension>
            <ns3:atemp>21.0</ns3:atemp>
          </ns3:TrackPointExtension>
        </extensions>
      </trkpt>
      <trkpt lat="46.8147046677768230438232421875" lon="6.89174772240221500396728515625">
        <ele>365.600006103515625</ele>
        <time>2013-09-01T13:56:37.000Z</time>
        <extensions>
          <ns3:TrackPointExtension>
            <ns3:atemp>21.0</ns3:atemp>
          </ns3:TrackPointExtension>
        </extensions>
      </trkpt>
      <trkpt lat="46.81469502858817577362060546875" lon="6.8917903862893581390380859375">
        <ele>366</ele>
        <time>2013-09-01T13:56:38.000Z</time>
        <extensions>
          <ns3:TrackPointExtension>
            <ns3:atemp>21.0</ns3:atemp>
          </ns3:TrackPointExtension>
        </extensions>
      </trkpt>
      <trkpt lat="46.81468832306563854217529296875" lon="6.89183413982391357421875">
        <ele>366</ele>
        <time>2013-09-01T13:56:39.000Z</time>
        <extensions>
          <ns3:TrackPointExtension>
            <ns3:atemp>21.0</ns3:atemp>
          </ns3:TrackPointExtension>
        </extensions>
      </trkpt>
      <trkpt lat="46.81468295864760875701904296875" lon="6.89187546260654926300048828125">
        <ele>366.20001220703125</ele>
        <time>2013-09-01T13:56:40.000Z</time>
        <extensions>
          <ns3:TrackPointExtension>
            <ns3:atemp>21.0</ns3:atemp>
          </ns3:TrackPointExtension>
        </extensions>
      </trkpt>
      <trkpt lat="46.81467725895345211029052734375" lon="6.89191997051239013671875">
        <ele>366.399993896484375</ele>
        <time>2013-09-01T13:56:41.000Z</time>
        <extensions>
          <ns3:TrackPointExtension>
            <ns3:atemp>21.0</ns3:atemp>
          </ns3:TrackPointExtension>
        </extensions>
      </trkpt>
      <trkpt lat="46.8146714754402637481689453125" lon="6.8919680826365947723388671875">
        <ele>366.600006103515625</ele>
        <time>2013-09-01T13:56:42.000Z</time>
        <extensions>
          <ns3:TrackPointExtension>
            <ns3:atemp>21.0</ns3:atemp>
          </ns3:TrackPointExtension>
        </extensions>
      </trkpt>
      <trkpt lat="46.8146647699177265167236328125" lon="6.8920173682272434234619140625">
        <ele>367</ele>
        <time>2013-09-01T13:56:43.000Z</time>
        <extensions>
          <ns3:TrackPointExtension>
            <ns3:atemp>21.0</ns3:atemp>
          </ns3:TrackPointExtension>
        </extensions>
      </trkpt>
      <trkpt lat="46.81466653011739253997802734375" lon="6.89206321723759174346923828125">
        <ele>367.399993896484375</ele>
        <time>2013-09-01T13:56:44.000Z</time>
        <extensions>
          <ns3:TrackPointExtension>
            <ns3:atemp>21.0</ns3:atemp>
          </ns3:TrackPointExtension>
        </extensions>
      </trkpt>
      <trkpt lat="46.81466661393642425537109375" lon="6.89211568795144557952880859375">
        <ele>367.79998779296875</ele>
        <time>2013-09-01T13:56:45.000Z</time>
        <extensions>
          <ns3:TrackPointExtension>
            <ns3:atemp>21.0</ns3:atemp>
          </ns3:TrackPointExtension>
        </extensions>
      </trkpt>
      <trkpt lat="46.8146640993654727935791015625" lon="6.8921615369617938995361328125">
        <ele>368.399993896484375</ele>
        <time>2013-09-01T13:56:46.000Z</time>
        <extensions>
          <ns3:TrackPointExtension>
            <ns3:atemp>21.0</ns3:atemp>
          </ns3:TrackPointExtension>
        </extensions>
      </trkpt>
      <trkpt lat="46.8146605789661407470703125" lon="6.89220403321087360382080078125">
        <ele>368.20001220703125</ele>
        <time>2013-09-01T13:56:47.000Z</time>
        <extensions>
          <ns3:TrackPointExtension>
            <ns3:atemp>21.0</ns3:atemp>
          </ns3:TrackPointExtension>
        </extensions>
      </trkpt>
      <trkpt lat="46.81465781293809413909912109375" lon="6.8922560848295688629150390625">
        <ele>367.600006103515625</ele>
        <time>2013-09-01T13:56:48.000Z</time>
        <extensions>
          <ns3:TrackPointExtension>
            <ns3:atemp>21.0</ns3:atemp>
          </ns3:TrackPointExtension>
        </extensions>
      </trkpt>
      <trkpt lat="46.8146550469100475311279296875" lon="6.89231358468532562255859375">
        <ele>367.20001220703125</ele>
        <time>2013-09-01T13:56:49.000Z</time>
        <extensions>
          <ns3:TrackPointExtension>
            <ns3:atemp>21.0</ns3:atemp>
          </ns3:TrackPointExtension>
        </extensions>
      </trkpt>
      <trkpt lat="46.81464842520654201507568359375" lon="6.89236898906528949737548828125">
        <ele>367</ele>
        <time>2013-09-01T13:56:50.000Z</time>
        <extensions>
          <ns3:TrackPointExtension>
            <ns3:atemp>21.0</ns3:atemp>
          </ns3:TrackPointExtension>
        </extensions>
      </trkpt>
      <trkpt lat="46.81464255787432193756103515625" lon="6.89247409813106060028076171875">
        <ele>366.79998779296875</ele>
        <time>2013-09-01T13:56:52.000Z</time>
        <extensions>
          <ns3:TrackPointExtension>
            <ns3:atemp>21.0</ns3:atemp>
          </ns3:TrackPointExtension>
        </extensions>
      </trkpt>
      <trkpt lat="46.81464515626430511474609375" lon="6.89253025688230991363525390625">
        <ele>366.600006103515625</ele>
        <time>2013-09-01T13:56:53.000Z</time>
        <extensions>
          <ns3:TrackPointExtension>
            <ns3:atemp>21.0</ns3:atemp>
          </ns3:TrackPointExtension>
        </extensions>
      </trkpt>
      <trkpt lat="46.814648844301700592041015625" lon="6.89259077422320842742919921875">
        <ele>366.399993896484375</ele>
        <time>2013-09-01T13:56:54.000Z</time>
        <extensions>
          <ns3:TrackPointExtension>
            <ns3:atemp>21.0</ns3:atemp>
          </ns3:TrackPointExtension>
        </extensions>
      </trkpt>
      <trkpt lat="46.81465060450136661529541015625" lon="6.892657913267612457275390625">
        <ele>366.20001220703125</ele>
        <time>2013-09-01T13:56:55.000Z</time>
        <extensions>
          <ns3:TrackPointExtension>
            <ns3:atemp>21.0</ns3:atemp>
          </ns3:TrackPointExtension>
        </extensions>
      </trkpt>
      <trkpt lat="46.81465311907231807708740234375" lon="6.89271952025592327117919921875">
        <ele>366.20001220703125</ele>
        <time>2013-09-01T13:56:56.000Z</time>
        <extensions>
          <ns3:TrackPointExtension>
            <ns3:atemp>21.0</ns3:atemp>
          </ns3:TrackPointExtension>
        </extensions>
      </trkpt>
      <trkpt lat="46.8146640993654727935791015625" lon="6.89278791658580303192138671875">
        <ele>366.20001220703125</ele>
        <time>2013-09-01T13:56:57.000Z</time>
        <extensions>
          <ns3:TrackPointExtension>
            <ns3:atemp>21.0</ns3:atemp>
          </ns3:TrackPointExtension>
        </extensions>
      </trkpt>
      <trkpt lat="46.8146691285073757171630859375" lon="6.8928605876863002777099609375">
        <ele>366.399993896484375</ele>
        <time>2013-09-01T13:56:58.000Z</time>
        <extensions>
          <ns3:TrackPointExtension>
            <ns3:atemp>21.0</ns3:atemp>
          </ns3:TrackPointExtension>
        </extensions>
      </trkpt>
      <trkpt lat="46.8146793544292449951171875" lon="6.89292973838746547698974609375">
        <ele>366.79998779296875</ele>
        <time>2013-09-01T13:56:59.000Z</time>
        <extensions>
          <ns3:TrackPointExtension>
            <ns3:atemp>21.0</ns3:atemp>
          </ns3:TrackPointExtension>
        </extensions>
      </trkpt>
      <trkpt lat="46.81468966417014598846435546875" lon="6.89299494959414005279541015625">
        <ele>367</ele>
        <time>2013-09-01T13:57:00.000Z</time>
        <extensions>
          <ns3:TrackPointExtension>
            <ns3:atemp>21.0</ns3:atemp>
          </ns3:TrackPointExtension>
        </extensions>
      </trkpt>
      <trkpt lat="46.81470014154911041259765625" lon="6.8930597417056560516357421875">
        <ele>366</ele>
        <time>2013-09-01T13:57:01.000Z</time>
        <extensions>
          <ns3:TrackPointExtension>
            <ns3:atemp>21.0</ns3:atemp>
          </ns3:TrackPointExtension>
        </extensions>
      </trkpt>
      <trkpt lat="46.814717911183834075927734375" lon="6.89312897622585296630859375">
        <ele>365.79998779296875</ele>
        <time>2013-09-01T13:57:02.000Z</time>
        <extensions>
          <ns3:TrackPointExtension>
            <ns3:atemp>21.0</ns3:atemp>
          </ns3:TrackPointExtension>
        </extensions>
      </trkpt>
      <trkpt lat="46.8147388659417629241943359375" lon="6.8931948579847812652587890625">
        <ele>366</ele>
        <time>2013-09-01T13:57:03.000Z</time>
        <extensions>
          <ns3:TrackPointExtension>
            <ns3:atemp>21.0</ns3:atemp>
          </ns3:TrackPointExtension>
        </extensions>
      </trkpt>
      <trkpt lat="46.814769543707370758056640625" lon="6.893263421952724456787109375">
        <ele>366.20001220703125</ele>
        <time>2013-09-01T13:57:04.000Z</time>
        <extensions>
          <ns3:TrackPointExtension>
            <ns3:atemp>21.0</ns3:atemp>
          </ns3:TrackPointExtension>
        </extensions>
      </trkpt>
      <trkpt lat="46.81479745544493198394775390625" lon="6.8933262862265110015869140625">
        <ele>366.399993896484375</ele>
        <time>2013-09-01T13:57:05.000Z</time>
        <extensions>
          <ns3:TrackPointExtension>
            <ns3:atemp>21.0</ns3:atemp>
          </ns3:TrackPointExtension>
        </extensions>
      </trkpt>
      <trkpt lat="46.81482293643057346343994140625" lon="6.89339845441281795501708984375">
        <ele>366.600006103515625</ele>
        <time>2013-09-01T13:57:06.000Z</time>
        <extensions>
          <ns3:TrackPointExtension>
            <ns3:atemp>21.0</ns3:atemp>
          </ns3:TrackPointExtension>
        </extensions>
      </trkpt>
      <trkpt lat="46.81484992615878582000732421875" lon="6.8934717960655689239501953125">
        <ele>366.79998779296875</ele>
        <time>2013-09-01T13:57:07.000Z</time>
        <extensions>
          <ns3:TrackPointExtension>
            <ns3:atemp>21.0</ns3:atemp>
          </ns3:TrackPointExtension>
        </extensions>
      </trkpt>
      <trkpt lat="46.81488077156245708465576171875" lon="6.89354631118476390838623046875">
        <ele>366.600006103515625</ele>
        <time>2013-09-01T13:57:08.000Z</time>
        <extensions>
          <ns3:TrackPointExtension>
            <ns3:atemp>21.0</ns3:atemp>
          </ns3:TrackPointExtension>
        </extensions>
      </trkpt>
      <trkpt lat="46.8149179033935070037841796875" lon="6.89361621625721454620361328125">
        <ele>366.399993896484375</ele>
        <time>2013-09-01T13:57:09.000Z</time>
        <extensions>
          <ns3:TrackPointExtension>
            <ns3:atemp>21.0</ns3:atemp>
          </ns3:TrackPointExtension>
        </extensions>
      </trkpt>
      <trkpt lat="46.8149474076926708221435546875" lon="6.8936887197196483612060546875">
        <ele>366</ele>
        <time>2013-09-01T13:57:10.000Z</time>
        <extensions>
          <ns3:TrackPointExtension>
            <ns3:atemp>21.0</ns3:atemp>
          </ns3:TrackPointExtension>
        </extensions>
      </trkpt>
      <trkpt lat="46.8149742297828197479248046875" lon="6.8937599658966064453125">
        <ele>365.79998779296875</ele>
        <time>2013-09-01T13:57:11.000Z</time>
        <extensions>
          <ns3:TrackPointExtension>
            <ns3:atemp>21.0</ns3:atemp>
          </ns3:TrackPointExtension>
        </extensions>
      </trkpt>
      <trkpt lat="46.81499945931136608123779296875" lon="6.89383280463516712188720703125">
        <ele>365.399993896484375</ele>
        <time>2013-09-01T13:57:12.000Z</time>
        <extensions>
          <ns3:TrackPointExtension>
            <ns3:atemp>21.0</ns3:atemp>
          </ns3:TrackPointExtension>
        </extensions>
      </trkpt>
      <trkpt lat="46.8150241859257221221923828125" lon="6.89390455372631549835205078125">
        <ele>365.399993896484375</ele>
        <time>2013-09-01T13:57:13.000Z</time>
        <extensions>
          <ns3:TrackPointExtension>
            <ns3:atemp>21.0</ns3:atemp>
          </ns3:TrackPointExtension>
        </extensions>
      </trkpt>
      <trkpt lat="46.8150496669113636016845703125" lon="6.893975548446178436279296875">
        <ele>365.20001220703125</ele>
        <time>2013-09-01T13:57:14.000Z</time>
        <extensions>
          <ns3:TrackPointExtension>
            <ns3:atemp>21.0</ns3:atemp>
          </ns3:TrackPointExtension>
        </extensions>
      </trkpt>
      <trkpt lat="46.81507539935410022735595703125" lon="6.89404629170894622802734375">
        <ele>365</ele>
        <time>2013-09-01T13:57:15.000Z</time>
        <extensions>
          <ns3:TrackPointExtension>
            <ns3:atemp>21.0</ns3:atemp>
          </ns3:TrackPointExtension>
        </extensions>
      </trkpt>
      <trkpt lat="46.81510054506361484527587890625" lon="6.89411628060042858123779296875">
        <ele>364.79998779296875</ele>
        <time>2013-09-01T13:57:16.000Z</time>
        <extensions>
          <ns3:TrackPointExtension>
            <ns3:atemp>21.0</ns3:atemp>
          </ns3:TrackPointExtension>
        </extensions>
      </trkpt>
      <trkpt lat="46.8151244334876537322998046875" lon="6.89418870024383068084716796875">
        <ele>364.79998779296875</ele>
        <time>2013-09-01T13:57:17.000Z</time>
        <extensions>
          <ns3:TrackPointExtension>
            <ns3:atemp>21.0</ns3:atemp>
          </ns3:TrackPointExtension>
        </extensions>
      </trkpt>
      <trkpt lat="46.81514899246394634246826171875" lon="6.89425818622112274169921875">
        <ele>365</ele>
        <time>2013-09-01T13:57:18.000Z</time>
        <extensions>
          <ns3:TrackPointExtension>
            <ns3:atemp>21.0</ns3:atemp>
          </ns3:TrackPointExtension>
        </extensions>
      </trkpt>
      <trkpt lat="46.81517397053539752960205078125" lon="6.89432666637003421783447265625">
        <ele>365</ele>
        <time>2013-09-01T13:57:19.000Z</time>
        <extensions>
          <ns3:TrackPointExtension>
            <ns3:atemp>21.0</ns3:atemp>
          </ns3:TrackPointExtension>
        </extensions>
      </trkpt>
      <trkpt lat="46.81519526056945323944091796875" lon="6.8943981640040874481201171875">
        <ele>364.79998779296875</ele>
        <time>2013-09-01T13:57:20.000Z</time>
        <extensions>
          <ns3:TrackPointExtension>
            <ns3:atemp>21.0</ns3:atemp>
          </ns3:TrackPointExtension>
        </extensions>
      </trkpt>
      <trkpt lat="46.81521437130868434906005859375" lon="6.89446228556334972381591796875">
        <ele>364.600006103515625</ele>
        <time>2013-09-01T13:57:21.000Z</time>
        <extensions>
          <ns3:TrackPointExtension>
            <ns3:atemp>21.0</ns3:atemp>
          </ns3:TrackPointExtension>
        </extensions>
      </trkpt>
      <trkpt lat="46.8152209930121898651123046875" lon="6.89453579485416412353515625">
        <ele>364.399993896484375</ele>
        <time>2013-09-01T13:57:22.000Z</time>
        <extensions>
          <ns3:TrackPointExtension>
            <ns3:atemp>21.0</ns3:atemp>
          </ns3:TrackPointExtension>
        </extensions>
      </trkpt>
      <trkpt lat="46.8152109347283840179443359375" lon="6.8946115672588348388671875">
        <ele>364.20001220703125</ele>
        <time>2013-09-01T13:57:23.000Z</time>
        <extensions>
          <ns3:TrackPointExtension>
            <ns3:atemp>21.0</ns3:atemp>
          </ns3:TrackPointExtension>
        </extensions>
      </trkpt>
      <trkpt lat="46.815189979970455169677734375" lon="6.894682310521602630615234375">
        <ele>364</ele>
        <time>2013-09-01T13:57:24.000Z</time>
        <extensions>
          <ns3:TrackPointExtension>
            <ns3:atemp>21.0</ns3:atemp>
          </ns3:TrackPointExtension>
        </extensions>
      </trkpt>
      <trkpt lat="46.8151582963764667510986328125" lon="6.89473704434931278228759765625">
        <ele>363.79998779296875</ele>
        <time>2013-09-01T13:57:25.000Z</time>
        <extensions>
          <ns3:TrackPointExtension>
            <ns3:atemp>21.0</ns3:atemp>
          </ns3:TrackPointExtension>
        </extensions>
      </trkpt>
      <trkpt lat="46.81513541378080844879150390625" lon="6.89479420892894268035888671875">
        <ele>364</ele>
        <time>2013-09-01T13:57:26.000Z</time>
        <extensions>
          <ns3:TrackPointExtension>
            <ns3:atemp>21.0</ns3:atemp>
          </ns3:TrackPointExtension>
        </extensions>
      </trkpt>
      <trkpt lat="46.8151143752038478851318359375" lon="6.89484567381441593170166015625">
        <ele>364.399993896484375</ele>
        <time>2013-09-01T13:57:27.000Z</time>
        <extensions>
          <ns3:TrackPointExtension>
            <ns3:atemp>21.0</ns3:atemp>
          </ns3:TrackPointExtension>
        </extensions>
      </trkpt>
      <trkpt lat="46.8150952644646167755126953125" lon="6.89489311538636684417724609375">
        <ele>364.600006103515625</ele>
        <time>2013-09-01T13:57:28.000Z</time>
        <extensions>
          <ns3:TrackPointExtension>
            <ns3:atemp>21.0</ns3:atemp>
          </ns3:TrackPointExtension>
        </extensions>
      </trkpt>
      <trkpt lat="46.8150785006582736968994140625" lon="6.8949369527399539947509765625">
        <ele>365</ele>
        <time>2013-09-01T13:57:29.000Z</time>
        <extensions>
          <ns3:TrackPointExtension>
            <ns3:atemp>21.0</ns3:atemp>
          </ns3:TrackPointExtension>
        </extensions>
      </trkpt>
      <trkpt lat="46.8150620721280574798583984375" lon="6.8949758447706699371337890625">
        <ele>365.20001220703125</ele>
        <time>2013-09-01T13:57:30.000Z</time>
        <extensions>
          <ns3:TrackPointExtension>
            <ns3:atemp>21.0</ns3:atemp>
          </ns3:TrackPointExtension>
        </extensions>
      </trkpt>
      <trkpt lat="46.81504547595977783203125" lon="6.89501264132559299468994140625">
        <ele>365.399993896484375</ele>
        <time>2013-09-01T13:57:31.000Z</time>
        <extensions>
          <ns3:TrackPointExtension>
            <ns3:atemp>21.0</ns3:atemp>
          </ns3:TrackPointExtension>
        </extensions>
      </trkpt>
      <trkpt lat="46.81502309627830982208251953125" lon="6.89503393135964870452880859375">
        <ele>365.399993896484375</ele>
        <time>2013-09-01T13:57:32.000Z</time>
        <extensions>
          <ns3:TrackPointExtension>
            <ns3:atemp>21.0</ns3:atemp>
          </ns3:TrackPointExtension>
        </extensions>
      </trkpt>
      <trkpt lat="46.81499526835978031158447265625" lon="6.8950514495372772216796875">
        <ele>365.79998779296875</ele>
        <time>2013-09-01T13:57:33.000Z</time>
        <extensions>
          <ns3:TrackPointExtension>
            <ns3:atemp>21.0</ns3:atemp>
          </ns3:TrackPointExtension>
        </extensions>
      </trkpt>
      <trkpt lat="46.81497179903090000152587890625" lon="6.89507114700973033905029296875">
        <ele>366</ele>
        <time>2013-09-01T13:57:34.000Z</time>
        <extensions>
          <ns3:TrackPointExtension>
            <ns3:atemp>21.0</ns3:atemp>
          </ns3:TrackPointExtension>
        </extensions>
      </trkpt>
      <trkpt lat="46.814947240054607391357421875" lon="6.8950898386538028717041015625">
        <ele>366.20001220703125</ele>
        <time>2013-09-01T13:57:35.000Z</time>
        <extensions>
          <ns3:TrackPointExtension>
            <ns3:atemp>21.0</ns3:atemp>
          </ns3:TrackPointExtension>
        </extensions>
      </trkpt>
      <trkpt lat="46.81491966359317302703857421875" lon="6.89510576426982879638671875">
        <ele>366.20001220703125</ele>
        <time>2013-09-01T13:57:36.000Z</time>
        <extensions>
          <ns3:TrackPointExtension>
            <ns3:atemp>21.0</ns3:atemp>
          </ns3:TrackPointExtension>
        </extensions>
      </trkpt>
      <trkpt lat="46.8148930929601192474365234375" lon="6.8951159901916980743408203125">
        <ele>366.399993896484375</ele>
        <time>2013-09-01T13:57:37.000Z</time>
        <extensions>
          <ns3:TrackPointExtension>
            <ns3:atemp>21.0</ns3:atemp>
          </ns3:TrackPointExtension>
        </extensions>
      </trkpt>
      <trkpt lat="46.81486786343157291412353515625" lon="6.895132921636104583740234375">
        <ele>366.600006103515625</ele>
        <time>2013-09-01T13:57:38.000Z</time>
        <extensions>
          <ns3:TrackPointExtension>
            <ns3:atemp>21.0</ns3:atemp>
          </ns3:TrackPointExtension>
        </extensions>
      </trkpt>
      <trkpt lat="46.81484037078917026519775390625" lon="6.8951475061476230621337890625">
        <ele>366.79998779296875</ele>
        <time>2013-09-01T13:57:39.000Z</time>
        <extensions>
          <ns3:TrackPointExtension>
            <ns3:atemp>21.0</ns3:atemp>
          </ns3:TrackPointExtension>
        </extensions>
      </trkpt>
      <trkpt lat="46.81481153704226016998291015625" lon="6.895152367651462554931640625">
        <ele>367</ele>
        <time>2013-09-01T13:57:40.000Z</time>
        <extensions>
          <ns3:TrackPointExtension>
            <ns3:atemp>21.0</ns3:atemp>
          </ns3:TrackPointExtension>
        </extensions>
      </trkpt>
      <trkpt lat="46.81478488259017467498779296875" lon="6.89515915699303150177001953125">
        <ele>367.20001220703125</ele>
        <time>2013-09-01T13:57:41.000Z</time>
        <extensions>
          <ns3:TrackPointExtension>
            <ns3:atemp>21.0</ns3:atemp>
          </ns3:TrackPointExtension>
        </extensions>
      </trkpt>
      <trkpt lat="46.81475990451872348785400390625" lon="6.89516720362007617950439453125">
        <ele>367.600006103515625</ele>
        <time>2013-09-01T13:57:42.000Z</time>
        <extensions>
          <ns3:TrackPointExtension>
            <ns3:atemp>21.0</ns3:atemp>
          </ns3:TrackPointExtension>
        </extensions>
      </trkpt>
      <trkpt lat="46.81473509408533573150634765625" lon="6.89517759718000888824462890625">
        <ele>367.79998779296875</ele>
        <time>2013-09-01T13:57:43.000Z</time>
        <extensions>
          <ns3:TrackPointExtension>
            <ns3:atemp>21.0</ns3:atemp>
          </ns3:TrackPointExtension>
        </extensions>
      </trkpt>
      <trkpt lat="46.8147100321948528289794921875" lon="6.89518916420638561248779296875">
        <ele>368</ele>
        <time>2013-09-01T13:57:44.000Z</time>
        <extensions>
          <ns3:TrackPointExtension>
            <ns3:atemp>21.0</ns3:atemp>
          </ns3:TrackPointExtension>
        </extensions>
      </trkpt>
      <trkpt lat="46.81468413211405277252197265625" lon="6.89520073123276233673095703125">
        <ele>368.20001220703125</ele>
        <time>2013-09-01T13:57:45.000Z</time>
        <extensions>
          <ns3:TrackPointExtension>
            <ns3:atemp>21.0</ns3:atemp>
          </ns3:TrackPointExtension>
        </extensions>
      </trkpt>
      <trkpt lat="46.814658232033252716064453125" lon="6.89521380700170993804931640625">
        <ele>368.600006103515625</ele>
        <time>2013-09-01T13:57:46.000Z</time>
        <extensions>
          <ns3:TrackPointExtension>
            <ns3:atemp>21.0</ns3:atemp>
          </ns3:TrackPointExtension>
        </extensions>
      </trkpt>
      <trkpt lat="46.81463333778083324432373046875" lon="6.89522755332291126251220703125">
        <ele>369</ele>
        <time>2013-09-01T13:57:47.000Z</time>
        <extensions>
          <ns3:TrackPointExtension>
            <ns3:atemp>21.0</ns3:atemp>
          </ns3:TrackPointExtension>
        </extensions>
      </trkpt>
      <trkpt lat="46.81460349820554256439208984375" lon="6.8952365219593048095703125">
        <ele>369.20001220703125</ele>
        <time>2013-09-01T13:57:48.000Z</time>
        <extensions>
          <ns3:TrackPointExtension>
            <ns3:atemp>21.0</ns3:atemp>
          </ns3:TrackPointExtension>
        </extensions>
      </trkpt>
      <trkpt lat="46.814578436315059661865234375" lon="6.89525454305112361907958984375">
        <ele>369.600006103515625</ele>
        <time>2013-09-01T13:57:49.000Z</time>
        <extensions>
          <ns3:TrackPointExtension>
            <ns3:atemp>21.0</ns3:atemp>
          </ns3:TrackPointExtension>
        </extensions>
      </trkpt>
      <trkpt lat="46.81454985402524471282958984375" lon="6.89526460133492946624755859375">
        <ele>369.79998779296875</ele>
        <time>2013-09-01T13:57:50.000Z</time>
        <extensions>
          <ns3:TrackPointExtension>
            <ns3:atemp>21.0</ns3:atemp>
          </ns3:TrackPointExtension>
        </extensions>
      </trkpt>
      <trkpt lat="46.81452403776347637176513671875" lon="6.895273067057132720947265625">
        <ele>370</ele>
        <time>2013-09-01T13:57:51.000Z</time>
        <extensions>
          <ns3:TrackPointExtension>
            <ns3:atemp>21.0</ns3:atemp>
          </ns3:TrackPointExtension>
        </extensions>
      </trkpt>
      <trkpt lat="46.81449537165462970733642578125" lon="6.8952762521803379058837890625">
        <ele>370.399993896484375</ele>
        <time>2013-09-01T13:57:52.000Z</time>
        <extensions>
          <ns3:TrackPointExtension>
            <ns3:atemp>21.0</ns3:atemp>
          </ns3:TrackPointExtension>
        </extensions>
      </trkpt>
      <trkpt lat="46.8144649453461170196533203125" lon="6.8952832929790019989013671875">
        <ele>370.600006103515625</ele>
        <time>2013-09-01T13:57:53.000Z</time>
        <extensions>
          <ns3:TrackPointExtension>
            <ns3:atemp>21.0</ns3:atemp>
          </ns3:TrackPointExtension>
        </extensions>
      </trkpt>
      <trkpt lat="46.81443586014211177825927734375" lon="6.89528639428317546844482421875">
        <ele>370.79998779296875</ele>
        <time>2013-09-01T13:57:54.000Z</time>
        <extensions>
          <ns3:TrackPointExtension>
            <ns3:atemp>21.0</ns3:atemp>
          </ns3:TrackPointExtension>
        </extensions>
      </trkpt>
      <trkpt lat="46.81440870277583599090576171875" lon="6.89528890885412693023681640625">
        <ele>371</ele>
        <time>2013-09-01T13:57:55.000Z</time>
        <extensions>
          <ns3:TrackPointExtension>
            <ns3:atemp>21.0</ns3:atemp>
          </ns3:TrackPointExtension>
        </extensions>
      </trkpt>
      <trkpt lat="46.81438255123794078826904296875" lon="6.89529259689152240753173828125">
        <ele>371.20001220703125</ele>
        <time>2013-09-01T13:57:56.000Z</time>
        <extensions>
          <ns3:TrackPointExtension>
            <ns3:atemp>21.0</ns3:atemp>
          </ns3:TrackPointExtension>
        </extensions>
      </trkpt>
      <trkpt lat="46.8143574893474578857421875" lon="6.8952982127666473388671875">
        <ele>371.399993896484375</ele>
        <time>2013-09-01T13:57:57.000Z</time>
        <extensions>
          <ns3:TrackPointExtension>
            <ns3:atemp>21.0</ns3:atemp>
          </ns3:TrackPointExtension>
        </extensions>
      </trkpt>
      <trkpt lat="46.81433343328535556793212890625" lon="6.8953064270317554473876953125">
        <ele>371.399993896484375</ele>
        <time>2013-09-01T13:57:58.000Z</time>
        <extensions>
          <ns3:TrackPointExtension>
            <ns3:atemp>21.0</ns3:atemp>
          </ns3:TrackPointExtension>
        </extensions>
      </trkpt>
      <trkpt lat="46.81430929340422153472900390625" lon="6.8953143060207366943359375">
        <ele>371.600006103515625</ele>
        <time>2013-09-01T13:57:59.000Z</time>
        <extensions>
          <ns3:TrackPointExtension>
            <ns3:atemp>21.0</ns3:atemp>
          </ns3:TrackPointExtension>
        </extensions>
      </trkpt>
      <trkpt lat="46.81428515352308750152587890625" lon="6.895320676267147064208984375">
        <ele>371.79998779296875</ele>
        <time>2013-09-01T13:58:00.000Z</time>
        <extensions>
          <ns3:TrackPointExtension>
            <ns3:atemp>21.0</ns3:atemp>
          </ns3:TrackPointExtension>
        </extensions>
      </trkpt>
      <trkpt lat="46.81426084600389003753662109375" lon="6.895326040685176849365234375">
        <ele>372</ele>
        <time>2013-09-01T13:58:01.000Z</time>
        <extensions>
          <ns3:TrackPointExtension>
            <ns3:atemp>21.0</ns3:atemp>
          </ns3:TrackPointExtension>
        </extensions>
      </trkpt>
      <trkpt lat="46.81423687376081943511962890625" lon="6.89533132128417491912841796875">
        <ele>372.20001220703125</ele>
        <time>2013-09-01T13:58:02.000Z</time>
        <extensions>
          <ns3:TrackPointExtension>
            <ns3:atemp>22.0</ns3:atemp>
          </ns3:TrackPointExtension>
        </extensions>
      </trkpt>
      <trkpt lat="46.81421474553644657135009765625" lon="6.89533718861639499664306640625">
        <ele>372.20001220703125</ele>
        <time>2013-09-01T13:58:03.000Z</time>
        <extensions>
          <ns3:TrackPointExtension>
            <ns3:atemp>22.0</ns3:atemp>
          </ns3:TrackPointExtension>
        </extensions>
      </trkpt>
      <trkpt lat="46.81418918073177337646484375" lon="6.89533484168350696563720703125">
        <ele>372.399993896484375</ele>
        <time>2013-09-01T13:58:04.000Z</time>
        <extensions>
          <ns3:TrackPointExtension>
            <ns3:atemp>22.0</ns3:atemp>
          </ns3:TrackPointExtension>
        </extensions>
      </trkpt>
      <trkpt lat="46.81417082436382770538330078125" lon="6.8953288905322551727294921875">
        <ele>372.600006103515625</ele>
        <time>2013-09-01T13:58:05.000Z</time>
        <extensions>
          <ns3:TrackPointExtension>
            <ns3:atemp>22.0</ns3:atemp>
          </ns3:TrackPointExtension>
        </extensions>
      </trkpt>
      <trkpt lat="46.81414903141558170318603515625" lon="6.89532679505646228790283203125">
        <ele>372.79998779296875</ele>
        <time>2013-09-01T13:58:06.000Z</time>
        <extensions>
          <ns3:TrackPointExtension>
            <ns3:atemp>22.0</ns3:atemp>
          </ns3:TrackPointExtension>
        </extensions>
      </trkpt>
      <trkpt lat="46.81412841193377971649169921875" lon="6.89532847143709659576416015625">
        <ele>373</ele>
        <time>2013-09-01T13:58:07.000Z</time>
        <extensions>
          <ns3:TrackPointExtension>
            <ns3:atemp>22.0</ns3:atemp>
          </ns3:TrackPointExtension>
        </extensions>
      </trkpt>
      <trkpt lat="46.814108379185199737548828125" lon="6.8953342549502849578857421875">
        <ele>373</ele>
        <time>2013-09-01T13:58:08.000Z</time>
        <extensions>
          <ns3:TrackPointExtension>
            <ns3:atemp>22.0</ns3:atemp>
          </ns3:TrackPointExtension>
        </extensions>
      </trkpt>
      <trkpt lat="46.8140892684459686279296875" lon="6.89534171484410762786865234375">
        <ele>373.20001220703125</ele>
        <time>2013-09-01T13:58:09.000Z</time>
        <extensions>
          <ns3:TrackPointExtension>
            <ns3:atemp>22.0</ns3:atemp>
          </ns3:TrackPointExtension>
        </extensions>
      </trkpt>
      <trkpt lat="46.81407141499221324920654296875" lon="6.89534909091889858245849609375">
        <ele>373.399993896484375</ele>
        <time>2013-09-01T13:58:10.000Z</time>
        <extensions>
          <ns3:TrackPointExtension>
            <ns3:atemp>22.0</ns3:atemp>
          </ns3:TrackPointExtension>
        </extensions>
      </trkpt>
      <trkpt lat="46.81404828093945980072021484375" lon="6.89535613171756267547607421875">
        <ele>373.600006103515625</ele>
        <time>2013-09-01T13:58:11.000Z</time>
        <extensions>
          <ns3:TrackPointExtension>
            <ns3:atemp>22.0</ns3:atemp>
          </ns3:TrackPointExtension>
        </extensions>
      </trkpt>
      <trkpt lat="46.8140220455825328826904296875" lon="6.89536166377365589141845703125">
        <ele>373.79998779296875</ele>
        <time>2013-09-01T13:58:12.000Z</time>
        <extensions>
          <ns3:TrackPointExtension>
            <ns3:atemp>22.0</ns3:atemp>
          </ns3:TrackPointExtension>
        </extensions>
      </trkpt>
      <trkpt lat="46.81399715133011341094970703125" lon="6.89536350779235363006591796875">
        <ele>374</ele>
        <time>2013-09-01T13:58:13.000Z</time>
        <extensions>
          <ns3:TrackPointExtension>
            <ns3:atemp>22.0</ns3:atemp>
          </ns3:TrackPointExtension>
        </extensions>
      </trkpt>
      <trkpt lat="46.8139724247157573699951171875" lon="6.89536392688751220703125">
        <ele>374.20001220703125</ele>
        <time>2013-09-01T13:58:14.000Z</time>
        <extensions>
          <ns3:TrackPointExtension>
            <ns3:atemp>22.0</ns3:atemp>
          </ns3:TrackPointExtension>
        </extensions>
      </trkpt>
      <trkpt lat="46.8139472790062427520751953125" lon="6.89536786638200283050537109375">
        <ele>374.399993896484375</ele>
        <time>2013-09-01T13:58:15.000Z</time>
        <extensions>
          <ns3:TrackPointExtension>
            <ns3:atemp>22.0</ns3:atemp>
          </ns3:TrackPointExtension>
        </extensions>
      </trkpt>
      <trkpt lat="46.81392288766801357269287109375" lon="6.89537373371422290802001953125">
        <ele>374.600006103515625</ele>
        <time>2013-09-01T13:58:16.000Z</time>
        <extensions>
          <ns3:TrackPointExtension>
            <ns3:atemp>22.0</ns3:atemp>
          </ns3:TrackPointExtension>
        </extensions>
      </trkpt>
      <trkpt lat="46.81389950215816497802734375" lon="6.89538161270320415496826171875">
        <ele>374.600006103515625</ele>
        <time>2013-09-01T13:58:17.000Z</time>
        <extensions>
          <ns3:TrackPointExtension>
            <ns3:atemp>22.0</ns3:atemp>
          </ns3:TrackPointExtension>
        </extensions>
      </trkpt>
      <trkpt lat="46.813876368105411529541015625" lon="6.89539100043475627899169921875">
        <ele>374.79998779296875</ele>
        <time>2013-09-01T13:58:18.000Z</time>
        <extensions>
          <ns3:TrackPointExtension>
            <ns3:atemp>22.0</ns3:atemp>
          </ns3:TrackPointExtension>
        </extensions>
      </trkpt>
      <trkpt lat="46.81385382078588008880615234375" lon="6.89540390856564044952392578125">
        <ele>375</ele>
        <time>2013-09-01T13:58:19.000Z</time>
        <extensions>
          <ns3:TrackPointExtension>
            <ns3:atemp>22.0</ns3:atemp>
          </ns3:TrackPointExtension>
        </extensions>
      </trkpt>
      <trkpt lat="46.813830770552158355712890625" lon="6.89541480503976345062255859375">
        <ele>375.20001220703125</ele>
        <time>2013-09-01T13:58:20.000Z</time>
        <extensions>
          <ns3:TrackPointExtension>
            <ns3:atemp>22.0</ns3:atemp>
          </ns3:TrackPointExtension>
        </extensions>
      </trkpt>
      <trkpt lat="46.81380830705165863037109375" lon="6.8954242765903472900390625">
        <ele>375.399993896484375</ele>
        <time>2013-09-01T13:58:21.000Z</time>
        <extensions>
          <ns3:TrackPointExtension>
            <ns3:atemp>22.0</ns3:atemp>
          </ns3:TrackPointExtension>
        </extensions>
      </trkpt>
      <trkpt lat="46.81378659792244434356689453125" lon="6.89543609507381916046142578125">
        <ele>375.399993896484375</ele>
        <time>2013-09-01T13:58:22.000Z</time>
        <extensions>
          <ns3:TrackPointExtension>
            <ns3:atemp>22.0</ns3:atemp>
          </ns3:TrackPointExtension>
        </extensions>
      </trkpt>
      <trkpt lat="46.81376539170742034912109375" lon="6.89544816501438617706298828125">
        <ele>375.600006103515625</ele>
        <time>2013-09-01T13:58:23.000Z</time>
        <extensions>
          <ns3:TrackPointExtension>
            <ns3:atemp>22.0</ns3:atemp>
          </ns3:TrackPointExtension>
        </extensions>
      </trkpt>
      <trkpt lat="46.81374393403530120849609375" lon="6.89546006731688976287841796875">
        <ele>375.600006103515625</ele>
        <time>2013-09-01T13:58:24.000Z</time>
        <extensions>
          <ns3:TrackPointExtension>
            <ns3:atemp>22.0</ns3:atemp>
          </ns3:TrackPointExtension>
        </extensions>
      </trkpt>
      <trkpt lat="46.81372406892478466033935546875" lon="6.89547264017164707183837890625">
        <ele>376</ele>
        <time>2013-09-01T13:58:25.000Z</time>
        <extensions>
          <ns3:TrackPointExtension>
            <ns3:atemp>22.0</ns3:atemp>
          </ns3:TrackPointExtension>
        </extensions>
      </trkpt>
      <trkpt lat="46.81370437145233154296875" lon="6.895486302673816680908203125">
        <ele>376.20001220703125</ele>
        <time>2013-09-01T13:58:26.000Z</time>
        <extensions>
          <ns3:TrackPointExtension>
            <ns3:atemp>22.0</ns3:atemp>
          </ns3:TrackPointExtension>
        </extensions>
      </trkpt>
      <trkpt lat="46.8136844225227832794189453125" lon="6.89549946226179599761962890625">
        <ele>376.399993896484375</ele>
        <time>2013-09-01T13:58:27.000Z</time>
        <extensions>
          <ns3:TrackPointExtension>
            <ns3:atemp>22.0</ns3:atemp>
          </ns3:TrackPointExtension>
        </extensions>
      </trkpt>
      <trkpt lat="46.81366405449807643890380859375" lon="6.89550985582172870635986328125">
        <ele>376.600006103515625</ele>
        <time>2013-09-01T13:58:28.000Z</time>
        <extensions>
          <ns3:TrackPointExtension>
            <ns3:atemp>22.0</ns3:atemp>
          </ns3:TrackPointExtension>
        </extensions>
      </trkpt>
      <trkpt lat="46.8136421777307987213134765625" lon="6.89551957882940769195556640625">
        <ele>376.79998779296875</ele>
        <time>2013-09-01T13:58:29.000Z</time>
        <extensions>
          <ns3:TrackPointExtension>
            <ns3:atemp>22.0</ns3:atemp>
          </ns3:TrackPointExtension>
        </extensions>
      </trkpt>
      <trkpt lat="46.8136190436780452728271484375" lon="6.8955300562083721160888671875">
        <ele>377</ele>
        <time>2013-09-01T13:58:30.000Z</time>
        <extensions>
          <ns3:TrackPointExtension>
            <ns3:atemp>22.0</ns3:atemp>
          </ns3:TrackPointExtension>
        </extensions>
      </trkpt>
      <trkpt lat="46.813598088920116424560546875" lon="6.8955424614250659942626953125">
        <ele>377.20001220703125</ele>
        <time>2013-09-01T13:58:31.000Z</time>
        <extensions>
          <ns3:TrackPointExtension>
            <ns3:atemp>22.0</ns3:atemp>
          </ns3:TrackPointExtension>
        </extensions>
      </trkpt>
      <trkpt lat="46.81358090601861476898193359375" lon="6.89555905759334564208984375">
        <ele>377.600006103515625</ele>
        <time>2013-09-01T13:58:32.000Z</time>
        <extensions>
          <ns3:TrackPointExtension>
            <ns3:atemp>22.0</ns3:atemp>
          </ns3:TrackPointExtension>
        </extensions>
      </trkpt>
      <trkpt lat="46.8135662376880645751953125" lon="6.89557917416095733642578125">
        <ele>377.79998779296875</ele>
        <time>2013-09-01T13:58:33.000Z</time>
        <extensions>
          <ns3:TrackPointExtension>
            <ns3:atemp>22.0</ns3:atemp>
          </ns3:TrackPointExtension>
        </extensions>
      </trkpt>
      <trkpt lat="46.81355190463364124298095703125" lon="6.89559753052890300750732421875">
        <ele>378</ele>
        <time>2013-09-01T13:58:34.000Z</time>
        <extensions>
          <ns3:TrackPointExtension>
            <ns3:atemp>22.0</ns3:atemp>
          </ns3:TrackPointExtension>
        </extensions>
      </trkpt>
      <trkpt lat="46.81353564374148845672607421875" lon="6.89561496488749980926513671875">
        <ele>378.20001220703125</ele>
        <time>2013-09-01T13:58:35.000Z</time>
        <extensions>
          <ns3:TrackPointExtension>
            <ns3:atemp>22.0</ns3:atemp>
          </ns3:TrackPointExtension>
        </extensions>
      </trkpt>
      <trkpt lat="46.8135181255638599395751953125" lon="6.89563256688416004180908203125">
        <ele>378.600006103515625</ele>
        <time>2013-09-01T13:58:36.000Z</time>
        <extensions>
          <ns3:TrackPointExtension>
            <ns3:atemp>22.0</ns3:atemp>
          </ns3:TrackPointExtension>
        </extensions>
      </trkpt>
      <trkpt lat="46.81349993683397769927978515625" lon="6.895650923252105712890625">
        <ele>379</ele>
        <time>2013-09-01T13:58:37.000Z</time>
        <extensions>
          <ns3:TrackPointExtension>
            <ns3:atemp>22.0</ns3:atemp>
          </ns3:TrackPointExtension>
        </extensions>
      </trkpt>
      <trkpt lat="46.813481748104095458984375" lon="6.89566995017230510711669921875">
        <ele>379.20001220703125</ele>
        <time>2013-09-01T13:58:38.000Z</time>
        <extensions>
          <ns3:TrackPointExtension>
            <ns3:atemp>22.0</ns3:atemp>
          </ns3:TrackPointExtension>
        </extensions>
      </trkpt>
      <trkpt lat="46.813463307917118072509765625" lon="6.8956896476447582244873046875">
        <ele>379.600006103515625</ele>
        <time>2013-09-01T13:58:39.000Z</time>
        <extensions>
          <ns3:TrackPointExtension>
            <ns3:atemp>22.0</ns3:atemp>
          </ns3:TrackPointExtension>
        </extensions>
      </trkpt>
      <trkpt lat="46.8134463764727115631103515625" lon="6.89570917747914791107177734375">
        <ele>379.79998779296875</ele>
        <time>2013-09-01T13:58:40.000Z</time>
        <extensions>
          <ns3:TrackPointExtension>
            <ns3:atemp>22.0</ns3:atemp>
          </ns3:TrackPointExtension>
        </extensions>
      </trkpt>
      <trkpt lat="46.8134306184947490692138671875" lon="6.89572778530418872833251953125">
        <ele>380</ele>
        <time>2013-09-01T13:58:41.000Z</time>
        <extensions>
          <ns3:TrackPointExtension>
            <ns3:atemp>22.0</ns3:atemp>
          </ns3:TrackPointExtension>
        </extensions>
      </trkpt>
      <trkpt lat="46.81341527961194515228271484375" lon="6.89574756659567356109619140625">
        <ele>380.399993896484375</ele>
        <time>2013-09-01T13:58:42.000Z</time>
        <extensions>
          <ns3:TrackPointExtension>
            <ns3:atemp>22.0</ns3:atemp>
          </ns3:TrackPointExtension>
        </extensions>
      </trkpt>
      <trkpt lat="46.81339968927204608917236328125" lon="6.8957684375345706939697265625">
        <ele>380.600006103515625</ele>
        <time>2013-09-01T13:58:43.000Z</time>
        <extensions>
          <ns3:TrackPointExtension>
            <ns3:atemp>22.0</ns3:atemp>
          </ns3:TrackPointExtension>
        </extensions>
      </trkpt>
      <trkpt lat="46.8133830092847347259521484375" lon="6.89578645862638950347900390625">
        <ele>380.79998779296875</ele>
        <time>2013-09-01T13:58:44.000Z</time>
        <extensions>
          <ns3:TrackPointExtension>
            <ns3:atemp>22.0</ns3:atemp>
          </ns3:TrackPointExtension>
        </extensions>
      </trkpt>
      <trkpt lat="46.813367418944835662841796875" lon="6.89580556936562061309814453125">
        <ele>381</ele>
        <time>2013-09-01T13:58:45.000Z</time>
        <extensions>
          <ns3:TrackPointExtension>
            <ns3:atemp>22.0</ns3:atemp>
          </ns3:TrackPointExtension>
        </extensions>
      </trkpt>
      <trkpt lat="46.81335191242396831512451171875" lon="6.8958257697522640228271484375">
        <ele>381.399993896484375</ele>
        <time>2013-09-01T13:58:46.000Z</time>
        <extensions>
          <ns3:TrackPointExtension>
            <ns3:atemp>22.0</ns3:atemp>
          </ns3:TrackPointExtension>
        </extensions>
      </trkpt>
      <trkpt lat="46.8133350647985935211181640625" lon="6.89584546722471714019775390625">
        <ele>381.399993896484375</ele>
        <time>2013-09-01T13:58:47.000Z</time>
        <extensions>
          <ns3:TrackPointExtension>
            <ns3:atemp>22.0</ns3:atemp>
          </ns3:TrackPointExtension>
        </extensions>
      </trkpt>
      <trkpt lat="46.81331989355385303497314453125" lon="6.8958653323352336883544921875">
        <ele>381.79998779296875</ele>
        <time>2013-09-01T13:58:48.000Z</time>
        <extensions>
          <ns3:TrackPointExtension>
            <ns3:atemp>22.0</ns3:atemp>
          </ns3:TrackPointExtension>
        </extensions>
      </trkpt>
      <trkpt lat="46.81330497376620769500732421875" lon="6.89588586799800395965576171875">
        <ele>382.20001220703125</ele>
        <time>2013-09-01T13:58:49.000Z</time>
        <extensions>
          <ns3:TrackPointExtension>
            <ns3:atemp>22.0</ns3:atemp>
          </ns3:TrackPointExtension>
        </extensions>
      </trkpt>
      <trkpt lat="46.81329072453081607818603515625" lon="6.89590799622237682342529296875">
        <ele>382.399993896484375</ele>
        <time>2013-09-01T13:58:50.000Z</time>
        <extensions>
          <ns3:TrackPointExtension>
            <ns3:atemp>22.0</ns3:atemp>
          </ns3:TrackPointExtension>
        </extensions>
      </trkpt>
      <trkpt lat="46.81327781639993190765380859375" lon="6.895927526056766510009765625">
        <ele>382.79998779296875</ele>
        <time>2013-09-01T13:58:51.000Z</time>
        <extensions>
          <ns3:TrackPointExtension>
            <ns3:atemp>22.0</ns3:atemp>
          </ns3:TrackPointExtension>
        </extensions>
      </trkpt>
      <trkpt lat="46.81326624937355518341064453125" lon="6.8959434516727924346923828125">
        <ele>383</ele>
        <time>2013-09-01T13:58:52.000Z</time>
        <extensions>
          <ns3:TrackPointExtension>
            <ns3:atemp>22.0</ns3:atemp>
          </ns3:TrackPointExtension>
        </extensions>
      </trkpt>
      <trkpt lat="46.81325585581362247467041015625" lon="6.89595962874591350555419921875">
        <ele>383.20001220703125</ele>
        <time>2013-09-01T13:58:53.000Z</time>
        <extensions>
          <ns3:TrackPointExtension>
            <ns3:atemp>22.0</ns3:atemp>
          </ns3:TrackPointExtension>
        </extensions>
      </trkpt>
      <trkpt lat="46.8132448755204677581787109375" lon="6.89597488380968570709228515625">
        <ele>383.399993896484375</ele>
        <time>2013-09-01T13:58:54.000Z</time>
        <extensions>
          <ns3:TrackPointExtension>
            <ns3:atemp>22.0</ns3:atemp>
          </ns3:TrackPointExtension>
        </extensions>
      </trkpt>
      <trkpt lat="46.8132336437702178955078125" lon="6.89598795957863330841064453125">
        <ele>383.600006103515625</ele>
        <time>2013-09-01T13:58:55.000Z</time>
        <extensions>
          <ns3:TrackPointExtension>
            <ns3:atemp>22.0</ns3:atemp>
          </ns3:TrackPointExtension>
        </extensions>
      </trkpt>
      <trkpt lat="46.8132230825722217559814453125" lon="6.89600086770951747894287109375">
        <ele>383.79998779296875</ele>
        <time>2013-09-01T13:58:56.000Z</time>
        <extensions>
          <ns3:TrackPointExtension>
            <ns3:atemp>22.0</ns3:atemp>
          </ns3:TrackPointExtension>
        </extensions>
      </trkpt>
      <trkpt lat="46.81321394629776477813720703125" lon="6.8960145302116870880126953125">
        <ele>384</ele>
        <time>2013-09-01T13:58:57.000Z</time>
        <extensions>
          <ns3:TrackPointExtension>
            <ns3:atemp>22.0</ns3:atemp>
          </ns3:TrackPointExtension>
        </extensions>
      </trkpt>
      <trkpt lat="46.813205145299434661865234375" lon="6.8960282765328884124755859375">
        <ele>384.399993896484375</ele>
        <time>2013-09-01T13:58:58.000Z</time>
        <extensions>
          <ns3:TrackPointExtension>
            <ns3:atemp>22.0</ns3:atemp>
          </ns3:TrackPointExtension>
        </extensions>
      </trkpt>
      <trkpt lat="46.8131960928440093994140625" lon="6.8960411846637725830078125">
        <ele>384.600006103515625</ele>
        <time>2013-09-01T13:58:59.000Z</time>
        <extensions>
          <ns3:TrackPointExtension>
            <ns3:atemp>22.0</ns3:atemp>
          </ns3:TrackPointExtension>
        </extensions>
      </trkpt>
      <trkpt lat="46.81318863295018672943115234375" lon="6.896053254604339599609375">
        <ele>384.79998779296875</ele>
        <time>2013-09-01T13:59:00.000Z</time>
        <extensions>
          <ns3:TrackPointExtension>
            <ns3:atemp>22.0</ns3:atemp>
          </ns3:TrackPointExtension>
        </extensions>
      </trkpt>
      <trkpt lat="46.81318067014217376708984375" lon="6.89606540836393833160400390625">
        <ele>385.399993896484375</ele>
        <time>2013-09-01T13:59:01.000Z</time>
        <extensions>
          <ns3:TrackPointExtension>
            <ns3:atemp>22.0</ns3:atemp>
          </ns3:TrackPointExtension>
        </extensions>
      </trkpt>
      <trkpt lat="46.8131732940673828125" lon="6.89607647247612476348876953125">
        <ele>385.399993896484375</ele>
        <time>2013-09-01T13:59:02.000Z</time>
        <extensions>
          <ns3:TrackPointExtension>
            <ns3:atemp>22.0</ns3:atemp>
          </ns3:TrackPointExtension>
        </extensions>
      </trkpt>
      <trkpt lat="46.81316432543098926544189453125" lon="6.896090470254421234130859375">
        <ele>385.600006103515625</ele>
        <time>2013-09-01T13:59:03.000Z</time>
        <extensions>
          <ns3:TrackPointExtension>
            <ns3:atemp>22.0</ns3:atemp>
          </ns3:TrackPointExtension>
        </extensions>
      </trkpt>
      <trkpt lat="46.81315359659492969512939453125" lon="6.8961067311465740203857421875">
        <ele>385.79998779296875</ele>
        <time>2013-09-01T13:59:04.000Z</time>
        <extensions>
          <ns3:TrackPointExtension>
            <ns3:atemp>22.0</ns3:atemp>
          </ns3:TrackPointExtension>
        </extensions>
      </trkpt>
      <trkpt lat="46.813142113387584686279296875" lon="6.8961231596767902374267578125">
        <ele>386</ele>
        <time>2013-09-01T13:59:05.000Z</time>
        <extensions>
          <ns3:TrackPointExtension>
            <ns3:atemp>22.0</ns3:atemp>
          </ns3:TrackPointExtension>
        </extensions>
      </trkpt>
      <trkpt lat="46.813130713999271392822265625" lon="6.8961402587592601776123046875">
        <ele>386.20001220703125</ele>
        <time>2013-09-01T13:59:06.000Z</time>
        <extensions>
          <ns3:TrackPointExtension>
            <ns3:atemp>22.0</ns3:atemp>
          </ns3:TrackPointExtension>
        </extensions>
      </trkpt>
      <trkpt lat="46.8131183087825775146484375" lon="6.89615610055625438690185546875">
        <ele>386.399993896484375</ele>
        <time>2013-09-01T13:59:07.000Z</time>
        <extensions>
          <ns3:TrackPointExtension>
            <ns3:atemp>22.0</ns3:atemp>
          </ns3:TrackPointExtension>
        </extensions>
      </trkpt>
      <trkpt lat="46.813104562461376190185546875" lon="6.89617202617228031158447265625">
        <ele>386.600006103515625</ele>
        <time>2013-09-01T13:59:08.000Z</time>
        <extensions>
          <ns3:TrackPointExtension>
            <ns3:atemp>22.0</ns3:atemp>
          </ns3:TrackPointExtension>
        </extensions>
      </trkpt>
      <trkpt lat="46.81309224106371402740478515625" lon="6.89618895761668682098388671875">
        <ele>386.79998779296875</ele>
        <time>2013-09-01T13:59:09.000Z</time>
        <extensions>
          <ns3:TrackPointExtension>
            <ns3:atemp>22.0</ns3:atemp>
          </ns3:TrackPointExtension>
        </extensions>
      </trkpt>
      <trkpt lat="46.8130805902183055877685546875" lon="6.89620370976626873016357421875">
        <ele>387</ele>
        <time>2013-09-01T13:59:10.000Z</time>
        <extensions>
          <ns3:TrackPointExtension>
            <ns3:atemp>22.0</ns3:atemp>
          </ns3:TrackPointExtension>
        </extensions>
      </trkpt>
      <trkpt lat="46.813069693744182586669921875" lon="6.8962170369923114776611328125">
        <ele>387.20001220703125</ele>
        <time>2013-09-01T13:59:11.000Z</time>
        <extensions>
          <ns3:TrackPointExtension>
            <ns3:atemp>22.0</ns3:atemp>
          </ns3:TrackPointExtension>
        </extensions>
      </trkpt>
      <trkpt lat="46.813057959079742431640625" lon="6.8962284363806247711181640625">
        <ele>387.399993896484375</ele>
        <time>2013-09-01T13:59:12.000Z</time>
        <extensions>
          <ns3:TrackPointExtension>
            <ns3:atemp>22.0</ns3:atemp>
          </ns3:TrackPointExtension>
        </extensions>
      </trkpt>
      <trkpt lat="46.81304429657757282257080078125" lon="6.8962384946644306182861328125">
        <ele>387.79998779296875</ele>
        <time>2013-09-01T13:59:13.000Z</time>
        <extensions>
          <ns3:TrackPointExtension>
            <ns3:atemp>22.0</ns3:atemp>
          </ns3:TrackPointExtension>
        </extensions>
      </trkpt>
      <trkpt lat="46.8130292929708957672119140625" lon="6.89624913968145847320556640625">
        <ele>387.79998779296875</ele>
        <time>2013-09-01T13:59:14.000Z</time>
        <extensions>
          <ns3:TrackPointExtension>
            <ns3:atemp>22.0</ns3:atemp>
          </ns3:TrackPointExtension>
        </extensions>
      </trkpt>
      <trkpt lat="46.813010685145854949951171875" lon="6.89625886268913745880126953125">
        <ele>388</ele>
        <time>2013-09-01T13:59:15.000Z</time>
        <extensions>
          <ns3:TrackPointExtension>
            <ns3:atemp>22.0</ns3:atemp>
          </ns3:TrackPointExtension>
        </extensions>
      </trkpt>
      <trkpt lat="46.8129914067685604095458984375" lon="6.8962716870009899139404296875">
        <ele>388.399993896484375</ele>
        <time>2013-09-01T13:59:16.000Z</time>
        <extensions>
          <ns3:TrackPointExtension>
            <ns3:atemp>22.0</ns3:atemp>
          </ns3:TrackPointExtension>
        </extensions>
      </trkpt>
      <trkpt lat="46.8129729665815830230712890625" lon="6.8962852656841278076171875">
        <ele>388.600006103515625</ele>
        <time>2013-09-01T13:59:17.000Z</time>
        <extensions>
          <ns3:TrackPointExtension>
            <ns3:atemp>22.0</ns3:atemp>
          </ns3:TrackPointExtension>
        </extensions>
      </trkpt>
      <trkpt lat="46.81295528076589107513427734375" lon="6.89630010165274143218994140625">
        <ele>388.600006103515625</ele>
        <time>2013-09-01T13:59:18.000Z</time>
        <extensions>
          <ns3:TrackPointExtension>
            <ns3:atemp>22.0</ns3:atemp>
          </ns3:TrackPointExtension>
        </extensions>
      </trkpt>
      <trkpt lat="46.81294052861630916595458984375" lon="6.89631451852619647979736328125">
        <ele>388.79998779296875</ele>
        <time>2013-09-01T13:59:19.000Z</time>
        <extensions>
          <ns3:TrackPointExtension>
            <ns3:atemp>22.0</ns3:atemp>
          </ns3:TrackPointExtension>
        </extensions>
      </trkpt>
      <trkpt lat="46.812927536666393280029296875" lon="6.896327175199985504150390625">
        <ele>389</ele>
        <time>2013-09-01T13:59:20.000Z</time>
        <extensions>
          <ns3:TrackPointExtension>
            <ns3:atemp>22.0</ns3:atemp>
          </ns3:TrackPointExtension>
        </extensions>
      </trkpt>
      <trkpt lat="46.8129116110503673553466796875" lon="6.89633798785507678985595703125">
        <ele>389.399993896484375</ele>
        <time>2013-09-01T13:59:21.000Z</time>
        <extensions>
          <ns3:TrackPointExtension>
            <ns3:atemp>22.0</ns3:atemp>
          </ns3:TrackPointExtension>
        </extensions>
      </trkpt>
      <trkpt lat="46.8128938414156436920166015625" lon="6.89634921960532665252685546875">
        <ele>389.600006103515625</ele>
        <time>2013-09-01T13:59:22.000Z</time>
        <extensions>
          <ns3:TrackPointExtension>
            <ns3:atemp>22.0</ns3:atemp>
          </ns3:TrackPointExtension>
        </extensions>
      </trkpt>
      <trkpt lat="46.8128747306764125823974609375" lon="6.8963632173836231231689453125">
        <ele>389.79998779296875</ele>
        <time>2013-09-01T13:59:23.000Z</time>
        <extensions>
          <ns3:TrackPointExtension>
            <ns3:atemp>22.0</ns3:atemp>
          </ns3:TrackPointExtension>
        </extensions>
      </trkpt>
      <trkpt lat="46.8128532730042934417724609375" lon="6.896380484104156494140625">
        <ele>390</ele>
        <time>2013-09-01T13:59:24.000Z</time>
        <extensions>
          <ns3:TrackPointExtension>
            <ns3:atemp>22.0</ns3:atemp>
          </ns3:TrackPointExtension>
        </extensions>
      </trkpt>
      <trkpt lat="46.81283072568476200103759765625" lon="6.89639716409146785736083984375">
        <ele>390.399993896484375</ele>
        <time>2013-09-01T13:59:25.000Z</time>
        <extensions>
          <ns3:TrackPointExtension>
            <ns3:atemp>22.0</ns3:atemp>
          </ns3:TrackPointExtension>
        </extensions>
      </trkpt>
      <trkpt lat="46.8128073401749134063720703125" lon="6.89641174860298633575439453125">
        <ele>390.600006103515625</ele>
        <time>2013-09-01T13:59:26.000Z</time>
        <extensions>
          <ns3:TrackPointExtension>
            <ns3:atemp>22.0</ns3:atemp>
          </ns3:TrackPointExtension>
        </extensions>
      </trkpt>
      <trkpt lat="46.81278076954185962677001953125" lon="6.896425746381282806396484375">
        <ele>390.79998779296875</ele>
        <time>2013-09-01T13:59:27.000Z</time>
        <extensions>
          <ns3:TrackPointExtension>
            <ns3:atemp>22.0</ns3:atemp>
          </ns3:TrackPointExtension>
        </extensions>
      </trkpt>
      <trkpt lat="46.81275361217558383941650390625" lon="6.89643840305507183074951171875">
        <ele>391</ele>
        <time>2013-09-01T13:59:28.000Z</time>
        <extensions>
          <ns3:TrackPointExtension>
            <ns3:atemp>22.0</ns3:atemp>
          </ns3:TrackPointExtension>
        </extensions>
      </trkpt>
      <trkpt lat="46.81272611953318119049072265625" lon="6.896450556814670562744140625">
        <ele>391.20001220703125</ele>
        <time>2013-09-01T13:59:29.000Z</time>
        <extensions>
          <ns3:TrackPointExtension>
            <ns3:atemp>22.0</ns3:atemp>
          </ns3:TrackPointExtension>
        </extensions>
      </trkpt>
      <trkpt lat="46.81269778870046138763427734375" lon="6.89646388404071331024169921875">
        <ele>391.399993896484375</ele>
        <time>2013-09-01T13:59:30.000Z</time>
        <extensions>
          <ns3:TrackPointExtension>
            <ns3:atemp>22.0</ns3:atemp>
          </ns3:TrackPointExtension>
        </extensions>
      </trkpt>
      <trkpt lat="46.8126718886196613311767578125" lon="6.89647528342902660369873046875">
        <ele>391.600006103515625</ele>
        <time>2013-09-01T13:59:31.000Z</time>
        <extensions>
          <ns3:TrackPointExtension>
            <ns3:atemp>22.0</ns3:atemp>
          </ns3:TrackPointExtension>
        </extensions>
      </trkpt>
      <trkpt lat="46.8126433901488780975341796875" lon="6.8964855931699275970458984375">
        <ele>392</ele>
        <time>2013-09-01T13:59:32.000Z</time>
        <extensions>
          <ns3:TrackPointExtension>
            <ns3:atemp>22.0</ns3:atemp>
          </ns3:TrackPointExtension>
        </extensions>
      </trkpt>
      <trkpt lat="46.8126148916780948638916015625" lon="6.89649514853954315185546875">
        <ele>392.20001220703125</ele>
        <time>2013-09-01T13:59:33.000Z</time>
        <extensions>
          <ns3:TrackPointExtension>
            <ns3:atemp>22.0</ns3:atemp>
          </ns3:TrackPointExtension>
        </extensions>
      </trkpt>
      <trkpt lat="46.81258765049278736114501953125" lon="6.89650462009012699127197265625">
        <ele>392.399993896484375</ele>
        <time>2013-09-01T13:59:34.000Z</time>
        <extensions>
          <ns3:TrackPointExtension>
            <ns3:atemp>22.0</ns3:atemp>
          </ns3:TrackPointExtension>
        </extensions>
      </trkpt>
      <trkpt lat="46.81256418116390705108642578125" lon="6.8965147621929645538330078125">
        <ele>392.600006103515625</ele>
        <time>2013-09-01T13:59:35.000Z</time>
        <extensions>
          <ns3:TrackPointExtension>
            <ns3:atemp>22.0</ns3:atemp>
          </ns3:TrackPointExtension>
        </extensions>
      </trkpt>
      <trkpt lat="46.81254389695823192596435546875" lon="6.8965268321335315704345703125">
        <ele>392.79998779296875</ele>
        <time>2013-09-01T13:59:36.000Z</time>
        <extensions>
          <ns3:TrackPointExtension>
            <ns3:atemp>22.0</ns3:atemp>
          </ns3:TrackPointExtension>
        </extensions>
      </trkpt>
      <trkpt lat="46.812522523105144500732421875" lon="6.89653873443603515625">
        <ele>393</ele>
        <time>2013-09-01T13:59:37.000Z</time>
        <extensions>
          <ns3:TrackPointExtension>
            <ns3:atemp>22.0</ns3:atemp>
          </ns3:TrackPointExtension>
        </extensions>
      </trkpt>
      <trkpt lat="46.81249980814754962921142578125" lon="6.8965469487011432647705078125">
        <ele>393.20001220703125</ele>
        <time>2013-09-01T13:59:38.000Z</time>
        <extensions>
          <ns3:TrackPointExtension>
            <ns3:atemp>22.0</ns3:atemp>
          </ns3:TrackPointExtension>
        </extensions>
      </trkpt>
      <trkpt lat="46.81247600354254245758056640625" lon="6.8965534865856170654296875">
        <ele>393.399993896484375</ele>
        <time>2013-09-01T13:59:39.000Z</time>
        <extensions>
          <ns3:TrackPointExtension>
            <ns3:atemp>22.0</ns3:atemp>
          </ns3:TrackPointExtension>
        </extensions>
      </trkpt>
      <trkpt lat="46.81245169602334499359130859375" lon="6.8965623714029788970947265625">
        <ele>393.600006103515625</ele>
        <time>2013-09-01T13:59:40.000Z</time>
        <extensions>
          <ns3:TrackPointExtension>
            <ns3:atemp>22.0</ns3:atemp>
          </ns3:TrackPointExtension>
        </extensions>
      </trkpt>
      <trkpt lat="46.8124251253902912139892578125" lon="6.896573603153228759765625">
        <ele>393.79998779296875</ele>
        <time>2013-09-01T13:59:41.000Z</time>
        <extensions>
          <ns3:TrackPointExtension>
            <ns3:atemp>22.0</ns3:atemp>
          </ns3:TrackPointExtension>
        </extensions>
      </trkpt>
      <trkpt lat="46.812397800385951995849609375" lon="6.89658491872251033782958984375">
        <ele>394</ele>
        <time>2013-09-01T13:59:42.000Z</time>
        <extensions>
          <ns3:TrackPointExtension>
            <ns3:atemp>22.0</ns3:atemp>
          </ns3:TrackPointExtension>
        </extensions>
      </trkpt>
      <trkpt lat="46.8123684637248516082763671875" lon="6.89659849740564823150634765625">
        <ele>394.399993896484375</ele>
        <time>2013-09-01T13:59:43.000Z</time>
        <extensions>
          <ns3:TrackPointExtension>
            <ns3:atemp>22.0</ns3:atemp>
          </ns3:TrackPointExtension>
        </extensions>
      </trkpt>
      <trkpt lat="46.81234180927276611328125" lon="6.896612830460071563720703125">
        <ele>394.79998779296875</ele>
        <time>2013-09-01T13:59:44.000Z</time>
        <extensions>
          <ns3:TrackPointExtension>
            <ns3:atemp>22.0</ns3:atemp>
          </ns3:TrackPointExtension>
        </extensions>
      </trkpt>
      <trkpt lat="46.8123171664774417877197265625" lon="6.896627582609653472900390625">
        <ele>395</ele>
        <time>2013-09-01T13:59:45.000Z</time>
        <extensions>
          <ns3:TrackPointExtension>
            <ns3:atemp>22.0</ns3:atemp>
          </ns3:TrackPointExtension>
        </extensions>
      </trkpt>
      <trkpt lat="46.81229327805340290069580078125" lon="6.8966408260166645050048828125">
        <ele>395.20001220703125</ele>
        <time>2013-09-01T13:59:46.000Z</time>
        <extensions>
          <ns3:TrackPointExtension>
            <ns3:atemp>22.0</ns3:atemp>
          </ns3:TrackPointExtension>
        </extensions>
      </trkpt>
      <trkpt lat="46.81226947344839572906494140625" lon="6.89665348269045352935791015625">
        <ele>395.399993896484375</ele>
        <time>2013-09-01T13:59:47.000Z</time>
        <extensions>
          <ns3:TrackPointExtension>
            <ns3:atemp>22.0</ns3:atemp>
          </ns3:TrackPointExtension>
        </extensions>
      </trkpt>
      <trkpt lat="46.812246926128864288330078125" lon="6.896665804088115692138671875">
        <ele>395.79998779296875</ele>
        <time>2013-09-01T13:59:48.000Z</time>
        <extensions>
          <ns3:TrackPointExtension>
            <ns3:atemp>22.0</ns3:atemp>
          </ns3:TrackPointExtension>
        </extensions>
      </trkpt>
      <trkpt lat="46.81222270242869853973388671875" lon="6.89667284488677978515625">
        <ele>396.399993896484375</ele>
        <time>2013-09-01T13:59:49.000Z</time>
        <extensions>
          <ns3:TrackPointExtension>
            <ns3:atemp>22.0</ns3:atemp>
          </ns3:TrackPointExtension>
        </extensions>
      </trkpt>
      <trkpt lat="46.81219856254756450653076171875" lon="6.896679885685443878173828125">
        <ele>396.600006103515625</ele>
        <time>2013-09-01T13:59:50.000Z</time>
        <extensions>
          <ns3:TrackPointExtension>
            <ns3:atemp>22.0</ns3:atemp>
          </ns3:TrackPointExtension>
        </extensions>
      </trkpt>
      <trkpt lat="46.8121740035712718963623046875" lon="6.89669103361666202545166015625">
        <ele>396.79998779296875</ele>
        <time>2013-09-01T13:59:51.000Z</time>
        <extensions>
          <ns3:TrackPointExtension>
            <ns3:atemp>22.0</ns3:atemp>
          </ns3:TrackPointExtension>
        </extensions>
      </trkpt>
      <trkpt lat="46.81214877404272556304931640625" lon="6.8967035226523876190185546875">
        <ele>397</ele>
        <time>2013-09-01T13:59:52.000Z</time>
        <extensions>
          <ns3:TrackPointExtension>
            <ns3:atemp>22.0</ns3:atemp>
          </ns3:TrackPointExtension>
        </extensions>
      </trkpt>
      <trkpt lat="46.81212522089481353759765625" lon="6.89671651460230350494384765625">
        <ele>397.20001220703125</ele>
        <time>2013-09-01T13:59:53.000Z</time>
        <extensions>
          <ns3:TrackPointExtension>
            <ns3:atemp>22.0</ns3:atemp>
          </ns3:TrackPointExtension>
        </extensions>
      </trkpt>
      <trkpt lat="46.812103092670440673828125" lon="6.8967283330857753753662109375">
        <ele>397.399993896484375</ele>
        <time>2013-09-01T13:59:54.000Z</time>
        <extensions>
          <ns3:TrackPointExtension>
            <ns3:atemp>22.0</ns3:atemp>
          </ns3:TrackPointExtension>
        </extensions>
      </trkpt>
      <trkpt lat="46.81208104826509952545166015625" lon="6.89674048684537410736083984375">
        <ele>397.79998779296875</ele>
        <time>2013-09-01T13:59:55.000Z</time>
        <extensions>
          <ns3:TrackPointExtension>
            <ns3:atemp>22.0</ns3:atemp>
          </ns3:TrackPointExtension>
        </extensions>
      </trkpt>
      <trkpt lat="46.8120586685836315155029296875" lon="6.896754316985607147216796875">
        <ele>398</ele>
        <time>2013-09-01T13:59:56.000Z</time>
        <extensions>
          <ns3:TrackPointExtension>
            <ns3:atemp>22.0</ns3:atemp>
          </ns3:TrackPointExtension>
        </extensions>
      </trkpt>
      <trkpt lat="46.81203830055892467498779296875" lon="6.89677166752517223358154296875">
        <ele>398.20001220703125</ele>
        <time>2013-09-01T13:59:57.000Z</time>
        <extensions>
          <ns3:TrackPointExtension>
            <ns3:atemp>22.0</ns3:atemp>
          </ns3:TrackPointExtension>
        </extensions>
      </trkpt>
      <trkpt lat="46.8120197765529155731201171875" lon="6.896791197359561920166015625">
        <ele>398.399993896484375</ele>
        <time>2013-09-01T13:59:58.000Z</time>
        <extensions>
          <ns3:TrackPointExtension>
            <ns3:atemp>22.0</ns3:atemp>
          </ns3:TrackPointExtension>
        </extensions>
      </trkpt>
      <trkpt lat="46.81199957616627216339111328125" lon="6.8968094699084758758544921875">
        <ele>398.600006103515625</ele>
        <time>2013-09-01T13:59:59.000Z</time>
        <extensions>
          <ns3:TrackPointExtension>
            <ns3:atemp>22.0</ns3:atemp>
          </ns3:TrackPointExtension>
        </extensions>
      </trkpt>
      <trkpt lat="46.81197811849415302276611328125" lon="6.896824724972248077392578125">
        <ele>398.79998779296875</ele>
        <time>2013-09-01T14:00:00.000Z</time>
        <extensions>
          <ns3:TrackPointExtension>
            <ns3:atemp>22.0</ns3:atemp>
          </ns3:TrackPointExtension>
        </extensions>
      </trkpt>
      <trkpt lat="46.8119569122791290283203125" lon="6.8968378007411956787109375">
        <ele>399.20001220703125</ele>
        <time>2013-09-01T14:00:01.000Z</time>
        <extensions>
          <ns3:TrackPointExtension>
            <ns3:atemp>22.0</ns3:atemp>
          </ns3:TrackPointExtension>
        </extensions>
      </trkpt>
      <trkpt lat="46.8119352869689464569091796875" lon="6.8968493677675724029541015625">
        <ele>399.600006103515625</ele>
        <time>2013-09-01T14:00:02.000Z</time>
        <extensions>
          <ns3:TrackPointExtension>
            <ns3:atemp>22.0</ns3:atemp>
          </ns3:TrackPointExtension>
        </extensions>
      </trkpt>
      <trkpt lat="46.8119104765355587005615234375" lon="6.89686453901231288909912109375">
        <ele>399.79998779296875</ele>
        <time>2013-09-01T14:00:03.000Z</time>
        <extensions>
          <ns3:TrackPointExtension>
            <ns3:atemp>22.0</ns3:atemp>
          </ns3:TrackPointExtension>
        </extensions>
      </trkpt>
      <trkpt lat="46.81188491173088550567626953125" lon="6.89687912352383136749267578125">
        <ele>399.79998779296875</ele>
        <time>2013-09-01T14:00:04.000Z</time>
        <extensions>
          <ns3:TrackPointExtension>
            <ns3:atemp>22.0</ns3:atemp>
          </ns3:TrackPointExtension>
        </extensions>
      </trkpt>
      <trkpt lat="46.81185834109783172607421875" lon="6.8968912772834300994873046875">
        <ele>400</ele>
        <time>2013-09-01T14:00:05.000Z</time>
        <extensions>
          <ns3:TrackPointExtension>
            <ns3:atemp>22.0</ns3:atemp>
          </ns3:TrackPointExtension>
        </extensions>
      </trkpt>
      <trkpt lat="46.81183478794991970062255859375" lon="6.89690125174820423126220703125">
        <ele>400.399993896484375</ele>
        <time>2013-09-01T14:00:06.000Z</time>
        <extensions>
          <ns3:TrackPointExtension>
            <ns3:atemp>22.0</ns3:atemp>
          </ns3:TrackPointExtension>
        </extensions>
      </trkpt>
      <trkpt lat="46.81181316263973712921142578125" lon="6.89691164530813694000244140625">
        <ele>400.600006103515625</ele>
        <time>2013-09-01T14:00:07.000Z</time>
        <extensions>
          <ns3:TrackPointExtension>
            <ns3:atemp>22.0</ns3:atemp>
          </ns3:TrackPointExtension>
        </extensions>
      </trkpt>
      <trkpt lat="46.81179287843406200408935546875" lon="6.8969207815825939178466796875">
        <ele>400.79998779296875</ele>
        <time>2013-09-01T14:00:08.000Z</time>
        <extensions>
          <ns3:TrackPointExtension>
            <ns3:atemp>22.0</ns3:atemp>
          </ns3:TrackPointExtension>
        </extensions>
      </trkpt>
      <trkpt lat="46.8117723427712917327880859375" lon="6.8969298340380191802978515625">
        <ele>401</ele>
        <time>2013-09-01T14:00:09.000Z</time>
        <extensions>
          <ns3:TrackPointExtension>
            <ns3:atemp>22.0</ns3:atemp>
          </ns3:TrackPointExtension>
        </extensions>
      </trkpt>
      <trkpt lat="46.81175163947045803070068359375" lon="6.89693695865571498870849609375">
        <ele>401.20001220703125</ele>
        <time>2013-09-01T14:00:10.000Z</time>
        <extensions>
          <ns3:TrackPointExtension>
            <ns3:atemp>22.0</ns3:atemp>
          </ns3:TrackPointExtension>
        </extensions>
      </trkpt>
      <trkpt lat="46.81173101998865604400634765625" lon="6.89694500528275966644287109375">
        <ele>401.399993896484375</ele>
        <time>2013-09-01T14:00:11.000Z</time>
        <extensions>
          <ns3:TrackPointExtension>
            <ns3:atemp>22.0</ns3:atemp>
          </ns3:TrackPointExtension>
        </extensions>
      </trkpt>
      <trkpt lat="46.81171174161136150360107421875" lon="6.8969539739191532135009765625">
        <ele>401.79998779296875</ele>
        <time>2013-09-01T14:00:12.000Z</time>
        <extensions>
          <ns3:TrackPointExtension>
            <ns3:atemp>22.0</ns3:atemp>
          </ns3:TrackPointExtension>
        </extensions>
      </trkpt>
      <trkpt lat="46.81169397197663784027099609375" lon="6.8969620205461978912353515625">
        <ele>402.600006103515625</ele>
        <time>2013-09-01T14:00:13.000Z</time>
        <extensions>
          <ns3:TrackPointExtension>
            <ns3:atemp>22.0</ns3:atemp>
          </ns3:TrackPointExtension>
        </extensions>
      </trkpt>
      <trkpt lat="46.81167653761804103851318359375" lon="6.8969693966209888458251953125">
        <ele>402.79998779296875</ele>
        <time>2013-09-01T14:00:14.000Z</time>
        <extensions>
          <ns3:TrackPointExtension>
            <ns3:atemp>22.0</ns3:atemp>
          </ns3:TrackPointExtension>
        </extensions>
      </trkpt>
      <trkpt lat="46.81165809743106365203857421875" lon="6.8969764374196529388427734375">
        <ele>403</ele>
        <time>2013-09-01T14:00:15.000Z</time>
        <extensions>
          <ns3:TrackPointExtension>
            <ns3:atemp>22.0</ns3:atemp>
          </ns3:TrackPointExtension>
        </extensions>
      </trkpt>
      <trkpt lat="46.8116395734250545501708984375" lon="6.8969828076660633087158203125">
        <ele>403.20001220703125</ele>
        <time>2013-09-01T14:00:16.000Z</time>
        <extensions>
          <ns3:TrackPointExtension>
            <ns3:atemp>22.0</ns3:atemp>
          </ns3:TrackPointExtension>
        </extensions>
      </trkpt>
      <trkpt lat="46.811621971428394317626953125" lon="6.89698808826506137847900390625">
        <ele>403.399993896484375</ele>
        <time>2013-09-01T14:00:17.000Z</time>
        <extensions>
          <ns3:TrackPointExtension>
            <ns3:atemp>22.0</ns3:atemp>
          </ns3:TrackPointExtension>
        </extensions>
      </trkpt>
      <trkpt lat="46.81160227395594120025634765625" lon="6.8969935365021228790283203125">
        <ele>403.600006103515625</ele>
        <time>2013-09-01T14:00:18.000Z</time>
        <extensions>
          <ns3:TrackPointExtension>
            <ns3:atemp>22.0</ns3:atemp>
          </ns3:TrackPointExtension>
        </extensions>
      </trkpt>
      <trkpt lat="46.81158249266445636749267578125" lon="6.89699898473918437957763671875">
        <ele>404</ele>
        <time>2013-09-01T14:00:19.000Z</time>
        <extensions>
          <ns3:TrackPointExtension>
            <ns3:atemp>22.0</ns3:atemp>
          </ns3:TrackPointExtension>
        </extensions>
      </trkpt>
      <trkpt lat="46.81156304664909839630126953125" lon="6.897008456289768218994140625">
        <ele>404.20001220703125</ele>
        <time>2013-09-01T14:00:20.000Z</time>
        <extensions>
          <ns3:TrackPointExtension>
            <ns3:atemp>22.0</ns3:atemp>
          </ns3:TrackPointExtension>
        </extensions>
      </trkpt>
      <trkpt lat="46.8115426786243915557861328125" lon="6.89701809547841548919677734375">
        <ele>404.600006103515625</ele>
        <time>2013-09-01T14:00:21.000Z</time>
        <extensions>
          <ns3:TrackPointExtension>
            <ns3:atemp>22.0</ns3:atemp>
          </ns3:TrackPointExtension>
        </extensions>
      </trkpt>
      <trkpt lat="46.81152164004743099212646484375" lon="6.89702689647674560546875">
        <ele>405</ele>
        <time>2013-09-01T14:00:22.000Z</time>
        <extensions>
          <ns3:TrackPointExtension>
            <ns3:atemp>22.0</ns3:atemp>
          </ns3:TrackPointExtension>
        </extensions>
      </trkpt>
      <trkpt lat="46.81150018237531185150146484375" lon="6.89703402109444141387939453125">
        <ele>405.20001220703125</ele>
        <time>2013-09-01T14:00:23.000Z</time>
        <extensions>
          <ns3:TrackPointExtension>
            <ns3:atemp>22.0</ns3:atemp>
          </ns3:TrackPointExtension>
        </extensions>
      </trkpt>
      <trkpt lat="46.81147738359868526458740234375" lon="6.8970416486263275146484375">
        <ele>405.399993896484375</ele>
        <time>2013-09-01T14:00:24.000Z</time>
        <extensions>
          <ns3:TrackPointExtension>
            <ns3:atemp>22.0</ns3:atemp>
          </ns3:TrackPointExtension>
        </extensions>
      </trkpt>
      <trkpt lat="46.8114558421075344085693359375" lon="6.8970515392720699310302734375">
        <ele>405.600006103515625</ele>
        <time>2013-09-01T14:00:25.000Z</time>
        <extensions>
          <ns3:TrackPointExtension>
            <ns3:atemp>22.0</ns3:atemp>
          </ns3:TrackPointExtension>
        </extensions>
      </trkpt>
      <trkpt lat="46.81143363006412982940673828125" lon="6.89706453122198581695556640625">
        <ele>405.79998779296875</ele>
        <time>2013-09-01T14:00:26.000Z</time>
        <extensions>
          <ns3:TrackPointExtension>
            <ns3:atemp>22.0</ns3:atemp>
          </ns3:TrackPointExtension>
        </extensions>
      </trkpt>
      <trkpt lat="46.81140982545912265777587890625" lon="6.8970760144293308258056640625">
        <ele>406</ele>
        <time>2013-09-01T14:00:27.000Z</time>
        <extensions>
          <ns3:TrackPointExtension>
            <ns3:atemp>22.0</ns3:atemp>
          </ns3:TrackPointExtension>
        </extensions>
      </trkpt>
      <trkpt lat="46.81138501502573490142822265625" lon="6.8970840610563755035400390625">
        <ele>406.20001220703125</ele>
        <time>2013-09-01T14:00:28.000Z</time>
        <extensions>
          <ns3:TrackPointExtension>
            <ns3:atemp>22.0</ns3:atemp>
          </ns3:TrackPointExtension>
        </extensions>
      </trkpt>
      <trkpt lat="46.81136372499167919158935546875" lon="6.89709336496889591217041015625">
        <ele>406.600006103515625</ele>
        <time>2013-09-01T14:00:29.000Z</time>
        <extensions>
          <ns3:TrackPointExtension>
            <ns3:atemp>22.0</ns3:atemp>
          </ns3:TrackPointExtension>
        </extensions>
      </trkpt>
      <trkpt lat="46.81134176440536975860595703125" lon="6.89710509963333606719970703125">
        <ele>406.79998779296875</ele>
        <time>2013-09-01T14:00:30.000Z</time>
        <extensions>
          <ns3:TrackPointExtension>
            <ns3:atemp>22.0</ns3:atemp>
          </ns3:TrackPointExtension>
        </extensions>
      </trkpt>
      <trkpt lat="46.81132047437131404876708984375" lon="6.8971132300794124603271484375">
        <ele>407</ele>
        <time>2013-09-01T14:00:31.000Z</time>
        <extensions>
          <ns3:TrackPointExtension>
            <ns3:atemp>22.0</ns3:atemp>
          </ns3:TrackPointExtension>
        </extensions>
      </trkpt>
      <trkpt lat="46.8112975917756557464599609375" lon="6.8971192650496959686279296875">
        <ele>407.20001220703125</ele>
        <time>2013-09-01T14:00:32.000Z</time>
        <extensions>
          <ns3:TrackPointExtension>
            <ns3:atemp>22.0</ns3:atemp>
          </ns3:TrackPointExtension>
        </extensions>
      </trkpt>
      <trkpt lat="46.81127420626580715179443359375" lon="6.8971209414303302764892578125">
        <ele>407.399993896484375</ele>
        <time>2013-09-01T14:00:33.000Z</time>
        <extensions>
          <ns3:TrackPointExtension>
            <ns3:atemp>22.0</ns3:atemp>
          </ns3:TrackPointExtension>
        </extensions>
      </trkpt>
      <trkpt lat="46.8112516589462757110595703125" lon="6.8971216119825839996337890625">
        <ele>407.600006103515625</ele>
        <time>2013-09-01T14:00:34.000Z</time>
        <extensions>
          <ns3:TrackPointExtension>
            <ns3:atemp>22.0</ns3:atemp>
          </ns3:TrackPointExtension>
        </extensions>
      </trkpt>
      <trkpt lat="46.8112291954457759857177734375" lon="6.897125802934169769287109375">
        <ele>408</ele>
        <time>2013-09-01T14:00:35.000Z</time>
        <extensions>
          <ns3:TrackPointExtension>
            <ns3:atemp>22.0</ns3:atemp>
          </ns3:TrackPointExtension>
        </extensions>
      </trkpt>
      <trkpt lat="46.81120798923075199127197265625" lon="6.89713426865637302398681640625">
        <ele>408.20001220703125</ele>
        <time>2013-09-01T14:00:36.000Z</time>
        <extensions>
          <ns3:TrackPointExtension>
            <ns3:atemp>22.0</ns3:atemp>
          </ns3:TrackPointExtension>
        </extensions>
      </trkpt>
      <trkpt lat="46.81118778884410858154296875" lon="6.8971462547779083251953125">
        <ele>408.79998779296875</ele>
        <time>2013-09-01T14:00:37.000Z</time>
        <extensions>
          <ns3:TrackPointExtension>
            <ns3:atemp>22.0</ns3:atemp>
          </ns3:TrackPointExtension>
        </extensions>
      </trkpt>
      <trkpt lat="46.81116624735295772552490234375" lon="6.89715673215687274932861328125">
        <ele>409</ele>
        <time>2013-09-01T14:00:38.000Z</time>
        <extensions>
          <ns3:TrackPointExtension>
            <ns3:atemp>22.0</ns3:atemp>
          </ns3:TrackPointExtension>
        </extensions>
      </trkpt>
      <trkpt lat="46.81114344857633113861083984375" lon="6.89716360531747341156005859375">
        <ele>409.20001220703125</ele>
        <time>2013-09-01T14:00:39.000Z</time>
        <extensions>
          <ns3:TrackPointExtension>
            <ns3:atemp>22.0</ns3:atemp>
          </ns3:TrackPointExtension>
        </extensions>
      </trkpt>
      <trkpt lat="46.8111227452754974365234375" lon="6.89717148430645465850830078125">
        <ele>409.399993896484375</ele>
        <time>2013-09-01T14:00:40.000Z</time>
        <extensions>
          <ns3:TrackPointExtension>
            <ns3:atemp>22.0</ns3:atemp>
          </ns3:TrackPointExtension>
        </extensions>
      </trkpt>
      <trkpt lat="46.81110288016498088836669921875" lon="6.8971811234951019287109375">
        <ele>409.79998779296875</ele>
        <time>2013-09-01T14:00:41.000Z</time>
        <extensions>
          <ns3:TrackPointExtension>
            <ns3:atemp>22.0</ns3:atemp>
          </ns3:TrackPointExtension>
        </extensions>
      </trkpt>
      <trkpt lat="46.81108091957867145538330078125" lon="6.8971916846930980682373046875">
        <ele>410</ele>
        <time>2013-09-01T14:00:42.000Z</time>
        <extensions>
          <ns3:TrackPointExtension>
            <ns3:atemp>22.0</ns3:atemp>
          </ns3:TrackPointExtension>
        </extensions>
      </trkpt>
      <trkpt lat="46.81106080301105976104736328125" lon="6.897204928100109100341796875">
        <ele>410.20001220703125</ele>
        <time>2013-09-01T14:00:43.000Z</time>
        <extensions>
          <ns3:TrackPointExtension>
            <ns3:atemp>22.0</ns3:atemp>
          </ns3:TrackPointExtension>
        </extensions>
      </trkpt>
      <trkpt lat="46.81104160845279693603515625" lon="6.89722244627773761749267578125">
        <ele>410.399993896484375</ele>
        <time>2013-09-01T14:00:44.000Z</time>
        <extensions>
          <ns3:TrackPointExtension>
            <ns3:atemp>22.0</ns3:atemp>
          </ns3:TrackPointExtension>
        </extensions>
      </trkpt>
      <trkpt lat="46.811022497713565826416015625" lon="6.89724080264568328857421875">
        <ele>410.600006103515625</ele>
        <time>2013-09-01T14:00:45.000Z</time>
        <extensions>
          <ns3:TrackPointExtension>
            <ns3:atemp>22.0</ns3:atemp>
          </ns3:TrackPointExtension>
        </extensions>
      </trkpt>
      <trkpt lat="46.81100246496498584747314453125" lon="6.89725647680461406707763671875">
        <ele>410.79998779296875</ele>
        <time>2013-09-01T14:00:46.000Z</time>
        <extensions>
          <ns3:TrackPointExtension>
            <ns3:atemp>22.0</ns3:atemp>
          </ns3:TrackPointExtension>
        </extensions>
      </trkpt>
      <trkpt lat="46.81098251603543758392333984375" lon="6.8972721509635448455810546875">
        <ele>411</ele>
        <time>2013-09-01T14:00:47.000Z</time>
        <extensions>
          <ns3:TrackPointExtension>
            <ns3:atemp>22.0</ns3:atemp>
          </ns3:TrackPointExtension>
        </extensions>
      </trkpt>
      <trkpt lat="46.81096307002007961273193359375" lon="6.89728899858891963958740234375">
        <ele>411</ele>
        <time>2013-09-01T14:00:48.000Z</time>
        <extensions>
          <ns3:TrackPointExtension>
            <ns3:atemp>22.0</ns3:atemp>
          </ns3:TrackPointExtension>
        </extensions>
      </trkpt>
      <trkpt lat="46.810944043099880218505859375" lon="6.89730727113783359527587890625">
        <ele>411.20001220703125</ele>
        <time>2013-09-01T14:00:49.000Z</time>
        <extensions>
          <ns3:TrackPointExtension>
            <ns3:atemp>22.0</ns3:atemp>
          </ns3:TrackPointExtension>
        </extensions>
      </trkpt>
      <trkpt lat="46.8109237588942050933837890625" lon="6.89732705242931842803955078125">
        <ele>411.399993896484375</ele>
        <time>2013-09-01T14:00:50.000Z</time>
        <extensions>
          <ns3:TrackPointExtension>
            <ns3:atemp>22.0</ns3:atemp>
          </ns3:TrackPointExtension>
        </extensions>
      </trkpt>
      <trkpt lat="46.8109033070504665374755859375" lon="6.89734834246337413787841796875">
        <ele>411.600006103515625</ele>
        <time>2013-09-01T14:00:51.000Z</time>
        <extensions>
          <ns3:TrackPointExtension>
            <ns3:atemp>22.0</ns3:atemp>
          </ns3:TrackPointExtension>
        </extensions>
      </trkpt>
      <trkpt lat="46.810883693397045135498046875" lon="6.8973697163164615631103515625">
        <ele>411.600006103515625</ele>
        <time>2013-09-01T14:00:52.000Z</time>
        <extensions>
          <ns3:TrackPointExtension>
            <ns3:atemp>22.0</ns3:atemp>
          </ns3:TrackPointExtension>
        </extensions>
      </trkpt>
      <trkpt lat="46.8108630739152431488037109375" lon="6.89739058725535869598388671875">
        <ele>411.79998779296875</ele>
        <time>2013-09-01T14:00:53.000Z</time>
        <extensions>
          <ns3:TrackPointExtension>
            <ns3:atemp>22.0</ns3:atemp>
          </ns3:TrackPointExtension>
        </extensions>
      </trkpt>
      <trkpt lat="46.810841448605060577392578125" lon="6.89741036854684352874755859375">
        <ele>412</ele>
        <time>2013-09-01T14:00:54.000Z</time>
        <extensions>
          <ns3:TrackPointExtension>
            <ns3:atemp>22.0</ns3:atemp>
          </ns3:TrackPointExtension>
        </extensions>
      </trkpt>
      <trkpt lat="46.81082141585648059844970703125" lon="6.897434256970882415771484375">
        <ele>412.20001220703125</ele>
        <time>2013-09-01T14:00:55.000Z</time>
        <extensions>
          <ns3:TrackPointExtension>
            <ns3:atemp>22.0</ns3:atemp>
          </ns3:TrackPointExtension>
        </extensions>
      </trkpt>
      <trkpt lat="46.81080423295497894287109375" lon="6.8974595703184604644775390625">
        <ele>412.20001220703125</ele>
        <time>2013-09-01T14:00:56.000Z</time>
        <extensions>
          <ns3:TrackPointExtension>
            <ns3:atemp>22.0</ns3:atemp>
          </ns3:TrackPointExtension>
        </extensions>
      </trkpt>
      <trkpt lat="46.81078805588185787200927734375" lon="6.89748086035251617431640625">
        <ele>412</ele>
        <time>2013-09-01T14:00:57.000Z</time>
        <extensions>
          <ns3:TrackPointExtension>
            <ns3:atemp>22.0</ns3:atemp>
          </ns3:TrackPointExtension>
        </extensions>
      </trkpt>
      <trkpt lat="46.81077095679938793182373046875" lon="6.8974987976253032684326171875">
        <ele>412.20001220703125</ele>
        <time>2013-09-01T14:00:58.000Z</time>
        <extensions>
          <ns3:TrackPointExtension>
            <ns3:atemp>22.0</ns3:atemp>
          </ns3:TrackPointExtension>
        </extensions>
      </trkpt>
      <trkpt lat="46.8107510916888713836669921875" lon="6.89751983620226383209228515625">
        <ele>412.20001220703125</ele>
        <time>2013-09-01T14:00:59.000Z</time>
        <extensions>
          <ns3:TrackPointExtension>
            <ns3:atemp>22.0</ns3:atemp>
          </ns3:TrackPointExtension>
        </extensions>
      </trkpt>
      <trkpt lat="46.81073047220706939697265625" lon="6.8975454010069370269775390625">
        <ele>412.399993896484375</ele>
        <time>2013-09-01T14:01:00.000Z</time>
        <extensions>
          <ns3:TrackPointExtension>
            <ns3:atemp>23.0</ns3:atemp>
          </ns3:TrackPointExtension>
        </extensions>
      </trkpt>
      <trkpt lat="46.8107095174491405487060546875" lon="6.8975772522389888763427734375">
        <ele>412.600006103515625</ele>
        <time>2013-09-01T14:01:01.000Z</time>
        <extensions>
          <ns3:TrackPointExtension>
            <ns3:atemp>23.0</ns3:atemp>
          </ns3:TrackPointExtension>
        </extensions>
      </trkpt>
      <trkpt lat="46.81068914942443370819091796875" lon="6.8976129591464996337890625">
        <ele>412.79998779296875</ele>
        <time>2013-09-01T14:01:02.000Z</time>
        <extensions>
          <ns3:TrackPointExtension>
            <ns3:atemp>23.0</ns3:atemp>
          </ns3:TrackPointExtension>
        </extensions>
      </trkpt>
      <trkpt lat="46.81066685356199741363525390625" lon="6.8976493366062641143798828125">
        <ele>412.79998779296875</ele>
        <time>2013-09-01T14:01:03.000Z</time>
        <extensions>
          <ns3:TrackPointExtension>
            <ns3:atemp>23.0</ns3:atemp>
          </ns3:TrackPointExtension>
        </extensions>
      </trkpt>
      <trkpt lat="46.810642965137958526611328125" lon="6.89768412150442600250244140625">
        <ele>413</ele>
        <time>2013-09-01T14:01:04.000Z</time>
        <extensions>
          <ns3:TrackPointExtension>
            <ns3:atemp>23.0</ns3:atemp>
          </ns3:TrackPointExtension>
        </extensions>
      </trkpt>
      <trkpt lat="46.8106193281710147857666015625" lon="6.8977204151451587677001953125">
        <ele>413</ele>
        <time>2013-09-01T14:01:05.000Z</time>
        <extensions>
          <ns3:TrackPointExtension>
            <ns3:atemp>23.0</ns3:atemp>
          </ns3:TrackPointExtension>
        </extensions>
      </trkpt>
      <trkpt lat="46.81059476919472217559814453125" lon="6.8977579660713672637939453125">
        <ele>413.20001220703125</ele>
        <time>2013-09-01T14:01:06.000Z</time>
        <extensions>
          <ns3:TrackPointExtension>
            <ns3:atemp>23.0</ns3:atemp>
          </ns3:TrackPointExtension>
        </extensions>
      </trkpt>
      <trkpt lat="46.81057062931358814239501953125" lon="6.8977961875498294830322265625">
        <ele>413.20001220703125</ele>
        <time>2013-09-01T14:01:07.000Z</time>
        <extensions>
          <ns3:TrackPointExtension>
            <ns3:atemp>23.0</ns3:atemp>
          </ns3:TrackPointExtension>
        </extensions>
      </trkpt>
      <trkpt lat="46.81054539978504180908203125" lon="6.89783633686602115631103515625">
        <ele>413.20001220703125</ele>
        <time>2013-09-01T14:01:08.000Z</time>
        <extensions>
          <ns3:TrackPointExtension>
            <ns3:atemp>23.0</ns3:atemp>
          </ns3:TrackPointExtension>
        </extensions>
      </trkpt>
      <trkpt lat="46.81052151136100292205810546875" lon="6.8978796713054180145263671875">
        <ele>413</ele>
        <time>2013-09-01T14:01:09.000Z</time>
        <extensions>
          <ns3:TrackPointExtension>
            <ns3:atemp>23.0</ns3:atemp>
          </ns3:TrackPointExtension>
        </extensions>
      </trkpt>
      <trkpt lat="46.81049980223178863525390625" lon="6.8979242630302906036376953125">
        <ele>413.20001220703125</ele>
        <time>2013-09-01T14:01:10.000Z</time>
        <extensions>
          <ns3:TrackPointExtension>
            <ns3:atemp>23.0</ns3:atemp>
          </ns3:TrackPointExtension>
        </extensions>
      </trkpt>
      <trkpt lat="46.810476668179035186767578125" lon="6.89797095023095607757568359375">
        <ele>413.20001220703125</ele>
        <time>2013-09-01T14:01:11.000Z</time>
        <extensions>
          <ns3:TrackPointExtension>
            <ns3:atemp>23.0</ns3:atemp>
          </ns3:TrackPointExtension>
        </extensions>
      </trkpt>
      <trkpt lat="46.81045227684080600738525390625" lon="6.89801755361258983612060546875">
        <ele>413.399993896484375</ele>
        <time>2013-09-01T14:01:12.000Z</time>
        <extensions>
          <ns3:TrackPointExtension>
            <ns3:atemp>23.0</ns3:atemp>
          </ns3:TrackPointExtension>
        </extensions>
      </trkpt>
      <trkpt lat="46.81042679585516452789306640625" lon="6.89806113950908184051513671875">
        <ele>413.600006103515625</ele>
        <time>2013-09-01T14:01:13.000Z</time>
        <extensions>
          <ns3:TrackPointExtension>
            <ns3:atemp>23.0</ns3:atemp>
          </ns3:TrackPointExtension>
        </extensions>
      </trkpt>
      <trkpt lat="46.81039921939373016357421875" lon="6.89810271374881267547607421875">
        <ele>413.600006103515625</ele>
        <time>2013-09-01T14:01:14.000Z</time>
        <extensions>
          <ns3:TrackPointExtension>
            <ns3:atemp>23.0</ns3:atemp>
          </ns3:TrackPointExtension>
        </extensions>
      </trkpt>
      <trkpt lat="46.810371391475200653076171875" lon="6.89814428798854351043701171875">
        <ele>413.79998779296875</ele>
        <time>2013-09-01T14:01:15.000Z</time>
        <extensions>
          <ns3:TrackPointExtension>
            <ns3:atemp>23.0</ns3:atemp>
          </ns3:TrackPointExtension>
        </extensions>
      </trkpt>
      <trkpt lat="46.8103454075753688812255859375" lon="6.89818561077117919921875">
        <ele>414</ele>
        <time>2013-09-01T14:01:16.000Z</time>
        <extensions>
          <ns3:TrackPointExtension>
            <ns3:atemp>23.0</ns3:atemp>
          </ns3:TrackPointExtension>
        </extensions>
      </trkpt>
      <trkpt lat="46.81032118387520313262939453125" lon="6.8982256762683391571044921875">
        <ele>414</ele>
        <time>2013-09-01T14:01:17.000Z</time>
        <extensions>
          <ns3:TrackPointExtension>
            <ns3:atemp>23.0</ns3:atemp>
          </ns3:TrackPointExtension>
        </extensions>
      </trkpt>
      <trkpt lat="46.810296960175037384033203125" lon="6.89826800487935543060302734375">
        <ele>414</ele>
        <time>2013-09-01T14:01:18.000Z</time>
        <extensions>
          <ns3:TrackPointExtension>
            <ns3:atemp>23.0</ns3:atemp>
          </ns3:TrackPointExtension>
        </extensions>
      </trkpt>
      <trkpt lat="46.81027156300842761993408203125" lon="6.8983108364045619964599609375">
        <ele>414</ele>
        <time>2013-09-01T14:01:19.000Z</time>
        <extensions>
          <ns3:TrackPointExtension>
            <ns3:atemp>23.0</ns3:atemp>
          </ns3:TrackPointExtension>
        </extensions>
      </trkpt>
      <trkpt lat="46.8102451600134372711181640625" lon="6.89835584722459316253662109375">
        <ele>414.20001220703125</ele>
        <time>2013-09-01T14:01:20.000Z</time>
        <extensions>
          <ns3:TrackPointExtension>
            <ns3:atemp>23.0</ns3:atemp>
          </ns3:TrackPointExtension>
        </extensions>
      </trkpt>
      <trkpt lat="46.81021825410425662994384765625" lon="6.89840278588235378265380859375">
        <ele>414.20001220703125</ele>
        <time>2013-09-01T14:01:21.000Z</time>
        <extensions>
          <ns3:TrackPointExtension>
            <ns3:atemp>23.0</ns3:atemp>
          </ns3:TrackPointExtension>
        </extensions>
      </trkpt>
      <trkpt lat="46.8101893365383148193359375" lon="6.898450814187526702880859375">
        <ele>414.20001220703125</ele>
        <time>2013-09-01T14:01:22.000Z</time>
        <extensions>
          <ns3:TrackPointExtension>
            <ns3:atemp>23.0</ns3:atemp>
          </ns3:TrackPointExtension>
        </extensions>
      </trkpt>
      <trkpt lat="46.81015974842011928558349609375" lon="6.89850202761590480804443359375">
        <ele>414.20001220703125</ele>
        <time>2013-09-01T14:01:23.000Z</time>
        <extensions>
          <ns3:TrackPointExtension>
            <ns3:atemp>23.0</ns3:atemp>
          </ns3:TrackPointExtension>
        </extensions>
      </trkpt>
      <trkpt lat="46.81012957356870174407958984375" lon="6.89855650998651981353759765625">
        <ele>414.20001220703125</ele>
        <time>2013-09-01T14:01:24.000Z</time>
        <extensions>
          <ns3:TrackPointExtension>
            <ns3:atemp>23.0</ns3:atemp>
          </ns3:TrackPointExtension>
        </extensions>
      </trkpt>
      <trkpt lat="46.81009654887020587921142578125" lon="6.8986112438142299652099609375">
        <ele>414.20001220703125</ele>
        <time>2013-09-01T14:01:25.000Z</time>
        <extensions>
          <ns3:TrackPointExtension>
            <ns3:atemp>23.0</ns3:atemp>
          </ns3:TrackPointExtension>
        </extensions>
      </trkpt>
      <trkpt lat="46.81006335653364658355712890625" lon="6.898668743669986724853515625">
        <ele>414.20001220703125</ele>
        <time>2013-09-01T14:01:26.000Z</time>
        <extensions>
          <ns3:TrackPointExtension>
            <ns3:atemp>23.0</ns3:atemp>
          </ns3:TrackPointExtension>
        </extensions>
      </trkpt>
      <trkpt lat="46.81002773344516754150390625" lon="6.89872733317315578460693359375">
        <ele>414</ele>
        <time>2013-09-01T14:01:27.000Z</time>
        <extensions>
          <ns3:TrackPointExtension>
            <ns3:atemp>23.0</ns3:atemp>
          </ns3:TrackPointExtension>
        </extensions>
      </trkpt>
      <trkpt lat="46.80999026633799076080322265625" lon="6.89878650940954685211181640625">
        <ele>414</ele>
        <time>2013-09-01T14:01:28.000Z</time>
        <extensions>
          <ns3:TrackPointExtension>
            <ns3:atemp>23.0</ns3:atemp>
          </ns3:TrackPointExtension>
        </extensions>
      </trkpt>
      <trkpt lat="46.80995137430727481842041015625" lon="6.8988469429314136505126953125">
        <ele>413.79998779296875</ele>
        <time>2013-09-01T14:01:29.000Z</time>
        <extensions>
          <ns3:TrackPointExtension>
            <ns3:atemp>23.0</ns3:atemp>
          </ns3:TrackPointExtension>
        </extensions>
      </trkpt>
      <trkpt lat="46.80991298519074916839599609375" lon="6.8989098072052001953125">
        <ele>413.600006103515625</ele>
        <time>2013-09-01T14:01:30.000Z</time>
        <extensions>
          <ns3:TrackPointExtension>
            <ns3:atemp>23.0</ns3:atemp>
          </ns3:TrackPointExtension>
        </extensions>
      </trkpt>
      <trkpt lat="46.8098740093410015106201171875" lon="6.89897644333541393280029296875">
        <ele>413.399993896484375</ele>
        <time>2013-09-01T14:01:31.000Z</time>
        <extensions>
          <ns3:TrackPointExtension>
            <ns3:atemp>23.0</ns3:atemp>
          </ns3:TrackPointExtension>
        </extensions>
      </trkpt>
      <trkpt lat="46.80983386002480983734130859375" lon="6.8990437500178813934326171875">
        <ele>413</ele>
        <time>2013-09-01T14:01:32.000Z</time>
        <extensions>
          <ns3:TrackPointExtension>
            <ns3:atemp>23.0</ns3:atemp>
          </ns3:TrackPointExtension>
        </extensions>
      </trkpt>
      <trkpt lat="46.80979278869926929473876953125" lon="6.89911164343357086181640625">
        <ele>412.79998779296875</ele>
        <time>2013-09-01T14:01:33.000Z</time>
        <extensions>
          <ns3:TrackPointExtension>
            <ns3:atemp>23.0</ns3:atemp>
          </ns3:TrackPointExtension>
        </extensions>
      </trkpt>
      <trkpt lat="46.809749789535999298095703125" lon="6.89917869865894317626953125">
        <ele>412.600006103515625</ele>
        <time>2013-09-01T14:01:34.000Z</time>
        <extensions>
          <ns3:TrackPointExtension>
            <ns3:atemp>23.0</ns3:atemp>
          </ns3:TrackPointExtension>
        </extensions>
      </trkpt>
      <trkpt lat="46.80970586836338043212890625" lon="6.89924432896077632904052734375">
        <ele>412.600006103515625</ele>
        <time>2013-09-01T14:01:35.000Z</time>
        <extensions>
          <ns3:TrackPointExtension>
            <ns3:atemp>23.0</ns3:atemp>
          </ns3:TrackPointExtension>
        </extensions>
      </trkpt>
      <trkpt lat="46.80966437794268131256103515625" lon="6.8993134796619415283203125">
        <ele>412.399993896484375</ele>
        <time>2013-09-01T14:01:36.000Z</time>
        <extensions>
          <ns3:TrackPointExtension>
            <ns3:atemp>23.0</ns3:atemp>
          </ns3:TrackPointExtension>
        </extensions>
      </trkpt>
      <trkpt lat="46.80962582118809223175048828125" lon="6.89938631840050220489501953125">
        <ele>412.399993896484375</ele>
        <time>2013-09-01T14:01:37.000Z</time>
        <extensions>
          <ns3:TrackPointExtension>
            <ns3:atemp>23.0</ns3:atemp>
          </ns3:TrackPointExtension>
        </extensions>
      </trkpt>
      <trkpt lat="46.8095843307673931121826171875" lon="6.89945496618747711181640625">
        <ele>412.20001220703125</ele>
        <time>2013-09-01T14:01:38.000Z</time>
        <extensions>
          <ns3:TrackPointExtension>
            <ns3:atemp>23.0</ns3:atemp>
          </ns3:TrackPointExtension>
        </extensions>
      </trkpt>
      <trkpt lat="46.80954284034669399261474609375" lon="6.89952277578413486480712890625">
        <ele>412</ele>
        <time>2013-09-01T14:01:39.000Z</time>
        <extensions>
          <ns3:TrackPointExtension>
            <ns3:atemp>23.0</ns3:atemp>
          </ns3:TrackPointExtension>
        </extensions>
      </trkpt>
      <trkpt lat="46.8095018528401851654052734375" lon="6.89958983100950717926025390625">
        <ele>411.79998779296875</ele>
        <time>2013-09-01T14:01:40.000Z</time>
        <extensions>
          <ns3:TrackPointExtension>
            <ns3:atemp>23.0</ns3:atemp>
          </ns3:TrackPointExtension>
        </extensions>
      </trkpt>
      <trkpt lat="46.80946002714335918426513671875" lon="6.89965487457811832427978515625">
        <ele>411.79998779296875</ele>
        <time>2013-09-01T14:01:41.000Z</time>
        <extensions>
          <ns3:TrackPointExtension>
            <ns3:atemp>23.0</ns3:atemp>
          </ns3:TrackPointExtension>
        </extensions>
      </trkpt>
      <trkpt lat="46.80941828526556491851806640625" lon="6.8997184932231903076171875">
        <ele>411.79998779296875</ele>
        <time>2013-09-01T14:01:42.000Z</time>
        <extensions>
          <ns3:TrackPointExtension>
            <ns3:atemp>23.0</ns3:atemp>
          </ns3:TrackPointExtension>
        </extensions>
      </trkpt>
      <trkpt lat="46.8093788065016269683837890625" lon="6.8997833691537380218505859375">
        <ele>411.79998779296875</ele>
        <time>2013-09-01T14:01:43.000Z</time>
        <extensions>
          <ns3:TrackPointExtension>
            <ns3:atemp>23.0</ns3:atemp>
          </ns3:TrackPointExtension>
        </extensions>
      </trkpt>
      <trkpt lat="46.80934100411832332611083984375" lon="6.89984765835106372833251953125">
        <ele>412</ele>
        <time>2013-09-01T14:01:44.000Z</time>
        <extensions>
          <ns3:TrackPointExtension>
            <ns3:atemp>23.0</ns3:atemp>
          </ns3:TrackPointExtension>
        </extensions>
      </trkpt>
      <trkpt lat="46.809303872287273406982421875" lon="6.89991018734872341156005859375">
        <ele>411.79998779296875</ele>
        <time>2013-09-01T14:01:45.000Z</time>
        <extensions>
          <ns3:TrackPointExtension>
            <ns3:atemp>23.0</ns3:atemp>
          </ns3:TrackPointExtension>
        </extensions>
      </trkpt>
      <trkpt lat="46.80926606990396976470947265625" lon="6.89997137524187564849853515625">
        <ele>411.600006103515625</ele>
        <time>2013-09-01T14:01:46.000Z</time>
        <extensions>
          <ns3:TrackPointExtension>
            <ns3:atemp>23.0</ns3:atemp>
          </ns3:TrackPointExtension>
        </extensions>
      </trkpt>
      <trkpt lat="46.80922885425388813018798828125" lon="6.90003172494471073150634765625">
        <ele>411.399993896484375</ele>
        <time>2013-09-01T14:01:47.000Z</time>
        <extensions>
          <ns3:TrackPointExtension>
            <ns3:atemp>23.0</ns3:atemp>
          </ns3:TrackPointExtension>
        </extensions>
      </trkpt>
      <trkpt lat="46.8091923929750919342041015625" lon="6.900090985000133514404296875">
        <ele>411.20001220703125</ele>
        <time>2013-09-01T14:01:48.000Z</time>
        <extensions>
          <ns3:TrackPointExtension>
            <ns3:atemp>23.0</ns3:atemp>
          </ns3:TrackPointExtension>
        </extensions>
      </trkpt>
      <trkpt lat="46.80915534496307373046875" lon="6.90014923922717571258544921875">
        <ele>410.79998779296875</ele>
        <time>2013-09-01T14:01:49.000Z</time>
        <extensions>
          <ns3:TrackPointExtension>
            <ns3:atemp>23.0</ns3:atemp>
          </ns3:TrackPointExtension>
        </extensions>
      </trkpt>
      <trkpt lat="46.80911854840815067291259765625" lon="6.90020791254937648773193359375">
        <ele>410.600006103515625</ele>
        <time>2013-09-01T14:01:50.000Z</time>
        <extensions>
          <ns3:TrackPointExtension>
            <ns3:atemp>23.0</ns3:atemp>
          </ns3:TrackPointExtension>
        </extensions>
      </trkpt>
      <trkpt lat="46.80908032692968845367431640625" lon="6.9002671726047992706298828125">
        <ele>410.399993896484375</ele>
        <time>2013-09-01T14:01:51.000Z</time>
        <extensions>
          <ns3:TrackPointExtension>
            <ns3:atemp>23.0</ns3:atemp>
          </ns3:TrackPointExtension>
        </extensions>
      </trkpt>
      <trkpt lat="46.80903975851833820343017578125" lon="6.90032668411731719970703125">
        <ele>410.399993896484375</ele>
        <time>2013-09-01T14:01:52.000Z</time>
        <extensions>
          <ns3:TrackPointExtension>
            <ns3:atemp>23.0</ns3:atemp>
          </ns3:TrackPointExtension>
        </extensions>
      </trkpt>
      <trkpt lat="46.808996088802814483642578125" lon="6.90038879401981830596923828125">
        <ele>410.20001220703125</ele>
        <time>2013-09-01T14:01:53.000Z</time>
        <extensions>
          <ns3:TrackPointExtension>
            <ns3:atemp>23.0</ns3:atemp>
          </ns3:TrackPointExtension>
        </extensions>
      </trkpt>
      <trkpt lat="46.8089501559734344482421875" lon="6.90045450814068317413330078125">
        <ele>410</ele>
        <time>2013-09-01T14:01:54.000Z</time>
        <extensions>
          <ns3:TrackPointExtension>
            <ns3:atemp>23.0</ns3:atemp>
          </ns3:TrackPointExtension>
        </extensions>
      </trkpt>
      <trkpt lat="46.80890212766826152801513671875" lon="6.90052273683249950408935546875">
        <ele>409.600006103515625</ele>
        <time>2013-09-01T14:01:55.000Z</time>
        <extensions>
          <ns3:TrackPointExtension>
            <ns3:atemp>23.0</ns3:atemp>
          </ns3:TrackPointExtension>
        </extensions>
      </trkpt>
      <trkpt lat="46.80885066278278827667236328125" lon="6.9005937315523624420166015625">
        <ele>409.600006103515625</ele>
        <time>2013-09-01T14:01:56.000Z</time>
        <extensions>
          <ns3:TrackPointExtension>
            <ns3:atemp>23.0</ns3:atemp>
          </ns3:TrackPointExtension>
        </extensions>
      </trkpt>
      <trkpt lat="46.80879525840282440185546875" lon="6.90066589973866939544677734375">
        <ele>409.399993896484375</ele>
        <time>2013-09-01T14:01:57.000Z</time>
        <extensions>
          <ns3:TrackPointExtension>
            <ns3:atemp>23.0</ns3:atemp>
          </ns3:TrackPointExtension>
        </extensions>
      </trkpt>
      <trkpt lat="46.80873692035675048828125" lon="6.9007379002869129180908203125">
        <ele>409.399993896484375</ele>
        <time>2013-09-01T14:01:58.000Z</time>
        <extensions>
          <ns3:TrackPointExtension>
            <ns3:atemp>23.0</ns3:atemp>
          </ns3:TrackPointExtension>
        </extensions>
      </trkpt>
      <trkpt lat="46.80867724120616912841796875" lon="6.90081258304417133331298828125">
        <ele>409.399993896484375</ele>
        <time>2013-09-01T14:01:59.000Z</time>
        <extensions>
          <ns3:TrackPointExtension>
            <ns3:atemp>23.0</ns3:atemp>
          </ns3:TrackPointExtension>
        </extensions>
      </trkpt>
      <trkpt lat="46.808616556227207183837890625" lon="6.9008904509246349334716796875">
        <ele>409.20001220703125</ele>
        <time>2013-09-01T14:02:00.000Z</time>
        <extensions>
          <ns3:TrackPointExtension>
            <ns3:atemp>23.0</ns3:atemp>
          </ns3:TrackPointExtension>
        </extensions>
      </trkpt>
      <trkpt lat="46.8085557036101818084716796875" lon="6.900972761213779449462890625">
        <ele>408.79998779296875</ele>
        <time>2013-09-01T14:02:01.000Z</time>
        <extensions>
          <ns3:TrackPointExtension>
            <ns3:atemp>23.0</ns3:atemp>
          </ns3:TrackPointExtension>
        </extensions>
      </trkpt>
      <trkpt lat="46.808494515717029571533203125" lon="6.90105716697871685028076171875">
        <ele>408.399993896484375</ele>
        <time>2013-09-01T14:02:02.000Z</time>
        <extensions>
          <ns3:TrackPointExtension>
            <ns3:atemp>23.0</ns3:atemp>
          </ns3:TrackPointExtension>
        </extensions>
      </trkpt>
      <trkpt lat="46.80843240581452846527099609375" lon="6.9011419080197811126708984375">
        <ele>408</ele>
        <time>2013-09-01T14:02:03.000Z</time>
        <extensions>
          <ns3:TrackPointExtension>
            <ns3:atemp>23.0</ns3:atemp>
          </ns3:TrackPointExtension>
        </extensions>
      </trkpt>
      <trkpt lat="46.80836836807429790496826171875" lon="6.90122681669890880584716796875">
        <ele>407.600006103515625</ele>
        <time>2013-09-01T14:02:04.000Z</time>
        <extensions>
          <ns3:TrackPointExtension>
            <ns3:atemp>23.0</ns3:atemp>
          </ns3:TrackPointExtension>
        </extensions>
      </trkpt>
      <trkpt lat="46.80830433033406734466552734375" lon="6.90131130628287792205810546875">
        <ele>407.399993896484375</ele>
        <time>2013-09-01T14:02:05.000Z</time>
        <extensions>
          <ns3:TrackPointExtension>
            <ns3:atemp>23.0</ns3:atemp>
          </ns3:TrackPointExtension>
        </extensions>
      </trkpt>
      <trkpt lat="46.80824129842221736907958984375" lon="6.9013950414955615997314453125">
        <ele>407.399993896484375</ele>
        <time>2013-09-01T14:02:06.000Z</time>
        <extensions>
          <ns3:TrackPointExtension>
            <ns3:atemp>23.0</ns3:atemp>
          </ns3:TrackPointExtension>
        </extensions>
      </trkpt>
      <trkpt lat="46.8081791885197162628173828125" lon="6.90147760324180126190185546875">
        <ele>407.399993896484375</ele>
        <time>2013-09-01T14:02:07.000Z</time>
        <extensions>
          <ns3:TrackPointExtension>
            <ns3:atemp>23.0</ns3:atemp>
          </ns3:TrackPointExtension>
        </extensions>
      </trkpt>
      <trkpt lat="46.80811665952205657958984375" lon="6.90155790187418460845947265625">
        <ele>407.20001220703125</ele>
        <time>2013-09-01T14:02:08.000Z</time>
        <extensions>
          <ns3:TrackPointExtension>
            <ns3:atemp>23.0</ns3:atemp>
          </ns3:TrackPointExtension>
        </extensions>
      </trkpt>
      <trkpt lat="46.80805572308599948883056640625" lon="6.90163618884980678558349609375">
        <ele>407</ele>
        <time>2013-09-01T14:02:09.000Z</time>
        <extensions>
          <ns3:TrackPointExtension>
            <ns3:atemp>23.0</ns3:atemp>
          </ns3:TrackPointExtension>
        </extensions>
      </trkpt>
      <trkpt lat="46.8079971335828304290771484375" lon="6.90171514637768268585205078125">
        <ele>406.79998779296875</ele>
        <time>2013-09-01T14:02:10.000Z</time>
        <extensions>
          <ns3:TrackPointExtension>
            <ns3:atemp>23.0</ns3:atemp>
          </ns3:TrackPointExtension>
        </extensions>
      </trkpt>
      <trkpt lat="46.80794122628867626190185546875" lon="6.90179259516298770904541015625">
        <ele>407</ele>
        <time>2013-09-01T14:02:11.000Z</time>
        <extensions>
          <ns3:TrackPointExtension>
            <ns3:atemp>23.0</ns3:atemp>
          </ns3:TrackPointExtension>
        </extensions>
      </trkpt>
      <trkpt lat="46.80788473226130008697509765625" lon="6.90186736173927783966064453125">
        <ele>406.79998779296875</ele>
        <time>2013-09-01T14:02:12.000Z</time>
        <extensions>
          <ns3:TrackPointExtension>
            <ns3:atemp>23.0</ns3:atemp>
          </ns3:TrackPointExtension>
        </extensions>
      </trkpt>
      <trkpt lat="46.80782874114811420440673828125" lon="6.9019393622875213623046875">
        <ele>406.20001220703125</ele>
        <time>2013-09-01T14:02:13.000Z</time>
        <extensions>
          <ns3:TrackPointExtension>
            <ns3:atemp>23.0</ns3:atemp>
          </ns3:TrackPointExtension>
        </extensions>
      </trkpt>
      <trkpt lat="46.80777442641556262969970703125" lon="6.90201337449252605438232421875">
        <ele>406</ele>
        <time>2013-09-01T14:02:14.000Z</time>
        <extensions>
          <ns3:TrackPointExtension>
            <ns3:atemp>23.0</ns3:atemp>
          </ns3:TrackPointExtension>
        </extensions>
      </trkpt>
      <trkpt lat="46.80772044695913791656494140625" lon="6.902088560163974761962890625">
        <ele>405.79998779296875</ele>
        <time>2013-09-01T14:02:15.000Z</time>
        <extensions>
          <ns3:TrackPointExtension>
            <ns3:atemp>23.0</ns3:atemp>
          </ns3:TrackPointExtension>
        </extensions>
      </trkpt>
      <trkpt lat="46.80766529403626918792724609375" lon="6.90216357819736003875732421875">
        <ele>405.600006103515625</ele>
        <time>2013-09-01T14:02:16.000Z</time>
        <extensions>
          <ns3:TrackPointExtension>
            <ns3:atemp>23.0</ns3:atemp>
          </ns3:TrackPointExtension>
        </extensions>
      </trkpt>
      <trkpt lat="46.807609386742115020751953125" lon="6.90223868004977703094482421875">
        <ele>405.20001220703125</ele>
        <time>2013-09-01T14:02:17.000Z</time>
        <extensions>
          <ns3:TrackPointExtension>
            <ns3:atemp>23.0</ns3:atemp>
          </ns3:TrackPointExtension>
        </extensions>
      </trkpt>
      <trkpt lat="46.80755197070538997650146484375" lon="6.90231193788349628448486328125">
        <ele>405.20001220703125</ele>
        <time>2013-09-01T14:02:18.000Z</time>
        <extensions>
          <ns3:TrackPointExtension>
            <ns3:atemp>23.0</ns3:atemp>
          </ns3:TrackPointExtension>
        </extensions>
      </trkpt>
      <trkpt lat="46.80749430321156978607177734375" lon="6.902386955916881561279296875">
        <ele>405.20001220703125</ele>
        <time>2013-09-01T14:02:19.000Z</time>
        <extensions>
          <ns3:TrackPointExtension>
            <ns3:atemp>23.0</ns3:atemp>
          </ns3:TrackPointExtension>
        </extensions>
      </trkpt>
      <trkpt lat="46.8074345402419567108154296875" lon="6.90245845355093479156494140625">
        <ele>405.20001220703125</ele>
        <time>2013-09-01T14:02:20.000Z</time>
        <extensions>
          <ns3:TrackPointExtension>
            <ns3:atemp>23.0</ns3:atemp>
          </ns3:TrackPointExtension>
        </extensions>
      </trkpt>
      <trkpt lat="46.8073715083301067352294921875" lon="6.90252835862338542938232421875">
        <ele>404.79998779296875</ele>
        <time>2013-09-01T14:02:21.000Z</time>
        <extensions>
          <ns3:TrackPointExtension>
            <ns3:atemp>23.0</ns3:atemp>
          </ns3:TrackPointExtension>
        </extensions>
      </trkpt>
      <trkpt lat="46.8073046207427978515625" lon="6.90260061062872409820556640625">
        <ele>404.399993896484375</ele>
        <time>2013-09-01T14:02:22.000Z</time>
        <extensions>
          <ns3:TrackPointExtension>
            <ns3:atemp>23.0</ns3:atemp>
          </ns3:TrackPointExtension>
        </extensions>
      </trkpt>
      <trkpt lat="46.80723010562360286712646484375" lon="6.90267235971987247467041015625">
        <ele>403.79998779296875</ele>
        <time>2013-09-01T14:02:23.000Z</time>
        <extensions>
          <ns3:TrackPointExtension>
            <ns3:atemp>23.0</ns3:atemp>
          </ns3:TrackPointExtension>
        </extensions>
      </trkpt>
      <trkpt lat="46.8071495555341243743896484375" lon="6.90274192951619625091552734375">
        <ele>403.20001220703125</ele>
        <time>2013-09-01T14:02:24.000Z</time>
        <extensions>
          <ns3:TrackPointExtension>
            <ns3:atemp>23.0</ns3:atemp>
          </ns3:TrackPointExtension>
        </extensions>
      </trkpt>
      <trkpt lat="46.80706783197820186614990234375" lon="6.902812086045742034912109375">
        <ele>402.20001220703125</ele>
        <time>2013-09-01T14:02:25.000Z</time>
        <extensions>
          <ns3:TrackPointExtension>
            <ns3:atemp>23.0</ns3:atemp>
          </ns3:TrackPointExtension>
        </extensions>
      </trkpt>
      <trkpt lat="46.806986443698406219482421875" lon="6.902879811823368072509765625">
        <ele>400.79998779296875</ele>
        <time>2013-09-01T14:02:26.000Z</time>
        <extensions>
          <ns3:TrackPointExtension>
            <ns3:atemp>23.0</ns3:atemp>
          </ns3:TrackPointExtension>
        </extensions>
      </trkpt>
      <trkpt lat="46.806904636323451995849609375" lon="6.9029403291642665863037109375">
        <ele>398.79998779296875</ele>
        <time>2013-09-01T14:02:27.000Z</time>
        <extensions>
          <ns3:TrackPointExtension>
            <ns3:atemp>23.0</ns3:atemp>
          </ns3:TrackPointExtension>
        </extensions>
      </trkpt>
      <trkpt lat="46.806824505329132080078125" lon="6.9029939733445644378662109375">
        <ele>396.600006103515625</ele>
        <time>2013-09-01T14:02:28.000Z</time>
        <extensions>
          <ns3:TrackPointExtension>
            <ns3:atemp>23.0</ns3:atemp>
          </ns3:TrackPointExtension>
        </extensions>
      </trkpt>
      <trkpt lat="46.806747727096080780029296875" lon="6.9030390679836273193359375">
        <ele>394.79998779296875</ele>
        <time>2013-09-01T14:02:29.000Z</time>
        <extensions>
          <ns3:TrackPointExtension>
            <ns3:atemp>23.0</ns3:atemp>
          </ns3:TrackPointExtension>
        </extensions>
      </trkpt>
      <trkpt lat="46.8066734634339809417724609375" lon="6.90307301469147205352783203125">
        <ele>393.20001220703125</ele>
        <time>2013-09-01T14:02:30.000Z</time>
        <extensions>
          <ns3:TrackPointExtension>
            <ns3:atemp>23.0</ns3:atemp>
          </ns3:TrackPointExtension>
        </extensions>
      </trkpt>
      <trkpt lat="46.80660146288573741912841796875" lon="6.90309464000165462493896484375">
        <ele>392</ele>
        <time>2013-09-01T14:02:31.000Z</time>
        <extensions>
          <ns3:TrackPointExtension>
            <ns3:atemp>23.0</ns3:atemp>
          </ns3:TrackPointExtension>
        </extensions>
      </trkpt>
      <trkpt lat="46.80653340183198451995849609375" lon="6.90309782512485980987548828125">
        <ele>391</ele>
        <time>2013-09-01T14:02:32.000Z</time>
        <extensions>
          <ns3:TrackPointExtension>
            <ns3:atemp>23.0</ns3:atemp>
          </ns3:TrackPointExtension>
        </extensions>
      </trkpt>
      <trkpt lat="46.8064696155488491058349609375" lon="6.903087012469768524169921875">
        <ele>390.20001220703125</ele>
        <time>2013-09-01T14:02:33.000Z</time>
        <extensions>
          <ns3:TrackPointExtension>
            <ns3:atemp>23.0</ns3:atemp>
          </ns3:TrackPointExtension>
        </extensions>
      </trkpt>
      <trkpt lat="46.806407086551189422607421875" lon="6.90305851399898529052734375">
        <ele>389.20001220703125</ele>
        <time>2013-09-01T14:02:34.000Z</time>
        <extensions>
          <ns3:TrackPointExtension>
            <ns3:atemp>23.0</ns3:atemp>
          </ns3:TrackPointExtension>
        </extensions>
      </trkpt>
      <trkpt lat="46.80634447373449802398681640625" lon="6.9030080549418926239013671875">
        <ele>387.79998779296875</ele>
        <time>2013-09-01T14:02:35.000Z</time>
        <extensions>
          <ns3:TrackPointExtension>
            <ns3:atemp>23.0</ns3:atemp>
          </ns3:TrackPointExtension>
        </extensions>
      </trkpt>
      <trkpt lat="46.8062746524810791015625" lon="6.90293588675558567047119140625">
        <ele>386</ele>
        <time>2013-09-01T14:02:36.000Z</time>
        <extensions>
          <ns3:TrackPointExtension>
            <ns3:atemp>23.0</ns3:atemp>
          </ns3:TrackPointExtension>
        </extensions>
      </trkpt>
      <trkpt lat="46.8061928451061248779296875" lon="6.9028407521545886993408203125">
        <ele>383</ele>
        <time>2013-09-01T14:02:37.000Z</time>
        <extensions>
          <ns3:TrackPointExtension>
            <ns3:atemp>24.0</ns3:atemp>
          </ns3:TrackPointExtension>
        </extensions>
      </trkpt>
      <trkpt lat="46.80609502829611301422119140625" lon="6.9027351401746273040771484375">
        <ele>381.600006103515625</ele>
        <time>2013-09-01T14:02:38.000Z</time>
        <extensions>
          <ns3:TrackPointExtension>
            <ns3:atemp>24.0</ns3:atemp>
          </ns3:TrackPointExtension>
        </extensions>
      </trkpt>
      <trkpt lat="46.80598924867808818817138671875" lon="6.9026570208370685577392578125">
        <ele>379.79998779296875</ele>
        <time>2013-09-01T14:02:39.000Z</time>
        <extensions>
          <ns3:TrackPointExtension>
            <ns3:atemp>24.0</ns3:atemp>
          </ns3:TrackPointExtension>
        </extensions>
      </trkpt>
      <trkpt lat="46.8058808706700801849365234375" lon="6.90261603333055973052978515625">
        <ele>379</ele>
        <time>2013-09-01T14:02:40.000Z</time>
        <extensions>
          <ns3:TrackPointExtension>
            <ns3:atemp>24.0</ns3:atemp>
          </ns3:TrackPointExtension>
        </extensions>
      </trkpt>
      <trkpt lat="46.80572421289980411529541015625" lon="6.9025346450507640838623046875">
        <ele>378.600006103515625</ele>
        <time>2013-09-01T14:02:41.000Z</time>
        <extensions>
          <ns3:TrackPointExtension>
            <ns3:atemp>24.0</ns3:atemp>
          </ns3:TrackPointExtension>
        </extensions>
      </trkpt>
      <trkpt lat="46.80557568557560443878173828125" lon="6.90250220708549022674560546875">
        <ele>378.20001220703125</ele>
        <time>2013-09-01T14:02:42.000Z</time>
        <extensions>
          <ns3:TrackPointExtension>
            <ns3:atemp>24.0</ns3:atemp>
          </ns3:TrackPointExtension>
        </extensions>
      </trkpt>
      <trkpt lat="46.8054440058767795562744140625" lon="6.90248988568782806396484375">
        <ele>377.399993896484375</ele>
        <time>2013-09-01T14:02:43.000Z</time>
        <extensions>
          <ns3:TrackPointExtension>
            <ns3:atemp>24.0</ns3:atemp>
          </ns3:TrackPointExtension>
        </extensions>
      </trkpt>
      <trkpt lat="46.80531634949147701263427734375" lon="6.9024813361465930938720703125">
        <ele>376.79998779296875</ele>
        <time>2013-09-01T14:02:44.000Z</time>
        <extensions>
          <ns3:TrackPointExtension>
            <ns3:atemp>24.0</ns3:atemp>
          </ns3:TrackPointExtension>
        </extensions>
      </trkpt>
      <trkpt lat="46.8051948957145214080810546875" lon="6.9024739600718021392822265625">
        <ele>376.399993896484375</ele>
        <time>2013-09-01T14:02:45.000Z</time>
        <extensions>
          <ns3:TrackPointExtension>
            <ns3:atemp>24.0</ns3:atemp>
          </ns3:TrackPointExtension>
        </extensions>
      </trkpt>
      <trkpt lat="46.80508417077362537384033203125" lon="6.9024739600718021392822265625">
        <ele>376.399993896484375</ele>
        <time>2013-09-01T14:02:46.000Z</time>
        <extensions>
          <ns3:TrackPointExtension>
            <ns3:atemp>24.0</ns3:atemp>
          </ns3:TrackPointExtension>
        </extensions>
      </trkpt>
      <trkpt lat="46.8049870245158672332763671875" lon="6.90249080769717693328857421875">
        <ele>376.399993896484375</ele>
        <time>2013-09-01T14:02:47.000Z</time>
        <extensions>
          <ns3:TrackPointExtension>
            <ns3:atemp>24.0</ns3:atemp>
          </ns3:TrackPointExtension>
        </extensions>
      </trkpt>
      <trkpt lat="46.80488971062004566192626953125" lon="6.90251092426478862762451171875">
        <ele>376.399993896484375</ele>
        <time>2013-09-01T14:02:48.000Z</time>
        <extensions>
          <ns3:TrackPointExtension>
            <ns3:atemp>24.0</ns3:atemp>
          </ns3:TrackPointExtension>
        </extensions>
      </trkpt>
      <trkpt lat="46.8047992698848247528076171875" lon="6.90253791399300098419189453125">
        <ele>376.399993896484375</ele>
        <time>2013-09-01T14:02:49.000Z</time>
        <extensions>
          <ns3:TrackPointExtension>
            <ns3:atemp>24.0</ns3:atemp>
          </ns3:TrackPointExtension>
        </extensions>
      </trkpt>
      <trkpt lat="46.8047285266220569610595703125" lon="6.9025735370814800262451171875">
        <ele>376.399993896484375</ele>
        <time>2013-09-01T14:02:50.000Z</time>
        <extensions>
          <ns3:TrackPointExtension>
            <ns3:atemp>24.0</ns3:atemp>
          </ns3:TrackPointExtension>
        </extensions>
      </trkpt>
      <trkpt lat="46.80467681027948856353759765625" lon="6.90261117182672023773193359375">
        <ele>376.600006103515625</ele>
        <time>2013-09-01T14:02:51.000Z</time>
        <extensions>
          <ns3:TrackPointExtension>
            <ns3:atemp>24.0</ns3:atemp>
          </ns3:TrackPointExtension>
        </extensions>
      </trkpt>
      <trkpt lat="46.804632134735584259033203125" lon="6.90264268778264522552490234375">
        <ele>376.79998779296875</ele>
        <time>2013-09-01T14:02:52.000Z</time>
        <extensions>
          <ns3:TrackPointExtension>
            <ns3:atemp>24.0</ns3:atemp>
          </ns3:TrackPointExtension>
        </extensions>
      </trkpt>
      <trkpt lat="46.80459902621805667877197265625" lon="6.90266565419733524322509765625">
        <ele>377</ele>
        <time>2013-09-01T14:02:53.000Z</time>
        <extensions>
          <ns3:TrackPointExtension>
            <ns3:atemp>24.0</ns3:atemp>
          </ns3:TrackPointExtension>
        </extensions>
      </trkpt>
      <trkpt lat="46.80456935428082942962646484375" lon="6.9026885367929935455322265625">
        <ele>377</ele>
        <time>2013-09-01T14:02:54.000Z</time>
        <extensions>
          <ns3:TrackPointExtension>
            <ns3:atemp>24.0</ns3:atemp>
          </ns3:TrackPointExtension>
        </extensions>
      </trkpt>
      <trkpt lat="46.80454404093325138092041015625" lon="6.90271426923573017120361328125">
        <ele>377</ele>
        <time>2013-09-01T14:02:55.000Z</time>
        <extensions>
          <ns3:TrackPointExtension>
            <ns3:atemp>24.0</ns3:atemp>
          </ns3:TrackPointExtension>
        </extensions>
      </trkpt>
      <trkpt lat="46.804518811404705047607421875" lon="6.90274067223072052001953125">
        <ele>377.20001220703125</ele>
        <time>2013-09-01T14:02:56.000Z</time>
        <extensions>
          <ns3:TrackPointExtension>
            <ns3:atemp>24.0</ns3:atemp>
          </ns3:TrackPointExtension>
        </extensions>
      </trkpt>
      <trkpt lat="46.8044941686093807220458984375" lon="6.90277126617729663848876953125">
        <ele>377.399993896484375</ele>
        <time>2013-09-01T14:02:57.000Z</time>
        <extensions>
          <ns3:TrackPointExtension>
            <ns3:atemp>24.0</ns3:atemp>
          </ns3:TrackPointExtension>
        </extensions>
      </trkpt>
      <trkpt lat="46.8044670112431049346923828125" lon="6.9027975015342235565185546875">
        <ele>377.79998779296875</ele>
        <time>2013-09-01T14:02:58.000Z</time>
        <extensions>
          <ns3:TrackPointExtension>
            <ns3:atemp>24.0</ns3:atemp>
          </ns3:TrackPointExtension>
        </extensions>
      </trkpt>
      <trkpt lat="46.80444337427616119384765625" lon="6.90282491035759449005126953125">
        <ele>378.20001220703125</ele>
        <time>2013-09-01T14:02:59.000Z</time>
        <extensions>
          <ns3:TrackPointExtension>
            <ns3:atemp>24.0</ns3:atemp>
          </ns3:TrackPointExtension>
        </extensions>
      </trkpt>
      <trkpt lat="46.80442300625145435333251953125" lon="6.90285441465675830841064453125">
        <ele>378.600006103515625</ele>
        <time>2013-09-01T14:03:00.000Z</time>
        <extensions>
          <ns3:TrackPointExtension>
            <ns3:atemp>24.0</ns3:atemp>
          </ns3:TrackPointExtension>
        </extensions>
      </trkpt>
      <trkpt lat="46.8044036440551280975341796875" lon="6.90288358367979526519775390625">
        <ele>379</ele>
        <time>2013-09-01T14:03:01.000Z</time>
        <extensions>
          <ns3:TrackPointExtension>
            <ns3:atemp>24.0</ns3:atemp>
          </ns3:TrackPointExtension>
        </extensions>
      </trkpt>
      <trkpt lat="46.8043865449726581573486328125" lon="6.902913339436054229736328125">
        <ele>379.399993896484375</ele>
        <time>2013-09-01T14:03:02.000Z</time>
        <extensions>
          <ns3:TrackPointExtension>
            <ns3:atemp>24.0</ns3:atemp>
          </ns3:TrackPointExtension>
        </extensions>
      </trkpt>
      <trkpt lat="46.80436701513826847076416015625" lon="6.90293739549815654754638671875">
        <ele>379.79998779296875</ele>
        <time>2013-09-01T14:03:03.000Z</time>
        <extensions>
          <ns3:TrackPointExtension>
            <ns3:atemp>24.0</ns3:atemp>
          </ns3:TrackPointExtension>
        </extensions>
      </trkpt>
      <trkpt lat="46.8043474853038787841796875" lon="6.90295952372252941131591796875">
        <ele>380.20001220703125</ele>
        <time>2013-09-01T14:03:04.000Z</time>
        <extensions>
          <ns3:TrackPointExtension>
            <ns3:atemp>24.0</ns3:atemp>
          </ns3:TrackPointExtension>
        </extensions>
      </trkpt>
      <trkpt lat="46.804328374564647674560546875" lon="6.90297670662403106689453125">
        <ele>380.600006103515625</ele>
        <time>2013-09-01T14:03:05.000Z</time>
        <extensions>
          <ns3:TrackPointExtension>
            <ns3:atemp>24.0</ns3:atemp>
          </ns3:TrackPointExtension>
        </extensions>
      </trkpt>
      <trkpt lat="46.80430716834962368011474609375" lon="6.90298768691718578338623046875">
        <ele>381</ele>
        <time>2013-09-01T14:03:06.000Z</time>
        <extensions>
          <ns3:TrackPointExtension>
            <ns3:atemp>23.0</ns3:atemp>
          </ns3:TrackPointExtension>
        </extensions>
      </trkpt>
      <trkpt lat="46.80428420193493366241455078125" lon="6.90299506299197673797607421875">
        <ele>381.20001220703125</ele>
        <time>2013-09-01T14:03:07.000Z</time>
        <extensions>
          <ns3:TrackPointExtension>
            <ns3:atemp>23.0</ns3:atemp>
          </ns3:TrackPointExtension>
        </extensions>
      </trkpt>
      <trkpt lat="46.8042638339102268218994140625" lon="6.903001852333545684814453125">
        <ele>381.399993896484375</ele>
        <time>2013-09-01T14:03:08.000Z</time>
        <extensions>
          <ns3:TrackPointExtension>
            <ns3:atemp>23.0</ns3:atemp>
          </ns3:TrackPointExtension>
        </extensions>
      </trkpt>
      <trkpt lat="46.80424489080905914306640625" lon="6.9030040316283702850341796875">
        <ele>381.79998779296875</ele>
        <time>2013-09-01T14:03:09.000Z</time>
        <extensions>
          <ns3:TrackPointExtension>
            <ns3:atemp>23.0</ns3:atemp>
          </ns3:TrackPointExtension>
        </extensions>
      </trkpt>
      <trkpt lat="46.80421982891857624053955078125" lon="6.9029902853071689605712890625">
        <ele>382</ele>
        <time>2013-09-01T14:03:10.000Z</time>
        <extensions>
          <ns3:TrackPointExtension>
            <ns3:atemp>23.0</ns3:atemp>
          </ns3:TrackPointExtension>
        </extensions>
      </trkpt>
      <trkpt lat="46.8041997961699962615966796875" lon="6.90297125838696956634521484375">
        <ele>382.399993896484375</ele>
        <time>2013-09-01T14:03:11.000Z</time>
        <extensions>
          <ns3:TrackPointExtension>
            <ns3:atemp>23.0</ns3:atemp>
          </ns3:TrackPointExtension>
        </extensions>
      </trkpt>
      <trkpt lat="46.8041793443262577056884765625" lon="6.902946196496486663818359375">
        <ele>382.79998779296875</ele>
        <time>2013-09-01T14:03:12.000Z</time>
        <extensions>
          <ns3:TrackPointExtension>
            <ns3:atemp>23.0</ns3:atemp>
          </ns3:TrackPointExtension>
        </extensions>
      </trkpt>
      <trkpt lat="46.80415830574929714202880859375" lon="6.90291644074022769927978515625">
        <ele>383</ele>
        <time>2013-09-01T14:03:13.000Z</time>
        <extensions>
          <ns3:TrackPointExtension>
            <ns3:atemp>23.0</ns3:atemp>
          </ns3:TrackPointExtension>
        </extensions>
      </trkpt>
      <trkpt lat="46.8041273765265941619873046875" lon="6.9028746150434017181396484375">
        <ele>383.20001220703125</ele>
        <time>2013-09-01T14:03:14.000Z</time>
        <extensions>
          <ns3:TrackPointExtension>
            <ns3:atemp>23.0</ns3:atemp>
          </ns3:TrackPointExtension>
        </extensions>
      </trkpt>
      <trkpt lat="46.8040953576564788818359375" lon="6.9028343819081783294677734375">
        <ele>383.399993896484375</ele>
        <time>2013-09-01T14:03:15.000Z</time>
        <extensions>
          <ns3:TrackPointExtension>
            <ns3:atemp>23.0</ns3:atemp>
          </ns3:TrackPointExtension>
        </extensions>
      </trkpt>
      <trkpt lat="46.8040660209953784942626953125" lon="6.902796328067779541015625">
        <ele>383.399993896484375</ele>
        <time>2013-09-01T14:03:16.000Z</time>
        <extensions>
          <ns3:TrackPointExtension>
            <ns3:atemp>23.0</ns3:atemp>
          </ns3:TrackPointExtension>
        </extensions>
      </trkpt>
      <trkpt lat="46.8040351755917072296142578125" lon="6.90275047905743122100830078125">
        <ele>383.600006103515625</ele>
        <time>2013-09-01T14:03:17.000Z</time>
        <extensions>
          <ns3:TrackPointExtension>
            <ns3:atemp>23.0</ns3:atemp>
          </ns3:TrackPointExtension>
        </extensions>
      </trkpt>
      <trkpt lat="46.8040080182254314422607421875" lon="6.90270907245576381683349609375">
        <ele>383.79998779296875</ele>
        <time>2013-09-01T14:03:18.000Z</time>
        <extensions>
          <ns3:TrackPointExtension>
            <ns3:atemp>23.0</ns3:atemp>
          </ns3:TrackPointExtension>
        </extensions>
      </trkpt>
      <trkpt lat="46.803981363773345947265625" lon="6.902669928967952728271484375">
        <ele>384</ele>
        <time>2013-09-01T14:03:19.000Z</time>
        <extensions>
          <ns3:TrackPointExtension>
            <ns3:atemp>23.0</ns3:atemp>
          </ns3:TrackPointExtension>
        </extensions>
      </trkpt>
      <trkpt lat="46.80395579896867275238037109375" lon="6.90262860618531703948974609375">
        <ele>384.20001220703125</ele>
        <time>2013-09-01T14:03:20.000Z</time>
        <extensions>
          <ns3:TrackPointExtension>
            <ns3:atemp>23.0</ns3:atemp>
          </ns3:TrackPointExtension>
        </extensions>
      </trkpt>
      <trkpt lat="46.80393367074429988861083984375" lon="6.9025911390781402587890625">
        <ele>384.399993896484375</ele>
        <time>2013-09-01T14:03:21.000Z</time>
        <extensions>
          <ns3:TrackPointExtension>
            <ns3:atemp>23.0</ns3:atemp>
          </ns3:TrackPointExtension>
        </extensions>
      </trkpt>
      <trkpt lat="46.803911626338958740234375" lon="6.90255559980869293212890625">
        <ele>384.399993896484375</ele>
        <time>2013-09-01T14:03:22.000Z</time>
        <extensions>
          <ns3:TrackPointExtension>
            <ns3:atemp>23.0</ns3:atemp>
          </ns3:TrackPointExtension>
        </extensions>
      </trkpt>
      <trkpt lat="46.80388748645782470703125" lon="6.902518384158611297607421875">
        <ele>384.600006103515625</ele>
        <time>2013-09-01T14:03:23.000Z</time>
        <extensions>
          <ns3:TrackPointExtension>
            <ns3:atemp>23.0</ns3:atemp>
          </ns3:TrackPointExtension>
        </extensions>
      </trkpt>
      <trkpt lat="46.8038665316998958587646484375" lon="6.902484185993671417236328125">
        <ele>384.600006103515625</ele>
        <time>2013-09-01T14:03:24.000Z</time>
        <extensions>
          <ns3:TrackPointExtension>
            <ns3:atemp>23.0</ns3:atemp>
          </ns3:TrackPointExtension>
        </extensions>
      </trkpt>
      <trkpt lat="46.80384163744747638702392578125" lon="6.90244755707681179046630859375">
        <ele>384.79998779296875</ele>
        <time>2013-09-01T14:03:25.000Z</time>
        <extensions>
          <ns3:TrackPointExtension>
            <ns3:atemp>23.0</ns3:atemp>
          </ns3:TrackPointExtension>
        </extensions>
      </trkpt>
      <trkpt lat="46.80381515063345432281494140625" lon="6.902410089969635009765625">
        <ele>385</ele>
        <time>2013-09-01T14:03:26.000Z</time>
        <extensions>
          <ns3:TrackPointExtension>
            <ns3:atemp>23.0</ns3:atemp>
          </ns3:TrackPointExtension>
        </extensions>
      </trkpt>
      <trkpt lat="46.80379067547619342803955078125" lon="6.90237589180469512939453125">
        <ele>385</ele>
        <time>2013-09-01T14:03:27.000Z</time>
        <extensions>
          <ns3:TrackPointExtension>
            <ns3:atemp>23.0</ns3:atemp>
          </ns3:TrackPointExtension>
        </extensions>
      </trkpt>
      <trkpt lat="46.803768463432788848876953125" lon="6.90234295092523097991943359375">
        <ele>385.20001220703125</ele>
        <time>2013-09-01T14:03:28.000Z</time>
        <extensions>
          <ns3:TrackPointExtension>
            <ns3:atemp>23.0</ns3:atemp>
          </ns3:TrackPointExtension>
        </extensions>
      </trkpt>
      <trkpt lat="46.803751029074192047119140625" lon="6.90231042914092540740966796875">
        <ele>385.399993896484375</ele>
        <time>2013-09-01T14:03:29.000Z</time>
        <extensions>
          <ns3:TrackPointExtension>
            <ns3:atemp>23.0</ns3:atemp>
          </ns3:TrackPointExtension>
        </extensions>
      </trkpt>
      <trkpt lat="46.8037294037640094757080078125" lon="6.9022704474627971649169921875">
        <ele>385.399993896484375</ele>
        <time>2013-09-01T14:03:30.000Z</time>
        <extensions>
          <ns3:TrackPointExtension>
            <ns3:atemp>23.0</ns3:atemp>
          </ns3:TrackPointExtension>
        </extensions>
      </trkpt>
      <trkpt lat="46.80370836518704891204833984375" lon="6.9022290408611297607421875">
        <ele>385.79998779296875</ele>
        <time>2013-09-01T14:03:31.000Z</time>
        <extensions>
          <ns3:TrackPointExtension>
            <ns3:atemp>23.0</ns3:atemp>
          </ns3:TrackPointExtension>
        </extensions>
      </trkpt>
      <trkpt lat="46.80368757806718349456787109375" lon="6.90219023264944553375244140625">
        <ele>385.79998779296875</ele>
        <time>2013-09-01T14:03:32.000Z</time>
        <extensions>
          <ns3:TrackPointExtension>
            <ns3:atemp>23.0</ns3:atemp>
          </ns3:TrackPointExtension>
        </extensions>
      </trkpt>
      <trkpt lat="46.80366477929055690765380859375" lon="6.9021514244377613067626953125">
        <ele>386</ele>
        <time>2013-09-01T14:03:33.000Z</time>
        <extensions>
          <ns3:TrackPointExtension>
            <ns3:atemp>23.0</ns3:atemp>
          </ns3:TrackPointExtension>
        </extensions>
      </trkpt>
      <trkpt lat="46.80364130996167659759521484375" lon="6.9021155498921871185302734375">
        <ele>386</ele>
        <time>2013-09-01T14:03:34.000Z</time>
        <extensions>
          <ns3:TrackPointExtension>
            <ns3:atemp>23.0</ns3:atemp>
          </ns3:TrackPointExtension>
        </extensions>
      </trkpt>
      <trkpt lat="46.8036194331943988800048828125" lon="6.902080513536930084228515625">
        <ele>386.20001220703125</ele>
        <time>2013-09-01T14:03:35.000Z</time>
        <extensions>
          <ns3:TrackPointExtension>
            <ns3:atemp>23.0</ns3:atemp>
          </ns3:TrackPointExtension>
        </extensions>
      </trkpt>
      <trkpt lat="46.803596802055835723876953125" lon="6.902047656476497650146484375">
        <ele>386.399993896484375</ele>
        <time>2013-09-01T14:03:36.000Z</time>
        <extensions>
          <ns3:TrackPointExtension>
            <ns3:atemp>23.0</ns3:atemp>
          </ns3:TrackPointExtension>
        </extensions>
      </trkpt>
      <trkpt lat="46.80357509292662143707275390625" lon="6.9020149670541286468505859375">
        <ele>386.399993896484375</ele>
        <time>2013-09-01T14:03:37.000Z</time>
        <extensions>
          <ns3:TrackPointExtension>
            <ns3:atemp>23.0</ns3:atemp>
          </ns3:TrackPointExtension>
        </extensions>
      </trkpt>
      <trkpt lat="46.80355045013129711151123046875" lon="6.9019817747175693511962890625">
        <ele>386.399993896484375</ele>
        <time>2013-09-01T14:03:38.000Z</time>
        <extensions>
          <ns3:TrackPointExtension>
            <ns3:atemp>23.0</ns3:atemp>
          </ns3:TrackPointExtension>
        </extensions>
      </trkpt>
      <trkpt lat="46.80352714844048023223876953125" lon="6.90195000730454921722412109375">
        <ele>386.600006103515625</ele>
        <time>2013-09-01T14:03:39.000Z</time>
        <extensions>
          <ns3:TrackPointExtension>
            <ns3:atemp>23.0</ns3:atemp>
          </ns3:TrackPointExtension>
        </extensions>
      </trkpt>
      <trkpt lat="46.8035040982067584991455078125" lon="6.90192050300538539886474609375">
        <ele>386.79998779296875</ele>
        <time>2013-09-01T14:03:40.000Z</time>
        <extensions>
          <ns3:TrackPointExtension>
            <ns3:atemp>23.0</ns3:atemp>
          </ns3:TrackPointExtension>
        </extensions>
      </trkpt>
      <trkpt lat="46.80348238907754421234130859375" lon="6.90188814885914325714111328125">
        <ele>387</ele>
        <time>2013-09-01T14:03:41.000Z</time>
        <extensions>
          <ns3:TrackPointExtension>
            <ns3:atemp>23.0</ns3:atemp>
          </ns3:TrackPointExtension>
        </extensions>
      </trkpt>
      <trkpt lat="46.8034598417580127716064453125" lon="6.90185680054128170013427734375">
        <ele>387.20001220703125</ele>
        <time>2013-09-01T14:03:42.000Z</time>
        <extensions>
          <ns3:TrackPointExtension>
            <ns3:atemp>23.0</ns3:atemp>
          </ns3:TrackPointExtension>
        </extensions>
      </trkpt>
      <trkpt lat="46.803435198962688446044921875" lon="6.9018235243856906890869140625">
        <ele>387.20001220703125</ele>
        <time>2013-09-01T14:03:43.000Z</time>
        <extensions>
          <ns3:TrackPointExtension>
            <ns3:atemp>23.0</ns3:atemp>
          </ns3:TrackPointExtension>
        </extensions>
      </trkpt>
      <trkpt lat="46.80340879596769809722900390625" lon="6.90178823657333850860595703125">
        <ele>387.399993896484375</ele>
        <time>2013-09-01T14:03:44.000Z</time>
        <extensions>
          <ns3:TrackPointExtension>
            <ns3:atemp>23.0</ns3:atemp>
          </ns3:TrackPointExtension>
        </extensions>
      </trkpt>
      <trkpt lat="46.803384236991405487060546875" lon="6.9017490930855274200439453125">
        <ele>387.79998779296875</ele>
        <time>2013-09-01T14:03:45.000Z</time>
        <extensions>
          <ns3:TrackPointExtension>
            <ns3:atemp>23.0</ns3:atemp>
          </ns3:TrackPointExtension>
        </extensions>
      </trkpt>
      <trkpt lat="46.80336018092930316925048828125" lon="6.90170525573194026947021484375">
        <ele>388</ele>
        <time>2013-09-01T14:03:46.000Z</time>
        <extensions>
          <ns3:TrackPointExtension>
            <ns3:atemp>23.0</ns3:atemp>
          </ns3:TrackPointExtension>
        </extensions>
      </trkpt>
      <trkpt lat="46.80333293974399566650390625" lon="6.9016577303409576416015625">
        <ele>388.20001220703125</ele>
        <time>2013-09-01T14:03:47.000Z</time>
        <extensions>
          <ns3:TrackPointExtension>
            <ns3:atemp>23.0</ns3:atemp>
          </ns3:TrackPointExtension>
        </extensions>
      </trkpt>
      <trkpt lat="46.80330703966319561004638671875" lon="6.9016129709780216217041015625">
        <ele>388.399993896484375</ele>
        <time>2013-09-01T14:03:48.000Z</time>
        <extensions>
          <ns3:TrackPointExtension>
            <ns3:atemp>23.0</ns3:atemp>
          </ns3:TrackPointExtension>
        </extensions>
      </trkpt>
      <trkpt lat="46.8032824806869029998779296875" lon="6.90157064236700534820556640625">
        <ele>388.600006103515625</ele>
        <time>2013-09-01T14:03:49.000Z</time>
        <extensions>
          <ns3:TrackPointExtension>
            <ns3:atemp>23.0</ns3:atemp>
          </ns3:TrackPointExtension>
        </extensions>
      </trkpt>
      <trkpt lat="46.80326144210994243621826171875" lon="6.90153099596500396728515625">
        <ele>388.79998779296875</ele>
        <time>2013-09-01T14:03:50.000Z</time>
        <extensions>
          <ns3:TrackPointExtension>
            <ns3:atemp>23.0</ns3:atemp>
          </ns3:TrackPointExtension>
        </extensions>
      </trkpt>
      <trkpt lat="46.80323746986687183380126953125" lon="6.9014912657439708709716796875">
        <ele>388.79998779296875</ele>
        <time>2013-09-01T14:03:51.000Z</time>
        <extensions>
          <ns3:TrackPointExtension>
            <ns3:atemp>23.0</ns3:atemp>
          </ns3:TrackPointExtension>
        </extensions>
      </trkpt>
      <trkpt lat="46.80321534164249897003173828125" lon="6.901444494724273681640625">
        <ele>388.79998779296875</ele>
        <time>2013-09-01T14:03:52.000Z</time>
        <extensions>
          <ns3:TrackPointExtension>
            <ns3:atemp>23.0</ns3:atemp>
          </ns3:TrackPointExtension>
        </extensions>
      </trkpt>
      <trkpt lat="46.8031946383416652679443359375" lon="6.9013957120478153228759765625">
        <ele>389</ele>
        <time>2013-09-01T14:03:53.000Z</time>
        <extensions>
          <ns3:TrackPointExtension>
            <ns3:atemp>23.0</ns3:atemp>
          </ns3:TrackPointExtension>
        </extensions>
      </trkpt>
      <trkpt lat="46.80317594669759273529052734375" lon="6.90134651027619838714599609375">
        <ele>389.20001220703125</ele>
        <time>2013-09-01T14:03:54.000Z</time>
        <extensions>
          <ns3:TrackPointExtension>
            <ns3:atemp>23.0</ns3:atemp>
          </ns3:TrackPointExtension>
        </extensions>
      </trkpt>
      <trkpt lat="46.8031587637960910797119140625" lon="6.9012998230755329132080078125">
        <ele>389.600006103515625</ele>
        <time>2013-09-01T14:03:55.000Z</time>
        <extensions>
          <ns3:TrackPointExtension>
            <ns3:atemp>23.0</ns3:atemp>
          </ns3:TrackPointExtension>
        </extensions>
      </trkpt>
      <trkpt lat="46.80314250290393829345703125" lon="6.90125632099807262420654296875">
        <ele>389.79998779296875</ele>
        <time>2013-09-01T14:03:56.000Z</time>
        <extensions>
          <ns3:TrackPointExtension>
            <ns3:atemp>23.0</ns3:atemp>
          </ns3:TrackPointExtension>
        </extensions>
      </trkpt>
      <trkpt lat="46.80312230251729488372802734375" lon="6.9012099690735340118408203125">
        <ele>390</ele>
        <time>2013-09-01T14:03:57.000Z</time>
        <extensions>
          <ns3:TrackPointExtension>
            <ns3:atemp>23.0</ns3:atemp>
          </ns3:TrackPointExtension>
        </extensions>
      </trkpt>
      <trkpt lat="46.803101263940334320068359375" lon="6.9011623598635196685791015625">
        <ele>390</ele>
        <time>2013-09-01T14:03:58.000Z</time>
        <extensions>
          <ns3:TrackPointExtension>
            <ns3:atemp>23.0</ns3:atemp>
          </ns3:TrackPointExtension>
        </extensions>
      </trkpt>
      <trkpt lat="46.8030799739062786102294921875" lon="6.90111533738672733306884765625">
        <ele>390</ele>
        <time>2013-09-01T14:03:59.000Z</time>
        <extensions>
          <ns3:TrackPointExtension>
            <ns3:atemp>23.0</ns3:atemp>
          </ns3:TrackPointExtension>
        </extensions>
      </trkpt>
      <trkpt lat="46.80305843241512775421142578125" lon="6.901070661842823028564453125">
        <ele>390</ele>
        <time>2013-09-01T14:04:00.000Z</time>
        <extensions>
          <ns3:TrackPointExtension>
            <ns3:atemp>23.0</ns3:atemp>
          </ns3:TrackPointExtension>
        </extensions>
      </trkpt>
      <trkpt lat="46.80303546600043773651123046875" lon="6.90102430991828441619873046875">
        <ele>390.20001220703125</ele>
        <time>2013-09-01T14:04:01.000Z</time>
        <extensions>
          <ns3:TrackPointExtension>
            <ns3:atemp>23.0</ns3:atemp>
          </ns3:TrackPointExtension>
        </extensions>
      </trkpt>
      <trkpt lat="46.8030132539570331573486328125" lon="6.9009766168892383575439453125">
        <ele>390.20001220703125</ele>
        <time>2013-09-01T14:04:02.000Z</time>
        <extensions>
          <ns3:TrackPointExtension>
            <ns3:atemp>23.0</ns3:atemp>
          </ns3:TrackPointExtension>
        </extensions>
      </trkpt>
      <trkpt lat="46.802990622818470001220703125" lon="6.90092884004116058349609375">
        <ele>390.399993896484375</ele>
        <time>2013-09-01T14:04:03.000Z</time>
        <extensions>
          <ns3:TrackPointExtension>
            <ns3:atemp>23.0</ns3:atemp>
          </ns3:TrackPointExtension>
        </extensions>
      </trkpt>
      <trkpt lat="46.8029676564037799835205078125" lon="6.90088315866887569427490234375">
        <ele>390.600006103515625</ele>
        <time>2013-09-01T14:04:04.000Z</time>
        <extensions>
          <ns3:TrackPointExtension>
            <ns3:atemp>23.0</ns3:atemp>
          </ns3:TrackPointExtension>
        </extensions>
      </trkpt>
      <trkpt lat="46.80294536054134368896484375" lon="6.900836639106273651123046875">
        <ele>390.79998779296875</ele>
        <time>2013-09-01T14:04:05.000Z</time>
        <extensions>
          <ns3:TrackPointExtension>
            <ns3:atemp>23.0</ns3:atemp>
          </ns3:TrackPointExtension>
        </extensions>
      </trkpt>
      <trkpt lat="46.802922226488590240478515625" lon="6.90078978426754474639892578125">
        <ele>391</ele>
        <time>2013-09-01T14:04:06.000Z</time>
        <extensions>
          <ns3:TrackPointExtension>
            <ns3:atemp>23.0</ns3:atemp>
          </ns3:TrackPointExtension>
        </extensions>
      </trkpt>
      <trkpt lat="46.8028972484171390533447265625" lon="6.90074066631495952606201171875">
        <ele>391</ele>
        <time>2013-09-01T14:04:07.000Z</time>
        <extensions>
          <ns3:TrackPointExtension>
            <ns3:atemp>23.0</ns3:atemp>
          </ns3:TrackPointExtension>
        </extensions>
      </trkpt>
      <trkpt lat="46.80287302471697330474853515625" lon="6.900687776505947113037109375">
        <ele>391.399993896484375</ele>
        <time>2013-09-01T14:04:08.000Z</time>
        <extensions>
          <ns3:TrackPointExtension>
            <ns3:atemp>23.0</ns3:atemp>
          </ns3:TrackPointExtension>
        </extensions>
      </trkpt>
      <trkpt lat="46.80284704081714153289794921875" lon="6.90063237212598323822021484375">
        <ele>391.399993896484375</ele>
        <time>2013-09-01T14:04:09.000Z</time>
        <extensions>
          <ns3:TrackPointExtension>
            <ns3:atemp>23.0</ns3:atemp>
          </ns3:TrackPointExtension>
        </extensions>
      </trkpt>
      <trkpt lat="46.8028197996318340301513671875" lon="6.90057721920311450958251953125">
        <ele>391.600006103515625</ele>
        <time>2013-09-01T14:04:10.000Z</time>
        <extensions>
          <ns3:TrackPointExtension>
            <ns3:atemp>23.0</ns3:atemp>
          </ns3:TrackPointExtension>
        </extensions>
      </trkpt>
      <trkpt lat="46.802792809903621673583984375" lon="6.900519467890262603759765625">
        <ele>391.600006103515625</ele>
        <time>2013-09-01T14:04:11.000Z</time>
        <extensions>
          <ns3:TrackPointExtension>
            <ns3:atemp>23.0</ns3:atemp>
          </ns3:TrackPointExtension>
        </extensions>
      </trkpt>
      <trkpt lat="46.80277847684919834136962890625" lon="6.90047286450862884521484375">
        <ele>391.600006103515625</ele>
        <time>2013-09-01T14:04:12.000Z</time>
        <extensions>
          <ns3:TrackPointExtension>
            <ns3:atemp>23.0</ns3:atemp>
          </ns3:TrackPointExtension>
        </extensions>
      </trkpt>
      <trkpt lat="46.80276967585086822509765625" lon="6.90042802132666110992431640625">
        <ele>391.79998779296875</ele>
        <time>2013-09-01T14:04:13.000Z</time>
        <extensions>
          <ns3:TrackPointExtension>
            <ns3:atemp>23.0</ns3:atemp>
          </ns3:TrackPointExtension>
        </extensions>
      </trkpt>
      <trkpt lat="46.80275953374803066253662109375" lon="6.90037940628826618194580078125">
        <ele>392</ele>
        <time>2013-09-01T14:04:14.000Z</time>
        <extensions>
          <ns3:TrackPointExtension>
            <ns3:atemp>23.0</ns3:atemp>
          </ns3:TrackPointExtension>
        </extensions>
      </trkpt>
      <trkpt lat="46.8027510680258274078369140625" lon="6.9003327190876007080078125">
        <ele>392.20001220703125</ele>
        <time>2013-09-01T14:04:15.000Z</time>
        <extensions>
          <ns3:TrackPointExtension>
            <ns3:atemp>23.0</ns3:atemp>
          </ns3:TrackPointExtension>
        </extensions>
      </trkpt>
      <trkpt lat="46.80273757316172122955322265625" lon="6.90028402023017406463623046875">
        <ele>392.20001220703125</ele>
        <time>2013-09-01T14:04:16.000Z</time>
        <extensions>
          <ns3:TrackPointExtension>
            <ns3:atemp>23.0</ns3:atemp>
          </ns3:TrackPointExtension>
        </extensions>
      </trkpt>
      <trkpt lat="46.8027198873460292816162109375" lon="6.9002299569547176361083984375">
        <ele>392.20001220703125</ele>
        <time>2013-09-01T14:04:17.000Z</time>
        <extensions>
          <ns3:TrackPointExtension>
            <ns3:atemp>23.0</ns3:atemp>
          </ns3:TrackPointExtension>
        </extensions>
      </trkpt>
      <trkpt lat="46.8027017824351787567138671875" lon="6.90016801469027996063232421875">
        <ele>392.399993896484375</ele>
        <time>2013-09-01T14:04:18.000Z</time>
        <extensions>
          <ns3:TrackPointExtension>
            <ns3:atemp>23.0</ns3:atemp>
          </ns3:TrackPointExtension>
        </extensions>
      </trkpt>
      <trkpt lat="46.8026833422482013702392578125" lon="6.9001015461981296539306640625">
        <ele>392.600006103515625</ele>
        <time>2013-09-01T14:04:19.000Z</time>
        <extensions>
          <ns3:TrackPointExtension>
            <ns3:atemp>23.0</ns3:atemp>
          </ns3:TrackPointExtension>
        </extensions>
      </trkpt>
      <trkpt lat="46.80266364477574825286865234375" lon="6.90003625117242336273193359375">
        <ele>392.79998779296875</ele>
        <time>2013-09-01T14:04:20.000Z</time>
        <extensions>
          <ns3:TrackPointExtension>
            <ns3:atemp>23.0</ns3:atemp>
          </ns3:TrackPointExtension>
        </extensions>
      </trkpt>
      <trkpt lat="46.8026469647884368896484375" lon="6.89996936358511447906494140625">
        <ele>392.79998779296875</ele>
        <time>2013-09-01T14:04:21.000Z</time>
        <extensions>
          <ns3:TrackPointExtension>
            <ns3:atemp>23.0</ns3:atemp>
          </ns3:TrackPointExtension>
        </extensions>
      </trkpt>
      <trkpt lat="46.80263246409595012664794921875" lon="6.89990230835974216461181640625">
        <ele>393</ele>
        <time>2013-09-01T14:04:22.000Z</time>
        <extensions>
          <ns3:TrackPointExtension>
            <ns3:atemp>23.0</ns3:atemp>
          </ns3:TrackPointExtension>
        </extensions>
      </trkpt>
      <trkpt lat="46.80262190289795398712158203125" lon="6.89983785152435302734375">
        <ele>393</ele>
        <time>2013-09-01T14:04:23.000Z</time>
        <extensions>
          <ns3:TrackPointExtension>
            <ns3:atemp>23.0</ns3:atemp>
          </ns3:TrackPointExtension>
        </extensions>
      </trkpt>
      <trkpt lat="46.802613437175750732421875" lon="6.8997749872505664825439453125">
        <ele>393</ele>
        <time>2013-09-01T14:04:24.000Z</time>
        <extensions>
          <ns3:TrackPointExtension>
            <ns3:atemp>23.0</ns3:atemp>
          </ns3:TrackPointExtension>
        </extensions>
      </trkpt>
      <trkpt lat="46.80260748602449893951416015625" lon="6.89971446990966796875">
        <ele>393</ele>
        <time>2013-09-01T14:04:25.000Z</time>
        <extensions>
          <ns3:TrackPointExtension>
            <ns3:atemp>23.0</ns3:atemp>
          </ns3:TrackPointExtension>
        </extensions>
      </trkpt>
      <trkpt lat="46.80260111577808856964111328125" lon="6.89965453930199146270751953125">
        <ele>393</ele>
        <time>2013-09-01T14:04:26.000Z</time>
        <extensions>
          <ns3:TrackPointExtension>
            <ns3:atemp>23.0</ns3:atemp>
          </ns3:TrackPointExtension>
        </extensions>
      </trkpt>
      <trkpt lat="46.80259692482650279998779296875" lon="6.8995952792465686798095703125">
        <ele>393</ele>
        <time>2013-09-01T14:04:27.000Z</time>
        <extensions>
          <ns3:TrackPointExtension>
            <ns3:atemp>23.0</ns3:atemp>
          </ns3:TrackPointExtension>
        </extensions>
      </trkpt>
      <trkpt lat="46.80259239859879016876220703125" lon="6.89953551627695560455322265625">
        <ele>393</ele>
        <time>2013-09-01T14:04:28.000Z</time>
        <extensions>
          <ns3:TrackPointExtension>
            <ns3:atemp>23.0</ns3:atemp>
          </ns3:TrackPointExtension>
        </extensions>
      </trkpt>
      <trkpt lat="46.8025877885520458221435546875" lon="6.89947382546961307525634765625">
        <ele>393.20001220703125</ele>
        <time>2013-09-01T14:04:29.000Z</time>
        <extensions>
          <ns3:TrackPointExtension>
            <ns3:atemp>23.0</ns3:atemp>
          </ns3:TrackPointExtension>
        </extensions>
      </trkpt>
      <trkpt lat="46.80258418433368206024169921875" lon="6.8994038365781307220458984375">
        <ele>393.399993896484375</ele>
        <time>2013-09-01T14:04:30.000Z</time>
        <extensions>
          <ns3:TrackPointExtension>
            <ns3:atemp>23.0</ns3:atemp>
          </ns3:TrackPointExtension>
        </extensions>
      </trkpt>
      <trkpt lat="46.80258326232433319091796875" lon="6.899338625371456146240234375">
        <ele>393.399993896484375</ele>
        <time>2013-09-01T14:04:31.000Z</time>
        <extensions>
          <ns3:TrackPointExtension>
            <ns3:atemp>23.0</ns3:atemp>
          </ns3:TrackPointExtension>
        </extensions>
      </trkpt>
      <trkpt lat="46.80258301086723804473876953125" lon="6.8992774374783039093017578125">
        <ele>393.600006103515625</ele>
        <time>2013-09-01T14:04:32.000Z</time>
        <extensions>
          <ns3:TrackPointExtension>
            <ns3:atemp>23.0</ns3:atemp>
          </ns3:TrackPointExtension>
        </extensions>
      </trkpt>
      <trkpt lat="46.8025825917720794677734375" lon="6.8992144055664539337158203125">
        <ele>393.79998779296875</ele>
        <time>2013-09-01T14:04:33.000Z</time>
        <extensions>
          <ns3:TrackPointExtension>
            <ns3:atemp>23.0</ns3:atemp>
          </ns3:TrackPointExtension>
        </extensions>
      </trkpt>
      <trkpt lat="46.8025827594101428985595703125" lon="6.89915397204458713531494140625">
        <ele>393.79998779296875</ele>
        <time>2013-09-01T14:04:34.000Z</time>
        <extensions>
          <ns3:TrackPointExtension>
            <ns3:atemp>23.0</ns3:atemp>
          </ns3:TrackPointExtension>
        </extensions>
      </trkpt>
      <trkpt lat="46.80258234031498432159423828125" lon="6.89909429289400577545166015625">
        <ele>394</ele>
        <time>2013-09-01T14:04:35.000Z</time>
        <extensions>
          <ns3:TrackPointExtension>
            <ns3:atemp>23.0</ns3:atemp>
          </ns3:TrackPointExtension>
        </extensions>
      </trkpt>
      <trkpt lat="46.80258058011531829833984375" lon="6.89903520047664642333984375">
        <ele>394.20001220703125</ele>
        <time>2013-09-01T14:04:36.000Z</time>
        <extensions>
          <ns3:TrackPointExtension>
            <ns3:atemp>23.0</ns3:atemp>
          </ns3:TrackPointExtension>
        </extensions>
      </trkpt>
      <trkpt lat="46.80257747881114482879638671875" lon="6.89897661097347736358642578125">
        <ele>394.600006103515625</ele>
        <time>2013-09-01T14:04:37.000Z</time>
        <extensions>
          <ns3:TrackPointExtension>
            <ns3:atemp>23.0</ns3:atemp>
          </ns3:TrackPointExtension>
        </extensions>
      </trkpt>
      <trkpt lat="46.80257110856473445892333984375" lon="6.8989153392612934112548828125">
        <ele>394.79998779296875</ele>
        <time>2013-09-01T14:04:38.000Z</time>
        <extensions>
          <ns3:TrackPointExtension>
            <ns3:atemp>23.0</ns3:atemp>
          </ns3:TrackPointExtension>
        </extensions>
      </trkpt>
      <trkpt lat="46.8025646544992923736572265625" lon="6.89885322935879230499267578125">
        <ele>395</ele>
        <time>2013-09-01T14:04:39.000Z</time>
        <extensions>
          <ns3:TrackPointExtension>
            <ns3:atemp>23.0</ns3:atemp>
          </ns3:TrackPointExtension>
        </extensions>
      </trkpt>
      <trkpt lat="46.8025596253573894500732421875" lon="6.8987865932285785675048828125">
        <ele>395.20001220703125</ele>
        <time>2013-09-01T14:04:40.000Z</time>
        <extensions>
          <ns3:TrackPointExtension>
            <ns3:atemp>23.0</ns3:atemp>
          </ns3:TrackPointExtension>
        </extensions>
      </trkpt>
      <trkpt lat="46.8025572784245014190673828125" lon="6.89872272312641143798828125">
        <ele>395.20001220703125</ele>
        <time>2013-09-01T14:04:41.000Z</time>
        <extensions>
          <ns3:TrackPointExtension>
            <ns3:atemp>23.0</ns3:atemp>
          </ns3:TrackPointExtension>
        </extensions>
      </trkpt>
      <trkpt lat="46.80255752988159656524658203125" lon="6.8986632116138935089111328125">
        <ele>395.399993896484375</ele>
        <time>2013-09-01T14:04:42.000Z</time>
        <extensions>
          <ns3:TrackPointExtension>
            <ns3:atemp>23.0</ns3:atemp>
          </ns3:TrackPointExtension>
        </extensions>
      </trkpt>
      <trkpt lat="46.80255635641515254974365234375" lon="6.89860478974878787994384765625">
        <ele>395.399993896484375</ele>
        <time>2013-09-01T14:04:43.000Z</time>
        <extensions>
          <ns3:TrackPointExtension>
            <ns3:atemp>23.0</ns3:atemp>
          </ns3:TrackPointExtension>
        </extensions>
      </trkpt>
      <trkpt lat="46.802551411092281341552734375" lon="6.89854511059820652008056640625">
        <ele>395.399993896484375</ele>
        <time>2013-09-01T14:04:44.000Z</time>
        <extensions>
          <ns3:TrackPointExtension>
            <ns3:atemp>23.0</ns3:atemp>
          </ns3:TrackPointExtension>
        </extensions>
      </trkpt>
      <trkpt lat="46.802546046674251556396484375" lon="6.8984881974756717681884765625">
        <ele>395.600006103515625</ele>
        <time>2013-09-01T14:04:45.000Z</time>
        <extensions>
          <ns3:TrackPointExtension>
            <ns3:atemp>23.0</ns3:atemp>
          </ns3:TrackPointExtension>
        </extensions>
      </trkpt>
      <trkpt lat="46.80254361592233180999755859375" lon="6.89843379892408847808837890625">
        <ele>395.79998779296875</ele>
        <time>2013-09-01T14:04:46.000Z</time>
        <extensions>
          <ns3:TrackPointExtension>
            <ns3:atemp>23.0</ns3:atemp>
          </ns3:TrackPointExtension>
        </extensions>
      </trkpt>
      <trkpt lat="46.80254562757909297943115234375" lon="6.898382417857646942138671875">
        <ele>396</ele>
        <time>2013-09-01T14:04:47.000Z</time>
        <extensions>
          <ns3:TrackPointExtension>
            <ns3:atemp>23.0</ns3:atemp>
          </ns3:TrackPointExtension>
        </extensions>
      </trkpt>
      <trkpt lat="46.80254663340747356414794921875" lon="6.89832919277250766754150390625">
        <ele>396.20001220703125</ele>
        <time>2013-09-01T14:04:48.000Z</time>
        <extensions>
          <ns3:TrackPointExtension>
            <ns3:atemp>23.0</ns3:atemp>
          </ns3:TrackPointExtension>
        </extensions>
      </trkpt>
      <trkpt lat="46.80254638195037841796875" lon="6.89827621914446353912353515625">
        <ele>396.20001220703125</ele>
        <time>2013-09-01T14:04:49.000Z</time>
        <extensions>
          <ns3:TrackPointExtension>
            <ns3:atemp>23.0</ns3:atemp>
          </ns3:TrackPointExtension>
        </extensions>
      </trkpt>
      <trkpt lat="46.80254596285521984100341796875" lon="6.89822508953511714935302734375">
        <ele>396.399993896484375</ele>
        <time>2013-09-01T14:04:50.000Z</time>
        <extensions>
          <ns3:TrackPointExtension>
            <ns3:atemp>23.0</ns3:atemp>
          </ns3:TrackPointExtension>
        </extensions>
      </trkpt>
      <trkpt lat="46.80254445411264896392822265625" lon="6.89817144535481929779052734375">
        <ele>396.399993896484375</ele>
        <time>2013-09-01T14:04:51.000Z</time>
        <extensions>
          <ns3:TrackPointExtension>
            <ns3:atemp>23.0</ns3:atemp>
          </ns3:TrackPointExtension>
        </extensions>
      </trkpt>
      <trkpt lat="46.8025418557226657867431640625" lon="6.8981173820793628692626953125">
        <ele>396.600006103515625</ele>
        <time>2013-09-01T14:04:52.000Z</time>
        <extensions>
          <ns3:TrackPointExtension>
            <ns3:atemp>23.0</ns3:atemp>
          </ns3:TrackPointExtension>
        </extensions>
      </trkpt>
      <trkpt lat="46.802540682256221771240234375" lon="6.89806348644196987152099609375">
        <ele>396.79998779296875</ele>
        <time>2013-09-01T14:04:53.000Z</time>
        <extensions>
          <ns3:TrackPointExtension>
            <ns3:atemp>23.0</ns3:atemp>
          </ns3:TrackPointExtension>
        </extensions>
      </trkpt>
      <trkpt lat="46.8025408498942852020263671875" lon="6.8980110995471477508544921875">
        <ele>397</ele>
        <time>2013-09-01T14:04:54.000Z</time>
        <extensions>
          <ns3:TrackPointExtension>
            <ns3:atemp>23.0</ns3:atemp>
          </ns3:TrackPointExtension>
        </extensions>
      </trkpt>
      <trkpt lat="46.80254026316106319427490234375" lon="6.897957623004913330078125">
        <ele>397</ele>
        <time>2013-09-01T14:04:55.000Z</time>
        <extensions>
          <ns3:TrackPointExtension>
            <ns3:atemp>23.0</ns3:atemp>
          </ns3:TrackPointExtension>
        </extensions>
      </trkpt>
      <trkpt lat="46.80253892205655574798583984375" lon="6.8979044817388057708740234375">
        <ele>397.20001220703125</ele>
        <time>2013-09-01T14:04:56.000Z</time>
        <extensions>
          <ns3:TrackPointExtension>
            <ns3:atemp>23.0</ns3:atemp>
          </ns3:TrackPointExtension>
        </extensions>
      </trkpt>
      <trkpt lat="46.802538670599460601806640625" lon="6.89785192720592021942138671875">
        <ele>397.399993896484375</ele>
        <time>2013-09-01T14:04:57.000Z</time>
        <extensions>
          <ns3:TrackPointExtension>
            <ns3:atemp>23.0</ns3:atemp>
          </ns3:TrackPointExtension>
        </extensions>
      </trkpt>
      <trkpt lat="46.80253791622817516326904296875" lon="6.89779928885400295257568359375">
        <ele>397.600006103515625</ele>
        <time>2013-09-01T14:04:58.000Z</time>
        <extensions>
          <ns3:TrackPointExtension>
            <ns3:atemp>23.0</ns3:atemp>
          </ns3:TrackPointExtension>
        </extensions>
      </trkpt>
      <trkpt lat="46.8025371618568897247314453125" lon="6.89774614758789539337158203125">
        <ele>397.79998779296875</ele>
        <time>2013-09-01T14:04:59.000Z</time>
        <extensions>
          <ns3:TrackPointExtension>
            <ns3:atemp>23.0</ns3:atemp>
          </ns3:TrackPointExtension>
        </extensions>
      </trkpt>
      <trkpt lat="46.80253640748560428619384765625" lon="6.89769350923597812652587890625">
        <ele>397.79998779296875</ele>
        <time>2013-09-01T14:05:00.000Z</time>
        <extensions>
          <ns3:TrackPointExtension>
            <ns3:atemp>23.0</ns3:atemp>
          </ns3:TrackPointExtension>
        </extensions>
      </trkpt>
      <trkpt lat="46.802535317838191986083984375" lon="6.89763952977955341339111328125">
        <ele>398</ele>
        <time>2013-09-01T14:05:01.000Z</time>
        <extensions>
          <ns3:TrackPointExtension>
            <ns3:atemp>23.0</ns3:atemp>
          </ns3:TrackPointExtension>
        </extensions>
      </trkpt>
      <trkpt lat="46.8025331385433673858642578125" lon="6.8975829519331455230712890625">
        <ele>398.20001220703125</ele>
        <time>2013-09-01T14:05:02.000Z</time>
        <extensions>
          <ns3:TrackPointExtension>
            <ns3:atemp>23.0</ns3:atemp>
          </ns3:TrackPointExtension>
        </extensions>
      </trkpt>
      <trkpt lat="46.80253121070563793182373046875" lon="6.89752453006803989410400390625">
        <ele>398.399993896484375</ele>
        <time>2013-09-01T14:05:03.000Z</time>
        <extensions>
          <ns3:TrackPointExtension>
            <ns3:atemp>23.0</ns3:atemp>
          </ns3:TrackPointExtension>
        </extensions>
      </trkpt>
      <trkpt lat="46.80253037251532077789306640625" lon="6.89746652729809284210205078125">
        <ele>398.600006103515625</ele>
        <time>2013-09-01T14:05:04.000Z</time>
        <extensions>
          <ns3:TrackPointExtension>
            <ns3:atemp>23.0</ns3:atemp>
          </ns3:TrackPointExtension>
        </extensions>
      </trkpt>
      <trkpt lat="46.80252936668694019317626953125" lon="6.8974082730710506439208984375">
        <ele>398.79998779296875</ele>
        <time>2013-09-01T14:05:05.000Z</time>
        <extensions>
          <ns3:TrackPointExtension>
            <ns3:atemp>23.0</ns3:atemp>
          </ns3:TrackPointExtension>
        </extensions>
      </trkpt>
      <trkpt lat="46.80252819322049617767333984375" lon="6.897351443767547607421875">
        <ele>399</ele>
        <time>2013-09-01T14:05:06.000Z</time>
        <extensions>
          <ns3:TrackPointExtension>
            <ns3:atemp>23.0</ns3:atemp>
          </ns3:TrackPointExtension>
        </extensions>
      </trkpt>
      <trkpt lat="46.80252500809729099273681640625" lon="6.8972952850162982940673828125">
        <ele>399.20001220703125</ele>
        <time>2013-09-01T14:05:07.000Z</time>
        <extensions>
          <ns3:TrackPointExtension>
            <ns3:atemp>23.0</ns3:atemp>
          </ns3:TrackPointExtension>
        </extensions>
      </trkpt>
      <trkpt lat="46.80252132005989551544189453125" lon="6.89723820425570011138916015625">
        <ele>399.399993896484375</ele>
        <time>2013-09-01T14:05:08.000Z</time>
        <extensions>
          <ns3:TrackPointExtension>
            <ns3:atemp>23.0</ns3:atemp>
          </ns3:TrackPointExtension>
        </extensions>
      </trkpt>
      <trkpt lat="46.8025177158415317535400390625" lon="6.897180788218975067138671875">
        <ele>399.399993896484375</ele>
        <time>2013-09-01T14:05:09.000Z</time>
        <extensions>
          <ns3:TrackPointExtension>
            <ns3:atemp>23.0</ns3:atemp>
          </ns3:TrackPointExtension>
        </extensions>
      </trkpt>
      <trkpt lat="46.8025136925280094146728515625" lon="6.8971206061542034149169921875">
        <ele>399.399993896484375</ele>
        <time>2013-09-01T14:05:10.000Z</time>
        <extensions>
          <ns3:TrackPointExtension>
            <ns3:atemp>23.0</ns3:atemp>
          </ns3:TrackPointExtension>
        </extensions>
      </trkpt>
      <trkpt lat="46.8025100044906139373779296875" lon="6.89706335775554180145263671875">
        <ele>399.600006103515625</ele>
        <time>2013-09-01T14:05:11.000Z</time>
        <extensions>
          <ns3:TrackPointExtension>
            <ns3:atemp>23.0</ns3:atemp>
          </ns3:TrackPointExtension>
        </extensions>
      </trkpt>
      <trkpt lat="46.8025059811770915985107421875" lon="6.89700485207140445709228515625">
        <ele>399.600006103515625</ele>
        <time>2013-09-01T14:05:12.000Z</time>
        <extensions>
          <ns3:TrackPointExtension>
            <ns3:atemp>23.0</ns3:atemp>
          </ns3:TrackPointExtension>
        </extensions>
      </trkpt>
      <trkpt lat="46.80250287987291812896728515625" lon="6.89694701693952083587646484375">
        <ele>399.600006103515625</ele>
        <time>2013-09-01T14:05:13.000Z</time>
        <extensions>
          <ns3:TrackPointExtension>
            <ns3:atemp>23.0</ns3:atemp>
          </ns3:TrackPointExtension>
        </extensions>
      </trkpt>
      <trkpt lat="46.802503131330013275146484375" lon="6.8968899361789226531982421875">
        <ele>399.600006103515625</ele>
        <time>2013-09-01T14:05:14.000Z</time>
        <extensions>
          <ns3:TrackPointExtension>
            <ns3:atemp>23.0</ns3:atemp>
          </ns3:TrackPointExtension>
        </extensions>
      </trkpt>
      <trkpt lat="46.802502460777759552001953125" lon="6.8968349508941173553466796875">
        <ele>399.600006103515625</ele>
        <time>2013-09-01T14:05:15.000Z</time>
        <extensions>
          <ns3:TrackPointExtension>
            <ns3:atemp>23.0</ns3:atemp>
          </ns3:TrackPointExtension>
        </extensions>
      </trkpt>
      <trkpt lat="46.80249835364520549774169921875" lon="6.89677870832383632659912109375">
        <ele>399.79998779296875</ele>
        <time>2013-09-01T14:05:16.000Z</time>
        <extensions>
          <ns3:TrackPointExtension>
            <ns3:atemp>23.0</ns3:atemp>
          </ns3:TrackPointExtension>
        </extensions>
      </trkpt>
      <trkpt lat="46.8024940788745880126953125" lon="6.89672456122934818267822265625">
        <ele>400</ele>
        <time>2013-09-01T14:05:17.000Z</time>
        <extensions>
          <ns3:TrackPointExtension>
            <ns3:atemp>23.0</ns3:atemp>
          </ns3:TrackPointExtension>
        </extensions>
      </trkpt>
      <trkpt lat="46.8024902231991291046142578125" lon="6.89667091704905033111572265625">
        <ele>400.20001220703125</ele>
        <time>2013-09-01T14:05:18.000Z</time>
        <extensions>
          <ns3:TrackPointExtension>
            <ns3:atemp>23.0</ns3:atemp>
          </ns3:TrackPointExtension>
        </extensions>
      </trkpt>
      <trkpt lat="46.80248443968594074249267578125" lon="6.89661760814487934112548828125">
        <ele>400.399993896484375</ele>
        <time>2013-09-01T14:05:19.000Z</time>
        <extensions>
          <ns3:TrackPointExtension>
            <ns3:atemp>23.0</ns3:atemp>
          </ns3:TrackPointExtension>
        </extensions>
      </trkpt>
      <trkpt lat="46.80247840471565723419189453125" lon="6.89656211994588375091552734375">
        <ele>400.600006103515625</ele>
        <time>2013-09-01T14:05:20.000Z</time>
        <extensions>
          <ns3:TrackPointExtension>
            <ns3:atemp>23.0</ns3:atemp>
          </ns3:TrackPointExtension>
        </extensions>
      </trkpt>
      <trkpt lat="46.8024704419076442718505859375" lon="6.89650579355657100677490234375">
        <ele>400.600006103515625</ele>
        <time>2013-09-01T14:05:21.000Z</time>
        <extensions>
          <ns3:TrackPointExtension>
            <ns3:atemp>23.0</ns3:atemp>
          </ns3:TrackPointExtension>
        </extensions>
      </trkpt>
      <trkpt lat="46.80246281437575817108154296875" lon="6.896448545157909393310546875">
        <ele>400.79998779296875</ele>
        <time>2013-09-01T14:05:22.000Z</time>
        <extensions>
          <ns3:TrackPointExtension>
            <ns3:atemp>23.0</ns3:atemp>
          </ns3:TrackPointExtension>
        </extensions>
      </trkpt>
      <trkpt lat="46.80245376192033290863037109375" lon="6.8963940627872943878173828125">
        <ele>401</ele>
        <time>2013-09-01T14:05:23.000Z</time>
        <extensions>
          <ns3:TrackPointExtension>
            <ns3:atemp>23.0</ns3:atemp>
          </ns3:TrackPointExtension>
        </extensions>
      </trkpt>
      <trkpt lat="46.80244571529328823089599609375" lon="6.89634117297828197479248046875">
        <ele>401.20001220703125</ele>
        <time>2013-09-01T14:05:24.000Z</time>
        <extensions>
          <ns3:TrackPointExtension>
            <ns3:atemp>23.0</ns3:atemp>
          </ns3:TrackPointExtension>
        </extensions>
      </trkpt>
      <trkpt lat="46.80243750102818012237548828125" lon="6.89628652296960353851318359375">
        <ele>401.399993896484375</ele>
        <time>2013-09-01T14:05:25.000Z</time>
        <extensions>
          <ns3:TrackPointExtension>
            <ns3:atemp>23.0</ns3:atemp>
          </ns3:TrackPointExtension>
        </extensions>
      </trkpt>
      <trkpt lat="46.8024281971156597137451171875" lon="6.89623304642736911773681640625">
        <ele>401.20001220703125</ele>
        <time>2013-09-01T14:05:26.000Z</time>
        <extensions>
          <ns3:TrackPointExtension>
            <ns3:atemp>23.0</ns3:atemp>
          </ns3:TrackPointExtension>
        </extensions>
      </trkpt>
      <trkpt lat="46.8024194799363613128662109375" lon="6.896183006465435028076171875">
        <ele>401.399993896484375</ele>
        <time>2013-09-01T14:05:27.000Z</time>
        <extensions>
          <ns3:TrackPointExtension>
            <ns3:atemp>23.0</ns3:atemp>
          </ns3:TrackPointExtension>
        </extensions>
      </trkpt>
      <trkpt lat="46.8024104274809360504150390625" lon="6.8961318768560886383056640625">
        <ele>401.600006103515625</ele>
        <time>2013-09-01T14:05:28.000Z</time>
        <extensions>
          <ns3:TrackPointExtension>
            <ns3:atemp>23.0</ns3:atemp>
          </ns3:TrackPointExtension>
        </extensions>
      </trkpt>
      <trkpt lat="46.80240129120647907257080078125" lon="6.896078400313854217529296875">
        <ele>401.79998779296875</ele>
        <time>2013-09-01T14:05:29.000Z</time>
        <extensions>
          <ns3:TrackPointExtension>
            <ns3:atemp>23.0</ns3:atemp>
          </ns3:TrackPointExtension>
        </extensions>
      </trkpt>
      <trkpt lat="46.80239106528460979461669921875" lon="6.8960232473909854888916015625">
        <ele>402</ele>
        <time>2013-09-01T14:05:30.000Z</time>
        <extensions>
          <ns3:TrackPointExtension>
            <ns3:atemp>23.0</ns3:atemp>
          </ns3:TrackPointExtension>
        </extensions>
      </trkpt>
      <trkpt lat="46.802379749715328216552734375" lon="6.89596750773489475250244140625">
        <ele>402.20001220703125</ele>
        <time>2013-09-01T14:05:31.000Z</time>
        <extensions>
          <ns3:TrackPointExtension>
            <ns3:atemp>23.0</ns3:atemp>
          </ns3:TrackPointExtension>
        </extensions>
      </trkpt>
      <trkpt lat="46.802366673946380615234375" lon="6.89591176807880401611328125">
        <ele>402.399993896484375</ele>
        <time>2013-09-01T14:05:32.000Z</time>
        <extensions>
          <ns3:TrackPointExtension>
            <ns3:atemp>23.0</ns3:atemp>
          </ns3:TrackPointExtension>
        </extensions>
      </trkpt>
      <trkpt lat="46.8023534305393695831298828125" lon="6.89586038701236248016357421875">
        <ele>402.79998779296875</ele>
        <time>2013-09-01T14:05:33.000Z</time>
        <extensions>
          <ns3:TrackPointExtension>
            <ns3:atemp>23.0</ns3:atemp>
          </ns3:TrackPointExtension>
        </extensions>
      </trkpt>
      <trkpt lat="46.80234228260815143585205078125" lon="6.89580976031720638275146484375">
        <ele>403</ele>
        <time>2013-09-01T14:05:34.000Z</time>
        <extensions>
          <ns3:TrackPointExtension>
            <ns3:atemp>23.0</ns3:atemp>
          </ns3:TrackPointExtension>
        </extensions>
      </trkpt>
      <trkpt lat="46.80233188904821872711181640625" lon="6.89575846306979656219482421875">
        <ele>403.399993896484375</ele>
        <time>2013-09-01T14:05:35.000Z</time>
        <extensions>
          <ns3:TrackPointExtension>
            <ns3:atemp>23.0</ns3:atemp>
          </ns3:TrackPointExtension>
        </extensions>
      </trkpt>
      <trkpt lat="46.80232199840247631072998046875" lon="6.89571102149784564971923828125">
        <ele>403.600006103515625</ele>
        <time>2013-09-01T14:05:36.000Z</time>
        <extensions>
          <ns3:TrackPointExtension>
            <ns3:atemp>23.0</ns3:atemp>
          </ns3:TrackPointExtension>
        </extensions>
      </trkpt>
      <trkpt lat="46.8023138679563999176025390625" lon="6.895667016506195068359375">
        <ele>404</ele>
        <time>2013-09-01T14:05:37.000Z</time>
        <extensions>
          <ns3:TrackPointExtension>
            <ns3:atemp>23.0</ns3:atemp>
          </ns3:TrackPointExtension>
        </extensions>
      </trkpt>
      <trkpt lat="46.8023121915757656097412109375" lon="6.8956239335238933563232421875">
        <ele>404.399993896484375</ele>
        <time>2013-09-01T14:05:38.000Z</time>
        <extensions>
          <ns3:TrackPointExtension>
            <ns3:atemp>23.0</ns3:atemp>
          </ns3:TrackPointExtension>
        </extensions>
      </trkpt>
      <trkpt lat="46.80230942554771900177001953125" lon="6.89558110199868679046630859375">
        <ele>404.600006103515625</ele>
        <time>2013-09-01T14:05:39.000Z</time>
        <extensions>
          <ns3:TrackPointExtension>
            <ns3:atemp>23.0</ns3:atemp>
          </ns3:TrackPointExtension>
        </extensions>
      </trkpt>
      <trkpt lat="46.80230456404387950897216796875" lon="6.895539946854114532470703125">
        <ele>404.79998779296875</ele>
        <time>2013-09-01T14:05:40.000Z</time>
        <extensions>
          <ns3:TrackPointExtension>
            <ns3:atemp>23.0</ns3:atemp>
          </ns3:TrackPointExtension>
        </extensions>
      </trkpt>
      <trkpt lat="46.80229567922651767730712890625" lon="6.89549879170954227447509765625">
        <ele>405</ele>
        <time>2013-09-01T14:05:41.000Z</time>
        <extensions>
          <ns3:TrackPointExtension>
            <ns3:atemp>23.0</ns3:atemp>
          </ns3:TrackPointExtension>
        </extensions>
      </trkpt>
      <trkpt lat="46.80228545330464839935302734375" lon="6.895456127822399139404296875">
        <ele>405</ele>
        <time>2013-09-01T14:05:42.000Z</time>
        <extensions>
          <ns3:TrackPointExtension>
            <ns3:atemp>23.0</ns3:atemp>
          </ns3:TrackPointExtension>
        </extensions>
      </trkpt>
      <trkpt lat="46.8022759817540645599365234375" lon="6.895413212478160858154296875">
        <ele>405.20001220703125</ele>
        <time>2013-09-01T14:05:43.000Z</time>
        <extensions>
          <ns3:TrackPointExtension>
            <ns3:atemp>23.0</ns3:atemp>
          </ns3:TrackPointExtension>
        </extensions>
      </trkpt>
      <trkpt lat="46.8022649176418781280517578125" lon="6.89537440426647663116455078125">
        <ele>405.399993896484375</ele>
        <time>2013-09-01T14:05:44.000Z</time>
        <extensions>
          <ns3:TrackPointExtension>
            <ns3:atemp>23.0</ns3:atemp>
          </ns3:TrackPointExtension>
        </extensions>
      </trkpt>
      <trkpt lat="46.80225376971065998077392578125" lon="6.895337440073490142822265625">
        <ele>405.600006103515625</ele>
        <time>2013-09-01T14:05:45.000Z</time>
        <extensions>
          <ns3:TrackPointExtension>
            <ns3:atemp>23.0</ns3:atemp>
          </ns3:TrackPointExtension>
        </extensions>
      </trkpt>
      <trkpt lat="46.80224153213202953338623046875" lon="6.8953008949756622314453125">
        <ele>405.79998779296875</ele>
        <time>2013-09-01T14:05:46.000Z</time>
        <extensions>
          <ns3:TrackPointExtension>
            <ns3:atemp>23.0</ns3:atemp>
          </ns3:TrackPointExtension>
        </extensions>
      </trkpt>
      <trkpt lat="46.80222979746758937835693359375" lon="6.89526074565947055816650390625">
        <ele>406</ele>
        <time>2013-09-01T14:05:47.000Z</time>
        <extensions>
          <ns3:TrackPointExtension>
            <ns3:atemp>23.0</ns3:atemp>
          </ns3:TrackPointExtension>
        </extensions>
      </trkpt>
      <trkpt lat="46.80221982300281524658203125" lon="6.89522151835262775421142578125">
        <ele>406.20001220703125</ele>
        <time>2013-09-01T14:05:48.000Z</time>
        <extensions>
          <ns3:TrackPointExtension>
            <ns3:atemp>23.0</ns3:atemp>
          </ns3:TrackPointExtension>
        </extensions>
      </trkpt>
      <trkpt lat="46.80221068672835826873779296875" lon="6.89518027938902378082275390625">
        <ele>406.399993896484375</ele>
        <time>2013-09-01T14:05:49.000Z</time>
        <extensions>
          <ns3:TrackPointExtension>
            <ns3:atemp>23.0</ns3:atemp>
          </ns3:TrackPointExtension>
        </extensions>
      </trkpt>
      <trkpt lat="46.802200376987457275390625" lon="6.8951401300728321075439453125">
        <ele>406.79998779296875</ele>
        <time>2013-09-01T14:05:50.000Z</time>
        <extensions>
          <ns3:TrackPointExtension>
            <ns3:atemp>23.0</ns3:atemp>
          </ns3:TrackPointExtension>
        </extensions>
      </trkpt>
      <trkpt lat="46.80219241417944431304931640625" lon="6.8951005674898624420166015625">
        <ele>407</ele>
        <time>2013-09-01T14:05:51.000Z</time>
        <extensions>
          <ns3:TrackPointExtension>
            <ns3:atemp>23.0</ns3:atemp>
          </ns3:TrackPointExtension>
        </extensions>
      </trkpt>
      <trkpt lat="46.80218084715306758880615234375" lon="6.895063184201717376708984375">
        <ele>407</ele>
        <time>2013-09-01T14:05:52.000Z</time>
        <extensions>
          <ns3:TrackPointExtension>
            <ns3:atemp>23.0</ns3:atemp>
          </ns3:TrackPointExtension>
        </extensions>
      </trkpt>
      <trkpt lat="46.8021717108786106109619140625" lon="6.8950251303613185882568359375">
        <ele>407.399993896484375</ele>
        <time>2013-09-01T14:05:53.000Z</time>
        <extensions>
          <ns3:TrackPointExtension>
            <ns3:atemp>23.0</ns3:atemp>
          </ns3:TrackPointExtension>
        </extensions>
      </trkpt>
      <trkpt lat="46.80216425098478794097900390625" lon="6.8949870765209197998046875">
        <ele>407.600006103515625</ele>
        <time>2013-09-01T14:05:54.000Z</time>
        <extensions>
          <ns3:TrackPointExtension>
            <ns3:atemp>23.0</ns3:atemp>
          </ns3:TrackPointExtension>
        </extensions>
      </trkpt>
      <trkpt lat="46.8021569587290287017822265625" lon="6.89495078288018703460693359375">
        <ele>408</ele>
        <time>2013-09-01T14:05:55.000Z</time>
        <extensions>
          <ns3:TrackPointExtension>
            <ns3:atemp>23.0</ns3:atemp>
          </ns3:TrackPointExtension>
        </extensions>
      </trkpt>
      <trkpt lat="46.8021509237587451934814453125" lon="6.894915662705898284912109375">
        <ele>408.20001220703125</ele>
        <time>2013-09-01T14:05:56.000Z</time>
        <extensions>
          <ns3:TrackPointExtension>
            <ns3:atemp>23.0</ns3:atemp>
          </ns3:TrackPointExtension>
        </extensions>
      </trkpt>
      <trkpt lat="46.802152432501316070556640625" lon="6.89488993026316165924072265625">
        <ele>408.600006103515625</ele>
        <time>2013-09-01T14:05:57.000Z</time>
        <extensions>
          <ns3:TrackPointExtension>
            <ns3:atemp>23.0</ns3:atemp>
          </ns3:TrackPointExtension>
        </extensions>
      </trkpt>
      <trkpt lat="46.80215402506291866302490234375" lon="6.89486344344913959503173828125">
        <ele>408.79998779296875</ele>
        <time>2013-09-01T14:05:58.000Z</time>
        <extensions>
          <ns3:TrackPointExtension>
            <ns3:atemp>23.0</ns3:atemp>
          </ns3:TrackPointExtension>
        </extensions>
      </trkpt>
      <trkpt lat="46.802151761949062347412109375" lon="6.8948269821703433990478515625">
        <ele>409.20001220703125</ele>
        <time>2013-09-01T14:05:59.000Z</time>
        <extensions>
          <ns3:TrackPointExtension>
            <ns3:atemp>23.0</ns3:atemp>
          </ns3:TrackPointExtension>
        </extensions>
      </trkpt>
      <trkpt lat="46.80214799009263515472412109375" lon="6.8947864137589931488037109375">
        <ele>409.600006103515625</ele>
        <time>2013-09-01T14:06:00.000Z</time>
        <extensions>
          <ns3:TrackPointExtension>
            <ns3:atemp>23.0</ns3:atemp>
          </ns3:TrackPointExtension>
        </extensions>
      </trkpt>
      <trkpt lat="46.802141033113002777099609375" lon="6.894746683537960052490234375">
        <ele>410</ele>
        <time>2013-09-01T14:06:01.000Z</time>
        <extensions>
          <ns3:TrackPointExtension>
            <ns3:atemp>23.0</ns3:atemp>
          </ns3:TrackPointExtension>
        </extensions>
      </trkpt>
      <trkpt lat="46.80213172920048236846923828125" lon="6.89470343291759490966796875">
        <ele>410.20001220703125</ele>
        <time>2013-09-01T14:06:02.000Z</time>
        <extensions>
          <ns3:TrackPointExtension>
            <ns3:atemp>23.0</ns3:atemp>
          </ns3:TrackPointExtension>
        </extensions>
      </trkpt>
      <trkpt lat="46.80212351493537425994873046875" lon="6.8946640379726886749267578125">
        <ele>410.399993896484375</ele>
        <time>2013-09-01T14:06:03.000Z</time>
        <extensions>
          <ns3:TrackPointExtension>
            <ns3:atemp>23.0</ns3:atemp>
          </ns3:TrackPointExtension>
        </extensions>
      </trkpt>
      <trkpt lat="46.80211655795574188232421875" lon="6.8946231342852115631103515625">
        <ele>410.79998779296875</ele>
        <time>2013-09-01T14:06:04.000Z</time>
        <extensions>
          <ns3:TrackPointExtension>
            <ns3:atemp>23.0</ns3:atemp>
          </ns3:TrackPointExtension>
        </extensions>
      </trkpt>
      <trkpt lat="46.80210985243320465087890625" lon="6.89458147622644901275634765625">
        <ele>411.20001220703125</ele>
        <time>2013-09-01T14:06:05.000Z</time>
        <extensions>
          <ns3:TrackPointExtension>
            <ns3:atemp>23.0</ns3:atemp>
          </ns3:TrackPointExtension>
        </extensions>
      </trkpt>
      <trkpt lat="46.802102811634540557861328125" lon="6.89454124309122562408447265625">
        <ele>411.20001220703125</ele>
        <time>2013-09-01T14:06:06.000Z</time>
        <extensions>
          <ns3:TrackPointExtension>
            <ns3:atemp>23.0</ns3:atemp>
          </ns3:TrackPointExtension>
        </extensions>
      </trkpt>
      <trkpt lat="46.80209702812135219573974609375" lon="6.89450017176568508148193359375">
        <ele>411.399993896484375</ele>
        <time>2013-09-01T14:06:07.000Z</time>
        <extensions>
          <ns3:TrackPointExtension>
            <ns3:atemp>23.0</ns3:atemp>
          </ns3:TrackPointExtension>
        </extensions>
      </trkpt>
      <trkpt lat="46.80209015496075153350830078125" lon="6.8944586813449859619140625">
        <ele>411.600006103515625</ele>
        <time>2013-09-01T14:06:08.000Z</time>
        <extensions>
          <ns3:TrackPointExtension>
            <ns3:atemp>23.0</ns3:atemp>
          </ns3:TrackPointExtension>
        </extensions>
      </trkpt>
      <trkpt lat="46.8020818568766117095947265625" lon="6.89441752620041370391845703125">
        <ele>411.79998779296875</ele>
        <time>2013-09-01T14:06:09.000Z</time>
        <extensions>
          <ns3:TrackPointExtension>
            <ns3:atemp>23.0</ns3:atemp>
          </ns3:TrackPointExtension>
        </extensions>
      </trkpt>
      <trkpt lat="46.802072636783123016357421875" lon="6.89437578432261943817138671875">
        <ele>412</ele>
        <time>2013-09-01T14:06:10.000Z</time>
        <extensions>
          <ns3:TrackPointExtension>
            <ns3:atemp>23.0</ns3:atemp>
          </ns3:TrackPointExtension>
        </extensions>
      </trkpt>
      <trkpt lat="46.80206366814672946929931640625" lon="6.89433404244482517242431640625">
        <ele>412.20001220703125</ele>
        <time>2013-09-01T14:06:11.000Z</time>
        <extensions>
          <ns3:TrackPointExtension>
            <ns3:atemp>23.0</ns3:atemp>
          </ns3:TrackPointExtension>
        </extensions>
      </trkpt>
      <trkpt lat="46.80205595679581165313720703125" lon="6.894292719662189483642578125">
        <ele>412.399993896484375</ele>
        <time>2013-09-01T14:06:12.000Z</time>
        <extensions>
          <ns3:TrackPointExtension>
            <ns3:atemp>23.0</ns3:atemp>
          </ns3:TrackPointExtension>
        </extensions>
      </trkpt>
      <trkpt lat="46.80204816162586212158203125" lon="6.89425106160342693328857421875">
        <ele>412.600006103515625</ele>
        <time>2013-09-01T14:06:13.000Z</time>
        <extensions>
          <ns3:TrackPointExtension>
            <ns3:atemp>23.0</ns3:atemp>
          </ns3:TrackPointExtension>
        </extensions>
      </trkpt>
      <trkpt lat="46.80203701369464397430419921875" lon="6.89421250484883785247802734375">
        <ele>413</ele>
        <time>2013-09-01T14:06:14.000Z</time>
        <extensions>
          <ns3:TrackPointExtension>
            <ns3:atemp>23.0</ns3:atemp>
          </ns3:TrackPointExtension>
        </extensions>
      </trkpt>
      <trkpt lat="46.80202812887728214263916015625" lon="6.89417227171361446380615234375">
        <ele>413.399993896484375</ele>
        <time>2013-09-01T14:06:15.000Z</time>
        <extensions>
          <ns3:TrackPointExtension>
            <ns3:atemp>23.0</ns3:atemp>
          </ns3:TrackPointExtension>
        </extensions>
      </trkpt>
      <trkpt lat="46.80202326737344264984130859375" lon="6.894133128225803375244140625">
        <ele>413.600006103515625</ele>
        <time>2013-09-01T14:06:16.000Z</time>
        <extensions>
          <ns3:TrackPointExtension>
            <ns3:atemp>23.0</ns3:atemp>
          </ns3:TrackPointExtension>
        </extensions>
      </trkpt>
      <trkpt lat="46.8020171485841274261474609375" lon="6.8940954096615314483642578125">
        <ele>413.79998779296875</ele>
        <time>2013-09-01T14:06:17.000Z</time>
        <extensions>
          <ns3:TrackPointExtension>
            <ns3:atemp>23.0</ns3:atemp>
          </ns3:TrackPointExtension>
        </extensions>
      </trkpt>
      <trkpt lat="46.80200952105224132537841796875" lon="6.8940575234591960906982421875">
        <ele>413.79998779296875</ele>
        <time>2013-09-01T14:06:18.000Z</time>
        <extensions>
          <ns3:TrackPointExtension>
            <ns3:atemp>23.0</ns3:atemp>
          </ns3:TrackPointExtension>
        </extensions>
      </trkpt>
      <trkpt lat="46.80200164206326007843017578125" lon="6.894017122685909271240234375">
        <ele>413.79998779296875</ele>
        <time>2013-09-01T14:06:19.000Z</time>
        <extensions>
          <ns3:TrackPointExtension>
            <ns3:atemp>23.0</ns3:atemp>
          </ns3:TrackPointExtension>
        </extensions>
      </trkpt>
      <trkpt lat="46.8019946850836277008056640625" lon="6.89397512935101985931396484375">
        <ele>414</ele>
        <time>2013-09-01T14:06:20.000Z</time>
        <extensions>
          <ns3:TrackPointExtension>
            <ns3:atemp>23.0</ns3:atemp>
          </ns3:TrackPointExtension>
        </extensions>
      </trkpt>
      <trkpt lat="46.80198873393237590789794921875" lon="6.89393355511128902435302734375">
        <ele>414</ele>
        <time>2013-09-01T14:06:21.000Z</time>
        <extensions>
          <ns3:TrackPointExtension>
            <ns3:atemp>23.0</ns3:atemp>
          </ns3:TrackPointExtension>
        </extensions>
      </trkpt>
      <trkpt lat="46.80197984911501407623291015625" lon="6.893893741071224212646484375">
        <ele>414.20001220703125</ele>
        <time>2013-09-01T14:06:22.000Z</time>
        <extensions>
          <ns3:TrackPointExtension>
            <ns3:atemp>23.0</ns3:atemp>
          </ns3:TrackPointExtension>
        </extensions>
      </trkpt>
      <trkpt lat="46.80197129957377910614013671875" lon="6.89385023899376392364501953125">
        <ele>414.399993896484375</ele>
        <time>2013-09-01T14:06:23.000Z</time>
        <extensions>
          <ns3:TrackPointExtension>
            <ns3:atemp>23.0</ns3:atemp>
          </ns3:TrackPointExtension>
        </extensions>
      </trkpt>
      <trkpt lat="46.8019624985754489898681640625" lon="6.8938028812408447265625">
        <ele>414.399993896484375</ele>
        <time>2013-09-01T14:06:24.000Z</time>
        <extensions>
          <ns3:TrackPointExtension>
            <ns3:atemp>23.0</ns3:atemp>
          </ns3:TrackPointExtension>
        </extensions>
      </trkpt>
      <trkpt lat="46.80195721797645092010498046875" lon="6.89375485293567180633544921875">
        <ele>414.600006103515625</ele>
        <time>2013-09-01T14:06:25.000Z</time>
        <extensions>
          <ns3:TrackPointExtension>
            <ns3:atemp>23.0</ns3:atemp>
          </ns3:TrackPointExtension>
        </extensions>
      </trkpt>
      <trkpt lat="46.80194900371134281158447265625" lon="6.89371059648692607879638671875">
        <ele>414.600006103515625</ele>
        <time>2013-09-01T14:06:26.000Z</time>
        <extensions>
          <ns3:TrackPointExtension>
            <ns3:atemp>23.0</ns3:atemp>
          </ns3:TrackPointExtension>
        </extensions>
      </trkpt>
      <trkpt lat="46.80194145999848842620849609375" lon="6.89366717822849750518798828125">
        <ele>414.600006103515625</ele>
        <time>2013-09-01T14:06:27.000Z</time>
        <extensions>
          <ns3:TrackPointExtension>
            <ns3:atemp>23.0</ns3:atemp>
          </ns3:TrackPointExtension>
        </extensions>
      </trkpt>
      <trkpt lat="46.8019343353807926177978515625" lon="6.893623173236846923828125">
        <ele>414.600006103515625</ele>
        <time>2013-09-01T14:06:28.000Z</time>
        <extensions>
          <ns3:TrackPointExtension>
            <ns3:atemp>23.0</ns3:atemp>
          </ns3:TrackPointExtension>
        </extensions>
      </trkpt>
      <trkpt lat="46.8019272945821285247802734375" lon="6.89357900060713291168212890625">
        <ele>414.600006103515625</ele>
        <time>2013-09-01T14:06:29.000Z</time>
        <extensions>
          <ns3:TrackPointExtension>
            <ns3:atemp>23.0</ns3:atemp>
          </ns3:TrackPointExtension>
        </extensions>
      </trkpt>
      <trkpt lat="46.8019175715744495391845703125" lon="6.893537677824497222900390625">
        <ele>414.600006103515625</ele>
        <time>2013-09-01T14:06:30.000Z</time>
        <extensions>
          <ns3:TrackPointExtension>
            <ns3:atemp>23.0</ns3:atemp>
          </ns3:TrackPointExtension>
        </extensions>
      </trkpt>
      <trkpt lat="46.80190474726259708404541015625" lon="6.89349048770964145660400390625">
        <ele>414.79998779296875</ele>
        <time>2013-09-01T14:06:31.000Z</time>
        <extensions>
          <ns3:TrackPointExtension>
            <ns3:atemp>23.0</ns3:atemp>
          </ns3:TrackPointExtension>
        </extensions>
      </trkpt>
      <trkpt lat="46.8018932640552520751953125" lon="6.89344120211899280548095703125">
        <ele>415</ele>
        <time>2013-09-01T14:06:32.000Z</time>
        <extensions>
          <ns3:TrackPointExtension>
            <ns3:atemp>23.0</ns3:atemp>
          </ns3:TrackPointExtension>
        </extensions>
      </trkpt>
      <trkpt lat="46.80188077501952648162841796875" lon="6.89339174889028072357177734375">
        <ele>415.20001220703125</ele>
        <time>2013-09-01T14:06:33.000Z</time>
        <extensions>
          <ns3:TrackPointExtension>
            <ns3:atemp>23.0</ns3:atemp>
          </ns3:TrackPointExtension>
        </extensions>
      </trkpt>
      <trkpt lat="46.80187046527862548828125" lon="6.8933430500328540802001953125">
        <ele>415.399993896484375</ele>
        <time>2013-09-01T14:06:34.000Z</time>
        <extensions>
          <ns3:TrackPointExtension>
            <ns3:atemp>23.0</ns3:atemp>
          </ns3:TrackPointExtension>
        </extensions>
      </trkpt>
      <trkpt lat="46.80185998789966106414794921875" lon="6.89329183660447597503662109375">
        <ele>415.399993896484375</ele>
        <time>2013-09-01T14:06:35.000Z</time>
        <extensions>
          <ns3:TrackPointExtension>
            <ns3:atemp>23.0</ns3:atemp>
          </ns3:TrackPointExtension>
        </extensions>
      </trkpt>
      <trkpt lat="46.80184942670166492462158203125" lon="6.89323986880481243133544921875">
        <ele>415.600006103515625</ele>
        <time>2013-09-01T14:06:36.000Z</time>
        <extensions>
          <ns3:TrackPointExtension>
            <ns3:atemp>23.0</ns3:atemp>
          </ns3:TrackPointExtension>
        </extensions>
      </trkpt>
      <trkpt lat="46.80184029042720794677734375" lon="6.89318622462451457977294921875">
        <ele>415.79998779296875</ele>
        <time>2013-09-01T14:06:37.000Z</time>
        <extensions>
          <ns3:TrackPointExtension>
            <ns3:atemp>23.0</ns3:atemp>
          </ns3:TrackPointExtension>
        </extensions>
      </trkpt>
      <trkpt lat="46.8018342554569244384765625" lon="6.89313308335840702056884765625">
        <ele>415.79998779296875</ele>
        <time>2013-09-01T14:06:38.000Z</time>
        <extensions>
          <ns3:TrackPointExtension>
            <ns3:atemp>23.0</ns3:atemp>
          </ns3:TrackPointExtension>
        </extensions>
      </trkpt>
      <trkpt lat="46.80182813666760921478271484375" lon="6.89308069646358489990234375">
        <ele>416</ele>
        <time>2013-09-01T14:06:39.000Z</time>
        <extensions>
          <ns3:TrackPointExtension>
            <ns3:atemp>23.0</ns3:atemp>
          </ns3:TrackPointExtension>
        </extensions>
      </trkpt>
      <trkpt lat="46.80182025767862796783447265625" lon="6.89302998594939708709716796875">
        <ele>416</ele>
        <time>2013-09-01T14:06:40.000Z</time>
        <extensions>
          <ns3:TrackPointExtension>
            <ns3:atemp>23.0</ns3:atemp>
          </ns3:TrackPointExtension>
        </extensions>
      </trkpt>
      <trkpt lat="46.8018119595944881439208984375" lon="6.8929786048829555511474609375">
        <ele>416</ele>
        <time>2013-09-01T14:06:41.000Z</time>
        <extensions>
          <ns3:TrackPointExtension>
            <ns3:atemp>23.0</ns3:atemp>
          </ns3:TrackPointExtension>
        </extensions>
      </trkpt>
      <trkpt lat="46.80180567316710948944091796875" lon="6.892926134169101715087890625">
        <ele>416.20001220703125</ele>
        <time>2013-09-01T14:06:42.000Z</time>
        <extensions>
          <ns3:TrackPointExtension>
            <ns3:atemp>23.0</ns3:atemp>
          </ns3:TrackPointExtension>
        </extensions>
      </trkpt>
      <trkpt lat="46.801802404224872589111328125" lon="6.8928716517984867095947265625">
        <ele>416.399993896484375</ele>
        <time>2013-09-01T14:06:43.000Z</time>
        <extensions>
          <ns3:TrackPointExtension>
            <ns3:atemp>23.0</ns3:atemp>
          </ns3:TrackPointExtension>
        </extensions>
      </trkpt>
      <trkpt lat="46.8018008954823017120361328125" lon="6.89281624741852283477783203125">
        <ele>416.600006103515625</ele>
        <time>2013-09-01T14:06:44.000Z</time>
        <extensions>
          <ns3:TrackPointExtension>
            <ns3:atemp>23.0</ns3:atemp>
          </ns3:TrackPointExtension>
        </extensions>
      </trkpt>
      <trkpt lat="46.8017995543777942657470703125" lon="6.89275757409632205963134765625">
        <ele>416.79998779296875</ele>
        <time>2013-09-01T14:06:45.000Z</time>
        <extensions>
          <ns3:TrackPointExtension>
            <ns3:atemp>23.0</ns3:atemp>
          </ns3:TrackPointExtension>
        </extensions>
      </trkpt>
      <trkpt lat="46.8017958663403987884521484375" lon="6.8926969729363918304443359375">
        <ele>417</ele>
        <time>2013-09-01T14:06:46.000Z</time>
        <extensions>
          <ns3:TrackPointExtension>
            <ns3:atemp>23.0</ns3:atemp>
          </ns3:TrackPointExtension>
        </extensions>
      </trkpt>
      <trkpt lat="46.8017931841313838958740234375" lon="6.89263704232871532440185546875">
        <ele>417.20001220703125</ele>
        <time>2013-09-01T14:06:47.000Z</time>
        <extensions>
          <ns3:TrackPointExtension>
            <ns3:atemp>23.0</ns3:atemp>
          </ns3:TrackPointExtension>
        </extensions>
      </trkpt>
      <trkpt lat="46.80179159156978130340576171875" lon="6.89257401041686534881591796875">
        <ele>417.20001220703125</ele>
        <time>2013-09-01T14:06:48.000Z</time>
        <extensions>
          <ns3:TrackPointExtension>
            <ns3:atemp>23.0</ns3:atemp>
          </ns3:TrackPointExtension>
        </extensions>
      </trkpt>
      <trkpt lat="46.80179025046527385711669921875" lon="6.8925092183053493499755859375">
        <ele>417.20001220703125</ele>
        <time>2013-09-01T14:06:49.000Z</time>
        <extensions>
          <ns3:TrackPointExtension>
            <ns3:atemp>23.0</ns3:atemp>
          </ns3:TrackPointExtension>
        </extensions>
      </trkpt>
      <trkpt lat="46.80178932845592498779296875" lon="6.8924418278038501739501953125">
        <ele>417.399993896484375</ele>
        <time>2013-09-01T14:06:50.000Z</time>
        <extensions>
          <ns3:TrackPointExtension>
            <ns3:atemp>23.0</ns3:atemp>
          </ns3:TrackPointExtension>
        </extensions>
      </trkpt>
      <trkpt lat="46.80178790353238582611083984375" lon="6.89237167127430438995361328125">
        <ele>417.79998779296875</ele>
        <time>2013-09-01T14:06:51.000Z</time>
        <extensions>
          <ns3:TrackPointExtension>
            <ns3:atemp>23.0</ns3:atemp>
          </ns3:TrackPointExtension>
        </extensions>
      </trkpt>
      <trkpt lat="46.80178823880851268768310546875" lon="6.8923053704202175140380859375">
        <ele>418</ele>
        <time>2013-09-01T14:06:52.000Z</time>
        <extensions>
          <ns3:TrackPointExtension>
            <ns3:atemp>23.0</ns3:atemp>
          </ns3:TrackPointExtension>
        </extensions>
      </trkpt>
      <trkpt lat="46.8017861433327198028564453125" lon="6.89223621971905231475830078125">
        <ele>417.79998779296875</ele>
        <time>2013-09-01T14:06:53.000Z</time>
        <extensions>
          <ns3:TrackPointExtension>
            <ns3:atemp>23.0</ns3:atemp>
          </ns3:TrackPointExtension>
        </extensions>
      </trkpt>
      <trkpt lat="46.801782287657260894775390625" lon="6.892163716256618499755859375">
        <ele>417.600006103515625</ele>
        <time>2013-09-01T14:06:54.000Z</time>
        <extensions>
          <ns3:TrackPointExtension>
            <ns3:atemp>23.0</ns3:atemp>
          </ns3:TrackPointExtension>
        </extensions>
      </trkpt>
      <trkpt lat="46.80177583359181880950927734375" lon="6.89208752475678920745849609375">
        <ele>417.600006103515625</ele>
        <time>2013-09-01T14:06:55.000Z</time>
        <extensions>
          <ns3:TrackPointExtension>
            <ns3:atemp>23.0</ns3:atemp>
          </ns3:TrackPointExtension>
        </extensions>
      </trkpt>
      <trkpt lat="46.8017683736979961395263671875" lon="6.89200940541923046112060546875">
        <ele>417.79998779296875</ele>
        <time>2013-09-01T14:06:56.000Z</time>
        <extensions>
          <ns3:TrackPointExtension>
            <ns3:atemp>23.0</ns3:atemp>
          </ns3:TrackPointExtension>
        </extensions>
      </trkpt>
      <trkpt lat="46.801758818328380584716796875" lon="6.89192675985395908355712890625">
        <ele>418.20001220703125</ele>
        <time>2013-09-01T14:06:57.000Z</time>
        <extensions>
          <ns3:TrackPointExtension>
            <ns3:atemp>23.0</ns3:atemp>
          </ns3:TrackPointExtension>
        </extensions>
      </trkpt>
      <trkpt lat="46.80174381472170352935791015625" lon="6.891839168965816497802734375">
        <ele>418</ele>
        <time>2013-09-01T14:06:58.000Z</time>
        <extensions>
          <ns3:TrackPointExtension>
            <ns3:atemp>23.0</ns3:atemp>
          </ns3:TrackPointExtension>
        </extensions>
      </trkpt>
      <trkpt lat="46.80172629654407501220703125" lon="6.89174923114478588104248046875">
        <ele>417.600006103515625</ele>
        <time>2013-09-01T14:06:59.000Z</time>
        <extensions>
          <ns3:TrackPointExtension>
            <ns3:atemp>23.0</ns3:atemp>
          </ns3:TrackPointExtension>
        </extensions>
      </trkpt>
      <trkpt lat="46.801704503595829010009765625" lon="6.89165669493377208709716796875">
        <ele>416.79998779296875</ele>
        <time>2013-09-01T14:07:00.000Z</time>
        <extensions>
          <ns3:TrackPointExtension>
            <ns3:atemp>23.0</ns3:atemp>
          </ns3:TrackPointExtension>
        </extensions>
      </trkpt>
      <trkpt lat="46.801673658192157745361328125" lon="6.89156382344663143157958984375">
        <ele>416</ele>
        <time>2013-09-01T14:07:01.000Z</time>
        <extensions>
          <ns3:TrackPointExtension>
            <ns3:atemp>23.0</ns3:atemp>
          </ns3:TrackPointExtension>
        </extensions>
      </trkpt>
      <trkpt lat="46.8016322515904903411865234375" lon="6.8914799205958843231201171875">
        <ele>414.600006103515625</ele>
        <time>2013-09-01T14:07:02.000Z</time>
        <extensions>
          <ns3:TrackPointExtension>
            <ns3:atemp>23.0</ns3:atemp>
          </ns3:TrackPointExtension>
        </extensions>
      </trkpt>
      <trkpt lat="46.80158221162855625152587890625" lon="6.89140557311475276947021484375">
        <ele>414</ele>
        <time>2013-09-01T14:07:03.000Z</time>
        <extensions>
          <ns3:TrackPointExtension>
            <ns3:atemp>23.0</ns3:atemp>
          </ns3:TrackPointExtension>
        </extensions>
      </trkpt>
      <trkpt lat="46.8015236221253871917724609375" lon="6.89133902080357074737548828125">
        <ele>413.600006103515625</ele>
        <time>2013-09-01T14:07:04.000Z</time>
        <extensions>
          <ns3:TrackPointExtension>
            <ns3:atemp>23.0</ns3:atemp>
          </ns3:TrackPointExtension>
        </extensions>
      </trkpt>
      <trkpt lat="46.80145899765193462371826171875" lon="6.89128168858587741851806640625">
        <ele>413.600006103515625</ele>
        <time>2013-09-01T14:07:05.000Z</time>
        <extensions>
          <ns3:TrackPointExtension>
            <ns3:atemp>23.0</ns3:atemp>
          </ns3:TrackPointExtension>
        </extensions>
      </trkpt>
      <trkpt lat="46.8013911880552768707275390625" lon="6.8912311457097530364990234375">
        <ele>413.79998779296875</ele>
        <time>2013-09-01T14:07:06.000Z</time>
        <extensions>
          <ns3:TrackPointExtension>
            <ns3:atemp>23.0</ns3:atemp>
          </ns3:TrackPointExtension>
        </extensions>
      </trkpt>
      <trkpt lat="46.80132723413407802581787109375" lon="6.8911917507648468017578125">
        <ele>414</ele>
        <time>2013-09-01T14:07:07.000Z</time>
        <extensions>
          <ns3:TrackPointExtension>
            <ns3:atemp>23.0</ns3:atemp>
          </ns3:TrackPointExtension>
        </extensions>
      </trkpt>
      <trkpt lat="46.80126906372606754302978515625" lon="6.891153194010257720947265625">
        <ele>414.20001220703125</ele>
        <time>2013-09-01T14:07:08.000Z</time>
        <extensions>
          <ns3:TrackPointExtension>
            <ns3:atemp>23.0</ns3:atemp>
          </ns3:TrackPointExtension>
        </extensions>
      </trkpt>
      <trkpt lat="46.8012148328125476837158203125" lon="6.891112625598907470703125">
        <ele>414.399993896484375</ele>
        <time>2013-09-01T14:07:09.000Z</time>
        <extensions>
          <ns3:TrackPointExtension>
            <ns3:atemp>23.0</ns3:atemp>
          </ns3:TrackPointExtension>
        </extensions>
      </trkpt>
      <trkpt lat="46.80116697214543819427490234375" lon="6.89107214100658893585205078125">
        <ele>414.399993896484375</ele>
        <time>2013-09-01T14:07:10.000Z</time>
        <extensions>
          <ns3:TrackPointExtension>
            <ns3:atemp>23.0</ns3:atemp>
          </ns3:TrackPointExtension>
        </extensions>
      </trkpt>
      <trkpt lat="46.80112573318183422088623046875" lon="6.89102453179657459259033203125">
        <ele>414.600006103515625</ele>
        <time>2013-09-01T14:07:11.000Z</time>
        <extensions>
          <ns3:TrackPointExtension>
            <ns3:atemp>23.0</ns3:atemp>
          </ns3:TrackPointExtension>
        </extensions>
      </trkpt>
      <trkpt lat="46.80108726024627685546875" lon="6.8909642659127712249755859375">
        <ele>414.79998779296875</ele>
        <time>2013-09-01T14:07:12.000Z</time>
        <extensions>
          <ns3:TrackPointExtension>
            <ns3:atemp>23.0</ns3:atemp>
          </ns3:TrackPointExtension>
        </extensions>
      </trkpt>
      <trkpt lat="46.80105431936681270599365234375" lon="6.8908945284783840179443359375">
        <ele>415</ele>
        <time>2013-09-01T14:07:13.000Z</time>
        <extensions>
          <ns3:TrackPointExtension>
            <ns3:atemp>23.0</ns3:atemp>
          </ns3:TrackPointExtension>
        </extensions>
      </trkpt>
      <trkpt lat="46.80102900601923465728759765625" lon="6.89082370139658451080322265625">
        <ele>415.20001220703125</ele>
        <time>2013-09-01T14:07:14.000Z</time>
        <extensions>
          <ns3:TrackPointExtension>
            <ns3:atemp>23.0</ns3:atemp>
          </ns3:TrackPointExtension>
        </extensions>
      </trkpt>
      <trkpt lat="46.801009476184844970703125" lon="6.89074893482029438018798828125">
        <ele>415.20001220703125</ele>
        <time>2013-09-01T14:07:15.000Z</time>
        <extensions>
          <ns3:TrackPointExtension>
            <ns3:atemp>23.0</ns3:atemp>
          </ns3:TrackPointExtension>
        </extensions>
      </trkpt>
      <trkpt lat="46.80098877288401126861572265625" lon="6.89067073166370391845703125">
        <ele>415.399993896484375</ele>
        <time>2013-09-01T14:07:16.000Z</time>
        <extensions>
          <ns3:TrackPointExtension>
            <ns3:atemp>23.0</ns3:atemp>
          </ns3:TrackPointExtension>
        </extensions>
      </trkpt>
      <trkpt lat="46.80097033269703388214111328125" lon="6.8905934505164623260498046875">
        <ele>415.600006103515625</ele>
        <time>2013-09-01T14:07:17.000Z</time>
        <extensions>
          <ns3:TrackPointExtension>
            <ns3:atemp>23.0</ns3:atemp>
          </ns3:TrackPointExtension>
        </extensions>
      </trkpt>
      <trkpt lat="46.8009526468813419342041015625" lon="6.890516839921474456787109375">
        <ele>415.600006103515625</ele>
        <time>2013-09-01T14:07:18.000Z</time>
        <extensions>
          <ns3:TrackPointExtension>
            <ns3:atemp>23.0</ns3:atemp>
          </ns3:TrackPointExtension>
        </extensions>
      </trkpt>
      <trkpt lat="46.80093504488468170166015625" lon="6.89044064842164516448974609375">
        <ele>415.79998779296875</ele>
        <time>2013-09-01T14:07:19.000Z</time>
        <extensions>
          <ns3:TrackPointExtension>
            <ns3:atemp>23.0</ns3:atemp>
          </ns3:TrackPointExtension>
        </extensions>
      </trkpt>
      <trkpt lat="46.8009171076118946075439453125" lon="6.89036537893116474151611328125">
        <ele>415.79998779296875</ele>
        <time>2013-09-01T14:07:20.000Z</time>
        <extensions>
          <ns3:TrackPointExtension>
            <ns3:atemp>23.0</ns3:atemp>
          </ns3:TrackPointExtension>
        </extensions>
      </trkpt>
      <trkpt lat="46.8008954823017120361328125" lon="6.89029254019260406494140625">
        <ele>416</ele>
        <time>2013-09-01T14:07:21.000Z</time>
        <extensions>
          <ns3:TrackPointExtension>
            <ns3:atemp>23.0</ns3:atemp>
          </ns3:TrackPointExtension>
        </extensions>
      </trkpt>
      <trkpt lat="46.80087125860154628753662109375" lon="6.8902182765305042266845703125">
        <ele>416</ele>
        <time>2013-09-01T14:07:22.000Z</time>
        <extensions>
          <ns3:TrackPointExtension>
            <ns3:atemp>23.0</ns3:atemp>
          </ns3:TrackPointExtension>
        </extensions>
      </trkpt>
      <trkpt lat="46.80084644816815853118896484375" lon="6.89014342613518238067626953125">
        <ele>416.20001220703125</ele>
        <time>2013-09-01T14:07:23.000Z</time>
        <extensions>
          <ns3:TrackPointExtension>
            <ns3:atemp>22.0</ns3:atemp>
          </ns3:TrackPointExtension>
        </extensions>
      </trkpt>
      <trkpt lat="46.80082281120121479034423828125" lon="6.890066228806972503662109375">
        <ele>416.20001220703125</ele>
        <time>2013-09-01T14:07:24.000Z</time>
        <extensions>
          <ns3:TrackPointExtension>
            <ns3:atemp>22.0</ns3:atemp>
          </ns3:TrackPointExtension>
        </extensions>
      </trkpt>
      <trkpt lat="46.80080068297684192657470703125" lon="6.8899869360029697418212890625">
        <ele>416.20001220703125</ele>
        <time>2013-09-01T14:07:25.000Z</time>
        <extensions>
          <ns3:TrackPointExtension>
            <ns3:atemp>22.0</ns3:atemp>
          </ns3:TrackPointExtension>
        </extensions>
      </trkpt>
      <trkpt lat="46.80077855475246906280517578125" lon="6.88990672118961811065673828125">
        <ele>416.20001220703125</ele>
        <time>2013-09-01T14:07:26.000Z</time>
        <extensions>
          <ns3:TrackPointExtension>
            <ns3:atemp>22.0</ns3:atemp>
          </ns3:TrackPointExtension>
        </extensions>
      </trkpt>
      <trkpt lat="46.80075801908969879150390625" lon="6.88982390798628330230712890625">
        <ele>416.20001220703125</ele>
        <time>2013-09-01T14:07:27.000Z</time>
        <extensions>
          <ns3:TrackPointExtension>
            <ns3:atemp>22.0</ns3:atemp>
          </ns3:TrackPointExtension>
        </extensions>
      </trkpt>
      <trkpt lat="46.80074083618819713592529296875" lon="6.8897354789078235626220703125">
        <ele>416.20001220703125</ele>
        <time>2013-09-01T14:07:28.000Z</time>
        <extensions>
          <ns3:TrackPointExtension>
            <ns3:atemp>22.0</ns3:atemp>
          </ns3:TrackPointExtension>
        </extensions>
      </trkpt>
      <trkpt lat="46.8007266707718372344970703125" lon="6.88964084722101688385009765625">
        <ele>416.20001220703125</ele>
        <time>2013-09-01T14:07:29.000Z</time>
        <extensions>
          <ns3:TrackPointExtension>
            <ns3:atemp>22.0</ns3:atemp>
          </ns3:TrackPointExtension>
        </extensions>
      </trkpt>
      <trkpt lat="46.80071099661290645599365234375" lon="6.88954277895390987396240234375">
        <ele>416.20001220703125</ele>
        <time>2013-09-01T14:07:30.000Z</time>
        <extensions>
          <ns3:TrackPointExtension>
            <ns3:atemp>22.0</ns3:atemp>
          </ns3:TrackPointExtension>
        </extensions>
      </trkpt>
      <trkpt lat="46.8006934784352779388427734375" lon="6.8894444592297077178955078125">
        <ele>416.20001220703125</ele>
        <time>2013-09-01T14:07:31.000Z</time>
        <extensions>
          <ns3:TrackPointExtension>
            <ns3:atemp>22.0</ns3:atemp>
          </ns3:TrackPointExtension>
        </extensions>
      </trkpt>
      <trkpt lat="46.80067713372409343719482421875" lon="6.8893468938767910003662109375">
        <ele>416.20001220703125</ele>
        <time>2013-09-01T14:07:32.000Z</time>
        <extensions>
          <ns3:TrackPointExtension>
            <ns3:atemp>22.0</ns3:atemp>
          </ns3:TrackPointExtension>
        </extensions>
      </trkpt>
      <trkpt lat="46.80066104047000408172607421875" lon="6.8892506696283817291259765625">
        <ele>416.399993896484375</ele>
        <time>2013-09-01T14:07:33.000Z</time>
        <extensions>
          <ns3:TrackPointExtension>
            <ns3:atemp>22.0</ns3:atemp>
          </ns3:TrackPointExtension>
        </extensions>
      </trkpt>
      <trkpt lat="46.80064938962459564208984375" lon="6.88915100879967212677001953125">
        <ele>416.399993896484375</ele>
        <time>2013-09-01T14:07:34.000Z</time>
        <extensions>
          <ns3:TrackPointExtension>
            <ns3:atemp>22.0</ns3:atemp>
          </ns3:TrackPointExtension>
        </extensions>
      </trkpt>
      <trkpt lat="46.80063664913177490234375" lon="6.8890541978180408477783203125">
        <ele>416.20001220703125</ele>
        <time>2013-09-01T14:07:35.000Z</time>
        <extensions>
          <ns3:TrackPointExtension>
            <ns3:atemp>22.0</ns3:atemp>
          </ns3:TrackPointExtension>
        </extensions>
      </trkpt>
      <trkpt lat="46.8006240762770175933837890625" lon="6.88895688392221927642822265625">
        <ele>416.20001220703125</ele>
        <time>2013-09-01T14:07:36.000Z</time>
        <extensions>
          <ns3:TrackPointExtension>
            <ns3:atemp>22.0</ns3:atemp>
          </ns3:TrackPointExtension>
        </extensions>
      </trkpt>
      <trkpt lat="46.80061594583094120025634765625" lon="6.8888651020824909210205078125">
        <ele>416.20001220703125</ele>
        <time>2013-09-01T14:07:37.000Z</time>
        <extensions>
          <ns3:TrackPointExtension>
            <ns3:atemp>22.0</ns3:atemp>
          </ns3:TrackPointExtension>
        </extensions>
      </trkpt>
      <trkpt lat="46.80060957558453083038330078125" lon="6.88877533189952373504638671875">
        <ele>416.399993896484375</ele>
        <time>2013-09-01T14:07:38.000Z</time>
        <extensions>
          <ns3:TrackPointExtension>
            <ns3:atemp>22.0</ns3:atemp>
          </ns3:TrackPointExtension>
        </extensions>
      </trkpt>
      <trkpt lat="46.80060504935681819915771484375" lon="6.88869000412523746490478515625">
        <ele>416.399993896484375</ele>
        <time>2013-09-01T14:07:39.000Z</time>
        <extensions>
          <ns3:TrackPointExtension>
            <ns3:atemp>22.0</ns3:atemp>
          </ns3:TrackPointExtension>
        </extensions>
      </trkpt>
      <trkpt lat="46.8005989305675029754638671875" lon="6.8886101245880126953125">
        <ele>416.399993896484375</ele>
        <time>2013-09-01T14:07:40.000Z</time>
        <extensions>
          <ns3:TrackPointExtension>
            <ns3:atemp>22.0</ns3:atemp>
          </ns3:TrackPointExtension>
        </extensions>
      </trkpt>
      <trkpt lat="46.80059063248336315155029296875" lon="6.88853175379335880279541015625">
        <ele>416.600006103515625</ele>
        <time>2013-09-01T14:07:41.000Z</time>
        <extensions>
          <ns3:TrackPointExtension>
            <ns3:atemp>22.0</ns3:atemp>
          </ns3:TrackPointExtension>
        </extensions>
      </trkpt>
      <trkpt lat="46.8005798198282718658447265625" lon="6.8884580768644809722900390625">
        <ele>416.600006103515625</ele>
        <time>2013-09-01T14:07:42.000Z</time>
        <extensions>
          <ns3:TrackPointExtension>
            <ns3:atemp>22.0</ns3:atemp>
          </ns3:TrackPointExtension>
        </extensions>
      </trkpt>
      <trkpt lat="46.8005669116973876953125" lon="6.88838423229753971099853515625">
        <ele>416.600006103515625</ele>
        <time>2013-09-01T14:07:43.000Z</time>
        <extensions>
          <ns3:TrackPointExtension>
            <ns3:atemp>22.0</ns3:atemp>
          </ns3:TrackPointExtension>
        </extensions>
      </trkpt>
      <trkpt lat="46.80054671131074428558349609375" lon="6.88831466250121593475341796875">
        <ele>416.600006103515625</ele>
        <time>2013-09-01T14:07:44.000Z</time>
        <extensions>
          <ns3:TrackPointExtension>
            <ns3:atemp>22.0</ns3:atemp>
          </ns3:TrackPointExtension>
        </extensions>
      </trkpt>
      <trkpt lat="46.80052055977284908294677734375" lon="6.88824894838035106658935546875">
        <ele>416.79998779296875</ele>
        <time>2013-09-01T14:07:45.000Z</time>
        <extensions>
          <ns3:TrackPointExtension>
            <ns3:atemp>22.0</ns3:atemp>
          </ns3:TrackPointExtension>
        </extensions>
      </trkpt>
      <trkpt lat="46.80048820562660694122314453125" lon="6.8881808035075664520263671875">
        <ele>416.79998779296875</ele>
        <time>2013-09-01T14:07:46.000Z</time>
        <extensions>
          <ns3:TrackPointExtension>
            <ns3:atemp>22.0</ns3:atemp>
          </ns3:TrackPointExtension>
        </extensions>
      </trkpt>
      <trkpt lat="46.8004524149000644683837890625" lon="6.88810796476900577545166015625">
        <ele>417</ele>
        <time>2013-09-01T14:07:47.000Z</time>
        <extensions>
          <ns3:TrackPointExtension>
            <ns3:atemp>22.0</ns3:atemp>
          </ns3:TrackPointExtension>
        </extensions>
      </trkpt>
      <trkpt lat="46.8004153668880462646484375" lon="6.8880362994968891143798828125">
        <ele>417.20001220703125</ele>
        <time>2013-09-01T14:07:48.000Z</time>
        <extensions>
          <ns3:TrackPointExtension>
            <ns3:atemp>22.0</ns3:atemp>
          </ns3:TrackPointExtension>
        </extensions>
      </trkpt>
      <trkpt lat="46.80038091726601123809814453125" lon="6.8879689089953899383544921875">
        <ele>417.399993896484375</ele>
        <time>2013-09-01T14:07:49.000Z</time>
        <extensions>
          <ns3:TrackPointExtension>
            <ns3:atemp>22.0</ns3:atemp>
          </ns3:TrackPointExtension>
        </extensions>
      </trkpt>
      <trkpt lat="46.80034630000591278076171875" lon="6.88790269196033477783203125">
        <ele>417.600006103515625</ele>
        <time>2013-09-01T14:07:50.000Z</time>
        <extensions>
          <ns3:TrackPointExtension>
            <ns3:atemp>22.0</ns3:atemp>
          </ns3:TrackPointExtension>
        </extensions>
      </trkpt>
      <trkpt lat="46.80031168274581432342529296875" lon="6.88783572055399417877197265625">
        <ele>417.79998779296875</ele>
        <time>2013-09-01T14:07:51.000Z</time>
        <extensions>
          <ns3:TrackPointExtension>
            <ns3:atemp>22.0</ns3:atemp>
          </ns3:TrackPointExtension>
        </extensions>
      </trkpt>
      <trkpt lat="46.800277233123779296875" lon="6.88776916824281215667724609375">
        <ele>417.79998779296875</ele>
        <time>2013-09-01T14:07:52.000Z</time>
        <extensions>
          <ns3:TrackPointExtension>
            <ns3:atemp>22.0</ns3:atemp>
          </ns3:TrackPointExtension>
        </extensions>
      </trkpt>
      <trkpt lat="46.8002437055110931396484375" lon="6.88770513050258159637451171875">
        <ele>418</ele>
        <time>2013-09-01T14:07:53.000Z</time>
        <extensions>
          <ns3:TrackPointExtension>
            <ns3:atemp>22.0</ns3:atemp>
          </ns3:TrackPointExtension>
        </extensions>
      </trkpt>
      <trkpt lat="46.800209172070026397705078125" lon="6.88763874582946300506591796875">
        <ele>418.20001220703125</ele>
        <time>2013-09-01T14:07:54.000Z</time>
        <extensions>
          <ns3:TrackPointExtension>
            <ns3:atemp>22.0</ns3:atemp>
          </ns3:TrackPointExtension>
        </extensions>
      </trkpt>
      <trkpt lat="46.8001748062670230865478515625" lon="6.88757688738405704498291015625">
        <ele>418.20001220703125</ele>
        <time>2013-09-01T14:07:55.000Z</time>
        <extensions>
          <ns3:TrackPointExtension>
            <ns3:atemp>22.0</ns3:atemp>
          </ns3:TrackPointExtension>
        </extensions>
      </trkpt>
      <trkpt lat="46.80014379322528839111328125" lon="6.887516118586063385009765625">
        <ele>418.20001220703125</ele>
        <time>2013-09-01T14:07:56.000Z</time>
        <extensions>
          <ns3:TrackPointExtension>
            <ns3:atemp>22.0</ns3:atemp>
          </ns3:TrackPointExtension>
        </extensions>
      </trkpt>
      <trkpt lat="46.80011420510709285736083984375" lon="6.8874529190361499786376953125">
        <ele>418.399993896484375</ele>
        <time>2013-09-01T14:07:57.000Z</time>
        <extensions>
          <ns3:TrackPointExtension>
            <ns3:atemp>22.0</ns3:atemp>
          </ns3:TrackPointExtension>
        </extensions>
      </trkpt>
      <trkpt lat="46.8000826053321361541748046875" lon="6.8873905576765537261962890625">
        <ele>418.600006103515625</ele>
        <time>2013-09-01T14:07:58.000Z</time>
        <extensions>
          <ns3:TrackPointExtension>
            <ns3:atemp>22.0</ns3:atemp>
          </ns3:TrackPointExtension>
        </extensions>
      </trkpt>
      <trkpt lat="46.80005125701427459716796875" lon="6.8873302079737186431884765625">
        <ele>418.79998779296875</ele>
        <time>2013-09-01T14:07:59.000Z</time>
        <extensions>
          <ns3:TrackPointExtension>
            <ns3:atemp>22.0</ns3:atemp>
          </ns3:TrackPointExtension>
        </extensions>
      </trkpt>
      <trkpt lat="46.800019405782222747802734375" lon="6.88726742751896381378173828125">
        <ele>419</ele>
        <time>2013-09-01T14:08:00.000Z</time>
        <extensions>
          <ns3:TrackPointExtension>
            <ns3:atemp>22.0</ns3:atemp>
          </ns3:TrackPointExtension>
        </extensions>
      </trkpt>
      <trkpt lat="46.7999890632927417755126953125" lon="6.88720691017806529998779296875">
        <ele>419</ele>
        <time>2013-09-01T14:08:01.000Z</time>
        <extensions>
          <ns3:TrackPointExtension>
            <ns3:atemp>22.0</ns3:atemp>
          </ns3:TrackPointExtension>
        </extensions>
      </trkpt>
      <trkpt lat="46.79995779879391193389892578125" lon="6.88714488409459590911865234375">
        <ele>419</ele>
        <time>2013-09-01T14:08:02.000Z</time>
        <extensions>
          <ns3:TrackPointExtension>
            <ns3:atemp>22.0</ns3:atemp>
          </ns3:TrackPointExtension>
        </extensions>
      </trkpt>
      <trkpt lat="46.79992745630443096160888671875" lon="6.8870821036398410797119140625">
        <ele>419.20001220703125</ele>
        <time>2013-09-01T14:08:03.000Z</time>
        <extensions>
          <ns3:TrackPointExtension>
            <ns3:atemp>22.0</ns3:atemp>
          </ns3:TrackPointExtension>
        </extensions>
      </trkpt>
      <trkpt lat="46.79989426396787166595458984375" lon="6.88701630569994449615478515625">
        <ele>419.20001220703125</ele>
        <time>2013-09-01T14:08:04.000Z</time>
        <extensions>
          <ns3:TrackPointExtension>
            <ns3:atemp>22.0</ns3:atemp>
          </ns3:TrackPointExtension>
        </extensions>
      </trkpt>
      <trkpt lat="46.7998623289167881011962890625" lon="6.8869500048458576202392578125">
        <ele>419.20001220703125</ele>
        <time>2013-09-01T14:08:05.000Z</time>
        <extensions>
          <ns3:TrackPointExtension>
            <ns3:atemp>22.0</ns3:atemp>
          </ns3:TrackPointExtension>
        </extensions>
      </trkpt>
      <trkpt lat="46.79982871748507022857666015625" lon="6.88688521273434162139892578125">
        <ele>419.399993896484375</ele>
        <time>2013-09-01T14:08:06.000Z</time>
        <extensions>
          <ns3:TrackPointExtension>
            <ns3:atemp>22.0</ns3:atemp>
          </ns3:TrackPointExtension>
        </extensions>
      </trkpt>
      <trkpt lat="46.7997949384152889251708984375" lon="6.88682067207992076873779296875">
        <ele>419.600006103515625</ele>
        <time>2013-09-01T14:08:07.000Z</time>
        <extensions>
          <ns3:TrackPointExtension>
            <ns3:atemp>22.0</ns3:atemp>
          </ns3:TrackPointExtension>
        </extensions>
      </trkpt>
      <trkpt lat="46.79975814186036586761474609375" lon="6.8867565505206584930419921875">
        <ele>419.79998779296875</ele>
        <time>2013-09-01T14:08:08.000Z</time>
        <extensions>
          <ns3:TrackPointExtension>
            <ns3:atemp>22.0</ns3:atemp>
          </ns3:TrackPointExtension>
        </extensions>
      </trkpt>
      <trkpt lat="46.799716316163539886474609375" lon="6.88669527880847454071044921875">
        <ele>419.79998779296875</ele>
        <time>2013-09-01T14:08:09.000Z</time>
        <extensions>
          <ns3:TrackPointExtension>
            <ns3:atemp>22.0</ns3:atemp>
          </ns3:TrackPointExtension>
        </extensions>
      </trkpt>
      <trkpt lat="46.799676418304443359375" lon="6.88663509674370288848876953125">
        <ele>420</ele>
        <time>2013-09-01T14:08:10.000Z</time>
        <extensions>
          <ns3:TrackPointExtension>
            <ns3:atemp>22.0</ns3:atemp>
          </ns3:TrackPointExtension>
        </extensions>
      </trkpt>
      <trkpt lat="46.79963744245469570159912109375" lon="6.88657776452600955963134765625">
        <ele>420</ele>
        <time>2013-09-01T14:08:11.000Z</time>
        <extensions>
          <ns3:TrackPointExtension>
            <ns3:atemp>22.0</ns3:atemp>
          </ns3:TrackPointExtension>
        </extensions>
      </trkpt>
      <trkpt lat="46.79960022680461406707763671875" lon="6.88652403652667999267578125">
        <ele>420</ele>
        <time>2013-09-01T14:08:12.000Z</time>
        <extensions>
          <ns3:TrackPointExtension>
            <ns3:atemp>22.0</ns3:atemp>
          </ns3:TrackPointExtension>
        </extensions>
      </trkpt>
      <trkpt lat="46.7995635978877544403076171875" lon="6.88647567294538021087646484375">
        <ele>420.20001220703125</ele>
        <time>2013-09-01T14:08:13.000Z</time>
        <extensions>
          <ns3:TrackPointExtension>
            <ns3:atemp>22.0</ns3:atemp>
          </ns3:TrackPointExtension>
        </extensions>
      </trkpt>
      <trkpt lat="46.79952411912381649017333984375" lon="6.88643007539212703704833984375">
        <ele>420.399993896484375</ele>
        <time>2013-09-01T14:08:14.000Z</time>
        <extensions>
          <ns3:TrackPointExtension>
            <ns3:atemp>22.0</ns3:atemp>
          </ns3:TrackPointExtension>
        </extensions>
      </trkpt>
      <trkpt lat="46.79948237724602222442626953125" lon="6.8863897584378719329833984375">
        <ele>420.79998779296875</ele>
        <time>2013-09-01T14:08:15.000Z</time>
        <extensions>
          <ns3:TrackPointExtension>
            <ns3:atemp>22.0</ns3:atemp>
          </ns3:TrackPointExtension>
        </extensions>
      </trkpt>
      <trkpt lat="46.79943979717791080474853515625" lon="6.886360086500644683837890625">
        <ele>421</ele>
        <time>2013-09-01T14:08:16.000Z</time>
        <extensions>
          <ns3:TrackPointExtension>
            <ns3:atemp>22.0</ns3:atemp>
          </ns3:TrackPointExtension>
        </extensions>
      </trkpt>
      <trkpt lat="46.799394786357879638671875" lon="6.886338293552398681640625">
        <ele>421.20001220703125</ele>
        <time>2013-09-01T14:08:17.000Z</time>
        <extensions>
          <ns3:TrackPointExtension>
            <ns3:atemp>22.0</ns3:atemp>
          </ns3:TrackPointExtension>
        </extensions>
      </trkpt>
      <trkpt lat="46.79934692569077014923095703125" lon="6.8863166682422161102294921875">
        <ele>421.399993896484375</ele>
        <time>2013-09-01T14:08:18.000Z</time>
        <extensions>
          <ns3:TrackPointExtension>
            <ns3:atemp>22.0</ns3:atemp>
          </ns3:TrackPointExtension>
        </extensions>
      </trkpt>
      <trkpt lat="46.7992994002997875213623046875" lon="6.88629948534071445465087890625">
        <ele>421.399993896484375</ele>
        <time>2013-09-01T14:08:19.000Z</time>
        <extensions>
          <ns3:TrackPointExtension>
            <ns3:atemp>22.0</ns3:atemp>
          </ns3:TrackPointExtension>
        </extensions>
      </trkpt>
      <trkpt lat="46.79924583993852138519287109375" lon="6.8863099627196788787841796875">
        <ele>421.600006103515625</ele>
        <time>2013-09-01T14:08:20.000Z</time>
        <extensions>
          <ns3:TrackPointExtension>
            <ns3:atemp>22.0</ns3:atemp>
          </ns3:TrackPointExtension>
        </extensions>
      </trkpt>
      <trkpt lat="46.79916520603001117706298828125" lon="6.88631105236709117889404296875">
        <ele>421.79998779296875</ele>
        <time>2013-09-01T14:08:21.000Z</time>
        <extensions>
          <ns3:TrackPointExtension>
            <ns3:atemp>22.0</ns3:atemp>
          </ns3:TrackPointExtension>
        </extensions>
      </trkpt>
      <trkpt lat="46.79909060709178447723388671875" lon="6.88631457276642322540283203125">
        <ele>422</ele>
        <time>2013-09-01T14:08:22.000Z</time>
        <extensions>
          <ns3:TrackPointExtension>
            <ns3:atemp>22.0</ns3:atemp>
          </ns3:TrackPointExtension>
        </extensions>
      </trkpt>
      <trkpt lat="46.79901994764804840087890625" lon="6.8863170035183429718017578125">
        <ele>422.20001220703125</ele>
        <time>2013-09-01T14:08:23.000Z</time>
        <extensions>
          <ns3:TrackPointExtension>
            <ns3:atemp>22.0</ns3:atemp>
          </ns3:TrackPointExtension>
        </extensions>
      </trkpt>
      <trkpt lat="46.79896387271583080291748046875" lon="6.886315159499645233154296875">
        <ele>422.20001220703125</ele>
        <time>2013-09-01T14:08:24.000Z</time>
        <extensions>
          <ns3:TrackPointExtension>
            <ns3:atemp>22.0</ns3:atemp>
          </ns3:TrackPointExtension>
        </extensions>
      </trkpt>
      <trkpt lat="46.7989061214029788970947265625" lon="6.8863047659397125244140625">
        <ele>422.600006103515625</ele>
        <time>2013-09-01T14:08:25.000Z</time>
        <extensions>
          <ns3:TrackPointExtension>
            <ns3:atemp>22.0</ns3:atemp>
          </ns3:TrackPointExtension>
        </extensions>
      </trkpt>
      <trkpt lat="46.79884652607142925262451171875" lon="6.8862978927791118621826171875">
        <ele>422.600006103515625</ele>
        <time>2013-09-01T14:08:26.000Z</time>
        <extensions>
          <ns3:TrackPointExtension>
            <ns3:atemp>22.0</ns3:atemp>
          </ns3:TrackPointExtension>
        </extensions>
      </trkpt>
      <trkpt lat="46.79878927767276763916015625" lon="6.88628800213336944580078125">
        <ele>422.600006103515625</ele>
        <time>2013-09-01T14:08:27.000Z</time>
        <extensions>
          <ns3:TrackPointExtension>
            <ns3:atemp>22.0</ns3:atemp>
          </ns3:TrackPointExtension>
        </extensions>
      </trkpt>
      <trkpt lat="46.79873219691216945648193359375" lon="6.88628305681049823760986328125">
        <ele>422.600006103515625</ele>
        <time>2013-09-01T14:08:28.000Z</time>
        <extensions>
          <ns3:TrackPointExtension>
            <ns3:atemp>22.0</ns3:atemp>
          </ns3:TrackPointExtension>
        </extensions>
      </trkpt>
      <trkpt lat="46.79867394268512725830078125" lon="6.88626947812736034393310546875">
        <ele>422.79998779296875</ele>
        <time>2013-09-01T14:08:29.000Z</time>
        <extensions>
          <ns3:TrackPointExtension>
            <ns3:atemp>22.0</ns3:atemp>
          </ns3:TrackPointExtension>
        </extensions>
      </trkpt>
      <trkpt lat="46.79861761629581451416015625" lon="6.8862697295844554901123046875">
        <ele>423</ele>
        <time>2013-09-01T14:08:30.000Z</time>
        <extensions>
          <ns3:TrackPointExtension>
            <ns3:atemp>22.0</ns3:atemp>
          </ns3:TrackPointExtension>
        </extensions>
      </trkpt>
      <trkpt lat="46.79855986498296260833740234375" lon="6.8862712383270263671875">
        <ele>423.399993896484375</ele>
        <time>2013-09-01T14:08:31.000Z</time>
        <extensions>
          <ns3:TrackPointExtension>
            <ns3:atemp>22.0</ns3:atemp>
          </ns3:TrackPointExtension>
        </extensions>
      </trkpt>
      <trkpt lat="46.798499263823032379150390625" lon="6.8862693943083286285400390625">
        <ele>423.399993896484375</ele>
        <time>2013-09-01T14:08:32.000Z</time>
        <extensions>
          <ns3:TrackPointExtension>
            <ns3:atemp>22.0</ns3:atemp>
          </ns3:TrackPointExtension>
        </extensions>
      </trkpt>
      <trkpt lat="46.79844352416694164276123046875" lon="6.88626344315707683563232421875">
        <ele>423.600006103515625</ele>
        <time>2013-09-01T14:08:33.000Z</time>
        <extensions>
          <ns3:TrackPointExtension>
            <ns3:atemp>22.0</ns3:atemp>
          </ns3:TrackPointExtension>
        </extensions>
      </trkpt>
      <trkpt lat="46.798391640186309814453125" lon="6.88625941984355449676513671875">
        <ele>423.79998779296875</ele>
        <time>2013-09-01T14:08:34.000Z</time>
        <extensions>
          <ns3:TrackPointExtension>
            <ns3:atemp>22.0</ns3:atemp>
          </ns3:TrackPointExtension>
        </extensions>
      </trkpt>
      <trkpt lat="46.7983420193195343017578125" lon="6.88625204376876354217529296875">
        <ele>424.20001220703125</ele>
        <time>2013-09-01T14:08:35.000Z</time>
        <extensions>
          <ns3:TrackPointExtension>
            <ns3:atemp>22.0</ns3:atemp>
          </ns3:TrackPointExtension>
        </extensions>
      </trkpt>
      <trkpt lat="46.79829441010951995849609375" lon="6.88624567352235317230224609375">
        <ele>424.399993896484375</ele>
        <time>2013-09-01T14:08:36.000Z</time>
        <extensions>
          <ns3:TrackPointExtension>
            <ns3:atemp>22.0</ns3:atemp>
          </ns3:TrackPointExtension>
        </extensions>
      </trkpt>
      <trkpt lat="46.79824939928948879241943359375" lon="6.8862415663897991180419921875">
        <ele>424.20001220703125</ele>
        <time>2013-09-01T14:08:37.000Z</time>
        <extensions>
          <ns3:TrackPointExtension>
            <ns3:atemp>22.0</ns3:atemp>
          </ns3:TrackPointExtension>
        </extensions>
      </trkpt>
      <trkpt lat="46.79820480756461620330810546875" lon="6.88623812980949878692626953125">
        <ele>424.20001220703125</ele>
        <time>2013-09-01T14:08:38.000Z</time>
        <extensions>
          <ns3:TrackPointExtension>
            <ns3:atemp>22.0</ns3:atemp>
          </ns3:TrackPointExtension>
        </extensions>
      </trkpt>
      <trkpt lat="46.79816038347780704498291015625" lon="6.88623678870499134063720703125">
        <ele>424.399993896484375</ele>
        <time>2013-09-01T14:08:39.000Z</time>
        <extensions>
          <ns3:TrackPointExtension>
            <ns3:atemp>22.0</ns3:atemp>
          </ns3:TrackPointExtension>
        </extensions>
      </trkpt>
      <trkpt lat="46.79811361245810985565185546875" lon="6.88623662106692790985107421875">
        <ele>424.600006103515625</ele>
        <time>2013-09-01T14:08:40.000Z</time>
        <extensions>
          <ns3:TrackPointExtension>
            <ns3:atemp>22.0</ns3:atemp>
          </ns3:TrackPointExtension>
        </extensions>
      </trkpt>
      <trkpt lat="46.7980659194290637969970703125" lon="6.88623628579080104827880859375">
        <ele>424.79998779296875</ele>
        <time>2013-09-01T14:08:41.000Z</time>
        <extensions>
          <ns3:TrackPointExtension>
            <ns3:atemp>22.0</ns3:atemp>
          </ns3:TrackPointExtension>
        </extensions>
      </trkpt>
      <trkpt lat="46.79801939986646175384521484375" lon="6.88623494468629360198974609375">
        <ele>425</ele>
        <time>2013-09-01T14:08:42.000Z</time>
        <extensions>
          <ns3:TrackPointExtension>
            <ns3:atemp>22.0</ns3:atemp>
          </ns3:TrackPointExtension>
        </extensions>
      </trkpt>
      <trkpt lat="46.79797313176095485687255859375" lon="6.88623293302953243255615234375">
        <ele>425</ele>
        <time>2013-09-01T14:08:43.000Z</time>
        <extensions>
          <ns3:TrackPointExtension>
            <ns3:atemp>22.0</ns3:atemp>
          </ns3:TrackPointExtension>
        </extensions>
      </trkpt>
      <trkpt lat="46.79792636074125766754150390625" lon="6.88623075373470783233642578125">
        <ele>424.79998779296875</ele>
        <time>2013-09-01T14:08:44.000Z</time>
        <extensions>
          <ns3:TrackPointExtension>
            <ns3:atemp>22.0</ns3:atemp>
          </ns3:TrackPointExtension>
        </extensions>
      </trkpt>
      <trkpt lat="46.79788411594927310943603515625" lon="6.886227987706661224365234375">
        <ele>425</ele>
        <time>2013-09-01T14:08:45.000Z</time>
        <extensions>
          <ns3:TrackPointExtension>
            <ns3:atemp>22.0</ns3:atemp>
          </ns3:TrackPointExtension>
        </extensions>
      </trkpt>
      <trkpt lat="46.79784053005278110504150390625" lon="6.886226646602153778076171875">
        <ele>425.20001220703125</ele>
        <time>2013-09-01T14:08:46.000Z</time>
        <extensions>
          <ns3:TrackPointExtension>
            <ns3:atemp>22.0</ns3:atemp>
          </ns3:TrackPointExtension>
        </extensions>
      </trkpt>
      <trkpt lat="46.79779727943241596221923828125" lon="6.8862268142402172088623046875">
        <ele>425.20001220703125</ele>
        <time>2013-09-01T14:08:47.000Z</time>
        <extensions>
          <ns3:TrackPointExtension>
            <ns3:atemp>22.0</ns3:atemp>
          </ns3:TrackPointExtension>
        </extensions>
      </trkpt>
      <trkpt lat="46.79775117896497249603271484375" lon="6.8862258084118366241455078125">
        <ele>425.20001220703125</ele>
        <time>2013-09-01T14:08:48.000Z</time>
        <extensions>
          <ns3:TrackPointExtension>
            <ns3:atemp>22.0</ns3:atemp>
          </ns3:TrackPointExtension>
        </extensions>
      </trkpt>
      <trkpt lat="46.79770591668784618377685546875" lon="6.8862211145460605621337890625">
        <ele>425.399993896484375</ele>
        <time>2013-09-01T14:08:49.000Z</time>
        <extensions>
          <ns3:TrackPointExtension>
            <ns3:atemp>22.0</ns3:atemp>
          </ns3:TrackPointExtension>
        </extensions>
      </trkpt>
      <trkpt lat="46.79765964858233928680419921875" lon="6.8862162530422210693359375">
        <ele>425.600006103515625</ele>
        <time>2013-09-01T14:08:50.000Z</time>
        <extensions>
          <ns3:TrackPointExtension>
            <ns3:atemp>22.0</ns3:atemp>
          </ns3:TrackPointExtension>
        </extensions>
      </trkpt>
      <trkpt lat="46.79761120118200778961181640625" lon="6.88620879314839839935302734375">
        <ele>425.600006103515625</ele>
        <time>2013-09-01T14:08:51.000Z</time>
        <extensions>
          <ns3:TrackPointExtension>
            <ns3:atemp>22.0</ns3:atemp>
          </ns3:TrackPointExtension>
        </extensions>
      </trkpt>
      <trkpt lat="46.79756409488618373870849609375" lon="6.88620292581617832183837890625">
        <ele>425.79998779296875</ele>
        <time>2013-09-01T14:08:52.000Z</time>
        <extensions>
          <ns3:TrackPointExtension>
            <ns3:atemp>22.0</ns3:atemp>
          </ns3:TrackPointExtension>
        </extensions>
      </trkpt>
      <trkpt lat="46.79751715622842311859130859375" lon="6.8861983157694339752197265625">
        <ele>425.79998779296875</ele>
        <time>2013-09-01T14:08:53.000Z</time>
        <extensions>
          <ns3:TrackPointExtension>
            <ns3:atemp>22.0</ns3:atemp>
          </ns3:TrackPointExtension>
        </extensions>
      </trkpt>
      <trkpt lat="46.79746887646615505218505859375" lon="6.8861956335604190826416015625">
        <ele>425.79998779296875</ele>
        <time>2013-09-01T14:08:54.000Z</time>
        <extensions>
          <ns3:TrackPointExtension>
            <ns3:atemp>22.0</ns3:atemp>
          </ns3:TrackPointExtension>
        </extensions>
      </trkpt>
      <trkpt lat="46.79741925559937953948974609375" lon="6.88619236461818218231201171875">
        <ele>425.79998779296875</ele>
        <time>2013-09-01T14:08:55.000Z</time>
        <extensions>
          <ns3:TrackPointExtension>
            <ns3:atemp>22.0</ns3:atemp>
          </ns3:TrackPointExtension>
        </extensions>
      </trkpt>
      <trkpt lat="46.797368712723255157470703125" lon="6.88618616200983524322509765625">
        <ele>425.600006103515625</ele>
        <time>2013-09-01T14:08:56.000Z</time>
        <extensions>
          <ns3:TrackPointExtension>
            <ns3:atemp>22.0</ns3:atemp>
          </ns3:TrackPointExtension>
        </extensions>
      </trkpt>
      <trkpt lat="46.79731766693294048309326171875" lon="6.886182390153408050537109375">
        <ele>425.600006103515625</ele>
        <time>2013-09-01T14:08:57.000Z</time>
        <extensions>
          <ns3:TrackPointExtension>
            <ns3:atemp>22.0</ns3:atemp>
          </ns3:TrackPointExtension>
        </extensions>
      </trkpt>
      <trkpt lat="46.79726653732359409332275390625" lon="6.88617861829698085784912109375">
        <ele>425.600006103515625</ele>
        <time>2013-09-01T14:08:58.000Z</time>
        <extensions>
          <ns3:TrackPointExtension>
            <ns3:atemp>22.0</ns3:atemp>
          </ns3:TrackPointExtension>
        </extensions>
      </trkpt>
      <trkpt lat="46.7972139827907085418701171875" lon="6.88617375679314136505126953125">
        <ele>425.399993896484375</ele>
        <time>2013-09-01T14:08:59.000Z</time>
        <extensions>
          <ns3:TrackPointExtension>
            <ns3:atemp>22.0</ns3:atemp>
          </ns3:TrackPointExtension>
        </extensions>
      </trkpt>
      <trkpt lat="46.79716109298169612884521484375" lon="6.8861671350896358489990234375">
        <ele>425.600006103515625</ele>
        <time>2013-09-01T14:09:00.000Z</time>
        <extensions>
          <ns3:TrackPointExtension>
            <ns3:atemp>22.0</ns3:atemp>
          </ns3:TrackPointExtension>
        </extensions>
      </trkpt>
      <trkpt lat="46.79710560478270053863525390625" lon="6.88615649007260799407958984375">
        <ele>425.600006103515625</ele>
        <time>2013-09-01T14:09:01.000Z</time>
        <extensions>
          <ns3:TrackPointExtension>
            <ns3:atemp>22.0</ns3:atemp>
          </ns3:TrackPointExtension>
        </extensions>
      </trkpt>
      <trkpt lat="46.79704961366951465606689453125" lon="6.88615229912102222442626953125">
        <ele>425.399993896484375</ele>
        <time>2013-09-01T14:09:02.000Z</time>
        <extensions>
          <ns3:TrackPointExtension>
            <ns3:atemp>22.0</ns3:atemp>
          </ns3:TrackPointExtension>
        </extensions>
      </trkpt>
      <trkpt lat="46.79699328728020191192626953125" lon="6.88615179620683193206787109375">
        <ele>425.399993896484375</ele>
        <time>2013-09-01T14:09:03.000Z</time>
        <extensions>
          <ns3:TrackPointExtension>
            <ns3:atemp>22.0</ns3:atemp>
          </ns3:TrackPointExtension>
        </extensions>
      </trkpt>
      <trkpt lat="46.79693578742444515228271484375" lon="6.8861599266529083251953125">
        <ele>425.600006103515625</ele>
        <time>2013-09-01T14:09:04.000Z</time>
        <extensions>
          <ns3:TrackPointExtension>
            <ns3:atemp>22.0</ns3:atemp>
          </ns3:TrackPointExtension>
        </extensions>
      </trkpt>
      <trkpt lat="46.796878539025783538818359375" lon="6.88616864383220672607421875">
        <ele>425.600006103515625</ele>
        <time>2013-09-01T14:09:05.000Z</time>
        <extensions>
          <ns3:TrackPointExtension>
            <ns3:atemp>22.0</ns3:atemp>
          </ns3:TrackPointExtension>
        </extensions>
      </trkpt>
      <trkpt lat="46.7968176864087581634521484375" lon="6.88617275096476078033447265625">
        <ele>425.399993896484375</ele>
        <time>2013-09-01T14:09:06.000Z</time>
        <extensions>
          <ns3:TrackPointExtension>
            <ns3:atemp>22.0</ns3:atemp>
          </ns3:TrackPointExtension>
        </extensions>
      </trkpt>
      <trkpt lat="46.7967563308775424957275390625" lon="6.88617979176342487335205078125">
        <ele>425.399993896484375</ele>
        <time>2013-09-01T14:09:07.000Z</time>
        <extensions>
          <ns3:TrackPointExtension>
            <ns3:atemp>22.0</ns3:atemp>
          </ns3:TrackPointExtension>
        </extensions>
      </trkpt>
      <trkpt lat="46.79669589735567569732666015625" lon="6.8861947953701019287109375">
        <ele>425.399993896484375</ele>
        <time>2013-09-01T14:09:08.000Z</time>
        <extensions>
          <ns3:TrackPointExtension>
            <ns3:atemp>22.0</ns3:atemp>
          </ns3:TrackPointExtension>
        </extensions>
      </trkpt>
      <trkpt lat="46.79663538001477718353271484375" lon="6.8862150795757770538330078125">
        <ele>425.399993896484375</ele>
        <time>2013-09-01T14:09:09.000Z</time>
        <extensions>
          <ns3:TrackPointExtension>
            <ns3:atemp>22.0</ns3:atemp>
          </ns3:TrackPointExtension>
        </extensions>
      </trkpt>
      <trkpt lat="46.7965736053884029388427734375" lon="6.88623695634305477142333984375">
        <ele>425.399993896484375</ele>
        <time>2013-09-01T14:09:10.000Z</time>
        <extensions>
          <ns3:TrackPointExtension>
            <ns3:atemp>22.0</ns3:atemp>
          </ns3:TrackPointExtension>
        </extensions>
      </trkpt>
      <trkpt lat="46.7965112440288066864013671875" lon="6.8862613476812839508056640625">
        <ele>425.399993896484375</ele>
        <time>2013-09-01T14:09:11.000Z</time>
        <extensions>
          <ns3:TrackPointExtension>
            <ns3:atemp>22.0</ns3:atemp>
          </ns3:TrackPointExtension>
        </extensions>
      </trkpt>
      <trkpt lat="46.7964505590498447418212890625" lon="6.88629227690398693084716796875">
        <ele>425.20001220703125</ele>
        <time>2013-09-01T14:09:12.000Z</time>
        <extensions>
          <ns3:TrackPointExtension>
            <ns3:atemp>22.0</ns3:atemp>
          </ns3:TrackPointExtension>
        </extensions>
      </trkpt>
      <trkpt lat="46.79639004170894622802734375" lon="6.88632488250732421875">
        <ele>425</ele>
        <time>2013-09-01T14:09:13.000Z</time>
        <extensions>
          <ns3:TrackPointExtension>
            <ns3:atemp>22.0</ns3:atemp>
          </ns3:TrackPointExtension>
        </extensions>
      </trkpt>
      <trkpt lat="46.79632969200611114501953125" lon="6.88635966740548610687255859375">
        <ele>425</ele>
        <time>2013-09-01T14:09:14.000Z</time>
        <extensions>
          <ns3:TrackPointExtension>
            <ns3:atemp>22.0</ns3:atemp>
          </ns3:TrackPointExtension>
        </extensions>
      </trkpt>
      <trkpt lat="46.79627093486487865447998046875" lon="6.88639855943620204925537109375">
        <ele>424.79998779296875</ele>
        <time>2013-09-01T14:09:15.000Z</time>
        <extensions>
          <ns3:TrackPointExtension>
            <ns3:atemp>22.0</ns3:atemp>
          </ns3:TrackPointExtension>
        </extensions>
      </trkpt>
      <trkpt lat="46.796213686466217041015625" lon="6.886440217494964599609375">
        <ele>424.79998779296875</ele>
        <time>2013-09-01T14:09:16.000Z</time>
        <extensions>
          <ns3:TrackPointExtension>
            <ns3:atemp>22.0</ns3:atemp>
          </ns3:TrackPointExtension>
        </extensions>
      </trkpt>
      <trkpt lat="46.79615660570561885833740234375" lon="6.88648053444921970367431640625">
        <ele>424.79998779296875</ele>
        <time>2013-09-01T14:09:17.000Z</time>
        <extensions>
          <ns3:TrackPointExtension>
            <ns3:atemp>22.0</ns3:atemp>
          </ns3:TrackPointExtension>
        </extensions>
      </trkpt>
      <trkpt lat="46.79609960876405239105224609375" lon="6.88651875592768192291259765625">
        <ele>424.79998779296875</ele>
        <time>2013-09-01T14:09:18.000Z</time>
        <extensions>
          <ns3:TrackPointExtension>
            <ns3:atemp>22.0</ns3:atemp>
          </ns3:TrackPointExtension>
        </extensions>
      </trkpt>
      <trkpt lat="46.7960433661937713623046875" lon="6.8865560553967952728271484375">
        <ele>425</ele>
        <time>2013-09-01T14:09:19.000Z</time>
        <extensions>
          <ns3:TrackPointExtension>
            <ns3:atemp>22.0</ns3:atemp>
          </ns3:TrackPointExtension>
        </extensions>
      </trkpt>
      <trkpt lat="46.79599106311798095703125" lon="6.88659301958978176116943359375">
        <ele>425.20001220703125</ele>
        <time>2013-09-01T14:09:20.000Z</time>
        <extensions>
          <ns3:TrackPointExtension>
            <ns3:atemp>22.0</ns3:atemp>
          </ns3:TrackPointExtension>
        </extensions>
      </trkpt>
      <trkpt lat="46.79594001732766628265380859375" lon="6.8866271339356899261474609375">
        <ele>425.399993896484375</ele>
        <time>2013-09-01T14:09:21.000Z</time>
        <extensions>
          <ns3:TrackPointExtension>
            <ns3:atemp>22.0</ns3:atemp>
          </ns3:TrackPointExtension>
        </extensions>
      </trkpt>
      <trkpt lat="46.79588846862316131591796875" lon="6.8866536207497119903564453125">
        <ele>425.399993896484375</ele>
        <time>2013-09-01T14:09:22.000Z</time>
        <extensions>
          <ns3:TrackPointExtension>
            <ns3:atemp>22.0</ns3:atemp>
          </ns3:TrackPointExtension>
        </extensions>
      </trkpt>
      <trkpt lat="46.7958363331854343414306640625" lon="6.88667063601315021514892578125">
        <ele>425.600006103515625</ele>
        <time>2013-09-01T14:09:23.000Z</time>
        <extensions>
          <ns3:TrackPointExtension>
            <ns3:atemp>22.0</ns3:atemp>
          </ns3:TrackPointExtension>
        </extensions>
      </trkpt>
      <trkpt lat="46.79578126408159732818603515625" lon="6.8866767548024654388427734375">
        <ele>425.399993896484375</ele>
        <time>2013-09-01T14:09:24.000Z</time>
        <extensions>
          <ns3:TrackPointExtension>
            <ns3:atemp>22.0</ns3:atemp>
          </ns3:TrackPointExtension>
        </extensions>
      </trkpt>
      <trkpt lat="46.795720495283603668212890625" lon="6.88667331822216510772705078125">
        <ele>425</ele>
        <time>2013-09-01T14:09:25.000Z</time>
        <extensions>
          <ns3:TrackPointExtension>
            <ns3:atemp>22.0</ns3:atemp>
          </ns3:TrackPointExtension>
        </extensions>
      </trkpt>
      <trkpt lat="46.795657463371753692626953125" lon="6.8866646848618984222412109375">
        <ele>424.20001220703125</ele>
        <time>2013-09-01T14:09:26.000Z</time>
        <extensions>
          <ns3:TrackPointExtension>
            <ns3:atemp>22.0</ns3:atemp>
          </ns3:TrackPointExtension>
        </extensions>
      </trkpt>
      <trkpt lat="46.7955915816128253936767578125" lon="6.886653788387775421142578125">
        <ele>424</ele>
        <time>2013-09-01T14:09:27.000Z</time>
        <extensions>
          <ns3:TrackPointExtension>
            <ns3:atemp>22.0</ns3:atemp>
          </ns3:TrackPointExtension>
        </extensions>
      </trkpt>
      <trkpt lat="46.79552192799746990203857421875" lon="6.886639036238193511962890625">
        <ele>423.79998779296875</ele>
        <time>2013-09-01T14:09:28.000Z</time>
        <extensions>
          <ns3:TrackPointExtension>
            <ns3:atemp>22.0</ns3:atemp>
          </ns3:TrackPointExtension>
        </extensions>
      </trkpt>
      <trkpt lat="46.795450262725353240966796875" lon="6.88662059605121612548828125">
        <ele>423.79998779296875</ele>
        <time>2013-09-01T14:09:29.000Z</time>
        <extensions>
          <ns3:TrackPointExtension>
            <ns3:atemp>22.0</ns3:atemp>
          </ns3:TrackPointExtension>
        </extensions>
      </trkpt>
      <trkpt lat="46.79538027383387088775634765625" lon="6.88659905456006526947021484375">
        <ele>423.600006103515625</ele>
        <time>2013-09-01T14:09:30.000Z</time>
        <extensions>
          <ns3:TrackPointExtension>
            <ns3:atemp>22.0</ns3:atemp>
          </ns3:TrackPointExtension>
        </extensions>
      </trkpt>
      <trkpt lat="46.79531003348529338836669921875" lon="6.8865822069346904754638671875">
        <ele>423.399993896484375</ele>
        <time>2013-09-01T14:09:31.000Z</time>
        <extensions>
          <ns3:TrackPointExtension>
            <ns3:atemp>22.0</ns3:atemp>
          </ns3:TrackPointExtension>
        </extensions>
      </trkpt>
      <trkpt lat="46.7952387034893035888671875" lon="6.88656435348093509674072265625">
        <ele>423.20001220703125</ele>
        <time>2013-09-01T14:09:32.000Z</time>
        <extensions>
          <ns3:TrackPointExtension>
            <ns3:atemp>22.0</ns3:atemp>
          </ns3:TrackPointExtension>
        </extensions>
      </trkpt>
      <trkpt lat="46.795167624950408935546875" lon="6.886545158922672271728515625">
        <ele>423.20001220703125</ele>
        <time>2013-09-01T14:09:33.000Z</time>
        <extensions>
          <ns3:TrackPointExtension>
            <ns3:atemp>22.0</ns3:atemp>
          </ns3:TrackPointExtension>
        </extensions>
      </trkpt>
      <trkpt lat="46.79509495384991168975830078125" lon="6.886524371802806854248046875">
        <ele>422.79998779296875</ele>
        <time>2013-09-01T14:09:34.000Z</time>
        <extensions>
          <ns3:TrackPointExtension>
            <ns3:atemp>22.0</ns3:atemp>
          </ns3:TrackPointExtension>
        </extensions>
      </trkpt>
      <trkpt lat="46.7950206063687801361083984375" lon="6.8865057639777660369873046875">
        <ele>422.600006103515625</ele>
        <time>2013-09-01T14:09:35.000Z</time>
        <extensions>
          <ns3:TrackPointExtension>
            <ns3:atemp>22.0</ns3:atemp>
          </ns3:TrackPointExtension>
        </extensions>
      </trkpt>
      <trkpt lat="46.7949450016021728515625" lon="6.88649293966591358184814453125">
        <ele>421.79998779296875</ele>
        <time>2013-09-01T14:09:36.000Z</time>
        <extensions>
          <ns3:TrackPointExtension>
            <ns3:atemp>22.0</ns3:atemp>
          </ns3:TrackPointExtension>
        </extensions>
      </trkpt>
      <trkpt lat="46.79486931301653385162353515625" lon="6.886483132839202880859375">
        <ele>421.20001220703125</ele>
        <time>2013-09-01T14:09:37.000Z</time>
        <extensions>
          <ns3:TrackPointExtension>
            <ns3:atemp>22.0</ns3:atemp>
          </ns3:TrackPointExtension>
        </extensions>
      </trkpt>
      <trkpt lat="46.79479504935443401336669921875" lon="6.88647307455539703369140625">
        <ele>420.399993896484375</ele>
        <time>2013-09-01T14:09:38.000Z</time>
        <extensions>
          <ns3:TrackPointExtension>
            <ns3:atemp>22.0</ns3:atemp>
          </ns3:TrackPointExtension>
        </extensions>
      </trkpt>
      <trkpt lat="46.79471500217914581298828125" lon="6.8864591605961322784423828125">
        <ele>420.20001220703125</ele>
        <time>2013-09-01T14:09:39.000Z</time>
        <extensions>
          <ns3:TrackPointExtension>
            <ns3:atemp>22.0</ns3:atemp>
          </ns3:TrackPointExtension>
        </extensions>
      </trkpt>
      <trkpt lat="46.794630177319049835205078125" lon="6.88644432462751865386962890625">
        <ele>420</ele>
        <time>2013-09-01T14:09:40.000Z</time>
        <extensions>
          <ns3:TrackPointExtension>
            <ns3:atemp>22.0</ns3:atemp>
          </ns3:TrackPointExtension>
        </extensions>
      </trkpt>
      <trkpt lat="46.7945401556789875030517578125" lon="6.88642890192568302154541015625">
        <ele>419.600006103515625</ele>
        <time>2013-09-01T14:09:41.000Z</time>
        <extensions>
          <ns3:TrackPointExtension>
            <ns3:atemp>22.0</ns3:atemp>
          </ns3:TrackPointExtension>
        </extensions>
      </trkpt>
      <trkpt lat="46.794446446001529693603515625" lon="6.88642353750765323638916015625">
        <ele>418.399993896484375</ele>
        <time>2013-09-01T14:09:42.000Z</time>
        <extensions>
          <ns3:TrackPointExtension>
            <ns3:atemp>22.0</ns3:atemp>
          </ns3:TrackPointExtension>
        </extensions>
      </trkpt>
      <trkpt lat="46.79435214959084987640380859375" lon="6.8864323385059833526611328125">
        <ele>418</ele>
        <time>2013-09-01T14:09:43.000Z</time>
        <extensions>
          <ns3:TrackPointExtension>
            <ns3:atemp>22.0</ns3:atemp>
          </ns3:TrackPointExtension>
        </extensions>
      </trkpt>
      <trkpt lat="46.79425827227532863616943359375" lon="6.8864428997039794921875">
        <ele>417.79998779296875</ele>
        <time>2013-09-01T14:09:44.000Z</time>
        <extensions>
          <ns3:TrackPointExtension>
            <ns3:atemp>22.0</ns3:atemp>
          </ns3:TrackPointExtension>
        </extensions>
      </trkpt>
      <trkpt lat="46.7941676639020442962646484375" lon="6.88645253889262676239013671875">
        <ele>418</ele>
        <time>2013-09-01T14:09:45.000Z</time>
        <extensions>
          <ns3:TrackPointExtension>
            <ns3:atemp>22.0</ns3:atemp>
          </ns3:TrackPointExtension>
        </extensions>
      </trkpt>
      <trkpt lat="46.79407521151006221771240234375" lon="6.88644231297075748443603515625">
        <ele>417.79998779296875</ele>
        <time>2013-09-01T14:09:46.000Z</time>
        <extensions>
          <ns3:TrackPointExtension>
            <ns3:atemp>22.0</ns3:atemp>
          </ns3:TrackPointExtension>
        </extensions>
      </trkpt>
      <trkpt lat="46.793986447155475616455078125" lon="6.8864192627370357513427734375">
        <ele>417.399993896484375</ele>
        <time>2013-09-01T14:09:47.000Z</time>
        <extensions>
          <ns3:TrackPointExtension>
            <ns3:atemp>22.0</ns3:atemp>
          </ns3:TrackPointExtension>
        </extensions>
      </trkpt>
      <trkpt lat="46.79390631616115570068359375" lon="6.88639252446591854095458984375">
        <ele>417.399993896484375</ele>
        <time>2013-09-01T14:09:48.000Z</time>
        <extensions>
          <ns3:TrackPointExtension>
            <ns3:atemp>22.0</ns3:atemp>
          </ns3:TrackPointExtension>
        </extensions>
      </trkpt>
      <trkpt lat="46.79383163340389728546142578125" lon="6.88636771403253078460693359375">
        <ele>417.20001220703125</ele>
        <time>2013-09-01T14:09:49.000Z</time>
        <extensions>
          <ns3:TrackPointExtension>
            <ns3:atemp>22.0</ns3:atemp>
          </ns3:TrackPointExtension>
        </extensions>
      </trkpt>
      <trkpt lat="46.79375921376049518585205078125" lon="6.8863491900265216827392578125">
        <ele>416.600006103515625</ele>
        <time>2013-09-01T14:09:50.000Z</time>
        <extensions>
          <ns3:TrackPointExtension>
            <ns3:atemp>22.0</ns3:atemp>
          </ns3:TrackPointExtension>
        </extensions>
      </trkpt>
      <trkpt lat="46.7936888895928859710693359375" lon="6.8863434903323650360107421875">
        <ele>416.600006103515625</ele>
        <time>2013-09-01T14:09:51.000Z</time>
        <extensions>
          <ns3:TrackPointExtension>
            <ns3:atemp>22.0</ns3:atemp>
          </ns3:TrackPointExtension>
        </extensions>
      </trkpt>
      <trkpt lat="46.7936221696436405181884765625" lon="6.88635698519647121429443359375">
        <ele>416.79998779296875</ele>
        <time>2013-09-01T14:09:52.000Z</time>
        <extensions>
          <ns3:TrackPointExtension>
            <ns3:atemp>22.0</ns3:atemp>
          </ns3:TrackPointExtension>
        </extensions>
      </trkpt>
      <trkpt lat="46.79355838336050510406494140625" lon="6.8863766826689243316650390625">
        <ele>416.600006103515625</ele>
        <time>2013-09-01T14:09:53.000Z</time>
        <extensions>
          <ns3:TrackPointExtension>
            <ns3:atemp>22.0</ns3:atemp>
          </ns3:TrackPointExtension>
        </extensions>
      </trkpt>
      <trkpt lat="46.7934979498386383056640625" lon="6.88639302738010883331298828125">
        <ele>416.79998779296875</ele>
        <time>2013-09-01T14:09:54.000Z</time>
        <extensions>
          <ns3:TrackPointExtension>
            <ns3:atemp>22.0</ns3:atemp>
          </ns3:TrackPointExtension>
        </extensions>
      </trkpt>
      <trkpt lat="46.79344405420124530792236328125" lon="6.88640442676842212677001953125">
        <ele>416.79998779296875</ele>
        <time>2013-09-01T14:09:55.000Z</time>
        <extensions>
          <ns3:TrackPointExtension>
            <ns3:atemp>22.0</ns3:atemp>
          </ns3:TrackPointExtension>
        </extensions>
      </trkpt>
      <trkpt lat="46.793394349515438079833984375" lon="6.8864092044532299041748046875">
        <ele>417</ele>
        <time>2013-09-01T14:09:56.000Z</time>
        <extensions>
          <ns3:TrackPointExtension>
            <ns3:atemp>22.0</ns3:atemp>
          </ns3:TrackPointExtension>
        </extensions>
      </trkpt>
      <trkpt lat="46.79334615357220172882080078125" lon="6.8864045105874538421630859375">
        <ele>417</ele>
        <time>2013-09-01T14:09:57.000Z</time>
        <extensions>
          <ns3:TrackPointExtension>
            <ns3:atemp>22.0</ns3:atemp>
          </ns3:TrackPointExtension>
        </extensions>
      </trkpt>
      <trkpt lat="46.79330089129507541656494140625" lon="6.88639855943620204925537109375">
        <ele>417.399993896484375</ele>
        <time>2013-09-01T14:09:58.000Z</time>
        <extensions>
          <ns3:TrackPointExtension>
            <ns3:atemp>22.0</ns3:atemp>
          </ns3:TrackPointExtension>
        </extensions>
      </trkpt>
      <trkpt lat="46.793256886303424835205078125" lon="6.88638766296207904815673828125">
        <ele>417.399993896484375</ele>
        <time>2013-09-01T14:09:59.000Z</time>
        <extensions>
          <ns3:TrackPointExtension>
            <ns3:atemp>22.0</ns3:atemp>
          </ns3:TrackPointExtension>
        </extensions>
      </trkpt>
      <trkpt lat="46.79321967065334320068359375" lon="6.88637651503086090087890625">
        <ele>417.600006103515625</ele>
        <time>2013-09-01T14:10:00.000Z</time>
        <extensions>
          <ns3:TrackPointExtension>
            <ns3:atemp>22.0</ns3:atemp>
          </ns3:TrackPointExtension>
        </extensions>
      </trkpt>
      <trkpt lat="46.79318354465067386627197265625" lon="6.8863636068999767303466796875">
        <ele>417.79998779296875</ele>
        <time>2013-09-01T14:10:01.000Z</time>
        <extensions>
          <ns3:TrackPointExtension>
            <ns3:atemp>22.0</ns3:atemp>
          </ns3:TrackPointExtension>
        </extensions>
      </trkpt>
      <trkpt lat="46.7931517772376537322998046875" lon="6.88635195605456829071044921875">
        <ele>418</ele>
        <time>2013-09-01T14:10:02.000Z</time>
        <extensions>
          <ns3:TrackPointExtension>
            <ns3:atemp>22.0</ns3:atemp>
          </ns3:TrackPointExtension>
        </extensions>
      </trkpt>
      <trkpt lat="46.793124787509441375732421875" lon="6.8863371200859546661376953125">
        <ele>418.20001220703125</ele>
        <time>2013-09-01T14:10:03.000Z</time>
        <extensions>
          <ns3:TrackPointExtension>
            <ns3:atemp>22.0</ns3:atemp>
          </ns3:TrackPointExtension>
        </extensions>
      </trkpt>
      <trkpt lat="46.7930998094379901885986328125" lon="6.88632152974605560302734375">
        <ele>418.600006103515625</ele>
        <time>2013-09-01T14:10:04.000Z</time>
        <extensions>
          <ns3:TrackPointExtension>
            <ns3:atemp>22.0</ns3:atemp>
          </ns3:TrackPointExtension>
        </extensions>
      </trkpt>
      <trkpt lat="46.793075837194919586181640625" lon="6.8863066099584102630615234375">
        <ele>418.79998779296875</ele>
        <time>2013-09-01T14:10:05.000Z</time>
        <extensions>
          <ns3:TrackPointExtension>
            <ns3:atemp>22.0</ns3:atemp>
          </ns3:TrackPointExtension>
        </extensions>
      </trkpt>
      <trkpt lat="46.79305178113281726837158203125" lon="6.8862928636372089385986328125">
        <ele>419</ele>
        <time>2013-09-01T14:10:06.000Z</time>
        <extensions>
          <ns3:TrackPointExtension>
            <ns3:atemp>22.0</ns3:atemp>
          </ns3:TrackPointExtension>
        </extensions>
      </trkpt>
      <trkpt lat="46.7930304072797298431396484375" lon="6.8862806260585784912109375">
        <ele>419</ele>
        <time>2013-09-01T14:10:07.000Z</time>
        <extensions>
          <ns3:TrackPointExtension>
            <ns3:atemp>22.0</ns3:atemp>
          </ns3:TrackPointExtension>
        </extensions>
      </trkpt>
      <trkpt lat="46.7930109612643718719482421875" lon="6.88626863993704319000244140625">
        <ele>419.399993896484375</ele>
        <time>2013-09-01T14:10:08.000Z</time>
        <extensions>
          <ns3:TrackPointExtension>
            <ns3:atemp>22.0</ns3:atemp>
          </ns3:TrackPointExtension>
        </extensions>
      </trkpt>
      <trkpt lat="46.792992018163204193115234375" lon="6.886253468692302703857421875">
        <ele>419.600006103515625</ele>
        <time>2013-09-01T14:10:09.000Z</time>
        <extensions>
          <ns3:TrackPointExtension>
            <ns3:atemp>22.0</ns3:atemp>
          </ns3:TrackPointExtension>
        </extensions>
      </trkpt>
      <trkpt lat="46.79297399707138538360595703125" lon="6.88623913563787937164306640625">
        <ele>420</ele>
        <time>2013-09-01T14:10:10.000Z</time>
        <extensions>
          <ns3:TrackPointExtension>
            <ns3:atemp>22.0</ns3:atemp>
          </ns3:TrackPointExtension>
        </extensions>
      </trkpt>
      <trkpt lat="46.7929579876363277435302734375" lon="6.88622689805924892425537109375">
        <ele>420.20001220703125</ele>
        <time>2013-09-01T14:10:11.000Z</time>
        <extensions>
          <ns3:TrackPointExtension>
            <ns3:atemp>22.0</ns3:atemp>
          </ns3:TrackPointExtension>
        </extensions>
      </trkpt>
      <trkpt lat="46.79293929599225521087646484375" lon="6.886211223900318145751953125">
        <ele>420.600006103515625</ele>
        <time>2013-09-01T14:10:12.000Z</time>
        <extensions>
          <ns3:TrackPointExtension>
            <ns3:atemp>22.0</ns3:atemp>
          </ns3:TrackPointExtension>
        </extensions>
      </trkpt>
      <trkpt lat="46.79291834123432636260986328125" lon="6.886194460093975067138671875">
        <ele>420.79998779296875</ele>
        <time>2013-09-01T14:10:13.000Z</time>
        <extensions>
          <ns3:TrackPointExtension>
            <ns3:atemp>22.0</ns3:atemp>
          </ns3:TrackPointExtension>
        </extensions>
      </trkpt>
      <trkpt lat="46.79289705120027065277099609375" lon="6.88618079759180545806884765625">
        <ele>421.399993896484375</ele>
        <time>2013-09-01T14:10:14.000Z</time>
        <extensions>
          <ns3:TrackPointExtension>
            <ns3:atemp>22.0</ns3:atemp>
          </ns3:TrackPointExtension>
        </extensions>
      </trkpt>
      <trkpt lat="46.7928748391568660736083984375" lon="6.88616755418479442596435546875">
        <ele>421.79998779296875</ele>
        <time>2013-09-01T14:10:15.000Z</time>
        <extensions>
          <ns3:TrackPointExtension>
            <ns3:atemp>22.0</ns3:atemp>
          </ns3:TrackPointExtension>
        </extensions>
      </trkpt>
      <trkpt lat="46.79285329766571521759033203125" lon="6.8861517123878002166748046875">
        <ele>422</ele>
        <time>2013-09-01T14:10:16.000Z</time>
        <extensions>
          <ns3:TrackPointExtension>
            <ns3:atemp>22.0</ns3:atemp>
          </ns3:TrackPointExtension>
        </extensions>
      </trkpt>
      <trkpt lat="46.792833767831325531005859375" lon="6.886132098734378814697265625">
        <ele>422.20001220703125</ele>
        <time>2013-09-01T14:10:17.000Z</time>
        <extensions>
          <ns3:TrackPointExtension>
            <ns3:atemp>22.0</ns3:atemp>
          </ns3:TrackPointExtension>
        </extensions>
      </trkpt>
      <trkpt lat="46.79281356744468212127685546875" lon="6.886110641062259674072265625">
        <ele>422.20001220703125</ele>
        <time>2013-09-01T14:10:18.000Z</time>
        <extensions>
          <ns3:TrackPointExtension>
            <ns3:atemp>22.0</ns3:atemp>
          </ns3:TrackPointExtension>
        </extensions>
      </trkpt>
      <trkpt lat="46.79279227741062641143798828125" lon="6.8860901892185211181640625">
        <ele>422.600006103515625</ele>
        <time>2013-09-01T14:10:19.000Z</time>
        <extensions>
          <ns3:TrackPointExtension>
            <ns3:atemp>22.0</ns3:atemp>
          </ns3:TrackPointExtension>
        </extensions>
      </trkpt>
      <trkpt lat="46.79277249611914157867431640625" lon="6.886071078479290008544921875">
        <ele>422.79998779296875</ele>
        <time>2013-09-01T14:10:20.000Z</time>
        <extensions>
          <ns3:TrackPointExtension>
            <ns3:atemp>22.0</ns3:atemp>
          </ns3:TrackPointExtension>
        </extensions>
      </trkpt>
      <trkpt lat="46.7927524633705615997314453125" lon="6.88605154864490032196044921875">
        <ele>423.20001220703125</ele>
        <time>2013-09-01T14:10:21.000Z</time>
        <extensions>
          <ns3:TrackPointExtension>
            <ns3:atemp>22.0</ns3:atemp>
          </ns3:TrackPointExtension>
        </extensions>
      </trkpt>
      <trkpt lat="46.7927308380603790283203125" lon="6.8860303424298763275146484375">
        <ele>423.399993896484375</ele>
        <time>2013-09-01T14:10:22.000Z</time>
        <extensions>
          <ns3:TrackPointExtension>
            <ns3:atemp>22.0</ns3:atemp>
          </ns3:TrackPointExtension>
        </extensions>
      </trkpt>
      <trkpt lat="46.79271097294986248016357421875" lon="6.88600729219615459442138671875">
        <ele>423.79998779296875</ele>
        <time>2013-09-01T14:10:23.000Z</time>
        <extensions>
          <ns3:TrackPointExtension>
            <ns3:atemp>22.0</ns3:atemp>
          </ns3:TrackPointExtension>
        </extensions>
      </trkpt>
      <trkpt lat="46.792688257992267608642578125" lon="6.88598281703889369964599609375">
        <ele>424.20001220703125</ele>
        <time>2013-09-01T14:10:24.000Z</time>
        <extensions>
          <ns3:TrackPointExtension>
            <ns3:atemp>22.0</ns3:atemp>
          </ns3:TrackPointExtension>
        </extensions>
      </trkpt>
      <trkpt lat="46.79266353137791156768798828125" lon="6.8859606049954891204833984375">
        <ele>424.600006103515625</ele>
        <time>2013-09-01T14:10:25.000Z</time>
        <extensions>
          <ns3:TrackPointExtension>
            <ns3:atemp>22.0</ns3:atemp>
          </ns3:TrackPointExtension>
        </extensions>
      </trkpt>
      <trkpt lat="46.7926411516964435577392578125" lon="6.88593856059014797210693359375">
        <ele>425</ele>
        <time>2013-09-01T14:10:26.000Z</time>
        <extensions>
          <ns3:TrackPointExtension>
            <ns3:atemp>22.0</ns3:atemp>
          </ns3:TrackPointExtension>
        </extensions>
      </trkpt>
      <trkpt lat="46.7926206998527050018310546875" lon="6.88591877929866313934326171875">
        <ele>425.399993896484375</ele>
        <time>2013-09-01T14:10:27.000Z</time>
        <extensions>
          <ns3:TrackPointExtension>
            <ns3:atemp>22.0</ns3:atemp>
          </ns3:TrackPointExtension>
        </extensions>
      </trkpt>
      <trkpt lat="46.79259471595287322998046875" lon="6.88589698635041713714599609375">
        <ele>425.79998779296875</ele>
        <time>2013-09-01T14:10:28.000Z</time>
        <extensions>
          <ns3:TrackPointExtension>
            <ns3:atemp>22.0</ns3:atemp>
          </ns3:TrackPointExtension>
        </extensions>
      </trkpt>
      <trkpt lat="46.79256713949143886566162109375" lon="6.88587351702153682708740234375">
        <ele>426.20001220703125</ele>
        <time>2013-09-01T14:10:29.000Z</time>
        <extensions>
          <ns3:TrackPointExtension>
            <ns3:atemp>22.0</ns3:atemp>
          </ns3:TrackPointExtension>
        </extensions>
      </trkpt>
      <trkpt lat="46.7925422452390193939208984375" lon="6.88584904186427593231201171875">
        <ele>426.399993896484375</ele>
        <time>2013-09-01T14:10:30.000Z</time>
        <extensions>
          <ns3:TrackPointExtension>
            <ns3:atemp>22.0</ns3:atemp>
          </ns3:TrackPointExtension>
        </extensions>
      </trkpt>
      <trkpt lat="46.7925181053578853607177734375" lon="6.88582557253539562225341796875">
        <ele>426.600006103515625</ele>
        <time>2013-09-01T14:10:31.000Z</time>
        <extensions>
          <ns3:TrackPointExtension>
            <ns3:atemp>22.0</ns3:atemp>
          </ns3:TrackPointExtension>
        </extensions>
      </trkpt>
      <trkpt lat="46.7924932949244976043701171875" lon="6.8858020193874835968017578125">
        <ele>427</ele>
        <time>2013-09-01T14:10:32.000Z</time>
        <extensions>
          <ns3:TrackPointExtension>
            <ns3:atemp>22.0</ns3:atemp>
          </ns3:TrackPointExtension>
        </extensions>
      </trkpt>
      <trkpt lat="46.79246596992015838623046875" lon="6.8857795558869838714599609375">
        <ele>427.399993896484375</ele>
        <time>2013-09-01T14:10:33.000Z</time>
        <extensions>
          <ns3:TrackPointExtension>
            <ns3:atemp>22.0</ns3:atemp>
          </ns3:TrackPointExtension>
        </extensions>
      </trkpt>
      <trkpt lat="46.79244224913418292999267578125" lon="6.88575868494808673858642578125">
        <ele>427.79998779296875</ele>
        <time>2013-09-01T14:10:34.000Z</time>
        <extensions>
          <ns3:TrackPointExtension>
            <ns3:atemp>22.0</ns3:atemp>
          </ns3:TrackPointExtension>
        </extensions>
      </trkpt>
      <trkpt lat="46.79241308011114597320556640625" lon="6.88573689199984073638916015625">
        <ele>428.20001220703125</ele>
        <time>2013-09-01T14:10:35.000Z</time>
        <extensions>
          <ns3:TrackPointExtension>
            <ns3:atemp>22.0</ns3:atemp>
          </ns3:TrackPointExtension>
        </extensions>
      </trkpt>
      <trkpt lat="46.79238256998360157012939453125" lon="6.885712333023548126220703125">
        <ele>428.20001220703125</ele>
        <time>2013-09-01T14:10:36.000Z</time>
        <extensions>
          <ns3:TrackPointExtension>
            <ns3:atemp>22.0</ns3:atemp>
          </ns3:TrackPointExtension>
        </extensions>
      </trkpt>
      <trkpt lat="46.7923553287982940673828125" lon="6.8856890313327312469482421875">
        <ele>428.399993896484375</ele>
        <time>2013-09-01T14:10:37.000Z</time>
        <extensions>
          <ns3:TrackPointExtension>
            <ns3:atemp>22.0</ns3:atemp>
          </ns3:TrackPointExtension>
        </extensions>
      </trkpt>
      <trkpt lat="46.79232926107943058013916015625" lon="6.8856665678322315216064453125">
        <ele>428.399993896484375</ele>
        <time>2013-09-01T14:10:38.000Z</time>
        <extensions>
          <ns3:TrackPointExtension>
            <ns3:atemp>22.0</ns3:atemp>
          </ns3:TrackPointExtension>
        </extensions>
      </trkpt>
      <trkpt lat="46.79230327717959880828857421875" lon="6.88563781790435314178466796875">
        <ele>428.399993896484375</ele>
        <time>2013-09-01T14:10:39.000Z</time>
        <extensions>
          <ns3:TrackPointExtension>
            <ns3:atemp>22.0</ns3:atemp>
          </ns3:TrackPointExtension>
        </extensions>
      </trkpt>
      <trkpt lat="46.792277209460735321044921875" lon="6.88560630194842815399169921875">
        <ele>428.399993896484375</ele>
        <time>2013-09-01T14:10:40.000Z</time>
        <extensions>
          <ns3:TrackPointExtension>
            <ns3:atemp>22.0</ns3:atemp>
          </ns3:TrackPointExtension>
        </extensions>
      </trkpt>
      <trkpt lat="46.79225047118961811065673828125" lon="6.88557545654475688934326171875">
        <ele>428.600006103515625</ele>
        <time>2013-09-01T14:10:41.000Z</time>
        <extensions>
          <ns3:TrackPointExtension>
            <ns3:atemp>22.0</ns3:atemp>
          </ns3:TrackPointExtension>
        </extensions>
      </trkpt>
      <trkpt lat="46.79222398437559604644775390625" lon="6.8855428509414196014404296875">
        <ele>428.79998779296875</ele>
        <time>2013-09-01T14:10:42.000Z</time>
        <extensions>
          <ns3:TrackPointExtension>
            <ns3:atemp>22.0</ns3:atemp>
          </ns3:TrackPointExtension>
        </extensions>
      </trkpt>
      <trkpt lat="46.79219598881900310516357421875" lon="6.885513849556446075439453125">
        <ele>429</ele>
        <time>2013-09-01T14:10:43.000Z</time>
        <extensions>
          <ns3:TrackPointExtension>
            <ns3:atemp>22.0</ns3:atemp>
          </ns3:TrackPointExtension>
        </extensions>
      </trkpt>
      <trkpt lat="46.792166568338871002197265625" lon="6.8854828365147113800048828125">
        <ele>429</ele>
        <time>2013-09-01T14:10:44.000Z</time>
        <extensions>
          <ns3:TrackPointExtension>
            <ns3:atemp>22.0</ns3:atemp>
          </ns3:TrackPointExtension>
        </extensions>
      </trkpt>
      <trkpt lat="46.7921362258493900299072265625" lon="6.8854499794542789459228515625">
        <ele>429</ele>
        <time>2013-09-01T14:10:45.000Z</time>
        <extensions>
          <ns3:TrackPointExtension>
            <ns3:atemp>22.0</ns3:atemp>
          </ns3:TrackPointExtension>
        </extensions>
      </trkpt>
      <trkpt lat="46.79210730828344821929931640625" lon="6.8854201398789882659912109375">
        <ele>429</ele>
        <time>2013-09-01T14:10:46.000Z</time>
        <extensions>
          <ns3:TrackPointExtension>
            <ns3:atemp>22.0</ns3:atemp>
          </ns3:TrackPointExtension>
        </extensions>
      </trkpt>
      <trkpt lat="46.792078055441379547119140625" lon="6.8853919766843318939208984375">
        <ele>429</ele>
        <time>2013-09-01T14:10:47.000Z</time>
        <extensions>
          <ns3:TrackPointExtension>
            <ns3:atemp>22.0</ns3:atemp>
          </ns3:TrackPointExtension>
        </extensions>
      </trkpt>
      <trkpt lat="46.7920467071235179901123046875" lon="6.88536255620419979095458984375">
        <ele>429.20001220703125</ele>
        <time>2013-09-01T14:10:48.000Z</time>
        <extensions>
          <ns3:TrackPointExtension>
            <ns3:atemp>22.0</ns3:atemp>
          </ns3:TrackPointExtension>
        </extensions>
      </trkpt>
      <trkpt lat="46.7920121736824512481689453125" lon="6.88533271662890911102294921875">
        <ele>429.20001220703125</ele>
        <time>2013-09-01T14:10:49.000Z</time>
        <extensions>
          <ns3:TrackPointExtension>
            <ns3:atemp>22.0</ns3:atemp>
          </ns3:TrackPointExtension>
        </extensions>
      </trkpt>
      <trkpt lat="46.79197772406041622161865234375" lon="6.8853024579584598541259765625">
        <ele>429.20001220703125</ele>
        <time>2013-09-01T14:10:50.000Z</time>
        <extensions>
          <ns3:TrackPointExtension>
            <ns3:atemp>22.0</ns3:atemp>
          </ns3:TrackPointExtension>
        </extensions>
      </trkpt>
      <trkpt lat="46.79194252006709575653076171875" lon="6.88527052290737628936767578125">
        <ele>429.20001220703125</ele>
        <time>2013-09-01T14:10:51.000Z</time>
        <extensions>
          <ns3:TrackPointExtension>
            <ns3:atemp>22.0</ns3:atemp>
          </ns3:TrackPointExtension>
        </extensions>
      </trkpt>
      <trkpt lat="46.791909746825695037841796875" lon="6.8852380849421024322509765625">
        <ele>429.399993896484375</ele>
        <time>2013-09-01T14:10:52.000Z</time>
        <extensions>
          <ns3:TrackPointExtension>
            <ns3:atemp>22.0</ns3:atemp>
          </ns3:TrackPointExtension>
        </extensions>
      </trkpt>
      <trkpt lat="46.79187814705073833465576171875" lon="6.88520765863358974456787109375">
        <ele>429.399993896484375</ele>
        <time>2013-09-01T14:10:53.000Z</time>
        <extensions>
          <ns3:TrackPointExtension>
            <ns3:atemp>22.0</ns3:atemp>
          </ns3:TrackPointExtension>
        </extensions>
      </trkpt>
      <trkpt lat="46.791844703257083892822265625" lon="6.88517756760120391845703125">
        <ele>429.399993896484375</ele>
        <time>2013-09-01T14:10:54.000Z</time>
        <extensions>
          <ns3:TrackPointExtension>
            <ns3:atemp>22.0</ns3:atemp>
          </ns3:TrackPointExtension>
        </extensions>
      </trkpt>
      <trkpt lat="46.79181343875825405120849609375" lon="6.8851478956639766693115234375">
        <ele>429.399993896484375</ele>
        <time>2013-09-01T14:10:55.000Z</time>
        <extensions>
          <ns3:TrackPointExtension>
            <ns3:atemp>22.0</ns3:atemp>
          </ns3:TrackPointExtension>
        </extensions>
      </trkpt>
      <trkpt lat="46.7917815037071704864501953125" lon="6.88511780463159084320068359375">
        <ele>429.600006103515625</ele>
        <time>2013-09-01T14:10:56.000Z</time>
        <extensions>
          <ns3:TrackPointExtension>
            <ns3:atemp>22.0</ns3:atemp>
          </ns3:TrackPointExtension>
        </extensions>
      </trkpt>
      <trkpt lat="46.79174554534256458282470703125" lon="6.8850932456552982330322265625">
        <ele>429.399993896484375</ele>
        <time>2013-09-01T14:10:57.000Z</time>
        <extensions>
          <ns3:TrackPointExtension>
            <ns3:atemp>22.0</ns3:atemp>
          </ns3:TrackPointExtension>
        </extensions>
      </trkpt>
      <trkpt lat="46.791711933910846710205078125" lon="6.88506516627967357635498046875">
        <ele>429.399993896484375</ele>
        <time>2013-09-01T14:10:58.000Z</time>
        <extensions>
          <ns3:TrackPointExtension>
            <ns3:atemp>22.0</ns3:atemp>
          </ns3:TrackPointExtension>
        </extensions>
      </trkpt>
      <trkpt lat="46.79167731665074825286865234375" lon="6.88502945937216281890869140625">
        <ele>429.399993896484375</ele>
        <time>2013-09-01T14:10:59.000Z</time>
        <extensions>
          <ns3:TrackPointExtension>
            <ns3:atemp>22.0</ns3:atemp>
          </ns3:TrackPointExtension>
        </extensions>
      </trkpt>
      <trkpt lat="46.791642867028713226318359375" lon="6.88499744050204753875732421875">
        <ele>429.399993896484375</ele>
        <time>2013-09-01T14:11:00.000Z</time>
        <extensions>
          <ns3:TrackPointExtension>
            <ns3:atemp>22.0</ns3:atemp>
          </ns3:TrackPointExtension>
        </extensions>
      </trkpt>
      <trkpt lat="46.7916091717779636383056640625" lon="6.884966678917407989501953125">
        <ele>429.600006103515625</ele>
        <time>2013-09-01T14:11:01.000Z</time>
        <extensions>
          <ns3:TrackPointExtension>
            <ns3:atemp>22.0</ns3:atemp>
          </ns3:TrackPointExtension>
        </extensions>
      </trkpt>
      <trkpt lat="46.79157606326043605804443359375" lon="6.884938180446624755859375">
        <ele>430</ele>
        <time>2013-09-01T14:11:02.000Z</time>
        <extensions>
          <ns3:TrackPointExtension>
            <ns3:atemp>22.0</ns3:atemp>
          </ns3:TrackPointExtension>
        </extensions>
      </trkpt>
      <trkpt lat="46.79154337383806705474853515625" lon="6.8849145434796810150146484375">
        <ele>430.20001220703125</ele>
        <time>2013-09-01T14:11:03.000Z</time>
        <extensions>
          <ns3:TrackPointExtension>
            <ns3:atemp>22.0</ns3:atemp>
          </ns3:TrackPointExtension>
        </extensions>
      </trkpt>
      <trkpt lat="46.7915079183876514434814453125" lon="6.8848940916359424591064453125">
        <ele>430.20001220703125</ele>
        <time>2013-09-01T14:11:04.000Z</time>
        <extensions>
          <ns3:TrackPointExtension>
            <ns3:atemp>22.0</ns3:atemp>
          </ns3:TrackPointExtension>
        </extensions>
      </trkpt>
      <trkpt lat="46.7914710380136966705322265625" lon="6.88487623818218708038330078125">
        <ele>430.20001220703125</ele>
        <time>2013-09-01T14:11:05.000Z</time>
        <extensions>
          <ns3:TrackPointExtension>
            <ns3:atemp>22.0</ns3:atemp>
          </ns3:TrackPointExtension>
        </extensions>
      </trkpt>
      <trkpt lat="46.79143290035426616668701171875" lon="6.88486643135547637939453125">
        <ele>430</ele>
        <time>2013-09-01T14:11:06.000Z</time>
        <extensions>
          <ns3:TrackPointExtension>
            <ns3:atemp>22.0</ns3:atemp>
          </ns3:TrackPointExtension>
        </extensions>
      </trkpt>
      <trkpt lat="46.7913945950567722320556640625" lon="6.88485704362392425537109375">
        <ele>429.79998779296875</ele>
        <time>2013-09-01T14:11:07.000Z</time>
        <extensions>
          <ns3:TrackPointExtension>
            <ns3:atemp>22.0</ns3:atemp>
          </ns3:TrackPointExtension>
        </extensions>
      </trkpt>
      <trkpt lat="46.79135151207447052001953125" lon="6.88484606333076953887939453125">
        <ele>429.600006103515625</ele>
        <time>2013-09-01T14:11:08.000Z</time>
        <extensions>
          <ns3:TrackPointExtension>
            <ns3:atemp>22.0</ns3:atemp>
          </ns3:TrackPointExtension>
        </extensions>
      </trkpt>
      <trkpt lat="46.79130348376929759979248046875" lon="6.88483449630439281463623046875">
        <ele>429.399993896484375</ele>
        <time>2013-09-01T14:11:09.000Z</time>
        <extensions>
          <ns3:TrackPointExtension>
            <ns3:atemp>22.0</ns3:atemp>
          </ns3:TrackPointExtension>
        </extensions>
      </trkpt>
      <trkpt lat="46.79125369526445865631103515625" lon="6.88482628203928470611572265625">
        <ele>429.20001220703125</ele>
        <time>2013-09-01T14:11:10.000Z</time>
        <extensions>
          <ns3:TrackPointExtension>
            <ns3:atemp>22.0</ns3:atemp>
          </ns3:TrackPointExtension>
        </extensions>
      </trkpt>
      <trkpt lat="46.791202314198017120361328125" lon="6.88481957651674747467041015625">
        <ele>428.79998779296875</ele>
        <time>2013-09-01T14:11:11.000Z</time>
        <extensions>
          <ns3:TrackPointExtension>
            <ns3:atemp>22.0</ns3:atemp>
          </ns3:TrackPointExtension>
        </extensions>
      </trkpt>
      <trkpt lat="46.7911510169506072998046875" lon="6.88481144607067108154296875">
        <ele>428.79998779296875</ele>
        <time>2013-09-01T14:11:12.000Z</time>
        <extensions>
          <ns3:TrackPointExtension>
            <ns3:atemp>22.0</ns3:atemp>
          </ns3:TrackPointExtension>
        </extensions>
      </trkpt>
      <trkpt lat="46.79109804332256317138671875" lon="6.884802393615245819091796875">
        <ele>428.79998779296875</ele>
        <time>2013-09-01T14:11:13.000Z</time>
        <extensions>
          <ns3:TrackPointExtension>
            <ns3:atemp>22.0</ns3:atemp>
          </ns3:TrackPointExtension>
        </extensions>
      </trkpt>
      <trkpt lat="46.79103760980069637298583984375" lon="6.88479627482593059539794921875">
        <ele>428.79998779296875</ele>
        <time>2013-09-01T14:11:14.000Z</time>
        <extensions>
          <ns3:TrackPointExtension>
            <ns3:atemp>22.0</ns3:atemp>
          </ns3:TrackPointExtension>
        </extensions>
      </trkpt>
      <trkpt lat="46.79097072221338748931884765625" lon="6.88479694537818431854248046875">
        <ele>428.600006103515625</ele>
        <time>2013-09-01T14:11:15.000Z</time>
        <extensions>
          <ns3:TrackPointExtension>
            <ns3:atemp>22.0</ns3:atemp>
          </ns3:TrackPointExtension>
        </extensions>
      </trkpt>
      <trkpt lat="46.79089863784611225128173828125" lon="6.88481320627033710479736328125">
        <ele>428.399993896484375</ele>
        <time>2013-09-01T14:11:16.000Z</time>
        <extensions>
          <ns3:TrackPointExtension>
            <ns3:atemp>22.0</ns3:atemp>
          </ns3:TrackPointExtension>
        </extensions>
      </trkpt>
      <trkpt lat="46.79082538001239299774169921875" lon="6.8848441354930400848388671875">
        <ele>428.20001220703125</ele>
        <time>2013-09-01T14:11:17.000Z</time>
        <extensions>
          <ns3:TrackPointExtension>
            <ns3:atemp>22.0</ns3:atemp>
          </ns3:TrackPointExtension>
        </extensions>
      </trkpt>
      <trkpt lat="46.7907508648931980133056640625" lon="6.88488897867500782012939453125">
        <ele>428</ele>
        <time>2013-09-01T14:11:18.000Z</time>
        <extensions>
          <ns3:TrackPointExtension>
            <ns3:atemp>22.0</ns3:atemp>
          </ns3:TrackPointExtension>
        </extensions>
      </trkpt>
      <trkpt lat="46.79067936725914478302001953125" lon="6.88494664616882801055908203125">
        <ele>427.399993896484375</ele>
        <time>2013-09-01T14:11:19.000Z</time>
        <extensions>
          <ns3:TrackPointExtension>
            <ns3:atemp>22.0</ns3:atemp>
          </ns3:TrackPointExtension>
        </extensions>
      </trkpt>
      <trkpt lat="46.7906150780618190765380859375" lon="6.88501286320388317108154296875">
        <ele>427.399993896484375</ele>
        <time>2013-09-01T14:11:20.000Z</time>
        <extensions>
          <ns3:TrackPointExtension>
            <ns3:atemp>22.0</ns3:atemp>
          </ns3:TrackPointExtension>
        </extensions>
      </trkpt>
      <trkpt lat="46.7905609309673309326171875" lon="6.88508729450404644012451171875">
        <ele>427</ele>
        <time>2013-09-01T14:11:21.000Z</time>
        <extensions>
          <ns3:TrackPointExtension>
            <ns3:atemp>22.0</ns3:atemp>
          </ns3:TrackPointExtension>
        </extensions>
      </trkpt>
      <trkpt lat="46.79051625542342662811279296875" lon="6.8851680122315883636474609375">
        <ele>427</ele>
        <time>2013-09-01T14:11:22.000Z</time>
        <extensions>
          <ns3:TrackPointExtension>
            <ns3:atemp>22.0</ns3:atemp>
          </ns3:TrackPointExtension>
        </extensions>
      </trkpt>
      <trkpt lat="46.79048859514296054840087890625" lon="6.8852587044239044189453125">
        <ele>426.79998779296875</ele>
        <time>2013-09-01T14:11:23.000Z</time>
        <extensions>
          <ns3:TrackPointExtension>
            <ns3:atemp>22.0</ns3:atemp>
          </ns3:TrackPointExtension>
        </extensions>
      </trkpt>
      <trkpt lat="46.790477447211742401123046875" lon="6.88534663058817386627197265625">
        <ele>426.79998779296875</ele>
        <time>2013-09-01T14:11:24.000Z</time>
        <extensions>
          <ns3:TrackPointExtension>
            <ns3:atemp>22.0</ns3:atemp>
          </ns3:TrackPointExtension>
        </extensions>
      </trkpt>
      <trkpt lat="46.79047116078436374664306640625" lon="6.88543112017214298248291015625">
        <ele>426.79998779296875</ele>
        <time>2013-09-01T14:11:25.000Z</time>
        <extensions>
          <ns3:TrackPointExtension>
            <ns3:atemp>22.0</ns3:atemp>
          </ns3:TrackPointExtension>
        </extensions>
      </trkpt>
      <trkpt lat="46.7904662154614925384521484375" lon="6.88551678322255611419677734375">
        <ele>427</ele>
        <time>2013-09-01T14:11:26.000Z</time>
        <extensions>
          <ns3:TrackPointExtension>
            <ns3:atemp>22.0</ns3:atemp>
          </ns3:TrackPointExtension>
        </extensions>
      </trkpt>
      <trkpt lat="46.79046143777668476104736328125" lon="6.8856021948158740997314453125">
        <ele>427.20001220703125</ele>
        <time>2013-09-01T14:11:27.000Z</time>
        <extensions>
          <ns3:TrackPointExtension>
            <ns3:atemp>22.0</ns3:atemp>
          </ns3:TrackPointExtension>
        </extensions>
      </trkpt>
      <trkpt lat="46.79045489989221096038818359375" lon="6.885689198970794677734375">
        <ele>427.399993896484375</ele>
        <time>2013-09-01T14:11:28.000Z</time>
        <extensions>
          <ns3:TrackPointExtension>
            <ns3:atemp>22.0</ns3:atemp>
          </ns3:TrackPointExtension>
        </extensions>
      </trkpt>
      <trkpt lat="46.79044249467551708221435546875" lon="6.8857688270509243011474609375">
        <ele>427.600006103515625</ele>
        <time>2013-09-01T14:11:29.000Z</time>
        <extensions>
          <ns3:TrackPointExtension>
            <ns3:atemp>22.0</ns3:atemp>
          </ns3:TrackPointExtension>
        </extensions>
      </trkpt>
      <trkpt lat="46.790423132479190826416015625" lon="6.8858409114181995391845703125">
        <ele>427.600006103515625</ele>
        <time>2013-09-01T14:11:30.000Z</time>
        <extensions>
          <ns3:TrackPointExtension>
            <ns3:atemp>22.0</ns3:atemp>
          </ns3:TrackPointExtension>
        </extensions>
      </trkpt>
      <trkpt lat="46.79039823822677135467529296875" lon="6.88590846955776214599609375">
        <ele>427.600006103515625</ele>
        <time>2013-09-01T14:11:31.000Z</time>
        <extensions>
          <ns3:TrackPointExtension>
            <ns3:atemp>22.0</ns3:atemp>
          </ns3:TrackPointExtension>
        </extensions>
      </trkpt>
      <trkpt lat="46.79037359543144702911376953125" lon="6.88597125001251697540283203125">
        <ele>427.79998779296875</ele>
        <time>2013-09-01T14:11:32.000Z</time>
        <extensions>
          <ns3:TrackPointExtension>
            <ns3:atemp>22.0</ns3:atemp>
          </ns3:TrackPointExtension>
        </extensions>
      </trkpt>
      <trkpt lat="46.79035146720707416534423828125" lon="6.88603092916309833526611328125">
        <ele>427.79998779296875</ele>
        <time>2013-09-01T14:11:33.000Z</time>
        <extensions>
          <ns3:TrackPointExtension>
            <ns3:atemp>22.0</ns3:atemp>
          </ns3:TrackPointExtension>
        </extensions>
      </trkpt>
      <trkpt lat="46.7903280816972255706787109375" lon="6.88608792610466480255126953125">
        <ele>428</ele>
        <time>2013-09-01T14:11:34.000Z</time>
        <extensions>
          <ns3:TrackPointExtension>
            <ns3:atemp>22.0</ns3:atemp>
          </ns3:TrackPointExtension>
        </extensions>
      </trkpt>
      <trkpt lat="46.7903007566928863525390625" lon="6.88614718616008758544921875">
        <ele>428</ele>
        <time>2013-09-01T14:11:35.000Z</time>
        <extensions>
          <ns3:TrackPointExtension>
            <ns3:atemp>22.0</ns3:atemp>
          </ns3:TrackPointExtension>
        </extensions>
      </trkpt>
      <trkpt lat="46.79026748053729534149169921875" lon="6.8862123973667621612548828125">
        <ele>428</ele>
        <time>2013-09-01T14:11:36.000Z</time>
        <extensions>
          <ns3:TrackPointExtension>
            <ns3:atemp>22.0</ns3:atemp>
          </ns3:TrackPointExtension>
        </extensions>
      </trkpt>
      <trkpt lat="46.79022967815399169921875" lon="6.88627534545958042144775390625">
        <ele>428.20001220703125</ele>
        <time>2013-09-01T14:11:37.000Z</time>
        <extensions>
          <ns3:TrackPointExtension>
            <ns3:atemp>22.0</ns3:atemp>
          </ns3:TrackPointExtension>
        </extensions>
      </trkpt>
      <trkpt lat="46.79018341004848480224609375" lon="6.88633100129663944244384765625">
        <ele>428.20001220703125</ele>
        <time>2013-09-01T14:11:38.000Z</time>
        <extensions>
          <ns3:TrackPointExtension>
            <ns3:atemp>22.0</ns3:atemp>
          </ns3:TrackPointExtension>
        </extensions>
      </trkpt>
      <trkpt lat="46.79013538174331188201904296875" lon="6.886382214725017547607421875">
        <ele>428.399993896484375</ele>
        <time>2013-09-01T14:11:39.000Z</time>
        <extensions>
          <ns3:TrackPointExtension>
            <ns3:atemp>22.0</ns3:atemp>
          </ns3:TrackPointExtension>
        </extensions>
      </trkpt>
      <trkpt lat="46.7900836654007434844970703125" lon="6.8864308297634124755859375">
        <ele>428.20001220703125</ele>
        <time>2013-09-01T14:11:40.000Z</time>
        <extensions>
          <ns3:TrackPointExtension>
            <ns3:atemp>22.0</ns3:atemp>
          </ns3:TrackPointExtension>
        </extensions>
      </trkpt>
      <trkpt lat="46.79002943448722362518310546875" lon="6.8864739127457141876220703125">
        <ele>428.20001220703125</ele>
        <time>2013-09-01T14:11:41.000Z</time>
        <extensions>
          <ns3:TrackPointExtension>
            <ns3:atemp>22.0</ns3:atemp>
          </ns3:TrackPointExtension>
        </extensions>
      </trkpt>
      <trkpt lat="46.78997428156435489654541015625" lon="6.88651196658611297607421875">
        <ele>428</ele>
        <time>2013-09-01T14:11:42.000Z</time>
        <extensions>
          <ns3:TrackPointExtension>
            <ns3:atemp>21.0</ns3:atemp>
          </ns3:TrackPointExtension>
        </extensions>
      </trkpt>
      <trkpt lat="46.7899197153747081756591796875" lon="6.88654574565589427947998046875">
        <ele>428.20001220703125</ele>
        <time>2013-09-01T14:11:43.000Z</time>
        <extensions>
          <ns3:TrackPointExtension>
            <ns3:atemp>21.0</ns3:atemp>
          </ns3:TrackPointExtension>
        </extensions>
      </trkpt>
      <trkpt lat="46.78986095823347568511962890625" lon="6.88657625578343868255615234375">
        <ele>428.20001220703125</ele>
        <time>2013-09-01T14:11:44.000Z</time>
        <extensions>
          <ns3:TrackPointExtension>
            <ns3:atemp>21.0</ns3:atemp>
          </ns3:TrackPointExtension>
        </extensions>
      </trkpt>
      <trkpt lat="46.7898030392825603485107421875" lon="6.8866043351590633392333984375">
        <ele>428</ele>
        <time>2013-09-01T14:11:45.000Z</time>
        <extensions>
          <ns3:TrackPointExtension>
            <ns3:atemp>21.0</ns3:atemp>
          </ns3:TrackPointExtension>
        </extensions>
      </trkpt>
      <trkpt lat="46.78974646143615245819091796875" lon="6.8866288103163242340087890625">
        <ele>427.79998779296875</ele>
        <time>2013-09-01T14:11:46.000Z</time>
        <extensions>
          <ns3:TrackPointExtension>
            <ns3:atemp>21.0</ns3:atemp>
          </ns3:TrackPointExtension>
        </extensions>
      </trkpt>
      <trkpt lat="46.7896937392652034759521484375" lon="6.8866532854735851287841796875">
        <ele>427.79998779296875</ele>
        <time>2013-09-01T14:11:47.000Z</time>
        <extensions>
          <ns3:TrackPointExtension>
            <ns3:atemp>21.0</ns3:atemp>
          </ns3:TrackPointExtension>
        </extensions>
      </trkpt>
      <trkpt lat="46.7896436154842376708984375" lon="6.88667667098343372344970703125">
        <ele>428</ele>
        <time>2013-09-01T14:11:48.000Z</time>
        <extensions>
          <ns3:TrackPointExtension>
            <ns3:atemp>21.0</ns3:atemp>
          </ns3:TrackPointExtension>
        </extensions>
      </trkpt>
      <trkpt lat="46.78959391079843044281005859375" lon="6.8866978771984577178955078125">
        <ele>428</ele>
        <time>2013-09-01T14:11:49.000Z</time>
        <extensions>
          <ns3:TrackPointExtension>
            <ns3:atemp>21.0</ns3:atemp>
          </ns3:TrackPointExtension>
        </extensions>
      </trkpt>
      <trkpt lat="46.789545714855194091796875" lon="6.886720173060894012451171875">
        <ele>428</ele>
        <time>2013-09-01T14:11:50.000Z</time>
        <extensions>
          <ns3:TrackPointExtension>
            <ns3:atemp>21.0</ns3:atemp>
          </ns3:TrackPointExtension>
        </extensions>
      </trkpt>
      <trkpt lat="46.78949416615068912506103515625" lon="6.88673852942883968353271484375">
        <ele>428</ele>
        <time>2013-09-01T14:11:51.000Z</time>
        <extensions>
          <ns3:TrackPointExtension>
            <ns3:atemp>21.0</ns3:atemp>
          </ns3:TrackPointExtension>
        </extensions>
      </trkpt>
      <trkpt lat="46.78944387473165988922119140625" lon="6.88675177283585071563720703125">
        <ele>427.79998779296875</ele>
        <time>2013-09-01T14:11:52.000Z</time>
        <extensions>
          <ns3:TrackPointExtension>
            <ns3:atemp>21.0</ns3:atemp>
          </ns3:TrackPointExtension>
        </extensions>
      </trkpt>
      <trkpt lat="46.78939626552164554595947265625" lon="6.88675596378743648529052734375">
        <ele>427.79998779296875</ele>
        <time>2013-09-01T14:11:53.000Z</time>
        <extensions>
          <ns3:TrackPointExtension>
            <ns3:atemp>21.0</ns3:atemp>
          </ns3:TrackPointExtension>
        </extensions>
      </trkpt>
      <trkpt lat="46.78935050033032894134521484375" lon="6.88675093464553356170654296875">
        <ele>427.600006103515625</ele>
        <time>2013-09-01T14:11:54.000Z</time>
        <extensions>
          <ns3:TrackPointExtension>
            <ns3:atemp>21.0</ns3:atemp>
          </ns3:TrackPointExtension>
        </extensions>
      </trkpt>
      <trkpt lat="46.78930632770061492919921875" lon="6.886724866926670074462890625">
        <ele>427.600006103515625</ele>
        <time>2013-09-01T14:11:55.000Z</time>
        <extensions>
          <ns3:TrackPointExtension>
            <ns3:atemp>21.0</ns3:atemp>
          </ns3:TrackPointExtension>
        </extensions>
      </trkpt>
      <trkpt lat="46.7892702855169773101806640625" lon="6.88667499460279941558837890625">
        <ele>427.399993896484375</ele>
        <time>2013-09-01T14:11:56.000Z</time>
        <extensions>
          <ns3:TrackPointExtension>
            <ns3:atemp>21.0</ns3:atemp>
          </ns3:TrackPointExtension>
        </extensions>
      </trkpt>
      <trkpt lat="46.7892575450241565704345703125" lon="6.886606514453887939453125">
        <ele>427.20001220703125</ele>
        <time>2013-09-01T14:11:57.000Z</time>
        <extensions>
          <ns3:TrackPointExtension>
            <ns3:atemp>21.0</ns3:atemp>
          </ns3:TrackPointExtension>
        </extensions>
      </trkpt>
      <trkpt lat="46.789266765117645263671875" lon="6.88654524274170398712158203125">
        <ele>427</ele>
        <time>2013-09-01T14:11:58.000Z</time>
        <extensions>
          <ns3:TrackPointExtension>
            <ns3:atemp>21.0</ns3:atemp>
          </ns3:TrackPointExtension>
        </extensions>
      </trkpt>
      <trkpt lat="46.7892860434949398040771484375" lon="6.8864930234849452972412109375">
        <ele>427</ele>
        <time>2013-09-01T14:11:59.000Z</time>
        <extensions>
          <ns3:TrackPointExtension>
            <ns3:atemp>21.0</ns3:atemp>
          </ns3:TrackPointExtension>
        </extensions>
      </trkpt>
      <trkpt lat="46.789301298558712005615234375" lon="6.8864356912672519683837890625">
        <ele>427.20001220703125</ele>
        <time>2013-09-01T14:12:00.000Z</time>
        <extensions>
          <ns3:TrackPointExtension>
            <ns3:atemp>21.0</ns3:atemp>
          </ns3:TrackPointExtension>
        </extensions>
      </trkpt>
      <trkpt lat="46.789318732917308807373046875" lon="6.88638053834438323974609375">
        <ele>427.399993896484375</ele>
        <time>2013-09-01T14:12:01.000Z</time>
        <extensions>
          <ns3:TrackPointExtension>
            <ns3:atemp>21.0</ns3:atemp>
          </ns3:TrackPointExtension>
        </extensions>
      </trkpt>
      <trkpt lat="46.78933583199977874755859375" lon="6.88632563687860965728759765625">
        <ele>427.600006103515625</ele>
        <time>2013-09-01T14:12:02.000Z</time>
        <extensions>
          <ns3:TrackPointExtension>
            <ns3:atemp>21.0</ns3:atemp>
          </ns3:TrackPointExtension>
        </extensions>
      </trkpt>
      <trkpt lat="46.78935016505420207977294921875" lon="6.8862720765173435211181640625">
        <ele>427.600006103515625</ele>
        <time>2013-09-01T14:12:03.000Z</time>
        <extensions>
          <ns3:TrackPointExtension>
            <ns3:atemp>21.0</ns3:atemp>
          </ns3:TrackPointExtension>
        </extensions>
      </trkpt>
      <trkpt lat="46.7893624864518642425537109375" lon="6.88621952198445796966552734375">
        <ele>427.79998779296875</ele>
        <time>2013-09-01T14:12:04.000Z</time>
        <extensions>
          <ns3:TrackPointExtension>
            <ns3:atemp>21.0</ns3:atemp>
          </ns3:TrackPointExtension>
        </extensions>
      </trkpt>
      <trkpt lat="46.78937137126922607421875" lon="6.88616436906158924102783203125">
        <ele>427.600006103515625</ele>
        <time>2013-09-01T14:12:05.000Z</time>
        <extensions>
          <ns3:TrackPointExtension>
            <ns3:atemp>21.0</ns3:atemp>
          </ns3:TrackPointExtension>
        </extensions>
      </trkpt>
      <trkpt lat="46.789379753172397613525390625" lon="6.88610016368329524993896484375">
        <ele>427.600006103515625</ele>
        <time>2013-09-01T14:12:06.000Z</time>
        <extensions>
          <ns3:TrackPointExtension>
            <ns3:atemp>21.0</ns3:atemp>
          </ns3:TrackPointExtension>
        </extensions>
      </trkpt>
      <trkpt lat="46.78938813507556915283203125" lon="6.886033527553081512451171875">
        <ele>427.600006103515625</ele>
        <time>2013-09-01T14:12:07.000Z</time>
        <extensions>
          <ns3:TrackPointExtension>
            <ns3:atemp>21.0</ns3:atemp>
          </ns3:TrackPointExtension>
        </extensions>
      </trkpt>
      <trkpt lat="46.789395846426486968994140625" lon="6.88596521504223346710205078125">
        <ele>427.600006103515625</ele>
        <time>2013-09-01T14:12:08.000Z</time>
        <extensions>
          <ns3:TrackPointExtension>
            <ns3:atemp>21.0</ns3:atemp>
          </ns3:TrackPointExtension>
        </extensions>
      </trkpt>
      <trkpt lat="46.7894054017961025238037109375" lon="6.88589480705559253692626953125">
        <ele>427.79998779296875</ele>
        <time>2013-09-01T14:12:09.000Z</time>
        <extensions>
          <ns3:TrackPointExtension>
            <ns3:atemp>21.0</ns3:atemp>
          </ns3:TrackPointExtension>
        </extensions>
      </trkpt>
      <trkpt lat="46.78941621445119380950927734375" lon="6.8858228065073490142822265625">
        <ele>428</ele>
        <time>2013-09-01T14:12:10.000Z</time>
        <extensions>
          <ns3:TrackPointExtension>
            <ns3:atemp>21.0</ns3:atemp>
          </ns3:TrackPointExtension>
        </extensions>
      </trkpt>
      <trkpt lat="46.7894295416772365570068359375" lon="6.88575801439583301544189453125">
        <ele>428</ele>
        <time>2013-09-01T14:12:11.000Z</time>
        <extensions>
          <ns3:TrackPointExtension>
            <ns3:atemp>21.0</ns3:atemp>
          </ns3:TrackPointExtension>
        </extensions>
      </trkpt>
      <trkpt lat="46.78944312036037445068359375" lon="6.88569649122655391693115234375">
        <ele>428.20001220703125</ele>
        <time>2013-09-01T14:12:12.000Z</time>
        <extensions>
          <ns3:TrackPointExtension>
            <ns3:atemp>21.0</ns3:atemp>
          </ns3:TrackPointExtension>
        </extensions>
      </trkpt>
      <trkpt lat="46.78945661522448062896728515625" lon="6.885637231171131134033203125">
        <ele>428.399993896484375</ele>
        <time>2013-09-01T14:12:13.000Z</time>
        <extensions>
          <ns3:TrackPointExtension>
            <ns3:atemp>21.0</ns3:atemp>
          </ns3:TrackPointExtension>
        </extensions>
      </trkpt>
      <trkpt lat="46.7894701100885868072509765625" lon="6.88557998277246952056884765625">
        <ele>428.79998779296875</ele>
        <time>2013-09-01T14:12:14.000Z</time>
        <extensions>
          <ns3:TrackPointExtension>
            <ns3:atemp>21.0</ns3:atemp>
          </ns3:TrackPointExtension>
        </extensions>
      </trkpt>
      <trkpt lat="46.789483688771724700927734375" lon="6.88552918843924999237060546875">
        <ele>428.79998779296875</ele>
        <time>2013-09-01T14:12:15.000Z</time>
        <extensions>
          <ns3:TrackPointExtension>
            <ns3:atemp>21.0</ns3:atemp>
          </ns3:TrackPointExtension>
        </extensions>
      </trkpt>
      <trkpt lat="46.78949986584484577178955078125" lon="6.88548359088599681854248046875">
        <ele>429.20001220703125</ele>
        <time>2013-09-01T14:12:16.000Z</time>
        <extensions>
          <ns3:TrackPointExtension>
            <ns3:atemp>21.0</ns3:atemp>
          </ns3:TrackPointExtension>
        </extensions>
      </trkpt>
      <trkpt lat="46.78951696492731571197509765625" lon="6.88544419594109058380126953125">
        <ele>429.399993896484375</ele>
        <time>2013-09-01T14:12:17.000Z</time>
        <extensions>
          <ns3:TrackPointExtension>
            <ns3:atemp>21.0</ns3:atemp>
          </ns3:TrackPointExtension>
        </extensions>
      </trkpt>
      <trkpt lat="46.78953708149492740631103515625" lon="6.88540563918650150299072265625">
        <ele>429.600006103515625</ele>
        <time>2013-09-01T14:12:18.000Z</time>
        <extensions>
          <ns3:TrackPointExtension>
            <ns3:atemp>21.0</ns3:atemp>
          </ns3:TrackPointExtension>
        </extensions>
      </trkpt>
      <trkpt lat="46.789557449519634246826171875" lon="6.88536532223224639892578125">
        <ele>429.79998779296875</ele>
        <time>2013-09-01T14:12:19.000Z</time>
        <extensions>
          <ns3:TrackPointExtension>
            <ns3:atemp>21.0</ns3:atemp>
          </ns3:TrackPointExtension>
        </extensions>
      </trkpt>
      <trkpt lat="46.7895819246768951416015625" lon="6.88532098196446895599365234375">
        <ele>430</ele>
        <time>2013-09-01T14:12:20.000Z</time>
        <extensions>
          <ns3:TrackPointExtension>
            <ns3:atemp>21.0</ns3:atemp>
          </ns3:TrackPointExtension>
        </extensions>
      </trkpt>
      <trkpt lat="46.78960480727255344390869140625" lon="6.88527354039251804351806640625">
        <ele>430.20001220703125</ele>
        <time>2013-09-01T14:12:21.000Z</time>
        <extensions>
          <ns3:TrackPointExtension>
            <ns3:atemp>21.0</ns3:atemp>
          </ns3:TrackPointExtension>
        </extensions>
      </trkpt>
      <trkpt lat="46.78962559439241886138916015625" lon="6.88522241078317165374755859375">
        <ele>430.20001220703125</ele>
        <time>2013-09-01T14:12:22.000Z</time>
        <extensions>
          <ns3:TrackPointExtension>
            <ns3:atemp>21.0</ns3:atemp>
          </ns3:TrackPointExtension>
        </extensions>
      </trkpt>
      <trkpt lat="46.78964562714099884033203125" lon="6.885168850421905517578125">
        <ele>430.600006103515625</ele>
        <time>2013-09-01T14:12:23.000Z</time>
        <extensions>
          <ns3:TrackPointExtension>
            <ns3:atemp>21.0</ns3:atemp>
          </ns3:TrackPointExtension>
        </extensions>
      </trkpt>
      <trkpt lat="46.7896597087383270263671875" lon="6.8851190619170665740966796875">
        <ele>430.79998779296875</ele>
        <time>2013-09-01T14:12:24.000Z</time>
        <extensions>
          <ns3:TrackPointExtension>
            <ns3:atemp>21.0</ns3:atemp>
          </ns3:TrackPointExtension>
        </extensions>
      </trkpt>
      <trkpt lat="46.78966700099408626556396484375" lon="6.8850670941174030303955078125">
        <ele>431</ele>
        <time>2013-09-01T14:12:25.000Z</time>
        <extensions>
          <ns3:TrackPointExtension>
            <ns3:atemp>21.0</ns3:atemp>
          </ns3:TrackPointExtension>
        </extensions>
      </trkpt>
      <trkpt lat="46.78966901265084743499755859375" lon="6.885018311440944671630859375">
        <ele>431.20001220703125</ele>
        <time>2013-09-01T14:12:26.000Z</time>
        <extensions>
          <ns3:TrackPointExtension>
            <ns3:atemp>21.0</ns3:atemp>
          </ns3:TrackPointExtension>
        </extensions>
      </trkpt>
      <trkpt lat="46.78966976702213287353515625" lon="6.88496927730739116668701171875">
        <ele>431.20001220703125</ele>
        <time>2013-09-01T14:12:27.000Z</time>
        <extensions>
          <ns3:TrackPointExtension>
            <ns3:atemp>21.0</ns3:atemp>
          </ns3:TrackPointExtension>
        </extensions>
      </trkpt>
      <trkpt lat="46.78967035375535488128662109375" lon="6.884923093020915985107421875">
        <ele>431.20001220703125</ele>
        <time>2013-09-01T14:12:28.000Z</time>
        <extensions>
          <ns3:TrackPointExtension>
            <ns3:atemp>21.0</ns3:atemp>
          </ns3:TrackPointExtension>
        </extensions>
      </trkpt>
      <trkpt lat="46.78966230712831020355224609375" lon="6.884884871542453765869140625">
        <ele>431.399993896484375</ele>
        <time>2013-09-01T14:12:29.000Z</time>
        <extensions>
          <ns3:TrackPointExtension>
            <ns3:atemp>21.0</ns3:atemp>
          </ns3:TrackPointExtension>
        </extensions>
      </trkpt>
      <trkpt lat="46.78964772261679172515869140625" lon="6.88484941609203815460205078125">
        <ele>431.600006103515625</ele>
        <time>2013-09-01T14:12:30.000Z</time>
        <extensions>
          <ns3:TrackPointExtension>
            <ns3:atemp>21.0</ns3:atemp>
          </ns3:TrackPointExtension>
        </extensions>
      </trkpt>
      <trkpt lat="46.7896323837339878082275390625" lon="6.88481873832643032073974609375">
        <ele>431.79998779296875</ele>
        <time>2013-09-01T14:12:31.000Z</time>
        <extensions>
          <ns3:TrackPointExtension>
            <ns3:atemp>21.0</ns3:atemp>
          </ns3:TrackPointExtension>
        </extensions>
      </trkpt>
      <trkpt lat="46.78961520083248615264892578125" lon="6.88478219322860240936279296875">
        <ele>432</ele>
        <time>2013-09-01T14:12:32.000Z</time>
        <extensions>
          <ns3:TrackPointExtension>
            <ns3:atemp>21.0</ns3:atemp>
          </ns3:TrackPointExtension>
        </extensions>
      </trkpt>
      <trkpt lat="46.7895998619496822357177734375" lon="6.8847529403865337371826171875">
        <ele>432.399993896484375</ele>
        <time>2013-09-01T14:12:33.000Z</time>
        <extensions>
          <ns3:TrackPointExtension>
            <ns3:atemp>21.0</ns3:atemp>
          </ns3:TrackPointExtension>
        </extensions>
      </trkpt>
      <trkpt lat="46.7895861156284809112548828125" lon="6.88472486101090908050537109375">
        <ele>432.79998779296875</ele>
        <time>2013-09-01T14:12:34.000Z</time>
        <extensions>
          <ns3:TrackPointExtension>
            <ns3:atemp>21.0</ns3:atemp>
          </ns3:TrackPointExtension>
        </extensions>
      </trkpt>
      <trkpt lat="46.7895680107176303863525390625" lon="6.88470005057752132415771484375">
        <ele>433</ele>
        <time>2013-09-01T14:12:35.000Z</time>
        <extensions>
          <ns3:TrackPointExtension>
            <ns3:atemp>21.0</ns3:atemp>
          </ns3:TrackPointExtension>
        </extensions>
      </trkpt>
      <trkpt lat="46.78954898379743099212646484375" lon="6.88467775471508502960205078125">
        <ele>433.399993896484375</ele>
        <time>2013-09-01T14:12:36.000Z</time>
        <extensions>
          <ns3:TrackPointExtension>
            <ns3:atemp>21.0</ns3:atemp>
          </ns3:TrackPointExtension>
        </extensions>
      </trkpt>
      <trkpt lat="46.78952786140143871307373046875" lon="6.88465562649071216583251953125">
        <ele>433.79998779296875</ele>
        <time>2013-09-01T14:12:37.000Z</time>
        <extensions>
          <ns3:TrackPointExtension>
            <ns3:atemp>21.0</ns3:atemp>
          </ns3:TrackPointExtension>
        </extensions>
      </trkpt>
      <trkpt lat="46.789513528347015380859375" lon="6.88463182188570499420166015625">
        <ele>434.79998779296875</ele>
        <time>2013-09-01T14:12:38.000Z</time>
        <extensions>
          <ns3:TrackPointExtension>
            <ns3:atemp>21.0</ns3:atemp>
          </ns3:TrackPointExtension>
        </extensions>
      </trkpt>
      <trkpt lat="46.78949944674968719482421875" lon="6.88460625708103179931640625">
        <ele>435.20001220703125</ele>
        <time>2013-09-01T14:12:39.000Z</time>
        <extensions>
          <ns3:TrackPointExtension>
            <ns3:atemp>21.0</ns3:atemp>
          </ns3:TrackPointExtension>
        </extensions>
      </trkpt>
      <trkpt lat="46.78948310203850269317626953125" lon="6.8845819495618343353271484375">
        <ele>435.600006103515625</ele>
        <time>2013-09-01T14:12:40.000Z</time>
        <extensions>
          <ns3:TrackPointExtension>
            <ns3:atemp>21.0</ns3:atemp>
          </ns3:TrackPointExtension>
        </extensions>
      </trkpt>
      <trkpt lat="46.78946466185152530670166015625" lon="6.8845586478710174560546875">
        <ele>436.20001220703125</ele>
        <time>2013-09-01T14:12:41.000Z</time>
        <extensions>
          <ns3:TrackPointExtension>
            <ns3:atemp>21.0</ns3:atemp>
          </ns3:TrackPointExtension>
        </extensions>
      </trkpt>
      <trkpt lat="46.7894469760358333587646484375" lon="6.8845333345234394073486328125">
        <ele>436.600006103515625</ele>
        <time>2013-09-01T14:12:42.000Z</time>
        <extensions>
          <ns3:TrackPointExtension>
            <ns3:atemp>21.0</ns3:atemp>
          </ns3:TrackPointExtension>
        </extensions>
      </trkpt>
      <trkpt lat="46.7894282005727291107177734375" lon="6.88450659625232219696044921875">
        <ele>437</ele>
        <time>2013-09-01T14:12:43.000Z</time>
        <extensions>
          <ns3:TrackPointExtension>
            <ns3:atemp>21.0</ns3:atemp>
          </ns3:TrackPointExtension>
        </extensions>
      </trkpt>
      <trkpt lat="46.789411604404449462890625" lon="6.8844746612012386322021484375">
        <ele>437.20001220703125</ele>
        <time>2013-09-01T14:12:44.000Z</time>
        <extensions>
          <ns3:TrackPointExtension>
            <ns3:atemp>21.0</ns3:atemp>
          </ns3:TrackPointExtension>
        </extensions>
      </trkpt>
      <trkpt lat="46.7893963493406772613525390625" lon="6.88444339670240879058837890625">
        <ele>437.600006103515625</ele>
        <time>2013-09-01T14:12:45.000Z</time>
        <extensions>
          <ns3:TrackPointExtension>
            <ns3:atemp>21.0</ns3:atemp>
          </ns3:TrackPointExtension>
        </extensions>
      </trkpt>
      <trkpt lat="46.7893829382956027984619140625" lon="6.88441238366067409515380859375">
        <ele>438</ele>
        <time>2013-09-01T14:12:46.000Z</time>
        <extensions>
          <ns3:TrackPointExtension>
            <ns3:atemp>21.0</ns3:atemp>
          </ns3:TrackPointExtension>
        </extensions>
      </trkpt>
      <trkpt lat="46.78936709649860858917236328125" lon="6.88438371755182743072509765625">
        <ele>438.20001220703125</ele>
        <time>2013-09-01T14:12:47.000Z</time>
        <extensions>
          <ns3:TrackPointExtension>
            <ns3:atemp>21.0</ns3:atemp>
          </ns3:TrackPointExtension>
        </extensions>
      </trkpt>
      <trkpt lat="46.789348237216472625732421875" lon="6.88435387797653675079345703125">
        <ele>438.600006103515625</ele>
        <time>2013-09-01T14:12:48.000Z</time>
        <extensions>
          <ns3:TrackPointExtension>
            <ns3:atemp>21.0</ns3:atemp>
          </ns3:TrackPointExtension>
        </extensions>
      </trkpt>
      <trkpt lat="46.78932887502014636993408203125" lon="6.88432672061026096343994140625">
        <ele>438.79998779296875</ele>
        <time>2013-09-01T14:12:49.000Z</time>
        <extensions>
          <ns3:TrackPointExtension>
            <ns3:atemp>21.0</ns3:atemp>
          </ns3:TrackPointExtension>
        </extensions>
      </trkpt>
      <trkpt lat="46.78931077010929584503173828125" lon="6.88429688103497028350830078125">
        <ele>439</ele>
        <time>2013-09-01T14:12:50.000Z</time>
        <extensions>
          <ns3:TrackPointExtension>
            <ns3:atemp>21.0</ns3:atemp>
          </ns3:TrackPointExtension>
        </extensions>
      </trkpt>
      <trkpt lat="46.78929802961647510528564453125" lon="6.88427391462028026580810546875">
        <ele>439.20001220703125</ele>
        <time>2013-09-01T14:12:51.000Z</time>
        <extensions>
          <ns3:TrackPointExtension>
            <ns3:atemp>21.0</ns3:atemp>
          </ns3:TrackPointExtension>
        </extensions>
      </trkpt>
      <trkpt lat="46.7892826907336711883544921875" lon="6.8842506967484951019287109375">
        <ele>439.399993896484375</ele>
        <time>2013-09-01T14:12:52.000Z</time>
        <extensions>
          <ns3:TrackPointExtension>
            <ns3:atemp>21.0</ns3:atemp>
          </ns3:TrackPointExtension>
        </extensions>
      </trkpt>
      <trkpt lat="46.7892672680318355560302734375" lon="6.8842295743525028228759765625">
        <ele>439.399993896484375</ele>
        <time>2013-09-01T14:12:53.000Z</time>
        <extensions>
          <ns3:TrackPointExtension>
            <ns3:atemp>21.0</ns3:atemp>
          </ns3:TrackPointExtension>
        </extensions>
      </trkpt>
      <trkpt lat="46.78925310261547565460205078125" lon="6.8842191807925701141357421875">
        <ele>439.600006103515625</ele>
        <time>2013-09-01T14:12:54.000Z</time>
        <extensions>
          <ns3:TrackPointExtension>
            <ns3:atemp>21.0</ns3:atemp>
          </ns3:TrackPointExtension>
        </extensions>
      </trkpt>
      <trkpt lat="46.78923659026622772216796875" lon="6.8842030875384807586669921875">
        <ele>439.600006103515625</ele>
        <time>2013-09-01T14:12:55.000Z</time>
        <extensions>
          <ns3:TrackPointExtension>
            <ns3:atemp>21.0</ns3:atemp>
          </ns3:TrackPointExtension>
        </extensions>
      </trkpt>
      <trkpt lat="46.78923969157040119171142578125" lon="6.884203590452671051025390625">
        <ele>439.600006103515625</ele>
        <time>2013-09-01T14:12:56.000Z</time>
        <extensions>
          <ns3:TrackPointExtension>
            <ns3:atemp>21.0</ns3:atemp>
          </ns3:TrackPointExtension>
        </extensions>
      </trkpt>
      <trkpt lat="46.7892136238515377044677734375" lon="6.88416729681193828582763671875">
        <ele>439.600006103515625</ele>
        <time>2013-09-01T14:12:57.000Z</time>
        <extensions>
          <ns3:TrackPointExtension>
            <ns3:atemp>21.0</ns3:atemp>
          </ns3:TrackPointExtension>
        </extensions>
      </trkpt>
      <trkpt lat="46.78920549340546131134033203125" lon="6.884144246578216552734375">
        <ele>439.600006103515625</ele>
        <time>2013-09-01T14:12:58.000Z</time>
        <extensions>
          <ns3:TrackPointExtension>
            <ns3:atemp>21.0</ns3:atemp>
          </ns3:TrackPointExtension>
        </extensions>
      </trkpt>
      <trkpt lat="46.78919996134936809539794921875" lon="6.884115748107433319091796875">
        <ele>439.79998779296875</ele>
        <time>2013-09-01T14:12:59.000Z</time>
        <extensions>
          <ns3:TrackPointExtension>
            <ns3:atemp>21.0</ns3:atemp>
          </ns3:TrackPointExtension>
        </extensions>
      </trkpt>
      <trkpt lat="46.7891935072839260101318359375" lon="6.8840733356773853302001953125">
        <ele>439.79998779296875</ele>
        <time>2013-09-01T14:13:00.000Z</time>
        <extensions>
          <ns3:TrackPointExtension>
            <ns3:atemp>21.0</ns3:atemp>
          </ns3:TrackPointExtension>
        </extensions>
      </trkpt>
      <trkpt lat="46.78918487392365932464599609375" lon="6.884023882448673248291015625">
        <ele>440</ele>
        <time>2013-09-01T14:13:01.000Z</time>
        <extensions>
          <ns3:TrackPointExtension>
            <ns3:atemp>21.0</ns3:atemp>
          </ns3:TrackPointExtension>
        </extensions>
      </trkpt>
      <trkpt lat="46.789174564182758331298828125" lon="6.88397585414350032806396484375">
        <ele>440.20001220703125</ele>
        <time>2013-09-01T14:13:02.000Z</time>
        <extensions>
          <ns3:TrackPointExtension>
            <ns3:atemp>21.0</ns3:atemp>
          </ns3:TrackPointExtension>
        </extensions>
      </trkpt>
      <trkpt lat="46.7891415394842624664306640625" lon="6.883927322924137115478515625">
        <ele>440.399993896484375</ele>
        <time>2013-09-01T14:13:03.000Z</time>
        <extensions>
          <ns3:TrackPointExtension>
            <ns3:atemp>21.0</ns3:atemp>
          </ns3:TrackPointExtension>
        </extensions>
      </trkpt>
      <trkpt lat="46.7891224287450313568115234375" lon="6.8838859163224697113037109375">
        <ele>440.600006103515625</ele>
        <time>2013-09-01T14:13:04.000Z</time>
        <extensions>
          <ns3:TrackPointExtension>
            <ns3:atemp>21.0</ns3:atemp>
          </ns3:TrackPointExtension>
        </extensions>
      </trkpt>
      <trkpt lat="46.7891116999089717864990234375" lon="6.8838446773588657379150390625">
        <ele>440.79998779296875</ele>
        <time>2013-09-01T14:13:05.000Z</time>
        <extensions>
          <ns3:TrackPointExtension>
            <ns3:atemp>21.0</ns3:atemp>
          </ns3:TrackPointExtension>
        </extensions>
      </trkpt>
      <trkpt lat="46.78911195136606693267822265625" lon="6.88379849307239055633544921875">
        <ele>441</ele>
        <time>2013-09-01T14:13:06.000Z</time>
        <extensions>
          <ns3:TrackPointExtension>
            <ns3:atemp>21.0</ns3:atemp>
          </ns3:TrackPointExtension>
        </extensions>
      </trkpt>
      <trkpt lat="46.78911312483251094818115234375" lon="6.88375675119459629058837890625">
        <ele>441</ele>
        <time>2013-09-01T14:13:07.000Z</time>
        <extensions>
          <ns3:TrackPointExtension>
            <ns3:atemp>21.0</ns3:atemp>
          </ns3:TrackPointExtension>
        </extensions>
      </trkpt>
      <trkpt lat="46.78912837989628314971923828125" lon="6.88372322358191013336181640625">
        <ele>441</ele>
        <time>2013-09-01T14:13:08.000Z</time>
        <extensions>
          <ns3:TrackPointExtension>
            <ns3:atemp>21.0</ns3:atemp>
          </ns3:TrackPointExtension>
        </extensions>
      </trkpt>
      <trkpt lat="46.78914799354970455169677734375" lon="6.88369455747306346893310546875">
        <ele>441</ele>
        <time>2013-09-01T14:13:09.000Z</time>
        <extensions>
          <ns3:TrackPointExtension>
            <ns3:atemp>21.0</ns3:atemp>
          </ns3:TrackPointExtension>
        </extensions>
      </trkpt>
      <trkpt lat="46.78916526027023792266845703125" lon="6.883665807545185089111328125">
        <ele>441.20001220703125</ele>
        <time>2013-09-01T14:13:10.000Z</time>
        <extensions>
          <ns3:TrackPointExtension>
            <ns3:atemp>21.0</ns3:atemp>
          </ns3:TrackPointExtension>
        </extensions>
      </trkpt>
      <trkpt lat="46.789183951914310455322265625" lon="6.8836413323879241943359375">
        <ele>441.20001220703125</ele>
        <time>2013-09-01T14:13:11.000Z</time>
        <extensions>
          <ns3:TrackPointExtension>
            <ns3:atemp>21.0</ns3:atemp>
          </ns3:TrackPointExtension>
        </extensions>
      </trkpt>
      <trkpt lat="46.78920038044452667236328125" lon="6.8836140073835849761962890625">
        <ele>441.20001220703125</ele>
        <time>2013-09-01T14:13:12.000Z</time>
        <extensions>
          <ns3:TrackPointExtension>
            <ns3:atemp>21.0</ns3:atemp>
          </ns3:TrackPointExtension>
        </extensions>
      </trkpt>
      <trkpt lat="46.78921253420412540435791015625" lon="6.8835824914276599884033203125">
        <ele>441.20001220703125</ele>
        <time>2013-09-01T14:13:13.000Z</time>
        <extensions>
          <ns3:TrackPointExtension>
            <ns3:atemp>21.0</ns3:atemp>
          </ns3:TrackPointExtension>
        </extensions>
      </trkpt>
      <trkpt lat="46.78922116756439208984375" lon="6.8835496343672275543212890625">
        <ele>441.20001220703125</ele>
        <time>2013-09-01T14:13:14.000Z</time>
        <extensions>
          <ns3:TrackPointExtension>
            <ns3:atemp>21.0</ns3:atemp>
          </ns3:TrackPointExtension>
        </extensions>
      </trkpt>
      <trkpt lat="46.7892283760011196136474609375" lon="6.883515603840351104736328125">
        <ele>441.20001220703125</ele>
        <time>2013-09-01T14:13:15.000Z</time>
        <extensions>
          <ns3:TrackPointExtension>
            <ns3:atemp>21.0</ns3:atemp>
          </ns3:TrackPointExtension>
        </extensions>
      </trkpt>
      <trkpt lat="46.789229214191436767578125" lon="6.88347947783768177032470703125">
        <ele>441.20001220703125</ele>
        <time>2013-09-01T14:13:16.000Z</time>
        <extensions>
          <ns3:TrackPointExtension>
            <ns3:atemp>21.0</ns3:atemp>
          </ns3:TrackPointExtension>
        </extensions>
      </trkpt>
      <trkpt lat="46.789222843945026397705078125" lon="6.88344108872115612030029296875">
        <ele>441.20001220703125</ele>
        <time>2013-09-01T14:13:17.000Z</time>
        <extensions>
          <ns3:TrackPointExtension>
            <ns3:atemp>21.0</ns3:atemp>
          </ns3:TrackPointExtension>
        </extensions>
      </trkpt>
      <trkpt lat="46.78920976817607879638671875" lon="6.88340269960463047027587890625">
        <ele>441.20001220703125</ele>
        <time>2013-09-01T14:13:18.000Z</time>
        <extensions>
          <ns3:TrackPointExtension>
            <ns3:atemp>21.0</ns3:atemp>
          </ns3:TrackPointExtension>
        </extensions>
      </trkpt>
      <trkpt lat="46.789205074310302734375" lon="6.88336196355521678924560546875">
        <ele>441.20001220703125</ele>
        <time>2013-09-01T14:13:19.000Z</time>
        <extensions>
          <ns3:TrackPointExtension>
            <ns3:atemp>21.0</ns3:atemp>
          </ns3:TrackPointExtension>
        </extensions>
      </trkpt>
      <trkpt lat="46.78921245038509368896484375" lon="6.8832827545702457427978515625">
        <ele>441.20001220703125</ele>
        <time>2013-09-01T14:13:21.000Z</time>
        <extensions>
          <ns3:TrackPointExtension>
            <ns3:atemp>21.0</ns3:atemp>
          </ns3:TrackPointExtension>
        </extensions>
      </trkpt>
      <trkpt lat="46.78922292776405811309814453125" lon="6.88325014896690845489501953125">
        <ele>441.399993896484375</ele>
        <time>2013-09-01T14:13:22.000Z</time>
        <extensions>
          <ns3:TrackPointExtension>
            <ns3:atemp>21.0</ns3:atemp>
          </ns3:TrackPointExtension>
        </extensions>
      </trkpt>
      <trkpt lat="46.78923365660011768341064453125" lon="6.88321410678327083587646484375">
        <ele>441.600006103515625</ele>
        <time>2013-09-01T14:13:23.000Z</time>
        <extensions>
          <ns3:TrackPointExtension>
            <ns3:atemp>21.0</ns3:atemp>
          </ns3:TrackPointExtension>
        </extensions>
      </trkpt>
      <trkpt lat="46.78924974985420703887939453125" lon="6.88318443484604358673095703125">
        <ele>441.600006103515625</ele>
        <time>2013-09-01T14:13:24.000Z</time>
        <extensions>
          <ns3:TrackPointExtension>
            <ns3:atemp>21.0</ns3:atemp>
          </ns3:TrackPointExtension>
        </extensions>
      </trkpt>
      <trkpt lat="46.78927003405988216400146484375" lon="6.88316046260297298431396484375">
        <ele>442</ele>
        <time>2013-09-01T14:13:25.000Z</time>
        <extensions>
          <ns3:TrackPointExtension>
            <ns3:atemp>21.0</ns3:atemp>
          </ns3:TrackPointExtension>
        </extensions>
      </trkpt>
      <trkpt lat="46.7892934195697307586669921875" lon="6.8831384181976318359375">
        <ele>442.399993896484375</ele>
        <time>2013-09-01T14:13:26.000Z</time>
        <extensions>
          <ns3:TrackPointExtension>
            <ns3:atemp>21.0</ns3:atemp>
          </ns3:TrackPointExtension>
        </extensions>
      </trkpt>
      <trkpt lat="46.78932317532598972320556640625" lon="6.88311587087810039520263671875">
        <ele>442.399993896484375</ele>
        <time>2013-09-01T14:13:27.000Z</time>
        <extensions>
          <ns3:TrackPointExtension>
            <ns3:atemp>21.0</ns3:atemp>
          </ns3:TrackPointExtension>
        </extensions>
      </trkpt>
      <trkpt lat="46.789352595806121826171875" lon="6.88308536075055599212646484375">
        <ele>442.399993896484375</ele>
        <time>2013-09-01T14:13:28.000Z</time>
        <extensions>
          <ns3:TrackPointExtension>
            <ns3:atemp>21.0</ns3:atemp>
          </ns3:TrackPointExtension>
        </extensions>
      </trkpt>
      <trkpt lat="46.7893769033253192901611328125" lon="6.88304579816758632659912109375">
        <ele>442.399993896484375</ele>
        <time>2013-09-01T14:13:29.000Z</time>
        <extensions>
          <ns3:TrackPointExtension>
            <ns3:atemp>21.0</ns3:atemp>
          </ns3:TrackPointExtension>
        </extensions>
      </trkpt>
      <trkpt lat="46.78939006291329860687255859375" lon="6.88300003297626972198486328125">
        <ele>442.399993896484375</ele>
        <time>2013-09-01T14:13:30.000Z</time>
        <extensions>
          <ns3:TrackPointExtension>
            <ns3:atemp>21.0</ns3:atemp>
          </ns3:TrackPointExtension>
        </extensions>
      </trkpt>
      <trkpt lat="46.78939408622682094573974609375" lon="6.882952339947223663330078125">
        <ele>442.20001220703125</ele>
        <time>2013-09-01T14:13:31.000Z</time>
        <extensions>
          <ns3:TrackPointExtension>
            <ns3:atemp>21.0</ns3:atemp>
          </ns3:TrackPointExtension>
        </extensions>
      </trkpt>
      <trkpt lat="46.789396516978740692138671875" lon="6.88290179707109928131103515625">
        <ele>442.20001220703125</ele>
        <time>2013-09-01T14:13:32.000Z</time>
        <extensions>
          <ns3:TrackPointExtension>
            <ns3:atemp>21.0</ns3:atemp>
          </ns3:TrackPointExtension>
        </extensions>
      </trkpt>
      <trkpt lat="46.78939886391162872314453125" lon="6.88285418786108493804931640625">
        <ele>442.20001220703125</ele>
        <time>2013-09-01T14:13:33.000Z</time>
        <extensions>
          <ns3:TrackPointExtension>
            <ns3:atemp>21.0</ns3:atemp>
          </ns3:TrackPointExtension>
        </extensions>
      </trkpt>
      <trkpt lat="46.789400875568389892578125" lon="6.8828026391565799713134765625">
        <ele>442.20001220703125</ele>
        <time>2013-09-01T14:13:34.000Z</time>
        <extensions>
          <ns3:TrackPointExtension>
            <ns3:atemp>21.0</ns3:atemp>
          </ns3:TrackPointExtension>
        </extensions>
      </trkpt>
      <trkpt lat="46.7894050665199756622314453125" lon="6.88275343738496303558349609375">
        <ele>442.399993896484375</ele>
        <time>2013-09-01T14:13:35.000Z</time>
        <extensions>
          <ns3:TrackPointExtension>
            <ns3:atemp>21.0</ns3:atemp>
          </ns3:TrackPointExtension>
        </extensions>
      </trkpt>
      <trkpt lat="46.78941152058541774749755859375" lon="6.88270348124206066131591796875">
        <ele>442.399993896484375</ele>
        <time>2013-09-01T14:13:36.000Z</time>
        <extensions>
          <ns3:TrackPointExtension>
            <ns3:atemp>21.0</ns3:atemp>
          </ns3:TrackPointExtension>
        </extensions>
      </trkpt>
      <trkpt lat="46.7894174717366695404052734375" lon="6.88265251927077770233154296875">
        <ele>442.600006103515625</ele>
        <time>2013-09-01T14:13:37.000Z</time>
        <extensions>
          <ns3:TrackPointExtension>
            <ns3:atemp>21.0</ns3:atemp>
          </ns3:TrackPointExtension>
        </extensions>
      </trkpt>
      <trkpt lat="46.78941738791763782501220703125" lon="6.88260407187044620513916015625">
        <ele>442.600006103515625</ele>
        <time>2013-09-01T14:13:38.000Z</time>
        <extensions>
          <ns3:TrackPointExtension>
            <ns3:atemp>21.0</ns3:atemp>
          </ns3:TrackPointExtension>
        </extensions>
      </trkpt>
      <trkpt lat="46.78940800018608570098876953125" lon="6.88255696557462215423583984375">
        <ele>442.600006103515625</ele>
        <time>2013-09-01T14:13:39.000Z</time>
        <extensions>
          <ns3:TrackPointExtension>
            <ns3:atemp>21.0</ns3:atemp>
          </ns3:TrackPointExtension>
        </extensions>
      </trkpt>
      <trkpt lat="46.78939291276037693023681640625" lon="6.88251011073589324951171875">
        <ele>442.600006103515625</ele>
        <time>2013-09-01T14:13:40.000Z</time>
        <extensions>
          <ns3:TrackPointExtension>
            <ns3:atemp>21.0</ns3:atemp>
          </ns3:TrackPointExtension>
        </extensions>
      </trkpt>
      <trkpt lat="46.7893742211163043975830078125" lon="6.8824603222310543060302734375">
        <ele>442.600006103515625</ele>
        <time>2013-09-01T14:13:41.000Z</time>
        <extensions>
          <ns3:TrackPointExtension>
            <ns3:atemp>21.0</ns3:atemp>
          </ns3:TrackPointExtension>
        </extensions>
      </trkpt>
      <trkpt lat="46.789354272186756134033203125" lon="6.882413215935230255126953125">
        <ele>443</ele>
        <time>2013-09-01T14:13:42.000Z</time>
        <extensions>
          <ns3:TrackPointExtension>
            <ns3:atemp>21.0</ns3:atemp>
          </ns3:TrackPointExtension>
        </extensions>
      </trkpt>
      <trkpt lat="46.78933457471430301666259765625" lon="6.882366947829723358154296875">
        <ele>443.20001220703125</ele>
        <time>2013-09-01T14:13:43.000Z</time>
        <extensions>
          <ns3:TrackPointExtension>
            <ns3:atemp>21.0</ns3:atemp>
          </ns3:TrackPointExtension>
        </extensions>
      </trkpt>
      <trkpt lat="46.78931814618408679962158203125" lon="6.8823231942951679229736328125">
        <ele>443.20001220703125</ele>
        <time>2013-09-01T14:13:44.000Z</time>
        <extensions>
          <ns3:TrackPointExtension>
            <ns3:atemp>21.0</ns3:atemp>
          </ns3:TrackPointExtension>
        </extensions>
      </trkpt>
      <trkpt lat="46.78929970599710941314697265625" lon="6.8822806142270565032958984375">
        <ele>443</ele>
        <time>2013-09-01T14:13:45.000Z</time>
        <extensions>
          <ns3:TrackPointExtension>
            <ns3:atemp>21.0</ns3:atemp>
          </ns3:TrackPointExtension>
        </extensions>
      </trkpt>
      <trkpt lat="46.7892810143530368804931640625" lon="6.8822465837001800537109375">
        <ele>443</ele>
        <time>2013-09-01T14:13:46.000Z</time>
        <extensions>
          <ns3:TrackPointExtension>
            <ns3:atemp>21.0</ns3:atemp>
          </ns3:TrackPointExtension>
        </extensions>
      </trkpt>
      <trkpt lat="46.78926207125186920166015625" lon="6.88222135417163372039794921875">
        <ele>442.79998779296875</ele>
        <time>2013-09-01T14:13:47.000Z</time>
        <extensions>
          <ns3:TrackPointExtension>
            <ns3:atemp>21.0</ns3:atemp>
          </ns3:TrackPointExtension>
        </extensions>
      </trkpt>
      <trkpt lat="46.78924824111163616180419921875" lon="6.88220341689884662628173828125">
        <ele>442.600006103515625</ele>
        <time>2013-09-01T14:13:48.000Z</time>
        <extensions>
          <ns3:TrackPointExtension>
            <ns3:atemp>21.0</ns3:atemp>
          </ns3:TrackPointExtension>
        </extensions>
      </trkpt>
      <trkpt lat="46.7892394401133060455322265625" lon="6.88219151459634304046630859375">
        <ele>442.600006103515625</ele>
        <time>2013-09-01T14:13:49.000Z</time>
        <extensions>
          <ns3:TrackPointExtension>
            <ns3:atemp>21.0</ns3:atemp>
          </ns3:TrackPointExtension>
        </extensions>
      </trkpt>
      <trkpt lat="46.78922988474369049072265625" lon="6.88218497671186923980712890625">
        <ele>442.20001220703125</ele>
        <time>2013-09-01T14:13:50.000Z</time>
        <extensions>
          <ns3:TrackPointExtension>
            <ns3:atemp>21.0</ns3:atemp>
          </ns3:TrackPointExtension>
        </extensions>
      </trkpt>
      <trkpt lat="46.78922477178275585174560546875" lon="6.8821786902844905853271484375">
        <ele>442.20001220703125</ele>
        <time>2013-09-01T14:13:51.000Z</time>
        <extensions>
          <ns3:TrackPointExtension>
            <ns3:atemp>21.0</ns3:atemp>
          </ns3:TrackPointExtension>
        </extensions>
      </trkpt>
      <trkpt lat="46.78922695107758045196533203125" lon="6.88218045048415660858154296875">
        <ele>442.20001220703125</ele>
        <time>2013-09-01T14:13:52.000Z</time>
        <extensions>
          <ns3:TrackPointExtension>
            <ns3:atemp>21.0</ns3:atemp>
          </ns3:TrackPointExtension>
        </extensions>
      </trkpt>
      <trkpt lat="46.7892230115830898284912109375" lon="6.8821783550083637237548828125">
        <ele>442.20001220703125</ele>
        <time>2013-09-01T14:13:53.000Z</time>
        <extensions>
          <ns3:TrackPointExtension>
            <ns3:atemp>21.0</ns3:atemp>
          </ns3:TrackPointExtension>
        </extensions>
      </trkpt>
      <trkpt lat="46.7892230115830898284912109375" lon="6.8821783550083637237548828125">
        <ele>442.20001220703125</ele>
        <time>2013-09-01T14:13:54.000Z</time>
        <extensions>
          <ns3:TrackPointExtension>
            <ns3:atemp>21.0</ns3:atemp>
          </ns3:TrackPointExtension>
        </extensions>
      </trkpt>
      <trkpt lat="46.7892230115830898284912109375" lon="6.8821783550083637237548828125">
        <ele>442.20001220703125</ele>
        <time>2013-09-01T14:13:55.000Z</time>
        <extensions>
          <ns3:TrackPointExtension>
            <ns3:atemp>21.0</ns3:atemp>
          </ns3:TrackPointExtension>
        </extensions>
      </trkpt>
      <trkpt lat="46.7892230115830898284912109375" lon="6.8821783550083637237548828125">
        <ele>442.20001220703125</ele>
        <time>2013-09-01T14:13:56.000Z</time>
        <extensions>
          <ns3:TrackPointExtension>
            <ns3:atemp>21.0</ns3:atemp>
          </ns3:TrackPointExtension>
        </extensions>
      </trkpt>
      <trkpt lat="46.7892230115830898284912109375" lon="6.8821783550083637237548828125">
        <ele>442.20001220703125</ele>
        <time>2013-09-01T14:13:57.000Z</time>
        <extensions>
          <ns3:TrackPointExtension>
            <ns3:atemp>21.0</ns3:atemp>
          </ns3:TrackPointExtension>
        </extensions>
      </trkpt>
      <trkpt lat="46.7892230115830898284912109375" lon="6.8821783550083637237548828125">
        <ele>442.20001220703125</ele>
        <time>2013-09-01T14:13:58.000Z</time>
        <extensions>
          <ns3:TrackPointExtension>
            <ns3:atemp>21.0</ns3:atemp>
          </ns3:TrackPointExtension>
        </extensions>
      </trkpt>
      <trkpt lat="46.7892230115830898284912109375" lon="6.8821783550083637237548828125">
        <ele>442.20001220703125</ele>
        <time>2013-09-01T14:13:59.000Z</time>
        <extensions>
          <ns3:TrackPointExtension>
            <ns3:atemp>21.0</ns3:atemp>
          </ns3:TrackPointExtension>
        </extensions>
      </trkpt>
      <trkpt lat="46.7892230115830898284912109375" lon="6.8821783550083637237548828125">
        <ele>442.20001220703125</ele>
        <time>2013-09-01T14:14:00.000Z</time>
        <extensions>
          <ns3:TrackPointExtension>
            <ns3:atemp>21.0</ns3:atemp>
          </ns3:TrackPointExtension>
        </extensions>
      </trkpt>
      <trkpt lat="46.78921270184218883514404296875" lon="6.88216972164809703826904296875">
        <ele>442.20001220703125</ele>
        <time>2013-09-01T14:14:01.000Z</time>
        <extensions>
          <ns3:TrackPointExtension>
            <ns3:atemp>21.0</ns3:atemp>
          </ns3:TrackPointExtension>
        </extensions>
      </trkpt>
      <trkpt lat="46.7892039008438587188720703125" lon="6.88216586597263813018798828125">
        <ele>442.399993896484375</ele>
        <time>2013-09-01T14:14:02.000Z</time>
        <extensions>
          <ns3:TrackPointExtension>
            <ns3:atemp>21.0</ns3:atemp>
          </ns3:TrackPointExtension>
        </extensions>
      </trkpt>
      <trkpt lat="46.78919526748359203338623046875" lon="6.88215832225978374481201171875">
        <ele>442.399993896484375</ele>
        <time>2013-09-01T14:14:03.000Z</time>
        <extensions>
          <ns3:TrackPointExtension>
            <ns3:atemp>21.0</ns3:atemp>
          </ns3:TrackPointExtension>
        </extensions>
      </trkpt>
      <trkpt lat="46.78919828496873378753662109375" lon="6.88216008245944976806640625">
        <ele>442.600006103515625</ele>
        <time>2013-09-01T14:14:04.000Z</time>
        <extensions>
          <ns3:TrackPointExtension>
            <ns3:atemp>21.0</ns3:atemp>
          </ns3:TrackPointExtension>
        </extensions>
      </trkpt>
      <trkpt lat="46.789186634123325347900390625" lon="6.88215279020369052886962890625">
        <ele>442.79998779296875</ele>
        <time>2013-09-01T14:14:05.000Z</time>
        <extensions>
          <ns3:TrackPointExtension>
            <ns3:atemp>21.0</ns3:atemp>
          </ns3:TrackPointExtension>
        </extensions>
      </trkpt>
      <trkpt lat="46.78918135352432727813720703125" lon="6.88214759342372417449951171875">
        <ele>443</ele>
        <time>2013-09-01T14:14:06.000Z</time>
        <extensions>
          <ns3:TrackPointExtension>
            <ns3:atemp>21.0</ns3:atemp>
          </ns3:TrackPointExtension>
        </extensions>
      </trkpt>
      <trkpt lat="46.78917397744953632354736328125" lon="6.8821377865970134735107421875">
        <ele>443</ele>
        <time>2013-09-01T14:14:07.000Z</time>
        <extensions>
          <ns3:TrackPointExtension>
            <ns3:atemp>21.0</ns3:atemp>
          </ns3:TrackPointExtension>
        </extensions>
      </trkpt>
      <trkpt lat="46.7891686968505382537841796875" lon="6.8821283988654613494873046875">
        <ele>443</ele>
        <time>2013-09-01T14:14:08.000Z</time>
        <extensions>
          <ns3:TrackPointExtension>
            <ns3:atemp>21.0</ns3:atemp>
          </ns3:TrackPointExtension>
        </extensions>
      </trkpt>
      <trkpt lat="46.789161153137683868408203125" lon="6.8821193464100360870361328125">
        <ele>443</ele>
        <time>2013-09-01T14:14:09.000Z</time>
        <extensions>
          <ns3:TrackPointExtension>
            <ns3:atemp>21.0</ns3:atemp>
          </ns3:TrackPointExtension>
        </extensions>
      </trkpt>
      <trkpt lat="46.7891519330441951751708984375" lon="6.8821042589843273162841796875">
        <ele>443.20001220703125</ele>
        <time>2013-09-01T14:14:10.000Z</time>
        <extensions>
          <ns3:TrackPointExtension>
            <ns3:atemp>21.0</ns3:atemp>
          </ns3:TrackPointExtension>
        </extensions>
      </trkpt>
      <trkpt lat="46.7891425453126430511474609375" lon="6.88208875246345996856689453125">
        <ele>443.20001220703125</ele>
        <time>2013-09-01T14:14:11.000Z</time>
        <extensions>
          <ns3:TrackPointExtension>
            <ns3:atemp>21.0</ns3:atemp>
          </ns3:TrackPointExtension>
        </extensions>
      </trkpt>
      <trkpt lat="46.7891368456184864044189453125" lon="6.8820774368941783905029296875">
        <ele>443.20001220703125</ele>
        <time>2013-09-01T14:14:12.000Z</time>
        <extensions>
          <ns3:TrackPointExtension>
            <ns3:atemp>21.0</ns3:atemp>
          </ns3:TrackPointExtension>
        </extensions>
      </trkpt>
      <trkpt lat="46.7891393601894378662109375" lon="6.88208053819835186004638671875">
        <ele>443.20001220703125</ele>
        <time>2013-09-01T14:14:13.000Z</time>
        <extensions>
          <ns3:TrackPointExtension>
            <ns3:atemp>21.0</ns3:atemp>
          </ns3:TrackPointExtension>
        </extensions>
      </trkpt>
      <trkpt lat="46.7891286313533782958984375" lon="6.88205815851688385009765625">
        <ele>443.399993896484375</ele>
        <time>2013-09-01T14:14:14.000Z</time>
        <extensions>
          <ns3:TrackPointExtension>
            <ns3:atemp>21.0</ns3:atemp>
          </ns3:TrackPointExtension>
        </extensions>
      </trkpt>
      <trkpt lat="46.78912527859210968017578125" lon="6.8820475973188877105712890625">
        <ele>443.399993896484375</ele>
        <time>2013-09-01T14:14:15.000Z</time>
        <extensions>
          <ns3:TrackPointExtension>
            <ns3:atemp>21.0</ns3:atemp>
          </ns3:TrackPointExtension>
        </extensions>
      </trkpt>
      <trkpt lat="46.789122261106967926025390625" lon="6.88203862868249416351318359375">
        <ele>443.399993896484375</ele>
        <time>2013-09-01T14:14:16.000Z</time>
        <extensions>
          <ns3:TrackPointExtension>
            <ns3:atemp>21.0</ns3:atemp>
          </ns3:TrackPointExtension>
        </extensions>
      </trkpt>
      <trkpt lat="46.78911597467958927154541015625" lon="6.88202940858900547027587890625">
        <ele>443.399993896484375</ele>
        <time>2013-09-01T14:14:17.000Z</time>
        <extensions>
          <ns3:TrackPointExtension>
            <ns3:atemp>21.0</ns3:atemp>
          </ns3:TrackPointExtension>
        </extensions>
      </trkpt>
      <trkpt lat="46.789104826748371124267578125" lon="6.882017590105533599853515625">
        <ele>443.399993896484375</ele>
        <time>2013-09-01T14:14:18.000Z</time>
        <extensions>
          <ns3:TrackPointExtension>
            <ns3:atemp>21.0</ns3:atemp>
          </ns3:TrackPointExtension>
        </extensions>
      </trkpt>
      <trkpt lat="46.78910759277641773223876953125" lon="6.88201968558132648468017578125">
        <ele>443.20001220703125</ele>
        <time>2013-09-01T14:14:19.000Z</time>
        <extensions>
          <ns3:TrackPointExtension>
            <ns3:atemp>21.0</ns3:atemp>
          </ns3:TrackPointExtension>
        </extensions>
      </trkpt>
      <trkpt lat="46.78910625167191028594970703125" lon="6.8820016644895076751708984375">
        <ele>443</ele>
        <time>2013-09-01T14:14:20.000Z</time>
        <extensions>
          <ns3:TrackPointExtension>
            <ns3:atemp>21.0</ns3:atemp>
          </ns3:TrackPointExtension>
        </extensions>
      </trkpt>
      <trkpt lat="46.7891060002148151397705078125" lon="6.88198573887348175048828125">
        <ele>442.600006103515625</ele>
        <time>2013-09-01T14:14:21.000Z</time>
        <extensions>
          <ns3:TrackPointExtension>
            <ns3:atemp>21.0</ns3:atemp>
          </ns3:TrackPointExtension>
        </extensions>
      </trkpt>
      <trkpt lat="46.7890952713787555694580078125" lon="6.88196704722940921783447265625">
        <ele>442.399993896484375</ele>
        <time>2013-09-01T14:14:22.000Z</time>
        <extensions>
          <ns3:TrackPointExtension>
            <ns3:atemp>21.0</ns3:atemp>
          </ns3:TrackPointExtension>
        </extensions>
      </trkpt>
      <trkpt lat="46.78908638656139373779296875" lon="6.88195330090820789337158203125">
        <ele>442.20001220703125</ele>
        <time>2013-09-01T14:14:23.000Z</time>
        <extensions>
          <ns3:TrackPointExtension>
            <ns3:atemp>21.0</ns3:atemp>
          </ns3:TrackPointExtension>
        </extensions>
      </trkpt>
      <trkpt lat="46.78907699882984161376953125" lon="6.8819356150925159454345703125">
        <ele>442.20001220703125</ele>
        <time>2013-09-01T14:14:24.000Z</time>
        <extensions>
          <ns3:TrackPointExtension>
            <ns3:atemp>21.0</ns3:atemp>
          </ns3:TrackPointExtension>
        </extensions>
      </trkpt>
      <trkpt lat="46.78907054476439952850341796875" lon="6.88191960565745830535888671875">
        <ele>442.20001220703125</ele>
        <time>2013-09-01T14:14:25.000Z</time>
        <extensions>
          <ns3:TrackPointExtension>
            <ns3:atemp>21.0</ns3:atemp>
          </ns3:TrackPointExtension>
        </extensions>
      </trkpt>
      <trkpt lat="46.78906752727925777435302734375" lon="6.88190384767949581146240234375">
        <ele>442.399993896484375</ele>
        <time>2013-09-01T14:14:26.000Z</time>
        <extensions>
          <ns3:TrackPointExtension>
            <ns3:atemp>21.0</ns3:atemp>
          </ns3:TrackPointExtension>
        </extensions>
      </trkpt>
      <trkpt lat="46.78906316868960857391357421875" lon="6.88189161010086536407470703125">
        <ele>442.399993896484375</ele>
        <time>2013-09-01T14:14:27.000Z</time>
        <extensions>
          <ns3:TrackPointExtension>
            <ns3:atemp>21.0</ns3:atemp>
          </ns3:TrackPointExtension>
        </extensions>
      </trkpt>
      <trkpt lat="46.78905394859611988067626953125" lon="6.8818809650838375091552734375">
        <ele>442.399993896484375</ele>
        <time>2013-09-01T14:14:28.000Z</time>
        <extensions>
          <ns3:TrackPointExtension>
            <ns3:atemp>21.0</ns3:atemp>
          </ns3:TrackPointExtension>
        </extensions>
      </trkpt>
      <trkpt lat="46.78904724307358264923095703125" lon="6.88186679966747760772705078125">
        <ele>442.600006103515625</ele>
        <time>2013-09-01T14:14:29.000Z</time>
        <extensions>
          <ns3:TrackPointExtension>
            <ns3:atemp>21.0</ns3:atemp>
          </ns3:TrackPointExtension>
        </extensions>
      </trkpt>
      <trkpt lat="46.7890374362468719482421875" lon="6.88185640610754489898681640625">
        <ele>442.600006103515625</ele>
        <time>2013-09-01T14:14:30.000Z</time>
        <extensions>
          <ns3:TrackPointExtension>
            <ns3:atemp>21.0</ns3:atemp>
          </ns3:TrackPointExtension>
        </extensions>
      </trkpt>
      <trkpt lat="46.78902561776340007781982421875" lon="6.88184316270053386688232421875">
        <ele>442.399993896484375</ele>
        <time>2013-09-01T14:14:31.000Z</time>
        <extensions>
          <ns3:TrackPointExtension>
            <ns3:atemp>21.0</ns3:atemp>
          </ns3:TrackPointExtension>
        </extensions>
      </trkpt>
      <trkpt lat="46.78900902159512042999267578125" lon="6.88181919045746326446533203125">
        <ele>442.399993896484375</ele>
        <time>2013-09-01T14:14:32.000Z</time>
        <extensions>
          <ns3:TrackPointExtension>
            <ns3:atemp>21.0</ns3:atemp>
          </ns3:TrackPointExtension>
        </extensions>
      </trkpt>
      <trkpt lat="46.788992173969745635986328125" lon="6.881789267063140869140625">
        <ele>442.399993896484375</ele>
        <time>2013-09-01T14:14:33.000Z</time>
        <extensions>
          <ns3:TrackPointExtension>
            <ns3:atemp>21.0</ns3:atemp>
          </ns3:TrackPointExtension>
        </extensions>
      </trkpt>
      <trkpt lat="46.78897230885922908782958984375" lon="6.881749369204044342041015625">
        <ele>442.600006103515625</ele>
        <time>2013-09-01T14:14:34.000Z</time>
        <extensions>
          <ns3:TrackPointExtension>
            <ns3:atemp>21.0</ns3:atemp>
          </ns3:TrackPointExtension>
        </extensions>
      </trkpt>
      <trkpt lat="46.7889507673680782318115234375" lon="6.881703436374664306640625">
        <ele>442.79998779296875</ele>
        <time>2013-09-01T14:14:35.000Z</time>
        <extensions>
          <ns3:TrackPointExtension>
            <ns3:atemp>21.0</ns3:atemp>
          </ns3:TrackPointExtension>
        </extensions>
      </trkpt>
      <trkpt lat="46.7889313213527202606201171875" lon="6.88165507279336452484130859375">
        <ele>442.79998779296875</ele>
        <time>2013-09-01T14:14:36.000Z</time>
        <extensions>
          <ns3:TrackPointExtension>
            <ns3:atemp>21.0</ns3:atemp>
          </ns3:TrackPointExtension>
        </extensions>
      </trkpt>
      <trkpt lat="46.78891397081315517425537109375" lon="6.8816033564507961273193359375">
        <ele>443</ele>
        <time>2013-09-01T14:14:37.000Z</time>
        <extensions>
          <ns3:TrackPointExtension>
            <ns3:atemp>21.0</ns3:atemp>
          </ns3:TrackPointExtension>
        </extensions>
      </trkpt>
      <trkpt lat="46.78890123032033443450927734375" lon="6.88154577277600765228271484375">
        <ele>443.20001220703125</ele>
        <time>2013-09-01T14:14:38.000Z</time>
        <extensions>
          <ns3:TrackPointExtension>
            <ns3:atemp>21.0</ns3:atemp>
          </ns3:TrackPointExtension>
        </extensions>
      </trkpt>
      <trkpt lat="46.7888907529413700103759765625" lon="6.88148307614028453826904296875">
        <ele>443.20001220703125</ele>
        <time>2013-09-01T14:14:39.000Z</time>
        <extensions>
          <ns3:TrackPointExtension>
            <ns3:atemp>21.0</ns3:atemp>
          </ns3:TrackPointExtension>
        </extensions>
      </trkpt>
      <trkpt lat="46.78887851536273956298828125" lon="6.88141845166683197021484375">
        <ele>443.20001220703125</ele>
        <time>2013-09-01T14:14:40.000Z</time>
        <extensions>
          <ns3:TrackPointExtension>
            <ns3:atemp>21.0</ns3:atemp>
          </ns3:TrackPointExtension>
        </extensions>
      </trkpt>
      <trkpt lat="46.788862757384777069091796875" lon="6.88135382719337940216064453125">
        <ele>443.20001220703125</ele>
        <time>2013-09-01T14:14:41.000Z</time>
        <extensions>
          <ns3:TrackPointExtension>
            <ns3:atemp>21.0</ns3:atemp>
          </ns3:TrackPointExtension>
        </extensions>
      </trkpt>
      <trkpt lat="46.78884658031165599822998046875" lon="6.881295740604400634765625">
        <ele>443.20001220703125</ele>
        <time>2013-09-01T14:14:42.000Z</time>
        <extensions>
          <ns3:TrackPointExtension>
            <ns3:atemp>21.0</ns3:atemp>
          </ns3:TrackPointExtension>
        </extensions>
      </trkpt>
      <trkpt lat="46.78883157670497894287109375" lon="6.8812382407486438751220703125">
        <ele>443.20001220703125</ele>
        <time>2013-09-01T14:14:43.000Z</time>
        <extensions>
          <ns3:TrackPointExtension>
            <ns3:atemp>21.0</ns3:atemp>
          </ns3:TrackPointExtension>
        </extensions>
      </trkpt>
      <trkpt lat="46.78882042877376079559326171875" lon="6.881184764206409454345703125">
        <ele>443.20001220703125</ele>
        <time>2013-09-01T14:14:44.000Z</time>
        <extensions>
          <ns3:TrackPointExtension>
            <ns3:atemp>21.0</ns3:atemp>
          </ns3:TrackPointExtension>
        </extensions>
      </trkpt>
      <trkpt lat="46.78880802355706691741943359375" lon="6.8811336345970630645751953125">
        <ele>443.399993896484375</ele>
        <time>2013-09-01T14:14:45.000Z</time>
        <extensions>
          <ns3:TrackPointExtension>
            <ns3:atemp>21.0</ns3:atemp>
          </ns3:TrackPointExtension>
        </extensions>
      </trkpt>
      <trkpt lat="46.788798384368419647216796875" lon="6.88108309172093868255615234375">
        <ele>443.600006103515625</ele>
        <time>2013-09-01T14:14:46.000Z</time>
        <extensions>
          <ns3:TrackPointExtension>
            <ns3:atemp>21.0</ns3:atemp>
          </ns3:TrackPointExtension>
        </extensions>
      </trkpt>
      <trkpt lat="46.788791678845882415771484375" lon="6.8810374103486537933349609375">
        <ele>443.600006103515625</ele>
        <time>2013-09-01T14:14:47.000Z</time>
        <extensions>
          <ns3:TrackPointExtension>
            <ns3:atemp>21.0</ns3:atemp>
          </ns3:TrackPointExtension>
        </extensions>
      </trkpt>
      <trkpt lat="46.788782961666584014892578125" lon="6.880991645157337188720703125">
        <ele>443.600006103515625</ele>
        <time>2013-09-01T14:14:48.000Z</time>
        <extensions>
          <ns3:TrackPointExtension>
            <ns3:atemp>21.0</ns3:atemp>
          </ns3:TrackPointExtension>
        </extensions>
      </trkpt>
      <trkpt lat="46.78877466358244419097900390625" lon="6.88094562850892543792724609375">
        <ele>443.399993896484375</ele>
        <time>2013-09-01T14:14:49.000Z</time>
        <extensions>
          <ns3:TrackPointExtension>
            <ns3:atemp>21.0</ns3:atemp>
          </ns3:TrackPointExtension>
        </extensions>
      </trkpt>
      <trkpt lat="46.78876611404120922088623046875" lon="6.88089433126151561737060546875">
        <ele>443.20001220703125</ele>
        <time>2013-09-01T14:14:50.000Z</time>
        <extensions>
          <ns3:TrackPointExtension>
            <ns3:atemp>21.0</ns3:atemp>
          </ns3:TrackPointExtension>
        </extensions>
      </trkpt>
      <trkpt lat="46.78875689394772052764892578125" lon="6.88084068708121776580810546875">
        <ele>442.79998779296875</ele>
        <time>2013-09-01T14:14:51.000Z</time>
        <extensions>
          <ns3:TrackPointExtension>
            <ns3:atemp>21.0</ns3:atemp>
          </ns3:TrackPointExtension>
        </extensions>
      </trkpt>
      <trkpt lat="46.7887479253113269805908203125" lon="6.8807826004922389984130859375">
        <ele>442.79998779296875</ele>
        <time>2013-09-01T14:14:52.000Z</time>
        <extensions>
          <ns3:TrackPointExtension>
            <ns3:atemp>21.0</ns3:atemp>
          </ns3:TrackPointExtension>
        </extensions>
      </trkpt>
      <trkpt lat="46.78874197416007518768310546875" lon="6.88072375953197479248046875">
        <ele>442.79998779296875</ele>
        <time>2013-09-01T14:14:53.000Z</time>
        <extensions>
          <ns3:TrackPointExtension>
            <ns3:atemp>21.0</ns3:atemp>
          </ns3:TrackPointExtension>
        </extensions>
      </trkpt>
      <trkpt lat="46.7887395434081554412841796875" lon="6.88066282309591770172119140625">
        <ele>442.79998779296875</ele>
        <time>2013-09-01T14:14:54.000Z</time>
        <extensions>
          <ns3:TrackPointExtension>
            <ns3:atemp>21.0</ns3:atemp>
          </ns3:TrackPointExtension>
        </extensions>
      </trkpt>
      <trkpt lat="46.78874515928328037261962890625" lon="6.88060398213565349578857421875">
        <ele>443</ele>
        <time>2013-09-01T14:14:55.000Z</time>
        <extensions>
          <ns3:TrackPointExtension>
            <ns3:atemp>21.0</ns3:atemp>
          </ns3:TrackPointExtension>
        </extensions>
      </trkpt>
      <trkpt lat="46.78875085897743701934814453125" lon="6.88054463826119899749755859375">
        <ele>442.79998779296875</ele>
        <time>2013-09-01T14:14:56.000Z</time>
        <extensions>
          <ns3:TrackPointExtension>
            <ns3:atemp>21.0</ns3:atemp>
          </ns3:TrackPointExtension>
        </extensions>
      </trkpt>
      <trkpt lat="46.788755469024181365966796875" lon="6.88048445619642734527587890625">
        <ele>443</ele>
        <time>2013-09-01T14:14:57.000Z</time>
        <extensions>
          <ns3:TrackPointExtension>
            <ns3:atemp>21.0</ns3:atemp>
          </ns3:TrackPointExtension>
        </extensions>
      </trkpt>
      <trkpt lat="46.788764856755733489990234375" lon="6.88042343594133853912353515625">
        <ele>443</ele>
        <time>2013-09-01T14:14:58.000Z</time>
        <extensions>
          <ns3:TrackPointExtension>
            <ns3:atemp>21.0</ns3:atemp>
          </ns3:TrackPointExtension>
        </extensions>
      </trkpt>
      <trkpt lat="46.78877768106758594512939453125" lon="6.8803594820201396942138671875">
        <ele>443.20001220703125</ele>
        <time>2013-09-01T14:14:59.000Z</time>
        <extensions>
          <ns3:TrackPointExtension>
            <ns3:atemp>21.0</ns3:atemp>
          </ns3:TrackPointExtension>
        </extensions>
      </trkpt>
      <trkpt lat="46.788789331912994384765625" lon="6.8802951090037822723388671875">
        <ele>443.20001220703125</ele>
        <time>2013-09-01T14:15:00.000Z</time>
        <extensions>
          <ns3:TrackPointExtension>
            <ns3:atemp>21.0</ns3:atemp>
          </ns3:TrackPointExtension>
        </extensions>
      </trkpt>
      <trkpt lat="46.78880131803452968597412109375" lon="6.880233921110630035400390625">
        <ele>443.399993896484375</ele>
        <time>2013-09-01T14:15:01.000Z</time>
        <extensions>
          <ns3:TrackPointExtension>
            <ns3:atemp>21.0</ns3:atemp>
          </ns3:TrackPointExtension>
        </extensions>
      </trkpt>
      <trkpt lat="46.788810454308986663818359375" lon="6.88017583452165126800537109375">
        <ele>443.600006103515625</ele>
        <time>2013-09-01T14:15:02.000Z</time>
        <extensions>
          <ns3:TrackPointExtension>
            <ns3:atemp>21.0</ns3:atemp>
          </ns3:TrackPointExtension>
        </extensions>
      </trkpt>
      <trkpt lat="46.78881087340414524078369140625" lon="6.8801197595894336700439453125">
        <ele>443.600006103515625</ele>
        <time>2013-09-01T14:15:03.000Z</time>
        <extensions>
          <ns3:TrackPointExtension>
            <ns3:atemp>21.0</ns3:atemp>
          </ns3:TrackPointExtension>
        </extensions>
      </trkpt>
      <trkpt lat="46.78880668245255947113037109375" lon="6.8800604157149791717529296875">
        <ele>443.79998779296875</ele>
        <time>2013-09-01T14:15:04.000Z</time>
        <extensions>
          <ns3:TrackPointExtension>
            <ns3:atemp>21.0</ns3:atemp>
          </ns3:TrackPointExtension>
        </extensions>
      </trkpt>
      <trkpt lat="46.78879159502685070037841796875" lon="6.88000098802149295806884765625">
        <ele>443.79998779296875</ele>
        <time>2013-09-01T14:15:05.000Z</time>
        <extensions>
          <ns3:TrackPointExtension>
            <ns3:atemp>22.0</ns3:atemp>
          </ns3:TrackPointExtension>
        </extensions>
      </trkpt>
      <trkpt lat="46.7887633480131626129150390625" lon="6.8799541331827640533447265625">
        <ele>443.79998779296875</ele>
        <time>2013-09-01T14:15:06.000Z</time>
        <extensions>
          <ns3:TrackPointExtension>
            <ns3:atemp>22.0</ns3:atemp>
          </ns3:TrackPointExtension>
        </extensions>
      </trkpt>
      <trkpt lat="46.788723953068256378173828125" lon="6.87992337159812450408935546875">
        <ele>443.79998779296875</ele>
        <time>2013-09-01T14:15:07.000Z</time>
        <extensions>
          <ns3:TrackPointExtension>
            <ns3:atemp>22.0</ns3:atemp>
          </ns3:TrackPointExtension>
        </extensions>
      </trkpt>
      <trkpt lat="46.78867793641984462738037109375" lon="6.87990929000079631805419921875">
        <ele>443.79998779296875</ele>
        <time>2013-09-01T14:15:08.000Z</time>
        <extensions>
          <ns3:TrackPointExtension>
            <ns3:atemp>22.0</ns3:atemp>
          </ns3:TrackPointExtension>
        </extensions>
      </trkpt>
      <trkpt lat="46.78862932138144969940185546875" lon="6.8799071945250034332275390625">
        <ele>443.79998779296875</ele>
        <time>2013-09-01T14:15:09.000Z</time>
        <extensions>
          <ns3:TrackPointExtension>
            <ns3:atemp>22.0</ns3:atemp>
          </ns3:TrackPointExtension>
        </extensions>
      </trkpt>
      <trkpt lat="46.78858020342886447906494140625" lon="6.87991364859044551849365234375">
        <ele>444</ele>
        <time>2013-09-01T14:15:10.000Z</time>
        <extensions>
          <ns3:TrackPointExtension>
            <ns3:atemp>22.0</ns3:atemp>
          </ns3:TrackPointExtension>
        </extensions>
      </trkpt>
      <trkpt lat="46.78852940909564495086669921875" lon="6.87991364859044551849365234375">
        <ele>444</ele>
        <time>2013-09-01T14:15:11.000Z</time>
        <extensions>
          <ns3:TrackPointExtension>
            <ns3:atemp>22.0</ns3:atemp>
          </ns3:TrackPointExtension>
        </extensions>
      </trkpt>
      <trkpt lat="46.788477860391139984130859375" lon="6.879912726581096649169921875">
        <ele>444</ele>
        <time>2013-09-01T14:15:12.000Z</time>
        <extensions>
          <ns3:TrackPointExtension>
            <ns3:atemp>22.0</ns3:atemp>
          </ns3:TrackPointExtension>
        </extensions>
      </trkpt>
      <trkpt lat="46.78842430002987384796142578125" lon="6.87991566024720668792724609375">
        <ele>444</ele>
        <time>2013-09-01T14:15:13.000Z</time>
        <extensions>
          <ns3:TrackPointExtension>
            <ns3:atemp>22.0</ns3:atemp>
          </ns3:TrackPointExtension>
        </extensions>
      </trkpt>
      <trkpt lat="46.78837484680116176605224609375" lon="6.87991364859044551849365234375">
        <ele>443.79998779296875</ele>
        <time>2013-09-01T14:15:14.000Z</time>
        <extensions>
          <ns3:TrackPointExtension>
            <ns3:atemp>22.0</ns3:atemp>
          </ns3:TrackPointExtension>
        </extensions>
      </trkpt>
      <trkpt lat="46.78832924924790859222412109375" lon="6.87990258447825908660888671875">
        <ele>443.79998779296875</ele>
        <time>2013-09-01T14:15:15.000Z</time>
        <extensions>
          <ns3:TrackPointExtension>
            <ns3:atemp>22.0</ns3:atemp>
          </ns3:TrackPointExtension>
        </extensions>
      </trkpt>
      <trkpt lat="46.78829102776944637298583984375" lon="6.879887916147708892822265625">
        <ele>443.79998779296875</ele>
        <time>2013-09-01T14:15:16.000Z</time>
        <extensions>
          <ns3:TrackPointExtension>
            <ns3:atemp>22.0</ns3:atemp>
          </ns3:TrackPointExtension>
        </extensions>
      </trkpt>
      <trkpt lat="46.788259930908679962158203125" lon="6.8798728287220001220703125">
        <ele>444</ele>
        <time>2013-09-01T14:15:17.000Z</time>
        <extensions>
          <ns3:TrackPointExtension>
            <ns3:atemp>22.0</ns3:atemp>
          </ns3:TrackPointExtension>
        </extensions>
      </trkpt>
      <trkpt lat="46.7882362939417362213134765625" lon="6.87985195778310298919677734375">
        <ele>444</ele>
        <time>2013-09-01T14:15:18.000Z</time>
        <extensions>
          <ns3:TrackPointExtension>
            <ns3:atemp>22.0</ns3:atemp>
          </ns3:TrackPointExtension>
        </extensions>
      </trkpt>
      <trkpt lat="46.78822246380150318145751953125" lon="6.87982999719679355621337890625">
        <ele>444</ele>
        <time>2013-09-01T14:15:19.000Z</time>
        <extensions>
          <ns3:TrackPointExtension>
            <ns3:atemp>22.0</ns3:atemp>
          </ns3:TrackPointExtension>
        </extensions>
      </trkpt>
      <trkpt lat="46.78821441717445850372314453125" lon="6.87981541268527507781982421875">
        <ele>444.20001220703125</ele>
        <time>2013-09-01T14:15:20.000Z</time>
        <extensions>
          <ns3:TrackPointExtension>
            <ns3:atemp>22.0</ns3:atemp>
          </ns3:TrackPointExtension>
        </extensions>
      </trkpt>
      <trkpt lat="46.7882084660232067108154296875" lon="6.879814155399799346923828125">
        <ele>444.20001220703125</ele>
        <time>2013-09-01T14:15:21.000Z</time>
        <extensions>
          <ns3:TrackPointExtension>
            <ns3:atemp>22.0</ns3:atemp>
          </ns3:TrackPointExtension>
        </extensions>
      </trkpt>
      <trkpt lat="46.78821106441318988800048828125" lon="6.87981373630464076995849609375">
        <ele>444.399993896484375</ele>
        <time>2013-09-01T14:15:22.000Z</time>
        <extensions>
          <ns3:TrackPointExtension>
            <ns3:atemp>22.0</ns3:atemp>
          </ns3:TrackPointExtension>
        </extensions>
      </trkpt>
      <trkpt lat="46.78821106441318988800048828125" lon="6.87981373630464076995849609375">
        <ele>444.399993896484375</ele>
        <time>2013-09-01T14:15:23.000Z</time>
        <extensions>
          <ns3:TrackPointExtension>
            <ns3:atemp>22.0</ns3:atemp>
          </ns3:TrackPointExtension>
        </extensions>
      </trkpt>
      <trkpt lat="46.78821106441318988800048828125" lon="6.87981373630464076995849609375">
        <ele>444.399993896484375</ele>
        <time>2013-09-01T14:15:24.000Z</time>
        <extensions>
          <ns3:TrackPointExtension>
            <ns3:atemp>22.0</ns3:atemp>
          </ns3:TrackPointExtension>
        </extensions>
      </trkpt>
      <trkpt lat="46.78821106441318988800048828125" lon="6.87981373630464076995849609375">
        <ele>444.399993896484375</ele>
        <time>2013-09-01T14:15:25.000Z</time>
        <extensions>
          <ns3:TrackPointExtension>
            <ns3:atemp>22.0</ns3:atemp>
          </ns3:TrackPointExtension>
        </extensions>
      </trkpt>
      <trkpt lat="46.78821106441318988800048828125" lon="6.87981373630464076995849609375">
        <ele>444.600006103515625</ele>
        <time>2013-09-01T14:15:26.000Z</time>
        <extensions>
          <ns3:TrackPointExtension>
            <ns3:atemp>22.0</ns3:atemp>
          </ns3:TrackPointExtension>
        </extensions>
      </trkpt>
      <trkpt lat="46.78821106441318988800048828125" lon="6.87981373630464076995849609375">
        <ele>444.79998779296875</ele>
        <time>2013-09-01T14:15:27.000Z</time>
        <extensions>
          <ns3:TrackPointExtension>
            <ns3:atemp>22.0</ns3:atemp>
          </ns3:TrackPointExtension>
        </extensions>
      </trkpt>
      <trkpt lat="46.78821106441318988800048828125" lon="6.87981373630464076995849609375">
        <ele>444.79998779296875</ele>
        <time>2013-09-01T14:15:28.000Z</time>
        <extensions>
          <ns3:TrackPointExtension>
            <ns3:atemp>22.0</ns3:atemp>
          </ns3:TrackPointExtension>
        </extensions>
      </trkpt>
      <trkpt lat="46.78821106441318988800048828125" lon="6.87981373630464076995849609375">
        <ele>444.79998779296875</ele>
        <time>2013-09-01T14:15:29.000Z</time>
        <extensions>
          <ns3:TrackPointExtension>
            <ns3:atemp>22.0</ns3:atemp>
          </ns3:TrackPointExtension>
        </extensions>
      </trkpt>
      <trkpt lat="46.78821106441318988800048828125" lon="6.87981373630464076995849609375">
        <ele>444.600006103515625</ele>
        <time>2013-09-01T14:15:30.000Z</time>
        <extensions>
          <ns3:TrackPointExtension>
            <ns3:atemp>22.0</ns3:atemp>
          </ns3:TrackPointExtension>
        </extensions>
      </trkpt>
      <trkpt lat="46.78821106441318988800048828125" lon="6.87981373630464076995849609375">
        <ele>444.600006103515625</ele>
        <time>2013-09-01T14:15:31.000Z</time>
        <extensions>
          <ns3:TrackPointExtension>
            <ns3:atemp>22.0</ns3:atemp>
          </ns3:TrackPointExtension>
        </extensions>
      </trkpt>
      <trkpt lat="46.78821156732738018035888671875" lon="6.87980921007692813873291015625">
        <ele>444.600006103515625</ele>
        <time>2013-09-01T14:15:32.000Z</time>
        <extensions>
          <ns3:TrackPointExtension>
            <ns3:atemp>22.0</ns3:atemp>
          </ns3:TrackPointExtension>
        </extensions>
      </trkpt>
      <trkpt lat="46.78821357898414134979248046875" lon="6.8797942064702510833740234375">
        <ele>444.399993896484375</ele>
        <time>2013-09-01T14:15:33.000Z</time>
        <extensions>
          <ns3:TrackPointExtension>
            <ns3:atemp>22.0</ns3:atemp>
          </ns3:TrackPointExtension>
        </extensions>
      </trkpt>
      <trkpt lat="46.7882138304412364959716796875" lon="6.87977752648293972015380859375">
        <ele>444.399993896484375</ele>
        <time>2013-09-01T14:15:34.000Z</time>
        <extensions>
          <ns3:TrackPointExtension>
            <ns3:atemp>22.0</ns3:atemp>
          </ns3:TrackPointExtension>
        </extensions>
      </trkpt>
      <trkpt lat="46.78821290843188762664794921875" lon="6.879753805696964263916015625">
        <ele>444.600006103515625</ele>
        <time>2013-09-01T14:15:35.000Z</time>
        <extensions>
          <ns3:TrackPointExtension>
            <ns3:atemp>22.0</ns3:atemp>
          </ns3:TrackPointExtension>
        </extensions>
      </trkpt>
      <trkpt lat="46.788211651146411895751953125" lon="6.8797191046178340911865234375">
        <ele>444.600006103515625</ele>
        <time>2013-09-01T14:15:36.000Z</time>
        <extensions>
          <ns3:TrackPointExtension>
            <ns3:atemp>22.0</ns3:atemp>
          </ns3:TrackPointExtension>
        </extensions>
      </trkpt>
      <trkpt lat="46.78821207024157047271728515625" lon="6.87967694364488124847412109375">
        <ele>444.600006103515625</ele>
        <time>2013-09-01T14:15:37.000Z</time>
        <extensions>
          <ns3:TrackPointExtension>
            <ns3:atemp>22.0</ns3:atemp>
          </ns3:TrackPointExtension>
        </extensions>
      </trkpt>
      <trkpt lat="46.788214333355426788330078125" lon="6.87963218428194522857666015625">
        <ele>444.79998779296875</ele>
        <time>2013-09-01T14:15:38.000Z</time>
        <extensions>
          <ns3:TrackPointExtension>
            <ns3:atemp>22.0</ns3:atemp>
          </ns3:TrackPointExtension>
        </extensions>
      </trkpt>
      <trkpt lat="46.7882124893367290496826171875" lon="6.879582814872264862060546875">
        <ele>444.79998779296875</ele>
        <time>2013-09-01T14:15:39.000Z</time>
        <extensions>
          <ns3:TrackPointExtension>
            <ns3:atemp>22.0</ns3:atemp>
          </ns3:TrackPointExtension>
        </extensions>
      </trkpt>
      <trkpt lat="46.7882138304412364959716796875" lon="6.879529841244220733642578125">
        <ele>445</ele>
        <time>2013-09-01T14:15:40.000Z</time>
        <extensions>
          <ns3:TrackPointExtension>
            <ns3:atemp>22.0</ns3:atemp>
          </ns3:TrackPointExtension>
        </extensions>
      </trkpt>
      <trkpt lat="46.78821709938347339630126953125" lon="6.87947343103587627410888671875">
        <ele>445.20001220703125</ele>
        <time>2013-09-01T14:15:41.000Z</time>
        <extensions>
          <ns3:TrackPointExtension>
            <ns3:atemp>22.0</ns3:atemp>
          </ns3:TrackPointExtension>
        </extensions>
      </trkpt>
      <trkpt lat="46.7882165126502513885498046875" lon="6.87941542826592922210693359375">
        <ele>445.20001220703125</ele>
        <time>2013-09-01T14:15:42.000Z</time>
        <extensions>
          <ns3:TrackPointExtension>
            <ns3:atemp>22.0</ns3:atemp>
          </ns3:TrackPointExtension>
        </extensions>
      </trkpt>
      <trkpt lat="46.78821257315576076507568359375" lon="6.87935641966760158538818359375">
        <ele>445.20001220703125</ele>
        <time>2013-09-01T14:15:43.000Z</time>
        <extensions>
          <ns3:TrackPointExtension>
            <ns3:atemp>22.0</ns3:atemp>
          </ns3:TrackPointExtension>
        </extensions>
      </trkpt>
      <trkpt lat="46.78820737637579441070556640625" lon="6.87929489649832248687744140625">
        <ele>445</ele>
        <time>2013-09-01T14:15:44.000Z</time>
        <extensions>
          <ns3:TrackPointExtension>
            <ns3:atemp>22.0</ns3:atemp>
          </ns3:TrackPointExtension>
        </extensions>
      </trkpt>
      <trkpt lat="46.7882017605006694793701171875" lon="6.87923002056777477264404296875">
        <ele>445</ele>
        <time>2013-09-01T14:15:45.000Z</time>
        <extensions>
          <ns3:TrackPointExtension>
            <ns3:atemp>22.0</ns3:atemp>
          </ns3:TrackPointExtension>
        </extensions>
      </trkpt>
      <trkpt lat="46.78819765336811542510986328125" lon="6.87916246242821216583251953125">
        <ele>445</ele>
        <time>2013-09-01T14:15:46.000Z</time>
        <extensions>
          <ns3:TrackPointExtension>
            <ns3:atemp>22.0</ns3:atemp>
          </ns3:TrackPointExtension>
        </extensions>
      </trkpt>
      <trkpt lat="46.788194216787815093994140625" lon="6.87909523956477642059326171875">
        <ele>445.20001220703125</ele>
        <time>2013-09-01T14:15:47.000Z</time>
        <extensions>
          <ns3:TrackPointExtension>
            <ns3:atemp>22.0</ns3:atemp>
          </ns3:TrackPointExtension>
        </extensions>
      </trkpt>
      <trkpt lat="46.78818759508430957794189453125" lon="6.879028268158435821533203125">
        <ele>445.20001220703125</ele>
        <time>2013-09-01T14:15:48.000Z</time>
        <extensions>
          <ns3:TrackPointExtension>
            <ns3:atemp>22.0</ns3:atemp>
          </ns3:TrackPointExtension>
        </extensions>
      </trkpt>
      <trkpt lat="46.78818189539015293121337890625" lon="6.87896029092371463775634765625">
        <ele>445.399993896484375</ele>
        <time>2013-09-01T14:15:49.000Z</time>
        <extensions>
          <ns3:TrackPointExtension>
            <ns3:atemp>22.0</ns3:atemp>
          </ns3:TrackPointExtension>
        </extensions>
      </trkpt>
      <trkpt lat="46.7881756089627742767333984375" lon="6.87889390625059604644775390625">
        <ele>445.600006103515625</ele>
        <time>2013-09-01T14:15:50.000Z</time>
        <extensions>
          <ns3:TrackPointExtension>
            <ns3:atemp>22.0</ns3:atemp>
          </ns3:TrackPointExtension>
        </extensions>
      </trkpt>
      <trkpt lat="46.78817032836377620697021484375" lon="6.8788276053965091705322265625">
        <ele>445.600006103515625</ele>
        <time>2013-09-01T14:15:51.000Z</time>
        <extensions>
          <ns3:TrackPointExtension>
            <ns3:atemp>22.0</ns3:atemp>
          </ns3:TrackPointExtension>
        </extensions>
      </trkpt>
      <trkpt lat="46.7881632037460803985595703125" lon="6.8787639029324054718017578125">
        <ele>445.600006103515625</ele>
        <time>2013-09-01T14:15:52.000Z</time>
        <extensions>
          <ns3:TrackPointExtension>
            <ns3:atemp>22.0</ns3:atemp>
          </ns3:TrackPointExtension>
        </extensions>
      </trkpt>
      <trkpt lat="46.7881496250629425048828125" lon="6.878702379763126373291015625">
        <ele>445.399993896484375</ele>
        <time>2013-09-01T14:15:53.000Z</time>
        <extensions>
          <ns3:TrackPointExtension>
            <ns3:atemp>22.0</ns3:atemp>
          </ns3:TrackPointExtension>
        </extensions>
      </trkpt>
      <trkpt lat="46.78813378326594829559326171875" lon="6.8786398507654666900634765625">
        <ele>445</ele>
        <time>2013-09-01T14:15:54.000Z</time>
        <extensions>
          <ns3:TrackPointExtension>
            <ns3:atemp>22.0</ns3:atemp>
          </ns3:TrackPointExtension>
        </extensions>
      </trkpt>
      <trkpt lat="46.78811886347830295562744140625" lon="6.878576315939426422119140625">
        <ele>444.79998779296875</ele>
        <time>2013-09-01T14:15:55.000Z</time>
        <extensions>
          <ns3:TrackPointExtension>
            <ns3:atemp>22.0</ns3:atemp>
          </ns3:TrackPointExtension>
        </extensions>
      </trkpt>
      <trkpt lat="46.78810469806194305419921875" lon="6.878513954579830169677734375">
        <ele>444.79998779296875</ele>
        <time>2013-09-01T14:15:56.000Z</time>
        <extensions>
          <ns3:TrackPointExtension>
            <ns3:atemp>22.0</ns3:atemp>
          </ns3:TrackPointExtension>
        </extensions>
      </trkpt>
      <trkpt lat="46.78809422068297863006591796875" lon="6.87844924628734588623046875">
        <ele>444.600006103515625</ele>
        <time>2013-09-01T14:15:57.000Z</time>
        <extensions>
          <ns3:TrackPointExtension>
            <ns3:atemp>22.0</ns3:atemp>
          </ns3:TrackPointExtension>
        </extensions>
      </trkpt>
      <trkpt lat="46.78809556178748607635498046875" lon="6.87838546000421047210693359375">
        <ele>444.399993896484375</ele>
        <time>2013-09-01T14:15:58.000Z</time>
        <extensions>
          <ns3:TrackPointExtension>
            <ns3:atemp>22.0</ns3:atemp>
          </ns3:TrackPointExtension>
        </extensions>
      </trkpt>
      <trkpt lat="46.78811081685125827789306640625" lon="6.87832586467266082763671875">
        <ele>444.20001220703125</ele>
        <time>2013-09-01T14:15:59.000Z</time>
        <extensions>
          <ns3:TrackPointExtension>
            <ns3:atemp>22.0</ns3:atemp>
          </ns3:TrackPointExtension>
        </extensions>
      </trkpt>
      <trkpt lat="46.78813361562788486480712890625" lon="6.87827515415847301483154296875">
        <ele>443.79998779296875</ele>
        <time>2013-09-01T14:16:00.000Z</time>
        <extensions>
          <ns3:TrackPointExtension>
            <ns3:atemp>22.0</ns3:atemp>
          </ns3:TrackPointExtension>
        </extensions>
      </trkpt>
      <trkpt lat="46.7881710827350616455078125" lon="6.87824984081089496612548828125">
        <ele>443.600006103515625</ele>
        <time>2013-09-01T14:16:01.000Z</time>
        <extensions>
          <ns3:TrackPointExtension>
            <ns3:atemp>22.0</ns3:atemp>
          </ns3:TrackPointExtension>
        </extensions>
      </trkpt>
      <trkpt lat="46.78821676410734653472900390625" lon="6.8782391957938671112060546875">
        <ele>443.600006103515625</ele>
        <time>2013-09-01T14:16:02.000Z</time>
        <extensions>
          <ns3:TrackPointExtension>
            <ns3:atemp>22.0</ns3:atemp>
          </ns3:TrackPointExtension>
        </extensions>
      </trkpt>
      <trkpt lat="46.78826630115509033203125" lon="6.87823324464261531829833984375">
        <ele>443.79998779296875</ele>
        <time>2013-09-01T14:16:03.000Z</time>
        <extensions>
          <ns3:TrackPointExtension>
            <ns3:atemp>22.0</ns3:atemp>
          </ns3:TrackPointExtension>
        </extensions>
      </trkpt>
      <trkpt lat="46.7883184365928173065185546875" lon="6.87822570092976093292236328125">
        <ele>444.399993896484375</ele>
        <time>2013-09-01T14:16:04.000Z</time>
        <extensions>
          <ns3:TrackPointExtension>
            <ns3:atemp>22.0</ns3:atemp>
          </ns3:TrackPointExtension>
        </extensions>
      </trkpt>
      <trkpt lat="46.78837065584957599639892578125" lon="6.8782147206366062164306640625">
        <ele>444.600006103515625</ele>
        <time>2013-09-01T14:16:05.000Z</time>
        <extensions>
          <ns3:TrackPointExtension>
            <ns3:atemp>22.0</ns3:atemp>
          </ns3:TrackPointExtension>
        </extensions>
      </trkpt>
      <trkpt lat="46.78842530585825443267822265625" lon="6.87819904647767543792724609375">
        <ele>444.600006103515625</ele>
        <time>2013-09-01T14:16:06.000Z</time>
        <extensions>
          <ns3:TrackPointExtension>
            <ns3:atemp>22.0</ns3:atemp>
          </ns3:TrackPointExtension>
        </extensions>
      </trkpt>
      <trkpt lat="46.78848062641918659210205078125" lon="6.87818278558552265167236328125">
        <ele>444.600006103515625</ele>
        <time>2013-09-01T14:16:07.000Z</time>
        <extensions>
          <ns3:TrackPointExtension>
            <ns3:atemp>22.0</ns3:atemp>
          </ns3:TrackPointExtension>
        </extensions>
      </trkpt>
      <trkpt lat="46.78853913210332393646240234375" lon="6.8781667761504650115966796875">
        <ele>444.600006103515625</ele>
        <time>2013-09-01T14:16:08.000Z</time>
        <extensions>
          <ns3:TrackPointExtension>
            <ns3:atemp>22.0</ns3:atemp>
          </ns3:TrackPointExtension>
        </extensions>
      </trkpt>
      <trkpt lat="46.78860099054872989654541015625" lon="6.87815227545797824859619140625">
        <ele>444.399993896484375</ele>
        <time>2013-09-01T14:16:09.000Z</time>
        <extensions>
          <ns3:TrackPointExtension>
            <ns3:atemp>22.0</ns3:atemp>
          </ns3:TrackPointExtension>
        </extensions>
      </trkpt>
      <trkpt lat="46.78866268135607242584228515625" lon="6.87813584692776203155517578125">
        <ele>444.600006103515625</ele>
        <time>2013-09-01T14:16:10.000Z</time>
        <extensions>
          <ns3:TrackPointExtension>
            <ns3:atemp>22.0</ns3:atemp>
          </ns3:TrackPointExtension>
        </extensions>
      </trkpt>
      <trkpt lat="46.78872487507760524749755859375" lon="6.8781174905598163604736328125">
        <ele>444.79998779296875</ele>
        <time>2013-09-01T14:16:11.000Z</time>
        <extensions>
          <ns3:TrackPointExtension>
            <ns3:atemp>22.0</ns3:atemp>
          </ns3:TrackPointExtension>
        </extensions>
      </trkpt>
      <trkpt lat="46.78878706879913806915283203125" lon="6.87810081057250499725341796875">
        <ele>445</ele>
        <time>2013-09-01T14:16:12.000Z</time>
        <extensions>
          <ns3:TrackPointExtension>
            <ns3:atemp>22.0</ns3:atemp>
          </ns3:TrackPointExtension>
        </extensions>
      </trkpt>
      <trkpt lat="46.7888510227203369140625" lon="6.87808002345263957977294921875">
        <ele>444.79998779296875</ele>
        <time>2013-09-01T14:16:13.000Z</time>
        <extensions>
          <ns3:TrackPointExtension>
            <ns3:atemp>22.0</ns3:atemp>
          </ns3:TrackPointExtension>
        </extensions>
      </trkpt>
      <trkpt lat="46.78891380317509174346923828125" lon="6.87805672176182270050048828125">
        <ele>444.20001220703125</ele>
        <time>2013-09-01T14:16:14.000Z</time>
        <extensions>
          <ns3:TrackPointExtension>
            <ns3:atemp>22.0</ns3:atemp>
          </ns3:TrackPointExtension>
        </extensions>
      </trkpt>
      <trkpt lat="46.78897784091532230377197265625" lon="6.8780309893190860748291015625">
        <ele>443.79998779296875</ele>
        <time>2013-09-01T14:16:15.000Z</time>
        <extensions>
          <ns3:TrackPointExtension>
            <ns3:atemp>22.0</ns3:atemp>
          </ns3:TrackPointExtension>
        </extensions>
      </trkpt>
      <trkpt lat="46.78904003463685512542724609375" lon="6.87801078893244266510009765625">
        <ele>443.600006103515625</ele>
        <time>2013-09-01T14:16:16.000Z</time>
        <extensions>
          <ns3:TrackPointExtension>
            <ns3:atemp>22.0</ns3:atemp>
          </ns3:TrackPointExtension>
        </extensions>
      </trkpt>
      <trkpt lat="46.7891044914722442626953125" lon="6.87799570150673389434814453125">
        <ele>443.20001220703125</ele>
        <time>2013-09-01T14:16:17.000Z</time>
        <extensions>
          <ns3:TrackPointExtension>
            <ns3:atemp>22.0</ns3:atemp>
          </ns3:TrackPointExtension>
        </extensions>
      </trkpt>
      <trkpt lat="46.78916844539344310760498046875" lon="6.87797307036817073822021484375">
        <ele>443.20001220703125</ele>
        <time>2013-09-01T14:16:18.000Z</time>
        <extensions>
          <ns3:TrackPointExtension>
            <ns3:atemp>22.0</ns3:atemp>
          </ns3:TrackPointExtension>
        </extensions>
      </trkpt>
      <trkpt lat="46.789224855601787567138671875" lon="6.8779334239661693572998046875">
        <ele>442.79998779296875</ele>
        <time>2013-09-01T14:16:19.000Z</time>
        <extensions>
          <ns3:TrackPointExtension>
            <ns3:atemp>22.0</ns3:atemp>
          </ns3:TrackPointExtension>
        </extensions>
      </trkpt>
      <trkpt lat="46.78926383145153522491455078125" lon="6.87787181697785854339599609375">
        <ele>442.399993896484375</ele>
        <time>2013-09-01T14:16:20.000Z</time>
        <extensions>
          <ns3:TrackPointExtension>
            <ns3:atemp>22.0</ns3:atemp>
          </ns3:TrackPointExtension>
        </extensions>
      </trkpt>
      <trkpt lat="46.7892759852111339569091796875" lon="6.8778048455715179443359375">
        <ele>441.600006103515625</ele>
        <time>2013-09-01T14:16:21.000Z</time>
        <extensions>
          <ns3:TrackPointExtension>
            <ns3:atemp>22.0</ns3:atemp>
          </ns3:TrackPointExtension>
        </extensions>
      </trkpt>
      <trkpt lat="46.7892665974795818328857421875" lon="6.8777512013912200927734375">
        <ele>441</ele>
        <time>2013-09-01T14:16:22.000Z</time>
        <extensions>
          <ns3:TrackPointExtension>
            <ns3:atemp>22.0</ns3:atemp>
          </ns3:TrackPointExtension>
        </extensions>
      </trkpt>
      <trkpt lat="46.789245307445526123046875" lon="6.8777136504650115966796875">
        <ele>440.79998779296875</ele>
        <time>2013-09-01T14:16:23.000Z</time>
        <extensions>
          <ns3:TrackPointExtension>
            <ns3:atemp>22.0</ns3:atemp>
          </ns3:TrackPointExtension>
        </extensions>
      </trkpt>
      <trkpt lat="46.7892186529934406280517578125" lon="6.87768540345132350921630859375">
        <ele>441</ele>
        <time>2013-09-01T14:16:24.000Z</time>
        <extensions>
          <ns3:TrackPointExtension>
            <ns3:atemp>22.0</ns3:atemp>
          </ns3:TrackPointExtension>
        </extensions>
      </trkpt>
      <trkpt lat="46.78919023834168910980224609375" lon="6.87766009010374546051025390625">
        <ele>441.399993896484375</ele>
        <time>2013-09-01T14:16:25.000Z</time>
        <extensions>
          <ns3:TrackPointExtension>
            <ns3:atemp>22.0</ns3:atemp>
          </ns3:TrackPointExtension>
        </extensions>
      </trkpt>
      <trkpt lat="46.78916257806122303009033203125" lon="6.87764164991676807403564453125">
        <ele>442</ele>
        <time>2013-09-01T14:16:26.000Z</time>
        <extensions>
          <ns3:TrackPointExtension>
            <ns3:atemp>22.0</ns3:atemp>
          </ns3:TrackPointExtension>
        </extensions>
      </trkpt>
      <trkpt lat="46.7891388572752475738525390625" lon="6.87762706540524959564208984375">
        <ele>442.20001220703125</ele>
        <time>2013-09-01T14:16:27.000Z</time>
        <extensions>
          <ns3:TrackPointExtension>
            <ns3:atemp>22.0</ns3:atemp>
          </ns3:TrackPointExtension>
        </extensions>
      </trkpt>
      <trkpt lat="46.78911748342216014862060546875" lon="6.87761700712144374847412109375">
        <ele>442.79998779296875</ele>
        <time>2013-09-01T14:16:28.000Z</time>
        <extensions>
          <ns3:TrackPointExtension>
            <ns3:atemp>22.0</ns3:atemp>
          </ns3:TrackPointExtension>
        </extensions>
      </trkpt>
      <trkpt lat="46.7891016416251659393310546875" lon="6.87760627828538417816162109375">
        <ele>443</ele>
        <time>2013-09-01T14:16:29.000Z</time>
        <extensions>
          <ns3:TrackPointExtension>
            <ns3:atemp>22.0</ns3:atemp>
          </ns3:TrackPointExtension>
        </extensions>
      </trkpt>
      <trkpt lat="46.78908445872366428375244140625" lon="6.87759454362094402313232421875">
        <ele>443.20001220703125</ele>
        <time>2013-09-01T14:16:30.000Z</time>
        <extensions>
          <ns3:TrackPointExtension>
            <ns3:atemp>22.0</ns3:atemp>
          </ns3:TrackPointExtension>
        </extensions>
      </trkpt>
      <trkpt lat="46.78906920365989208221435546875" lon="6.8775807134807109832763671875">
        <ele>443.399993896484375</ele>
        <time>2013-09-01T14:16:31.000Z</time>
        <extensions>
          <ns3:TrackPointExtension>
            <ns3:atemp>22.0</ns3:atemp>
          </ns3:TrackPointExtension>
        </extensions>
      </trkpt>
      <trkpt lat="46.78905478678643703460693359375" lon="6.877567134797573089599609375">
        <ele>444</ele>
        <time>2013-09-01T14:16:32.000Z</time>
        <extensions>
          <ns3:TrackPointExtension>
            <ns3:atemp>22.0</ns3:atemp>
          </ns3:TrackPointExtension>
        </extensions>
      </trkpt>
      <trkpt lat="46.7890401184558868408203125" lon="6.877549029886722564697265625">
        <ele>444.20001220703125</ele>
        <time>2013-09-01T14:16:33.000Z</time>
        <extensions>
          <ns3:TrackPointExtension>
            <ns3:atemp>22.0</ns3:atemp>
          </ns3:TrackPointExtension>
        </extensions>
      </trkpt>
      <trkpt lat="46.7890225164592266082763671875" lon="6.87752681784331798553466796875">
        <ele>444.600006103515625</ele>
        <time>2013-09-01T14:16:34.000Z</time>
        <extensions>
          <ns3:TrackPointExtension>
            <ns3:atemp>22.0</ns3:atemp>
          </ns3:TrackPointExtension>
        </extensions>
      </trkpt>
      <trkpt lat="46.78900181315839290618896484375" lon="6.8775044381618499755859375">
        <ele>444.79998779296875</ele>
        <time>2013-09-01T14:16:35.000Z</time>
        <extensions>
          <ns3:TrackPointExtension>
            <ns3:atemp>22.0</ns3:atemp>
          </ns3:TrackPointExtension>
        </extensions>
      </trkpt>
      <trkpt lat="46.7889822833240032196044921875" lon="6.87747971154749393463134765625">
        <ele>445.20001220703125</ele>
        <time>2013-09-01T14:16:36.000Z</time>
        <extensions>
          <ns3:TrackPointExtension>
            <ns3:atemp>22.0</ns3:atemp>
          </ns3:TrackPointExtension>
        </extensions>
      </trkpt>
      <trkpt lat="46.788961328566074371337890625" lon="6.8774559907615184783935546875">
        <ele>445.399993896484375</ele>
        <time>2013-09-01T14:16:37.000Z</time>
        <extensions>
          <ns3:TrackPointExtension>
            <ns3:atemp>22.0</ns3:atemp>
          </ns3:TrackPointExtension>
        </extensions>
      </trkpt>
      <trkpt lat="46.788940541446208953857421875" lon="6.87743176706135272979736328125">
        <ele>445.79998779296875</ele>
        <time>2013-09-01T14:16:38.000Z</time>
        <extensions>
          <ns3:TrackPointExtension>
            <ns3:atemp>22.0</ns3:atemp>
          </ns3:TrackPointExtension>
        </extensions>
      </trkpt>
      <trkpt lat="46.788916401565074920654296875" lon="6.87739756889641284942626953125">
        <ele>446</ele>
        <time>2013-09-01T14:16:39.000Z</time>
        <extensions>
          <ns3:TrackPointExtension>
            <ns3:atemp>22.0</ns3:atemp>
          </ns3:TrackPointExtension>
        </extensions>
      </trkpt>
      <trkpt lat="46.7888937704265117645263671875" lon="6.87737141735851764678955078125">
        <ele>446.399993896484375</ele>
        <time>2013-09-01T14:16:40.000Z</time>
        <extensions>
          <ns3:TrackPointExtension>
            <ns3:atemp>22.0</ns3:atemp>
          </ns3:TrackPointExtension>
        </extensions>
      </trkpt>
      <trkpt lat="46.78886937908828258514404296875" lon="6.8773480318486690521240234375">
        <ele>446.600006103515625</ele>
        <time>2013-09-01T14:16:41.000Z</time>
        <extensions>
          <ns3:TrackPointExtension>
            <ns3:atemp>22.0</ns3:atemp>
          </ns3:TrackPointExtension>
        </extensions>
      </trkpt>
      <trkpt lat="46.78884523920714855194091796875" lon="6.87732565216720104217529296875">
        <ele>446.600006103515625</ele>
        <time>2013-09-01T14:16:42.000Z</time>
        <extensions>
          <ns3:TrackPointExtension>
            <ns3:atemp>22.0</ns3:atemp>
          </ns3:TrackPointExtension>
        </extensions>
      </trkpt>
      <trkpt lat="46.78881707601249217987060546875" lon="6.87730662524700164794921875">
        <ele>446.79998779296875</ele>
        <time>2013-09-01T14:16:43.000Z</time>
        <extensions>
          <ns3:TrackPointExtension>
            <ns3:atemp>22.0</ns3:atemp>
          </ns3:TrackPointExtension>
        </extensions>
      </trkpt>
      <trkpt lat="46.78878757171332836151123046875" lon="6.87729187309741973876953125">
        <ele>446.79998779296875</ele>
        <time>2013-09-01T14:16:44.000Z</time>
        <extensions>
          <ns3:TrackPointExtension>
            <ns3:atemp>22.0</ns3:atemp>
          </ns3:TrackPointExtension>
        </extensions>
      </trkpt>
      <trkpt lat="46.7887576483190059661865234375" lon="6.87728441320359706878662109375">
        <ele>447</ele>
        <time>2013-09-01T14:16:45.000Z</time>
        <extensions>
          <ns3:TrackPointExtension>
            <ns3:atemp>22.0</ns3:atemp>
          </ns3:TrackPointExtension>
        </extensions>
      </trkpt>
      <trkpt lat="46.78872554562985897064208984375" lon="6.87727418728172779083251953125">
        <ele>447</ele>
        <time>2013-09-01T14:16:46.000Z</time>
        <extensions>
          <ns3:TrackPointExtension>
            <ns3:atemp>22.0</ns3:atemp>
          </ns3:TrackPointExtension>
        </extensions>
      </trkpt>
      <trkpt lat="46.78869084455072879791259765625" lon="6.87726781703531742095947265625">
        <ele>447.20001220703125</ele>
        <time>2013-09-01T14:16:47.000Z</time>
        <extensions>
          <ns3:TrackPointExtension>
            <ns3:atemp>22.0</ns3:atemp>
          </ns3:TrackPointExtension>
        </extensions>
      </trkpt>
      <trkpt lat="46.7886580713093280792236328125" lon="6.87726446427404880523681640625">
        <ele>447.20001220703125</ele>
        <time>2013-09-01T14:16:48.000Z</time>
        <extensions>
          <ns3:TrackPointExtension>
            <ns3:atemp>22.0</ns3:atemp>
          </ns3:TrackPointExtension>
        </extensions>
      </trkpt>
      <trkpt lat="46.7886215262115001678466796875" lon="6.877258010208606719970703125">
        <ele>447.399993896484375</ele>
        <time>2013-09-01T14:16:49.000Z</time>
        <extensions>
          <ns3:TrackPointExtension>
            <ns3:atemp>22.0</ns3:atemp>
          </ns3:TrackPointExtension>
        </extensions>
      </trkpt>
      <trkpt lat="46.78858707658946514129638671875" lon="6.8772524781525135040283203125">
        <ele>447.399993896484375</ele>
        <time>2013-09-01T14:16:50.000Z</time>
        <extensions>
          <ns3:TrackPointExtension>
            <ns3:atemp>22.0</ns3:atemp>
          </ns3:TrackPointExtension>
        </extensions>
      </trkpt>
      <trkpt lat="46.78855086676776409149169921875" lon="6.87724895775318145751953125">
        <ele>447.600006103515625</ele>
        <time>2013-09-01T14:16:51.000Z</time>
        <extensions>
          <ns3:TrackPointExtension>
            <ns3:atemp>22.0</ns3:atemp>
          </ns3:TrackPointExtension>
        </extensions>
      </trkpt>
      <trkpt lat="46.78851566277444362640380859375" lon="6.87724937684834003448486328125">
        <ele>447.399993896484375</ele>
        <time>2013-09-01T14:16:52.000Z</time>
        <extensions>
          <ns3:TrackPointExtension>
            <ns3:atemp>22.0</ns3:atemp>
          </ns3:TrackPointExtension>
        </extensions>
      </trkpt>
      <trkpt lat="46.788482554256916046142578125" lon="6.87724870629608631134033203125">
        <ele>447.399993896484375</ele>
        <time>2013-09-01T14:16:53.000Z</time>
        <extensions>
          <ns3:TrackPointExtension>
            <ns3:atemp>22.0</ns3:atemp>
          </ns3:TrackPointExtension>
        </extensions>
      </trkpt>
      <trkpt lat="46.7884478531777858734130859375" lon="6.87724837101995944976806640625">
        <ele>447.600006103515625</ele>
        <time>2013-09-01T14:16:54.000Z</time>
        <extensions>
          <ns3:TrackPointExtension>
            <ns3:atemp>22.0</ns3:atemp>
          </ns3:TrackPointExtension>
        </extensions>
      </trkpt>
      <trkpt lat="46.788412146270275115966796875" lon="6.87724367715418338775634765625">
        <ele>447.600006103515625</ele>
        <time>2013-09-01T14:16:55.000Z</time>
        <extensions>
          <ns3:TrackPointExtension>
            <ns3:atemp>22.0</ns3:atemp>
          </ns3:TrackPointExtension>
        </extensions>
      </trkpt>
      <trkpt lat="46.78837962448596954345703125" lon="6.87723554670810699462890625">
        <ele>447.79998779296875</ele>
        <time>2013-09-01T14:16:56.000Z</time>
        <extensions>
          <ns3:TrackPointExtension>
            <ns3:atemp>22.0</ns3:atemp>
          </ns3:TrackPointExtension>
        </extensions>
      </trkpt>
      <trkpt lat="46.788349114358425140380859375" lon="6.87722540460526943206787109375">
        <ele>447.79998779296875</ele>
        <time>2013-09-01T14:16:57.000Z</time>
        <extensions>
          <ns3:TrackPointExtension>
            <ns3:atemp>22.0</ns3:atemp>
          </ns3:TrackPointExtension>
        </extensions>
      </trkpt>
      <trkpt lat="46.78831768222153186798095703125" lon="6.87720176763832569122314453125">
        <ele>447.79998779296875</ele>
        <time>2013-09-01T14:16:58.000Z</time>
        <extensions>
          <ns3:TrackPointExtension>
            <ns3:atemp>22.0</ns3:atemp>
          </ns3:TrackPointExtension>
        </extensions>
      </trkpt>
      <trkpt lat="46.788284741342067718505859375" lon="6.8771720118820667266845703125">
        <ele>448</ele>
        <time>2013-09-01T14:16:59.000Z</time>
        <extensions>
          <ns3:TrackPointExtension>
            <ns3:atemp>22.0</ns3:atemp>
          </ns3:TrackPointExtension>
        </extensions>
      </trkpt>
      <trkpt lat="46.78824978880584239959716796875" lon="6.87714636325836181640625">
        <ele>448.20001220703125</ele>
        <time>2013-09-01T14:17:00.000Z</time>
        <extensions>
          <ns3:TrackPointExtension>
            <ns3:atemp>22.0</ns3:atemp>
          </ns3:TrackPointExtension>
        </extensions>
      </trkpt>
      <trkpt lat="46.78821659646928310394287109375" lon="6.87713052146136760711669921875">
        <ele>448.399993896484375</ele>
        <time>2013-09-01T14:17:01.000Z</time>
        <extensions>
          <ns3:TrackPointExtension>
            <ns3:atemp>22.0</ns3:atemp>
          </ns3:TrackPointExtension>
        </extensions>
      </trkpt>
      <trkpt lat="46.78818038664758205413818359375" lon="6.87711560167372226715087890625">
        <ele>448.600006103515625</ele>
        <time>2013-09-01T14:17:02.000Z</time>
        <extensions>
          <ns3:TrackPointExtension>
            <ns3:atemp>22.0</ns3:atemp>
          </ns3:TrackPointExtension>
        </extensions>
      </trkpt>
      <trkpt lat="46.788150630891323089599609375" lon="6.8770915456116199493408203125">
        <ele>448.600006103515625</ele>
        <time>2013-09-01T14:17:03.000Z</time>
        <extensions>
          <ns3:TrackPointExtension>
            <ns3:atemp>22.0</ns3:atemp>
          </ns3:TrackPointExtension>
        </extensions>
      </trkpt>
      <trkpt lat="46.78812037222087383270263671875" lon="6.87706950120627880096435546875">
        <ele>448.79998779296875</ele>
        <time>2013-09-01T14:17:04.000Z</time>
        <extensions>
          <ns3:TrackPointExtension>
            <ns3:atemp>22.0</ns3:atemp>
          </ns3:TrackPointExtension>
        </extensions>
      </trkpt>
      <trkpt lat="46.7880877666175365447998046875" lon="6.87704687006771564483642578125">
        <ele>448.600006103515625</ele>
        <time>2013-09-01T14:17:05.000Z</time>
        <extensions>
          <ns3:TrackPointExtension>
            <ns3:atemp>22.0</ns3:atemp>
          </ns3:TrackPointExtension>
        </extensions>
      </trkpt>
      <trkpt lat="46.7880565859377384185791015625" lon="6.8770238198339939117431640625">
        <ele>448.600006103515625</ele>
        <time>2013-09-01T14:17:06.000Z</time>
        <extensions>
          <ns3:TrackPointExtension>
            <ns3:atemp>22.0</ns3:atemp>
          </ns3:TrackPointExtension>
        </extensions>
      </trkpt>
      <trkpt lat="46.78802582435309886932373046875" lon="6.876994483172893524169921875">
        <ele>448.20001220703125</ele>
        <time>2013-09-01T14:17:07.000Z</time>
        <extensions>
          <ns3:TrackPointExtension>
            <ns3:atemp>22.0</ns3:atemp>
          </ns3:TrackPointExtension>
        </extensions>
      </trkpt>
      <trkpt lat="46.7879948951303958892822265625" lon="6.87695869244635105133056640625">
        <ele>448.20001220703125</ele>
        <time>2013-09-01T14:17:08.000Z</time>
        <extensions>
          <ns3:TrackPointExtension>
            <ns3:atemp>22.0</ns3:atemp>
          </ns3:TrackPointExtension>
        </extensions>
      </trkpt>
      <trkpt lat="46.7879576794803142547607421875" lon="6.87689767219126224517822265625">
        <ele>447.79998779296875</ele>
        <time>2013-09-01T14:17:09.000Z</time>
        <extensions>
          <ns3:TrackPointExtension>
            <ns3:atemp>22.0</ns3:atemp>
          </ns3:TrackPointExtension>
        </extensions>
      </trkpt>
      <trkpt lat="46.78792607970535755157470703125" lon="6.87683749012649059295654296875">
        <ele>447.399993896484375</ele>
        <time>2013-09-01T14:17:10.000Z</time>
        <extensions>
          <ns3:TrackPointExtension>
            <ns3:atemp>22.0</ns3:atemp>
          </ns3:TrackPointExtension>
        </extensions>
      </trkpt>
      <trkpt lat="46.7878990061581134796142578125" lon="6.8767737038433551788330078125">
        <ele>447</ele>
        <time>2013-09-01T14:17:11.000Z</time>
        <extensions>
          <ns3:TrackPointExtension>
            <ns3:atemp>22.0</ns3:atemp>
          </ns3:TrackPointExtension>
        </extensions>
      </trkpt>
      <trkpt lat="46.7878718487918376922607421875" lon="6.87670589424669742584228515625">
        <ele>446.600006103515625</ele>
        <time>2013-09-01T14:17:12.000Z</time>
        <extensions>
          <ns3:TrackPointExtension>
            <ns3:atemp>22.0</ns3:atemp>
          </ns3:TrackPointExtension>
        </extensions>
      </trkpt>
      <trkpt lat="46.78784511052072048187255859375" lon="6.87664604745805263519287109375">
        <ele>446.20001220703125</ele>
        <time>2013-09-01T14:17:13.000Z</time>
        <extensions>
          <ns3:TrackPointExtension>
            <ns3:atemp>22.0</ns3:atemp>
          </ns3:TrackPointExtension>
        </extensions>
      </trkpt>
      <trkpt lat="46.78781292401254177093505859375" lon="6.87658779323101043701171875">
        <ele>446.399993896484375</ele>
        <time>2013-09-01T14:17:14.000Z</time>
        <extensions>
          <ns3:TrackPointExtension>
            <ns3:atemp>22.0</ns3:atemp>
          </ns3:TrackPointExtension>
        </extensions>
      </trkpt>
      <trkpt lat="46.787777133285999298095703125" lon="6.87652618624269962310791015625">
        <ele>446</ele>
        <time>2013-09-01T14:17:15.000Z</time>
        <extensions>
          <ns3:TrackPointExtension>
            <ns3:atemp>22.0</ns3:atemp>
          </ns3:TrackPointExtension>
        </extensions>
      </trkpt>
      <trkpt lat="46.7877370677888393402099609375" lon="6.87646650709211826324462890625">
        <ele>445.600006103515625</ele>
        <time>2013-09-01T14:17:16.000Z</time>
        <extensions>
          <ns3:TrackPointExtension>
            <ns3:atemp>22.0</ns3:atemp>
          </ns3:TrackPointExtension>
        </extensions>
      </trkpt>
      <trkpt lat="46.78768518380820751190185546875" lon="6.87639878131449222564697265625">
        <ele>445</ele>
        <time>2013-09-01T14:17:17.000Z</time>
        <extensions>
          <ns3:TrackPointExtension>
            <ns3:atemp>22.0</ns3:atemp>
          </ns3:TrackPointExtension>
        </extensions>
      </trkpt>
      <trkpt lat="46.78762567229568958282470703125" lon="6.87632837332785129547119140625">
        <ele>444.20001220703125</ele>
        <time>2013-09-01T14:17:18.000Z</time>
        <extensions>
          <ns3:TrackPointExtension>
            <ns3:atemp>22.0</ns3:atemp>
          </ns3:TrackPointExtension>
        </extensions>
      </trkpt>
      <trkpt lat="46.787565238773822784423828125" lon="6.8762593902647495269775390625">
        <ele>443.399993896484375</ele>
        <time>2013-09-01T14:17:19.000Z</time>
        <extensions>
          <ns3:TrackPointExtension>
            <ns3:atemp>22.0</ns3:atemp>
          </ns3:TrackPointExtension>
        </extensions>
      </trkpt>
      <trkpt lat="46.7874899692833423614501953125" lon="6.87616894952952861785888671875">
        <ele>442.20001220703125</ele>
        <time>2013-09-01T14:17:20.000Z</time>
        <extensions>
          <ns3:TrackPointExtension>
            <ns3:atemp>22.0</ns3:atemp>
          </ns3:TrackPointExtension>
        </extensions>
      </trkpt>
      <trkpt lat="46.7874202318489551544189453125" lon="6.87607725150883197784423828125">
        <ele>441.20001220703125</ele>
        <time>2013-09-01T14:17:21.000Z</time>
        <extensions>
          <ns3:TrackPointExtension>
            <ns3:atemp>22.0</ns3:atemp>
          </ns3:TrackPointExtension>
        </extensions>
      </trkpt>
      <trkpt lat="46.7873558588325977325439453125" lon="6.87598169781267642974853515625">
        <ele>440.20001220703125</ele>
        <time>2013-09-01T14:17:22.000Z</time>
        <extensions>
          <ns3:TrackPointExtension>
            <ns3:atemp>22.0</ns3:atemp>
          </ns3:TrackPointExtension>
        </extensions>
      </trkpt>
      <trkpt lat="46.78730271756649017333984375" lon="6.87586284242570400238037109375">
        <ele>439.399993896484375</ele>
        <time>2013-09-01T14:17:23.000Z</time>
        <extensions>
          <ns3:TrackPointExtension>
            <ns3:atemp>22.0</ns3:atemp>
          </ns3:TrackPointExtension>
        </extensions>
      </trkpt>
      <trkpt lat="46.78727882914245128631591796875" lon="6.8757547996938228607177734375">
        <ele>438.399993896484375</ele>
        <time>2013-09-01T14:17:24.000Z</time>
        <extensions>
          <ns3:TrackPointExtension>
            <ns3:atemp>22.0</ns3:atemp>
          </ns3:TrackPointExtension>
        </extensions>
      </trkpt>
      <trkpt lat="46.78727312944829463958740234375" lon="6.8756572343409061431884765625">
        <ele>438.399993896484375</ele>
        <time>2013-09-01T14:17:25.000Z</time>
        <extensions>
          <ns3:TrackPointExtension>
            <ns3:atemp>22.0</ns3:atemp>
          </ns3:TrackPointExtension>
        </extensions>
      </trkpt>
      <trkpt lat="46.7872740514576435089111328125" lon="6.8755559809505939483642578125">
        <ele>438.20001220703125</ele>
        <time>2013-09-01T14:17:26.000Z</time>
        <extensions>
          <ns3:TrackPointExtension>
            <ns3:atemp>22.0</ns3:atemp>
          </ns3:TrackPointExtension>
        </extensions>
      </trkpt>
      <trkpt lat="46.78728017024695873260498046875" lon="6.8754627741873264312744140625">
        <ele>438</ele>
        <time>2013-09-01T14:17:27.000Z</time>
        <extensions>
          <ns3:TrackPointExtension>
            <ns3:atemp>22.0</ns3:atemp>
          </ns3:TrackPointExtension>
        </extensions>
      </trkpt>
      <trkpt lat="46.78729123435914516448974609375" lon="6.8753707408905029296875">
        <ele>437.79998779296875</ele>
        <time>2013-09-01T14:17:28.000Z</time>
        <extensions>
          <ns3:TrackPointExtension>
            <ns3:atemp>22.0</ns3:atemp>
          </ns3:TrackPointExtension>
        </extensions>
      </trkpt>
      <trkpt lat="46.7873116023838520050048828125" lon="6.87528599984943866729736328125">
        <ele>437.79998779296875</ele>
        <time>2013-09-01T14:17:29.000Z</time>
        <extensions>
          <ns3:TrackPointExtension>
            <ns3:atemp>22.0</ns3:atemp>
          </ns3:TrackPointExtension>
        </extensions>
      </trkpt>
      <trkpt lat="46.78733884356915950775146484375" lon="6.87521827407181262969970703125">
        <ele>438</ele>
        <time>2013-09-01T14:17:30.000Z</time>
        <extensions>
          <ns3:TrackPointExtension>
            <ns3:atemp>22.0</ns3:atemp>
          </ns3:TrackPointExtension>
        </extensions>
      </trkpt>
      <trkpt lat="46.78737052716314792633056640625" lon="6.87515390105545520782470703125">
        <ele>438.399993896484375</ele>
        <time>2013-09-01T14:17:31.000Z</time>
        <extensions>
          <ns3:TrackPointExtension>
            <ns3:atemp>22.0</ns3:atemp>
          </ns3:TrackPointExtension>
        </extensions>
      </trkpt>
      <trkpt lat="46.787402965128421783447265625" lon="6.87509187497198581695556640625">
        <ele>438.600006103515625</ele>
        <time>2013-09-01T14:17:32.000Z</time>
        <extensions>
          <ns3:TrackPointExtension>
            <ns3:atemp>22.0</ns3:atemp>
          </ns3:TrackPointExtension>
        </extensions>
      </trkpt>
      <trkpt lat="46.7874299548566341400146484375" lon="6.87503588385879993438720703125">
        <ele>438.79998779296875</ele>
        <time>2013-09-01T14:17:33.000Z</time>
        <extensions>
          <ns3:TrackPointExtension>
            <ns3:atemp>22.0</ns3:atemp>
          </ns3:TrackPointExtension>
        </extensions>
      </trkpt>
      <trkpt lat="46.78745753131806850433349609375" lon="6.87497444450855255126953125">
        <ele>439</ele>
        <time>2013-09-01T14:17:34.000Z</time>
        <extensions>
          <ns3:TrackPointExtension>
            <ns3:atemp>22.0</ns3:atemp>
          </ns3:TrackPointExtension>
        </extensions>
      </trkpt>
      <trkpt lat="46.78747965954244136810302734375" lon="6.87491166405379772186279296875">
        <ele>439.20001220703125</ele>
        <time>2013-09-01T14:17:35.000Z</time>
        <extensions>
          <ns3:TrackPointExtension>
            <ns3:atemp>22.0</ns3:atemp>
          </ns3:TrackPointExtension>
        </extensions>
      </trkpt>
      <trkpt lat="46.78750178776681423187255859375" lon="6.87485097907483577728271484375">
        <ele>439.600006103515625</ele>
        <time>2013-09-01T14:17:36.000Z</time>
        <extensions>
          <ns3:TrackPointExtension>
            <ns3:atemp>22.0</ns3:atemp>
          </ns3:TrackPointExtension>
        </extensions>
      </trkpt>
      <trkpt lat="46.78751888684928417205810546875" lon="6.8747878633439540863037109375">
        <ele>440</ele>
        <time>2013-09-01T14:17:37.000Z</time>
        <extensions>
          <ns3:TrackPointExtension>
            <ns3:atemp>22.0</ns3:atemp>
          </ns3:TrackPointExtension>
        </extensions>
      </trkpt>
      <trkpt lat="46.78752726875245571136474609375" lon="6.87472726218402385711669921875">
        <ele>440.399993896484375</ele>
        <time>2013-09-01T14:17:38.000Z</time>
        <extensions>
          <ns3:TrackPointExtension>
            <ns3:atemp>22.0</ns3:atemp>
          </ns3:TrackPointExtension>
        </extensions>
      </trkpt>
      <trkpt lat="46.78753229789435863494873046875" lon="6.874666325747966766357421875">
        <ele>440.79998779296875</ele>
        <time>2013-09-01T14:17:39.000Z</time>
        <extensions>
          <ns3:TrackPointExtension>
            <ns3:atemp>21.0</ns3:atemp>
          </ns3:TrackPointExtension>
        </extensions>
      </trkpt>
      <trkpt lat="46.7875380814075469970703125" lon="6.87459616921842098236083984375">
        <ele>440.79998779296875</ele>
        <time>2013-09-01T14:17:40.000Z</time>
        <extensions>
          <ns3:TrackPointExtension>
            <ns3:atemp>21.0</ns3:atemp>
          </ns3:TrackPointExtension>
        </extensions>
      </trkpt>
      <trkpt lat="46.78754973225295543670654296875" lon="6.8745142780244350433349609375">
        <ele>441</ele>
        <time>2013-09-01T14:17:41.000Z</time>
        <extensions>
          <ns3:TrackPointExtension>
            <ns3:atemp>21.0</ns3:atemp>
          </ns3:TrackPointExtension>
        </extensions>
      </trkpt>
      <trkpt lat="46.7875587008893489837646484375" lon="6.8744448758661746978759765625">
        <ele>441</ele>
        <time>2013-09-01T14:17:42.000Z</time>
        <extensions>
          <ns3:TrackPointExtension>
            <ns3:atemp>21.0</ns3:atemp>
          </ns3:TrackPointExtension>
        </extensions>
      </trkpt>
      <trkpt lat="46.787529028952121734619140625" lon="6.87437362968921661376953125">
        <ele>441</ele>
        <time>2013-09-01T14:17:43.000Z</time>
        <extensions>
          <ns3:TrackPointExtension>
            <ns3:atemp>21.0</ns3:atemp>
          </ns3:TrackPointExtension>
        </extensions>
      </trkpt>
      <trkpt lat="46.78750111721456050872802734375" lon="6.87430389225482940673828125">
        <ele>441</ele>
        <time>2013-09-01T14:17:44.000Z</time>
        <extensions>
          <ns3:TrackPointExtension>
            <ns3:atemp>21.0</ns3:atemp>
          </ns3:TrackPointExtension>
        </extensions>
      </trkpt>
      <trkpt lat="46.7874755524098873138427734375" lon="6.8742302991449832916259765625">
        <ele>441</ele>
        <time>2013-09-01T14:17:45.000Z</time>
        <extensions>
          <ns3:TrackPointExtension>
            <ns3:atemp>21.0</ns3:atemp>
          </ns3:TrackPointExtension>
        </extensions>
      </trkpt>
      <trkpt lat="46.787442527711391448974609375" lon="6.874164752662181854248046875">
        <ele>441</ele>
        <time>2013-09-01T14:17:46.000Z</time>
        <extensions>
          <ns3:TrackPointExtension>
            <ns3:atemp>21.0</ns3:atemp>
          </ns3:TrackPointExtension>
        </extensions>
      </trkpt>
      <trkpt lat="46.78739952854812145233154296875" lon="6.87412125058472156524658203125">
        <ele>441.20001220703125</ele>
        <time>2013-09-01T14:17:47.000Z</time>
        <extensions>
          <ns3:TrackPointExtension>
            <ns3:atemp>21.0</ns3:atemp>
          </ns3:TrackPointExtension>
        </extensions>
      </trkpt>
      <trkpt lat="46.78735678084194660186767578125" lon="6.87410029582679271697998046875">
        <ele>441.20001220703125</ele>
        <time>2013-09-01T14:17:48.000Z</time>
        <extensions>
          <ns3:TrackPointExtension>
            <ns3:atemp>21.0</ns3:atemp>
          </ns3:TrackPointExtension>
        </extensions>
      </trkpt>
      <trkpt lat="46.78731252439320087432861328125" lon="6.8740958534181118011474609375">
        <ele>441.20001220703125</ele>
        <time>2013-09-01T14:17:49.000Z</time>
        <extensions>
          <ns3:TrackPointExtension>
            <ns3:atemp>21.0</ns3:atemp>
          </ns3:TrackPointExtension>
        </extensions>
      </trkpt>
      <trkpt lat="46.78727723658084869384765625" lon="6.87413298524916172027587890625">
        <ele>441.399993896484375</ele>
        <time>2013-09-01T14:17:50.000Z</time>
        <extensions>
          <ns3:TrackPointExtension>
            <ns3:atemp>21.0</ns3:atemp>
          </ns3:TrackPointExtension>
        </extensions>
      </trkpt>
      <trkpt lat="46.78723960183560848236083984375" lon="6.87418143264949321746826171875">
        <ele>441.600006103515625</ele>
        <time>2013-09-01T14:17:51.000Z</time>
        <extensions>
          <ns3:TrackPointExtension>
            <ns3:atemp>21.0</ns3:atemp>
          </ns3:TrackPointExtension>
        </extensions>
      </trkpt>
      <trkpt lat="46.7872063256800174713134765625" lon="6.87422384507954120635986328125">
        <ele>441.79998779296875</ele>
        <time>2013-09-01T14:17:52.000Z</time>
        <extensions>
          <ns3:TrackPointExtension>
            <ns3:atemp>21.0</ns3:atemp>
          </ns3:TrackPointExtension>
        </extensions>
      </trkpt>
      <trkpt lat="46.7871733009815216064453125" lon="6.8742453865706920623779296875">
        <ele>441.79998779296875</ele>
        <time>2013-09-01T14:17:53.000Z</time>
        <extensions>
          <ns3:TrackPointExtension>
            <ns3:atemp>21.0</ns3:atemp>
          </ns3:TrackPointExtension>
        </extensions>
      </trkpt>
      <trkpt lat="46.78714237175881862640380859375" lon="6.87426977790892124176025390625">
        <ele>442</ele>
        <time>2013-09-01T14:17:54.000Z</time>
        <extensions>
          <ns3:TrackPointExtension>
            <ns3:atemp>21.0</ns3:atemp>
          </ns3:TrackPointExtension>
        </extensions>
      </trkpt>
      <trkpt lat="46.78711638785898685455322265625" lon="6.87429475598037242889404296875">
        <ele>442</ele>
        <time>2013-09-01T14:17:55.000Z</time>
        <extensions>
          <ns3:TrackPointExtension>
            <ns3:atemp>21.0</ns3:atemp>
          </ns3:TrackPointExtension>
        </extensions>
      </trkpt>
      <trkpt lat="46.78709174506366252899169921875" lon="6.87431721948087215423583984375">
        <ele>442.399993896484375</ele>
        <time>2013-09-01T14:17:56.000Z</time>
        <extensions>
          <ns3:TrackPointExtension>
            <ns3:atemp>21.0</ns3:atemp>
          </ns3:TrackPointExtension>
        </extensions>
      </trkpt>
      <trkpt lat="46.78707246668636798858642578125" lon="6.874337084591388702392578125">
        <ele>442.79998779296875</ele>
        <time>2013-09-01T14:17:57.000Z</time>
        <extensions>
          <ns3:TrackPointExtension>
            <ns3:atemp>21.0</ns3:atemp>
          </ns3:TrackPointExtension>
        </extensions>
      </trkpt>
      <trkpt lat="46.78705318830907344818115234375" lon="6.8743530102074146270751953125">
        <ele>443</ele>
        <time>2013-09-01T14:17:58.000Z</time>
        <extensions>
          <ns3:TrackPointExtension>
            <ns3:atemp>21.0</ns3:atemp>
          </ns3:TrackPointExtension>
        </extensions>
      </trkpt>
      <trkpt lat="46.78702904842793941497802734375" lon="6.8743714503943920135498046875">
        <ele>443.399993896484375</ele>
        <time>2013-09-01T14:17:59.000Z</time>
        <extensions>
          <ns3:TrackPointExtension>
            <ns3:atemp>21.0</ns3:atemp>
          </ns3:TrackPointExtension>
        </extensions>
      </trkpt>
      <trkpt lat="46.7870001308619976043701171875" lon="6.87438846565783023834228515625">
        <ele>443.600006103515625</ele>
        <time>2013-09-01T14:18:00.000Z</time>
        <extensions>
          <ns3:TrackPointExtension>
            <ns3:atemp>21.0</ns3:atemp>
          </ns3:TrackPointExtension>
        </extensions>
      </trkpt>
      <trkpt lat="46.78696618415415287017822265625" lon="6.87440221197903156280517578125">
        <ele>444</ele>
        <time>2013-09-01T14:18:01.000Z</time>
        <extensions>
          <ns3:TrackPointExtension>
            <ns3:atemp>21.0</ns3:atemp>
          </ns3:TrackPointExtension>
        </extensions>
      </trkpt>
      <trkpt lat="46.78693181835114955902099609375" lon="6.87441947869956493377685546875">
        <ele>444</ele>
        <time>2013-09-01T14:18:02.000Z</time>
        <extensions>
          <ns3:TrackPointExtension>
            <ns3:atemp>21.0</ns3:atemp>
          </ns3:TrackPointExtension>
        </extensions>
      </trkpt>
      <trkpt lat="46.78689812310039997100830078125" lon="6.87443657778203487396240234375">
        <ele>444</ele>
        <time>2013-09-01T14:18:03.000Z</time>
        <extensions>
          <ns3:TrackPointExtension>
            <ns3:atemp>21.0</ns3:atemp>
          </ns3:TrackPointExtension>
        </extensions>
      </trkpt>
      <trkpt lat="46.78686241619288921356201171875" lon="6.87445786781609058380126953125">
        <ele>444.20001220703125</ele>
        <time>2013-09-01T14:18:04.000Z</time>
        <extensions>
          <ns3:TrackPointExtension>
            <ns3:atemp>21.0</ns3:atemp>
          </ns3:TrackPointExtension>
        </extensions>
      </trkpt>
      <trkpt lat="46.78682268597185611724853515625" lon="6.87447949312627315521240234375">
        <ele>444.20001220703125</ele>
        <time>2013-09-01T14:18:05.000Z</time>
        <extensions>
          <ns3:TrackPointExtension>
            <ns3:atemp>21.0</ns3:atemp>
          </ns3:TrackPointExtension>
        </extensions>
      </trkpt>
      <trkpt lat="46.7867816984653472900390625" lon="6.874504052102565765380859375">
        <ele>444.20001220703125</ele>
        <time>2013-09-01T14:18:06.000Z</time>
        <extensions>
          <ns3:TrackPointExtension>
            <ns3:atemp>21.0</ns3:atemp>
          </ns3:TrackPointExtension>
        </extensions>
      </trkpt>
      <trkpt lat="46.7867473326623439788818359375" lon="6.87453548423945903778076171875">
        <ele>444.20001220703125</ele>
        <time>2013-09-01T14:18:07.000Z</time>
        <extensions>
          <ns3:TrackPointExtension>
            <ns3:atemp>21.0</ns3:atemp>
          </ns3:TrackPointExtension>
        </extensions>
      </trkpt>
      <trkpt lat="46.7867010645568370819091796875" lon="6.87456138432025909423828125">
        <ele>444</ele>
        <time>2013-09-01T14:18:08.000Z</time>
        <extensions>
          <ns3:TrackPointExtension>
            <ns3:atemp>21.0</ns3:atemp>
          </ns3:TrackPointExtension>
        </extensions>
      </trkpt>
      <trkpt lat="46.78666108287870883941650390625" lon="6.87458761967718601226806640625">
        <ele>443.600006103515625</ele>
        <time>2013-09-01T14:18:09.000Z</time>
        <extensions>
          <ns3:TrackPointExtension>
            <ns3:atemp>21.0</ns3:atemp>
          </ns3:TrackPointExtension>
        </extensions>
      </trkpt>
      <trkpt lat="46.78662152029573917388916015625" lon="6.87461175955832004547119140625">
        <ele>443.20001220703125</ele>
        <time>2013-09-01T14:18:10.000Z</time>
        <extensions>
          <ns3:TrackPointExtension>
            <ns3:atemp>21.0</ns3:atemp>
          </ns3:TrackPointExtension>
        </extensions>
      </trkpt>
      <trkpt lat="46.786574162542819976806640625" lon="6.87463422305881977081298828125">
        <ele>443.20001220703125</ele>
        <time>2013-09-01T14:18:11.000Z</time>
        <extensions>
          <ns3:TrackPointExtension>
            <ns3:atemp>21.0</ns3:atemp>
          </ns3:TrackPointExtension>
        </extensions>
      </trkpt>
      <trkpt lat="46.7865136452019214630126953125" lon="6.87465501017868518829345703125">
        <ele>443</ele>
        <time>2013-09-01T14:18:12.000Z</time>
        <extensions>
          <ns3:TrackPointExtension>
            <ns3:atemp>21.0</ns3:atemp>
          </ns3:TrackPointExtension>
        </extensions>
      </trkpt>
      <trkpt lat="46.786460839211940765380859375" lon="6.87467160634696483612060546875">
        <ele>442.79998779296875</ele>
        <time>2013-09-01T14:18:13.000Z</time>
        <extensions>
          <ns3:TrackPointExtension>
            <ns3:atemp>21.0</ns3:atemp>
          </ns3:TrackPointExtension>
        </extensions>
      </trkpt>
      <trkpt lat="46.786411888897418975830078125" lon="6.874684430658817291259765625">
        <ele>442.20001220703125</ele>
        <time>2013-09-01T14:18:14.000Z</time>
        <extensions>
          <ns3:TrackPointExtension>
            <ns3:atemp>21.0</ns3:atemp>
          </ns3:TrackPointExtension>
        </extensions>
      </trkpt>
      <trkpt lat="46.7863634414970874786376953125" lon="6.8746926449239253997802734375">
        <ele>442.20001220703125</ele>
        <time>2013-09-01T14:18:15.000Z</time>
        <extensions>
          <ns3:TrackPointExtension>
            <ns3:atemp>21.0</ns3:atemp>
          </ns3:TrackPointExtension>
        </extensions>
      </trkpt>
      <trkpt lat="46.78631256334483623504638671875" lon="6.87470530159771442413330078125">
        <ele>441.79998779296875</ele>
        <time>2013-09-01T14:18:16.000Z</time>
        <extensions>
          <ns3:TrackPointExtension>
            <ns3:atemp>21.0</ns3:atemp>
          </ns3:TrackPointExtension>
        </extensions>
      </trkpt>
      <trkpt lat="46.78626361303031444549560546875" lon="6.8747171200811862945556640625">
        <ele>441.79998779296875</ele>
        <time>2013-09-01T14:18:17.000Z</time>
        <extensions>
          <ns3:TrackPointExtension>
            <ns3:atemp>21.0</ns3:atemp>
          </ns3:TrackPointExtension>
        </extensions>
      </trkpt>
      <trkpt lat="46.78620125167071819305419921875" lon="6.8747224844992160797119140625">
        <ele>441.79998779296875</ele>
        <time>2013-09-01T14:18:18.000Z</time>
        <extensions>
          <ns3:TrackPointExtension>
            <ns3:atemp>21.0</ns3:atemp>
          </ns3:TrackPointExtension>
        </extensions>
      </trkpt>
      <trkpt lat="46.78613654337823390960693359375" lon="6.8747278489172458648681640625">
        <ele>441.600006103515625</ele>
        <time>2013-09-01T14:18:19.000Z</time>
        <extensions>
          <ns3:TrackPointExtension>
            <ns3:atemp>21.0</ns3:atemp>
          </ns3:TrackPointExtension>
        </extensions>
      </trkpt>
      <trkpt lat="46.78607267327606678009033203125" lon="6.874734051525592803955078125">
        <ele>441.20001220703125</ele>
        <time>2013-09-01T14:18:20.000Z</time>
        <extensions>
          <ns3:TrackPointExtension>
            <ns3:atemp>21.0</ns3:atemp>
          </ns3:TrackPointExtension>
        </extensions>
      </trkpt>
      <trkpt lat="46.78600788116455078125" lon="6.8747338838875293731689453125">
        <ele>440.600006103515625</ele>
        <time>2013-09-01T14:18:21.000Z</time>
        <extensions>
          <ns3:TrackPointExtension>
            <ns3:atemp>21.0</ns3:atemp>
          </ns3:TrackPointExtension>
        </extensions>
      </trkpt>
      <trkpt lat="46.78594275377690792083740234375" lon="6.874726004898548126220703125">
        <ele>440.20001220703125</ele>
        <time>2013-09-01T14:18:22.000Z</time>
        <extensions>
          <ns3:TrackPointExtension>
            <ns3:atemp>21.0</ns3:atemp>
          </ns3:TrackPointExtension>
        </extensions>
      </trkpt>
      <trkpt lat="46.7858652211725711822509765625" lon="6.87468878924846649169921875">
        <ele>439.600006103515625</ele>
        <time>2013-09-01T14:18:23.000Z</time>
        <extensions>
          <ns3:TrackPointExtension>
            <ns3:atemp>21.0</ns3:atemp>
          </ns3:TrackPointExtension>
        </extensions>
      </trkpt>
      <trkpt lat="46.78580529056489467620849609375" lon="6.874630786478519439697265625">
        <ele>438.600006103515625</ele>
        <time>2013-09-01T14:18:24.000Z</time>
        <extensions>
          <ns3:TrackPointExtension>
            <ns3:atemp>21.0</ns3:atemp>
          </ns3:TrackPointExtension>
        </extensions>
      </trkpt>
      <trkpt lat="46.7857575975358486175537109375" lon="6.8745620548725128173828125">
        <ele>438</ele>
        <time>2013-09-01T14:18:25.000Z</time>
        <extensions>
          <ns3:TrackPointExtension>
            <ns3:atemp>21.0</ns3:atemp>
          </ns3:TrackPointExtension>
        </extensions>
      </trkpt>
      <trkpt lat="46.7857260815799236297607421875" lon="6.87446859665215015411376953125">
        <ele>437.399993896484375</ele>
        <time>2013-09-01T14:18:26.000Z</time>
        <extensions>
          <ns3:TrackPointExtension>
            <ns3:atemp>21.0</ns3:atemp>
          </ns3:TrackPointExtension>
        </extensions>
      </trkpt>
      <trkpt lat="46.78571292199194431304931640625" lon="6.87437497079372406005859375">
        <ele>437.20001220703125</ele>
        <time>2013-09-01T14:18:27.000Z</time>
        <extensions>
          <ns3:TrackPointExtension>
            <ns3:atemp>21.0</ns3:atemp>
          </ns3:TrackPointExtension>
        </extensions>
      </trkpt>
      <trkpt lat="46.78570755757391452789306640625" lon="6.8742750585079193115234375">
        <ele>437</ele>
        <time>2013-09-01T14:18:28.000Z</time>
        <extensions>
          <ns3:TrackPointExtension>
            <ns3:atemp>21.0</ns3:atemp>
          </ns3:TrackPointExtension>
        </extensions>
      </trkpt>
      <trkpt lat="46.78570789285004138946533203125" lon="6.87416936270892620086669921875">
        <ele>436.79998779296875</ele>
        <time>2013-09-01T14:18:29.000Z</time>
        <extensions>
          <ns3:TrackPointExtension>
            <ns3:atemp>21.0</ns3:atemp>
          </ns3:TrackPointExtension>
        </extensions>
      </trkpt>
      <trkpt lat="46.78571577183902263641357421875" lon="6.8740626610815525054931640625">
        <ele>436.600006103515625</ele>
        <time>2013-09-01T14:18:30.000Z</time>
        <extensions>
          <ns3:TrackPointExtension>
            <ns3:atemp>21.0</ns3:atemp>
          </ns3:TrackPointExtension>
        </extensions>
      </trkpt>
      <trkpt lat="46.7857240699231624603271484375" lon="6.87395042739808559417724609375">
        <ele>436.399993896484375</ele>
        <time>2013-09-01T14:18:31.000Z</time>
        <extensions>
          <ns3:TrackPointExtension>
            <ns3:atemp>21.0</ns3:atemp>
          </ns3:TrackPointExtension>
        </extensions>
      </trkpt>
      <trkpt lat="46.7857327871024608612060546875" lon="6.87383978627622127532958984375">
        <ele>436.20001220703125</ele>
        <time>2013-09-01T14:18:32.000Z</time>
        <extensions>
          <ns3:TrackPointExtension>
            <ns3:atemp>21.0</ns3:atemp>
          </ns3:TrackPointExtension>
        </extensions>
      </trkpt>
      <trkpt lat="46.78574393503367900848388671875" lon="6.87372989952564239501953125">
        <ele>436.20001220703125</ele>
        <time>2013-09-01T14:18:33.000Z</time>
        <extensions>
          <ns3:TrackPointExtension>
            <ns3:atemp>21.0</ns3:atemp>
          </ns3:TrackPointExtension>
        </extensions>
      </trkpt>
      <trkpt lat="46.7857512272894382476806640625" lon="6.8736221082508563995361328125">
        <ele>436.20001220703125</ele>
        <time>2013-09-01T14:18:34.000Z</time>
        <extensions>
          <ns3:TrackPointExtension>
            <ns3:atemp>21.0</ns3:atemp>
          </ns3:TrackPointExtension>
        </extensions>
      </trkpt>
      <trkpt lat="46.78575734607875347137451171875" lon="6.873516999185085296630859375">
        <ele>436.20001220703125</ele>
        <time>2013-09-01T14:18:35.000Z</time>
        <extensions>
          <ns3:TrackPointExtension>
            <ns3:atemp>21.0</ns3:atemp>
          </ns3:TrackPointExtension>
        </extensions>
      </trkpt>
      <trkpt lat="46.785764135420322418212890625" lon="6.87341197393834590911865234375">
        <ele>436</ele>
        <time>2013-09-01T14:18:36.000Z</time>
        <extensions>
          <ns3:TrackPointExtension>
            <ns3:atemp>21.0</ns3:atemp>
          </ns3:TrackPointExtension>
        </extensions>
      </trkpt>
      <trkpt lat="46.78577008657157421112060546875" lon="6.87331122346222400665283203125">
        <ele>436</ele>
        <time>2013-09-01T14:18:37.000Z</time>
        <extensions>
          <ns3:TrackPointExtension>
            <ns3:atemp>21.0</ns3:atemp>
          </ns3:TrackPointExtension>
        </extensions>
      </trkpt>
      <trkpt lat="46.78577830083668231964111328125" lon="6.87321265228092670440673828125">
        <ele>436</ele>
        <time>2013-09-01T14:18:38.000Z</time>
        <extensions>
          <ns3:TrackPointExtension>
            <ns3:atemp>21.0</ns3:atemp>
          </ns3:TrackPointExtension>
        </extensions>
      </trkpt>
      <trkpt lat="46.78578685037791728973388671875" lon="6.87312011606991291046142578125">
        <ele>436</ele>
        <time>2013-09-01T14:18:39.000Z</time>
        <extensions>
          <ns3:TrackPointExtension>
            <ns3:atemp>21.0</ns3:atemp>
          </ns3:TrackPointExtension>
        </extensions>
      </trkpt>
      <trkpt lat="46.78579355590045452117919921875" lon="6.87303277663886547088623046875">
        <ele>435.79998779296875</ele>
        <time>2013-09-01T14:18:40.000Z</time>
        <extensions>
          <ns3:TrackPointExtension>
            <ns3:atemp>21.0</ns3:atemp>
          </ns3:TrackPointExtension>
        </extensions>
      </trkpt>
      <trkpt lat="46.7857974953949451446533203125" lon="6.87294493429362773895263671875">
        <ele>435.79998779296875</ele>
        <time>2013-09-01T14:18:41.000Z</time>
        <extensions>
          <ns3:TrackPointExtension>
            <ns3:atemp>21.0</ns3:atemp>
          </ns3:TrackPointExtension>
        </extensions>
      </trkpt>
      <trkpt lat="46.7858005128800868988037109375" lon="6.87285793013870716094970703125">
        <ele>435.79998779296875</ele>
        <time>2013-09-01T14:18:42.000Z</time>
        <extensions>
          <ns3:TrackPointExtension>
            <ns3:atemp>21.0</ns3:atemp>
          </ns3:TrackPointExtension>
        </extensions>
      </trkpt>
      <trkpt lat="46.7858038656413555145263671875" lon="6.8727755360305309295654296875">
        <ele>435.600006103515625</ele>
        <time>2013-09-01T14:18:43.000Z</time>
        <extensions>
          <ns3:TrackPointExtension>
            <ns3:atemp>21.0</ns3:atemp>
          </ns3:TrackPointExtension>
        </extensions>
      </trkpt>
      <trkpt lat="46.78580696694552898406982421875" lon="6.87268760986626148223876953125">
        <ele>435.600006103515625</ele>
        <time>2013-09-01T14:18:44.000Z</time>
        <extensions>
          <ns3:TrackPointExtension>
            <ns3:atemp>21.0</ns3:atemp>
          </ns3:TrackPointExtension>
        </extensions>
      </trkpt>
      <trkpt lat="46.7858112417161464691162109375" lon="6.87259188853204250335693359375">
        <ele>436</ele>
        <time>2013-09-01T14:18:45.000Z</time>
        <extensions>
          <ns3:TrackPointExtension>
            <ns3:atemp>21.0</ns3:atemp>
          </ns3:TrackPointExtension>
        </extensions>
      </trkpt>
      <trkpt lat="46.7858186177909374237060546875" lon="6.87249868176877498626708984375">
        <ele>436</ele>
        <time>2013-09-01T14:18:46.000Z</time>
        <extensions>
          <ns3:TrackPointExtension>
            <ns3:atemp>21.0</ns3:atemp>
          </ns3:TrackPointExtension>
        </extensions>
      </trkpt>
      <trkpt lat="46.7858249880373477935791015625" lon="6.8724020384252071380615234375">
        <ele>436.20001220703125</ele>
        <time>2013-09-01T14:18:47.000Z</time>
        <extensions>
          <ns3:TrackPointExtension>
            <ns3:atemp>21.0</ns3:atemp>
          </ns3:TrackPointExtension>
        </extensions>
      </trkpt>
      <trkpt lat="46.7858330346643924713134765625" lon="6.8723064847290515899658203125">
        <ele>436</ele>
        <time>2013-09-01T14:18:48.000Z</time>
        <extensions>
          <ns3:TrackPointExtension>
            <ns3:atemp>21.0</ns3:atemp>
          </ns3:TrackPointExtension>
        </extensions>
      </trkpt>
      <trkpt lat="46.78583932109177112579345703125" lon="6.87221445143222808837890625">
        <ele>436</ele>
        <time>2013-09-01T14:18:49.000Z</time>
        <extensions>
          <ns3:TrackPointExtension>
            <ns3:atemp>21.0</ns3:atemp>
          </ns3:TrackPointExtension>
        </extensions>
      </trkpt>
      <trkpt lat="46.7858531512320041656494140625" lon="6.87212501652538776397705078125">
        <ele>435.79998779296875</ele>
        <time>2013-09-01T14:18:50.000Z</time>
        <extensions>
          <ns3:TrackPointExtension>
            <ns3:atemp>21.0</ns3:atemp>
          </ns3:TrackPointExtension>
        </extensions>
      </trkpt>
      <trkpt lat="46.785863377153873443603515625" lon="6.87203533016145229339599609375">
        <ele>435.79998779296875</ele>
        <time>2013-09-01T14:18:51.000Z</time>
        <extensions>
          <ns3:TrackPointExtension>
            <ns3:atemp>21.0</ns3:atemp>
          </ns3:TrackPointExtension>
        </extensions>
      </trkpt>
      <trkpt lat="46.7858729325234889984130859375" lon="6.87194447033107280731201171875">
        <ele>435.79998779296875</ele>
        <time>2013-09-01T14:18:52.000Z</time>
        <extensions>
          <ns3:TrackPointExtension>
            <ns3:atemp>21.0</ns3:atemp>
          </ns3:TrackPointExtension>
        </extensions>
      </trkpt>
      <trkpt lat="46.78587821312248706817626953125" lon="6.87185009010136127471923828125">
        <ele>435.79998779296875</ele>
        <time>2013-09-01T14:18:53.000Z</time>
        <extensions>
          <ns3:TrackPointExtension>
            <ns3:atemp>21.0</ns3:atemp>
          </ns3:TrackPointExtension>
        </extensions>
      </trkpt>
      <trkpt lat="46.78588240407407283782958984375" lon="6.8717532791197299957275390625">
        <ele>435.79998779296875</ele>
        <time>2013-09-01T14:18:54.000Z</time>
        <extensions>
          <ns3:TrackPointExtension>
            <ns3:atemp>21.0</ns3:atemp>
          </ns3:TrackPointExtension>
        </extensions>
      </trkpt>
      <trkpt lat="46.7858866788446903228759765625" lon="6.87165982089936733245849609375">
        <ele>435.79998779296875</ele>
        <time>2013-09-01T14:18:55.000Z</time>
        <extensions>
          <ns3:TrackPointExtension>
            <ns3:atemp>21.0</ns3:atemp>
          </ns3:TrackPointExtension>
        </extensions>
      </trkpt>
      <trkpt lat="46.7858900316059589385986328125" lon="6.871567033231258392333984375">
        <ele>435.79998779296875</ele>
        <time>2013-09-01T14:18:56.000Z</time>
        <extensions>
          <ns3:TrackPointExtension>
            <ns3:atemp>21.0</ns3:atemp>
          </ns3:TrackPointExtension>
        </extensions>
      </trkpt>
      <trkpt lat="46.78589866496622562408447265625" lon="6.87147424556314945220947265625">
        <ele>435.79998779296875</ele>
        <time>2013-09-01T14:18:57.000Z</time>
        <extensions>
          <ns3:TrackPointExtension>
            <ns3:atemp>21.0</ns3:atemp>
          </ns3:TrackPointExtension>
        </extensions>
      </trkpt>
      <trkpt lat="46.7859099805355072021484375" lon="6.87137936241924762725830078125">
        <ele>435.79998779296875</ele>
        <time>2013-09-01T14:18:58.000Z</time>
        <extensions>
          <ns3:TrackPointExtension>
            <ns3:atemp>21.0</ns3:atemp>
          </ns3:TrackPointExtension>
        </extensions>
      </trkpt>
      <trkpt lat="46.7859195359051227569580078125" lon="6.8712812103331089019775390625">
        <ele>435.600006103515625</ele>
        <time>2013-09-01T14:18:59.000Z</time>
        <extensions>
          <ns3:TrackPointExtension>
            <ns3:atemp>21.0</ns3:atemp>
          </ns3:TrackPointExtension>
        </extensions>
      </trkpt>
      <trkpt lat="46.78593219257891178131103515625" lon="6.87118708156049251556396484375">
        <ele>435.600006103515625</ele>
        <time>2013-09-01T14:19:00.000Z</time>
        <extensions>
          <ns3:TrackPointExtension>
            <ns3:atemp>21.0</ns3:atemp>
          </ns3:TrackPointExtension>
        </extensions>
      </trkpt>
      <trkpt lat="46.7859440110623836517333984375" lon="6.87109353952109813690185546875">
        <ele>435.399993896484375</ele>
        <time>2013-09-01T14:19:01.000Z</time>
        <extensions>
          <ns3:TrackPointExtension>
            <ns3:atemp>21.0</ns3:atemp>
          </ns3:TrackPointExtension>
        </extensions>
      </trkpt>
      <trkpt lat="46.7859580926597118377685546875" lon="6.871002428233623504638671875">
        <ele>435.20001220703125</ele>
        <time>2013-09-01T14:19:02.000Z</time>
        <extensions>
          <ns3:TrackPointExtension>
            <ns3:atemp>21.0</ns3:atemp>
          </ns3:TrackPointExtension>
        </extensions>
      </trkpt>
      <trkpt lat="46.78597225807607173919677734375" lon="6.87090829946100711822509765625">
        <ele>435.20001220703125</ele>
        <time>2013-09-01T14:19:03.000Z</time>
        <extensions>
          <ns3:TrackPointExtension>
            <ns3:atemp>21.0</ns3:atemp>
          </ns3:TrackPointExtension>
        </extensions>
      </trkpt>
      <trkpt lat="46.7859872616827487945556640625" lon="6.87081492505967617034912109375">
        <ele>435</ele>
        <time>2013-09-01T14:19:04.000Z</time>
        <extensions>
          <ns3:TrackPointExtension>
            <ns3:atemp>21.0</ns3:atemp>
          </ns3:TrackPointExtension>
        </extensions>
      </trkpt>
      <trkpt lat="46.78600226528942584991455078125" lon="6.87071618624031543731689453125">
        <ele>434.79998779296875</ele>
        <time>2013-09-01T14:19:05.000Z</time>
        <extensions>
          <ns3:TrackPointExtension>
            <ns3:atemp>21.0</ns3:atemp>
          </ns3:TrackPointExtension>
        </extensions>
      </trkpt>
      <trkpt lat="46.7860147543251514434814453125" lon="6.87061593867838382720947265625">
        <ele>434.600006103515625</ele>
        <time>2013-09-01T14:19:06.000Z</time>
        <extensions>
          <ns3:TrackPointExtension>
            <ns3:atemp>20.0</ns3:atemp>
          </ns3:TrackPointExtension>
        </extensions>
      </trkpt>
      <trkpt lat="46.7860268242657184600830078125" lon="6.87051418237388134002685546875">
        <ele>434.600006103515625</ele>
        <time>2013-09-01T14:19:07.000Z</time>
        <extensions>
          <ns3:TrackPointExtension>
            <ns3:atemp>20.0</ns3:atemp>
          </ns3:TrackPointExtension>
        </extensions>
      </trkpt>
      <trkpt lat="46.78603763692080974578857421875" lon="6.8704118393361568450927734375">
        <ele>434.399993896484375</ele>
        <time>2013-09-01T14:19:08.000Z</time>
        <extensions>
          <ns3:TrackPointExtension>
            <ns3:atemp>20.0</ns3:atemp>
          </ns3:TrackPointExtension>
        </extensions>
      </trkpt>
      <trkpt lat="46.78604870103299617767333984375" lon="6.87031351961195468902587890625">
        <ele>434.20001220703125</ele>
        <time>2013-09-01T14:19:09.000Z</time>
        <extensions>
          <ns3:TrackPointExtension>
            <ns3:atemp>20.0</ns3:atemp>
          </ns3:TrackPointExtension>
        </extensions>
      </trkpt>
      <trkpt lat="46.7860563285648822784423828125" lon="6.87021863646805286407470703125">
        <ele>434.20001220703125</ele>
        <time>2013-09-01T14:19:10.000Z</time>
        <extensions>
          <ns3:TrackPointExtension>
            <ns3:atemp>20.0</ns3:atemp>
          </ns3:TrackPointExtension>
        </extensions>
      </trkpt>
      <trkpt lat="46.78606764413416385650634765625" lon="6.8701275251805782318115234375">
        <ele>434.20001220703125</ele>
        <time>2013-09-01T14:19:11.000Z</time>
        <extensions>
          <ns3:TrackPointExtension>
            <ns3:atemp>20.0</ns3:atemp>
          </ns3:TrackPointExtension>
        </extensions>
      </trkpt>
      <trkpt lat="46.78607686422765254974365234375" lon="6.87003809027373790740966796875">
        <ele>434.399993896484375</ele>
        <time>2013-09-01T14:19:12.000Z</time>
        <extensions>
          <ns3:TrackPointExtension>
            <ns3:atemp>20.0</ns3:atemp>
          </ns3:TrackPointExtension>
        </extensions>
      </trkpt>
      <trkpt lat="46.786087341606616973876953125" lon="6.86994907446205615997314453125">
        <ele>434.600006103515625</ele>
        <time>2013-09-01T14:19:13.000Z</time>
        <extensions>
          <ns3:TrackPointExtension>
            <ns3:atemp>20.0</ns3:atemp>
          </ns3:TrackPointExtension>
        </extensions>
      </trkpt>
      <trkpt lat="46.78609907627105712890625" lon="6.869871877133846282958984375">
        <ele>434.79998779296875</ele>
        <time>2013-09-01T14:19:14.000Z</time>
        <extensions>
          <ns3:TrackPointExtension>
            <ns3:atemp>20.0</ns3:atemp>
          </ns3:TrackPointExtension>
        </extensions>
      </trkpt>
      <trkpt lat="46.78611156530678272247314453125" lon="6.869802139699459075927734375">
        <ele>435</ele>
        <time>2013-09-01T14:19:15.000Z</time>
        <extensions>
          <ns3:TrackPointExtension>
            <ns3:atemp>20.0</ns3:atemp>
          </ns3:TrackPointExtension>
        </extensions>
      </trkpt>
      <trkpt lat="46.78611944429576396942138671875" lon="6.86974539421498775482177734375">
        <ele>435.20001220703125</ele>
        <time>2013-09-01T14:19:16.000Z</time>
        <extensions>
          <ns3:TrackPointExtension>
            <ns3:atemp>20.0</ns3:atemp>
          </ns3:TrackPointExtension>
        </extensions>
      </trkpt>
      <trkpt lat="46.78612514398992061614990234375" lon="6.86969258822500705718994140625">
        <ele>435.399993896484375</ele>
        <time>2013-09-01T14:19:17.000Z</time>
        <extensions>
          <ns3:TrackPointExtension>
            <ns3:atemp>20.0</ns3:atemp>
          </ns3:TrackPointExtension>
        </extensions>
      </trkpt>
      <trkpt lat="46.78612933494150638580322265625" lon="6.86964514665305614471435546875">
        <ele>435.399993896484375</ele>
        <time>2013-09-01T14:19:18.000Z</time>
        <extensions>
          <ns3:TrackPointExtension>
            <ns3:atemp>20.0</ns3:atemp>
          </ns3:TrackPointExtension>
        </extensions>
      </trkpt>
      <trkpt lat="46.786132268607616424560546875" lon="6.869605667889118194580078125">
        <ele>435.600006103515625</ele>
        <time>2013-09-01T14:19:19.000Z</time>
        <extensions>
          <ns3:TrackPointExtension>
            <ns3:atemp>20.0</ns3:atemp>
          </ns3:TrackPointExtension>
        </extensions>
      </trkpt>
      <trkpt lat="46.7861324362456798553466796875" lon="6.86957088299095630645751953125">
        <ele>435.79998779296875</ele>
        <time>2013-09-01T14:19:20.000Z</time>
        <extensions>
          <ns3:TrackPointExtension>
            <ns3:atemp>20.0</ns3:atemp>
          </ns3:TrackPointExtension>
        </extensions>
      </trkpt>
      <trkpt lat="46.78613469935953617095947265625" lon="6.86953417025506496429443359375">
        <ele>436.20001220703125</ele>
        <time>2013-09-01T14:19:21.000Z</time>
        <extensions>
          <ns3:TrackPointExtension>
            <ns3:atemp>20.0</ns3:atemp>
          </ns3:TrackPointExtension>
        </extensions>
      </trkpt>
      <trkpt lat="46.7861378006637096405029296875" lon="6.8694995529949665069580078125">
        <ele>436.399993896484375</ele>
        <time>2013-09-01T14:19:22.000Z</time>
        <extensions>
          <ns3:TrackPointExtension>
            <ns3:atemp>20.0</ns3:atemp>
          </ns3:TrackPointExtension>
        </extensions>
      </trkpt>
      <trkpt lat="46.7861364595592021942138671875" lon="6.869467534124851226806640625">
        <ele>436.600006103515625</ele>
        <time>2013-09-01T14:19:23.000Z</time>
        <extensions>
          <ns3:TrackPointExtension>
            <ns3:atemp>20.0</ns3:atemp>
          </ns3:TrackPointExtension>
        </extensions>
      </trkpt>
      <trkpt lat="46.7861347831785678863525390625" lon="6.8694345094263553619384765625">
        <ele>436.79998779296875</ele>
        <time>2013-09-01T14:19:24.000Z</time>
        <extensions>
          <ns3:TrackPointExtension>
            <ns3:atemp>20.0</ns3:atemp>
          </ns3:TrackPointExtension>
        </extensions>
      </trkpt>
      <trkpt lat="46.786130927503108978271484375" lon="6.86940073035657405853271484375">
        <ele>437.20001220703125</ele>
        <time>2013-09-01T14:19:25.000Z</time>
        <extensions>
          <ns3:TrackPointExtension>
            <ns3:atemp>20.0</ns3:atemp>
          </ns3:TrackPointExtension>
        </extensions>
      </trkpt>
      <trkpt lat="46.7861243896186351776123046875" lon="6.8693674542009830474853515625">
        <ele>437.79998779296875</ele>
        <time>2013-09-01T14:19:26.000Z</time>
        <extensions>
          <ns3:TrackPointExtension>
            <ns3:atemp>20.0</ns3:atemp>
          </ns3:TrackPointExtension>
        </extensions>
      </trkpt>
      <trkpt lat="46.78611718118190765380859375" lon="6.8693371117115020751953125">
        <ele>438.20001220703125</ele>
        <time>2013-09-01T14:19:27.000Z</time>
        <extensions>
          <ns3:TrackPointExtension>
            <ns3:atemp>20.0</ns3:atemp>
          </ns3:TrackPointExtension>
        </extensions>
      </trkpt>
      <trkpt lat="46.7861111462116241455078125" lon="6.8693049252033233642578125">
        <ele>438.399993896484375</ele>
        <time>2013-09-01T14:19:28.000Z</time>
        <extensions>
          <ns3:TrackPointExtension>
            <ns3:atemp>20.0</ns3:atemp>
          </ns3:TrackPointExtension>
        </extensions>
      </trkpt>
      <trkpt lat="46.78610603325068950653076171875" lon="6.86927349306643009185791015625">
        <ele>438.79998779296875</ele>
        <time>2013-09-01T14:19:29.000Z</time>
        <extensions>
          <ns3:TrackPointExtension>
            <ns3:atemp>20.0</ns3:atemp>
          </ns3:TrackPointExtension>
        </extensions>
      </trkpt>
      <trkpt lat="46.7860962264239788055419921875" lon="6.869241893291473388671875">
        <ele>439.20001220703125</ele>
        <time>2013-09-01T14:19:30.000Z</time>
        <extensions>
          <ns3:TrackPointExtension>
            <ns3:atemp>20.0</ns3:atemp>
          </ns3:TrackPointExtension>
        </extensions>
      </trkpt>
      <trkpt lat="46.78608767688274383544921875" lon="6.869208030402660369873046875">
        <ele>439.399993896484375</ele>
        <time>2013-09-01T14:19:31.000Z</time>
        <extensions>
          <ns3:TrackPointExtension>
            <ns3:atemp>20.0</ns3:atemp>
          </ns3:TrackPointExtension>
        </extensions>
      </trkpt>
      <trkpt lat="46.7860787920653820037841796875" lon="6.869174502789974212646484375">
        <ele>439.79998779296875</ele>
        <time>2013-09-01T14:19:32.000Z</time>
        <extensions>
          <ns3:TrackPointExtension>
            <ns3:atemp>20.0</ns3:atemp>
          </ns3:TrackPointExtension>
        </extensions>
      </trkpt>
      <trkpt lat="46.7860687337815761566162109375" lon="6.86914089135825634002685546875">
        <ele>440</ele>
        <time>2013-09-01T14:19:33.000Z</time>
        <extensions>
          <ns3:TrackPointExtension>
            <ns3:atemp>20.0</ns3:atemp>
          </ns3:TrackPointExtension>
        </extensions>
      </trkpt>
      <trkpt lat="46.78605926223099231719970703125" lon="6.86910367570817470550537109375">
        <ele>440.399993896484375</ele>
        <time>2013-09-01T14:19:34.000Z</time>
        <extensions>
          <ns3:TrackPointExtension>
            <ns3:atemp>20.0</ns3:atemp>
          </ns3:TrackPointExtension>
        </extensions>
      </trkpt>
      <trkpt lat="46.786049790680408477783203125" lon="6.869066543877124786376953125">
        <ele>440.600006103515625</ele>
        <time>2013-09-01T14:19:35.000Z</time>
        <extensions>
          <ns3:TrackPointExtension>
            <ns3:atemp>20.0</ns3:atemp>
          </ns3:TrackPointExtension>
        </extensions>
      </trkpt>
      <trkpt lat="46.78603813983500003814697265625" lon="6.8690321780741214752197265625">
        <ele>440.79998779296875</ele>
        <time>2013-09-01T14:19:36.000Z</time>
        <extensions>
          <ns3:TrackPointExtension>
            <ns3:atemp>20.0</ns3:atemp>
          </ns3:TrackPointExtension>
        </extensions>
      </trkpt>
      <trkpt lat="46.7860238067805767059326171875" lon="6.86899705789983272552490234375">
        <ele>441.20001220703125</ele>
        <time>2013-09-01T14:19:37.000Z</time>
        <extensions>
          <ns3:TrackPointExtension>
            <ns3:atemp>20.0</ns3:atemp>
          </ns3:TrackPointExtension>
        </extensions>
      </trkpt>
      <trkpt lat="46.786013580858707427978515625" lon="6.86896336264908313751220703125">
        <ele>441.399993896484375</ele>
        <time>2013-09-01T14:19:38.000Z</time>
        <extensions>
          <ns3:TrackPointExtension>
            <ns3:atemp>20.0</ns3:atemp>
          </ns3:TrackPointExtension>
        </extensions>
      </trkpt>
      <trkpt lat="46.7860030196607112884521484375" lon="6.8689332716166973114013671875">
        <ele>441.79998779296875</ele>
        <time>2013-09-01T14:19:39.000Z</time>
        <extensions>
          <ns3:TrackPointExtension>
            <ns3:atemp>20.0</ns3:atemp>
          </ns3:TrackPointExtension>
        </extensions>
      </trkpt>
      <trkpt lat="46.78599514067173004150390625" lon="6.86890125274658203125">
        <ele>442</ele>
        <time>2013-09-01T14:19:40.000Z</time>
        <extensions>
          <ns3:TrackPointExtension>
            <ns3:atemp>20.0</ns3:atemp>
          </ns3:TrackPointExtension>
        </extensions>
      </trkpt>
      <trkpt lat="46.78598801605403423309326171875" lon="6.8688690662384033203125">
        <ele>442.20001220703125</ele>
        <time>2013-09-01T14:19:41.000Z</time>
        <extensions>
          <ns3:TrackPointExtension>
            <ns3:atemp>20.0</ns3:atemp>
          </ns3:TrackPointExtension>
        </extensions>
      </trkpt>
      <trkpt lat="46.78597678430378437042236328125" lon="6.86883646063506603240966796875">
        <ele>442.600006103515625</ele>
        <time>2013-09-01T14:19:42.000Z</time>
        <extensions>
          <ns3:TrackPointExtension>
            <ns3:atemp>20.0</ns3:atemp>
          </ns3:TrackPointExtension>
        </extensions>
      </trkpt>
      <trkpt lat="46.78596303798258304595947265625" lon="6.8688065372407436370849609375">
        <ele>442.79998779296875</ele>
        <time>2013-09-01T14:19:43.000Z</time>
        <extensions>
          <ns3:TrackPointExtension>
            <ns3:atemp>20.0</ns3:atemp>
          </ns3:TrackPointExtension>
        </extensions>
      </trkpt>
      <trkpt lat="46.7859487049281597137451171875" lon="6.86877946369349956512451171875">
        <ele>443.20001220703125</ele>
        <time>2013-09-01T14:19:44.000Z</time>
        <extensions>
          <ns3:TrackPointExtension>
            <ns3:atemp>20.0</ns3:atemp>
          </ns3:TrackPointExtension>
        </extensions>
      </trkpt>
      <trkpt lat="46.78593219257891178131103515625" lon="6.86875180341303348541259765625">
        <ele>443.399993896484375</ele>
        <time>2013-09-01T14:19:45.000Z</time>
        <extensions>
          <ns3:TrackPointExtension>
            <ns3:atemp>20.0</ns3:atemp>
          </ns3:TrackPointExtension>
        </extensions>
      </trkpt>
      <trkpt lat="46.785914003849029541015625" lon="6.86872229911386966705322265625">
        <ele>443.79998779296875</ele>
        <time>2013-09-01T14:19:46.000Z</time>
        <extensions>
          <ns3:TrackPointExtension>
            <ns3:atemp>20.0</ns3:atemp>
          </ns3:TrackPointExtension>
        </extensions>
      </trkpt>
      <trkpt lat="46.7858964018523693084716796875" lon="6.8686932139098644256591796875">
        <ele>444</ele>
        <time>2013-09-01T14:19:47.000Z</time>
        <extensions>
          <ns3:TrackPointExtension>
            <ns3:atemp>20.0</ns3:atemp>
          </ns3:TrackPointExtension>
        </extensions>
      </trkpt>
      <trkpt lat="46.78588156588375568389892578125" lon="6.8686657212674617767333984375">
        <ele>444.20001220703125</ele>
        <time>2013-09-01T14:19:48.000Z</time>
        <extensions>
          <ns3:TrackPointExtension>
            <ns3:atemp>20.0</ns3:atemp>
          </ns3:TrackPointExtension>
        </extensions>
      </trkpt>
      <trkpt lat="46.7858670651912689208984375" lon="6.86863839626312255859375">
        <ele>444.399993896484375</ele>
        <time>2013-09-01T14:19:49.000Z</time>
        <extensions>
          <ns3:TrackPointExtension>
            <ns3:atemp>20.0</ns3:atemp>
          </ns3:TrackPointExtension>
        </extensions>
      </trkpt>
      <trkpt lat="46.7858561687171459197998046875" lon="6.86860964633524417877197265625">
        <ele>445</ele>
        <time>2013-09-01T14:19:50.000Z</time>
        <extensions>
          <ns3:TrackPointExtension>
            <ns3:atemp>20.0</ns3:atemp>
          </ns3:TrackPointExtension>
        </extensions>
      </trkpt>
      <trkpt lat="46.785848625004291534423828125" lon="6.86857595108449459075927734375">
        <ele>445.399993896484375</ele>
        <time>2013-09-01T14:19:51.000Z</time>
        <extensions>
          <ns3:TrackPointExtension>
            <ns3:atemp>20.0</ns3:atemp>
          </ns3:TrackPointExtension>
        </extensions>
      </trkpt>
      <trkpt lat="46.7858454398810863494873046875" lon="6.86854091472923755645751953125">
        <ele>445.79998779296875</ele>
        <time>2013-09-01T14:19:52.000Z</time>
        <extensions>
          <ns3:TrackPointExtension>
            <ns3:atemp>20.0</ns3:atemp>
          </ns3:TrackPointExtension>
        </extensions>
      </trkpt>
      <trkpt lat="46.7858402431011199951171875" lon="6.86850956641137599945068359375">
        <ele>446</ele>
        <time>2013-09-01T14:19:53.000Z</time>
        <extensions>
          <ns3:TrackPointExtension>
            <ns3:atemp>20.0</ns3:atemp>
          </ns3:TrackPointExtension>
        </extensions>
      </trkpt>
      <trkpt lat="46.7858347110450267791748046875" lon="6.86847620643675327301025390625">
        <ele>446.399993896484375</ele>
        <time>2013-09-01T14:19:54.000Z</time>
        <extensions>
          <ns3:TrackPointExtension>
            <ns3:atemp>20.0</ns3:atemp>
          </ns3:TrackPointExtension>
        </extensions>
      </trkpt>
      <trkpt lat="46.78582959808409214019775390625" lon="6.8684407509863376617431640625">
        <ele>446.600006103515625</ele>
        <time>2013-09-01T14:19:55.000Z</time>
        <extensions>
          <ns3:TrackPointExtension>
            <ns3:atemp>20.0</ns3:atemp>
          </ns3:TrackPointExtension>
        </extensions>
      </trkpt>
      <trkpt lat="46.7858290113508701324462890625" lon="6.86840479262173175811767578125">
        <ele>446.79998779296875</ele>
        <time>2013-09-01T14:19:56.000Z</time>
        <extensions>
          <ns3:TrackPointExtension>
            <ns3:atemp>20.0</ns3:atemp>
          </ns3:TrackPointExtension>
        </extensions>
      </trkpt>
      <trkpt lat="46.78582959808409214019775390625" lon="6.86837076209485530853271484375">
        <ele>447.20001220703125</ele>
        <time>2013-09-01T14:19:57.000Z</time>
        <extensions>
          <ns3:TrackPointExtension>
            <ns3:atemp>20.0</ns3:atemp>
          </ns3:TrackPointExtension>
        </extensions>
      </trkpt>
      <trkpt lat="46.7858300171792507171630859375" lon="6.8683337979018688201904296875">
        <ele>447.399993896484375</ele>
        <time>2013-09-01T14:19:58.000Z</time>
        <extensions>
          <ns3:TrackPointExtension>
            <ns3:atemp>20.0</ns3:atemp>
          </ns3:TrackPointExtension>
        </extensions>
      </trkpt>
      <trkpt lat="46.78583261556923389434814453125" lon="6.86829532496631145477294921875">
        <ele>447.600006103515625</ele>
        <time>2013-09-01T14:19:59.000Z</time>
        <extensions>
          <ns3:TrackPointExtension>
            <ns3:atemp>20.0</ns3:atemp>
          </ns3:TrackPointExtension>
        </extensions>
      </trkpt>
      <trkpt lat="46.78583412431180477142333984375" lon="6.86825458891689777374267578125">
        <ele>447.79998779296875</ele>
        <time>2013-09-01T14:20:00.000Z</time>
        <extensions>
          <ns3:TrackPointExtension>
            <ns3:atemp>20.0</ns3:atemp>
          </ns3:TrackPointExtension>
        </extensions>
      </trkpt>
      <trkpt lat="46.78584091365337371826171875" lon="6.868210919201374053955078125">
        <ele>448.20001220703125</ele>
        <time>2013-09-01T14:20:01.000Z</time>
        <extensions>
          <ns3:TrackPointExtension>
            <ns3:atemp>20.0</ns3:atemp>
          </ns3:TrackPointExtension>
        </extensions>
      </trkpt>
      <trkpt lat="46.78584988228976726531982421875" lon="6.8681638129055500030517578125">
        <ele>448.399993896484375</ele>
        <time>2013-09-01T14:20:02.000Z</time>
        <extensions>
          <ns3:TrackPointExtension>
            <ns3:atemp>20.0</ns3:atemp>
          </ns3:TrackPointExtension>
        </extensions>
      </trkpt>
      <trkpt lat="46.78585357032716274261474609375" lon="6.86812181957066059112548828125">
        <ele>448.79998779296875</ele>
        <time>2013-09-01T14:20:03.000Z</time>
        <extensions>
          <ns3:TrackPointExtension>
            <ns3:atemp>20.0</ns3:atemp>
          </ns3:TrackPointExtension>
        </extensions>
      </trkpt>
      <trkpt lat="46.78585432469844818115234375" lon="6.86808074824512004852294921875">
        <ele>449</ele>
        <time>2013-09-01T14:20:04.000Z</time>
        <extensions>
          <ns3:TrackPointExtension>
            <ns3:atemp>20.0</ns3:atemp>
          </ns3:TrackPointExtension>
        </extensions>
      </trkpt>
      <trkpt lat="46.78585675545036792755126953125" lon="6.86803959310054779052734375">
        <ele>449.399993896484375</ele>
        <time>2013-09-01T14:20:05.000Z</time>
        <extensions>
          <ns3:TrackPointExtension>
            <ns3:atemp>20.0</ns3:atemp>
          </ns3:TrackPointExtension>
        </extensions>
      </trkpt>
      <trkpt lat="46.78585742600262165069580078125" lon="6.86799575574696063995361328125">
        <ele>449.600006103515625</ele>
        <time>2013-09-01T14:20:06.000Z</time>
        <extensions>
          <ns3:TrackPointExtension>
            <ns3:atemp>20.0</ns3:atemp>
          </ns3:TrackPointExtension>
        </extensions>
      </trkpt>
      <trkpt lat="46.7858575098216533660888671875" lon="6.86795619316399097442626953125">
        <ele>449.79998779296875</ele>
        <time>2013-09-01T14:20:07.000Z</time>
        <extensions>
          <ns3:TrackPointExtension>
            <ns3:atemp>20.0</ns3:atemp>
          </ns3:TrackPointExtension>
        </extensions>
      </trkpt>
      <trkpt lat="46.78585524670779705047607421875" lon="6.8679170496761798858642578125">
        <ele>450.20001220703125</ele>
        <time>2013-09-01T14:20:08.000Z</time>
        <extensions>
          <ns3:TrackPointExtension>
            <ns3:atemp>20.0</ns3:atemp>
          </ns3:TrackPointExtension>
        </extensions>
      </trkpt>
      <trkpt lat="46.78584937937557697296142578125" lon="6.8678820133209228515625">
        <ele>450.399993896484375</ele>
        <time>2013-09-01T14:20:09.000Z</time>
        <extensions>
          <ns3:TrackPointExtension>
            <ns3:atemp>20.0</ns3:atemp>
          </ns3:TrackPointExtension>
        </extensions>
      </trkpt>
      <trkpt lat="46.7858427576720714569091796875" lon="6.86784924007952213287353515625">
        <ele>450.79998779296875</ele>
        <time>2013-09-01T14:20:10.000Z</time>
        <extensions>
          <ns3:TrackPointExtension>
            <ns3:atemp>20.0</ns3:atemp>
          </ns3:TrackPointExtension>
        </extensions>
      </trkpt>
      <trkpt lat="46.785834543406963348388671875" lon="6.8678178079426288604736328125">
        <ele>451</ele>
        <time>2013-09-01T14:20:11.000Z</time>
        <extensions>
          <ns3:TrackPointExtension>
            <ns3:atemp>20.0</ns3:atemp>
          </ns3:TrackPointExtension>
        </extensions>
      </trkpt>
      <trkpt lat="46.78582859225571155548095703125" lon="6.8677852861583232879638671875">
        <ele>451.399993896484375</ele>
        <time>2013-09-01T14:20:12.000Z</time>
        <extensions>
          <ns3:TrackPointExtension>
            <ns3:atemp>20.0</ns3:atemp>
          </ns3:TrackPointExtension>
        </extensions>
      </trkpt>
      <trkpt lat="46.78582482039928436279296875" lon="6.8677507527172565460205078125">
        <ele>451.600006103515625</ele>
        <time>2013-09-01T14:20:13.000Z</time>
        <extensions>
          <ns3:TrackPointExtension>
            <ns3:atemp>20.0</ns3:atemp>
          </ns3:TrackPointExtension>
        </extensions>
      </trkpt>
      <trkpt lat="46.78582322783768177032470703125" lon="6.8677189014852046966552734375">
        <ele>452.20001220703125</ele>
        <time>2013-09-01T14:20:15.000Z</time>
        <extensions>
          <ns3:TrackPointExtension>
            <ns3:atemp>20.0</ns3:atemp>
          </ns3:TrackPointExtension>
        </extensions>
      </trkpt>
      <trkpt lat="46.785822808742523193359375" lon="6.86768763698637485504150390625">
        <ele>452.600006103515625</ele>
        <time>2013-09-01T14:20:16.000Z</time>
        <extensions>
          <ns3:TrackPointExtension>
            <ns3:atemp>20.0</ns3:atemp>
          </ns3:TrackPointExtension>
        </extensions>
      </trkpt>
      <trkpt lat="46.78582071326673030853271484375" lon="6.867643631994724273681640625">
        <ele>452.79998779296875</ele>
        <time>2013-09-01T14:20:17.000Z</time>
        <extensions>
          <ns3:TrackPointExtension>
            <ns3:atemp>20.0</ns3:atemp>
          </ns3:TrackPointExtension>
        </extensions>
      </trkpt>
      <trkpt lat="46.78581719286739826202392578125" lon="6.8676099367439746856689453125">
        <ele>453.20001220703125</ele>
        <time>2013-09-01T14:20:18.000Z</time>
        <extensions>
          <ns3:TrackPointExtension>
            <ns3:atemp>20.0</ns3:atemp>
          </ns3:TrackPointExtension>
        </extensions>
      </trkpt>
      <trkpt lat="46.78581677377223968505859375" lon="6.8675505928695201873779296875">
        <ele>453.399993896484375</ele>
        <time>2013-09-01T14:20:19.000Z</time>
        <extensions>
          <ns3:TrackPointExtension>
            <ns3:atemp>20.0</ns3:atemp>
          </ns3:TrackPointExtension>
        </extensions>
      </trkpt>
      <trkpt lat="46.7858166061341762542724609375" lon="6.867500804364681243896484375">
        <ele>453.600006103515625</ele>
        <time>2013-09-01T14:20:20.000Z</time>
        <extensions>
          <ns3:TrackPointExtension>
            <ns3:atemp>20.0</ns3:atemp>
          </ns3:TrackPointExtension>
        </extensions>
      </trkpt>
      <trkpt lat="46.7858206294476985931396484375" lon="6.86745009385049343109130859375">
        <ele>454</ele>
        <time>2013-09-01T14:20:21.000Z</time>
        <extensions>
          <ns3:TrackPointExtension>
            <ns3:atemp>20.0</ns3:atemp>
          </ns3:TrackPointExtension>
        </extensions>
      </trkpt>
      <trkpt lat="46.78583026863634586334228515625" lon="6.86740114353597164154052734375">
        <ele>454.399993896484375</ele>
        <time>2013-09-01T14:20:22.000Z</time>
        <extensions>
          <ns3:TrackPointExtension>
            <ns3:atemp>20.0</ns3:atemp>
          </ns3:TrackPointExtension>
        </extensions>
      </trkpt>
      <trkpt lat="46.78584082983434200286865234375" lon="6.86735085211694240570068359375">
        <ele>454.600006103515625</ele>
        <time>2013-09-01T14:20:23.000Z</time>
        <extensions>
          <ns3:TrackPointExtension>
            <ns3:atemp>20.0</ns3:atemp>
          </ns3:TrackPointExtension>
        </extensions>
      </trkpt>
      <trkpt lat="46.78585055284202098846435546875" lon="6.867305338382720947265625">
        <ele>455</ele>
        <time>2013-09-01T14:20:24.000Z</time>
        <extensions>
          <ns3:TrackPointExtension>
            <ns3:atemp>20.0</ns3:atemp>
          </ns3:TrackPointExtension>
        </extensions>
      </trkpt>
      <trkpt lat="46.78586010821163654327392578125" lon="6.86726518906652927398681640625">
        <ele>455.399993896484375</ele>
        <time>2013-09-01T14:20:25.000Z</time>
        <extensions>
          <ns3:TrackPointExtension>
            <ns3:atemp>20.0</ns3:atemp>
          </ns3:TrackPointExtension>
        </extensions>
      </trkpt>
      <trkpt lat="46.78587033413350582122802734375" lon="6.8672263808548450469970703125">
        <ele>455.79998779296875</ele>
        <time>2013-09-01T14:20:26.000Z</time>
        <extensions>
          <ns3:TrackPointExtension>
            <ns3:atemp>20.0</ns3:atemp>
          </ns3:TrackPointExtension>
        </extensions>
      </trkpt>
      <trkpt lat="46.7858752794563770294189453125" lon="6.8671918474137783050537109375">
        <ele>456.20001220703125</ele>
        <time>2013-09-01T14:20:27.000Z</time>
        <extensions>
          <ns3:TrackPointExtension>
            <ns3:atemp>20.0</ns3:atemp>
          </ns3:TrackPointExtension>
        </extensions>
      </trkpt>
      <trkpt lat="46.78587536327540874481201171875" lon="6.86715186573565006256103515625">
        <ele>456.399993896484375</ele>
        <time>2013-09-01T14:20:28.000Z</time>
        <extensions>
          <ns3:TrackPointExtension>
            <ns3:atemp>20.0</ns3:atemp>
          </ns3:TrackPointExtension>
        </extensions>
      </trkpt>
      <trkpt lat="46.78586748428642749786376953125" lon="6.8671130575239658355712890625">
        <ele>456.600006103515625</ele>
        <time>2013-09-01T14:20:29.000Z</time>
        <extensions>
          <ns3:TrackPointExtension>
            <ns3:atemp>20.0</ns3:atemp>
          </ns3:TrackPointExtension>
        </extensions>
      </trkpt>
      <trkpt lat="46.78586631081998348236083984375" lon="6.8670761771500110626220703125">
        <ele>456.79998779296875</ele>
        <time>2013-09-01T14:20:30.000Z</time>
        <extensions>
          <ns3:TrackPointExtension>
            <ns3:atemp>20.0</ns3:atemp>
          </ns3:TrackPointExtension>
        </extensions>
      </trkpt>
      <trkpt lat="46.7858662270009517669677734375" lon="6.867039464414119720458984375">
        <ele>457.20001220703125</ele>
        <time>2013-09-01T14:20:31.000Z</time>
        <extensions>
          <ns3:TrackPointExtension>
            <ns3:atemp>20.0</ns3:atemp>
          </ns3:TrackPointExtension>
        </extensions>
      </trkpt>
      <trkpt lat="46.78586237132549285888671875" lon="6.86700518243014812469482421875">
        <ele>457.399993896484375</ele>
        <time>2013-09-01T14:20:32.000Z</time>
        <extensions>
          <ns3:TrackPointExtension>
            <ns3:atemp>20.0</ns3:atemp>
          </ns3:TrackPointExtension>
        </extensions>
      </trkpt>
      <trkpt lat="46.78585759364068508148193359375" lon="6.86696779914200305938720703125">
        <ele>457.79998779296875</ele>
        <time>2013-09-01T14:20:33.000Z</time>
        <extensions>
          <ns3:TrackPointExtension>
            <ns3:atemp>20.0</ns3:atemp>
          </ns3:TrackPointExtension>
        </extensions>
      </trkpt>
      <trkpt lat="46.7858477868139743804931640625" lon="6.86693443916738033294677734375">
        <ele>458</ele>
        <time>2013-09-01T14:20:34.000Z</time>
        <extensions>
          <ns3:TrackPointExtension>
            <ns3:atemp>20.0</ns3:atemp>
          </ns3:TrackPointExtension>
        </extensions>
      </trkpt>
      <trkpt lat="46.78583714179694652557373046875" lon="6.86690057627856731414794921875">
        <ele>458.399993896484375</ele>
        <time>2013-09-01T14:20:35.000Z</time>
        <extensions>
          <ns3:TrackPointExtension>
            <ns3:atemp>20.0</ns3:atemp>
          </ns3:TrackPointExtension>
        </extensions>
      </trkpt>
      <trkpt lat="46.785828508436679840087890625" lon="6.86686621047556400299072265625">
        <ele>458.79998779296875</ele>
        <time>2013-09-01T14:20:36.000Z</time>
        <extensions>
          <ns3:TrackPointExtension>
            <ns3:atemp>20.0</ns3:atemp>
          </ns3:TrackPointExtension>
        </extensions>
      </trkpt>
      <trkpt lat="46.78581870160996913909912109375" lon="6.8668354488909244537353515625">
        <ele>459</ele>
        <time>2013-09-01T14:20:37.000Z</time>
        <extensions>
          <ns3:TrackPointExtension>
            <ns3:atemp>20.0</ns3:atemp>
          </ns3:TrackPointExtension>
        </extensions>
      </trkpt>
      <trkpt lat="46.7858132533729076385498046875" lon="6.86680451966822147369384765625">
        <ele>459.20001220703125</ele>
        <time>2013-09-01T14:20:38.000Z</time>
        <extensions>
          <ns3:TrackPointExtension>
            <ns3:atemp>20.0</ns3:atemp>
          </ns3:TrackPointExtension>
        </extensions>
      </trkpt>
      <trkpt lat="46.78580679930746555328369140625" lon="6.866775937378406524658203125">
        <ele>459.79998779296875</ele>
        <time>2013-09-01T14:20:39.000Z</time>
        <extensions>
          <ns3:TrackPointExtension>
            <ns3:atemp>20.0</ns3:atemp>
          </ns3:TrackPointExtension>
        </extensions>
      </trkpt>
      <trkpt lat="46.78579942323267459869384765625" lon="6.86674400232732295989990234375">
        <ele>460</ele>
        <time>2013-09-01T14:20:40.000Z</time>
        <extensions>
          <ns3:TrackPointExtension>
            <ns3:atemp>20.0</ns3:atemp>
          </ns3:TrackPointExtension>
        </extensions>
      </trkpt>
      <trkpt lat="46.78579187951982021331787109375" lon="6.8667194433510303497314453125">
        <ele>460.20001220703125</ele>
        <time>2013-09-01T14:20:41.000Z</time>
        <extensions>
          <ns3:TrackPointExtension>
            <ns3:atemp>20.0</ns3:atemp>
          </ns3:TrackPointExtension>
        </extensions>
      </trkpt>
      <trkpt lat="46.78578416816890239715576171875" lon="6.86668968759477138519287109375">
        <ele>460.399993896484375</ele>
        <time>2013-09-01T14:20:42.000Z</time>
        <extensions>
          <ns3:TrackPointExtension>
            <ns3:atemp>20.0</ns3:atemp>
          </ns3:TrackPointExtension>
        </extensions>
      </trkpt>
      <trkpt lat="46.78577385842800140380859375" lon="6.86666085384786128997802734375">
        <ele>460.600006103515625</ele>
        <time>2013-09-01T14:20:43.000Z</time>
        <extensions>
          <ns3:TrackPointExtension>
            <ns3:atemp>20.0</ns3:atemp>
          </ns3:TrackPointExtension>
        </extensions>
      </trkpt>
      <trkpt lat="46.78576447069644927978515625" lon="6.86662933789193630218505859375">
        <ele>461</ele>
        <time>2013-09-01T14:20:44.000Z</time>
        <extensions>
          <ns3:TrackPointExtension>
            <ns3:atemp>20.0</ns3:atemp>
          </ns3:TrackPointExtension>
        </extensions>
      </trkpt>
      <trkpt lat="46.7857544124126434326171875" lon="6.86659899540245532989501953125">
        <ele>461</ele>
        <time>2013-09-01T14:20:45.000Z</time>
        <extensions>
          <ns3:TrackPointExtension>
            <ns3:atemp>20.0</ns3:atemp>
          </ns3:TrackPointExtension>
        </extensions>
      </trkpt>
      <trkpt lat="46.785741336643695831298828125" lon="6.866566725075244903564453125">
        <ele>461.399993896484375</ele>
        <time>2013-09-01T14:20:46.000Z</time>
        <extensions>
          <ns3:TrackPointExtension>
            <ns3:atemp>20.0</ns3:atemp>
          </ns3:TrackPointExtension>
        </extensions>
      </trkpt>
      <trkpt lat="46.78573035635054111480712890625" lon="6.86653554439544677734375">
        <ele>461.600006103515625</ele>
        <time>2013-09-01T14:20:47.000Z</time>
        <extensions>
          <ns3:TrackPointExtension>
            <ns3:atemp>20.0</ns3:atemp>
          </ns3:TrackPointExtension>
        </extensions>
      </trkpt>
      <trkpt lat="46.78571887314319610595703125" lon="6.8665062077343463897705078125">
        <ele>461.79998779296875</ele>
        <time>2013-09-01T14:20:48.000Z</time>
        <extensions>
          <ns3:TrackPointExtension>
            <ns3:atemp>20.0</ns3:atemp>
          </ns3:TrackPointExtension>
        </extensions>
      </trkpt>
      <trkpt lat="46.78571007214486598968505859375" lon="6.86647854745388031005859375">
        <ele>462.20001220703125</ele>
        <time>2013-09-01T14:20:49.000Z</time>
        <extensions>
          <ns3:TrackPointExtension>
            <ns3:atemp>20.0</ns3:atemp>
          </ns3:TrackPointExtension>
        </extensions>
      </trkpt>
      <trkpt lat="46.78569867275655269622802734375" lon="6.8664528988301753997802734375">
        <ele>462.399993896484375</ele>
        <time>2013-09-01T14:20:50.000Z</time>
        <extensions>
          <ns3:TrackPointExtension>
            <ns3:atemp>20.0</ns3:atemp>
          </ns3:TrackPointExtension>
        </extensions>
      </trkpt>
      <trkpt lat="46.78568559698760509490966796875" lon="6.8664277531206607818603515625">
        <ele>462.600006103515625</ele>
        <time>2013-09-01T14:20:51.000Z</time>
        <extensions>
          <ns3:TrackPointExtension>
            <ns3:atemp>20.0</ns3:atemp>
          </ns3:TrackPointExtension>
        </extensions>
      </trkpt>
      <trkpt lat="46.7856721021234989166259765625" lon="6.86640076339244842529296875">
        <ele>462.79998779296875</ele>
        <time>2013-09-01T14:20:52.000Z</time>
        <extensions>
          <ns3:TrackPointExtension>
            <ns3:atemp>20.0</ns3:atemp>
          </ns3:TrackPointExtension>
        </extensions>
      </trkpt>
      <trkpt lat="46.785652823746204376220703125" lon="6.86637000180780887603759765625">
        <ele>463</ele>
        <time>2013-09-01T14:20:53.000Z</time>
        <extensions>
          <ns3:TrackPointExtension>
            <ns3:atemp>20.0</ns3:atemp>
          </ns3:TrackPointExtension>
        </extensions>
      </trkpt>
      <trkpt lat="46.7856429331004619598388671875" lon="6.866341419517993927001953125">
        <ele>463.20001220703125</ele>
        <time>2013-09-01T14:20:54.000Z</time>
        <extensions>
          <ns3:TrackPointExtension>
            <ns3:atemp>20.0</ns3:atemp>
          </ns3:TrackPointExtension>
        </extensions>
      </trkpt>
      <trkpt lat="46.78563614375889301300048828125" lon="6.86631753109395503997802734375">
        <ele>463.399993896484375</ele>
        <time>2013-09-01T14:20:55.000Z</time>
        <extensions>
          <ns3:TrackPointExtension>
            <ns3:atemp>20.0</ns3:atemp>
          </ns3:TrackPointExtension>
        </extensions>
      </trkpt>
      <trkpt lat="46.7856221459805965423583984375" lon="6.8662928044795989990234375">
        <ele>463.600006103515625</ele>
        <time>2013-09-01T14:20:56.000Z</time>
        <extensions>
          <ns3:TrackPointExtension>
            <ns3:atemp>20.0</ns3:atemp>
          </ns3:TrackPointExtension>
        </extensions>
      </trkpt>
      <trkpt lat="46.7856068909168243408203125" lon="6.86626338399946689605712890625">
        <ele>463.79998779296875</ele>
        <time>2013-09-01T14:20:57.000Z</time>
        <extensions>
          <ns3:TrackPointExtension>
            <ns3:atemp>20.0</ns3:atemp>
          </ns3:TrackPointExtension>
        </extensions>
      </trkpt>
      <trkpt lat="46.78559339605271816253662109375" lon="6.866232790052890777587890625">
        <ele>464</ele>
        <time>2013-09-01T14:20:58.000Z</time>
        <extensions>
          <ns3:TrackPointExtension>
            <ns3:atemp>20.0</ns3:atemp>
          </ns3:TrackPointExtension>
        </extensions>
      </trkpt>
      <trkpt lat="46.7855849303305149078369140625" lon="6.86619884334504604339599609375">
        <ele>464.20001220703125</ele>
        <time>2013-09-01T14:20:59.000Z</time>
        <extensions>
          <ns3:TrackPointExtension>
            <ns3:atemp>20.0</ns3:atemp>
          </ns3:TrackPointExtension>
        </extensions>
      </trkpt>
      <trkpt lat="46.785575710237026214599609375" lon="6.8661694228649139404296875">
        <ele>464.600006103515625</ele>
        <time>2013-09-01T14:21:00.000Z</time>
        <extensions>
          <ns3:TrackPointExtension>
            <ns3:atemp>20.0</ns3:atemp>
          </ns3:TrackPointExtension>
        </extensions>
      </trkpt>
      <trkpt lat="46.78556506521999835968017578125" lon="6.8661439418792724609375">
        <ele>464.79998779296875</ele>
        <time>2013-09-01T14:21:01.000Z</time>
        <extensions>
          <ns3:TrackPointExtension>
            <ns3:atemp>20.0</ns3:atemp>
          </ns3:TrackPointExtension>
        </extensions>
      </trkpt>
      <trkpt lat="46.78555333055555820465087890625" lon="6.8661186285316944122314453125">
        <ele>465</ele>
        <time>2013-09-01T14:21:02.000Z</time>
        <extensions>
          <ns3:TrackPointExtension>
            <ns3:atemp>20.0</ns3:atemp>
          </ns3:TrackPointExtension>
        </extensions>
      </trkpt>
      <trkpt lat="46.78554193116724491119384765625" lon="6.86609499156475067138671875">
        <ele>465.600006103515625</ele>
        <time>2013-09-01T14:21:03.000Z</time>
        <extensions>
          <ns3:TrackPointExtension>
            <ns3:atemp>20.0</ns3:atemp>
          </ns3:TrackPointExtension>
        </extensions>
      </trkpt>
      <trkpt lat="46.78553086705505847930908203125" lon="6.86607294715940952301025390625">
        <ele>466</ele>
        <time>2013-09-01T14:21:04.000Z</time>
        <extensions>
          <ns3:TrackPointExtension>
            <ns3:atemp>20.0</ns3:atemp>
          </ns3:TrackPointExtension>
        </extensions>
      </trkpt>
      <trkpt lat="46.7855145223438739776611328125" lon="6.86604880727827548980712890625">
        <ele>466.20001220703125</ele>
        <time>2013-09-01T14:21:05.000Z</time>
        <extensions>
          <ns3:TrackPointExtension>
            <ns3:atemp>20.0</ns3:atemp>
          </ns3:TrackPointExtension>
        </extensions>
      </trkpt>
      <trkpt lat="46.78549784235656261444091796875" lon="6.8660254217684268951416015625">
        <ele>466.399993896484375</ele>
        <time>2013-09-01T14:21:06.000Z</time>
        <extensions>
          <ns3:TrackPointExtension>
            <ns3:atemp>20.0</ns3:atemp>
          </ns3:TrackPointExtension>
        </extensions>
      </trkpt>
      <trkpt lat="46.78548174910247325897216796875" lon="6.8660056404769420623779296875">
        <ele>466.79998779296875</ele>
        <time>2013-09-01T14:21:07.000Z</time>
        <extensions>
          <ns3:TrackPointExtension>
            <ns3:atemp>20.0</ns3:atemp>
          </ns3:TrackPointExtension>
        </extensions>
      </trkpt>
      <trkpt lat="46.78546766750514507293701171875" lon="6.86598376370966434478759765625">
        <ele>467</ele>
        <time>2013-09-01T14:21:08.000Z</time>
        <extensions>
          <ns3:TrackPointExtension>
            <ns3:atemp>20.0</ns3:atemp>
          </ns3:TrackPointExtension>
        </extensions>
      </trkpt>
      <trkpt lat="46.78545190952718257904052734375" lon="6.86596482060849666595458984375">
        <ele>467.20001220703125</ele>
        <time>2013-09-01T14:21:09.000Z</time>
        <extensions>
          <ns3:TrackPointExtension>
            <ns3:atemp>20.0</ns3:atemp>
          </ns3:TrackPointExtension>
        </extensions>
      </trkpt>
      <trkpt lat="46.785436905920505523681640625" lon="6.86594654805958271026611328125">
        <ele>467.399993896484375</ele>
        <time>2013-09-01T14:21:10.000Z</time>
        <extensions>
          <ns3:TrackPointExtension>
            <ns3:atemp>20.0</ns3:atemp>
          </ns3:TrackPointExtension>
        </extensions>
      </trkpt>
      <trkpt lat="46.78542123176157474517822265625" lon="6.865919642150402069091796875">
        <ele>467.79998779296875</ele>
        <time>2013-09-01T14:21:11.000Z</time>
        <extensions>
          <ns3:TrackPointExtension>
            <ns3:atemp>20.0</ns3:atemp>
          </ns3:TrackPointExtension>
        </extensions>
      </trkpt>
      <trkpt lat="46.78540706634521484375" lon="6.865890808403491973876953125">
        <ele>468.20001220703125</ele>
        <time>2013-09-01T14:21:12.000Z</time>
        <extensions>
          <ns3:TrackPointExtension>
            <ns3:atemp>20.0</ns3:atemp>
          </ns3:TrackPointExtension>
        </extensions>
      </trkpt>
      <trkpt lat="46.78539306856691837310791015625" lon="6.865865327417850494384765625">
        <ele>468.399993896484375</ele>
        <time>2013-09-01T14:21:13.000Z</time>
        <extensions>
          <ns3:TrackPointExtension>
            <ns3:atemp>20.0</ns3:atemp>
          </ns3:TrackPointExtension>
        </extensions>
      </trkpt>
      <trkpt lat="46.78537948988378047943115234375" lon="6.8658386729657649993896484375">
        <ele>468.79998779296875</ele>
        <time>2013-09-01T14:21:14.000Z</time>
        <extensions>
          <ns3:TrackPointExtension>
            <ns3:atemp>20.0</ns3:atemp>
          </ns3:TrackPointExtension>
        </extensions>
      </trkpt>
      <trkpt lat="46.78536440245807170867919921875" lon="6.86581109650433063507080078125">
        <ele>469</ele>
        <time>2013-09-01T14:21:15.000Z</time>
        <extensions>
          <ns3:TrackPointExtension>
            <ns3:atemp>20.0</ns3:atemp>
          </ns3:TrackPointExtension>
        </extensions>
      </trkpt>
      <trkpt lat="46.78535048849880695343017578125" lon="6.86578595079481601715087890625">
        <ele>469.20001220703125</ele>
        <time>2013-09-01T14:21:16.000Z</time>
        <extensions>
          <ns3:TrackPointExtension>
            <ns3:atemp>20.0</ns3:atemp>
          </ns3:TrackPointExtension>
        </extensions>
      </trkpt>
      <trkpt lat="46.785333640873432159423828125" lon="6.86575812287628650665283203125">
        <ele>469.399993896484375</ele>
        <time>2013-09-01T14:21:17.000Z</time>
        <extensions>
          <ns3:TrackPointExtension>
            <ns3:atemp>20.0</ns3:atemp>
          </ns3:TrackPointExtension>
        </extensions>
      </trkpt>
      <trkpt lat="46.785320229828357696533203125" lon="6.86573079787194728851318359375">
        <ele>469.600006103515625</ele>
        <time>2013-09-01T14:21:18.000Z</time>
        <extensions>
          <ns3:TrackPointExtension>
            <ns3:atemp>20.0</ns3:atemp>
          </ns3:TrackPointExtension>
        </extensions>
      </trkpt>
      <trkpt lat="46.78530707024037837982177734375" lon="6.8657025508582592010498046875">
        <ele>470</ele>
        <time>2013-09-01T14:21:19.000Z</time>
        <extensions>
          <ns3:TrackPointExtension>
            <ns3:atemp>20.0</ns3:atemp>
          </ns3:TrackPointExtension>
        </extensions>
      </trkpt>
      <trkpt lat="46.78529432974755764007568359375" lon="6.8656727112829685211181640625">
        <ele>470.20001220703125</ele>
        <time>2013-09-01T14:21:20.000Z</time>
        <extensions>
          <ns3:TrackPointExtension>
            <ns3:atemp>20.0</ns3:atemp>
          </ns3:TrackPointExtension>
        </extensions>
      </trkpt>
      <trkpt lat="46.78528460673987865447998046875" lon="6.86564329080283641815185546875">
        <ele>470.399993896484375</ele>
        <time>2013-09-01T14:21:21.000Z</time>
        <extensions>
          <ns3:TrackPointExtension>
            <ns3:atemp>20.0</ns3:atemp>
          </ns3:TrackPointExtension>
        </extensions>
      </trkpt>
      <trkpt lat="46.78527253679931163787841796875" lon="6.865610517561435699462890625">
        <ele>470.600006103515625</ele>
        <time>2013-09-01T14:21:22.000Z</time>
        <extensions>
          <ns3:TrackPointExtension>
            <ns3:atemp>20.0</ns3:atemp>
          </ns3:TrackPointExtension>
        </extensions>
      </trkpt>
      <trkpt lat="46.78525996394455432891845703125" lon="6.865579672157764434814453125">
        <ele>470.79998779296875</ele>
        <time>2013-09-01T14:21:23.000Z</time>
        <extensions>
          <ns3:TrackPointExtension>
            <ns3:atemp>20.0</ns3:atemp>
          </ns3:TrackPointExtension>
        </extensions>
      </trkpt>
      <trkpt lat="46.78524705581367015838623046875" lon="6.865552850067615509033203125">
        <ele>471.20001220703125</ele>
        <time>2013-09-01T14:21:24.000Z</time>
        <extensions>
          <ns3:TrackPointExtension>
            <ns3:atemp>20.0</ns3:atemp>
          </ns3:TrackPointExtension>
        </extensions>
      </trkpt>
      <trkpt lat="46.785233728587627410888671875" lon="6.86552393250167369842529296875">
        <ele>471.399993896484375</ele>
        <time>2013-09-01T14:21:25.000Z</time>
        <extensions>
          <ns3:TrackPointExtension>
            <ns3:atemp>20.0</ns3:atemp>
          </ns3:TrackPointExtension>
        </extensions>
      </trkpt>
      <trkpt lat="46.7852228321135044097900390625" lon="6.86549375765025615692138671875">
        <ele>471.600006103515625</ele>
        <time>2013-09-01T14:21:26.000Z</time>
        <extensions>
          <ns3:TrackPointExtension>
            <ns3:atemp>20.0</ns3:atemp>
          </ns3:TrackPointExtension>
        </extensions>
      </trkpt>
      <trkpt lat="46.78521595895290374755859375" lon="6.8654651753604412078857421875">
        <ele>472.20001220703125</ele>
        <time>2013-09-01T14:21:27.000Z</time>
        <extensions>
          <ns3:TrackPointExtension>
            <ns3:atemp>20.0</ns3:atemp>
          </ns3:TrackPointExtension>
        </extensions>
      </trkpt>
      <trkpt lat="46.785206235945224761962890625" lon="6.86543290503323078155517578125">
        <ele>472.399993896484375</ele>
        <time>2013-09-01T14:21:28.000Z</time>
        <extensions>
          <ns3:TrackPointExtension>
            <ns3:atemp>20.0</ns3:atemp>
          </ns3:TrackPointExtension>
        </extensions>
      </trkpt>
      <trkpt lat="46.7851933278143405914306640625" lon="6.8654038198292255401611328125">
        <ele>472.79998779296875</ele>
        <time>2013-09-01T14:21:29.000Z</time>
        <extensions>
          <ns3:TrackPointExtension>
            <ns3:atemp>20.0</ns3:atemp>
          </ns3:TrackPointExtension>
        </extensions>
      </trkpt>
      <trkpt lat="46.785182096064090728759765625" lon="6.86537641100585460662841796875">
        <ele>473</ele>
        <time>2013-09-01T14:21:30.000Z</time>
        <extensions>
          <ns3:TrackPointExtension>
            <ns3:atemp>20.0</ns3:atemp>
          </ns3:TrackPointExtension>
        </extensions>
      </trkpt>
      <trkpt lat="46.785174049437046051025390625" lon="6.8653495050966739654541015625">
        <ele>473.20001220703125</ele>
        <time>2013-09-01T14:21:31.000Z</time>
        <extensions>
          <ns3:TrackPointExtension>
            <ns3:atemp>20.0</ns3:atemp>
          </ns3:TrackPointExtension>
        </extensions>
      </trkpt>
      <trkpt lat="46.78516977466642856597900390625" lon="6.86531958170235157012939453125">
        <ele>473.600006103515625</ele>
        <time>2013-09-01T14:21:32.000Z</time>
        <extensions>
          <ns3:TrackPointExtension>
            <ns3:atemp>20.0</ns3:atemp>
          </ns3:TrackPointExtension>
        </extensions>
      </trkpt>
      <trkpt lat="46.785167343914508819580078125" lon="6.86529032886028289794921875">
        <ele>474</ele>
        <time>2013-09-01T14:21:33.000Z</time>
        <extensions>
          <ns3:TrackPointExtension>
            <ns3:atemp>20.0</ns3:atemp>
          </ns3:TrackPointExtension>
        </extensions>
      </trkpt>
      <trkpt lat="46.785173714160919189453125" lon="6.86525856144726276397705078125">
        <ele>474.20001220703125</ele>
        <time>2013-09-01T14:21:34.000Z</time>
        <extensions>
          <ns3:TrackPointExtension>
            <ns3:atemp>20.0</ns3:atemp>
          </ns3:TrackPointExtension>
        </extensions>
      </trkpt>
      <trkpt lat="46.7851792462170124053955078125" lon="6.8652298115193843841552734375">
        <ele>474.399993896484375</ele>
        <time>2013-09-01T14:21:35.000Z</time>
        <extensions>
          <ns3:TrackPointExtension>
            <ns3:atemp>20.0</ns3:atemp>
          </ns3:TrackPointExtension>
        </extensions>
      </trkpt>
      <trkpt lat="46.78518301807343959808349609375" lon="6.86520458199083805084228515625">
        <ele>474.600006103515625</ele>
        <time>2013-09-01T14:21:36.000Z</time>
        <extensions>
          <ns3:TrackPointExtension>
            <ns3:atemp>20.0</ns3:atemp>
          </ns3:TrackPointExtension>
        </extensions>
      </trkpt>
      <trkpt lat="46.785190142691135406494140625" lon="6.86517692171037197113037109375">
        <ele>475</ele>
        <time>2013-09-01T14:21:37.000Z</time>
        <extensions>
          <ns3:TrackPointExtension>
            <ns3:atemp>20.0</ns3:atemp>
          </ns3:TrackPointExtension>
        </extensions>
      </trkpt>
      <trkpt lat="46.78520120680332183837890625" lon="6.865145824849605560302734375">
        <ele>475.399993896484375</ele>
        <time>2013-09-01T14:21:38.000Z</time>
        <extensions>
          <ns3:TrackPointExtension>
            <ns3:atemp>20.0</ns3:atemp>
          </ns3:TrackPointExtension>
        </extensions>
      </trkpt>
      <trkpt lat="46.78521134890615940093994140625" lon="6.86511640436947345733642578125">
        <ele>475.79998779296875</ele>
        <time>2013-09-01T14:21:39.000Z</time>
        <extensions>
          <ns3:TrackPointExtension>
            <ns3:atemp>20.0</ns3:atemp>
          </ns3:TrackPointExtension>
        </extensions>
      </trkpt>
      <trkpt lat="46.7852233350276947021484375" lon="6.86508740298449993133544921875">
        <ele>476</ele>
        <time>2013-09-01T14:21:40.000Z</time>
        <extensions>
          <ns3:TrackPointExtension>
            <ns3:atemp>20.0</ns3:atemp>
          </ns3:TrackPointExtension>
        </extensions>
      </trkpt>
      <trkpt lat="46.78524303250014781951904296875" lon="6.86505923978984355926513671875">
        <ele>476.399993896484375</ele>
        <time>2013-09-01T14:21:41.000Z</time>
        <extensions>
          <ns3:TrackPointExtension>
            <ns3:atemp>20.0</ns3:atemp>
          </ns3:TrackPointExtension>
        </extensions>
      </trkpt>
      <trkpt lat="46.78526130504906177520751953125" lon="6.86503694392740726470947265625">
        <ele>476.600006103515625</ele>
        <time>2013-09-01T14:21:42.000Z</time>
        <extensions>
          <ns3:TrackPointExtension>
            <ns3:atemp>20.0</ns3:atemp>
          </ns3:TrackPointExtension>
        </extensions>
      </trkpt>
      <trkpt lat="46.78528033196926116943359375" lon="6.86501674354076385498046875">
        <ele>477</ele>
        <time>2013-09-01T14:21:43.000Z</time>
        <extensions>
          <ns3:TrackPointExtension>
            <ns3:atemp>20.0</ns3:atemp>
          </ns3:TrackPointExtension>
        </extensions>
      </trkpt>
      <trkpt lat="46.7852999456226825714111328125" lon="6.8649994768202304840087890625">
        <ele>477.20001220703125</ele>
        <time>2013-09-01T14:21:44.000Z</time>
        <extensions>
          <ns3:TrackPointExtension>
            <ns3:atemp>20.0</ns3:atemp>
          </ns3:TrackPointExtension>
        </extensions>
      </trkpt>
      <trkpt lat="46.78531696088612079620361328125" lon="6.8649813719093799591064453125">
        <ele>477.600006103515625</ele>
        <time>2013-09-01T14:21:45.000Z</time>
        <extensions>
          <ns3:TrackPointExtension>
            <ns3:atemp>20.0</ns3:atemp>
          </ns3:TrackPointExtension>
        </extensions>
      </trkpt>
      <trkpt lat="46.78533892147243022918701171875" lon="6.8649624288082122802734375">
        <ele>478</ele>
        <time>2013-09-01T14:21:46.000Z</time>
        <extensions>
          <ns3:TrackPointExtension>
            <ns3:atemp>20.0</ns3:atemp>
          </ns3:TrackPointExtension>
        </extensions>
      </trkpt>
      <trkpt lat="46.7853619717061519622802734375" lon="6.864953376352787017822265625">
        <ele>478.20001220703125</ele>
        <time>2013-09-01T14:21:47.000Z</time>
        <extensions>
          <ns3:TrackPointExtension>
            <ns3:atemp>20.0</ns3:atemp>
          </ns3:TrackPointExtension>
        </extensions>
      </trkpt>
      <trkpt lat="46.7853827588260173797607421875" lon="6.8649481795728206634521484375">
        <ele>478.399993896484375</ele>
        <time>2013-09-01T14:21:48.000Z</time>
        <extensions>
          <ns3:TrackPointExtension>
            <ns3:atemp>20.0</ns3:atemp>
          </ns3:TrackPointExtension>
        </extensions>
      </trkpt>
      <trkpt lat="46.7854025401175022125244140625" lon="6.86495396308600902557373046875">
        <ele>478.79998779296875</ele>
        <time>2013-09-01T14:21:49.000Z</time>
        <extensions>
          <ns3:TrackPointExtension>
            <ns3:atemp>20.0</ns3:atemp>
          </ns3:TrackPointExtension>
        </extensions>
      </trkpt>
      <trkpt lat="46.78541704080998897552490234375" lon="6.86495865695178508758544921875">
        <ele>479</ele>
        <time>2013-09-01T14:21:50.000Z</time>
        <extensions>
          <ns3:TrackPointExtension>
            <ns3:atemp>20.0</ns3:atemp>
          </ns3:TrackPointExtension>
        </extensions>
      </trkpt>
      <trkpt lat="46.785434223711490631103515625" lon="6.86496737413108348846435546875">
        <ele>479.399993896484375</ele>
        <time>2013-09-01T14:21:51.000Z</time>
        <extensions>
          <ns3:TrackPointExtension>
            <ns3:atemp>20.0</ns3:atemp>
          </ns3:TrackPointExtension>
        </extensions>
      </trkpt>
      <trkpt lat="46.785455681383609771728515625" lon="6.8649833835661411285400390625">
        <ele>479.79998779296875</ele>
        <time>2013-09-01T14:21:52.000Z</time>
        <extensions>
          <ns3:TrackPointExtension>
            <ns3:atemp>20.0</ns3:atemp>
          </ns3:TrackPointExtension>
        </extensions>
      </trkpt>
      <trkpt lat="46.78548543713986873626708984375" lon="6.8649991415441036224365234375">
        <ele>480</ele>
        <time>2013-09-01T14:21:53.000Z</time>
        <extensions>
          <ns3:TrackPointExtension>
            <ns3:atemp>20.0</ns3:atemp>
          </ns3:TrackPointExtension>
        </extensions>
      </trkpt>
      <trkpt lat="46.7855049669742584228515625" lon="6.86501934193074703216552734375">
        <ele>480</ele>
        <time>2013-09-01T14:21:54.000Z</time>
        <extensions>
          <ns3:TrackPointExtension>
            <ns3:atemp>20.0</ns3:atemp>
          </ns3:TrackPointExtension>
        </extensions>
      </trkpt>
      <trkpt lat="46.7855218984186649322509765625" lon="6.86503820121288299560546875">
        <ele>480.20001220703125</ele>
        <time>2013-09-01T14:21:55.000Z</time>
        <extensions>
          <ns3:TrackPointExtension>
            <ns3:atemp>20.0</ns3:atemp>
          </ns3:TrackPointExtension>
        </extensions>
      </trkpt>
      <trkpt lat="46.7855344712734222412109375" lon="6.8650564737617969512939453125">
        <ele>480.399993896484375</ele>
        <time>2013-09-01T14:21:56.000Z</time>
        <extensions>
          <ns3:TrackPointExtension>
            <ns3:atemp>20.0</ns3:atemp>
          </ns3:TrackPointExtension>
        </extensions>
      </trkpt>
      <trkpt lat="46.785557270050048828125" lon="6.86507650651037693023681640625">
        <ele>480.600006103515625</ele>
        <time>2013-09-01T14:21:57.000Z</time>
        <extensions>
          <ns3:TrackPointExtension>
            <ns3:atemp>20.0</ns3:atemp>
          </ns3:TrackPointExtension>
        </extensions>
      </trkpt>
      <trkpt lat="46.78557864390313625335693359375" lon="6.8650993891060352325439453125">
        <ele>480.600006103515625</ele>
        <time>2013-09-01T14:21:58.000Z</time>
        <extensions>
          <ns3:TrackPointExtension>
            <ns3:atemp>20.0</ns3:atemp>
          </ns3:TrackPointExtension>
        </extensions>
      </trkpt>
      <trkpt lat="46.78560060448944568634033203125" lon="6.86512109823524951934814453125">
        <ele>480.79998779296875</ele>
        <time>2013-09-01T14:21:59.000Z</time>
        <extensions>
          <ns3:TrackPointExtension>
            <ns3:atemp>20.0</ns3:atemp>
          </ns3:TrackPointExtension>
        </extensions>
      </trkpt>
      <trkpt lat="46.785626672208309173583984375" lon="6.8651423044502735137939453125">
        <ele>481</ele>
        <time>2013-09-01T14:22:00.000Z</time>
        <extensions>
          <ns3:TrackPointExtension>
            <ns3:atemp>20.0</ns3:atemp>
          </ns3:TrackPointExtension>
        </extensions>
      </trkpt>
      <trkpt lat="46.7856586910784244537353515625" lon="6.865179352462291717529296875">
        <ele>481</ele>
        <time>2013-09-01T14:22:01.000Z</time>
        <extensions>
          <ns3:TrackPointExtension>
            <ns3:atemp>20.0</ns3:atemp>
          </ns3:TrackPointExtension>
        </extensions>
      </trkpt>
      <trkpt lat="46.7856949009001255035400390625" lon="6.86521564610302448272705078125">
        <ele>481.20001220703125</ele>
        <time>2013-09-01T14:22:02.000Z</time>
        <extensions>
          <ns3:TrackPointExtension>
            <ns3:atemp>20.0</ns3:atemp>
          </ns3:TrackPointExtension>
        </extensions>
      </trkpt>
      <trkpt lat="46.7857358045876026153564453125" lon="6.8652512691915035247802734375">
        <ele>481.20001220703125</ele>
        <time>2013-09-01T14:22:03.000Z</time>
        <extensions>
          <ns3:TrackPointExtension>
            <ns3:atemp>20.0</ns3:atemp>
          </ns3:TrackPointExtension>
        </extensions>
      </trkpt>
      <trkpt lat="46.7857703380286693572998046875" lon="6.8652856349945068359375">
        <ele>481.399993896484375</ele>
        <time>2013-09-01T14:22:04.000Z</time>
        <extensions>
          <ns3:TrackPointExtension>
            <ns3:atemp>20.0</ns3:atemp>
          </ns3:TrackPointExtension>
        </extensions>
      </trkpt>
      <trkpt lat="46.7857995070517063140869140625" lon="6.8653220124542713165283203125">
        <ele>481.399993896484375</ele>
        <time>2013-09-01T14:22:05.000Z</time>
        <extensions>
          <ns3:TrackPointExtension>
            <ns3:atemp>20.0</ns3:atemp>
          </ns3:TrackPointExtension>
        </extensions>
      </trkpt>
      <trkpt lat="46.78583194501698017120361328125" lon="6.86535763554275035858154296875">
        <ele>481.399993896484375</ele>
        <time>2013-09-01T14:22:06.000Z</time>
        <extensions>
          <ns3:TrackPointExtension>
            <ns3:atemp>20.0</ns3:atemp>
          </ns3:TrackPointExtension>
        </extensions>
      </trkpt>
      <trkpt lat="46.78586262278258800506591796875" lon="6.86539384536445140838623046875">
        <ele>481.600006103515625</ele>
        <time>2013-09-01T14:22:07.000Z</time>
        <extensions>
          <ns3:TrackPointExtension>
            <ns3:atemp>20.0</ns3:atemp>
          </ns3:TrackPointExtension>
        </extensions>
      </trkpt>
      <trkpt lat="46.7858937196433544158935546875" lon="6.8654353357851505279541015625">
        <ele>481.79998779296875</ele>
        <time>2013-09-01T14:22:08.000Z</time>
        <extensions>
          <ns3:TrackPointExtension>
            <ns3:atemp>20.0</ns3:atemp>
          </ns3:TrackPointExtension>
        </extensions>
      </trkpt>
      <trkpt lat="46.7859235592186450958251953125" lon="6.86547808349132537841796875">
        <ele>481.79998779296875</ele>
        <time>2013-09-01T14:22:09.000Z</time>
        <extensions>
          <ns3:TrackPointExtension>
            <ns3:atemp>20.0</ns3:atemp>
          </ns3:TrackPointExtension>
        </extensions>
      </trkpt>
      <trkpt lat="46.7859527282416820526123046875" lon="6.86552225612103939056396484375">
        <ele>481.79998779296875</ele>
        <time>2013-09-01T14:22:10.000Z</time>
        <extensions>
          <ns3:TrackPointExtension>
            <ns3:atemp>20.0</ns3:atemp>
          </ns3:TrackPointExtension>
        </extensions>
      </trkpt>
      <trkpt lat="46.7859818972647190093994140625" lon="6.86556852422654628753662109375">
        <ele>481.600006103515625</ele>
        <time>2013-09-01T14:22:11.000Z</time>
        <extensions>
          <ns3:TrackPointExtension>
            <ns3:atemp>20.0</ns3:atemp>
          </ns3:TrackPointExtension>
        </extensions>
      </trkpt>
      <trkpt lat="46.78601031191647052764892578125" lon="6.86561445705592632293701171875">
        <ele>481.79998779296875</ele>
        <time>2013-09-01T14:22:12.000Z</time>
        <extensions>
          <ns3:TrackPointExtension>
            <ns3:atemp>20.0</ns3:atemp>
          </ns3:TrackPointExtension>
        </extensions>
      </trkpt>
      <trkpt lat="46.78604233078658580780029296875" lon="6.86565871350467205047607421875">
        <ele>481.79998779296875</ele>
        <time>2013-09-01T14:22:13.000Z</time>
        <extensions>
          <ns3:TrackPointExtension>
            <ns3:atemp>20.0</ns3:atemp>
          </ns3:TrackPointExtension>
        </extensions>
      </trkpt>
      <trkpt lat="46.7860730923712253570556640625" lon="6.86570799909532070159912109375">
        <ele>482.20001220703125</ele>
        <time>2013-09-01T14:22:14.000Z</time>
        <extensions>
          <ns3:TrackPointExtension>
            <ns3:atemp>20.0</ns3:atemp>
          </ns3:TrackPointExtension>
        </extensions>
      </trkpt>
      <trkpt lat="46.78610318340361118316650390625" lon="6.86575703322887420654296875">
        <ele>482</ele>
        <time>2013-09-01T14:22:15.000Z</time>
        <extensions>
          <ns3:TrackPointExtension>
            <ns3:atemp>19.0</ns3:atemp>
          </ns3:TrackPointExtension>
        </extensions>
      </trkpt>
      <trkpt lat="46.7861379683017730712890625" lon="6.865803636610507965087890625">
        <ele>482</ele>
        <time>2013-09-01T14:22:16.000Z</time>
        <extensions>
          <ns3:TrackPointExtension>
            <ns3:atemp>19.0</ns3:atemp>
          </ns3:TrackPointExtension>
        </extensions>
      </trkpt>
      <trkpt lat="46.78616990335285663604736328125" lon="6.86585267074406147003173828125">
        <ele>482.20001220703125</ele>
        <time>2013-09-01T14:22:17.000Z</time>
        <extensions>
          <ns3:TrackPointExtension>
            <ns3:atemp>19.0</ns3:atemp>
          </ns3:TrackPointExtension>
        </extensions>
      </trkpt>
      <trkpt lat="46.78620292805135250091552734375" lon="6.865900196135044097900390625">
        <ele>482.20001220703125</ele>
        <time>2013-09-01T14:22:18.000Z</time>
        <extensions>
          <ns3:TrackPointExtension>
            <ns3:atemp>19.0</ns3:atemp>
          </ns3:TrackPointExtension>
        </extensions>
      </trkpt>
      <trkpt lat="46.78623511455953121185302734375" lon="6.86594839207828044891357421875">
        <ele>482.399993896484375</ele>
        <time>2013-09-01T14:22:19.000Z</time>
        <extensions>
          <ns3:TrackPointExtension>
            <ns3:atemp>19.0</ns3:atemp>
          </ns3:TrackPointExtension>
        </extensions>
      </trkpt>
      <trkpt lat="46.7862665466964244842529296875" lon="6.86599382199347019195556640625">
        <ele>482.600006103515625</ele>
        <time>2013-09-01T14:22:20.000Z</time>
        <extensions>
          <ns3:TrackPointExtension>
            <ns3:atemp>19.0</ns3:atemp>
          </ns3:TrackPointExtension>
        </extensions>
      </trkpt>
      <trkpt lat="46.78629647009074687957763671875" lon="6.8660421855747699737548828125">
        <ele>482.600006103515625</ele>
        <time>2013-09-01T14:22:21.000Z</time>
        <extensions>
          <ns3:TrackPointExtension>
            <ns3:atemp>19.0</ns3:atemp>
          </ns3:TrackPointExtension>
        </extensions>
      </trkpt>
      <trkpt lat="46.78632505238056182861328125" lon="6.86610043980181217193603515625">
        <ele>482.600006103515625</ele>
        <time>2013-09-01T14:22:22.000Z</time>
        <extensions>
          <ns3:TrackPointExtension>
            <ns3:atemp>19.0</ns3:atemp>
          </ns3:TrackPointExtension>
        </extensions>
      </trkpt>
      <trkpt lat="46.78634961135685443878173828125" lon="6.86615844257175922393798828125">
        <ele>482.20001220703125</ele>
        <time>2013-09-01T14:22:23.000Z</time>
        <extensions>
          <ns3:TrackPointExtension>
            <ns3:atemp>19.0</ns3:atemp>
          </ns3:TrackPointExtension>
        </extensions>
      </trkpt>
      <trkpt lat="46.7863745056092739105224609375" lon="6.866221390664577484130859375">
        <ele>482.20001220703125</ele>
        <time>2013-09-01T14:22:24.000Z</time>
        <extensions>
          <ns3:TrackPointExtension>
            <ns3:atemp>19.0</ns3:atemp>
          </ns3:TrackPointExtension>
        </extensions>
      </trkpt>
      <trkpt lat="46.7863929457962512969970703125" lon="6.866289786994457244873046875">
        <ele>482.399993896484375</ele>
        <time>2013-09-01T14:22:25.000Z</time>
        <extensions>
          <ns3:TrackPointExtension>
            <ns3:atemp>19.0</ns3:atemp>
          </ns3:TrackPointExtension>
        </extensions>
      </trkpt>
      <trkpt lat="46.7864117212593555450439453125" lon="6.86635977588593959808349609375">
        <ele>482.600006103515625</ele>
        <time>2013-09-01T14:22:26.000Z</time>
        <extensions>
          <ns3:TrackPointExtension>
            <ns3:atemp>19.0</ns3:atemp>
          </ns3:TrackPointExtension>
        </extensions>
      </trkpt>
      <trkpt lat="46.7864184267818927764892578125" lon="6.8664301000535488128662109375">
        <ele>482.600006103515625</ele>
        <time>2013-09-01T14:22:27.000Z</time>
        <extensions>
          <ns3:TrackPointExtension>
            <ns3:atemp>19.0</ns3:atemp>
          </ns3:TrackPointExtension>
        </extensions>
      </trkpt>
      <trkpt lat="46.78642161190509796142578125" lon="6.86650344170629978179931640625">
        <ele>482.399993896484375</ele>
        <time>2013-09-01T14:22:28.000Z</time>
        <extensions>
          <ns3:TrackPointExtension>
            <ns3:atemp>19.0</ns3:atemp>
          </ns3:TrackPointExtension>
        </extensions>
      </trkpt>
      <trkpt lat="46.78642689250409603118896484375" lon="6.86657334677875041961669921875">
        <ele>482.600006103515625</ele>
        <time>2013-09-01T14:22:29.000Z</time>
        <extensions>
          <ns3:TrackPointExtension>
            <ns3:atemp>19.0</ns3:atemp>
          </ns3:TrackPointExtension>
        </extensions>
      </trkpt>
      <trkpt lat="46.78642488084733486175537109375" lon="6.86664643697440624237060546875">
        <ele>482.600006103515625</ele>
        <time>2013-09-01T14:22:30.000Z</time>
        <extensions>
          <ns3:TrackPointExtension>
            <ns3:atemp>19.0</ns3:atemp>
          </ns3:TrackPointExtension>
        </extensions>
      </trkpt>
      <trkpt lat="46.78642370738089084625244140625" lon="6.86672053299844264984130859375">
        <ele>482.79998779296875</ele>
        <time>2013-09-01T14:22:31.000Z</time>
        <extensions>
          <ns3:TrackPointExtension>
            <ns3:atemp>19.0</ns3:atemp>
          </ns3:TrackPointExtension>
        </extensions>
      </trkpt>
      <trkpt lat="46.78642320446670055389404296875" lon="6.866793371737003326416015625">
        <ele>482.600006103515625</ele>
        <time>2013-09-01T14:22:32.000Z</time>
        <extensions>
          <ns3:TrackPointExtension>
            <ns3:atemp>19.0</ns3:atemp>
          </ns3:TrackPointExtension>
        </extensions>
      </trkpt>
      <trkpt lat="46.786421276628971099853515625" lon="6.86686520464718341827392578125">
        <ele>482.79998779296875</ele>
        <time>2013-09-01T14:22:33.000Z</time>
        <extensions>
          <ns3:TrackPointExtension>
            <ns3:atemp>19.0</ns3:atemp>
          </ns3:TrackPointExtension>
        </extensions>
      </trkpt>
      <trkpt lat="46.786425299942493438720703125" lon="6.866938211023807525634765625">
        <ele>482.79998779296875</ele>
        <time>2013-09-01T14:22:34.000Z</time>
        <extensions>
          <ns3:TrackPointExtension>
            <ns3:atemp>19.0</ns3:atemp>
          </ns3:TrackPointExtension>
        </extensions>
      </trkpt>
      <trkpt lat="46.7864335142076015472412109375" lon="6.86701356433331966400146484375">
        <ele>483</ele>
        <time>2013-09-01T14:22:35.000Z</time>
        <extensions>
          <ns3:TrackPointExtension>
            <ns3:atemp>19.0</ns3:atemp>
          </ns3:TrackPointExtension>
        </extensions>
      </trkpt>
      <trkpt lat="46.78643963299691677093505859375" lon="6.86709285713732242584228515625">
        <ele>483</ele>
        <time>2013-09-01T14:22:36.000Z</time>
        <extensions>
          <ns3:TrackPointExtension>
            <ns3:atemp>19.0</ns3:atemp>
          </ns3:TrackPointExtension>
        </extensions>
      </trkpt>
      <trkpt lat="46.78644633851945400238037109375" lon="6.86717650853097438812255859375">
        <ele>482.79998779296875</ele>
        <time>2013-09-01T14:22:37.000Z</time>
        <extensions>
          <ns3:TrackPointExtension>
            <ns3:atemp>19.0</ns3:atemp>
          </ns3:TrackPointExtension>
        </extensions>
      </trkpt>
      <trkpt lat="46.78645639680325984954833984375" lon="6.86726569198071956634521484375">
        <ele>482.79998779296875</ele>
        <time>2013-09-01T14:22:38.000Z</time>
        <extensions>
          <ns3:TrackPointExtension>
            <ns3:atemp>19.0</ns3:atemp>
          </ns3:TrackPointExtension>
        </extensions>
      </trkpt>
      <trkpt lat="46.786466874182224273681640625" lon="6.8673614971339702606201171875">
        <ele>482.20001220703125</ele>
        <time>2013-09-01T14:22:39.000Z</time>
        <extensions>
          <ns3:TrackPointExtension>
            <ns3:atemp>19.0</ns3:atemp>
          </ns3:TrackPointExtension>
        </extensions>
      </trkpt>
      <trkpt lat="46.78648238070309162139892578125" lon="6.8674604035913944244384765625">
        <ele>481.79998779296875</ele>
        <time>2013-09-01T14:22:40.000Z</time>
        <extensions>
          <ns3:TrackPointExtension>
            <ns3:atemp>19.0</ns3:atemp>
          </ns3:TrackPointExtension>
        </extensions>
      </trkpt>
      <trkpt lat="46.78650015033781528472900390625" lon="6.86756392009556293487548828125">
        <ele>481.399993896484375</ele>
        <time>2013-09-01T14:22:41.000Z</time>
        <extensions>
          <ns3:TrackPointExtension>
            <ns3:atemp>19.0</ns3:atemp>
          </ns3:TrackPointExtension>
        </extensions>
      </trkpt>
      <trkpt lat="46.78652680478990077972412109375" lon="6.8676608987152576446533203125">
        <ele>481.399993896484375</ele>
        <time>2013-09-01T14:22:42.000Z</time>
        <extensions>
          <ns3:TrackPointExtension>
            <ns3:atemp>19.0</ns3:atemp>
          </ns3:TrackPointExtension>
        </extensions>
      </trkpt>
      <trkpt lat="46.786558739840984344482421875" lon="6.867759637534618377685546875">
        <ele>480.399993896484375</ele>
        <time>2013-09-01T14:22:43.000Z</time>
        <extensions>
          <ns3:TrackPointExtension>
            <ns3:atemp>19.0</ns3:atemp>
          </ns3:TrackPointExtension>
        </extensions>
      </trkpt>
      <trkpt lat="46.7865974642336368560791015625" lon="6.86786164529621601104736328125">
        <ele>480</ele>
        <time>2013-09-01T14:22:44.000Z</time>
        <extensions>
          <ns3:TrackPointExtension>
            <ns3:atemp>19.0</ns3:atemp>
          </ns3:TrackPointExtension>
        </extensions>
      </trkpt>
      <trkpt lat="46.78663442842662334442138671875" lon="6.8679673410952091217041015625">
        <ele>479.399993896484375</ele>
        <time>2013-09-01T14:22:45.000Z</time>
        <extensions>
          <ns3:TrackPointExtension>
            <ns3:atemp>19.0</ns3:atemp>
          </ns3:TrackPointExtension>
        </extensions>
      </trkpt>
      <trkpt lat="46.78667566739022731781005859375" lon="6.86806934885680675506591796875">
        <ele>479.399993896484375</ele>
        <time>2013-09-01T14:22:46.000Z</time>
        <extensions>
          <ns3:TrackPointExtension>
            <ns3:atemp>19.0</ns3:atemp>
          </ns3:TrackPointExtension>
        </extensions>
      </trkpt>
      <trkpt lat="46.78671858273446559906005859375" lon="6.86817177571356296539306640625">
        <ele>478.79998779296875</ele>
        <time>2013-09-01T14:22:47.000Z</time>
        <extensions>
          <ns3:TrackPointExtension>
            <ns3:atemp>19.0</ns3:atemp>
          </ns3:TrackPointExtension>
        </extensions>
      </trkpt>
      <trkpt lat="46.7867661081254482269287109375" lon="6.86827738769352436065673828125">
        <ele>478.399993896484375</ele>
        <time>2013-09-01T14:22:48.000Z</time>
        <extensions>
          <ns3:TrackPointExtension>
            <ns3:atemp>19.0</ns3:atemp>
          </ns3:TrackPointExtension>
        </extensions>
      </trkpt>
      <trkpt lat="46.78681857883930206298828125" lon="6.8683822453022003173828125">
        <ele>478</ele>
        <time>2013-09-01T14:22:49.000Z</time>
        <extensions>
          <ns3:TrackPointExtension>
            <ns3:atemp>19.0</ns3:atemp>
          </ns3:TrackPointExtension>
        </extensions>
      </trkpt>
      <trkpt lat="46.78687146864831447601318359375" lon="6.86848810873925685882568359375">
        <ele>477.600006103515625</ele>
        <time>2013-09-01T14:22:50.000Z</time>
        <extensions>
          <ns3:TrackPointExtension>
            <ns3:atemp>19.0</ns3:atemp>
          </ns3:TrackPointExtension>
        </extensions>
      </trkpt>
      <trkpt lat="46.7869220115244388580322265625" lon="6.86859874986112117767333984375">
        <ele>477</ele>
        <time>2013-09-01T14:22:51.000Z</time>
        <extensions>
          <ns3:TrackPointExtension>
            <ns3:atemp>19.0</ns3:atemp>
          </ns3:TrackPointExtension>
        </extensions>
      </trkpt>
      <trkpt lat="46.78697548806667327880859375" lon="6.86870754696428775787353515625">
        <ele>476.600006103515625</ele>
        <time>2013-09-01T14:22:52.000Z</time>
        <extensions>
          <ns3:TrackPointExtension>
            <ns3:atemp>19.0</ns3:atemp>
          </ns3:TrackPointExtension>
        </extensions>
      </trkpt>
      <trkpt lat="46.78703122772276401519775390625" lon="6.86881634406745433807373046875">
        <ele>476.20001220703125</ele>
        <time>2013-09-01T14:22:53.000Z</time>
        <extensions>
          <ns3:TrackPointExtension>
            <ns3:atemp>19.0</ns3:atemp>
          </ns3:TrackPointExtension>
        </extensions>
      </trkpt>
      <trkpt lat="46.78708738647401332855224609375" lon="6.86892614699900150299072265625">
        <ele>475.79998779296875</ele>
        <time>2013-09-01T14:22:54.000Z</time>
        <extensions>
          <ns3:TrackPointExtension>
            <ns3:atemp>19.0</ns3:atemp>
          </ns3:TrackPointExtension>
        </extensions>
      </trkpt>
      <trkpt lat="46.7871479876339435577392578125" lon="6.8690378777682781219482421875">
        <ele>475.399993896484375</ele>
        <time>2013-09-01T14:22:55.000Z</time>
        <extensions>
          <ns3:TrackPointExtension>
            <ns3:atemp>19.0</ns3:atemp>
          </ns3:TrackPointExtension>
        </extensions>
      </trkpt>
      <trkpt lat="46.7872135341167449951171875" lon="6.8691439926624298095703125">
        <ele>475</ele>
        <time>2013-09-01T14:22:56.000Z</time>
        <extensions>
          <ns3:TrackPointExtension>
            <ns3:atemp>19.0</ns3:atemp>
          </ns3:TrackPointExtension>
        </extensions>
      </trkpt>
      <trkpt lat="46.7872807569801807403564453125" lon="6.86924750916659832000732421875">
        <ele>474.600006103515625</ele>
        <time>2013-09-01T14:22:57.000Z</time>
        <extensions>
          <ns3:TrackPointExtension>
            <ns3:atemp>19.0</ns3:atemp>
          </ns3:TrackPointExtension>
        </extensions>
      </trkpt>
      <trkpt lat="46.787346303462982177734375" lon="6.86934851109981536865234375">
        <ele>474.20001220703125</ele>
        <time>2013-09-01T14:22:58.000Z</time>
        <extensions>
          <ns3:TrackPointExtension>
            <ns3:atemp>19.0</ns3:atemp>
          </ns3:TrackPointExtension>
        </extensions>
      </trkpt>
      <trkpt lat="46.787413693964481353759765625" lon="6.86944213695824146270751953125">
        <ele>474</ele>
        <time>2013-09-01T14:22:59.000Z</time>
        <extensions>
          <ns3:TrackPointExtension>
            <ns3:atemp>19.0</ns3:atemp>
          </ns3:TrackPointExtension>
        </extensions>
      </trkpt>
      <trkpt lat="46.78747563622891902923583984375" lon="6.86953115276992321014404296875">
        <ele>474</ele>
        <time>2013-09-01T14:23:00.000Z</time>
        <extensions>
          <ns3:TrackPointExtension>
            <ns3:atemp>19.0</ns3:atemp>
          </ns3:TrackPointExtension>
        </extensions>
      </trkpt>
      <trkpt lat="46.78753296844661235809326171875" lon="6.86962771229445934295654296875">
        <ele>474</ele>
        <time>2013-09-01T14:23:01.000Z</time>
        <extensions>
          <ns3:TrackPointExtension>
            <ns3:atemp>19.0</ns3:atemp>
          </ns3:TrackPointExtension>
        </extensions>
      </trkpt>
      <trkpt lat="46.7875871993601322174072265625" lon="6.8697204999625682830810546875">
        <ele>474</ele>
        <time>2013-09-01T14:23:02.000Z</time>
        <extensions>
          <ns3:TrackPointExtension>
            <ns3:atemp>19.0</ns3:atemp>
          </ns3:TrackPointExtension>
        </extensions>
      </trkpt>
      <trkpt lat="46.78763933479785919189453125" lon="6.86981311999261379241943359375">
        <ele>473.399993896484375</ele>
        <time>2013-09-01T14:23:03.000Z</time>
        <extensions>
          <ns3:TrackPointExtension>
            <ns3:atemp>19.0</ns3:atemp>
          </ns3:TrackPointExtension>
        </extensions>
      </trkpt>
      <trkpt lat="46.78768954239785671234130859375" lon="6.8699085898697376251220703125">
        <ele>473.20001220703125</ele>
        <time>2013-09-01T14:23:04.000Z</time>
        <extensions>
          <ns3:TrackPointExtension>
            <ns3:atemp>19.0</ns3:atemp>
          </ns3:TrackPointExtension>
        </extensions>
      </trkpt>
      <trkpt lat="46.78773748688399791717529296875" lon="6.870003305375576019287109375">
        <ele>473</ele>
        <time>2013-09-01T14:23:05.000Z</time>
        <extensions>
          <ns3:TrackPointExtension>
            <ns3:atemp>19.0</ns3:atemp>
          </ns3:TrackPointExtension>
        </extensions>
      </trkpt>
      <trkpt lat="46.78778174333274364471435546875" lon="6.8701023794710636138916015625">
        <ele>472.600006103515625</ele>
        <time>2013-09-01T14:23:06.000Z</time>
        <extensions>
          <ns3:TrackPointExtension>
            <ns3:atemp>19.0</ns3:atemp>
          </ns3:TrackPointExtension>
        </extensions>
      </trkpt>
      <trkpt lat="46.78782306611537933349609375" lon="6.87020874582231044769287109375">
        <ele>472.399993896484375</ele>
        <time>2013-09-01T14:23:07.000Z</time>
        <extensions>
          <ns3:TrackPointExtension>
            <ns3:atemp>19.0</ns3:atemp>
          </ns3:TrackPointExtension>
        </extensions>
      </trkpt>
      <trkpt lat="46.78785667754709720611572265625" lon="6.8703080713748931884765625">
        <ele>472.399993896484375</ele>
        <time>2013-09-01T14:23:08.000Z</time>
        <extensions>
          <ns3:TrackPointExtension>
            <ns3:atemp>19.0</ns3:atemp>
          </ns3:TrackPointExtension>
        </extensions>
      </trkpt>
      <trkpt lat="46.78789104335010051727294921875" lon="6.87039784155786037445068359375">
        <ele>472.600006103515625</ele>
        <time>2013-09-01T14:23:09.000Z</time>
        <extensions>
          <ns3:TrackPointExtension>
            <ns3:atemp>19.0</ns3:atemp>
          </ns3:TrackPointExtension>
        </extensions>
      </trkpt>
      <trkpt lat="46.7879243195056915283203125" lon="6.87048417516052722930908203125">
        <ele>472.600006103515625</ele>
        <time>2013-09-01T14:23:10.000Z</time>
        <extensions>
          <ns3:TrackPointExtension>
            <ns3:atemp>19.0</ns3:atemp>
          </ns3:TrackPointExtension>
        </extensions>
      </trkpt>
      <trkpt lat="46.7879560030996799468994140625" lon="6.87056799419224262237548828125">
        <ele>472.399993896484375</ele>
        <time>2013-09-01T14:23:11.000Z</time>
        <extensions>
          <ns3:TrackPointExtension>
            <ns3:atemp>19.0</ns3:atemp>
          </ns3:TrackPointExtension>
        </extensions>
      </trkpt>
      <trkpt lat="46.7879888601601123809814453125" lon="6.87064896337687969207763671875">
        <ele>472.20001220703125</ele>
        <time>2013-09-01T14:23:12.000Z</time>
        <extensions>
          <ns3:TrackPointExtension>
            <ns3:atemp>19.0</ns3:atemp>
          </ns3:TrackPointExtension>
        </extensions>
      </trkpt>
      <trkpt lat="46.788022555410861968994140625" lon="6.870724819600582122802734375">
        <ele>472.20001220703125</ele>
        <time>2013-09-01T14:23:13.000Z</time>
        <extensions>
          <ns3:TrackPointExtension>
            <ns3:atemp>19.0</ns3:atemp>
          </ns3:TrackPointExtension>
        </extensions>
      </trkpt>
      <trkpt lat="46.78805868141353130340576171875" lon="6.87080218456685543060302734375">
        <ele>472.399993896484375</ele>
        <time>2013-09-01T14:23:14.000Z</time>
        <extensions>
          <ns3:TrackPointExtension>
            <ns3:atemp>19.0</ns3:atemp>
          </ns3:TrackPointExtension>
        </extensions>
      </trkpt>
      <trkpt lat="46.7880944721400737762451171875" lon="6.87087737023830413818359375">
        <ele>472.600006103515625</ele>
        <time>2013-09-01T14:23:15.000Z</time>
        <extensions>
          <ns3:TrackPointExtension>
            <ns3:atemp>19.0</ns3:atemp>
          </ns3:TrackPointExtension>
        </extensions>
      </trkpt>
      <trkpt lat="46.788134537637233734130859375" lon="6.87094450928270816802978515625">
        <ele>472.600006103515625</ele>
        <time>2013-09-01T14:23:16.000Z</time>
        <extensions>
          <ns3:TrackPointExtension>
            <ns3:atemp>19.0</ns3:atemp>
          </ns3:TrackPointExtension>
        </extensions>
      </trkpt>
      <trkpt lat="46.7881769500672817230224609375" lon="6.87100150622427463531494140625">
        <ele>472.600006103515625</ele>
        <time>2013-09-01T14:23:17.000Z</time>
        <extensions>
          <ns3:TrackPointExtension>
            <ns3:atemp>19.0</ns3:atemp>
          </ns3:TrackPointExtension>
        </extensions>
      </trkpt>
      <trkpt lat="46.7882248945534229278564453125" lon="6.87105263583362102508544921875">
        <ele>472.600006103515625</ele>
        <time>2013-09-01T14:23:18.000Z</time>
        <extensions>
          <ns3:TrackPointExtension>
            <ns3:atemp>19.0</ns3:atemp>
          </ns3:TrackPointExtension>
        </extensions>
      </trkpt>
      <trkpt lat="46.78827493451535701751708984375" lon="6.8710968084633350372314453125">
        <ele>472.600006103515625</ele>
        <time>2013-09-01T14:23:19.000Z</time>
        <extensions>
          <ns3:TrackPointExtension>
            <ns3:atemp>19.0</ns3:atemp>
          </ns3:TrackPointExtension>
        </extensions>
      </trkpt>
      <trkpt lat="46.7883224599063396453857421875" lon="6.87113410793244838714599609375">
        <ele>472.600006103515625</ele>
        <time>2013-09-01T14:23:20.000Z</time>
        <extensions>
          <ns3:TrackPointExtension>
            <ns3:atemp>19.0</ns3:atemp>
          </ns3:TrackPointExtension>
        </extensions>
      </trkpt>
      <trkpt lat="46.78836730308830738067626953125" lon="6.87116025947034358978271484375">
        <ele>473</ele>
        <time>2013-09-01T14:23:21.000Z</time>
        <extensions>
          <ns3:TrackPointExtension>
            <ns3:atemp>19.0</ns3:atemp>
          </ns3:TrackPointExtension>
        </extensions>
      </trkpt>
      <trkpt lat="46.78840854205191135406494140625" lon="6.87118758447468280792236328125">
        <ele>473.20001220703125</ele>
        <time>2013-09-01T14:23:22.000Z</time>
        <extensions>
          <ns3:TrackPointExtension>
            <ns3:atemp>19.0</ns3:atemp>
          </ns3:TrackPointExtension>
        </extensions>
      </trkpt>
      <trkpt lat="46.78844936192035675048828125" lon="6.87121256254613399505615234375">
        <ele>473.399993896484375</ele>
        <time>2013-09-01T14:23:23.000Z</time>
        <extensions>
          <ns3:TrackPointExtension>
            <ns3:atemp>19.0</ns3:atemp>
          </ns3:TrackPointExtension>
        </extensions>
      </trkpt>
      <trkpt lat="46.7884854041039943695068359375" lon="6.8712414801120758056640625">
        <ele>473.399993896484375</ele>
        <time>2013-09-01T14:23:24.000Z</time>
        <extensions>
          <ns3:TrackPointExtension>
            <ns3:atemp>19.0</ns3:atemp>
          </ns3:TrackPointExtension>
        </extensions>
      </trkpt>
      <trkpt lat="46.7885253019630908966064453125" lon="6.871270649135112762451171875">
        <ele>473.600006103515625</ele>
        <time>2013-09-01T14:23:25.000Z</time>
        <extensions>
          <ns3:TrackPointExtension>
            <ns3:atemp>19.0</ns3:atemp>
          </ns3:TrackPointExtension>
        </extensions>
      </trkpt>
      <trkpt lat="46.78856561891734600067138671875" lon="6.87129906378686428070068359375">
        <ele>474</ele>
        <time>2013-09-01T14:23:26.000Z</time>
        <extensions>
          <ns3:TrackPointExtension>
            <ns3:atemp>19.0</ns3:atemp>
          </ns3:TrackPointExtension>
        </extensions>
      </trkpt>
      <trkpt lat="46.7886082828044891357421875" lon="6.871323287487030029296875">
        <ele>474.399993896484375</ele>
        <time>2013-09-01T14:23:27.000Z</time>
        <extensions>
          <ns3:TrackPointExtension>
            <ns3:atemp>19.0</ns3:atemp>
          </ns3:TrackPointExtension>
        </extensions>
      </trkpt>
      <trkpt lat="46.78865212015807628631591796875" lon="6.87134943902492523193359375">
        <ele>474.600006103515625</ele>
        <time>2013-09-01T14:23:28.000Z</time>
        <extensions>
          <ns3:TrackPointExtension>
            <ns3:atemp>19.0</ns3:atemp>
          </ns3:TrackPointExtension>
        </extensions>
      </trkpt>
      <trkpt lat="46.78869939409196376800537109375" lon="6.8713747523725032806396484375">
        <ele>474.79998779296875</ele>
        <time>2013-09-01T14:23:29.000Z</time>
        <extensions>
          <ns3:TrackPointExtension>
            <ns3:atemp>19.0</ns3:atemp>
          </ns3:TrackPointExtension>
        </extensions>
      </trkpt>
      <trkpt lat="46.78874574601650238037109375" lon="6.87140249647200107574462890625">
        <ele>475</ele>
        <time>2013-09-01T14:23:30.000Z</time>
        <extensions>
          <ns3:TrackPointExtension>
            <ns3:atemp>19.0</ns3:atemp>
          </ns3:TrackPointExtension>
        </extensions>
      </trkpt>
      <trkpt lat="46.78879394195973873138427734375" lon="6.871433258056640625">
        <ele>475.20001220703125</ele>
        <time>2013-09-01T14:23:31.000Z</time>
        <extensions>
          <ns3:TrackPointExtension>
            <ns3:atemp>19.0</ns3:atemp>
          </ns3:TrackPointExtension>
        </extensions>
      </trkpt>
      <trkpt lat="46.78884104825556278228759765625" lon="6.8714609183371067047119140625">
        <ele>475.20001220703125</ele>
        <time>2013-09-01T14:23:32.000Z</time>
        <extensions>
          <ns3:TrackPointExtension>
            <ns3:atemp>19.0</ns3:atemp>
          </ns3:TrackPointExtension>
        </extensions>
      </trkpt>
      <trkpt lat="46.7888890765607357025146484375" lon="6.8714869022369384765625">
        <ele>475.20001220703125</ele>
        <time>2013-09-01T14:23:33.000Z</time>
        <extensions>
          <ns3:TrackPointExtension>
            <ns3:atemp>19.0</ns3:atemp>
          </ns3:TrackPointExtension>
        </extensions>
      </trkpt>
      <trkpt lat="46.7889366857707500457763671875" lon="6.8715179152786731719970703125">
        <ele>475</ele>
        <time>2013-09-01T14:23:34.000Z</time>
        <extensions>
          <ns3:TrackPointExtension>
            <ns3:atemp>19.0</ns3:atemp>
          </ns3:TrackPointExtension>
        </extensions>
      </trkpt>
      <trkpt lat="46.78898538462817668914794921875" lon="6.8715511076152324676513671875">
        <ele>475</ele>
        <time>2013-09-01T14:23:35.000Z</time>
        <extensions>
          <ns3:TrackPointExtension>
            <ns3:atemp>19.0</ns3:atemp>
          </ns3:TrackPointExtension>
        </extensions>
      </trkpt>
      <trkpt lat="46.78903735242784023284912109375" lon="6.87157717533409595489501953125">
        <ele>475</ele>
        <time>2013-09-01T14:23:36.000Z</time>
        <extensions>
          <ns3:TrackPointExtension>
            <ns3:atemp>19.0</ns3:atemp>
          </ns3:TrackPointExtension>
        </extensions>
      </trkpt>
      <trkpt lat="46.7890892364084720611572265625" lon="6.87160382978618144989013671875">
        <ele>475.20001220703125</ele>
        <time>2013-09-01T14:23:37.000Z</time>
        <extensions>
          <ns3:TrackPointExtension>
            <ns3:atemp>19.0</ns3:atemp>
          </ns3:TrackPointExtension>
        </extensions>
      </trkpt>
      <trkpt lat="46.78913868963718414306640625" lon="6.871627382934093475341796875">
        <ele>475.399993896484375</ele>
        <time>2013-09-01T14:23:38.000Z</time>
        <extensions>
          <ns3:TrackPointExtension>
            <ns3:atemp>19.0</ns3:atemp>
          </ns3:TrackPointExtension>
        </extensions>
      </trkpt>
      <trkpt lat="46.78918973542749881744384765625" lon="6.87165630050003528594970703125">
        <ele>475.600006103515625</ele>
        <time>2013-09-01T14:23:39.000Z</time>
        <extensions>
          <ns3:TrackPointExtension>
            <ns3:atemp>19.0</ns3:atemp>
          </ns3:TrackPointExtension>
        </extensions>
      </trkpt>
      <trkpt lat="46.78924505598843097686767578125" lon="6.8716865591704845428466796875">
        <ele>475.79998779296875</ele>
        <time>2013-09-01T14:23:40.000Z</time>
        <extensions>
          <ns3:TrackPointExtension>
            <ns3:atemp>19.0</ns3:atemp>
          </ns3:TrackPointExtension>
        </extensions>
      </trkpt>
      <trkpt lat="46.78930121473968029022216796875" lon="6.87171447090804576873779296875">
        <ele>476</ele>
        <time>2013-09-01T14:23:41.000Z</time>
        <extensions>
          <ns3:TrackPointExtension>
            <ns3:atemp>19.0</ns3:atemp>
          </ns3:TrackPointExtension>
        </extensions>
      </trkpt>
      <trkpt lat="46.7893628217279911041259765625" lon="6.87173902988433837890625">
        <ele>475.79998779296875</ele>
        <time>2013-09-01T14:23:42.000Z</time>
        <extensions>
          <ns3:TrackPointExtension>
            <ns3:atemp>19.0</ns3:atemp>
          </ns3:TrackPointExtension>
        </extensions>
      </trkpt>
      <trkpt lat="46.7894285358488559722900390625" lon="6.87176258303225040435791015625">
        <ele>475.79998779296875</ele>
        <time>2013-09-01T14:23:43.000Z</time>
        <extensions>
          <ns3:TrackPointExtension>
            <ns3:atemp>19.0</ns3:atemp>
          </ns3:TrackPointExtension>
        </extensions>
      </trkpt>
      <trkpt lat="46.78949274122714996337890625" lon="6.8717886507511138916015625">
        <ele>475.399993896484375</ele>
        <time>2013-09-01T14:23:44.000Z</time>
        <extensions>
          <ns3:TrackPointExtension>
            <ns3:atemp>19.0</ns3:atemp>
          </ns3:TrackPointExtension>
        </extensions>
      </trkpt>
      <trkpt lat="46.7895616404712200164794921875" lon="6.87182628549635410308837890625">
        <ele>475.399993896484375</ele>
        <time>2013-09-01T14:23:45.000Z</time>
        <extensions>
          <ns3:TrackPointExtension>
            <ns3:atemp>19.0</ns3:atemp>
          </ns3:TrackPointExtension>
        </extensions>
      </trkpt>
      <trkpt lat="46.7896270193159580230712890625" lon="6.8718719668686389923095703125">
        <ele>475.399993896484375</ele>
        <time>2013-09-01T14:23:46.000Z</time>
        <extensions>
          <ns3:TrackPointExtension>
            <ns3:atemp>19.0</ns3:atemp>
          </ns3:TrackPointExtension>
        </extensions>
      </trkpt>
      <trkpt lat="46.78969122469425201416015625" lon="6.87191865406930446624755859375">
        <ele>475.399993896484375</ele>
        <time>2013-09-01T14:23:47.000Z</time>
        <extensions>
          <ns3:TrackPointExtension>
            <ns3:atemp>19.0</ns3:atemp>
          </ns3:TrackPointExtension>
        </extensions>
      </trkpt>
      <trkpt lat="46.7897584475576877593994140625" lon="6.87197028659284114837646484375">
        <ele>475.399993896484375</ele>
        <time>2013-09-01T14:23:48.000Z</time>
        <extensions>
          <ns3:TrackPointExtension>
            <ns3:atemp>19.0</ns3:atemp>
          </ns3:TrackPointExtension>
        </extensions>
      </trkpt>
      <trkpt lat="46.78983111865818500518798828125" lon="6.87202460132539272308349609375">
        <ele>475.399993896484375</ele>
        <time>2013-09-01T14:23:49.000Z</time>
        <extensions>
          <ns3:TrackPointExtension>
            <ns3:atemp>19.0</ns3:atemp>
          </ns3:TrackPointExtension>
        </extensions>
      </trkpt>
      <trkpt lat="46.789900101721286773681640625" lon="6.8720791675150394439697265625">
        <ele>475.20001220703125</ele>
        <time>2013-09-01T14:23:50.000Z</time>
        <extensions>
          <ns3:TrackPointExtension>
            <ns3:atemp>19.0</ns3:atemp>
          </ns3:TrackPointExtension>
        </extensions>
      </trkpt>
      <trkpt lat="46.78996556438505649566650390625" lon="6.872122921049594879150390625">
        <ele>475</ele>
        <time>2013-09-01T14:23:51.000Z</time>
        <extensions>
          <ns3:TrackPointExtension>
            <ns3:atemp>19.0</ns3:atemp>
          </ns3:TrackPointExtension>
        </extensions>
      </trkpt>
      <trkpt lat="46.79002759046852588653564453125" lon="6.8721582926809787750244140625">
        <ele>475.20001220703125</ele>
        <time>2013-09-01T14:23:52.000Z</time>
        <extensions>
          <ns3:TrackPointExtension>
            <ns3:atemp>19.0</ns3:atemp>
          </ns3:TrackPointExtension>
        </extensions>
      </trkpt>
      <trkpt lat="46.79008542560040950775146484375" lon="6.87219978310167789459228515625">
        <ele>475.399993896484375</ele>
        <time>2013-09-01T14:23:53.000Z</time>
        <extensions>
          <ns3:TrackPointExtension>
            <ns3:atemp>19.0</ns3:atemp>
          </ns3:TrackPointExtension>
        </extensions>
      </trkpt>
      <trkpt lat="46.79014225490391254425048828125" lon="6.8722468055784702301025390625">
        <ele>475.399993896484375</ele>
        <time>2013-09-01T14:23:54.000Z</time>
        <extensions>
          <ns3:TrackPointExtension>
            <ns3:atemp>19.0</ns3:atemp>
          </ns3:TrackPointExtension>
        </extensions>
      </trkpt>
      <trkpt lat="46.79019279778003692626953125" lon="6.87228611670434474945068359375">
        <ele>475.79998779296875</ele>
        <time>2013-09-01T14:23:55.000Z</time>
        <extensions>
          <ns3:TrackPointExtension>
            <ns3:atemp>19.0</ns3:atemp>
          </ns3:TrackPointExtension>
        </extensions>
      </trkpt>
      <trkpt lat="46.79024300538003444671630859375" lon="6.87231696210801601409912109375">
        <ele>475.79998779296875</ele>
        <time>2013-09-01T14:23:56.000Z</time>
        <extensions>
          <ns3:TrackPointExtension>
            <ns3:atemp>19.0</ns3:atemp>
          </ns3:TrackPointExtension>
        </extensions>
      </trkpt>
      <trkpt lat="46.79029027931392192840576171875" lon="6.87235065735876560211181640625">
        <ele>476.20001220703125</ele>
        <time>2013-09-01T14:23:57.000Z</time>
        <extensions>
          <ns3:TrackPointExtension>
            <ns3:atemp>19.0</ns3:atemp>
          </ns3:TrackPointExtension>
        </extensions>
      </trkpt>
      <trkpt lat="46.7903367988765239715576171875" lon="6.8723825924098491668701171875">
        <ele>476.20001220703125</ele>
        <time>2013-09-01T14:23:58.000Z</time>
        <extensions>
          <ns3:TrackPointExtension>
            <ns3:atemp>19.0</ns3:atemp>
          </ns3:TrackPointExtension>
        </extensions>
      </trkpt>
      <trkpt lat="46.79037828929722309112548828125" lon="6.87240983359515666961669921875">
        <ele>476.20001220703125</ele>
        <time>2013-09-01T14:23:59.000Z</time>
        <extensions>
          <ns3:TrackPointExtension>
            <ns3:atemp>19.0</ns3:atemp>
          </ns3:TrackPointExtension>
        </extensions>
      </trkpt>
      <trkpt lat="46.7904189415276050567626953125" lon="6.87243330292403697967529296875">
        <ele>476.20001220703125</ele>
        <time>2013-09-01T14:24:00.000Z</time>
        <extensions>
          <ns3:TrackPointExtension>
            <ns3:atemp>19.0</ns3:atemp>
          </ns3:TrackPointExtension>
        </extensions>
      </trkpt>
      <trkpt lat="46.790458671748638153076171875" lon="6.8724526651203632354736328125">
        <ele>476.399993896484375</ele>
        <time>2013-09-01T14:24:01.000Z</time>
        <extensions>
          <ns3:TrackPointExtension>
            <ns3:atemp>19.0</ns3:atemp>
          </ns3:TrackPointExtension>
        </extensions>
      </trkpt>
      <trkpt lat="46.7904990725219249725341796875" lon="6.87246984802186489105224609375">
        <ele>476.600006103515625</ele>
        <time>2013-09-01T14:24:02.000Z</time>
        <extensions>
          <ns3:TrackPointExtension>
            <ns3:atemp>19.0</ns3:atemp>
          </ns3:TrackPointExtension>
        </extensions>
      </trkpt>
      <trkpt lat="46.79054056294262409210205078125" lon="6.8724868632853031158447265625">
        <ele>476.79998779296875</ele>
        <time>2013-09-01T14:24:03.000Z</time>
        <extensions>
          <ns3:TrackPointExtension>
            <ns3:atemp>19.0</ns3:atemp>
          </ns3:TrackPointExtension>
        </extensions>
      </trkpt>
      <trkpt lat="46.7905795387923717498779296875" lon="6.8725046329200267791748046875">
        <ele>476.79998779296875</ele>
        <time>2013-09-01T14:24:04.000Z</time>
        <extensions>
          <ns3:TrackPointExtension>
            <ns3:atemp>19.0</ns3:atemp>
          </ns3:TrackPointExtension>
        </extensions>
      </trkpt>
      <trkpt lat="46.79061985574662685394287109375" lon="6.87251946888864040374755859375">
        <ele>476.600006103515625</ele>
        <time>2013-09-01T14:24:05.000Z</time>
        <extensions>
          <ns3:TrackPointExtension>
            <ns3:atemp>19.0</ns3:atemp>
          </ns3:TrackPointExtension>
        </extensions>
      </trkpt>
      <trkpt lat="46.79065908305346965789794921875" lon="6.872534640133380889892578125">
        <ele>476.79998779296875</ele>
        <time>2013-09-01T14:24:06.000Z</time>
        <extensions>
          <ns3:TrackPointExtension>
            <ns3:atemp>19.0</ns3:atemp>
          </ns3:TrackPointExtension>
        </extensions>
      </trkpt>
      <trkpt lat="46.7907002381980419158935546875" lon="6.8725525774061679840087890625">
        <ele>476.79998779296875</ele>
        <time>2013-09-01T14:24:07.000Z</time>
        <extensions>
          <ns3:TrackPointExtension>
            <ns3:atemp>19.0</ns3:atemp>
          </ns3:TrackPointExtension>
        </extensions>
      </trkpt>
      <trkpt lat="46.7907433211803436279296875" lon="6.872573532164096832275390625">
        <ele>476.79998779296875</ele>
        <time>2013-09-01T14:24:08.000Z</time>
        <extensions>
          <ns3:TrackPointExtension>
            <ns3:atemp>19.0</ns3:atemp>
          </ns3:TrackPointExtension>
        </extensions>
      </trkpt>
      <trkpt lat="46.79079084657132625579833984375" lon="6.872600354254245758056640625">
        <ele>476.79998779296875</ele>
        <time>2013-09-01T14:24:09.000Z</time>
        <extensions>
          <ns3:TrackPointExtension>
            <ns3:atemp>19.0</ns3:atemp>
          </ns3:TrackPointExtension>
        </extensions>
      </trkpt>
      <trkpt lat="46.79083250463008880615234375" lon="6.87262541614472866058349609375">
        <ele>476.600006103515625</ele>
        <time>2013-09-01T14:24:10.000Z</time>
        <extensions>
          <ns3:TrackPointExtension>
            <ns3:atemp>19.0</ns3:atemp>
          </ns3:TrackPointExtension>
        </extensions>
      </trkpt>
      <trkpt lat="46.79087634198367595672607421875" lon="6.87265005894005298614501953125">
        <ele>476.399993896484375</ele>
        <time>2013-09-01T14:24:11.000Z</time>
        <extensions>
          <ns3:TrackPointExtension>
            <ns3:atemp>19.0</ns3:atemp>
          </ns3:TrackPointExtension>
        </extensions>
      </trkpt>
      <trkpt lat="46.79091833531856536865234375" lon="6.8726736120879650115966796875">
        <ele>476.399993896484375</ele>
        <time>2013-09-01T14:24:12.000Z</time>
        <extensions>
          <ns3:TrackPointExtension>
            <ns3:atemp>19.0</ns3:atemp>
          </ns3:TrackPointExtension>
        </extensions>
      </trkpt>
      <trkpt lat="46.79096971638500690460205078125" lon="6.8726940639317035675048828125">
        <ele>476.20001220703125</ele>
        <time>2013-09-01T14:24:13.000Z</time>
        <extensions>
          <ns3:TrackPointExtension>
            <ns3:atemp>19.0</ns3:atemp>
          </ns3:TrackPointExtension>
        </extensions>
      </trkpt>
      <trkpt lat="46.7910251207649707794189453125" lon="6.87272549606859683990478515625">
        <ele>476.399993896484375</ele>
        <time>2013-09-01T14:24:14.000Z</time>
        <extensions>
          <ns3:TrackPointExtension>
            <ns3:atemp>19.0</ns3:atemp>
          </ns3:TrackPointExtension>
        </extensions>
      </trkpt>
      <trkpt lat="46.79108203388750553131103515625" lon="6.8727537430822849273681640625">
        <ele>476.399993896484375</ele>
        <time>2013-09-01T14:24:15.000Z</time>
        <extensions>
          <ns3:TrackPointExtension>
            <ns3:atemp>19.0</ns3:atemp>
          </ns3:TrackPointExtension>
        </extensions>
      </trkpt>
      <trkpt lat="46.79114255122840404510498046875" lon="6.87277645803987979888916015625">
        <ele>476.399993896484375</ele>
        <time>2013-09-01T14:24:16.000Z</time>
        <extensions>
          <ns3:TrackPointExtension>
            <ns3:atemp>19.0</ns3:atemp>
          </ns3:TrackPointExtension>
        </extensions>
      </trkpt>
      <trkpt lat="46.79119728505611419677734375" lon="6.87279908917844295501708984375">
        <ele>476.399993896484375</ele>
        <time>2013-09-01T14:24:17.000Z</time>
        <extensions>
          <ns3:TrackPointExtension>
            <ns3:atemp>19.0</ns3:atemp>
          </ns3:TrackPointExtension>
        </extensions>
      </trkpt>
      <trkpt lat="46.7912547849118709564208984375" lon="6.8728258274495601654052734375">
        <ele>476.399993896484375</ele>
        <time>2013-09-01T14:24:18.000Z</time>
        <extensions>
          <ns3:TrackPointExtension>
            <ns3:atemp>19.0</ns3:atemp>
          </ns3:TrackPointExtension>
        </extensions>
      </trkpt>
      <trkpt lat="46.79131421260535717010498046875" lon="6.87283932231366634368896484375">
        <ele>476.20001220703125</ele>
        <time>2013-09-01T14:24:19.000Z</time>
        <extensions>
          <ns3:TrackPointExtension>
            <ns3:atemp>19.0</ns3:atemp>
          </ns3:TrackPointExtension>
        </extensions>
      </trkpt>
      <trkpt lat="46.7913744784891605377197265625" lon="6.87285038642585277557373046875">
        <ele>476.20001220703125</ele>
        <time>2013-09-01T14:24:20.000Z</time>
        <extensions>
          <ns3:TrackPointExtension>
            <ns3:atemp>19.0</ns3:atemp>
          </ns3:TrackPointExtension>
        </extensions>
      </trkpt>
      <trkpt lat="46.79143776185810565948486328125" lon="6.8728539906442165374755859375">
        <ele>476.399993896484375</ele>
        <time>2013-09-01T14:24:21.000Z</time>
        <extensions>
          <ns3:TrackPointExtension>
            <ns3:atemp>19.0</ns3:atemp>
          </ns3:TrackPointExtension>
        </extensions>
      </trkpt>
      <trkpt lat="46.791498698294162750244140625" lon="6.87285474501550197601318359375">
        <ele>476.399993896484375</ele>
        <time>2013-09-01T14:24:22.000Z</time>
        <extensions>
          <ns3:TrackPointExtension>
            <ns3:atemp>19.0</ns3:atemp>
          </ns3:TrackPointExtension>
        </extensions>
      </trkpt>
      <trkpt lat="46.79156114347279071807861328125" lon="6.87285809777677059173583984375">
        <ele>476.600006103515625</ele>
        <time>2013-09-01T14:24:23.000Z</time>
        <extensions>
          <ns3:TrackPointExtension>
            <ns3:atemp>19.0</ns3:atemp>
          </ns3:TrackPointExtension>
        </extensions>
      </trkpt>
      <trkpt lat="46.7916266061365604400634765625" lon="6.872859187424182891845703125">
        <ele>476.20001220703125</ele>
        <time>2013-09-01T14:24:24.000Z</time>
        <extensions>
          <ns3:TrackPointExtension>
            <ns3:atemp>19.0</ns3:atemp>
          </ns3:TrackPointExtension>
        </extensions>
      </trkpt>
      <trkpt lat="46.791695840656757354736328125" lon="6.8728630430996417999267578125">
        <ele>475.79998779296875</ele>
        <time>2013-09-01T14:24:25.000Z</time>
        <extensions>
          <ns3:TrackPointExtension>
            <ns3:atemp>19.0</ns3:atemp>
          </ns3:TrackPointExtension>
        </extensions>
      </trkpt>
      <trkpt lat="46.7917603813111782073974609375" lon="6.8728576786816120147705078125">
        <ele>475.79998779296875</ele>
        <time>2013-09-01T14:24:26.000Z</time>
        <extensions>
          <ns3:TrackPointExtension>
            <ns3:atemp>19.0</ns3:atemp>
          </ns3:TrackPointExtension>
        </extensions>
      </trkpt>
      <trkpt lat="46.791831292212009429931640625" lon="6.87286346219480037689208984375">
        <ele>475.399993896484375</ele>
        <time>2013-09-01T14:24:27.000Z</time>
        <extensions>
          <ns3:TrackPointExtension>
            <ns3:atemp>19.0</ns3:atemp>
          </ns3:TrackPointExtension>
        </extensions>
      </trkpt>
      <trkpt lat="46.7919082380831241607666015625" lon="6.87287150882184505462646484375">
        <ele>475.20001220703125</ele>
        <time>2013-09-01T14:24:28.000Z</time>
        <extensions>
          <ns3:TrackPointExtension>
            <ns3:atemp>19.0</ns3:atemp>
          </ns3:TrackPointExtension>
        </extensions>
      </trkpt>
      <trkpt lat="46.7919816635549068450927734375" lon="6.872879974544048309326171875">
        <ele>474.79998779296875</ele>
        <time>2013-09-01T14:24:29.000Z</time>
        <extensions>
          <ns3:TrackPointExtension>
            <ns3:atemp>19.0</ns3:atemp>
          </ns3:TrackPointExtension>
        </extensions>
      </trkpt>
      <trkpt lat="46.79205500520765781402587890625" lon="6.87288768589496612548828125">
        <ele>474.399993896484375</ele>
        <time>2013-09-01T14:24:30.000Z</time>
        <extensions>
          <ns3:TrackPointExtension>
            <ns3:atemp>19.0</ns3:atemp>
          </ns3:TrackPointExtension>
        </extensions>
      </trkpt>
      <trkpt lat="46.79213027469813823699951171875" lon="6.87289732508361339569091796875">
        <ele>474.20001220703125</ele>
        <time>2013-09-01T14:24:31.000Z</time>
        <extensions>
          <ns3:TrackPointExtension>
            <ns3:atemp>19.0</ns3:atemp>
          </ns3:TrackPointExtension>
        </extensions>
      </trkpt>
      <trkpt lat="46.79220453836023807525634765625" lon="6.8729076348245143890380859375">
        <ele>474</ele>
        <time>2013-09-01T14:24:32.000Z</time>
        <extensions>
          <ns3:TrackPointExtension>
            <ns3:atemp>19.0</ns3:atemp>
          </ns3:TrackPointExtension>
        </extensions>
      </trkpt>
      <trkpt lat="46.792284585535526275634765625" lon="6.87291258014738559722900390625">
        <ele>474.20001220703125</ele>
        <time>2013-09-01T14:24:33.000Z</time>
        <extensions>
          <ns3:TrackPointExtension>
            <ns3:atemp>19.0</ns3:atemp>
          </ns3:TrackPointExtension>
        </extensions>
      </trkpt>
      <trkpt lat="46.79236136376857757568359375" lon="6.8729200400412082672119140625">
        <ele>474.20001220703125</ele>
        <time>2013-09-01T14:24:34.000Z</time>
        <extensions>
          <ns3:TrackPointExtension>
            <ns3:atemp>19.0</ns3:atemp>
          </ns3:TrackPointExtension>
        </extensions>
      </trkpt>
      <trkpt lat="46.79243403486907482147216796875" lon="6.8729264102876186370849609375">
        <ele>474.20001220703125</ele>
        <time>2013-09-01T14:24:35.000Z</time>
        <extensions>
          <ns3:TrackPointExtension>
            <ns3:atemp>19.0</ns3:atemp>
          </ns3:TrackPointExtension>
        </extensions>
      </trkpt>
      <trkpt lat="46.7925028502941131591796875" lon="6.8729366362094879150390625">
        <ele>474.20001220703125</ele>
        <time>2013-09-01T14:24:36.000Z</time>
        <extensions>
          <ns3:TrackPointExtension>
            <ns3:atemp>19.0</ns3:atemp>
          </ns3:TrackPointExtension>
        </extensions>
      </trkpt>
      <trkpt lat="46.792572252452373504638671875" lon="6.8729485385119915008544921875">
        <ele>474.20001220703125</ele>
        <time>2013-09-01T14:24:37.000Z</time>
        <extensions>
          <ns3:TrackPointExtension>
            <ns3:atemp>19.0</ns3:atemp>
          </ns3:TrackPointExtension>
        </extensions>
      </trkpt>
      <trkpt lat="46.79263922385871410369873046875" lon="6.8729612790048122406005859375">
        <ele>474.20001220703125</ele>
        <time>2013-09-01T14:24:38.000Z</time>
        <extensions>
          <ns3:TrackPointExtension>
            <ns3:atemp>19.0</ns3:atemp>
          </ns3:TrackPointExtension>
        </extensions>
      </trkpt>
      <trkpt lat="46.79270275868475437164306640625" lon="6.87297225929796695709228515625">
        <ele>474.20001220703125</ele>
        <time>2013-09-01T14:24:39.000Z</time>
        <extensions>
          <ns3:TrackPointExtension>
            <ns3:atemp>19.0</ns3:atemp>
          </ns3:TrackPointExtension>
        </extensions>
      </trkpt>
      <trkpt lat="46.7927655391395092010498046875" lon="6.8729875981807708740234375">
        <ele>474.20001220703125</ele>
        <time>2013-09-01T14:24:40.000Z</time>
        <extensions>
          <ns3:TrackPointExtension>
            <ns3:atemp>19.0</ns3:atemp>
          </ns3:TrackPointExtension>
        </extensions>
      </trkpt>
      <trkpt lat="46.7928218655288219451904296875" lon="6.87299321405589580535888671875">
        <ele>474.20001220703125</ele>
        <time>2013-09-01T14:24:41.000Z</time>
        <extensions>
          <ns3:TrackPointExtension>
            <ns3:atemp>19.0</ns3:atemp>
          </ns3:TrackPointExtension>
        </extensions>
      </trkpt>
      <trkpt lat="46.79287525825202465057373046875" lon="6.87300226651132106781005859375">
        <ele>474.399993896484375</ele>
        <time>2013-09-01T14:24:42.000Z</time>
        <extensions>
          <ns3:TrackPointExtension>
            <ns3:atemp>19.0</ns3:atemp>
          </ns3:TrackPointExtension>
        </extensions>
      </trkpt>
      <trkpt lat="46.792928986251354217529296875" lon="6.873004697263240814208984375">
        <ele>474.399993896484375</ele>
        <time>2013-09-01T14:24:43.000Z</time>
        <extensions>
          <ns3:TrackPointExtension>
            <ns3:atemp>19.0</ns3:atemp>
          </ns3:TrackPointExtension>
        </extensions>
      </trkpt>
      <trkpt lat="46.79298187606036663055419921875" lon="6.87300167977809906005859375">
        <ele>474.600006103515625</ele>
        <time>2013-09-01T14:24:44.000Z</time>
        <extensions>
          <ns3:TrackPointExtension>
            <ns3:atemp>19.0</ns3:atemp>
          </ns3:TrackPointExtension>
        </extensions>
      </trkpt>
      <trkpt lat="46.79304063320159912109375" lon="6.873000673949718475341796875">
        <ele>474.600006103515625</ele>
        <time>2013-09-01T14:24:45.000Z</time>
        <extensions>
          <ns3:TrackPointExtension>
            <ns3:atemp>19.0</ns3:atemp>
          </ns3:TrackPointExtension>
        </extensions>
      </trkpt>
      <trkpt lat="46.793099977076053619384765625" lon="6.87300302088260650634765625">
        <ele>474.600006103515625</ele>
        <time>2013-09-01T14:24:46.000Z</time>
        <extensions>
          <ns3:TrackPointExtension>
            <ns3:atemp>19.0</ns3:atemp>
          </ns3:TrackPointExtension>
        </extensions>
      </trkpt>
      <trkpt lat="46.793156974017620086669921875" lon="6.87300436198711395263671875">
        <ele>474.600006103515625</ele>
        <time>2013-09-01T14:24:47.000Z</time>
        <extensions>
          <ns3:TrackPointExtension>
            <ns3:atemp>19.0</ns3:atemp>
          </ns3:TrackPointExtension>
        </extensions>
      </trkpt>
      <trkpt lat="46.79321229457855224609375" lon="6.87300310470163822174072265625">
        <ele>474.79998779296875</ele>
        <time>2013-09-01T14:24:48.000Z</time>
        <extensions>
          <ns3:TrackPointExtension>
            <ns3:atemp>19.0</ns3:atemp>
          </ns3:TrackPointExtension>
        </extensions>
      </trkpt>
      <trkpt lat="46.7932661063969135284423828125" lon="6.87300193123519420623779296875">
        <ele>474.79998779296875</ele>
        <time>2013-09-01T14:24:49.000Z</time>
        <extensions>
          <ns3:TrackPointExtension>
            <ns3:atemp>19.0</ns3:atemp>
          </ns3:TrackPointExtension>
        </extensions>
      </trkpt>
      <trkpt lat="46.793317236006259918212890625" lon="6.87299924902617931365966796875">
        <ele>475</ele>
        <time>2013-09-01T14:24:50.000Z</time>
        <extensions>
          <ns3:TrackPointExtension>
            <ns3:atemp>19.0</ns3:atemp>
          </ns3:TrackPointExtension>
        </extensions>
      </trkpt>
      <trkpt lat="46.79337389767169952392578125" lon="6.8730010092258453369140625">
        <ele>475.20001220703125</ele>
        <time>2013-09-01T14:24:51.000Z</time>
        <extensions>
          <ns3:TrackPointExtension>
            <ns3:atemp>19.0</ns3:atemp>
          </ns3:TrackPointExtension>
        </extensions>
      </trkpt>
      <trkpt lat="46.7934282124042510986328125" lon="6.87300427816808223724365234375">
        <ele>475.20001220703125</ele>
        <time>2013-09-01T14:24:52.000Z</time>
        <extensions>
          <ns3:TrackPointExtension>
            <ns3:atemp>19.0</ns3:atemp>
          </ns3:TrackPointExtension>
        </extensions>
      </trkpt>
      <trkpt lat="46.79348160512745380401611328125" lon="6.873006038367748260498046875">
        <ele>475.20001220703125</ele>
        <time>2013-09-01T14:24:53.000Z</time>
        <extensions>
          <ns3:TrackPointExtension>
            <ns3:atemp>19.0</ns3:atemp>
          </ns3:TrackPointExtension>
        </extensions>
      </trkpt>
      <trkpt lat="46.79353541694581508636474609375" lon="6.8730025179684162139892578125">
        <ele>475.20001220703125</ele>
        <time>2013-09-01T14:24:54.000Z</time>
        <extensions>
          <ns3:TrackPointExtension>
            <ns3:atemp>19.0</ns3:atemp>
          </ns3:TrackPointExtension>
        </extensions>
      </trkpt>
      <trkpt lat="46.79358872584998607635498046875" lon="6.87300394289195537567138671875">
        <ele>475.399993896484375</ele>
        <time>2013-09-01T14:24:55.000Z</time>
        <extensions>
          <ns3:TrackPointExtension>
            <ns3:atemp>19.0</ns3:atemp>
          </ns3:TrackPointExtension>
        </extensions>
      </trkpt>
      <trkpt lat="46.7936459742486476898193359375" lon="6.872997991740703582763671875">
        <ele>475.399993896484375</ele>
        <time>2013-09-01T14:24:56.000Z</time>
        <extensions>
          <ns3:TrackPointExtension>
            <ns3:atemp>19.0</ns3:atemp>
          </ns3:TrackPointExtension>
        </extensions>
      </trkpt>
      <trkpt lat="46.7936932481825351715087890625" lon="6.87299229204654693603515625">
        <ele>475.79998779296875</ele>
        <time>2013-09-01T14:24:57.000Z</time>
        <extensions>
          <ns3:TrackPointExtension>
            <ns3:atemp>19.0</ns3:atemp>
          </ns3:TrackPointExtension>
        </extensions>
      </trkpt>
      <trkpt lat="46.793746054172515869140625" lon="6.87298701144754886627197265625">
        <ele>475.79998779296875</ele>
        <time>2013-09-01T14:24:58.000Z</time>
        <extensions>
          <ns3:TrackPointExtension>
            <ns3:atemp>19.0</ns3:atemp>
          </ns3:TrackPointExtension>
        </extensions>
      </trkpt>
      <trkpt lat="46.79379760287702083587646484375" lon="6.872981227934360504150390625">
        <ele>475.79998779296875</ele>
        <time>2013-09-01T14:24:59.000Z</time>
        <extensions>
          <ns3:TrackPointExtension>
            <ns3:atemp>19.0</ns3:atemp>
          </ns3:TrackPointExtension>
        </extensions>
      </trkpt>
      <trkpt lat="46.7938478104770183563232421875" lon="6.8729720078408718109130859375">
        <ele>475.79998779296875</ele>
        <time>2013-09-01T14:25:00.000Z</time>
        <extensions>
          <ns3:TrackPointExtension>
            <ns3:atemp>19.0</ns3:atemp>
          </ns3:TrackPointExtension>
        </extensions>
      </trkpt>
      <trkpt lat="46.79390472359955310821533203125" lon="6.87296002171933650970458984375">
        <ele>475.79998779296875</ele>
        <time>2013-09-01T14:25:01.000Z</time>
        <extensions>
          <ns3:TrackPointExtension>
            <ns3:atemp>19.0</ns3:atemp>
          </ns3:TrackPointExtension>
        </extensions>
      </trkpt>
      <trkpt lat="46.79396264255046844482421875" lon="6.8729420006275177001953125">
        <ele>475.600006103515625</ele>
        <time>2013-09-01T14:25:02.000Z</time>
        <extensions>
          <ns3:TrackPointExtension>
            <ns3:atemp>19.0</ns3:atemp>
          </ns3:TrackPointExtension>
        </extensions>
      </trkpt>
      <trkpt lat="46.79401486180722713470458984375" lon="6.87292247079312801361083984375">
        <ele>475.79998779296875</ele>
        <time>2013-09-01T14:25:03.000Z</time>
        <extensions>
          <ns3:TrackPointExtension>
            <ns3:atemp>19.0</ns3:atemp>
          </ns3:TrackPointExtension>
        </extensions>
      </trkpt>
      <trkpt lat="46.79406884126365184783935546875" lon="6.8729046173393726348876953125">
        <ele>476</ele>
        <time>2013-09-01T14:25:04.000Z</time>
        <extensions>
          <ns3:TrackPointExtension>
            <ns3:atemp>19.0</ns3:atemp>
          </ns3:TrackPointExtension>
        </extensions>
      </trkpt>
      <trkpt lat="46.79412231780588626861572265625" lon="6.87288902699947357177734375">
        <ele>476.20001220703125</ele>
        <time>2013-09-01T14:25:05.000Z</time>
        <extensions>
          <ns3:TrackPointExtension>
            <ns3:atemp>19.0</ns3:atemp>
          </ns3:TrackPointExtension>
        </extensions>
      </trkpt>
      <trkpt lat="46.79417596198618412017822265625" lon="6.872875951230525970458984375">
        <ele>476.20001220703125</ele>
        <time>2013-09-01T14:25:06.000Z</time>
        <extensions>
          <ns3:TrackPointExtension>
            <ns3:atemp>19.0</ns3:atemp>
          </ns3:TrackPointExtension>
        </extensions>
      </trkpt>
      <trkpt lat="46.79423153400421142578125" lon="6.87286094762384891510009765625">
        <ele>476.20001220703125</ele>
        <time>2013-09-01T14:25:07.000Z</time>
        <extensions>
          <ns3:TrackPointExtension>
            <ns3:atemp>19.0</ns3:atemp>
          </ns3:TrackPointExtension>
        </extensions>
      </trkpt>
      <trkpt lat="46.79428660310804843902587890625" lon="6.872853823006153106689453125">
        <ele>476.20001220703125</ele>
        <time>2013-09-01T14:25:08.000Z</time>
        <extensions>
          <ns3:TrackPointExtension>
            <ns3:atemp>19.0</ns3:atemp>
          </ns3:TrackPointExtension>
        </extensions>
      </trkpt>
      <trkpt lat="46.79433773271739482879638671875" lon="6.8728503026068210601806640625">
        <ele>476.20001220703125</ele>
        <time>2013-09-01T14:25:09.000Z</time>
        <extensions>
          <ns3:TrackPointExtension>
            <ns3:atemp>19.0</ns3:atemp>
          </ns3:TrackPointExtension>
        </extensions>
      </trkpt>
      <trkpt lat="46.7943849228322505950927734375" lon="6.87285072170197963714599609375">
        <ele>476.399993896484375</ele>
        <time>2013-09-01T14:25:10.000Z</time>
        <extensions>
          <ns3:TrackPointExtension>
            <ns3:atemp>19.0</ns3:atemp>
          </ns3:TrackPointExtension>
        </extensions>
      </trkpt>
      <trkpt lat="46.79443261586129665374755859375" lon="6.87285206280648708343505859375">
        <ele>476.399993896484375</ele>
        <time>2013-09-01T14:25:11.000Z</time>
        <extensions>
          <ns3:TrackPointExtension>
            <ns3:atemp>19.0</ns3:atemp>
          </ns3:TrackPointExtension>
        </extensions>
      </trkpt>
      <trkpt lat="46.7944747768342494964599609375" lon="6.87283110804855823516845703125">
        <ele>476.600006103515625</ele>
        <time>2013-09-01T14:25:12.000Z</time>
        <extensions>
          <ns3:TrackPointExtension>
            <ns3:atemp>19.0</ns3:atemp>
          </ns3:TrackPointExtension>
        </extensions>
      </trkpt>
      <trkpt lat="46.79450537078082561492919921875" lon="6.87279758043587207794189453125">
        <ele>476.600006103515625</ele>
        <time>2013-09-01T14:25:13.000Z</time>
        <extensions>
          <ns3:TrackPointExtension>
            <ns3:atemp>19.0</ns3:atemp>
          </ns3:TrackPointExtension>
        </extensions>
      </trkpt>
      <trkpt lat="46.79452783428132534027099609375" lon="6.87276321463286876678466796875">
        <ele>476.79998779296875</ele>
        <time>2013-09-01T14:25:14.000Z</time>
        <extensions>
          <ns3:TrackPointExtension>
            <ns3:atemp>19.0</ns3:atemp>
          </ns3:TrackPointExtension>
        </extensions>
      </trkpt>
      <trkpt lat="46.79453085176646709442138671875" lon="6.8727054633200168609619140625">
        <ele>476.600006103515625</ele>
        <time>2013-09-01T14:25:15.000Z</time>
        <extensions>
          <ns3:TrackPointExtension>
            <ns3:atemp>19.0</ns3:atemp>
          </ns3:TrackPointExtension>
        </extensions>
      </trkpt>
      <trkpt lat="46.794526241719722747802734375" lon="6.8726518191397190093994140625">
        <ele>477</ele>
        <time>2013-09-01T14:25:16.000Z</time>
        <extensions>
          <ns3:TrackPointExtension>
            <ns3:atemp>19.0</ns3:atemp>
          </ns3:TrackPointExtension>
        </extensions>
      </trkpt>
      <trkpt lat="46.79452951066195964813232421875" lon="6.87260144390165805816650390625">
        <ele>477</ele>
        <time>2013-09-01T14:25:17.000Z</time>
        <extensions>
          <ns3:TrackPointExtension>
            <ns3:atemp>19.0</ns3:atemp>
          </ns3:TrackPointExtension>
        </extensions>
      </trkpt>
      <trkpt lat="46.794532276690006256103515625" lon="6.87254997901618480682373046875">
        <ele>477.399993896484375</ele>
        <time>2013-09-01T14:25:18.000Z</time>
        <extensions>
          <ns3:TrackPointExtension>
            <ns3:atemp>19.0</ns3:atemp>
          </ns3:TrackPointExtension>
        </extensions>
      </trkpt>
      <trkpt lat="46.79453395307064056396484375" lon="6.8725042976438999176025390625">
        <ele>477.399993896484375</ele>
        <time>2013-09-01T14:25:19.000Z</time>
        <extensions>
          <ns3:TrackPointExtension>
            <ns3:atemp>19.0</ns3:atemp>
          </ns3:TrackPointExtension>
        </extensions>
      </trkpt>
      <trkpt lat="46.79453604854643344879150390625" lon="6.87245911918580532073974609375">
        <ele>477.600006103515625</ele>
        <time>2013-09-01T14:25:20.000Z</time>
        <extensions>
          <ns3:TrackPointExtension>
            <ns3:atemp>19.0</ns3:atemp>
          </ns3:TrackPointExtension>
        </extensions>
      </trkpt>
      <trkpt lat="46.794536300003528594970703125" lon="6.872416622936725616455078125">
        <ele>477.79998779296875</ele>
        <time>2013-09-01T14:25:21.000Z</time>
        <extensions>
          <ns3:TrackPointExtension>
            <ns3:atemp>19.0</ns3:atemp>
          </ns3:TrackPointExtension>
        </extensions>
      </trkpt>
      <trkpt lat="46.79453554563224315643310546875" lon="6.87237496487796306610107421875">
        <ele>478.20001220703125</ele>
        <time>2013-09-01T14:25:22.000Z</time>
        <extensions>
          <ns3:TrackPointExtension>
            <ns3:atemp>19.0</ns3:atemp>
          </ns3:TrackPointExtension>
        </extensions>
      </trkpt>
      <trkpt lat="46.7945373058319091796875" lon="6.8723356537520885467529296875">
        <ele>478.20001220703125</ele>
        <time>2013-09-01T14:25:23.000Z</time>
        <extensions>
          <ns3:TrackPointExtension>
            <ns3:atemp>19.0</ns3:atemp>
          </ns3:TrackPointExtension>
        </extensions>
      </trkpt>
      <trkpt lat="46.7945394851267337799072265625" lon="6.8722982704639434814453125">
        <ele>478.399993896484375</ele>
        <time>2013-09-01T14:25:24.000Z</time>
        <extensions>
          <ns3:TrackPointExtension>
            <ns3:atemp>19.0</ns3:atemp>
          </ns3:TrackPointExtension>
        </extensions>
      </trkpt>
      <trkpt lat="46.7945408262312412261962890625" lon="6.8722634017467498779296875">
        <ele>478.600006103515625</ele>
        <time>2013-09-01T14:25:25.000Z</time>
        <extensions>
          <ns3:TrackPointExtension>
            <ns3:atemp>19.0</ns3:atemp>
          </ns3:TrackPointExtension>
        </extensions>
      </trkpt>
      <trkpt lat="46.7945425026118755340576171875" lon="6.87223046086728572845458984375">
        <ele>479</ele>
        <time>2013-09-01T14:25:26.000Z</time>
        <extensions>
          <ns3:TrackPointExtension>
            <ns3:atemp>19.0</ns3:atemp>
          </ns3:TrackPointExtension>
        </extensions>
      </trkpt>
      <trkpt lat="46.7945418320596218109130859375" lon="6.8721948377788066864013671875">
        <ele>479.20001220703125</ele>
        <time>2013-09-01T14:25:27.000Z</time>
        <extensions>
          <ns3:TrackPointExtension>
            <ns3:atemp>18.0</ns3:atemp>
          </ns3:TrackPointExtension>
        </extensions>
      </trkpt>
      <trkpt lat="46.79454275406897068023681640625" lon="6.872161142528057098388671875">
        <ele>479.600006103515625</ele>
        <time>2013-09-01T14:25:28.000Z</time>
        <extensions>
          <ns3:TrackPointExtension>
            <ns3:atemp>18.0</ns3:atemp>
          </ns3:TrackPointExtension>
        </extensions>
      </trkpt>
      <trkpt lat="46.7945438437163829803466796875" lon="6.872127950191497802734375">
        <ele>479.79998779296875</ele>
        <time>2013-09-01T14:25:29.000Z</time>
        <extensions>
          <ns3:TrackPointExtension>
            <ns3:atemp>18.0</ns3:atemp>
          </ns3:TrackPointExtension>
        </extensions>
      </trkpt>
      <trkpt lat="46.79454409517347812652587890625" lon="6.8720935843884944915771484375">
        <ele>480</ele>
        <time>2013-09-01T14:25:30.000Z</time>
        <extensions>
          <ns3:TrackPointExtension>
            <ns3:atemp>18.0</ns3:atemp>
          </ns3:TrackPointExtension>
        </extensions>
      </trkpt>
      <trkpt lat="46.79454526863992214202880859375" lon="6.87205980531871318817138671875">
        <ele>480.20001220703125</ele>
        <time>2013-09-01T14:25:31.000Z</time>
        <extensions>
          <ns3:TrackPointExtension>
            <ns3:atemp>18.0</ns3:atemp>
          </ns3:TrackPointExtension>
        </extensions>
      </trkpt>
      <trkpt lat="46.79454711265861988067626953125" lon="6.87202694825828075408935546875">
        <ele>480.399993896484375</ele>
        <time>2013-09-01T14:25:32.000Z</time>
        <extensions>
          <ns3:TrackPointExtension>
            <ns3:atemp>18.0</ns3:atemp>
          </ns3:TrackPointExtension>
        </extensions>
      </trkpt>
      <trkpt lat="46.7945528961718082427978515625" lon="6.87199660576879978179931640625">
        <ele>480.600006103515625</ele>
        <time>2013-09-01T14:25:33.000Z</time>
        <extensions>
          <ns3:TrackPointExtension>
            <ns3:atemp>18.0</ns3:atemp>
          </ns3:TrackPointExtension>
        </extensions>
      </trkpt>
      <trkpt lat="46.79455717094242572784423828125" lon="6.871965341269969940185546875">
        <ele>480.600006103515625</ele>
        <time>2013-09-01T14:25:34.000Z</time>
        <extensions>
          <ns3:TrackPointExtension>
            <ns3:atemp>18.0</ns3:atemp>
          </ns3:TrackPointExtension>
        </extensions>
      </trkpt>
      <trkpt lat="46.79456211626529693603515625" lon="6.87193575315177440643310546875">
        <ele>480.79998779296875</ele>
        <time>2013-09-01T14:25:35.000Z</time>
        <extensions>
          <ns3:TrackPointExtension>
            <ns3:atemp>18.0</ns3:atemp>
          </ns3:TrackPointExtension>
        </extensions>
      </trkpt>
      <trkpt lat="46.7945636250078678131103515625" lon="6.87190205790102481842041015625">
        <ele>481</ele>
        <time>2013-09-01T14:25:36.000Z</time>
        <extensions>
          <ns3:TrackPointExtension>
            <ns3:atemp>18.0</ns3:atemp>
          </ns3:TrackPointExtension>
        </extensions>
      </trkpt>
      <trkpt lat="46.7945646308362483978271484375" lon="6.87186735682189464569091796875">
        <ele>481.399993896484375</ele>
        <time>2013-09-01T14:25:37.000Z</time>
        <extensions>
          <ns3:TrackPointExtension>
            <ns3:atemp>18.0</ns3:atemp>
          </ns3:TrackPointExtension>
        </extensions>
      </trkpt>
      <trkpt lat="46.7945659719407558441162109375" lon="6.87183625996112823486328125">
        <ele>481.79998779296875</ele>
        <time>2013-09-01T14:25:38.000Z</time>
        <extensions>
          <ns3:TrackPointExtension>
            <ns3:atemp>18.0</ns3:atemp>
          </ns3:TrackPointExtension>
        </extensions>
      </trkpt>
      <trkpt lat="46.794567145407199859619140625" lon="6.87180449254810810089111328125">
        <ele>482</ele>
        <time>2013-09-01T14:25:39.000Z</time>
        <extensions>
          <ns3:TrackPointExtension>
            <ns3:atemp>18.0</ns3:atemp>
          </ns3:TrackPointExtension>
        </extensions>
      </trkpt>
      <trkpt lat="46.7945703305304050445556640625" lon="6.87177297659218311309814453125">
        <ele>482.20001220703125</ele>
        <time>2013-09-01T14:25:40.000Z</time>
        <extensions>
          <ns3:TrackPointExtension>
            <ns3:atemp>18.0</ns3:atemp>
          </ns3:TrackPointExtension>
        </extensions>
      </trkpt>
      <trkpt lat="46.7945760302245616912841796875" lon="6.8717415444552898406982421875">
        <ele>482.20001220703125</ele>
        <time>2013-09-01T14:25:41.000Z</time>
        <extensions>
          <ns3:TrackPointExtension>
            <ns3:atemp>18.0</ns3:atemp>
          </ns3:TrackPointExtension>
        </extensions>
      </trkpt>
      <trkpt lat="46.79457477293908596038818359375" lon="6.87170541845262050628662109375">
        <ele>482.600006103515625</ele>
        <time>2013-09-01T14:25:42.000Z</time>
        <extensions>
          <ns3:TrackPointExtension>
            <ns3:atemp>18.0</ns3:atemp>
          </ns3:TrackPointExtension>
        </extensions>
      </trkpt>
      <trkpt lat="46.7945676483213901519775390625" lon="6.871671639382839202880859375">
        <ele>482.600006103515625</ele>
        <time>2013-09-01T14:25:43.000Z</time>
        <extensions>
          <ns3:TrackPointExtension>
            <ns3:atemp>18.0</ns3:atemp>
          </ns3:TrackPointExtension>
        </extensions>
      </trkpt>
      <trkpt lat="46.79456387646496295928955078125" lon="6.8716345913708209991455078125">
        <ele>483</ele>
        <time>2013-09-01T14:25:44.000Z</time>
        <extensions>
          <ns3:TrackPointExtension>
            <ns3:atemp>18.0</ns3:atemp>
          </ns3:TrackPointExtension>
        </extensions>
      </trkpt>
      <trkpt lat="46.79455968551337718963623046875" lon="6.8715970404446125030517578125">
        <ele>483.20001220703125</ele>
        <time>2013-09-01T14:25:45.000Z</time>
        <extensions>
          <ns3:TrackPointExtension>
            <ns3:atemp>18.0</ns3:atemp>
          </ns3:TrackPointExtension>
        </extensions>
      </trkpt>
      <trkpt lat="46.7945555783808231353759765625" lon="6.871563009917736053466796875">
        <ele>483.399993896484375</ele>
        <time>2013-09-01T14:25:46.000Z</time>
        <extensions>
          <ns3:TrackPointExtension>
            <ns3:atemp>18.0</ns3:atemp>
          </ns3:TrackPointExtension>
        </extensions>
      </trkpt>
      <trkpt lat="46.7945495434105396270751953125" lon="6.87152554281055927276611328125">
        <ele>483.79998779296875</ele>
        <time>2013-09-01T14:25:47.000Z</time>
        <extensions>
          <ns3:TrackPointExtension>
            <ns3:atemp>18.0</ns3:atemp>
          </ns3:TrackPointExtension>
        </extensions>
      </trkpt>
      <trkpt lat="46.7945421673357486724853515625" lon="6.871489919722080230712890625">
        <ele>484</ele>
        <time>2013-09-01T14:25:48.000Z</time>
        <extensions>
          <ns3:TrackPointExtension>
            <ns3:atemp>18.0</ns3:atemp>
          </ns3:TrackPointExtension>
        </extensions>
      </trkpt>
      <trkpt lat="46.7945388145744800567626953125" lon="6.87145111151039600372314453125">
        <ele>484.20001220703125</ele>
        <time>2013-09-01T14:25:49.000Z</time>
        <extensions>
          <ns3:TrackPointExtension>
            <ns3:atemp>18.0</ns3:atemp>
          </ns3:TrackPointExtension>
        </extensions>
      </trkpt>
      <trkpt lat="46.79453261196613311767578125" lon="6.8714166618883609771728515625">
        <ele>484.20001220703125</ele>
        <time>2013-09-01T14:25:50.000Z</time>
        <extensions>
          <ns3:TrackPointExtension>
            <ns3:atemp>18.0</ns3:atemp>
          </ns3:TrackPointExtension>
        </extensions>
      </trkpt>
      <trkpt lat="46.79452783428132534027099609375" lon="6.8713834695518016815185546875">
        <ele>484.399993896484375</ele>
        <time>2013-09-01T14:25:51.000Z</time>
        <extensions>
          <ns3:TrackPointExtension>
            <ns3:atemp>18.0</ns3:atemp>
          </ns3:TrackPointExtension>
        </extensions>
      </trkpt>
      <trkpt lat="46.794524230062961578369140625" lon="6.871355138719081878662109375">
        <ele>484.79998779296875</ele>
        <time>2013-09-01T14:25:52.000Z</time>
        <extensions>
          <ns3:TrackPointExtension>
            <ns3:atemp>18.0</ns3:atemp>
          </ns3:TrackPointExtension>
        </extensions>
      </trkpt>
      <trkpt lat="46.79452230222523212432861328125" lon="6.87132135964930057525634765625">
        <ele>485</ele>
        <time>2013-09-01T14:25:53.000Z</time>
        <extensions>
          <ns3:TrackPointExtension>
            <ns3:atemp>18.0</ns3:atemp>
          </ns3:TrackPointExtension>
        </extensions>
      </trkpt>
      <trkpt lat="46.79452045820653438568115234375" lon="6.8712862394750118255615234375">
        <ele>485.399993896484375</ele>
        <time>2013-09-01T14:25:54.000Z</time>
        <extensions>
          <ns3:TrackPointExtension>
            <ns3:atemp>18.0</ns3:atemp>
          </ns3:TrackPointExtension>
        </extensions>
      </trkpt>
      <trkpt lat="46.7945140041410923004150390625" lon="6.87125246040523052215576171875">
        <ele>485.79998779296875</ele>
        <time>2013-09-01T14:25:55.000Z</time>
        <extensions>
          <ns3:TrackPointExtension>
            <ns3:atemp>18.0</ns3:atemp>
          </ns3:TrackPointExtension>
        </extensions>
      </trkpt>
      <trkpt lat="46.79450872354209423065185546875" lon="6.8712208606302738189697265625">
        <ele>486</ele>
        <time>2013-09-01T14:25:56.000Z</time>
        <extensions>
          <ns3:TrackPointExtension>
            <ns3:atemp>18.0</ns3:atemp>
          </ns3:TrackPointExtension>
        </extensions>
      </trkpt>
      <trkpt lat="46.79450302384793758392333984375" lon="6.87118758447468280792236328125">
        <ele>486</ele>
        <time>2013-09-01T14:25:57.000Z</time>
        <extensions>
          <ns3:TrackPointExtension>
            <ns3:atemp>18.0</ns3:atemp>
          </ns3:TrackPointExtension>
        </extensions>
      </trkpt>
      <trkpt lat="46.79449631832540035247802734375" lon="6.87115095555782318115234375">
        <ele>486.20001220703125</ele>
        <time>2013-09-01T14:25:58.000Z</time>
        <extensions>
          <ns3:TrackPointExtension>
            <ns3:atemp>18.0</ns3:atemp>
          </ns3:TrackPointExtension>
        </extensions>
      </trkpt>
      <trkpt lat="46.794492043554782867431640625" lon="6.87112706713378429412841796875">
        <ele>486.399993896484375</ele>
        <time>2013-09-01T14:25:59.000Z</time>
        <extensions>
          <ns3:TrackPointExtension>
            <ns3:atemp>18.0</ns3:atemp>
          </ns3:TrackPointExtension>
        </extensions>
      </trkpt>
      <trkpt lat="46.79448902606964111328125" lon="6.87109504826366901397705078125">
        <ele>486.79998779296875</ele>
        <time>2013-09-01T14:26:00.000Z</time>
        <extensions>
          <ns3:TrackPointExtension>
            <ns3:atemp>18.0</ns3:atemp>
          </ns3:TrackPointExtension>
        </extensions>
      </trkpt>
      <trkpt lat="46.7944878526031970977783203125" lon="6.87106755562126636505126953125">
        <ele>487</ele>
        <time>2013-09-01T14:26:01.000Z</time>
        <extensions>
          <ns3:TrackPointExtension>
            <ns3:atemp>18.0</ns3:atemp>
          </ns3:TrackPointExtension>
        </extensions>
      </trkpt>
      <trkpt lat="46.7944888584315776824951171875" lon="6.87103939242660999298095703125">
        <ele>487.20001220703125</ele>
        <time>2013-09-01T14:26:02.000Z</time>
        <extensions>
          <ns3:TrackPointExtension>
            <ns3:atemp>18.0</ns3:atemp>
          </ns3:TrackPointExtension>
        </extensions>
      </trkpt>
      <trkpt lat="46.7944888584315776824951171875" lon="6.87100402079522609710693359375">
        <ele>487.399993896484375</ele>
        <time>2013-09-01T14:26:03.000Z</time>
        <extensions>
          <ns3:TrackPointExtension>
            <ns3:atemp>18.0</ns3:atemp>
          </ns3:TrackPointExtension>
        </extensions>
      </trkpt>
      <trkpt lat="46.7944876849651336669921875" lon="6.8709677271544933319091796875">
        <ele>487.79998779296875</ele>
        <time>2013-09-01T14:26:04.000Z</time>
        <extensions>
          <ns3:TrackPointExtension>
            <ns3:atemp>18.0</ns3:atemp>
          </ns3:TrackPointExtension>
        </extensions>
      </trkpt>
      <trkpt lat="46.79448357783257961273193359375" lon="6.87093746848404407501220703125">
        <ele>488</ele>
        <time>2013-09-01T14:26:05.000Z</time>
        <extensions>
          <ns3:TrackPointExtension>
            <ns3:atemp>18.0</ns3:atemp>
          </ns3:TrackPointExtension>
        </extensions>
      </trkpt>
      <trkpt lat="46.79447653703391551971435546875" lon="6.87090461142361164093017578125">
        <ele>488.20001220703125</ele>
        <time>2013-09-01T14:26:06.000Z</time>
        <extensions>
          <ns3:TrackPointExtension>
            <ns3:atemp>18.0</ns3:atemp>
          </ns3:TrackPointExtension>
        </extensions>
      </trkpt>
      <trkpt lat="46.7944717593491077423095703125" lon="6.8708725087344646453857421875">
        <ele>488.399993896484375</ele>
        <time>2013-09-01T14:26:07.000Z</time>
        <extensions>
          <ns3:TrackPointExtension>
            <ns3:atemp>18.0</ns3:atemp>
          </ns3:TrackPointExtension>
        </extensions>
      </trkpt>
      <trkpt lat="46.794466562569141387939453125" lon="6.87084518373012542724609375">
        <ele>488.600006103515625</ele>
        <time>2013-09-01T14:26:08.000Z</time>
        <extensions>
          <ns3:TrackPointExtension>
            <ns3:atemp>18.0</ns3:atemp>
          </ns3:TrackPointExtension>
        </extensions>
      </trkpt>
      <trkpt lat="46.79446144960820674896240234375" lon="6.87081559561192989349365234375">
        <ele>488.79998779296875</ele>
        <time>2013-09-01T14:26:09.000Z</time>
        <extensions>
          <ns3:TrackPointExtension>
            <ns3:atemp>18.0</ns3:atemp>
          </ns3:TrackPointExtension>
        </extensions>
      </trkpt>
      <trkpt lat="46.79445424117147922515869140625" lon="6.8707826547324657440185546875">
        <ele>489.20001220703125</ele>
        <time>2013-09-01T14:26:10.000Z</time>
        <extensions>
          <ns3:TrackPointExtension>
            <ns3:atemp>18.0</ns3:atemp>
          </ns3:TrackPointExtension>
        </extensions>
      </trkpt>
      <trkpt lat="46.79444518871605396270751953125" lon="6.8707538209855556488037109375">
        <ele>489.399993896484375</ele>
        <time>2013-09-01T14:26:11.000Z</time>
        <extensions>
          <ns3:TrackPointExtension>
            <ns3:atemp>18.0</ns3:atemp>
          </ns3:TrackPointExtension>
        </extensions>
      </trkpt>
      <trkpt lat="46.794437728822231292724609375" lon="6.87072624452412128448486328125">
        <ele>489.600006103515625</ele>
        <time>2013-09-01T14:26:12.000Z</time>
        <extensions>
          <ns3:TrackPointExtension>
            <ns3:atemp>18.0</ns3:atemp>
          </ns3:TrackPointExtension>
        </extensions>
      </trkpt>
      <trkpt lat="46.794424988329410552978515625" lon="6.87069925479590892791748046875">
        <ele>490</ele>
        <time>2013-09-01T14:26:13.000Z</time>
        <extensions>
          <ns3:TrackPointExtension>
            <ns3:atemp>18.0</ns3:atemp>
          </ns3:TrackPointExtension>
        </extensions>
      </trkpt>
      <trkpt lat="46.7944127507507801055908203125" lon="6.8706676550209522247314453125">
        <ele>490.20001220703125</ele>
        <time>2013-09-01T14:26:14.000Z</time>
        <extensions>
          <ns3:TrackPointExtension>
            <ns3:atemp>18.0</ns3:atemp>
          </ns3:TrackPointExtension>
        </extensions>
      </trkpt>
      <trkpt lat="46.7943969927728176116943359375" lon="6.87064141966402530670166015625">
        <ele>490.399993896484375</ele>
        <time>2013-09-01T14:26:15.000Z</time>
        <extensions>
          <ns3:TrackPointExtension>
            <ns3:atemp>18.0</ns3:atemp>
          </ns3:TrackPointExtension>
        </extensions>
      </trkpt>
      <trkpt lat="46.79438165389001369476318359375" lon="6.8706190399825572967529296875">
        <ele>490.79998779296875</ele>
        <time>2013-09-01T14:26:16.000Z</time>
        <extensions>
          <ns3:TrackPointExtension>
            <ns3:atemp>18.0</ns3:atemp>
          </ns3:TrackPointExtension>
        </extensions>
      </trkpt>
      <trkpt lat="46.7943634651601314544677734375" lon="6.870594061911106109619140625">
        <ele>491</ele>
        <time>2013-09-01T14:26:17.000Z</time>
        <extensions>
          <ns3:TrackPointExtension>
            <ns3:atemp>18.0</ns3:atemp>
          </ns3:TrackPointExtension>
        </extensions>
      </trkpt>
      <trkpt lat="46.79434075020253658294677734375" lon="6.87056229449808597564697265625">
        <ele>491.20001220703125</ele>
        <time>2013-09-01T14:26:18.000Z</time>
        <extensions>
          <ns3:TrackPointExtension>
            <ns3:atemp>18.0</ns3:atemp>
          </ns3:TrackPointExtension>
        </extensions>
      </trkpt>
      <trkpt lat="46.79431443102657794952392578125" lon="6.87053396366536617279052734375">
        <ele>491.600006103515625</ele>
        <time>2013-09-01T14:26:19.000Z</time>
        <extensions>
          <ns3:TrackPointExtension>
            <ns3:atemp>18.0</ns3:atemp>
          </ns3:TrackPointExtension>
        </extensions>
      </trkpt>
      <trkpt lat="46.7942903749644756317138671875" lon="6.87051032669842243194580078125">
        <ele>491.600006103515625</ele>
        <time>2013-09-01T14:26:20.000Z</time>
        <extensions>
          <ns3:TrackPointExtension>
            <ns3:atemp>18.0</ns3:atemp>
          </ns3:TrackPointExtension>
        </extensions>
      </trkpt>
      <trkpt lat="46.79426196031272411346435546875" lon="6.8704862706363201141357421875">
        <ele>491.79998779296875</ele>
        <time>2013-09-01T14:26:21.000Z</time>
        <extensions>
          <ns3:TrackPointExtension>
            <ns3:atemp>18.0</ns3:atemp>
          </ns3:TrackPointExtension>
        </extensions>
      </trkpt>
      <trkpt lat="46.7942494712769985198974609375" lon="6.87045785598456859588623046875">
        <ele>492</ele>
        <time>2013-09-01T14:26:22.000Z</time>
        <extensions>
          <ns3:TrackPointExtension>
            <ns3:atemp>18.0</ns3:atemp>
          </ns3:TrackPointExtension>
        </extensions>
      </trkpt>
      <trkpt lat="46.79423128254711627960205078125" lon="6.870431788265705108642578125">
        <ele>492</ele>
        <time>2013-09-01T14:26:23.000Z</time>
        <extensions>
          <ns3:TrackPointExtension>
            <ns3:atemp>18.0</ns3:atemp>
          </ns3:TrackPointExtension>
        </extensions>
      </trkpt>
      <trkpt lat="46.794211752712726593017578125" lon="6.87040840275585651397705078125">
        <ele>492.20001220703125</ele>
        <time>2013-09-01T14:26:24.000Z</time>
        <extensions>
          <ns3:TrackPointExtension>
            <ns3:atemp>18.0</ns3:atemp>
          </ns3:TrackPointExtension>
        </extensions>
      </trkpt>
      <trkpt lat="46.7941891215741634368896484375" lon="6.8703856877982616424560546875">
        <ele>492.399993896484375</ele>
        <time>2013-09-01T14:26:25.000Z</time>
        <extensions>
          <ns3:TrackPointExtension>
            <ns3:atemp>18.0</ns3:atemp>
          </ns3:TrackPointExtension>
        </extensions>
      </trkpt>
      <trkpt lat="46.79416523315012454986572265625" lon="6.87036297284066677093505859375">
        <ele>492.399993896484375</ele>
        <time>2013-09-01T14:26:26.000Z</time>
        <extensions>
          <ns3:TrackPointExtension>
            <ns3:atemp>18.0</ns3:atemp>
          </ns3:TrackPointExtension>
        </extensions>
      </trkpt>
      <trkpt lat="46.79413489066064357757568359375" lon="6.87034201808273792266845703125">
        <ele>492.399993896484375</ele>
        <time>2013-09-01T14:26:27.000Z</time>
        <extensions>
          <ns3:TrackPointExtension>
            <ns3:atemp>18.0</ns3:atemp>
          </ns3:TrackPointExtension>
        </extensions>
      </trkpt>
      <trkpt lat="46.794104464352130889892578125" lon="6.8703203089535236358642578125">
        <ele>492.600006103515625</ele>
        <time>2013-09-01T14:26:28.000Z</time>
        <extensions>
          <ns3:TrackPointExtension>
            <ns3:atemp>18.0</ns3:atemp>
          </ns3:TrackPointExtension>
        </extensions>
      </trkpt>
      <trkpt lat="46.7940737865865230560302734375" lon="6.870301701128482818603515625">
        <ele>492.600006103515625</ele>
        <time>2013-09-01T14:26:29.000Z</time>
        <extensions>
          <ns3:TrackPointExtension>
            <ns3:atemp>18.0</ns3:atemp>
          </ns3:TrackPointExtension>
        </extensions>
      </trkpt>
      <trkpt lat="46.79403682239353656768798828125" lon="6.87028116546571254730224609375">
        <ele>492.600006103515625</ele>
        <time>2013-09-01T14:26:30.000Z</time>
        <extensions>
          <ns3:TrackPointExtension>
            <ns3:atemp>18.0</ns3:atemp>
          </ns3:TrackPointExtension>
        </extensions>
      </trkpt>
      <trkpt lat="46.7939973436295986175537109375" lon="6.8702638149261474609375">
        <ele>492.600006103515625</ele>
        <time>2013-09-01T14:26:31.000Z</time>
        <extensions>
          <ns3:TrackPointExtension>
            <ns3:atemp>18.0</ns3:atemp>
          </ns3:TrackPointExtension>
        </extensions>
      </trkpt>
      <trkpt lat="46.793958283960819244384765625" lon="6.87024445272982120513916015625">
        <ele>492.79998779296875</ele>
        <time>2013-09-01T14:26:32.000Z</time>
        <extensions>
          <ns3:TrackPointExtension>
            <ns3:atemp>18.0</ns3:atemp>
          </ns3:TrackPointExtension>
        </extensions>
      </trkpt>
      <trkpt lat="46.79392836056649684906005859375" lon="6.870223917067050933837890625">
        <ele>492.79998779296875</ele>
        <time>2013-09-01T14:26:33.000Z</time>
        <extensions>
          <ns3:TrackPointExtension>
            <ns3:atemp>18.0</ns3:atemp>
          </ns3:TrackPointExtension>
        </extensions>
      </trkpt>
      <trkpt lat="46.79390153847634792327880859375" lon="6.8702053092420101165771484375">
        <ele>493</ele>
        <time>2013-09-01T14:26:34.000Z</time>
        <extensions>
          <ns3:TrackPointExtension>
            <ns3:atemp>18.0</ns3:atemp>
          </ns3:TrackPointExtension>
        </extensions>
      </trkpt>
      <trkpt lat="46.7938672564923763275146484375" lon="6.870183013379573822021484375">
        <ele>493</ele>
        <time>2013-09-01T14:26:35.000Z</time>
        <extensions>
          <ns3:TrackPointExtension>
            <ns3:atemp>18.0</ns3:atemp>
          </ns3:TrackPointExtension>
        </extensions>
      </trkpt>
      <trkpt lat="46.79382358677685260772705078125" lon="6.870159208774566650390625">
        <ele>493.20001220703125</ele>
        <time>2013-09-01T14:26:36.000Z</time>
        <extensions>
          <ns3:TrackPointExtension>
            <ns3:atemp>18.0</ns3:atemp>
          </ns3:TrackPointExtension>
        </extensions>
      </trkpt>
      <trkpt lat="46.79378251545131206512451171875" lon="6.870135404169559478759765625">
        <ele>493.20001220703125</ele>
        <time>2013-09-01T14:26:37.000Z</time>
        <extensions>
          <ns3:TrackPointExtension>
            <ns3:atemp>18.0</ns3:atemp>
          </ns3:TrackPointExtension>
        </extensions>
      </trkpt>
      <trkpt lat="46.79373926483094692230224609375" lon="6.87011252157390117645263671875">
        <ele>493.20001220703125</ele>
        <time>2013-09-01T14:26:38.000Z</time>
        <extensions>
          <ns3:TrackPointExtension>
            <ns3:atemp>18.0</ns3:atemp>
          </ns3:TrackPointExtension>
        </extensions>
      </trkpt>
      <trkpt lat="46.79368746466934680938720703125" lon="6.87008184380829334259033203125">
        <ele>493.20001220703125</ele>
        <time>2013-09-01T14:26:39.000Z</time>
        <extensions>
          <ns3:TrackPointExtension>
            <ns3:atemp>18.0</ns3:atemp>
          </ns3:TrackPointExtension>
        </extensions>
      </trkpt>
      <trkpt lat="46.7936325632035732269287109375" lon="6.870048232376575469970703125">
        <ele>493.20001220703125</ele>
        <time>2013-09-01T14:26:40.000Z</time>
        <extensions>
          <ns3:TrackPointExtension>
            <ns3:atemp>18.0</ns3:atemp>
          </ns3:TrackPointExtension>
        </extensions>
      </trkpt>
      <trkpt lat="46.793579757213592529296875" lon="6.8700185604393482208251953125">
        <ele>493.20001220703125</ele>
        <time>2013-09-01T14:26:41.000Z</time>
        <extensions>
          <ns3:TrackPointExtension>
            <ns3:atemp>18.0</ns3:atemp>
          </ns3:TrackPointExtension>
        </extensions>
      </trkpt>
      <trkpt lat="46.79352519102394580841064453125" lon="6.869973801076412200927734375">
        <ele>493.20001220703125</ele>
        <time>2013-09-01T14:26:42.000Z</time>
        <extensions>
          <ns3:TrackPointExtension>
            <ns3:atemp>18.0</ns3:atemp>
          </ns3:TrackPointExtension>
        </extensions>
      </trkpt>
      <trkpt lat="46.7934800125658512115478515625" lon="6.8699310533702373504638671875">
        <ele>493.399993896484375</ele>
        <time>2013-09-01T14:26:43.000Z</time>
        <extensions>
          <ns3:TrackPointExtension>
            <ns3:atemp>18.0</ns3:atemp>
          </ns3:TrackPointExtension>
        </extensions>
      </trkpt>
      <trkpt lat="46.79343382827937602996826171875" lon="6.86988486908376216888427734375">
        <ele>493.399993896484375</ele>
        <time>2013-09-01T14:26:44.000Z</time>
        <extensions>
          <ns3:TrackPointExtension>
            <ns3:atemp>18.0</ns3:atemp>
          </ns3:TrackPointExtension>
        </extensions>
      </trkpt>
      <trkpt lat="46.7933891527354717254638671875" lon="6.869834996759891510009765625">
        <ele>493.399993896484375</ele>
        <time>2013-09-01T14:26:45.000Z</time>
        <extensions>
          <ns3:TrackPointExtension>
            <ns3:atemp>18.0</ns3:atemp>
          </ns3:TrackPointExtension>
        </extensions>
      </trkpt>
      <trkpt lat="46.79334967397153377532958984375" lon="6.8697935901582241058349609375">
        <ele>493.600006103515625</ele>
        <time>2013-09-01T14:26:46.000Z</time>
        <extensions>
          <ns3:TrackPointExtension>
            <ns3:atemp>18.0</ns3:atemp>
          </ns3:TrackPointExtension>
        </extensions>
      </trkpt>
      <trkpt lat="46.79331061430275440216064453125" lon="6.86975629068911075592041015625">
        <ele>493.79998779296875</ele>
        <time>2013-09-01T14:26:47.000Z</time>
        <extensions>
          <ns3:TrackPointExtension>
            <ns3:atemp>18.0</ns3:atemp>
          </ns3:TrackPointExtension>
        </extensions>
      </trkpt>
      <trkpt lat="46.79327197372913360595703125" lon="6.869715638458728790283203125">
        <ele>493.79998779296875</ele>
        <time>2013-09-01T14:26:48.000Z</time>
        <extensions>
          <ns3:TrackPointExtension>
            <ns3:atemp>18.0</ns3:atemp>
          </ns3:TrackPointExtension>
        </extensions>
      </trkpt>
      <trkpt lat="46.79323048330843448638916015625" lon="6.8696792609989643096923828125">
        <ele>493.79998779296875</ele>
        <time>2013-09-01T14:26:49.000Z</time>
        <extensions>
          <ns3:TrackPointExtension>
            <ns3:atemp>18.0</ns3:atemp>
          </ns3:TrackPointExtension>
        </extensions>
      </trkpt>
      <trkpt lat="46.793190501630306243896484375" lon="6.86964162625372409820556640625">
        <ele>494</ele>
        <time>2013-09-01T14:26:50.000Z</time>
        <extensions>
          <ns3:TrackPointExtension>
            <ns3:atemp>18.0</ns3:atemp>
          </ns3:TrackPointExtension>
        </extensions>
      </trkpt>
      <trkpt lat="46.793152950704097747802734375" lon="6.8696018122136592864990234375">
        <ele>494.20001220703125</ele>
        <time>2013-09-01T14:26:51.000Z</time>
        <extensions>
          <ns3:TrackPointExtension>
            <ns3:atemp>18.0</ns3:atemp>
          </ns3:TrackPointExtension>
        </extensions>
      </trkpt>
      <trkpt lat="46.79311632178723812103271484375" lon="6.86956250108778476715087890625">
        <ele>494.20001220703125</ele>
        <time>2013-09-01T14:26:52.000Z</time>
        <extensions>
          <ns3:TrackPointExtension>
            <ns3:atemp>18.0</ns3:atemp>
          </ns3:TrackPointExtension>
        </extensions>
      </trkpt>
      <trkpt lat="46.7930796928703784942626953125" lon="6.8695246987044811248779296875">
        <ele>494.399993896484375</ele>
        <time>2013-09-01T14:26:53.000Z</time>
        <extensions>
          <ns3:TrackPointExtension>
            <ns3:atemp>18.0</ns3:atemp>
          </ns3:TrackPointExtension>
        </extensions>
      </trkpt>
      <trkpt lat="46.79304490797221660614013671875" lon="6.86949008144438266754150390625">
        <ele>494.399993896484375</ele>
        <time>2013-09-01T14:26:54.000Z</time>
        <extensions>
          <ns3:TrackPointExtension>
            <ns3:atemp>18.0</ns3:atemp>
          </ns3:TrackPointExtension>
        </extensions>
      </trkpt>
      <trkpt lat="46.79301339201629161834716796875" lon="6.8694536201655864715576171875">
        <ele>494.600006103515625</ele>
        <time>2013-09-01T14:26:55.000Z</time>
        <extensions>
          <ns3:TrackPointExtension>
            <ns3:atemp>18.0</ns3:atemp>
          </ns3:TrackPointExtension>
        </extensions>
      </trkpt>
      <trkpt lat="46.792981959879398345947265625" lon="6.86941866762936115264892578125">
        <ele>494.79998779296875</ele>
        <time>2013-09-01T14:26:56.000Z</time>
        <extensions>
          <ns3:TrackPointExtension>
            <ns3:atemp>18.0</ns3:atemp>
          </ns3:TrackPointExtension>
        </extensions>
      </trkpt>
      <trkpt lat="46.79295153357088565826416015625" lon="6.86939570121467113494873046875">
        <ele>495</ele>
        <time>2013-09-01T14:26:57.000Z</time>
        <extensions>
          <ns3:TrackPointExtension>
            <ns3:atemp>18.0</ns3:atemp>
          </ns3:TrackPointExtension>
        </extensions>
      </trkpt>
      <trkpt lat="46.79292521439492702484130859375" lon="6.86936192214488983154296875">
        <ele>495.20001220703125</ele>
        <time>2013-09-01T14:26:58.000Z</time>
        <extensions>
          <ns3:TrackPointExtension>
            <ns3:atemp>18.0</ns3:atemp>
          </ns3:TrackPointExtension>
        </extensions>
      </trkpt>
      <trkpt lat="46.7928993143141269683837890625" lon="6.86932847835123538970947265625">
        <ele>495.399993896484375</ele>
        <time>2013-09-01T14:26:59.000Z</time>
        <extensions>
          <ns3:TrackPointExtension>
            <ns3:atemp>18.0</ns3:atemp>
          </ns3:TrackPointExtension>
        </extensions>
      </trkpt>
      <trkpt lat="46.79287257604300975799560546875" lon="6.869298554956912994384765625">
        <ele>495.399993896484375</ele>
        <time>2013-09-01T14:27:00.000Z</time>
        <extensions>
          <ns3:TrackPointExtension>
            <ns3:atemp>18.0</ns3:atemp>
          </ns3:TrackPointExtension>
        </extensions>
      </trkpt>
      <trkpt lat="46.7928470112383365631103515625" lon="6.869263350963592529296875">
        <ele>495.600006103515625</ele>
        <time>2013-09-01T14:27:01.000Z</time>
        <extensions>
          <ns3:TrackPointExtension>
            <ns3:atemp>18.0</ns3:atemp>
          </ns3:TrackPointExtension>
        </extensions>
      </trkpt>
      <trkpt lat="46.7928228713572025299072265625" lon="6.86922621913254261016845703125">
        <ele>495.79998779296875</ele>
        <time>2013-09-01T14:27:02.000Z</time>
        <extensions>
          <ns3:TrackPointExtension>
            <ns3:atemp>18.0</ns3:atemp>
          </ns3:TrackPointExtension>
        </extensions>
      </trkpt>
      <trkpt lat="46.79280032403767108917236328125" lon="6.869191266596317291259765625">
        <ele>496</ele>
        <time>2013-09-01T14:27:03.000Z</time>
        <extensions>
          <ns3:TrackPointExtension>
            <ns3:atemp>18.0</ns3:atemp>
          </ns3:TrackPointExtension>
        </extensions>
      </trkpt>
      <trkpt lat="46.7927729152143001556396484375" lon="6.86915405094623565673828125">
        <ele>496.600006103515625</ele>
        <time>2013-09-01T14:27:04.000Z</time>
        <extensions>
          <ns3:TrackPointExtension>
            <ns3:atemp>18.0</ns3:atemp>
          </ns3:TrackPointExtension>
        </extensions>
      </trkpt>
      <trkpt lat="46.79274684749543666839599609375" lon="6.8691170029342174530029296875">
        <ele>496.79998779296875</ele>
        <time>2013-09-01T14:27:05.000Z</time>
        <extensions>
          <ns3:TrackPointExtension>
            <ns3:atemp>18.0</ns3:atemp>
          </ns3:TrackPointExtension>
        </extensions>
      </trkpt>
      <trkpt lat="46.79272086359560489654541015625" lon="6.869078613817691802978515625">
        <ele>497</ele>
        <time>2013-09-01T14:27:06.000Z</time>
        <extensions>
          <ns3:TrackPointExtension>
            <ns3:atemp>18.0</ns3:atemp>
          </ns3:TrackPointExtension>
        </extensions>
      </trkpt>
      <trkpt lat="46.79269638843834400177001953125" lon="6.8690388835966587066650390625">
        <ele>497</ele>
        <time>2013-09-01T14:27:07.000Z</time>
        <extensions>
          <ns3:TrackPointExtension>
            <ns3:atemp>18.0</ns3:atemp>
          </ns3:TrackPointExtension>
        </extensions>
      </trkpt>
      <trkpt lat="46.7926706559956073760986328125" lon="6.8690023384988307952880859375">
        <ele>497.20001220703125</ele>
        <time>2013-09-01T14:27:08.000Z</time>
        <extensions>
          <ns3:TrackPointExtension>
            <ns3:atemp>18.0</ns3:atemp>
          </ns3:TrackPointExtension>
        </extensions>
      </trkpt>
      <trkpt lat="46.7926455102860927581787109375" lon="6.86896688304841518402099609375">
        <ele>497.399993896484375</ele>
        <time>2013-09-01T14:27:09.000Z</time>
        <extensions>
          <ns3:TrackPointExtension>
            <ns3:atemp>18.0</ns3:atemp>
          </ns3:TrackPointExtension>
        </extensions>
      </trkpt>
      <trkpt lat="46.792619861662387847900390625" lon="6.86893184669315814971923828125">
        <ele>497.79998779296875</ele>
        <time>2013-09-01T14:27:10.000Z</time>
        <extensions>
          <ns3:TrackPointExtension>
            <ns3:atemp>18.0</ns3:atemp>
          </ns3:TrackPointExtension>
        </extensions>
      </trkpt>
      <trkpt lat="46.7925940454006195068359375" lon="6.86889848671853542327880859375">
        <ele>498</ele>
        <time>2013-09-01T14:27:11.000Z</time>
        <extensions>
          <ns3:TrackPointExtension>
            <ns3:atemp>18.0</ns3:atemp>
          </ns3:TrackPointExtension>
        </extensions>
      </trkpt>
      <trkpt lat="46.79256789386272430419921875" lon="6.86886261217296123504638671875">
        <ele>498.20001220703125</ele>
        <time>2013-09-01T14:27:12.000Z</time>
        <extensions>
          <ns3:TrackPointExtension>
            <ns3:atemp>18.0</ns3:atemp>
          </ns3:TrackPointExtension>
        </extensions>
      </trkpt>
      <trkpt lat="46.792541407048702239990234375" lon="6.86882656998932361602783203125">
        <ele>498.399993896484375</ele>
        <time>2013-09-01T14:27:13.000Z</time>
        <extensions>
          <ns3:TrackPointExtension>
            <ns3:atemp>18.0</ns3:atemp>
          </ns3:TrackPointExtension>
        </extensions>
      </trkpt>
      <trkpt lat="46.79251550696790218353271484375" lon="6.86879203654825687408447265625">
        <ele>498.600006103515625</ele>
        <time>2013-09-01T14:27:14.000Z</time>
        <extensions>
          <ns3:TrackPointExtension>
            <ns3:atemp>18.0</ns3:atemp>
          </ns3:TrackPointExtension>
        </extensions>
      </trkpt>
      <trkpt lat="46.79248717613518238067626953125" lon="6.86876052059233188629150390625">
        <ele>498.79998779296875</ele>
        <time>2013-09-01T14:27:15.000Z</time>
        <extensions>
          <ns3:TrackPointExtension>
            <ns3:atemp>18.0</ns3:atemp>
          </ns3:TrackPointExtension>
        </extensions>
      </trkpt>
      <trkpt lat="46.79245901294052600860595703125" lon="6.86872950755059719085693359375">
        <ele>499</ele>
        <time>2013-09-01T14:27:16.000Z</time>
        <extensions>
          <ns3:TrackPointExtension>
            <ns3:atemp>18.0</ns3:atemp>
          </ns3:TrackPointExtension>
        </extensions>
      </trkpt>
      <trkpt lat="46.79243101738393306732177734375" lon="6.86869882978498935699462890625">
        <ele>499.20001220703125</ele>
        <time>2013-09-01T14:27:17.000Z</time>
        <extensions>
          <ns3:TrackPointExtension>
            <ns3:atemp>18.0</ns3:atemp>
          </ns3:TrackPointExtension>
        </extensions>
      </trkpt>
      <trkpt lat="46.79240603931248188018798828125" lon="6.86867083422839641571044921875">
        <ele>499.399993896484375</ele>
        <time>2013-09-01T14:27:18.000Z</time>
        <extensions>
          <ns3:TrackPointExtension>
            <ns3:atemp>18.0</ns3:atemp>
          </ns3:TrackPointExtension>
        </extensions>
      </trkpt>
      <trkpt lat="46.7923767864704132080078125" lon="6.86865105293691158294677734375">
        <ele>499.79998779296875</ele>
        <time>2013-09-01T14:27:19.000Z</time>
        <extensions>
          <ns3:TrackPointExtension>
            <ns3:atemp>18.0</ns3:atemp>
          </ns3:TrackPointExtension>
        </extensions>
      </trkpt>
      <trkpt lat="46.7923491261899471282958984375" lon="6.868627332150936126708984375">
        <ele>500</ele>
        <time>2013-09-01T14:27:20.000Z</time>
        <extensions>
          <ns3:TrackPointExtension>
            <ns3:atemp>18.0</ns3:atemp>
          </ns3:TrackPointExtension>
        </extensions>
      </trkpt>
      <trkpt lat="46.79232507012784481048583984375" lon="6.8686008453369140625">
        <ele>500.20001220703125</ele>
        <time>2013-09-01T14:27:21.000Z</time>
        <extensions>
          <ns3:TrackPointExtension>
            <ns3:atemp>18.0</ns3:atemp>
          </ns3:TrackPointExtension>
        </extensions>
      </trkpt>
      <trkpt lat="46.7922991700470447540283203125" lon="6.86857377178966999053955078125">
        <ele>500.399993896484375</ele>
        <time>2013-09-01T14:27:22.000Z</time>
        <extensions>
          <ns3:TrackPointExtension>
            <ns3:atemp>18.0</ns3:atemp>
          </ns3:TrackPointExtension>
        </extensions>
      </trkpt>
      <trkpt lat="46.7922767065465450286865234375" lon="6.868543513119220733642578125">
        <ele>500.600006103515625</ele>
        <time>2013-09-01T14:27:23.000Z</time>
        <extensions>
          <ns3:TrackPointExtension>
            <ns3:atemp>18.0</ns3:atemp>
          </ns3:TrackPointExtension>
        </extensions>
      </trkpt>
      <trkpt lat="46.79225265048444271087646484375" lon="6.868515349924564361572265625">
        <ele>500.79998779296875</ele>
        <time>2013-09-01T14:27:24.000Z</time>
        <extensions>
          <ns3:TrackPointExtension>
            <ns3:atemp>18.0</ns3:atemp>
          </ns3:TrackPointExtension>
        </extensions>
      </trkpt>
      <trkpt lat="46.79222901351749897003173828125" lon="6.86848609708249568939208984375">
        <ele>501</ele>
        <time>2013-09-01T14:27:25.000Z</time>
        <extensions>
          <ns3:TrackPointExtension>
            <ns3:atemp>18.0</ns3:atemp>
          </ns3:TrackPointExtension>
        </extensions>
      </trkpt>
      <trkpt lat="46.7922059632837772369384765625" lon="6.86845726333558559417724609375">
        <ele>501.399993896484375</ele>
        <time>2013-09-01T14:27:26.000Z</time>
        <extensions>
          <ns3:TrackPointExtension>
            <ns3:atemp>18.0</ns3:atemp>
          </ns3:TrackPointExtension>
        </extensions>
      </trkpt>
      <trkpt lat="46.792184002697467803955078125" lon="6.86842591501772403717041015625">
        <ele>501.79998779296875</ele>
        <time>2013-09-01T14:27:27.000Z</time>
        <extensions>
          <ns3:TrackPointExtension>
            <ns3:atemp>18.0</ns3:atemp>
          </ns3:TrackPointExtension>
        </extensions>
      </trkpt>
      <trkpt lat="46.792163550853729248046875" lon="6.86839456669986248016357421875">
        <ele>502.399993896484375</ele>
        <time>2013-09-01T14:27:28.000Z</time>
        <extensions>
          <ns3:TrackPointExtension>
            <ns3:atemp>18.0</ns3:atemp>
          </ns3:TrackPointExtension>
        </extensions>
      </trkpt>
      <trkpt lat="46.79214167408645153045654296875" lon="6.868361122906208038330078125">
        <ele>502.399993896484375</ele>
        <time>2013-09-01T14:27:29.000Z</time>
        <extensions>
          <ns3:TrackPointExtension>
            <ns3:atemp>18.0</ns3:atemp>
          </ns3:TrackPointExtension>
        </extensions>
      </trkpt>
      <trkpt lat="46.79211988113820552825927734375" lon="6.8683304451406002044677734375">
        <ele>502.600006103515625</ele>
        <time>2013-09-01T14:27:30.000Z</time>
        <extensions>
          <ns3:TrackPointExtension>
            <ns3:atemp>18.0</ns3:atemp>
          </ns3:TrackPointExtension>
        </extensions>
      </trkpt>
      <trkpt lat="46.79209716618061065673828125" lon="6.86829582788050174713134765625">
        <ele>502.79998779296875</ele>
        <time>2013-09-01T14:27:31.000Z</time>
        <extensions>
          <ns3:TrackPointExtension>
            <ns3:atemp>18.0</ns3:atemp>
          </ns3:TrackPointExtension>
        </extensions>
      </trkpt>
      <trkpt lat="46.79207830689847469329833984375" lon="6.86826213262975215911865234375">
        <ele>503.20001220703125</ele>
        <time>2013-09-01T14:27:32.000Z</time>
        <extensions>
          <ns3:TrackPointExtension>
            <ns3:atemp>18.0</ns3:atemp>
          </ns3:TrackPointExtension>
        </extensions>
      </trkpt>
      <trkpt lat="46.79205936379730701446533203125" lon="6.8682315386831760406494140625">
        <ele>503.600006103515625</ele>
        <time>2013-09-01T14:27:33.000Z</time>
        <extensions>
          <ns3:TrackPointExtension>
            <ns3:atemp>18.0</ns3:atemp>
          </ns3:TrackPointExtension>
        </extensions>
      </trkpt>
      <trkpt lat="46.79203958250582218170166015625" lon="6.8682013638317584991455078125">
        <ele>503.600006103515625</ele>
        <time>2013-09-01T14:27:34.000Z</time>
        <extensions>
          <ns3:TrackPointExtension>
            <ns3:atemp>18.0</ns3:atemp>
          </ns3:TrackPointExtension>
        </extensions>
      </trkpt>
      <trkpt lat="46.79202097468078136444091796875" lon="6.86816775240004062652587890625">
        <ele>503.79998779296875</ele>
        <time>2013-09-01T14:27:35.000Z</time>
        <extensions>
          <ns3:TrackPointExtension>
            <ns3:atemp>18.0</ns3:atemp>
          </ns3:TrackPointExtension>
        </extensions>
      </trkpt>
      <trkpt lat="46.79200169630348682403564453125" lon="6.86813556589186191558837890625">
        <ele>504.20001220703125</ele>
        <time>2013-09-01T14:27:36.000Z</time>
        <extensions>
          <ns3:TrackPointExtension>
            <ns3:atemp>18.0</ns3:atemp>
          </ns3:TrackPointExtension>
        </extensions>
      </trkpt>
      <trkpt lat="46.791979484260082244873046875" lon="6.86810555867850780487060546875">
        <ele>504.399993896484375</ele>
        <time>2013-09-01T14:27:37.000Z</time>
        <extensions>
          <ns3:TrackPointExtension>
            <ns3:atemp>18.0</ns3:atemp>
          </ns3:TrackPointExtension>
        </extensions>
      </trkpt>
      <trkpt lat="46.7919556796550750732421875" lon="6.868074797093868255615234375">
        <ele>504.600006103515625</ele>
        <time>2013-09-01T14:27:38.000Z</time>
        <extensions>
          <ns3:TrackPointExtension>
            <ns3:atemp>18.0</ns3:atemp>
          </ns3:TrackPointExtension>
        </extensions>
      </trkpt>
      <trkpt lat="46.79192877374589443206787109375" lon="6.868046633899211883544921875">
        <ele>504.600006103515625</ele>
        <time>2013-09-01T14:27:39.000Z</time>
        <extensions>
          <ns3:TrackPointExtension>
            <ns3:atemp>18.0</ns3:atemp>
          </ns3:TrackPointExtension>
        </extensions>
      </trkpt>
      <trkpt lat="46.7919055558741092681884765625" lon="6.86801813542842864990234375">
        <ele>504.79998779296875</ele>
        <time>2013-09-01T14:27:40.000Z</time>
        <extensions>
          <ns3:TrackPointExtension>
            <ns3:atemp>18.0</ns3:atemp>
          </ns3:TrackPointExtension>
        </extensions>
      </trkpt>
      <trkpt lat="46.79187864996492862701416015625" lon="6.8679934926331043243408203125">
        <ele>504.79998779296875</ele>
        <time>2013-09-01T14:27:41.000Z</time>
        <extensions>
          <ns3:TrackPointExtension>
            <ns3:atemp>18.0</ns3:atemp>
          </ns3:TrackPointExtension>
        </extensions>
      </trkpt>
      <trkpt lat="46.7918537557125091552734375" lon="6.86796826310455799102783203125">
        <ele>505.20001220703125</ele>
        <time>2013-09-01T14:27:42.000Z</time>
        <extensions>
          <ns3:TrackPointExtension>
            <ns3:atemp>18.0</ns3:atemp>
          </ns3:TrackPointExtension>
        </extensions>
      </trkpt>
      <trkpt lat="46.79182634688913822174072265625" lon="6.86794026754796504974365234375">
        <ele>505.20001220703125</ele>
        <time>2013-09-01T14:27:43.000Z</time>
        <extensions>
          <ns3:TrackPointExtension>
            <ns3:atemp>18.0</ns3:atemp>
          </ns3:TrackPointExtension>
        </extensions>
      </trkpt>
      <trkpt lat="46.791802458465099334716796875" lon="6.86791126616299152374267578125">
        <ele>505.600006103515625</ele>
        <time>2013-09-01T14:27:44.000Z</time>
        <extensions>
          <ns3:TrackPointExtension>
            <ns3:atemp>18.0</ns3:atemp>
          </ns3:TrackPointExtension>
        </extensions>
      </trkpt>
      <trkpt lat="46.79177739657461643218994140625" lon="6.86788402497768402099609375">
        <ele>505.79998779296875</ele>
        <time>2013-09-01T14:27:45.000Z</time>
        <extensions>
          <ns3:TrackPointExtension>
            <ns3:atemp>18.0</ns3:atemp>
          </ns3:TrackPointExtension>
        </extensions>
      </trkpt>
      <trkpt lat="46.7917499877512454986572265625" lon="6.86785711906850337982177734375">
        <ele>505.79998779296875</ele>
        <time>2013-09-01T14:27:46.000Z</time>
        <extensions>
          <ns3:TrackPointExtension>
            <ns3:atemp>18.0</ns3:atemp>
          </ns3:TrackPointExtension>
        </extensions>
      </trkpt>
      <trkpt lat="46.79172425530850887298583984375" lon="6.86783264391124248504638671875">
        <ele>505.79998779296875</ele>
        <time>2013-09-01T14:27:47.000Z</time>
        <extensions>
          <ns3:TrackPointExtension>
            <ns3:atemp>18.0</ns3:atemp>
          </ns3:TrackPointExtension>
        </extensions>
      </trkpt>
      <trkpt lat="46.79169642738997936248779296875" lon="6.8678070791065692901611328125">
        <ele>505.79998779296875</ele>
        <time>2013-09-01T14:27:48.000Z</time>
        <extensions>
          <ns3:TrackPointExtension>
            <ns3:atemp>18.0</ns3:atemp>
          </ns3:TrackPointExtension>
        </extensions>
      </trkpt>
      <trkpt lat="46.7916722036898136138916015625" lon="6.86778612434864044189453125">
        <ele>506.20001220703125</ele>
        <time>2013-09-01T14:27:49.000Z</time>
        <extensions>
          <ns3:TrackPointExtension>
            <ns3:atemp>18.0</ns3:atemp>
          </ns3:TrackPointExtension>
        </extensions>
      </trkpt>
      <trkpt lat="46.791644208133220672607421875" lon="6.8677675165235996246337890625">
        <ele>506.600006103515625</ele>
        <time>2013-09-01T14:27:50.000Z</time>
        <extensions>
          <ns3:TrackPointExtension>
            <ns3:atemp>18.0</ns3:atemp>
          </ns3:TrackPointExtension>
        </extensions>
      </trkpt>
      <trkpt lat="46.79161696694791316986083984375" lon="6.86774010770022869110107421875">
        <ele>506.600006103515625</ele>
        <time>2013-09-01T14:27:51.000Z</time>
        <extensions>
          <ns3:TrackPointExtension>
            <ns3:atemp>18.0</ns3:atemp>
          </ns3:TrackPointExtension>
        </extensions>
      </trkpt>
      <trkpt lat="46.79158897139132022857666015625" lon="6.8677111901342868804931640625">
        <ele>506.79998779296875</ele>
        <time>2013-09-01T14:27:52.000Z</time>
        <extensions>
          <ns3:TrackPointExtension>
            <ns3:atemp>18.0</ns3:atemp>
          </ns3:TrackPointExtension>
        </extensions>
      </trkpt>
      <trkpt lat="46.7915612272918224334716796875" lon="6.86768151819705963134765625">
        <ele>507</ele>
        <time>2013-09-01T14:27:53.000Z</time>
        <extensions>
          <ns3:TrackPointExtension>
            <ns3:atemp>18.0</ns3:atemp>
          </ns3:TrackPointExtension>
        </extensions>
      </trkpt>
      <trkpt lat="46.7915327288210391998291015625" lon="6.86765159480273723602294921875">
        <ele>507.20001220703125</ele>
        <time>2013-09-01T14:27:54.000Z</time>
        <extensions>
          <ns3:TrackPointExtension>
            <ns3:atemp>18.0</ns3:atemp>
          </ns3:TrackPointExtension>
        </extensions>
      </trkpt>
      <trkpt lat="46.7915055714547634124755859375" lon="6.86761823482811450958251953125">
        <ele>507.399993896484375</ele>
        <time>2013-09-01T14:27:55.000Z</time>
        <extensions>
          <ns3:TrackPointExtension>
            <ns3:atemp>18.0</ns3:atemp>
          </ns3:TrackPointExtension>
        </extensions>
      </trkpt>
      <trkpt lat="46.79147816263139247894287109375" lon="6.867585964500904083251953125">
        <ele>507.600006103515625</ele>
        <time>2013-09-01T14:27:56.000Z</time>
        <extensions>
          <ns3:TrackPointExtension>
            <ns3:atemp>18.0</ns3:atemp>
          </ns3:TrackPointExtension>
        </extensions>
      </trkpt>
      <trkpt lat="46.791448406875133514404296875" lon="6.86755604110658168792724609375">
        <ele>507.79998779296875</ele>
        <time>2013-09-01T14:27:57.000Z</time>
        <extensions>
          <ns3:TrackPointExtension>
            <ns3:atemp>18.0</ns3:atemp>
          </ns3:TrackPointExtension>
        </extensions>
      </trkpt>
      <trkpt lat="46.79141848348081111907958984375" lon="6.86752703972160816192626953125">
        <ele>508</ele>
        <time>2013-09-01T14:27:58.000Z</time>
        <extensions>
          <ns3:TrackPointExtension>
            <ns3:atemp>18.0</ns3:atemp>
          </ns3:TrackPointExtension>
        </extensions>
      </trkpt>
      <trkpt lat="46.79138864390552043914794921875" lon="6.86750222928822040557861328125">
        <ele>508</ele>
        <time>2013-09-01T14:27:59.000Z</time>
        <extensions>
          <ns3:TrackPointExtension>
            <ns3:atemp>18.0</ns3:atemp>
          </ns3:TrackPointExtension>
        </extensions>
      </trkpt>
      <trkpt lat="46.7913630791008472442626953125" lon="6.86747356317937374114990234375">
        <ele>508.20001220703125</ele>
        <time>2013-09-01T14:28:00.000Z</time>
        <extensions>
          <ns3:TrackPointExtension>
            <ns3:atemp>18.0</ns3:atemp>
          </ns3:TrackPointExtension>
        </extensions>
      </trkpt>
      <trkpt lat="46.79133969359099864959716796875" lon="6.8674422986805438995361328125">
        <ele>508.399993896484375</ele>
        <time>2013-09-01T14:28:01.000Z</time>
        <extensions>
          <ns3:TrackPointExtension>
            <ns3:atemp>18.0</ns3:atemp>
          </ns3:TrackPointExtension>
        </extensions>
      </trkpt>
      <trkpt lat="46.7913173139095306396484375" lon="6.8674114532768726348876953125">
        <ele>508.600006103515625</ele>
        <time>2013-09-01T14:28:02.000Z</time>
        <extensions>
          <ns3:TrackPointExtension>
            <ns3:atemp>18.0</ns3:atemp>
          </ns3:TrackPointExtension>
        </extensions>
      </trkpt>
      <trkpt lat="46.791295520961284637451171875" lon="6.86737884767353534698486328125">
        <ele>508.79998779296875</ele>
        <time>2013-09-01T14:28:03.000Z</time>
        <extensions>
          <ns3:TrackPointExtension>
            <ns3:atemp>18.0</ns3:atemp>
          </ns3:TrackPointExtension>
        </extensions>
      </trkpt>
      <trkpt lat="46.79127330891788005828857421875" lon="6.86734490096569061279296875">
        <ele>509</ele>
        <time>2013-09-01T14:28:04.000Z</time>
        <extensions>
          <ns3:TrackPointExtension>
            <ns3:atemp>18.0</ns3:atemp>
          </ns3:TrackPointExtension>
        </extensions>
      </trkpt>
      <trkpt lat="46.79125084541738033294677734375" lon="6.8673118762671947479248046875">
        <ele>509.20001220703125</ele>
        <time>2013-09-01T14:28:05.000Z</time>
        <extensions>
          <ns3:TrackPointExtension>
            <ns3:atemp>18.0</ns3:atemp>
          </ns3:TrackPointExtension>
        </extensions>
      </trkpt>
      <trkpt lat="46.79123005829751491546630859375" lon="6.86727591790258884429931640625">
        <ele>509.399993896484375</ele>
        <time>2013-09-01T14:28:06.000Z</time>
        <extensions>
          <ns3:TrackPointExtension>
            <ns3:atemp>18.0</ns3:atemp>
          </ns3:TrackPointExtension>
        </extensions>
      </trkpt>
      <trkpt lat="46.79120625369250774383544921875" lon="6.8672424741089344024658203125">
        <ele>509.600006103515625</ele>
        <time>2013-09-01T14:28:07.000Z</time>
        <extensions>
          <ns3:TrackPointExtension>
            <ns3:atemp>18.0</ns3:atemp>
          </ns3:TrackPointExtension>
        </extensions>
      </trkpt>
      <trkpt lat="46.7911832034587860107421875" lon="6.867208778858184814453125">
        <ele>510</ele>
        <time>2013-09-01T14:28:08.000Z</time>
        <extensions>
          <ns3:TrackPointExtension>
            <ns3:atemp>18.0</ns3:atemp>
          </ns3:TrackPointExtension>
        </extensions>
      </trkpt>
      <trkpt lat="46.79115948267281055450439453125" lon="6.86717332340776920318603515625">
        <ele>510.20001220703125</ele>
        <time>2013-09-01T14:28:09.000Z</time>
        <extensions>
          <ns3:TrackPointExtension>
            <ns3:atemp>18.0</ns3:atemp>
          </ns3:TrackPointExtension>
        </extensions>
      </trkpt>
      <trkpt lat="46.7911367677152156829833984375" lon="6.86714029870927333831787109375">
        <ele>510.399993896484375</ele>
        <time>2013-09-01T14:28:10.000Z</time>
        <extensions>
          <ns3:TrackPointExtension>
            <ns3:atemp>18.0</ns3:atemp>
          </ns3:TrackPointExtension>
        </extensions>
      </trkpt>
      <trkpt lat="46.79110952652990818023681640625" lon="6.8671154044568538665771484375">
        <ele>510.79998779296875</ele>
        <time>2013-09-01T14:28:11.000Z</time>
        <extensions>
          <ns3:TrackPointExtension>
            <ns3:atemp>18.0</ns3:atemp>
          </ns3:TrackPointExtension>
        </extensions>
      </trkpt>
      <trkpt lat="46.7910826206207275390625" lon="6.8670962937176227569580078125">
        <ele>511</ele>
        <time>2013-09-01T14:28:12.000Z</time>
        <extensions>
          <ns3:TrackPointExtension>
            <ns3:atemp>18.0</ns3:atemp>
          </ns3:TrackPointExtension>
        </extensions>
      </trkpt>
      <trkpt lat="46.791057474911212921142578125" lon="6.86707374639809131622314453125">
        <ele>511.20001220703125</ele>
        <time>2013-09-01T14:28:13.000Z</time>
        <extensions>
          <ns3:TrackPointExtension>
            <ns3:atemp>18.0</ns3:atemp>
          </ns3:TrackPointExtension>
        </extensions>
      </trkpt>
      <trkpt lat="46.7910328321158885955810546875" lon="6.86704306863248348236083984375">
        <ele>511.399993896484375</ele>
        <time>2013-09-01T14:28:14.000Z</time>
        <extensions>
          <ns3:TrackPointExtension>
            <ns3:atemp>18.0</ns3:atemp>
          </ns3:TrackPointExtension>
        </extensions>
      </trkpt>
      <trkpt lat="46.79101087152957916259765625" lon="6.867009289562702178955078125">
        <ele>511.600006103515625</ele>
        <time>2013-09-01T14:28:15.000Z</time>
        <extensions>
          <ns3:TrackPointExtension>
            <ns3:atemp>18.0</ns3:atemp>
          </ns3:TrackPointExtension>
        </extensions>
      </trkpt>
      <trkpt lat="46.790988743305206298828125" lon="6.8669779412448406219482421875">
        <ele>512</ele>
        <time>2013-09-01T14:28:16.000Z</time>
        <extensions>
          <ns3:TrackPointExtension>
            <ns3:atemp>18.0</ns3:atemp>
          </ns3:TrackPointExtension>
        </extensions>
      </trkpt>
      <trkpt lat="46.7909651063382625579833984375" lon="6.86694684438407421112060546875">
        <ele>512</ele>
        <time>2013-09-01T14:28:17.000Z</time>
        <extensions>
          <ns3:TrackPointExtension>
            <ns3:atemp>18.0</ns3:atemp>
          </ns3:TrackPointExtension>
        </extensions>
      </trkpt>
      <trkpt lat="46.79093752987682819366455078125" lon="6.86691717244684696197509765625">
        <ele>512.20001220703125</ele>
        <time>2013-09-01T14:28:18.000Z</time>
        <extensions>
          <ns3:TrackPointExtension>
            <ns3:atemp>18.0</ns3:atemp>
          </ns3:TrackPointExtension>
        </extensions>
      </trkpt>
      <trkpt lat="46.79091188125312328338623046875" lon="6.86688934452831745147705078125">
        <ele>512.4000244140625</ele>
        <time>2013-09-01T14:28:19.000Z</time>
        <extensions>
          <ns3:TrackPointExtension>
            <ns3:atemp>18.0</ns3:atemp>
          </ns3:TrackPointExtension>
        </extensions>
      </trkpt>
      <trkpt lat="46.79088505916297435760498046875" lon="6.866862773895263671875">
        <ele>512.5999755859375</ele>
        <time>2013-09-01T14:28:20.000Z</time>
        <extensions>
          <ns3:TrackPointExtension>
            <ns3:atemp>18.0</ns3:atemp>
          </ns3:TrackPointExtension>
        </extensions>
      </trkpt>
      <trkpt lat="46.79085756652057170867919921875" lon="6.8668372929096221923828125">
        <ele>512.79998779296875</ele>
        <time>2013-09-01T14:28:21.000Z</time>
        <extensions>
          <ns3:TrackPointExtension>
            <ns3:atemp>18.0</ns3:atemp>
          </ns3:TrackPointExtension>
        </extensions>
      </trkpt>
      <trkpt lat="46.79083225317299365997314453125" lon="6.86681055463850498199462890625">
        <ele>513</ele>
        <time>2013-09-01T14:28:22.000Z</time>
        <extensions>
          <ns3:TrackPointExtension>
            <ns3:atemp>18.0</ns3:atemp>
          </ns3:TrackPointExtension>
        </extensions>
      </trkpt>
      <trkpt lat="46.79080727510154247283935546875" lon="6.866779960691928863525390625">
        <ele>513.20001220703125</ele>
        <time>2013-09-01T14:28:23.000Z</time>
        <extensions>
          <ns3:TrackPointExtension>
            <ns3:atemp>18.0</ns3:atemp>
          </ns3:TrackPointExtension>
        </extensions>
      </trkpt>
      <trkpt lat="46.7907835543155670166015625" lon="6.8667526356875896453857421875">
        <ele>513.4000244140625</ele>
        <time>2013-09-01T14:28:24.000Z</time>
        <extensions>
          <ns3:TrackPointExtension>
            <ns3:atemp>18.0</ns3:atemp>
          </ns3:TrackPointExtension>
        </extensions>
      </trkpt>
      <trkpt lat="46.7907605879008769989013671875" lon="6.86672120355069637298583984375">
        <ele>513.79998779296875</ele>
        <time>2013-09-01T14:28:25.000Z</time>
        <extensions>
          <ns3:TrackPointExtension>
            <ns3:atemp>18.0</ns3:atemp>
          </ns3:TrackPointExtension>
        </extensions>
      </trkpt>
      <trkpt lat="46.7907364480197429656982421875" lon="6.86668935231864452362060546875">
        <ele>514</ele>
        <time>2013-09-01T14:28:26.000Z</time>
        <extensions>
          <ns3:TrackPointExtension>
            <ns3:atemp>18.0</ns3:atemp>
          </ns3:TrackPointExtension>
        </extensions>
      </trkpt>
      <trkpt lat="46.790708787739276885986328125" lon="6.8666634522378444671630859375">
        <ele>514.4000244140625</ele>
        <time>2013-09-01T14:28:27.000Z</time>
        <extensions>
          <ns3:TrackPointExtension>
            <ns3:atemp>18.0</ns3:atemp>
          </ns3:TrackPointExtension>
        </extensions>
      </trkpt>
      <trkpt lat="46.79068188183009624481201171875" lon="6.86663545668125152587890625">
        <ele>514.79998779296875</ele>
        <time>2013-09-01T14:28:28.000Z</time>
        <extensions>
          <ns3:TrackPointExtension>
            <ns3:atemp>18.0</ns3:atemp>
          </ns3:TrackPointExtension>
        </extensions>
      </trkpt>
      <trkpt lat="46.7906569875776767730712890625" lon="6.866606287658214569091796875">
        <ele>515</ele>
        <time>2013-09-01T14:28:29.000Z</time>
        <extensions>
          <ns3:TrackPointExtension>
            <ns3:atemp>18.0</ns3:atemp>
          </ns3:TrackPointExtension>
        </extensions>
      </trkpt>
      <trkpt lat="46.7906348593533039093017578125" lon="6.866573430597782135009765625">
        <ele>515.20001220703125</ele>
        <time>2013-09-01T14:28:30.000Z</time>
        <extensions>
          <ns3:TrackPointExtension>
            <ns3:atemp>18.0</ns3:atemp>
          </ns3:TrackPointExtension>
        </extensions>
      </trkpt>
      <trkpt lat="46.79061046801507472991943359375" lon="6.866541914641857147216796875">
        <ele>515.5999755859375</ele>
        <time>2013-09-01T14:28:31.000Z</time>
        <extensions>
          <ns3:TrackPointExtension>
            <ns3:atemp>18.0</ns3:atemp>
          </ns3:TrackPointExtension>
        </extensions>
      </trkpt>
      <trkpt lat="46.79058331064879894256591796875" lon="6.86651299707591533660888671875">
        <ele>515.79998779296875</ele>
        <time>2013-09-01T14:28:32.000Z</time>
        <extensions>
          <ns3:TrackPointExtension>
            <ns3:atemp>18.0</ns3:atemp>
          </ns3:TrackPointExtension>
        </extensions>
      </trkpt>
      <trkpt lat="46.7905570752918720245361328125" lon="6.8664860911667346954345703125">
        <ele>516</ele>
        <time>2013-09-01T14:28:33.000Z</time>
        <extensions>
          <ns3:TrackPointExtension>
            <ns3:atemp>18.0</ns3:atemp>
          </ns3:TrackPointExtension>
        </extensions>
      </trkpt>
      <trkpt lat="46.7905314266681671142578125" lon="6.86645700596272945404052734375">
        <ele>515.79998779296875</ele>
        <time>2013-09-01T14:28:34.000Z</time>
        <extensions>
          <ns3:TrackPointExtension>
            <ns3:atemp>18.0</ns3:atemp>
          </ns3:TrackPointExtension>
        </extensions>
      </trkpt>
      <trkpt lat="46.79050602950155735015869140625" lon="6.86642800457775592803955078125">
        <ele>515.79998779296875</ele>
        <time>2013-09-01T14:28:35.000Z</time>
        <extensions>
          <ns3:TrackPointExtension>
            <ns3:atemp>18.0</ns3:atemp>
          </ns3:TrackPointExtension>
        </extensions>
      </trkpt>
      <trkpt lat="46.7904796265065670013427734375" lon="6.8663972429931163787841796875">
        <ele>516</ele>
        <time>2013-09-01T14:28:36.000Z</time>
        <extensions>
          <ns3:TrackPointExtension>
            <ns3:atemp>18.0</ns3:atemp>
          </ns3:TrackPointExtension>
        </extensions>
      </trkpt>
      <trkpt lat="46.79045205004513263702392578125" lon="6.86636765487492084503173828125">
        <ele>516.20001220703125</ele>
        <time>2013-09-01T14:28:37.000Z</time>
        <extensions>
          <ns3:TrackPointExtension>
            <ns3:atemp>18.0</ns3:atemp>
          </ns3:TrackPointExtension>
        </extensions>
      </trkpt>
      <trkpt lat="46.79042388685047626495361328125" lon="6.86634167097508907318115234375">
        <ele>516.20001220703125</ele>
        <time>2013-09-01T14:28:38.000Z</time>
        <extensions>
          <ns3:TrackPointExtension>
            <ns3:atemp>18.0</ns3:atemp>
          </ns3:TrackPointExtension>
        </extensions>
      </trkpt>
      <trkpt lat="46.79039505310356616973876953125" lon="6.866317279636859893798828125">
        <ele>516.20001220703125</ele>
        <time>2013-09-01T14:28:39.000Z</time>
        <extensions>
          <ns3:TrackPointExtension>
            <ns3:atemp>18.0</ns3:atemp>
          </ns3:TrackPointExtension>
        </extensions>
      </trkpt>
      <trkpt lat="46.7903651297092437744140625" lon="6.86629657633602619171142578125">
        <ele>516.4000244140625</ele>
        <time>2013-09-01T14:28:40.000Z</time>
        <extensions>
          <ns3:TrackPointExtension>
            <ns3:atemp>18.0</ns3:atemp>
          </ns3:TrackPointExtension>
        </extensions>
      </trkpt>
      <trkpt lat="46.79033604450523853302001953125" lon="6.8662731908261775970458984375">
        <ele>516.5999755859375</ele>
        <time>2013-09-01T14:28:41.000Z</time>
        <extensions>
          <ns3:TrackPointExtension>
            <ns3:atemp>18.0</ns3:atemp>
          </ns3:TrackPointExtension>
        </extensions>
      </trkpt>
      <trkpt lat="46.7903076298534870147705078125" lon="6.86624930240213871002197265625">
        <ele>516.79998779296875</ele>
        <time>2013-09-01T14:28:42.000Z</time>
        <extensions>
          <ns3:TrackPointExtension>
            <ns3:atemp>18.0</ns3:atemp>
          </ns3:TrackPointExtension>
        </extensions>
      </trkpt>
      <trkpt lat="46.7902804724872112274169921875" lon="6.86622549779713153839111328125">
        <ele>517</ele>
        <time>2013-09-01T14:28:43.000Z</time>
        <extensions>
          <ns3:TrackPointExtension>
            <ns3:atemp>18.0</ns3:atemp>
          </ns3:TrackPointExtension>
        </extensions>
      </trkpt>
      <trkpt lat="46.7902506329119205474853515625" lon="6.86620521359145641326904296875">
        <ele>517</ele>
        <time>2013-09-01T14:28:44.000Z</time>
        <extensions>
          <ns3:TrackPointExtension>
            <ns3:atemp>18.0</ns3:atemp>
          </ns3:TrackPointExtension>
        </extensions>
      </trkpt>
      <trkpt lat="46.79021936841309070587158203125" lon="6.86618476174771785736083984375">
        <ele>517.20001220703125</ele>
        <time>2013-09-01T14:28:45.000Z</time>
        <extensions>
          <ns3:TrackPointExtension>
            <ns3:atemp>18.0</ns3:atemp>
          </ns3:TrackPointExtension>
        </extensions>
      </trkpt>
      <trkpt lat="46.790189780294895172119140625" lon="6.866164393723011016845703125">
        <ele>517.20001220703125</ele>
        <time>2013-09-01T14:28:46.000Z</time>
        <extensions>
          <ns3:TrackPointExtension>
            <ns3:atemp>18.0</ns3:atemp>
          </ns3:TrackPointExtension>
        </extensions>
      </trkpt>
      <trkpt lat="46.7901599407196044921875" lon="6.8661439418792724609375">
        <ele>517.20001220703125</ele>
        <time>2013-09-01T14:28:47.000Z</time>
        <extensions>
          <ns3:TrackPointExtension>
            <ns3:atemp>18.0</ns3:atemp>
          </ns3:TrackPointExtension>
        </extensions>
      </trkpt>
      <trkpt lat="46.79012850858271121978759765625" lon="6.86612491495907306671142578125">
        <ele>517.4000244140625</ele>
        <time>2013-09-01T14:28:48.000Z</time>
        <extensions>
          <ns3:TrackPointExtension>
            <ns3:atemp>18.0</ns3:atemp>
          </ns3:TrackPointExtension>
        </extensions>
      </trkpt>
      <trkpt lat="46.79009548388421535491943359375" lon="6.86610546894371509552001953125">
        <ele>517.79998779296875</ele>
        <time>2013-09-01T14:28:49.000Z</time>
        <extensions>
          <ns3:TrackPointExtension>
            <ns3:atemp>18.0</ns3:atemp>
          </ns3:TrackPointExtension>
        </extensions>
      </trkpt>
      <trkpt lat="46.79006480611860752105712890625" lon="6.866087280213832855224609375">
        <ele>517.79998779296875</ele>
        <time>2013-09-01T14:28:50.000Z</time>
        <extensions>
          <ns3:TrackPointExtension>
            <ns3:atemp>18.0</ns3:atemp>
          </ns3:TrackPointExtension>
        </extensions>
      </trkpt>
      <trkpt lat="46.79003362543880939483642578125" lon="6.86606842093169689178466796875">
        <ele>518</ele>
        <time>2013-09-01T14:28:51.000Z</time>
        <extensions>
          <ns3:TrackPointExtension>
            <ns3:atemp>18.0</ns3:atemp>
          </ns3:TrackPointExtension>
        </extensions>
      </trkpt>
      <trkpt lat="46.79000043310225009918212890625" lon="6.86605132184922695159912109375">
        <ele>518</ele>
        <time>2013-09-01T14:28:52.000Z</time>
        <extensions>
          <ns3:TrackPointExtension>
            <ns3:atemp>18.0</ns3:atemp>
          </ns3:TrackPointExtension>
        </extensions>
      </trkpt>
      <trkpt lat="46.78996749222278594970703125" lon="6.86603874899446964263916015625">
        <ele>518</ele>
        <time>2013-09-01T14:28:53.000Z</time>
        <extensions>
          <ns3:TrackPointExtension>
            <ns3:atemp>18.0</ns3:atemp>
          </ns3:TrackPointExtension>
        </extensions>
      </trkpt>
      <trkpt lat="46.789931617677211761474609375" lon="6.866017542779445648193359375">
        <ele>518</ele>
        <time>2013-09-01T14:28:54.000Z</time>
        <extensions>
          <ns3:TrackPointExtension>
            <ns3:atemp>18.0</ns3:atemp>
          </ns3:TrackPointExtension>
        </extensions>
      </trkpt>
      <trkpt lat="46.78989649750292301177978515625" lon="6.8659952469170093536376953125">
        <ele>518</ele>
        <time>2013-09-01T14:28:55.000Z</time>
        <extensions>
          <ns3:TrackPointExtension>
            <ns3:atemp>18.0</ns3:atemp>
          </ns3:TrackPointExtension>
        </extensions>
      </trkpt>
      <trkpt lat="46.7898580245673656463623046875" lon="6.8659704364836215972900390625">
        <ele>518</ele>
        <time>2013-09-01T14:28:56.000Z</time>
        <extensions>
          <ns3:TrackPointExtension>
            <ns3:atemp>18.0</ns3:atemp>
          </ns3:TrackPointExtension>
        </extensions>
      </trkpt>
      <trkpt lat="46.7898154444992542266845703125" lon="6.8659513257443904876708984375">
        <ele>518.20001220703125</ele>
        <time>2013-09-01T14:28:57.000Z</time>
        <extensions>
          <ns3:TrackPointExtension>
            <ns3:atemp>18.0</ns3:atemp>
          </ns3:TrackPointExtension>
        </extensions>
      </trkpt>
      <trkpt lat="46.7897711880505084991455078125" lon="6.8659335561096668243408203125">
        <ele>518.4000244140625</ele>
        <time>2013-09-01T14:28:58.000Z</time>
        <extensions>
          <ns3:TrackPointExtension>
            <ns3:atemp>18.0</ns3:atemp>
          </ns3:TrackPointExtension>
        </extensions>
      </trkpt>
      <trkpt lat="46.7897259257733821868896484375" lon="6.86591167934238910675048828125">
        <ele>518.4000244140625</ele>
        <time>2013-09-01T14:28:59.000Z</time>
        <extensions>
          <ns3:TrackPointExtension>
            <ns3:atemp>18.0</ns3:atemp>
          </ns3:TrackPointExtension>
        </extensions>
      </trkpt>
      <trkpt lat="46.78968049585819244384765625" lon="6.8658903054893016815185546875">
        <ele>518.4000244140625</ele>
        <time>2013-09-01T14:29:00.000Z</time>
        <extensions>
          <ns3:TrackPointExtension>
            <ns3:atemp>18.0</ns3:atemp>
          </ns3:TrackPointExtension>
        </extensions>
      </trkpt>
      <trkpt lat="46.789634563028812408447265625" lon="6.865862645208835601806640625">
        <ele>518.4000244140625</ele>
        <time>2013-09-01T14:29:01.000Z</time>
        <extensions>
          <ns3:TrackPointExtension>
            <ns3:atemp>18.0</ns3:atemp>
          </ns3:TrackPointExtension>
        </extensions>
      </trkpt>
      <trkpt lat="46.789589636027812957763671875" lon="6.86583523638546466827392578125">
        <ele>518</ele>
        <time>2013-09-01T14:29:02.000Z</time>
        <extensions>
          <ns3:TrackPointExtension>
            <ns3:atemp>18.0</ns3:atemp>
          </ns3:TrackPointExtension>
        </extensions>
      </trkpt>
      <trkpt lat="46.78954579867422580718994140625" lon="6.86580774374306201934814453125">
        <ele>518</ele>
        <time>2013-09-01T14:29:03.000Z</time>
        <extensions>
          <ns3:TrackPointExtension>
            <ns3:atemp>18.0</ns3:atemp>
          </ns3:TrackPointExtension>
        </extensions>
      </trkpt>
      <trkpt lat="46.789501793682575225830078125" lon="6.86577471904456615447998046875">
        <ele>517.79998779296875</ele>
        <time>2013-09-01T14:29:04.000Z</time>
        <extensions>
          <ns3:TrackPointExtension>
            <ns3:atemp>18.0</ns3:atemp>
          </ns3:TrackPointExtension>
        </extensions>
      </trkpt>
      <trkpt lat="46.789459548890590667724609375" lon="6.86574605293571949005126953125">
        <ele>517.5999755859375</ele>
        <time>2013-09-01T14:29:05.000Z</time>
        <extensions>
          <ns3:TrackPointExtension>
            <ns3:atemp>18.0</ns3:atemp>
          </ns3:TrackPointExtension>
        </extensions>
      </trkpt>
      <trkpt lat="46.78941587917506694793701171875" lon="6.86571587808430194854736328125">
        <ele>517.4000244140625</ele>
        <time>2013-09-01T14:29:06.000Z</time>
        <extensions>
          <ns3:TrackPointExtension>
            <ns3:atemp>18.0</ns3:atemp>
          </ns3:TrackPointExtension>
        </extensions>
      </trkpt>
      <trkpt lat="46.78936910815536975860595703125" lon="6.86568151228129863739013671875">
        <ele>517.4000244140625</ele>
        <time>2013-09-01T14:29:07.000Z</time>
        <extensions>
          <ns3:TrackPointExtension>
            <ns3:atemp>18.0</ns3:atemp>
          </ns3:TrackPointExtension>
        </extensions>
      </trkpt>
      <trkpt lat="46.78932133130729198455810546875" lon="6.86564706265926361083984375">
        <ele>517.4000244140625</ele>
        <time>2013-09-01T14:29:08.000Z</time>
        <extensions>
          <ns3:TrackPointExtension>
            <ns3:atemp>18.0</ns3:atemp>
          </ns3:TrackPointExtension>
        </extensions>
      </trkpt>
      <trkpt lat="46.7892734706401824951171875" lon="6.86561219394207000732421875">
        <ele>517.5999755859375</ele>
        <time>2013-09-01T14:29:09.000Z</time>
        <extensions>
          <ns3:TrackPointExtension>
            <ns3:atemp>18.0</ns3:atemp>
          </ns3:TrackPointExtension>
        </extensions>
      </trkpt>
      <trkpt lat="46.7892246879637241363525390625" lon="6.86557606793940067291259765625">
        <ele>517.5999755859375</ele>
        <time>2013-09-01T14:29:10.000Z</time>
        <extensions>
          <ns3:TrackPointExtension>
            <ns3:atemp>18.0</ns3:atemp>
          </ns3:TrackPointExtension>
        </extensions>
      </trkpt>
      <trkpt lat="46.78917515091598033905029296875" lon="6.8655362538993358612060546875">
        <ele>517.79998779296875</ele>
        <time>2013-09-01T14:29:11.000Z</time>
        <extensions>
          <ns3:TrackPointExtension>
            <ns3:atemp>18.0</ns3:atemp>
          </ns3:TrackPointExtension>
        </extensions>
      </trkpt>
      <trkpt lat="46.78912469185888767242431640625" lon="6.86549459584057331085205078125">
        <ele>517.5999755859375</ele>
        <time>2013-09-01T14:29:12.000Z</time>
        <extensions>
          <ns3:TrackPointExtension>
            <ns3:atemp>18.0</ns3:atemp>
          </ns3:TrackPointExtension>
        </extensions>
      </trkpt>
      <trkpt lat="46.7890751548111438751220703125" lon="6.86545017175376415252685546875">
        <ele>517.79998779296875</ele>
        <time>2013-09-01T14:29:13.000Z</time>
        <extensions>
          <ns3:TrackPointExtension>
            <ns3:atemp>18.0</ns3:atemp>
          </ns3:TrackPointExtension>
        </extensions>
      </trkpt>
      <trkpt lat="46.78902293555438518524169921875" lon="6.865408010780811309814453125">
        <ele>517.5999755859375</ele>
        <time>2013-09-01T14:29:14.000Z</time>
        <extensions>
          <ns3:TrackPointExtension>
            <ns3:atemp>18.0</ns3:atemp>
          </ns3:TrackPointExtension>
        </extensions>
      </trkpt>
      <trkpt lat="46.7889718897640705108642578125" lon="6.86536165885627269744873046875">
        <ele>517.79998779296875</ele>
        <time>2013-09-01T14:29:15.000Z</time>
        <extensions>
          <ns3:TrackPointExtension>
            <ns3:atemp>18.0</ns3:atemp>
          </ns3:TrackPointExtension>
        </extensions>
      </trkpt>
      <trkpt lat="46.78892034105956554412841796875" lon="6.8653119541704654693603515625">
        <ele>517.5999755859375</ele>
        <time>2013-09-01T14:29:16.000Z</time>
        <extensions>
          <ns3:TrackPointExtension>
            <ns3:atemp>18.0</ns3:atemp>
          </ns3:TrackPointExtension>
        </extensions>
      </trkpt>
      <trkpt lat="46.78886787034571170806884765625" lon="6.86526191420853137969970703125">
        <ele>517.4000244140625</ele>
        <time>2013-09-01T14:29:17.000Z</time>
        <extensions>
          <ns3:TrackPointExtension>
            <ns3:atemp>18.0</ns3:atemp>
          </ns3:TrackPointExtension>
        </extensions>
      </trkpt>
      <trkpt lat="46.78881707601249217987060546875" lon="6.8652056716382503509521484375">
        <ele>517</ele>
        <time>2013-09-01T14:29:18.000Z</time>
        <extensions>
          <ns3:TrackPointExtension>
            <ns3:atemp>18.0</ns3:atemp>
          </ns3:TrackPointExtension>
        </extensions>
      </trkpt>
      <trkpt lat="46.788764186203479766845703125" lon="6.865148507058620452880859375">
        <ele>516.5999755859375</ele>
        <time>2013-09-01T14:29:19.000Z</time>
        <extensions>
          <ns3:TrackPointExtension>
            <ns3:atemp>18.0</ns3:atemp>
          </ns3:TrackPointExtension>
        </extensions>
      </trkpt>
      <trkpt lat="46.78870878182351589202880859375" lon="6.86509226448833942413330078125">
        <ele>516.4000244140625</ele>
        <time>2013-09-01T14:29:20.000Z</time>
        <extensions>
          <ns3:TrackPointExtension>
            <ns3:atemp>18.0</ns3:atemp>
          </ns3:TrackPointExtension>
        </extensions>
      </trkpt>
      <trkpt lat="46.78865329362452030181884765625" lon="6.865034513175487518310546875">
        <ele>516.20001220703125</ele>
        <time>2013-09-01T14:29:21.000Z</time>
        <extensions>
          <ns3:TrackPointExtension>
            <ns3:atemp>18.0</ns3:atemp>
          </ns3:TrackPointExtension>
        </extensions>
      </trkpt>
      <trkpt lat="46.7885967157781124114990234375" lon="6.86498061753809452056884765625">
        <ele>515.5999755859375</ele>
        <time>2013-09-01T14:29:22.000Z</time>
        <extensions>
          <ns3:TrackPointExtension>
            <ns3:atemp>18.0</ns3:atemp>
          </ns3:TrackPointExtension>
        </extensions>
      </trkpt>
      <trkpt lat="46.78853946737945079803466796875" lon="6.8649294041097164154052734375">
        <ele>515.4000244140625</ele>
        <time>2013-09-01T14:29:23.000Z</time>
        <extensions>
          <ns3:TrackPointExtension>
            <ns3:atemp>18.0</ns3:atemp>
          </ns3:TrackPointExtension>
        </extensions>
      </trkpt>
      <trkpt lat="46.7884833924472332000732421875" lon="6.864875592291355133056640625">
        <ele>515.20001220703125</ele>
        <time>2013-09-01T14:29:24.000Z</time>
        <extensions>
          <ns3:TrackPointExtension>
            <ns3:atemp>18.0</ns3:atemp>
          </ns3:TrackPointExtension>
        </extensions>
      </trkpt>
      <trkpt lat="46.788428910076618194580078125" lon="6.86482186429202556610107421875">
        <ele>515.4000244140625</ele>
        <time>2013-09-01T14:29:25.000Z</time>
        <extensions>
          <ns3:TrackPointExtension>
            <ns3:atemp>18.0</ns3:atemp>
          </ns3:TrackPointExtension>
        </extensions>
      </trkpt>
      <trkpt lat="46.78837518207728862762451171875" lon="6.8647678010165691375732421875">
        <ele>515</ele>
        <time>2013-09-01T14:29:26.000Z</time>
        <extensions>
          <ns3:TrackPointExtension>
            <ns3:atemp>18.0</ns3:atemp>
          </ns3:TrackPointExtension>
        </extensions>
      </trkpt>
      <trkpt lat="46.7883204482495784759521484375" lon="6.8647181801497936248779296875">
        <ele>515</ele>
        <time>2013-09-01T14:29:27.000Z</time>
        <extensions>
          <ns3:TrackPointExtension>
            <ns3:atemp>18.0</ns3:atemp>
          </ns3:TrackPointExtension>
        </extensions>
      </trkpt>
      <trkpt lat="46.78826739080250263214111328125" lon="6.86466445215046405792236328125">
        <ele>514.79998779296875</ele>
        <time>2013-09-01T14:29:28.000Z</time>
        <extensions>
          <ns3:TrackPointExtension>
            <ns3:atemp>18.0</ns3:atemp>
          </ns3:TrackPointExtension>
        </extensions>
      </trkpt>
      <trkpt lat="46.7882114835083484649658203125" lon="6.8646206147968769073486328125">
        <ele>514.5999755859375</ele>
        <time>2013-09-01T14:29:29.000Z</time>
        <extensions>
          <ns3:TrackPointExtension>
            <ns3:atemp>18.0</ns3:atemp>
          </ns3:TrackPointExtension>
        </extensions>
      </trkpt>
      <trkpt lat="46.7881549894809722900390625" lon="6.86456621624529361724853515625">
        <ele>514.5999755859375</ele>
        <time>2013-09-01T14:29:30.000Z</time>
        <extensions>
          <ns3:TrackPointExtension>
            <ns3:atemp>18.0</ns3:atemp>
          </ns3:TrackPointExtension>
        </extensions>
      </trkpt>
      <trkpt lat="46.78809556178748607635498046875" lon="6.86451173387467861175537109375">
        <ele>514.5999755859375</ele>
        <time>2013-09-01T14:29:31.000Z</time>
        <extensions>
          <ns3:TrackPointExtension>
            <ns3:atemp>18.0</ns3:atemp>
          </ns3:TrackPointExtension>
        </extensions>
      </trkpt>
      <trkpt lat="46.78803554736077785491943359375" lon="6.86445490457117557525634765625">
        <ele>514.4000244140625</ele>
        <time>2013-09-01T14:29:32.000Z</time>
        <extensions>
          <ns3:TrackPointExtension>
            <ns3:atemp>18.0</ns3:atemp>
          </ns3:TrackPointExtension>
        </extensions>
      </trkpt>
      <trkpt lat="46.787973940372467041015625" lon="6.86439505778253078460693359375">
        <ele>514.20001220703125</ele>
        <time>2013-09-01T14:29:33.000Z</time>
        <extensions>
          <ns3:TrackPointExtension>
            <ns3:atemp>18.0</ns3:atemp>
          </ns3:TrackPointExtension>
        </extensions>
      </trkpt>
      <trkpt lat="46.78791283629834651947021484375" lon="6.864331774413585662841796875">
        <ele>513.79998779296875</ele>
        <time>2013-09-01T14:29:34.000Z</time>
        <extensions>
          <ns3:TrackPointExtension>
            <ns3:atemp>18.0</ns3:atemp>
          </ns3:TrackPointExtension>
        </extensions>
      </trkpt>
      <trkpt lat="46.7878490500152111053466796875" lon="6.86426882632076740264892578125">
        <ele>513.4000244140625</ele>
        <time>2013-09-01T14:29:35.000Z</time>
        <extensions>
          <ns3:TrackPointExtension>
            <ns3:atemp>18.0</ns3:atemp>
          </ns3:TrackPointExtension>
        </extensions>
      </trkpt>
      <trkpt lat="46.787785850465297698974609375" lon="6.86420612968504428863525390625">
        <ele>513.4000244140625</ele>
        <time>2013-09-01T14:29:36.000Z</time>
        <extensions>
          <ns3:TrackPointExtension>
            <ns3:atemp>18.0</ns3:atemp>
          </ns3:TrackPointExtension>
        </extensions>
      </trkpt>
      <trkpt lat="46.78772256709635257720947265625" lon="6.86413940973579883575439453125">
        <ele>513.4000244140625</ele>
        <time>2013-09-01T14:29:37.000Z</time>
        <extensions>
          <ns3:TrackPointExtension>
            <ns3:atemp>18.0</ns3:atemp>
          </ns3:TrackPointExtension>
        </extensions>
      </trkpt>
      <trkpt lat="46.7876616306602954864501953125" lon="6.8640704266726970672607421875">
        <ele>513.4000244140625</ele>
        <time>2013-09-01T14:29:38.000Z</time>
        <extensions>
          <ns3:TrackPointExtension>
            <ns3:atemp>18.0</ns3:atemp>
          </ns3:TrackPointExtension>
        </extensions>
      </trkpt>
      <trkpt lat="46.78759910166263580322265625" lon="6.86400496400892734527587890625">
        <ele>513.4000244140625</ele>
        <time>2013-09-01T14:29:39.000Z</time>
        <extensions>
          <ns3:TrackPointExtension>
            <ns3:atemp>18.0</ns3:atemp>
          </ns3:TrackPointExtension>
        </extensions>
      </trkpt>
      <trkpt lat="46.78753833286464214324951171875" lon="6.86393941752612590789794921875">
        <ele>513.4000244140625</ele>
        <time>2013-09-01T14:29:40.000Z</time>
        <extensions>
          <ns3:TrackPointExtension>
            <ns3:atemp>18.0</ns3:atemp>
          </ns3:TrackPointExtension>
        </extensions>
      </trkpt>
      <trkpt lat="46.787475384771823883056640625" lon="6.86387906782329082489013671875">
        <ele>513.20001220703125</ele>
        <time>2013-09-01T14:29:41.000Z</time>
        <extensions>
          <ns3:TrackPointExtension>
            <ns3:atemp>18.0</ns3:atemp>
          </ns3:TrackPointExtension>
        </extensions>
      </trkpt>
      <trkpt lat="46.78741008974611759185791015625" lon="6.86382584273815155029296875">
        <ele>513</ele>
        <time>2013-09-01T14:29:42.000Z</time>
        <extensions>
          <ns3:TrackPointExtension>
            <ns3:atemp>18.0</ns3:atemp>
          </ns3:TrackPointExtension>
        </extensions>
      </trkpt>
      <trkpt lat="46.7873441241681575775146484375" lon="6.86378217302262783050537109375">
        <ele>512.79998779296875</ele>
        <time>2013-09-01T14:29:43.000Z</time>
        <extensions>
          <ns3:TrackPointExtension>
            <ns3:atemp>18.0</ns3:atemp>
          </ns3:TrackPointExtension>
        </extensions>
      </trkpt>
      <trkpt lat="46.7872725427150726318359375" lon="6.86374210752546787261962890625">
        <ele>512.79998779296875</ele>
        <time>2013-09-01T14:29:44.000Z</time>
        <extensions>
          <ns3:TrackPointExtension>
            <ns3:atemp>18.0</ns3:atemp>
          </ns3:TrackPointExtension>
        </extensions>
      </trkpt>
      <trkpt lat="46.7871987819671630859375" lon="6.86370204202830791473388671875">
        <ele>512.79998779296875</ele>
        <time>2013-09-01T14:29:45.000Z</time>
        <extensions>
          <ns3:TrackPointExtension>
            <ns3:atemp>18.0</ns3:atemp>
          </ns3:TrackPointExtension>
        </extensions>
      </trkpt>
      <trkpt lat="46.7871225066483020782470703125" lon="6.8636580370366573333740234375">
        <ele>512.5999755859375</ele>
        <time>2013-09-01T14:29:46.000Z</time>
        <extensions>
          <ns3:TrackPointExtension>
            <ns3:atemp>18.0</ns3:atemp>
          </ns3:TrackPointExtension>
        </extensions>
      </trkpt>
      <trkpt lat="46.78704346530139446258544921875" lon="6.86363431625068187713623046875">
        <ele>512.20001220703125</ele>
        <time>2013-09-01T14:29:47.000Z</time>
        <extensions>
          <ns3:TrackPointExtension>
            <ns3:atemp>18.0</ns3:atemp>
          </ns3:TrackPointExtension>
        </extensions>
      </trkpt>
      <trkpt lat="46.78696073591709136962890625" lon="6.8636159598827362060546875">
        <ele>511.79998779296875</ele>
        <time>2013-09-01T14:29:48.000Z</time>
        <extensions>
          <ns3:TrackPointExtension>
            <ns3:atemp>18.0</ns3:atemp>
          </ns3:TrackPointExtension>
        </extensions>
      </trkpt>
      <trkpt lat="46.78687113337218761444091796875" lon="6.86358720995485782623291015625">
        <ele>511.20001220703125</ele>
        <time>2013-09-01T14:29:49.000Z</time>
        <extensions>
          <ns3:TrackPointExtension>
            <ns3:atemp>18.0</ns3:atemp>
          </ns3:TrackPointExtension>
        </extensions>
      </trkpt>
      <trkpt lat="46.78677759133279323577880859375" lon="6.86355016194283962249755859375">
        <ele>510.79998779296875</ele>
        <time>2013-09-01T14:29:50.000Z</time>
        <extensions>
          <ns3:TrackPointExtension>
            <ns3:atemp>18.0</ns3:atemp>
          </ns3:TrackPointExtension>
        </extensions>
      </trkpt>
      <trkpt lat="46.7866826243698596954345703125" lon="6.86350925825536251068115234375">
        <ele>510.399993896484375</ele>
        <time>2013-09-01T14:29:51.000Z</time>
        <extensions>
          <ns3:TrackPointExtension>
            <ns3:atemp>18.0</ns3:atemp>
          </ns3:TrackPointExtension>
        </extensions>
      </trkpt>
      <trkpt lat="46.7865857295691967010498046875" lon="6.86346701346337795257568359375">
        <ele>509.600006103515625</ele>
        <time>2013-09-01T14:29:52.000Z</time>
        <extensions>
          <ns3:TrackPointExtension>
            <ns3:atemp>18.0</ns3:atemp>
          </ns3:TrackPointExtension>
        </extensions>
      </trkpt>
      <trkpt lat="46.78648841567337512969970703125" lon="6.86342409811913967132568359375">
        <ele>509.20001220703125</ele>
        <time>2013-09-01T14:29:53.000Z</time>
        <extensions>
          <ns3:TrackPointExtension>
            <ns3:atemp>18.0</ns3:atemp>
          </ns3:TrackPointExtension>
        </extensions>
      </trkpt>
      <trkpt lat="46.78639068268239498138427734375" lon="6.8633799254894256591796875">
        <ele>508.399993896484375</ele>
        <time>2013-09-01T14:29:54.000Z</time>
        <extensions>
          <ns3:TrackPointExtension>
            <ns3:atemp>18.0</ns3:atemp>
          </ns3:TrackPointExtension>
        </extensions>
      </trkpt>
      <trkpt lat="46.78629462607204914093017578125" lon="6.86332200653851032257080078125">
        <ele>508</ele>
        <time>2013-09-01T14:29:55.000Z</time>
        <extensions>
          <ns3:TrackPointExtension>
            <ns3:atemp>18.0</ns3:atemp>
          </ns3:TrackPointExtension>
        </extensions>
      </trkpt>
      <trkpt lat="46.78620410151779651641845703125" lon="6.86324003152549266815185546875">
        <ele>507.600006103515625</ele>
        <time>2013-09-01T14:29:56.000Z</time>
        <extensions>
          <ns3:TrackPointExtension>
            <ns3:atemp>18.0</ns3:atemp>
          </ns3:TrackPointExtension>
        </extensions>
      </trkpt>
      <trkpt lat="46.78612380288541316986083984375" lon="6.86314347200095653533935546875">
        <ele>507.399993896484375</ele>
        <time>2013-09-01T14:29:57.000Z</time>
        <extensions>
          <ns3:TrackPointExtension>
            <ns3:atemp>18.0</ns3:atemp>
          </ns3:TrackPointExtension>
        </extensions>
      </trkpt>
      <trkpt lat="46.78605280816555023193359375" lon="6.8630344234406948089599609375">
        <ele>507.399993896484375</ele>
        <time>2013-09-01T14:29:58.000Z</time>
        <extensions>
          <ns3:TrackPointExtension>
            <ns3:atemp>18.0</ns3:atemp>
          </ns3:TrackPointExtension>
        </extensions>
      </trkpt>
      <trkpt lat="46.78598550148308277130126953125" lon="6.8629227764904499053955078125">
        <ele>507.399993896484375</ele>
        <time>2013-09-01T14:29:59.000Z</time>
        <extensions>
          <ns3:TrackPointExtension>
            <ns3:atemp>18.0</ns3:atemp>
          </ns3:TrackPointExtension>
        </extensions>
      </trkpt>
      <trkpt lat="46.7859207093715667724609375" lon="6.86281121335923671722412109375">
        <ele>507.399993896484375</ele>
        <time>2013-09-01T14:30:00.000Z</time>
        <extensions>
          <ns3:TrackPointExtension>
            <ns3:atemp>18.0</ns3:atemp>
          </ns3:TrackPointExtension>
        </extensions>
      </trkpt>
      <trkpt lat="46.78585725836455821990966796875" lon="6.862700320780277252197265625">
        <ele>507.399993896484375</ele>
        <time>2013-09-01T14:30:01.000Z</time>
        <extensions>
          <ns3:TrackPointExtension>
            <ns3:atemp>18.0</ns3:atemp>
          </ns3:TrackPointExtension>
        </extensions>
      </trkpt>
      <trkpt lat="46.78579657338559627532958984375" lon="6.8625895120203495025634765625">
        <ele>507.20001220703125</ele>
        <time>2013-09-01T14:30:02.000Z</time>
        <extensions>
          <ns3:TrackPointExtension>
            <ns3:atemp>18.0</ns3:atemp>
          </ns3:TrackPointExtension>
        </extensions>
      </trkpt>
      <trkpt lat="46.78573538549244403839111328125" lon="6.86247543431818485260009765625">
        <ele>506.79998779296875</ele>
        <time>2013-09-01T14:30:03.000Z</time>
        <extensions>
          <ns3:TrackPointExtension>
            <ns3:atemp>18.0</ns3:atemp>
          </ns3:TrackPointExtension>
        </extensions>
      </trkpt>
      <trkpt lat="46.785677634179592132568359375" lon="6.86235959641635417938232421875">
        <ele>506.399993896484375</ele>
        <time>2013-09-01T14:30:04.000Z</time>
        <extensions>
          <ns3:TrackPointExtension>
            <ns3:atemp>18.0</ns3:atemp>
          </ns3:TrackPointExtension>
        </extensions>
      </trkpt>
      <trkpt lat="46.785623989999294281005859375" lon="6.86224241741001605987548828125">
        <ele>506</ele>
        <time>2013-09-01T14:30:05.000Z</time>
        <extensions>
          <ns3:TrackPointExtension>
            <ns3:atemp>18.0</ns3:atemp>
          </ns3:TrackPointExtension>
        </extensions>
      </trkpt>
      <trkpt lat="46.785573698580265045166015625" lon="6.86211786232888698577880859375">
        <ele>505.399993896484375</ele>
        <time>2013-09-01T14:30:06.000Z</time>
        <extensions>
          <ns3:TrackPointExtension>
            <ns3:atemp>18.0</ns3:atemp>
          </ns3:TrackPointExtension>
        </extensions>
      </trkpt>
      <trkpt lat="46.78552516736090183258056640625" lon="6.86199666000902652740478515625">
        <ele>505.20001220703125</ele>
        <time>2013-09-01T14:30:07.000Z</time>
        <extensions>
          <ns3:TrackPointExtension>
            <ns3:atemp>18.0</ns3:atemp>
          </ns3:TrackPointExtension>
        </extensions>
      </trkpt>
      <trkpt lat="46.78547739051282405853271484375" lon="6.8618793971836566925048828125">
        <ele>505.20001220703125</ele>
        <time>2013-09-01T14:30:08.000Z</time>
        <extensions>
          <ns3:TrackPointExtension>
            <ns3:atemp>18.0</ns3:atemp>
          </ns3:TrackPointExtension>
        </extensions>
      </trkpt>
      <trkpt lat="46.78542709909379482269287109375" lon="6.8617694266140460968017578125">
        <ele>505.399993896484375</ele>
        <time>2013-09-01T14:30:09.000Z</time>
        <extensions>
          <ns3:TrackPointExtension>
            <ns3:atemp>18.0</ns3:atemp>
          </ns3:TrackPointExtension>
        </extensions>
      </trkpt>
      <trkpt lat="46.78537211380898952484130859375" lon="6.8616668321192264556884765625">
        <ele>505.600006103515625</ele>
        <time>2013-09-01T14:30:10.000Z</time>
        <extensions>
          <ns3:TrackPointExtension>
            <ns3:atemp>18.0</ns3:atemp>
          </ns3:TrackPointExtension>
        </extensions>
      </trkpt>
      <trkpt lat="46.78531545214354991912841796875" lon="6.86156951822340488433837890625">
        <ele>505.600006103515625</ele>
        <time>2013-09-01T14:30:11.000Z</time>
        <extensions>
          <ns3:TrackPointExtension>
            <ns3:atemp>18.0</ns3:atemp>
          </ns3:TrackPointExtension>
        </extensions>
      </trkpt>
      <trkpt lat="46.7852563597261905670166015625" lon="6.86147899366915225982666015625">
        <ele>505.399993896484375</ele>
        <time>2013-09-01T14:30:12.000Z</time>
        <extensions>
          <ns3:TrackPointExtension>
            <ns3:atemp>18.0</ns3:atemp>
          </ns3:TrackPointExtension>
        </extensions>
      </trkpt>
      <trkpt lat="46.78519659675657749176025390625" lon="6.8613932467997074127197265625">
        <ele>505.20001220703125</ele>
        <time>2013-09-01T14:30:13.000Z</time>
        <extensions>
          <ns3:TrackPointExtension>
            <ns3:atemp>18.0</ns3:atemp>
          </ns3:TrackPointExtension>
        </extensions>
      </trkpt>
      <trkpt lat="46.78513809107244014739990234375" lon="6.8613090924918651580810546875">
        <ele>505.20001220703125</ele>
        <time>2013-09-01T14:30:14.000Z</time>
        <extensions>
          <ns3:TrackPointExtension>
            <ns3:atemp>18.0</ns3:atemp>
          </ns3:TrackPointExtension>
        </extensions>
      </trkpt>
      <trkpt lat="46.78507857955992221832275390625" lon="6.861228458583354949951171875">
        <ele>505</ele>
        <time>2013-09-01T14:30:15.000Z</time>
        <extensions>
          <ns3:TrackPointExtension>
            <ns3:atemp>18.0</ns3:atemp>
          </ns3:TrackPointExtension>
        </extensions>
      </trkpt>
      <trkpt lat="46.78501957096159458160400390625" lon="6.8611474893987178802490234375">
        <ele>504.79998779296875</ele>
        <time>2013-09-01T14:30:16.000Z</time>
        <extensions>
          <ns3:TrackPointExtension>
            <ns3:atemp>18.0</ns3:atemp>
          </ns3:TrackPointExtension>
        </extensions>
      </trkpt>
      <trkpt lat="46.78496492095291614532470703125" lon="6.861064843833446502685546875">
        <ele>505</ele>
        <time>2013-09-01T14:30:17.000Z</time>
        <extensions>
          <ns3:TrackPointExtension>
            <ns3:atemp>18.0</ns3:atemp>
          </ns3:TrackPointExtension>
        </extensions>
      </trkpt>
      <trkpt lat="46.7849137075245380401611328125" lon="6.8609828688204288482666015625">
        <ele>505</ele>
        <time>2013-09-01T14:30:18.000Z</time>
        <extensions>
          <ns3:TrackPointExtension>
            <ns3:atemp>18.0</ns3:atemp>
          </ns3:TrackPointExtension>
        </extensions>
      </trkpt>
      <trkpt lat="46.7848640866577625274658203125" lon="6.8609042465686798095703125">
        <ele>505</ele>
        <time>2013-09-01T14:30:19.000Z</time>
        <extensions>
          <ns3:TrackPointExtension>
            <ns3:atemp>18.0</ns3:atemp>
          </ns3:TrackPointExtension>
        </extensions>
      </trkpt>
      <trkpt lat="46.784816645085811614990234375" lon="6.8608273006975650787353515625">
        <ele>505</ele>
        <time>2013-09-01T14:30:20.000Z</time>
        <extensions>
          <ns3:TrackPointExtension>
            <ns3:atemp>18.0</ns3:atemp>
          </ns3:TrackPointExtension>
        </extensions>
      </trkpt>
      <trkpt lat="46.78476694040000438690185546875" lon="6.8607508577406406402587890625">
        <ele>505</ele>
        <time>2013-09-01T14:30:21.000Z</time>
        <extensions>
          <ns3:TrackPointExtension>
            <ns3:atemp>18.0</ns3:atemp>
          </ns3:TrackPointExtension>
        </extensions>
      </trkpt>
      <trkpt lat="46.78471581079065799713134765625" lon="6.86067818664014339447021484375">
        <ele>504.79998779296875</ele>
        <time>2013-09-01T14:30:22.000Z</time>
        <extensions>
          <ns3:TrackPointExtension>
            <ns3:atemp>18.0</ns3:atemp>
          </ns3:TrackPointExtension>
        </extensions>
      </trkpt>
      <trkpt lat="46.78466820158064365386962890625" lon="6.86060509644448757171630859375">
        <ele>504.79998779296875</ele>
        <time>2013-09-01T14:30:23.000Z</time>
        <extensions>
          <ns3:TrackPointExtension>
            <ns3:atemp>18.0</ns3:atemp>
          </ns3:TrackPointExtension>
        </extensions>
      </trkpt>
      <trkpt lat="46.78461975418031215667724609375" lon="6.860535778105258941650390625">
        <ele>504.79998779296875</ele>
        <time>2013-09-01T14:30:24.000Z</time>
        <extensions>
          <ns3:TrackPointExtension>
            <ns3:atemp>18.0</ns3:atemp>
          </ns3:TrackPointExtension>
        </extensions>
      </trkpt>
      <trkpt lat="46.7845720611512660980224609375" lon="6.86046595685184001922607421875">
        <ele>505</ele>
        <time>2013-09-01T14:30:25.000Z</time>
        <extensions>
          <ns3:TrackPointExtension>
            <ns3:atemp>18.0</ns3:atemp>
          </ns3:TrackPointExtension>
        </extensions>
      </trkpt>
      <trkpt lat="46.784528307616710662841796875" lon="6.86039571650326251983642578125">
        <ele>505</ele>
        <time>2013-09-01T14:30:26.000Z</time>
        <extensions>
          <ns3:TrackPointExtension>
            <ns3:atemp>18.0</ns3:atemp>
          </ns3:TrackPointExtension>
        </extensions>
      </trkpt>
      <trkpt lat="46.78448765538632869720458984375" lon="6.8603243865072727203369140625">
        <ele>505</ele>
        <time>2013-09-01T14:30:27.000Z</time>
        <extensions>
          <ns3:TrackPointExtension>
            <ns3:atemp>18.0</ns3:atemp>
          </ns3:TrackPointExtension>
        </extensions>
      </trkpt>
      <trkpt lat="46.78444591350853443145751953125" lon="6.8602559901773929595947265625">
        <ele>505</ele>
        <time>2013-09-01T14:30:28.000Z</time>
        <extensions>
          <ns3:TrackPointExtension>
            <ns3:atemp>18.0</ns3:atemp>
          </ns3:TrackPointExtension>
        </extensions>
      </trkpt>
      <trkpt lat="46.78440517745912075042724609375" lon="6.8601892702281475067138671875">
        <ele>505</ele>
        <time>2013-09-01T14:30:29.000Z</time>
        <extensions>
          <ns3:TrackPointExtension>
            <ns3:atemp>18.0</ns3:atemp>
          </ns3:TrackPointExtension>
        </extensions>
      </trkpt>
      <trkpt lat="46.7843648605048656463623046875" lon="6.8601259030401706695556640625">
        <ele>504.79998779296875</ele>
        <time>2013-09-01T14:30:30.000Z</time>
        <extensions>
          <ns3:TrackPointExtension>
            <ns3:atemp>18.0</ns3:atemp>
          </ns3:TrackPointExtension>
        </extensions>
      </trkpt>
      <trkpt lat="46.78432412445545196533203125" lon="6.860066391527652740478515625">
        <ele>505</ele>
        <time>2013-09-01T14:30:31.000Z</time>
        <extensions>
          <ns3:TrackPointExtension>
            <ns3:atemp>18.0</ns3:atemp>
          </ns3:TrackPointExtension>
        </extensions>
      </trkpt>
      <trkpt lat="46.78428917191922664642333984375" lon="6.86000646091997623443603515625">
        <ele>505</ele>
        <time>2013-09-01T14:30:32.000Z</time>
        <extensions>
          <ns3:TrackPointExtension>
            <ns3:atemp>18.0</ns3:atemp>
          </ns3:TrackPointExtension>
        </extensions>
      </trkpt>
      <trkpt lat="46.7842505313456058502197265625" lon="6.85995315201580524444580078125">
        <ele>505.20001220703125</ele>
        <time>2013-09-01T14:30:33.000Z</time>
        <extensions>
          <ns3:TrackPointExtension>
            <ns3:atemp>18.0</ns3:atemp>
          </ns3:TrackPointExtension>
        </extensions>
      </trkpt>
      <trkpt lat="46.78421189077198505401611328125" lon="6.8599011003971099853515625">
        <ele>505.20001220703125</ele>
        <time>2013-09-01T14:30:34.000Z</time>
        <extensions>
          <ns3:TrackPointExtension>
            <ns3:atemp>18.0</ns3:atemp>
          </ns3:TrackPointExtension>
        </extensions>
      </trkpt>
      <trkpt lat="46.78417417220771312713623046875" lon="6.8598513118922710418701171875">
        <ele>505.20001220703125</ele>
        <time>2013-09-01T14:30:35.000Z</time>
        <extensions>
          <ns3:TrackPointExtension>
            <ns3:atemp>18.0</ns3:atemp>
          </ns3:TrackPointExtension>
        </extensions>
      </trkpt>
      <trkpt lat="46.7841358669102191925048828125" lon="6.85980428941547870635986328125">
        <ele>505.399993896484375</ele>
        <time>2013-09-01T14:30:36.000Z</time>
        <extensions>
          <ns3:TrackPointExtension>
            <ns3:atemp>18.0</ns3:atemp>
          </ns3:TrackPointExtension>
        </extensions>
      </trkpt>
      <trkpt lat="46.78409881889820098876953125" lon="6.85975852422416210174560546875">
        <ele>505.399993896484375</ele>
        <time>2013-09-01T14:30:37.000Z</time>
        <extensions>
          <ns3:TrackPointExtension>
            <ns3:atemp>18.0</ns3:atemp>
          </ns3:TrackPointExtension>
        </extensions>
      </trkpt>
      <trkpt lat="46.7840775288641452789306640625" lon="6.85969247482717037200927734375">
        <ele>505.399993896484375</ele>
        <time>2013-09-01T14:30:38.000Z</time>
        <extensions>
          <ns3:TrackPointExtension>
            <ns3:atemp>18.0</ns3:atemp>
          </ns3:TrackPointExtension>
        </extensions>
      </trkpt>
      <trkpt lat="46.78408465348184108734130859375" lon="6.8596275150775909423828125">
        <ele>505.600006103515625</ele>
        <time>2013-09-01T14:30:39.000Z</time>
        <extensions>
          <ns3:TrackPointExtension>
            <ns3:atemp>18.0</ns3:atemp>
          </ns3:TrackPointExtension>
        </extensions>
      </trkpt>
      <trkpt lat="46.7841127328574657440185546875" lon="6.859589628875255584716796875">
        <ele>506.20001220703125</ele>
        <time>2013-09-01T14:30:40.000Z</time>
        <extensions>
          <ns3:TrackPointExtension>
            <ns3:atemp>18.0</ns3:atemp>
          </ns3:TrackPointExtension>
        </extensions>
      </trkpt>
      <trkpt lat="46.7841462604701519012451171875" lon="6.859574876725673675537109375">
        <ele>506.79998779296875</ele>
        <time>2013-09-01T14:30:41.000Z</time>
        <extensions>
          <ns3:TrackPointExtension>
            <ns3:atemp>18.0</ns3:atemp>
          </ns3:TrackPointExtension>
        </extensions>
      </trkpt>
      <trkpt lat="46.784175597131252288818359375" lon="6.85956976376473903656005859375">
        <ele>507</ele>
        <time>2013-09-01T14:30:42.000Z</time>
        <extensions>
          <ns3:TrackPointExtension>
            <ns3:atemp>18.0</ns3:atemp>
          </ns3:TrackPointExtension>
        </extensions>
      </trkpt>
      <trkpt lat="46.78420132957398891448974609375" lon="6.8595606274902820587158203125">
        <ele>507.399993896484375</ele>
        <time>2013-09-01T14:30:43.000Z</time>
        <extensions>
          <ns3:TrackPointExtension>
            <ns3:atemp>18.0</ns3:atemp>
          </ns3:TrackPointExtension>
        </extensions>
      </trkpt>
      <trkpt lat="46.78422463126480579376220703125" lon="6.8595505692064762115478515625">
        <ele>507.79998779296875</ele>
        <time>2013-09-01T14:30:44.000Z</time>
        <extensions>
          <ns3:TrackPointExtension>
            <ns3:atemp>18.0</ns3:atemp>
          </ns3:TrackPointExtension>
        </extensions>
      </trkpt>
      <trkpt lat="46.78424726240336894989013671875" lon="6.85953791253268718719482421875">
        <ele>508.20001220703125</ele>
        <time>2013-09-01T14:30:45.000Z</time>
        <extensions>
          <ns3:TrackPointExtension>
            <ns3:atemp>18.0</ns3:atemp>
          </ns3:TrackPointExtension>
        </extensions>
      </trkpt>
      <trkpt lat="46.784270144999027252197265625" lon="6.859525926411151885986328125">
        <ele>508.399993896484375</ele>
        <time>2013-09-01T14:30:46.000Z</time>
        <extensions>
          <ns3:TrackPointExtension>
            <ns3:atemp>18.0</ns3:atemp>
          </ns3:TrackPointExtension>
        </extensions>
      </trkpt>
      <trkpt lat="46.7842931114137172698974609375" lon="6.85951243154704570770263671875">
        <ele>508.79998779296875</ele>
        <time>2013-09-01T14:30:47.000Z</time>
        <extensions>
          <ns3:TrackPointExtension>
            <ns3:atemp>18.0</ns3:atemp>
          </ns3:TrackPointExtension>
        </extensions>
      </trkpt>
      <trkpt lat="46.78431515581905841827392578125" lon="6.8595006130635738372802734375">
        <ele>509.20001220703125</ele>
        <time>2013-09-01T14:30:48.000Z</time>
        <extensions>
          <ns3:TrackPointExtension>
            <ns3:atemp>18.0</ns3:atemp>
          </ns3:TrackPointExtension>
        </extensions>
      </trkpt>
      <trkpt lat="46.7843380384147167205810546875" lon="6.85948602855205535888671875">
        <ele>509.399993896484375</ele>
        <time>2013-09-01T14:30:49.000Z</time>
        <extensions>
          <ns3:TrackPointExtension>
            <ns3:atemp>18.0</ns3:atemp>
          </ns3:TrackPointExtension>
        </extensions>
      </trkpt>
      <trkpt lat="46.78435823880136013031005859375" lon="6.8594741262495517730712890625">
        <ele>509.79998779296875</ele>
        <time>2013-09-01T14:30:50.000Z</time>
        <extensions>
          <ns3:TrackPointExtension>
            <ns3:atemp>18.0</ns3:atemp>
          </ns3:TrackPointExtension>
        </extensions>
      </trkpt>
      <trkpt lat="46.784378103911876678466796875" lon="6.85945744626224040985107421875">
        <ele>510.20001220703125</ele>
        <time>2013-09-01T14:30:51.000Z</time>
        <extensions>
          <ns3:TrackPointExtension>
            <ns3:atemp>18.0</ns3:atemp>
          </ns3:TrackPointExtension>
        </extensions>
      </trkpt>
      <trkpt lat="46.784398555755615234375" lon="6.8594446219503879547119140625">
        <ele>510.399993896484375</ele>
        <time>2013-09-01T14:30:52.000Z</time>
        <extensions>
          <ns3:TrackPointExtension>
            <ns3:atemp>18.0</ns3:atemp>
          </ns3:TrackPointExtension>
        </extensions>
      </trkpt>
      <trkpt lat="46.78441808559000492095947265625" lon="6.8594338931143283843994140625">
        <ele>510.600006103515625</ele>
        <time>2013-09-01T14:30:53.000Z</time>
        <extensions>
          <ns3:TrackPointExtension>
            <ns3:atemp>18.0</ns3:atemp>
          </ns3:TrackPointExtension>
        </extensions>
      </trkpt>
      <trkpt lat="46.7844389565289020538330078125" lon="6.85942173935472965240478515625">
        <ele>511.20001220703125</ele>
        <time>2013-09-01T14:30:54.000Z</time>
        <extensions>
          <ns3:TrackPointExtension>
            <ns3:atemp>18.0</ns3:atemp>
          </ns3:TrackPointExtension>
        </extensions>
      </trkpt>
      <trkpt lat="46.78445664234459400177001953125" lon="6.859409250319004058837890625">
        <ele>511.399993896484375</ele>
        <time>2013-09-01T14:30:55.000Z</time>
        <extensions>
          <ns3:TrackPointExtension>
            <ns3:atemp>18.0</ns3:atemp>
          </ns3:TrackPointExtension>
        </extensions>
      </trkpt>
      <trkpt lat="46.78447223268449306488037109375" lon="6.859388463199138641357421875">
        <ele>511.79998779296875</ele>
        <time>2013-09-01T14:30:56.000Z</time>
        <extensions>
          <ns3:TrackPointExtension>
            <ns3:atemp>18.0</ns3:atemp>
          </ns3:TrackPointExtension>
        </extensions>
      </trkpt>
      <trkpt lat="46.78448882885277271270751953125" lon="6.85936868190765380859375">
        <ele>511.79998779296875</ele>
        <time>2013-09-01T14:30:57.000Z</time>
        <extensions>
          <ns3:TrackPointExtension>
            <ns3:atemp>18.0</ns3:atemp>
          </ns3:TrackPointExtension>
        </extensions>
      </trkpt>
      <trkpt lat="46.78450785577297210693359375" lon="6.85935300774872303009033203125">
        <ele>511.79998779296875</ele>
        <time>2013-09-01T14:30:58.000Z</time>
        <extensions>
          <ns3:TrackPointExtension>
            <ns3:atemp>18.0</ns3:atemp>
          </ns3:TrackPointExtension>
        </extensions>
      </trkpt>
      <trkpt lat="46.78452436812222003936767578125" lon="6.85933758504688739776611328125">
        <ele>512</ele>
        <time>2013-09-01T14:30:59.000Z</time>
        <extensions>
          <ns3:TrackPointExtension>
            <ns3:atemp>18.0</ns3:atemp>
          </ns3:TrackPointExtension>
        </extensions>
      </trkpt>
      <trkpt lat="46.78454280830919742584228515625" lon="6.8593242578208446502685546875">
        <ele>512.20001220703125</ele>
        <time>2013-09-01T14:31:00.000Z</time>
        <extensions>
          <ns3:TrackPointExtension>
            <ns3:atemp>18.0</ns3:atemp>
          </ns3:TrackPointExtension>
        </extensions>
      </trkpt>
      <trkpt lat="46.7845608294010162353515625" lon="6.85931461863219738006591796875">
        <ele>512.4000244140625</ele>
        <time>2013-09-01T14:31:01.000Z</time>
        <extensions>
          <ns3:TrackPointExtension>
            <ns3:atemp>18.0</ns3:atemp>
          </ns3:TrackPointExtension>
        </extensions>
      </trkpt>
      <trkpt lat="46.7845794372260570526123046875" lon="6.85930204577744007110595703125">
        <ele>512.79998779296875</ele>
        <time>2013-09-01T14:31:02.000Z</time>
        <extensions>
          <ns3:TrackPointExtension>
            <ns3:atemp>18.0</ns3:atemp>
          </ns3:TrackPointExtension>
        </extensions>
      </trkpt>
      <trkpt lat="46.7845948599278926849365234375" lon="6.85929014347493648529052734375">
        <ele>513</ele>
        <time>2013-09-01T14:31:03.000Z</time>
        <extensions>
          <ns3:TrackPointExtension>
            <ns3:atemp>18.0</ns3:atemp>
          </ns3:TrackPointExtension>
        </extensions>
      </trkpt>
      <trkpt lat="46.7846153117716312408447265625" lon="6.8592860363423824310302734375">
        <ele>513.4000244140625</ele>
        <time>2013-09-01T14:31:04.000Z</time>
        <extensions>
          <ns3:TrackPointExtension>
            <ns3:atemp>18.0</ns3:atemp>
          </ns3:TrackPointExtension>
        </extensions>
      </trkpt>
      <trkpt lat="46.7846320755779743194580078125" lon="6.85928243212401866912841796875">
        <ele>513.79998779296875</ele>
        <time>2013-09-01T14:31:05.000Z</time>
        <extensions>
          <ns3:TrackPointExtension>
            <ns3:atemp>18.0</ns3:atemp>
          </ns3:TrackPointExtension>
        </extensions>
      </trkpt>
      <trkpt lat="46.78465261124074459075927734375" lon="6.8592850305140018463134765625">
        <ele>514</ele>
        <time>2013-09-01T14:31:06.000Z</time>
        <extensions>
          <ns3:TrackPointExtension>
            <ns3:atemp>18.0</ns3:atemp>
          </ns3:TrackPointExtension>
        </extensions>
      </trkpt>
      <trkpt lat="46.78467088378965854644775390625" lon="6.85928662307560443878173828125">
        <ele>514.20001220703125</ele>
        <time>2013-09-01T14:31:07.000Z</time>
        <extensions>
          <ns3:TrackPointExtension>
            <ns3:atemp>18.0</ns3:atemp>
          </ns3:TrackPointExtension>
        </extensions>
      </trkpt>
      <trkpt lat="46.784689240157604217529296875" lon="6.85929332859814167022705078125">
        <ele>514.4000244140625</ele>
        <time>2013-09-01T14:31:08.000Z</time>
        <extensions>
          <ns3:TrackPointExtension>
            <ns3:atemp>18.0</ns3:atemp>
          </ns3:TrackPointExtension>
        </extensions>
      </trkpt>
      <trkpt lat="46.78470768034458160400390625" lon="6.8593071587383747100830078125">
        <ele>514.5999755859375</ele>
        <time>2013-09-01T14:31:09.000Z</time>
        <extensions>
          <ns3:TrackPointExtension>
            <ns3:atemp>18.0</ns3:atemp>
          </ns3:TrackPointExtension>
        </extensions>
      </trkpt>
      <trkpt lat="46.784723438322544097900390625" lon="6.8593239225447177886962890625">
        <ele>514.79998779296875</ele>
        <time>2013-09-01T14:31:10.000Z</time>
        <extensions>
          <ns3:TrackPointExtension>
            <ns3:atemp>18.0</ns3:atemp>
          </ns3:TrackPointExtension>
        </extensions>
      </trkpt>
      <trkpt lat="46.784738190472126007080078125" lon="6.85934730805456638336181640625">
        <ele>515.20001220703125</ele>
        <time>2013-09-01T14:31:11.000Z</time>
        <extensions>
          <ns3:TrackPointExtension>
            <ns3:atemp>18.0</ns3:atemp>
          </ns3:TrackPointExtension>
        </extensions>
      </trkpt>
      <trkpt lat="46.78475470282137393951416015625" lon="6.85937069356441497802734375">
        <ele>515.4000244140625</ele>
        <time>2013-09-01T14:31:12.000Z</time>
        <extensions>
          <ns3:TrackPointExtension>
            <ns3:atemp>18.0</ns3:atemp>
          </ns3:TrackPointExtension>
        </extensions>
      </trkpt>
      <trkpt lat="46.78477532230317592620849609375" lon="6.8593946658074855804443359375">
        <ele>515.5999755859375</ele>
        <time>2013-09-01T14:31:13.000Z</time>
        <extensions>
          <ns3:TrackPointExtension>
            <ns3:atemp>18.0</ns3:atemp>
          </ns3:TrackPointExtension>
        </extensions>
      </trkpt>
      <trkpt lat="46.78479258902370929718017578125" lon="6.8594198115170001983642578125">
        <ele>516</ele>
        <time>2013-09-01T14:31:14.000Z</time>
        <extensions>
          <ns3:TrackPointExtension>
            <ns3:atemp>18.0</ns3:atemp>
          </ns3:TrackPointExtension>
        </extensions>
      </trkpt>
      <trkpt lat="46.78480482660233974456787109375" lon="6.8594459630548954010009765625">
        <ele>516.5999755859375</ele>
        <time>2013-09-01T14:31:15.000Z</time>
        <extensions>
          <ns3:TrackPointExtension>
            <ns3:atemp>18.0</ns3:atemp>
          </ns3:TrackPointExtension>
        </extensions>
      </trkpt>
      <trkpt lat="46.78481941111385822296142578125" lon="6.8594714440405368804931640625">
        <ele>517</ele>
        <time>2013-09-01T14:31:16.000Z</time>
        <extensions>
          <ns3:TrackPointExtension>
            <ns3:atemp>18.0</ns3:atemp>
          </ns3:TrackPointExtension>
        </extensions>
      </trkpt>
      <trkpt lat="46.78483483381569385528564453125" lon="6.85949885286390781402587890625">
        <ele>517.20001220703125</ele>
        <time>2013-09-01T14:31:17.000Z</time>
        <extensions>
          <ns3:TrackPointExtension>
            <ns3:atemp>18.0</ns3:atemp>
          </ns3:TrackPointExtension>
        </extensions>
      </trkpt>
      <trkpt lat="46.784850172698497772216796875" lon="6.8595255911350250244140625">
        <ele>517.4000244140625</ele>
        <time>2013-09-01T14:31:18.000Z</time>
        <extensions>
          <ns3:TrackPointExtension>
            <ns3:atemp>18.0</ns3:atemp>
          </ns3:TrackPointExtension>
        </extensions>
      </trkpt>
      <trkpt lat="46.7848657630383968353271484375" lon="6.8595478869974613189697265625">
        <ele>517.79998779296875</ele>
        <time>2013-09-01T14:31:19.000Z</time>
        <extensions>
          <ns3:TrackPointExtension>
            <ns3:atemp>18.0</ns3:atemp>
          </ns3:TrackPointExtension>
        </extensions>
      </trkpt>
      <trkpt lat="46.7848845385015010833740234375" lon="6.85957144014537334442138671875">
        <ele>518</ele>
        <time>2013-09-01T14:31:20.000Z</time>
        <extensions>
          <ns3:TrackPointExtension>
            <ns3:atemp>18.0</ns3:atemp>
          </ns3:TrackPointExtension>
        </extensions>
      </trkpt>
      <trkpt lat="46.78490306250751018524169921875" lon="6.85958795249462127685546875">
        <ele>518.20001220703125</ele>
        <time>2013-09-01T14:31:21.000Z</time>
        <extensions>
          <ns3:TrackPointExtension>
            <ns3:atemp>18.0</ns3:atemp>
          </ns3:TrackPointExtension>
        </extensions>
      </trkpt>
      <trkpt lat="46.78492619656026363372802734375" lon="6.85960195027291774749755859375">
        <ele>518.5999755859375</ele>
        <time>2013-09-01T14:31:22.000Z</time>
        <extensions>
          <ns3:TrackPointExtension>
            <ns3:atemp>18.0</ns3:atemp>
          </ns3:TrackPointExtension>
        </extensions>
      </trkpt>
      <trkpt lat="46.7849475704133510589599609375" lon="6.8596152774989604949951171875">
        <ele>518.79998779296875</ele>
        <time>2013-09-01T14:31:23.000Z</time>
        <extensions>
          <ns3:TrackPointExtension>
            <ns3:atemp>18.0</ns3:atemp>
          </ns3:TrackPointExtension>
        </extensions>
      </trkpt>
      <trkpt lat="46.78496592678129673004150390625" lon="6.8596355617046356201171875">
        <ele>519</ele>
        <time>2013-09-01T14:31:24.000Z</time>
        <extensions>
          <ns3:TrackPointExtension>
            <ns3:atemp>18.0</ns3:atemp>
          </ns3:TrackPointExtension>
        </extensions>
      </trkpt>
      <trkpt lat="46.78498319350183010101318359375" lon="6.85965257696807384490966796875">
        <ele>519.20001220703125</ele>
        <time>2013-09-01T14:31:25.000Z</time>
        <extensions>
          <ns3:TrackPointExtension>
            <ns3:atemp>18.0</ns3:atemp>
          </ns3:TrackPointExtension>
        </extensions>
      </trkpt>
      <trkpt lat="46.78500004112720489501953125" lon="6.85967118479311466217041015625">
        <ele>519.4000244140625</ele>
        <time>2013-09-01T14:31:26.000Z</time>
        <extensions>
          <ns3:TrackPointExtension>
            <ns3:atemp>18.0</ns3:atemp>
          </ns3:TrackPointExtension>
        </extensions>
      </trkpt>
      <trkpt lat="46.78501856513321399688720703125" lon="6.859690882265567779541015625">
        <ele>519.5999755859375</ele>
        <time>2013-09-01T14:31:27.000Z</time>
        <extensions>
          <ns3:TrackPointExtension>
            <ns3:atemp>18.0</ns3:atemp>
          </ns3:TrackPointExtension>
        </extensions>
      </trkpt>
      <trkpt lat="46.78503616712987422943115234375" lon="6.859714351594448089599609375">
        <ele>520</ele>
        <time>2013-09-01T14:31:28.000Z</time>
        <extensions>
          <ns3:TrackPointExtension>
            <ns3:atemp>18.0</ns3:atemp>
          </ns3:TrackPointExtension>
        </extensions>
      </trkpt>
      <trkpt lat="46.7850548587739467620849609375" lon="6.859736144542694091796875">
        <ele>520.20001220703125</ele>
        <time>2013-09-01T14:31:29.000Z</time>
        <extensions>
          <ns3:TrackPointExtension>
            <ns3:atemp>18.0</ns3:atemp>
          </ns3:TrackPointExtension>
        </extensions>
      </trkpt>
      <trkpt lat="46.785076819360256195068359375" lon="6.8597495555877685546875">
        <ele>520.4000244140625</ele>
        <time>2013-09-01T14:31:30.000Z</time>
        <extensions>
          <ns3:TrackPointExtension>
            <ns3:atemp>18.0</ns3:atemp>
          </ns3:TrackPointExtension>
        </extensions>
      </trkpt>
      <trkpt lat="46.7850984446704387664794921875" lon="6.85976506210863590240478515625">
        <ele>520.5999755859375</ele>
        <time>2013-09-01T14:31:31.000Z</time>
        <extensions>
          <ns3:TrackPointExtension>
            <ns3:atemp>18.0</ns3:atemp>
          </ns3:TrackPointExtension>
        </extensions>
      </trkpt>
      <trkpt lat="46.7851178906857967376708984375" lon="6.85978199355304241180419921875">
        <ele>520.79998779296875</ele>
        <time>2013-09-01T14:31:32.000Z</time>
        <extensions>
          <ns3:TrackPointExtension>
            <ns3:atemp>18.0</ns3:atemp>
          </ns3:TrackPointExtension>
        </extensions>
      </trkpt>
      <trkpt lat="46.78513892926275730133056640625" lon="6.85979775153100490570068359375">
        <ele>520.79998779296875</ele>
        <time>2013-09-01T14:31:33.000Z</time>
        <extensions>
          <ns3:TrackPointExtension>
            <ns3:atemp>18.0</ns3:atemp>
          </ns3:TrackPointExtension>
        </extensions>
      </trkpt>
      <trkpt lat="46.7851603031158447265625" lon="6.8598181195557117462158203125">
        <ele>521</ele>
        <time>2013-09-01T14:31:34.000Z</time>
        <extensions>
          <ns3:TrackPointExtension>
            <ns3:atemp>18.0</ns3:atemp>
          </ns3:TrackPointExtension>
        </extensions>
      </trkpt>
      <trkpt lat="46.7851822637021541595458984375" lon="6.8598342128098011016845703125">
        <ele>521.20001220703125</ele>
        <time>2013-09-01T14:31:35.000Z</time>
        <extensions>
          <ns3:TrackPointExtension>
            <ns3:atemp>18.0</ns3:atemp>
          </ns3:TrackPointExtension>
        </extensions>
      </trkpt>
      <trkpt lat="46.78520346991717815399169921875" lon="6.85985055752098560333251953125">
        <ele>521.4000244140625</ele>
        <time>2013-09-01T14:31:36.000Z</time>
        <extensions>
          <ns3:TrackPointExtension>
            <ns3:atemp>18.0</ns3:atemp>
          </ns3:TrackPointExtension>
        </extensions>
      </trkpt>
      <trkpt lat="46.785227023065090179443359375" lon="6.8598647229373455047607421875">
        <ele>521.5999755859375</ele>
        <time>2013-09-01T14:31:37.000Z</time>
        <extensions>
          <ns3:TrackPointExtension>
            <ns3:atemp>18.0</ns3:atemp>
          </ns3:TrackPointExtension>
        </extensions>
      </trkpt>
      <trkpt lat="46.785252504050731658935546875" lon="6.85988006182014942169189453125">
        <ele>521.79998779296875</ele>
        <time>2013-09-01T14:31:38.000Z</time>
        <extensions>
          <ns3:TrackPointExtension>
            <ns3:atemp>18.0</ns3:atemp>
          </ns3:TrackPointExtension>
        </extensions>
      </trkpt>
      <trkpt lat="46.7852731235325336456298828125" lon="6.85989548452198505401611328125">
        <ele>522</ele>
        <time>2013-09-01T14:31:39.000Z</time>
        <extensions>
          <ns3:TrackPointExtension>
            <ns3:atemp>18.0</ns3:atemp>
          </ns3:TrackPointExtension>
        </extensions>
      </trkpt>
      <trkpt lat="46.78529441356658935546875" lon="6.85991249978542327880859375">
        <ele>522.20001220703125</ele>
        <time>2013-09-01T14:31:40.000Z</time>
        <extensions>
          <ns3:TrackPointExtension>
            <ns3:atemp>18.0</ns3:atemp>
          </ns3:TrackPointExtension>
        </extensions>
      </trkpt>
      <trkpt lat="46.785316206514835357666015625" lon="6.859929598867893218994140625">
        <ele>522.4000244140625</ele>
        <time>2013-09-01T14:31:41.000Z</time>
        <extensions>
          <ns3:TrackPointExtension>
            <ns3:atemp>18.0</ns3:atemp>
          </ns3:TrackPointExtension>
        </extensions>
      </trkpt>
      <trkpt lat="46.7853398434817790985107421875" lon="6.85994041152298450469970703125">
        <ele>522.5999755859375</ele>
        <time>2013-09-01T14:31:42.000Z</time>
        <extensions>
          <ns3:TrackPointExtension>
            <ns3:atemp>18.0</ns3:atemp>
          </ns3:TrackPointExtension>
        </extensions>
      </trkpt>
      <trkpt lat="46.78536482155323028564453125" lon="6.8599440157413482666015625">
        <ele>522.79998779296875</ele>
        <time>2013-09-01T14:31:43.000Z</time>
        <extensions>
          <ns3:TrackPointExtension>
            <ns3:atemp>18.0</ns3:atemp>
          </ns3:TrackPointExtension>
        </extensions>
      </trkpt>
      <trkpt lat="46.7853904701769351959228515625" lon="6.85994803905487060546875">
        <ele>523</ele>
        <time>2013-09-01T14:31:44.000Z</time>
        <extensions>
          <ns3:TrackPointExtension>
            <ns3:atemp>18.0</ns3:atemp>
          </ns3:TrackPointExtension>
        </extensions>
      </trkpt>
      <trkpt lat="46.78541838191449642181396484375" lon="6.85994678176939487457275390625">
        <ele>523.20001220703125</ele>
        <time>2013-09-01T14:31:45.000Z</time>
        <extensions>
          <ns3:TrackPointExtension>
            <ns3:atemp>18.0</ns3:atemp>
          </ns3:TrackPointExtension>
        </extensions>
      </trkpt>
      <trkpt lat="46.78544436581432819366455078125" lon="6.85994057916104793548583984375">
        <ele>523.5999755859375</ele>
        <time>2013-09-01T14:31:46.000Z</time>
        <extensions>
          <ns3:TrackPointExtension>
            <ns3:atemp>18.0</ns3:atemp>
          </ns3:TrackPointExtension>
        </extensions>
      </trkpt>
      <trkpt lat="46.78546808660030364990234375" lon="6.85993337072432041168212890625">
        <ele>523.5999755859375</ele>
        <time>2013-09-01T14:31:47.000Z</time>
        <extensions>
          <ns3:TrackPointExtension>
            <ns3:atemp>18.0</ns3:atemp>
          </ns3:TrackPointExtension>
        </extensions>
      </trkpt>
      <trkpt lat="46.78549046628177165985107421875" lon="6.85993119142949581146240234375">
        <ele>523.5999755859375</ele>
        <time>2013-09-01T14:31:48.000Z</time>
        <extensions>
          <ns3:TrackPointExtension>
            <ns3:atemp>18.0</ns3:atemp>
          </ns3:TrackPointExtension>
        </extensions>
      </trkpt>
      <trkpt lat="46.7855131812393665313720703125" lon="6.8599213846027851104736328125">
        <ele>523.79998779296875</ele>
        <time>2013-09-01T14:31:49.000Z</time>
        <extensions>
          <ns3:TrackPointExtension>
            <ns3:atemp>18.0</ns3:atemp>
          </ns3:TrackPointExtension>
        </extensions>
      </trkpt>
      <trkpt lat="46.78553287871181964874267578125" lon="6.85990311205387115478515625">
        <ele>524</ele>
        <time>2013-09-01T14:31:50.000Z</time>
        <extensions>
          <ns3:TrackPointExtension>
            <ns3:atemp>18.0</ns3:atemp>
          </ns3:TrackPointExtension>
        </extensions>
      </trkpt>
      <trkpt lat="46.78555148653686046600341796875" lon="6.8598824925720691680908203125">
        <ele>524.20001220703125</ele>
        <time>2013-09-01T14:31:51.000Z</time>
        <extensions>
          <ns3:TrackPointExtension>
            <ns3:atemp>18.0</ns3:atemp>
          </ns3:TrackPointExtension>
        </extensions>
      </trkpt>
      <trkpt lat="46.78557177074253559112548828125" lon="6.8598596937954425811767578125">
        <ele>524.5999755859375</ele>
        <time>2013-09-01T14:31:52.000Z</time>
        <extensions>
          <ns3:TrackPointExtension>
            <ns3:atemp>18.0</ns3:atemp>
          </ns3:TrackPointExtension>
        </extensions>
      </trkpt>
      <trkpt lat="46.78559389896690845489501953125" lon="6.85983563773334026336669921875">
        <ele>524.5999755859375</ele>
        <time>2013-09-01T14:31:53.000Z</time>
        <extensions>
          <ns3:TrackPointExtension>
            <ns3:atemp>18.0</ns3:atemp>
          </ns3:TrackPointExtension>
        </extensions>
      </trkpt>
      <trkpt lat="46.7856100760400295257568359375" lon="6.85980948619544506072998046875">
        <ele>524.79998779296875</ele>
        <time>2013-09-01T14:31:54.000Z</time>
        <extensions>
          <ns3:TrackPointExtension>
            <ns3:atemp>18.0</ns3:atemp>
          </ns3:TrackPointExtension>
        </extensions>
      </trkpt>
      <trkpt lat="46.785623989999294281005859375" lon="6.85978710651397705078125">
        <ele>524.79998779296875</ele>
        <time>2013-09-01T14:31:55.000Z</time>
        <extensions>
          <ns3:TrackPointExtension>
            <ns3:atemp>18.0</ns3:atemp>
          </ns3:TrackPointExtension>
        </extensions>
      </trkpt>
      <trkpt lat="46.78564016707241535186767578125" lon="6.85976321808993816375732421875">
        <ele>525</ele>
        <time>2013-09-01T14:31:56.000Z</time>
        <extensions>
          <ns3:TrackPointExtension>
            <ns3:atemp>18.0</ns3:atemp>
          </ns3:TrackPointExtension>
        </extensions>
      </trkpt>
      <trkpt lat="46.7856533266603946685791015625" lon="6.8597326241433620452880859375">
        <ele>525.20001220703125</ele>
        <time>2013-09-01T14:31:57.000Z</time>
        <extensions>
          <ns3:TrackPointExtension>
            <ns3:atemp>18.0</ns3:atemp>
          </ns3:TrackPointExtension>
        </extensions>
      </trkpt>
      <trkpt lat="46.78566413931548595428466796875" lon="6.85969834215939044952392578125">
        <ele>525.4000244140625</ele>
        <time>2013-09-01T14:31:58.000Z</time>
        <extensions>
          <ns3:TrackPointExtension>
            <ns3:atemp>18.0</ns3:atemp>
          </ns3:TrackPointExtension>
        </extensions>
      </trkpt>
      <trkpt lat="46.78567185066640377044677734375" lon="6.85966531746089458465576171875">
        <ele>525.5999755859375</ele>
        <time>2013-09-01T14:31:59.000Z</time>
        <extensions>
          <ns3:TrackPointExtension>
            <ns3:atemp>18.0</ns3:atemp>
          </ns3:TrackPointExtension>
        </extensions>
      </trkpt>
      <trkpt lat="46.78567922674119472503662109375" lon="6.8596328794956207275390625">
        <ele>525.79998779296875</ele>
        <time>2013-09-01T14:32:00.000Z</time>
        <extensions>
          <ns3:TrackPointExtension>
            <ns3:atemp>18.0</ns3:atemp>
          </ns3:TrackPointExtension>
        </extensions>
      </trkpt>
      <trkpt lat="46.78568777628242969512939453125" lon="6.85959876514971256256103515625">
        <ele>526</ele>
        <time>2013-09-01T14:32:01.000Z</time>
        <extensions>
          <ns3:TrackPointExtension>
            <ns3:atemp>18.0</ns3:atemp>
          </ns3:TrackPointExtension>
        </extensions>
      </trkpt>
      <trkpt lat="46.785693056881427764892578125" lon="6.85956222005188465118408203125">
        <ele>526.20001220703125</ele>
        <time>2013-09-01T14:32:02.000Z</time>
        <extensions>
          <ns3:TrackPointExtension>
            <ns3:atemp>18.0</ns3:atemp>
          </ns3:TrackPointExtension>
        </extensions>
      </trkpt>
      <trkpt lat="46.78569414652884006500244140625" lon="6.8595264293253421783447265625">
        <ele>526.4000244140625</ele>
        <time>2013-09-01T14:32:03.000Z</time>
        <extensions>
          <ns3:TrackPointExtension>
            <ns3:atemp>18.0</ns3:atemp>
          </ns3:TrackPointExtension>
        </extensions>
      </trkpt>
      <trkpt lat="46.7856979183852672576904296875" lon="6.85949273407459259033203125">
        <ele>526.79998779296875</ele>
        <time>2013-09-01T14:32:04.000Z</time>
        <extensions>
          <ns3:TrackPointExtension>
            <ns3:atemp>18.0</ns3:atemp>
          </ns3:TrackPointExtension>
        </extensions>
      </trkpt>
      <trkpt lat="46.78570504300296306610107421875" lon="6.85945828445255756378173828125">
        <ele>527</ele>
        <time>2013-09-01T14:32:05.000Z</time>
        <extensions>
          <ns3:TrackPointExtension>
            <ns3:atemp>18.0</ns3:atemp>
          </ns3:TrackPointExtension>
        </extensions>
      </trkpt>
      <trkpt lat="46.7857136763632297515869140625" lon="6.85942794196307659149169921875">
        <ele>527.20001220703125</ele>
        <time>2013-09-01T14:32:06.000Z</time>
        <extensions>
          <ns3:TrackPointExtension>
            <ns3:atemp>18.0</ns3:atemp>
          </ns3:TrackPointExtension>
        </extensions>
      </trkpt>
      <trkpt lat="46.7857207171618938446044921875" lon="6.85939575545489788055419921875">
        <ele>527.4000244140625</ele>
        <time>2013-09-01T14:32:07.000Z</time>
        <extensions>
          <ns3:TrackPointExtension>
            <ns3:atemp>18.0</ns3:atemp>
          </ns3:TrackPointExtension>
        </extensions>
      </trkpt>
      <trkpt lat="46.78573136217892169952392578125" lon="6.85936474241316318511962890625">
        <ele>527.5999755859375</ele>
        <time>2013-09-01T14:32:08.000Z</time>
        <extensions>
          <ns3:TrackPointExtension>
            <ns3:atemp>18.0</ns3:atemp>
          </ns3:TrackPointExtension>
        </extensions>
      </trkpt>
      <trkpt lat="46.78573840297758579254150390625" lon="6.85933255590498447418212890625">
        <ele>527.79998779296875</ele>
        <time>2013-09-01T14:32:09.000Z</time>
        <extensions>
          <ns3:TrackPointExtension>
            <ns3:atemp>18.0</ns3:atemp>
          </ns3:TrackPointExtension>
        </extensions>
      </trkpt>
      <trkpt lat="46.78574410267174243927001953125" lon="6.85930053703486919403076171875">
        <ele>528</ele>
        <time>2013-09-01T14:32:10.000Z</time>
        <extensions>
          <ns3:TrackPointExtension>
            <ns3:atemp>18.0</ns3:atemp>
          </ns3:TrackPointExtension>
        </extensions>
      </trkpt>
      <trkpt lat="46.7857518978416919708251953125" lon="6.85926550067961215972900390625">
        <ele>528</ele>
        <time>2013-09-01T14:32:11.000Z</time>
        <extensions>
          <ns3:TrackPointExtension>
            <ns3:atemp>18.0</ns3:atemp>
          </ns3:TrackPointExtension>
        </extensions>
      </trkpt>
      <trkpt lat="46.78576136939227581024169921875" lon="6.859231889247894287109375">
        <ele>528.20001220703125</ele>
        <time>2013-09-01T14:32:12.000Z</time>
        <extensions>
          <ns3:TrackPointExtension>
            <ns3:atemp>18.0</ns3:atemp>
          </ns3:TrackPointExtension>
        </extensions>
      </trkpt>
      <trkpt lat="46.7857673205435276031494140625" lon="6.8591961823403835296630859375">
        <ele>528.4000244140625</ele>
        <time>2013-09-01T14:32:13.000Z</time>
        <extensions>
          <ns3:TrackPointExtension>
            <ns3:atemp>18.0</ns3:atemp>
          </ns3:TrackPointExtension>
        </extensions>
      </trkpt>
      <trkpt lat="46.7857716791331768035888671875" lon="6.8591606430709362030029296875">
        <ele>528.5999755859375</ele>
        <time>2013-09-01T14:32:14.000Z</time>
        <extensions>
          <ns3:TrackPointExtension>
            <ns3:atemp>18.0</ns3:atemp>
          </ns3:TrackPointExtension>
        </extensions>
      </trkpt>
      <trkpt lat="46.78577947430312633514404296875" lon="6.85912661254405975341796875">
        <ele>528.5999755859375</ele>
        <time>2013-09-01T14:32:15.000Z</time>
        <extensions>
          <ns3:TrackPointExtension>
            <ns3:atemp>18.0</ns3:atemp>
          </ns3:TrackPointExtension>
        </extensions>
      </trkpt>
      <trkpt lat="46.78578592836856842041015625" lon="6.8590909056365489959716796875">
        <ele>529</ele>
        <time>2013-09-01T14:32:16.000Z</time>
        <extensions>
          <ns3:TrackPointExtension>
            <ns3:atemp>18.0</ns3:atemp>
          </ns3:TrackPointExtension>
        </extensions>
      </trkpt>
      <trkpt lat="46.78579255007207393646240234375" lon="6.85905679129064083099365234375">
        <ele>529.4000244140625</ele>
        <time>2013-09-01T14:32:17.000Z</time>
        <extensions>
          <ns3:TrackPointExtension>
            <ns3:atemp>18.0</ns3:atemp>
          </ns3:TrackPointExtension>
        </extensions>
      </trkpt>
      <trkpt lat="46.7858008481562137603759765625" lon="6.85902141965925693511962890625">
        <ele>529.5999755859375</ele>
        <time>2013-09-01T14:32:18.000Z</time>
        <extensions>
          <ns3:TrackPointExtension>
            <ns3:atemp>18.0</ns3:atemp>
          </ns3:TrackPointExtension>
        </extensions>
      </trkpt>
      <trkpt lat="46.7858082242310047149658203125" lon="6.85898847877979278564453125">
        <ele>529.79998779296875</ele>
        <time>2013-09-01T14:32:19.000Z</time>
        <extensions>
          <ns3:TrackPointExtension>
            <ns3:atemp>18.0</ns3:atemp>
          </ns3:TrackPointExtension>
        </extensions>
      </trkpt>
      <trkpt lat="46.785812415182590484619140625" lon="6.85895629227161407470703125">
        <ele>530</ele>
        <time>2013-09-01T14:32:20.000Z</time>
        <extensions>
          <ns3:TrackPointExtension>
            <ns3:atemp>18.0</ns3:atemp>
          </ns3:TrackPointExtension>
        </extensions>
      </trkpt>
      <trkpt lat="46.7858192883431911468505859375" lon="6.85892586596310138702392578125">
        <ele>530</ele>
        <time>2013-09-01T14:32:21.000Z</time>
        <extensions>
          <ns3:TrackPointExtension>
            <ns3:atemp>18.0</ns3:atemp>
          </ns3:TrackPointExtension>
        </extensions>
      </trkpt>
      <trkpt lat="46.78582423366606235504150390625" lon="6.85889569111168384552001953125">
        <ele>530.20001220703125</ele>
        <time>2013-09-01T14:32:22.000Z</time>
        <extensions>
          <ns3:TrackPointExtension>
            <ns3:atemp>18.0</ns3:atemp>
          </ns3:TrackPointExtension>
        </extensions>
      </trkpt>
      <trkpt lat="46.78582926280796527862548828125" lon="6.85886585153639316558837890625">
        <ele>530.4000244140625</ele>
        <time>2013-09-01T14:32:23.000Z</time>
        <extensions>
          <ns3:TrackPointExtension>
            <ns3:atemp>18.0</ns3:atemp>
          </ns3:TrackPointExtension>
        </extensions>
      </trkpt>
      <trkpt lat="46.78583395667374134063720703125" lon="6.85883349739015102386474609375">
        <ele>530.79998779296875</ele>
        <time>2013-09-01T14:32:24.000Z</time>
        <extensions>
          <ns3:TrackPointExtension>
            <ns3:atemp>18.0</ns3:atemp>
          </ns3:TrackPointExtension>
        </extensions>
      </trkpt>
      <trkpt lat="46.78583730943500995635986328125" lon="6.8588069267570972442626953125">
        <ele>531</ele>
        <time>2013-09-01T14:32:25.000Z</time>
        <extensions>
          <ns3:TrackPointExtension>
            <ns3:atemp>18.0</ns3:atemp>
          </ns3:TrackPointExtension>
        </extensions>
      </trkpt>
      <trkpt lat="46.7858417518436908721923828125" lon="6.85877918265759944915771484375">
        <ele>531.20001220703125</ele>
        <time>2013-09-01T14:32:26.000Z</time>
        <extensions>
          <ns3:TrackPointExtension>
            <ns3:atemp>18.0</ns3:atemp>
          </ns3:TrackPointExtension>
        </extensions>
      </trkpt>
      <trkpt lat="46.78584736771881580352783203125" lon="6.85875110328197479248046875">
        <ele>531.4000244140625</ele>
        <time>2013-09-01T14:32:27.000Z</time>
        <extensions>
          <ns3:TrackPointExtension>
            <ns3:atemp>18.0</ns3:atemp>
          </ns3:TrackPointExtension>
        </extensions>
      </trkpt>
      <trkpt lat="46.78585088811814785003662109375" lon="6.85871950350701808929443359375">
        <ele>531.5999755859375</ele>
        <time>2013-09-01T14:32:28.000Z</time>
        <extensions>
          <ns3:TrackPointExtension>
            <ns3:atemp>18.0</ns3:atemp>
          </ns3:TrackPointExtension>
        </extensions>
      </trkpt>
      <trkpt lat="46.78585692308843135833740234375" lon="6.858690083026885986328125">
        <ele>531.5999755859375</ele>
        <time>2013-09-01T14:32:29.000Z</time>
        <extensions>
          <ns3:TrackPointExtension>
            <ns3:atemp>18.0</ns3:atemp>
          </ns3:TrackPointExtension>
        </extensions>
      </trkpt>
      <trkpt lat="46.7858588509261608123779296875" lon="6.85866116546094417572021484375">
        <ele>532</ele>
        <time>2013-09-01T14:32:30.000Z</time>
        <extensions>
          <ns3:TrackPointExtension>
            <ns3:atemp>18.0</ns3:atemp>
          </ns3:TrackPointExtension>
        </extensions>
      </trkpt>
      <trkpt lat="46.7858591862022876739501953125" lon="6.8586352653801441192626953125">
        <ele>532.20001220703125</ele>
        <time>2013-09-01T14:32:31.000Z</time>
        <extensions>
          <ns3:TrackPointExtension>
            <ns3:atemp>18.0</ns3:atemp>
          </ns3:TrackPointExtension>
        </extensions>
      </trkpt>
      <trkpt lat="46.7858652211725711822509765625" lon="6.85861070640385150909423828125">
        <ele>532.5999755859375</ele>
        <time>2013-09-01T14:32:32.000Z</time>
        <extensions>
          <ns3:TrackPointExtension>
            <ns3:atemp>18.0</ns3:atemp>
          </ns3:TrackPointExtension>
        </extensions>
      </trkpt>
      <trkpt lat="46.7858658917248249053955078125" lon="6.85858237557113170623779296875">
        <ele>533</ele>
        <time>2013-09-01T14:32:33.000Z</time>
        <extensions>
          <ns3:TrackPointExtension>
            <ns3:atemp>18.0</ns3:atemp>
          </ns3:TrackPointExtension>
        </extensions>
      </trkpt>
      <trkpt lat="46.78586413152515888214111328125" lon="6.8585534580051898956298828125">
        <ele>533.20001220703125</ele>
        <time>2013-09-01T14:32:34.000Z</time>
        <extensions>
          <ns3:TrackPointExtension>
            <ns3:atemp>18.0</ns3:atemp>
          </ns3:TrackPointExtension>
        </extensions>
      </trkpt>
      <trkpt lat="46.78586597554385662078857421875" lon="6.85852588154375553131103515625">
        <ele>533.20001220703125</ele>
        <time>2013-09-01T14:32:35.000Z</time>
        <extensions>
          <ns3:TrackPointExtension>
            <ns3:atemp>18.0</ns3:atemp>
          </ns3:TrackPointExtension>
        </extensions>
      </trkpt>
      <trkpt lat="46.78586446680128574371337890625" lon="6.8584974668920040130615234375">
        <ele>533.4000244140625</ele>
        <time>2013-09-01T14:32:36.000Z</time>
        <extensions>
          <ns3:TrackPointExtension>
            <ns3:atemp>18.0</ns3:atemp>
          </ns3:TrackPointExtension>
        </extensions>
      </trkpt>
      <trkpt lat="46.78586530499160289764404296875" lon="6.85847341082990169525146484375">
        <ele>533.79998779296875</ele>
        <time>2013-09-01T14:32:37.000Z</time>
        <extensions>
          <ns3:TrackPointExtension>
            <ns3:atemp>18.0</ns3:atemp>
          </ns3:TrackPointExtension>
        </extensions>
      </trkpt>
      <trkpt lat="46.78586279042065143585205078125" lon="6.8584475107491016387939453125">
        <ele>534.20001220703125</ele>
        <time>2013-09-01T14:32:38.000Z</time>
        <extensions>
          <ns3:TrackPointExtension>
            <ns3:atemp>18.0</ns3:atemp>
          </ns3:TrackPointExtension>
        </extensions>
      </trkpt>
      <trkpt lat="46.7858578450977802276611328125" lon="6.85842194594442844390869140625">
        <ele>534.4000244140625</ele>
        <time>2013-09-01T14:32:39.000Z</time>
        <extensions>
          <ns3:TrackPointExtension>
            <ns3:atemp>18.0</ns3:atemp>
          </ns3:TrackPointExtension>
        </extensions>
      </trkpt>
      <trkpt lat="46.7858595214784145355224609375" lon="6.85839445330202579498291015625">
        <ele>535</ele>
        <time>2013-09-01T14:32:40.000Z</time>
        <extensions>
          <ns3:TrackPointExtension>
            <ns3:atemp>18.0</ns3:atemp>
          </ns3:TrackPointExtension>
        </extensions>
      </trkpt>
      <trkpt lat="46.78585709072649478912353515625" lon="6.8583695590496063232421875">
        <ele>535</ele>
        <time>2013-09-01T14:32:41.000Z</time>
        <extensions>
          <ns3:TrackPointExtension>
            <ns3:atemp>18.0</ns3:atemp>
          </ns3:TrackPointExtension>
        </extensions>
      </trkpt>
      <trkpt lat="46.785853989422321319580078125" lon="6.85834248550236225128173828125">
        <ele>535.4000244140625</ele>
        <time>2013-09-01T14:32:42.000Z</time>
        <extensions>
          <ns3:TrackPointExtension>
            <ns3:atemp>18.0</ns3:atemp>
          </ns3:TrackPointExtension>
        </extensions>
      </trkpt>
      <trkpt lat="46.7858487926423549652099609375" lon="6.858314909040927886962890625">
        <ele>535.5999755859375</ele>
        <time>2013-09-01T14:32:43.000Z</time>
        <extensions>
          <ns3:TrackPointExtension>
            <ns3:atemp>18.0</ns3:atemp>
          </ns3:TrackPointExtension>
        </extensions>
      </trkpt>
      <trkpt lat="46.78584451787173748016357421875" lon="6.85828783549368381500244140625">
        <ele>535.79998779296875</ele>
        <time>2013-09-01T14:32:44.000Z</time>
        <extensions>
          <ns3:TrackPointExtension>
            <ns3:atemp>18.0</ns3:atemp>
          </ns3:TrackPointExtension>
        </extensions>
      </trkpt>
      <trkpt lat="46.7858377285301685333251953125" lon="6.85826101340353488922119140625">
        <ele>535.79998779296875</ele>
        <time>2013-09-01T14:32:45.000Z</time>
        <extensions>
          <ns3:TrackPointExtension>
            <ns3:atemp>18.0</ns3:atemp>
          </ns3:TrackPointExtension>
        </extensions>
      </trkpt>
      <trkpt lat="46.7858320288360118865966796875" lon="6.858234442770481109619140625">
        <ele>536</ele>
        <time>2013-09-01T14:32:46.000Z</time>
        <extensions>
          <ns3:TrackPointExtension>
            <ns3:atemp>18.0</ns3:atemp>
          </ns3:TrackPointExtension>
        </extensions>
      </trkpt>
      <trkpt lat="46.7858209647238254547119140625" lon="6.85821256600320339202880859375">
        <ele>536.20001220703125</ele>
        <time>2013-09-01T14:32:47.000Z</time>
        <extensions>
          <ns3:TrackPointExtension>
            <ns3:atemp>18.0</ns3:atemp>
          </ns3:TrackPointExtension>
        </extensions>
      </trkpt>
      <trkpt lat="46.78581031970679759979248046875" lon="6.8581925332546234130859375">
        <ele>536.4000244140625</ele>
        <time>2013-09-01T14:32:48.000Z</time>
        <extensions>
          <ns3:TrackPointExtension>
            <ns3:atemp>18.0</ns3:atemp>
          </ns3:TrackPointExtension>
        </extensions>
      </trkpt>
      <trkpt lat="46.78580177016556262969970703125" lon="6.85816445387899875640869140625">
        <ele>536.4000244140625</ele>
        <time>2013-09-01T14:32:49.000Z</time>
        <extensions>
          <ns3:TrackPointExtension>
            <ns3:atemp>18.0</ns3:atemp>
          </ns3:TrackPointExtension>
        </extensions>
      </trkpt>
      <trkpt lat="46.7857978306710720062255859375" lon="6.8581360392272472381591796875">
        <ele>536.5999755859375</ele>
        <time>2013-09-01T14:32:50.000Z</time>
        <extensions>
          <ns3:TrackPointExtension>
            <ns3:atemp>18.0</ns3:atemp>
          </ns3:TrackPointExtension>
        </extensions>
      </trkpt>
      <trkpt lat="46.7857941426336765289306640625" lon="6.858105026185512542724609375">
        <ele>536.79998779296875</ele>
        <time>2013-09-01T14:32:51.000Z</time>
        <extensions>
          <ns3:TrackPointExtension>
            <ns3:atemp>18.0</ns3:atemp>
          </ns3:TrackPointExtension>
        </extensions>
      </trkpt>
      <trkpt lat="46.7857887782156467437744140625" lon="6.85807409696280956268310546875">
        <ele>537</ele>
        <time>2013-09-01T14:32:52.000Z</time>
        <extensions>
          <ns3:TrackPointExtension>
            <ns3:atemp>18.0</ns3:atemp>
          </ns3:TrackPointExtension>
        </extensions>
      </trkpt>
      <trkpt lat="46.78578450344502925872802734375" lon="6.8580421619117259979248046875">
        <ele>537.20001220703125</ele>
        <time>2013-09-01T14:32:53.000Z</time>
        <extensions>
          <ns3:TrackPointExtension>
            <ns3:atemp>18.0</ns3:atemp>
          </ns3:TrackPointExtension>
        </extensions>
      </trkpt>
      <trkpt lat="46.78578098304569721221923828125" lon="6.85801357962191104888916015625">
        <ele>537.20001220703125</ele>
        <time>2013-09-01T14:32:54.000Z</time>
        <extensions>
          <ns3:TrackPointExtension>
            <ns3:atemp>18.0</ns3:atemp>
          </ns3:TrackPointExtension>
        </extensions>
      </trkpt>
      <trkpt lat="46.78577394224703311920166015625" lon="6.8579908646643161773681640625">
        <ele>537.4000244140625</ele>
        <time>2013-09-01T14:32:55.000Z</time>
        <extensions>
          <ns3:TrackPointExtension>
            <ns3:atemp>18.0</ns3:atemp>
          </ns3:TrackPointExtension>
        </extensions>
      </trkpt>
      <trkpt lat="46.78577042184770107269287109375" lon="6.85796429403126239776611328125">
        <ele>537.5999755859375</ele>
        <time>2013-09-01T14:32:56.000Z</time>
        <extensions>
          <ns3:TrackPointExtension>
            <ns3:atemp>18.0</ns3:atemp>
          </ns3:TrackPointExtension>
        </extensions>
      </trkpt>
      <trkpt lat="46.785766817629337310791015625" lon="6.85793881304562091827392578125">
        <ele>538</ele>
        <time>2013-09-01T14:32:57.000Z</time>
        <extensions>
          <ns3:TrackPointExtension>
            <ns3:atemp>18.0</ns3:atemp>
          </ns3:TrackPointExtension>
        </extensions>
      </trkpt>
      <trkpt lat="46.785762123763561248779296875" lon="6.85791115276515483856201171875">
        <ele>538.20001220703125</ele>
        <time>2013-09-01T14:32:58.000Z</time>
        <extensions>
          <ns3:TrackPointExtension>
            <ns3:atemp>18.0</ns3:atemp>
          </ns3:TrackPointExtension>
        </extensions>
      </trkpt>
      <trkpt lat="46.7857579328119754791259765625" lon="6.8578840792179107666015625">
        <ele>538.20001220703125</ele>
        <time>2013-09-01T14:32:59.000Z</time>
        <extensions>
          <ns3:TrackPointExtension>
            <ns3:atemp>18.0</ns3:atemp>
          </ns3:TrackPointExtension>
        </extensions>
      </trkpt>
      <trkpt lat="46.785752065479755401611328125" lon="6.85785633511841297149658203125">
        <ele>538.5999755859375</ele>
        <time>2013-09-01T14:33:00.000Z</time>
        <extensions>
          <ns3:TrackPointExtension>
            <ns3:atemp>18.0</ns3:atemp>
          </ns3:TrackPointExtension>
        </extensions>
      </trkpt>
      <trkpt lat="46.78574644960463047027587890625" lon="6.857828088104724884033203125">
        <ele>538.79998779296875</ele>
        <time>2013-09-01T14:33:01.000Z</time>
        <extensions>
          <ns3:TrackPointExtension>
            <ns3:atemp>18.0</ns3:atemp>
          </ns3:TrackPointExtension>
        </extensions>
      </trkpt>
      <trkpt lat="46.785742007195949554443359375" lon="6.85780185274779796600341796875">
        <ele>539</ele>
        <time>2013-09-01T14:33:02.000Z</time>
        <extensions>
          <ns3:TrackPointExtension>
            <ns3:atemp>18.0</ns3:atemp>
          </ns3:TrackPointExtension>
        </extensions>
      </trkpt>
      <trkpt lat="46.78573806770145893096923828125" lon="6.85777570120990276336669921875">
        <ele>539.20001220703125</ele>
        <time>2013-09-01T14:33:03.000Z</time>
        <extensions>
          <ns3:TrackPointExtension>
            <ns3:atemp>18.0</ns3:atemp>
          </ns3:TrackPointExtension>
        </extensions>
      </trkpt>
      <trkpt lat="46.78573354147374629974365234375" lon="6.85775055550038814544677734375">
        <ele>539.79998779296875</ele>
        <time>2013-09-01T14:33:04.000Z</time>
        <extensions>
          <ns3:TrackPointExtension>
            <ns3:atemp>18.0</ns3:atemp>
          </ns3:TrackPointExtension>
        </extensions>
      </trkpt>
      <trkpt lat="46.785729266703128814697265625" lon="6.85772406868636608123779296875">
        <ele>540.20001220703125</ele>
        <time>2013-09-01T14:33:05.000Z</time>
        <extensions>
          <ns3:TrackPointExtension>
            <ns3:atemp>18.0</ns3:atemp>
          </ns3:TrackPointExtension>
        </extensions>
      </trkpt>
      <trkpt lat="46.785723902285099029541015625" lon="6.85769707895815372467041015625">
        <ele>540.4000244140625</ele>
        <time>2013-09-01T14:33:06.000Z</time>
        <extensions>
          <ns3:TrackPointExtension>
            <ns3:atemp>18.0</ns3:atemp>
          </ns3:TrackPointExtension>
        </extensions>
      </trkpt>
      <trkpt lat="46.78571929223835468292236328125" lon="6.85766992159187793731689453125">
        <ele>540.5999755859375</ele>
        <time>2013-09-01T14:33:07.000Z</time>
        <extensions>
          <ns3:TrackPointExtension>
            <ns3:atemp>18.0</ns3:atemp>
          </ns3:TrackPointExtension>
        </extensions>
      </trkpt>
      <trkpt lat="46.78571526892483234405517578125" lon="6.85764159075915813446044921875">
        <ele>540.79998779296875</ele>
        <time>2013-09-01T14:33:08.000Z</time>
        <extensions>
          <ns3:TrackPointExtension>
            <ns3:atemp>18.0</ns3:atemp>
          </ns3:TrackPointExtension>
        </extensions>
      </trkpt>
      <trkpt lat="46.785711832344532012939453125" lon="6.8576146848499774932861328125">
        <ele>541.20001220703125</ele>
        <time>2013-09-01T14:33:09.000Z</time>
        <extensions>
          <ns3:TrackPointExtension>
            <ns3:atemp>18.0</ns3:atemp>
          </ns3:TrackPointExtension>
        </extensions>
      </trkpt>
      <trkpt lat="46.7857106588780879974365234375" lon="6.8575865216553211212158203125">
        <ele>541.4000244140625</ele>
        <time>2013-09-01T14:33:10.000Z</time>
        <extensions>
          <ns3:TrackPointExtension>
            <ns3:atemp>18.0</ns3:atemp>
          </ns3:TrackPointExtension>
        </extensions>
      </trkpt>
      <trkpt lat="46.78570370189845561981201171875" lon="6.8575617112219333648681640625">
        <ele>541.5999755859375</ele>
        <time>2013-09-01T14:33:11.000Z</time>
        <extensions>
          <ns3:TrackPointExtension>
            <ns3:atemp>18.0</ns3:atemp>
          </ns3:TrackPointExtension>
        </extensions>
      </trkpt>
      <trkpt lat="46.78570210933685302734375" lon="6.8575338833034038543701171875">
        <ele>542</ele>
        <time>2013-09-01T14:33:12.000Z</time>
        <extensions>
          <ns3:TrackPointExtension>
            <ns3:atemp>18.0</ns3:atemp>
          </ns3:TrackPointExtension>
        </extensions>
      </trkpt>
      <trkpt lat="46.78569951094686985015869140625" lon="6.8575070612132549285888671875">
        <ele>542.20001220703125</ele>
        <time>2013-09-01T14:33:13.000Z</time>
        <extensions>
          <ns3:TrackPointExtension>
            <ns3:atemp>18.0</ns3:atemp>
          </ns3:TrackPointExtension>
        </extensions>
      </trkpt>
      <trkpt lat="46.78569850511848926544189453125" lon="6.857483424246311187744140625">
        <ele>542.4000244140625</ele>
        <time>2013-09-01T14:33:14.000Z</time>
        <extensions>
          <ns3:TrackPointExtension>
            <ns3:atemp>18.0</ns3:atemp>
          </ns3:TrackPointExtension>
        </extensions>
      </trkpt>
      <trkpt lat="46.78569448180496692657470703125" lon="6.85746070928871631622314453125">
        <ele>542.5999755859375</ele>
        <time>2013-09-01T14:33:15.000Z</time>
        <extensions>
          <ns3:TrackPointExtension>
            <ns3:atemp>18.0</ns3:atemp>
          </ns3:TrackPointExtension>
        </extensions>
      </trkpt>
      <trkpt lat="46.78569716401398181915283203125" lon="6.85743623413145542144775390625">
        <ele>542.79998779296875</ele>
        <time>2013-09-01T14:33:16.000Z</time>
        <extensions>
          <ns3:TrackPointExtension>
            <ns3:atemp>18.0</ns3:atemp>
          </ns3:TrackPointExtension>
        </extensions>
      </trkpt>
      <trkpt lat="46.78569934330880641937255859375" lon="6.85741678811609745025634765625">
        <ele>543</ele>
        <time>2013-09-01T14:33:17.000Z</time>
        <extensions>
          <ns3:TrackPointExtension>
            <ns3:atemp>18.0</ns3:atemp>
          </ns3:TrackPointExtension>
        </extensions>
      </trkpt>
      <trkpt lat="46.7857009358704090118408203125" lon="6.857391893863677978515625">
        <ele>543.20001220703125</ele>
        <time>2013-09-01T14:33:18.000Z</time>
        <extensions>
          <ns3:TrackPointExtension>
            <ns3:atemp>18.0</ns3:atemp>
          </ns3:TrackPointExtension>
        </extensions>
      </trkpt>
      <trkpt lat="46.785705126821994781494140625" lon="6.85736733488738536834716796875">
        <ele>543.4000244140625</ele>
        <time>2013-09-01T14:33:19.000Z</time>
        <extensions>
          <ns3:TrackPointExtension>
            <ns3:atemp>18.0</ns3:atemp>
          </ns3:TrackPointExtension>
        </extensions>
      </trkpt>
      <trkpt lat="46.78570889867842197418212890625" lon="6.85733984224498271942138671875">
        <ele>543.79998779296875</ele>
        <time>2013-09-01T14:33:20.000Z</time>
        <extensions>
          <ns3:TrackPointExtension>
            <ns3:atemp>18.0</ns3:atemp>
          </ns3:TrackPointExtension>
        </extensions>
      </trkpt>
      <trkpt lat="46.78571342490613460540771484375" lon="6.85731871984899044036865234375">
        <ele>544</ele>
        <time>2013-09-01T14:33:21.000Z</time>
        <extensions>
          <ns3:TrackPointExtension>
            <ns3:atemp>18.0</ns3:atemp>
          </ns3:TrackPointExtension>
        </extensions>
      </trkpt>
      <trkpt lat="46.78571644239127635955810546875" lon="6.8572938255965709686279296875">
        <ele>544.4000244140625</ele>
        <time>2013-09-01T14:33:22.000Z</time>
        <extensions>
          <ns3:TrackPointExtension>
            <ns3:atemp>18.0</ns3:atemp>
          </ns3:TrackPointExtension>
        </extensions>
      </trkpt>
      <trkpt lat="46.7857237346470355987548828125" lon="6.8572727032005786895751953125">
        <ele>544.5999755859375</ele>
        <time>2013-09-01T14:33:23.000Z</time>
        <extensions>
          <ns3:TrackPointExtension>
            <ns3:atemp>18.0</ns3:atemp>
          </ns3:TrackPointExtension>
        </extensions>
      </trkpt>
      <trkpt lat="46.785726584494113922119140625" lon="6.8572458811104297637939453125">
        <ele>545</ele>
        <time>2013-09-01T14:33:24.000Z</time>
        <extensions>
          <ns3:TrackPointExtension>
            <ns3:atemp>18.0</ns3:atemp>
          </ns3:TrackPointExtension>
        </extensions>
      </trkpt>
      <trkpt lat="46.78573429584503173828125" lon="6.85722249560058116912841796875">
        <ele>545.4000244140625</ele>
        <time>2013-09-01T14:33:25.000Z</time>
        <extensions>
          <ns3:TrackPointExtension>
            <ns3:atemp>18.0</ns3:atemp>
          </ns3:TrackPointExtension>
        </extensions>
      </trkpt>
      <trkpt lat="46.78574292920529842376708984375" lon="6.8571996130049228668212890625">
        <ele>545.4000244140625</ele>
        <time>2013-09-01T14:33:26.000Z</time>
        <extensions>
          <ns3:TrackPointExtension>
            <ns3:atemp>18.0</ns3:atemp>
          </ns3:TrackPointExtension>
        </extensions>
      </trkpt>
      <trkpt lat="46.785749383270740509033203125" lon="6.85717572458088397979736328125">
        <ele>545.5999755859375</ele>
        <time>2013-09-01T14:33:27.000Z</time>
        <extensions>
          <ns3:TrackPointExtension>
            <ns3:atemp>18.0</ns3:atemp>
          </ns3:TrackPointExtension>
        </extensions>
      </trkpt>
      <trkpt lat="46.78575332276523113250732421875" lon="6.85715518891811370849609375">
        <ele>546.20001220703125</ele>
        <time>2013-09-01T14:33:28.000Z</time>
        <extensions>
          <ns3:TrackPointExtension>
            <ns3:atemp>18.0</ns3:atemp>
          </ns3:TrackPointExtension>
        </extensions>
      </trkpt>
      <trkpt lat="46.78575516678392887115478515625" lon="6.85713297687470912933349609375">
        <ele>546.4000244140625</ele>
        <time>2013-09-01T14:33:29.000Z</time>
        <extensions>
          <ns3:TrackPointExtension>
            <ns3:atemp>18.0</ns3:atemp>
          </ns3:TrackPointExtension>
        </extensions>
      </trkpt>
      <trkpt lat="46.78575449623167514801025390625" lon="6.85710531659424304962158203125">
        <ele>546.5999755859375</ele>
        <time>2013-09-01T14:33:30.000Z</time>
        <extensions>
          <ns3:TrackPointExtension>
            <ns3:atemp>18.0</ns3:atemp>
          </ns3:TrackPointExtension>
        </extensions>
      </trkpt>
      <trkpt lat="46.78575399331748485565185546875" lon="6.85708084143698215484619140625">
        <ele>547</ele>
        <time>2013-09-01T14:33:31.000Z</time>
        <extensions>
          <ns3:TrackPointExtension>
            <ns3:atemp>18.0</ns3:atemp>
          </ns3:TrackPointExtension>
        </extensions>
      </trkpt>
      <trkpt lat="46.78575634025037288665771484375" lon="6.8570544384419918060302734375">
        <ele>547.4000244140625</ele>
        <time>2013-09-01T14:33:32.000Z</time>
        <extensions>
          <ns3:TrackPointExtension>
            <ns3:atemp>18.0</ns3:atemp>
          </ns3:TrackPointExtension>
        </extensions>
      </trkpt>
      <trkpt lat="46.78575885482132434844970703125" lon="6.85703189112246036529541015625">
        <ele>547.5999755859375</ele>
        <time>2013-09-01T14:33:33.000Z</time>
        <extensions>
          <ns3:TrackPointExtension>
            <ns3:atemp>18.0</ns3:atemp>
          </ns3:TrackPointExtension>
        </extensions>
      </trkpt>
      <trkpt lat="46.78576170466840267181396484375" lon="6.85700423084199428558349609375">
        <ele>547.79998779296875</ele>
        <time>2013-09-01T14:33:34.000Z</time>
        <extensions>
          <ns3:TrackPointExtension>
            <ns3:atemp>18.0</ns3:atemp>
          </ns3:TrackPointExtension>
        </extensions>
      </trkpt>
      <trkpt lat="46.78576120175421237945556640625" lon="6.85697925277054309844970703125">
        <ele>548</ele>
        <time>2013-09-01T14:33:35.000Z</time>
        <extensions>
          <ns3:TrackPointExtension>
            <ns3:atemp>18.0</ns3:atemp>
          </ns3:TrackPointExtension>
        </extensions>
      </trkpt>
      <trkpt lat="46.78575868718326091766357421875" lon="6.8569533526897430419921875">
        <ele>548.4000244140625</ele>
        <time>2013-09-01T14:33:36.000Z</time>
        <extensions>
          <ns3:TrackPointExtension>
            <ns3:atemp>18.0</ns3:atemp>
          </ns3:TrackPointExtension>
        </extensions>
      </trkpt>
      <trkpt lat="46.78575986064970493316650390625" lon="6.856922842562198638916015625">
        <ele>548.5999755859375</ele>
        <time>2013-09-01T14:33:37.000Z</time>
        <extensions>
          <ns3:TrackPointExtension>
            <ns3:atemp>18.0</ns3:atemp>
          </ns3:TrackPointExtension>
        </extensions>
      </trkpt>
      <trkpt lat="46.7857597768306732177734375" lon="6.8568938411772251129150390625">
        <ele>548.79998779296875</ele>
        <time>2013-09-01T14:33:38.000Z</time>
        <extensions>
          <ns3:TrackPointExtension>
            <ns3:atemp>18.0</ns3:atemp>
          </ns3:TrackPointExtension>
        </extensions>
      </trkpt>
      <trkpt lat="46.78576405160129070281982421875" lon="6.8568680249154567718505859375">
        <ele>549</ele>
        <time>2013-09-01T14:33:39.000Z</time>
        <extensions>
          <ns3:TrackPointExtension>
            <ns3:atemp>18.0</ns3:atemp>
          </ns3:TrackPointExtension>
        </extensions>
      </trkpt>
      <trkpt lat="46.78577117621898651123046875" lon="6.85683642514050006866455078125">
        <ele>549</ele>
        <time>2013-09-01T14:33:40.000Z</time>
        <extensions>
          <ns3:TrackPointExtension>
            <ns3:atemp>18.0</ns3:atemp>
          </ns3:TrackPointExtension>
        </extensions>
      </trkpt>
      <trkpt lat="46.785781569778919219970703125" lon="6.8568056635558605194091796875">
        <ele>549</ele>
        <time>2013-09-01T14:33:41.000Z</time>
        <extensions>
          <ns3:TrackPointExtension>
            <ns3:atemp>18.0</ns3:atemp>
          </ns3:TrackPointExtension>
        </extensions>
      </trkpt>
      <trkpt lat="46.78579154424369335174560546875" lon="6.85675579123198986053466796875">
        <ele>548.79998779296875</ele>
        <time>2013-09-01T14:33:42.000Z</time>
        <extensions>
          <ns3:TrackPointExtension>
            <ns3:atemp>18.0</ns3:atemp>
          </ns3:TrackPointExtension>
        </extensions>
      </trkpt>
      <trkpt lat="46.785803698003292083740234375" lon="6.85670482926070690155029296875">
        <ele>548.79998779296875</ele>
        <time>2013-09-01T14:33:43.000Z</time>
        <extensions>
          <ns3:TrackPointExtension>
            <ns3:atemp>18.0</ns3:atemp>
          </ns3:TrackPointExtension>
        </extensions>
      </trkpt>
      <trkpt lat="46.7858166061341762542724609375" lon="6.85664515011012554168701171875">
        <ele>548.79998779296875</ele>
        <time>2013-09-01T14:33:44.000Z</time>
        <extensions>
          <ns3:TrackPointExtension>
            <ns3:atemp>18.0</ns3:atemp>
          </ns3:TrackPointExtension>
        </extensions>
      </trkpt>
      <trkpt lat="46.78582490421831607818603515625" lon="6.85658111236989498138427734375">
        <ele>548.5999755859375</ele>
        <time>2013-09-01T14:33:45.000Z</time>
        <extensions>
          <ns3:TrackPointExtension>
            <ns3:atemp>18.0</ns3:atemp>
          </ns3:TrackPointExtension>
        </extensions>
      </trkpt>
      <trkpt lat="46.78583496250212192535400390625" lon="6.85651590116322040557861328125">
        <ele>548.5999755859375</ele>
        <time>2013-09-01T14:33:46.000Z</time>
        <extensions>
          <ns3:TrackPointExtension>
            <ns3:atemp>18.0</ns3:atemp>
          </ns3:TrackPointExtension>
        </extensions>
      </trkpt>
      <trkpt lat="46.78584233857691287994384765625" lon="6.85644968412816524505615234375">
        <ele>548.5999755859375</ele>
        <time>2013-09-01T14:33:47.000Z</time>
        <extensions>
          <ns3:TrackPointExtension>
            <ns3:atemp>18.0</ns3:atemp>
          </ns3:TrackPointExtension>
        </extensions>
      </trkpt>
      <trkpt lat="46.7858477868139743804931640625" lon="6.856385059654712677001953125">
        <ele>548.5999755859375</ele>
        <time>2013-09-01T14:33:48.000Z</time>
        <extensions>
          <ns3:TrackPointExtension>
            <ns3:atemp>18.0</ns3:atemp>
          </ns3:TrackPointExtension>
        </extensions>
      </trkpt>
      <trkpt lat="46.7858591862022876739501953125" lon="6.8563138134777545928955078125">
        <ele>548.79998779296875</ele>
        <time>2013-09-01T14:33:49.000Z</time>
        <extensions>
          <ns3:TrackPointExtension>
            <ns3:atemp>18.0</ns3:atemp>
          </ns3:TrackPointExtension>
        </extensions>
      </trkpt>
      <trkpt lat="46.78586882539093494415283203125" lon="6.85624323785305023193359375">
        <ele>548.79998779296875</ele>
        <time>2013-09-01T14:33:50.000Z</time>
        <extensions>
          <ns3:TrackPointExtension>
            <ns3:atemp>18.0</ns3:atemp>
          </ns3:TrackPointExtension>
        </extensions>
      </trkpt>
      <trkpt lat="46.78587703965604305267333984375" lon="6.8561740033328533172607421875">
        <ele>548.79998779296875</ele>
        <time>2013-09-01T14:33:51.000Z</time>
        <extensions>
          <ns3:TrackPointExtension>
            <ns3:atemp>18.0</ns3:atemp>
          </ns3:TrackPointExtension>
        </extensions>
      </trkpt>
      <trkpt lat="46.78588793613016605377197265625" lon="6.8561076186597347259521484375">
        <ele>549</ele>
        <time>2013-09-01T14:33:52.000Z</time>
        <extensions>
          <ns3:TrackPointExtension>
            <ns3:atemp>18.0</ns3:atemp>
          </ns3:TrackPointExtension>
        </extensions>
      </trkpt>
      <trkpt lat="46.78589447401463985443115234375" lon="6.85604131780564785003662109375">
        <ele>549.20001220703125</ele>
        <time>2013-09-01T14:33:53.000Z</time>
        <extensions>
          <ns3:TrackPointExtension>
            <ns3:atemp>18.0</ns3:atemp>
          </ns3:TrackPointExtension>
        </extensions>
      </trkpt>
      <trkpt lat="46.78589916788041591644287109375" lon="6.85597510077059268951416015625">
        <ele>549.4000244140625</ele>
        <time>2013-09-01T14:33:54.000Z</time>
        <extensions>
          <ns3:TrackPointExtension>
            <ns3:atemp>18.0</ns3:atemp>
          </ns3:TrackPointExtension>
        </extensions>
      </trkpt>
      <trkpt lat="46.7859057895839214324951171875" lon="6.8559099733829498291015625">
        <ele>549.4000244140625</ele>
        <time>2013-09-01T14:33:55.000Z</time>
        <extensions>
          <ns3:TrackPointExtension>
            <ns3:atemp>18.0</ns3:atemp>
          </ns3:TrackPointExtension>
        </extensions>
      </trkpt>
      <trkpt lat="46.78591241128742694854736328125" lon="6.855849288403987884521484375">
        <ele>549.4000244140625</ele>
        <time>2013-09-01T14:33:56.000Z</time>
        <extensions>
          <ns3:TrackPointExtension>
            <ns3:atemp>18.0</ns3:atemp>
          </ns3:TrackPointExtension>
        </extensions>
      </trkpt>
      <trkpt lat="46.78591777570545673370361328125" lon="6.8557870946824550628662109375">
        <ele>549.20001220703125</ele>
        <time>2013-09-01T14:33:57.000Z</time>
        <extensions>
          <ns3:TrackPointExtension>
            <ns3:atemp>18.0</ns3:atemp>
          </ns3:TrackPointExtension>
        </extensions>
      </trkpt>
      <trkpt lat="46.78592272102832794189453125" lon="6.8557304330170154571533203125">
        <ele>549.4000244140625</ele>
        <time>2013-09-01T14:33:58.000Z</time>
        <extensions>
          <ns3:TrackPointExtension>
            <ns3:atemp>18.0</ns3:atemp>
          </ns3:TrackPointExtension>
        </extensions>
      </trkpt>
      <trkpt lat="46.78593219257891178131103515625" lon="6.85568190179765224456787109375">
        <ele>549.5999755859375</ele>
        <time>2013-09-01T14:33:59.000Z</time>
        <extensions>
          <ns3:TrackPointExtension>
            <ns3:atemp>18.0</ns3:atemp>
          </ns3:TrackPointExtension>
        </extensions>
      </trkpt>
      <trkpt lat="46.78593906573951244354248046875" lon="6.85562909580767154693603515625">
        <ele>549.5999755859375</ele>
        <time>2013-09-01T14:34:00.000Z</time>
        <extensions>
          <ns3:TrackPointExtension>
            <ns3:atemp>18.0</ns3:atemp>
          </ns3:TrackPointExtension>
        </extensions>
      </trkpt>
      <trkpt lat="46.78593881428241729736328125" lon="6.8555825762450695037841796875">
        <ele>549.79998779296875</ele>
        <time>2013-09-01T14:34:01.000Z</time>
        <extensions>
          <ns3:TrackPointExtension>
            <ns3:atemp>18.0</ns3:atemp>
          </ns3:TrackPointExtension>
        </extensions>
      </trkpt>
      <trkpt lat="46.78594417870044708251953125" lon="6.85553756542503833770751953125">
        <ele>549.79998779296875</ele>
        <time>2013-09-01T14:34:02.000Z</time>
        <extensions>
          <ns3:TrackPointExtension>
            <ns3:atemp>18.0</ns3:atemp>
          </ns3:TrackPointExtension>
        </extensions>
      </trkpt>
      <trkpt lat="46.785951554775238037109375" lon="6.8554943986237049102783203125">
        <ele>550</ele>
        <time>2013-09-01T14:34:03.000Z</time>
        <extensions>
          <ns3:TrackPointExtension>
            <ns3:atemp>18.0</ns3:atemp>
          </ns3:TrackPointExtension>
        </extensions>
      </trkpt>
      <trkpt lat="46.785955242812633514404296875" lon="6.85544670559465885162353515625">
        <ele>550.20001220703125</ele>
        <time>2013-09-01T14:34:04.000Z</time>
        <extensions>
          <ns3:TrackPointExtension>
            <ns3:atemp>18.0</ns3:atemp>
          </ns3:TrackPointExtension>
        </extensions>
      </trkpt>
      <trkpt lat="46.78596002049744129180908203125" lon="6.85540680773556232452392578125">
        <ele>550.20001220703125</ele>
        <time>2013-09-01T14:34:05.000Z</time>
        <extensions>
          <ns3:TrackPointExtension>
            <ns3:atemp>18.0</ns3:atemp>
          </ns3:TrackPointExtension>
        </extensions>
      </trkpt>
      <trkpt lat="46.78596538491547107696533203125" lon="6.85536640696227550506591796875">
        <ele>550.4000244140625</ele>
        <time>2013-09-01T14:34:06.000Z</time>
        <extensions>
          <ns3:TrackPointExtension>
            <ns3:atemp>18.0</ns3:atemp>
          </ns3:TrackPointExtension>
        </extensions>
      </trkpt>
      <trkpt lat="46.78597242571413516998291015625" lon="6.85531795956194400787353515625">
        <ele>550.4000244140625</ele>
        <time>2013-09-01T14:34:07.000Z</time>
        <extensions>
          <ns3:TrackPointExtension>
            <ns3:atemp>18.0</ns3:atemp>
          </ns3:TrackPointExtension>
        </extensions>
      </trkpt>
      <trkpt lat="46.78598281927406787872314453125" lon="6.8552769720554351806640625">
        <ele>550.79998779296875</ele>
        <time>2013-09-01T14:34:08.000Z</time>
        <extensions>
          <ns3:TrackPointExtension>
            <ns3:atemp>18.0</ns3:atemp>
          </ns3:TrackPointExtension>
        </extensions>
      </trkpt>
      <trkpt lat="46.78599438630044460296630859375" lon="6.85523497872054576873779296875">
        <ele>551.20001220703125</ele>
        <time>2013-09-01T14:34:09.000Z</time>
        <extensions>
          <ns3:TrackPointExtension>
            <ns3:atemp>18.0</ns3:atemp>
          </ns3:TrackPointExtension>
        </extensions>
      </trkpt>
      <trkpt lat="46.78599916398525238037109375" lon="6.85519172810018062591552734375">
        <ele>551.5999755859375</ele>
        <time>2013-09-01T14:34:10.000Z</time>
        <extensions>
          <ns3:TrackPointExtension>
            <ns3:atemp>18.0</ns3:atemp>
          </ns3:TrackPointExtension>
        </extensions>
      </trkpt>
      <trkpt lat="46.7860038578510284423828125" lon="6.85514747165143489837646484375">
        <ele>551.5999755859375</ele>
        <time>2013-09-01T14:34:11.000Z</time>
        <extensions>
          <ns3:TrackPointExtension>
            <ns3:atemp>18.0</ns3:atemp>
          </ns3:TrackPointExtension>
        </extensions>
      </trkpt>
      <trkpt lat="46.78601567633450031280517578125" lon="6.8551152013242244720458984375">
        <ele>551.79998779296875</ele>
        <time>2013-09-01T14:34:12.000Z</time>
        <extensions>
          <ns3:TrackPointExtension>
            <ns3:atemp>18.0</ns3:atemp>
          </ns3:TrackPointExtension>
        </extensions>
      </trkpt>
      <trkpt lat="46.78602791391313076019287109375" lon="6.8550811707973480224609375">
        <ele>552.20001220703125</ele>
        <time>2013-09-01T14:34:13.000Z</time>
        <extensions>
          <ns3:TrackPointExtension>
            <ns3:atemp>18.0</ns3:atemp>
          </ns3:TrackPointExtension>
        </extensions>
      </trkpt>
      <trkpt lat="46.786037720739841461181640625" lon="6.85504688881337642669677734375">
        <ele>552.4000244140625</ele>
        <time>2013-09-01T14:34:14.000Z</time>
        <extensions>
          <ns3:TrackPointExtension>
            <ns3:atemp>18.0</ns3:atemp>
          </ns3:TrackPointExtension>
        </extensions>
      </trkpt>
      <trkpt lat="46.78604551590979099273681640625" lon="6.855017803609371185302734375">
        <ele>552.5999755859375</ele>
        <time>2013-09-01T14:34:15.000Z</time>
        <extensions>
          <ns3:TrackPointExtension>
            <ns3:atemp>18.0</ns3:atemp>
          </ns3:TrackPointExtension>
        </extensions>
      </trkpt>
      <trkpt lat="46.786053813993930816650390625" lon="6.85498503036797046661376953125">
        <ele>552.79998779296875</ele>
        <time>2013-09-01T14:34:16.000Z</time>
        <extensions>
          <ns3:TrackPointExtension>
            <ns3:atemp>18.0</ns3:atemp>
          </ns3:TrackPointExtension>
        </extensions>
      </trkpt>
      <trkpt lat="46.78606429137289524078369140625" lon="6.85495770536363124847412109375">
        <ele>553</ele>
        <time>2013-09-01T14:34:17.000Z</time>
        <extensions>
          <ns3:TrackPointExtension>
            <ns3:atemp>18.0</ns3:atemp>
          </ns3:TrackPointExtension>
        </extensions>
      </trkpt>
      <trkpt lat="46.7860781215131282806396484375" lon="6.8549250997602939605712890625">
        <ele>553.20001220703125</ele>
        <time>2013-09-01T14:34:18.000Z</time>
        <extensions>
          <ns3:TrackPointExtension>
            <ns3:atemp>18.0</ns3:atemp>
          </ns3:TrackPointExtension>
        </extensions>
      </trkpt>
      <trkpt lat="46.78609840571880340576171875" lon="6.85491017997264862060546875">
        <ele>553.4000244140625</ele>
        <time>2013-09-01T14:34:19.000Z</time>
        <extensions>
          <ns3:TrackPointExtension>
            <ns3:atemp>18.0</ns3:atemp>
          </ns3:TrackPointExtension>
        </extensions>
      </trkpt>
      <trkpt lat="46.7861103080213069915771484375" lon="6.8548858724534511566162109375">
        <ele>553.5999755859375</ele>
        <time>2013-09-01T14:34:20.000Z</time>
        <extensions>
          <ns3:TrackPointExtension>
            <ns3:atemp>18.0</ns3:atemp>
          </ns3:TrackPointExtension>
        </extensions>
      </trkpt>
      <trkpt lat="46.7861245572566986083984375" lon="6.85486181639134883880615234375">
        <ele>553.79998779296875</ele>
        <time>2013-09-01T14:34:21.000Z</time>
        <extensions>
          <ns3:TrackPointExtension>
            <ns3:atemp>18.0</ns3:atemp>
          </ns3:TrackPointExtension>
        </extensions>
      </trkpt>
      <trkpt lat="46.78613067604601383209228515625" lon="6.85483952052891254425048828125">
        <ele>554</ele>
        <time>2013-09-01T14:34:22.000Z</time>
        <extensions>
          <ns3:TrackPointExtension>
            <ns3:atemp>18.0</ns3:atemp>
          </ns3:TrackPointExtension>
        </extensions>
      </trkpt>
      <trkpt lat="46.78614056669175624847412109375" lon="6.85481437481939792633056640625">
        <ele>554.4000244140625</ele>
        <time>2013-09-01T14:34:23.000Z</time>
        <extensions>
          <ns3:TrackPointExtension>
            <ns3:atemp>18.0</ns3:atemp>
          </ns3:TrackPointExtension>
        </extensions>
      </trkpt>
      <trkpt lat="46.78615196608006954193115234375" lon="6.854791827499866485595703125">
        <ele>554.4000244140625</ele>
        <time>2013-09-01T14:34:24.000Z</time>
        <extensions>
          <ns3:TrackPointExtension>
            <ns3:atemp>18.0</ns3:atemp>
          </ns3:TrackPointExtension>
        </extensions>
      </trkpt>
      <trkpt lat="46.78616152144968509674072265625" lon="6.85476391576230525970458984375">
        <ele>554.79998779296875</ele>
        <time>2013-09-01T14:34:25.000Z</time>
        <extensions>
          <ns3:TrackPointExtension>
            <ns3:atemp>18.0</ns3:atemp>
          </ns3:TrackPointExtension>
        </extensions>
      </trkpt>
      <trkpt lat="46.7861726693809032440185546875" lon="6.854734830558300018310546875">
        <ele>555</ele>
        <time>2013-09-01T14:34:26.000Z</time>
        <extensions>
          <ns3:TrackPointExtension>
            <ns3:atemp>18.0</ns3:atemp>
          </ns3:TrackPointExtension>
        </extensions>
      </trkpt>
      <trkpt lat="46.78618130274116992950439453125" lon="6.854715384542942047119140625">
        <ele>555.20001220703125</ele>
        <time>2013-09-01T14:34:27.000Z</time>
        <extensions>
          <ns3:TrackPointExtension>
            <ns3:atemp>18.0</ns3:atemp>
          </ns3:TrackPointExtension>
        </extensions>
      </trkpt>
      <trkpt lat="46.7861961387097835540771484375" lon="6.8546907417476177215576171875">
        <ele>555.5999755859375</ele>
        <time>2013-09-01T14:34:28.000Z</time>
        <extensions>
          <ns3:TrackPointExtension>
            <ns3:atemp>18.0</ns3:atemp>
          </ns3:TrackPointExtension>
        </extensions>
      </trkpt>
      <trkpt lat="46.78620091639459133148193359375" lon="6.85466635040938854217529296875">
        <ele>555.79998779296875</ele>
        <time>2013-09-01T14:34:29.000Z</time>
        <extensions>
          <ns3:TrackPointExtension>
            <ns3:atemp>18.0</ns3:atemp>
          </ns3:TrackPointExtension>
        </extensions>
      </trkpt>
      <trkpt lat="46.78621298633515834808349609375" lon="6.85465025715529918670654296875">
        <ele>556</ele>
        <time>2013-09-01T14:34:30.000Z</time>
        <extensions>
          <ns3:TrackPointExtension>
            <ns3:atemp>18.0</ns3:atemp>
          </ns3:TrackPointExtension>
        </extensions>
      </trkpt>
      <trkpt lat="46.7862196080386638641357421875" lon="6.85463131405413150787353515625">
        <ele>556.4000244140625</ele>
        <time>2013-09-01T14:34:31.000Z</time>
        <extensions>
          <ns3:TrackPointExtension>
            <ns3:atemp>18.0</ns3:atemp>
          </ns3:TrackPointExtension>
        </extensions>
      </trkpt>
      <trkpt lat="46.78623209707438945770263671875" lon="6.85461111366748809814453125">
        <ele>556.5999755859375</ele>
        <time>2013-09-01T14:34:32.000Z</time>
        <extensions>
          <ns3:TrackPointExtension>
            <ns3:atemp>18.0</ns3:atemp>
          </ns3:TrackPointExtension>
        </extensions>
      </trkpt>
      <trkpt lat="46.7862457595765590667724609375" lon="6.85458839870989322662353515625">
        <ele>556.79998779296875</ele>
        <time>2013-09-01T14:34:33.000Z</time>
        <extensions>
          <ns3:TrackPointExtension>
            <ns3:atemp>18.0</ns3:atemp>
          </ns3:TrackPointExtension>
        </extensions>
      </trkpt>
      <trkpt lat="46.78625741042196750640869140625" lon="6.85456727631390094757080078125">
        <ele>557.20001220703125</ele>
        <time>2013-09-01T14:34:34.000Z</time>
        <extensions>
          <ns3:TrackPointExtension>
            <ns3:atemp>18.0</ns3:atemp>
          </ns3:TrackPointExtension>
        </extensions>
      </trkpt>
      <trkpt lat="46.7862667143344879150390625" lon="6.854549087584018707275390625">
        <ele>557.4000244140625</ele>
        <time>2013-09-01T14:34:35.000Z</time>
        <extensions>
          <ns3:TrackPointExtension>
            <ns3:atemp>18.0</ns3:atemp>
          </ns3:TrackPointExtension>
        </extensions>
      </trkpt>
      <trkpt lat="46.78626864217221736907958984375" lon="6.8545288033783435821533203125">
        <ele>557.5999755859375</ele>
        <time>2013-09-01T14:34:36.000Z</time>
        <extensions>
          <ns3:TrackPointExtension>
            <ns3:atemp>18.0</ns3:atemp>
          </ns3:TrackPointExtension>
        </extensions>
      </trkpt>
      <trkpt lat="46.7862735874950885772705078125" lon="6.85450851917266845703125">
        <ele>558</ele>
        <time>2013-09-01T14:34:37.000Z</time>
        <extensions>
          <ns3:TrackPointExtension>
            <ns3:atemp>18.0</ns3:atemp>
          </ns3:TrackPointExtension>
        </extensions>
      </trkpt>
      <trkpt lat="46.7862819693982601165771484375" lon="6.85448597185313701629638671875">
        <ele>558.20001220703125</ele>
        <time>2013-09-01T14:34:38.000Z</time>
        <extensions>
          <ns3:TrackPointExtension>
            <ns3:atemp>18.0</ns3:atemp>
          </ns3:TrackPointExtension>
        </extensions>
      </trkpt>
      <trkpt lat="46.7862859927117824554443359375" lon="6.8544644303619861602783203125">
        <ele>558.4000244140625</ele>
        <time>2013-09-01T14:34:39.000Z</time>
        <extensions>
          <ns3:TrackPointExtension>
            <ns3:atemp>18.0</ns3:atemp>
          </ns3:TrackPointExtension>
        </extensions>
      </trkpt>
      <trkpt lat="46.78629294969141483306884765625" lon="6.85444339178502559661865234375">
        <ele>558.79998779296875</ele>
        <time>2013-09-01T14:34:40.000Z</time>
        <extensions>
          <ns3:TrackPointExtension>
            <ns3:atemp>18.0</ns3:atemp>
          </ns3:TrackPointExtension>
        </extensions>
      </trkpt>
      <trkpt lat="46.7863004095852375030517578125" lon="6.85441355220973491668701171875">
        <ele>559.20001220703125</ele>
        <time>2013-09-01T14:34:41.000Z</time>
        <extensions>
          <ns3:TrackPointExtension>
            <ns3:atemp>18.0</ns3:atemp>
          </ns3:TrackPointExtension>
        </extensions>
      </trkpt>
      <trkpt lat="46.78630066104233264923095703125" lon="6.85438253916800022125244140625">
        <ele>559.4000244140625</ele>
        <time>2013-09-01T14:34:42.000Z</time>
        <extensions>
          <ns3:TrackPointExtension>
            <ns3:atemp>18.0</ns3:atemp>
          </ns3:TrackPointExtension>
        </extensions>
      </trkpt>
      <trkpt lat="46.78630895912647247314453125" lon="6.8543551303446292877197265625">
        <ele>559.79998779296875</ele>
        <time>2013-09-01T14:34:43.000Z</time>
        <extensions>
          <ns3:TrackPointExtension>
            <ns3:atemp>18.0</ns3:atemp>
          </ns3:TrackPointExtension>
        </extensions>
      </trkpt>
      <trkpt lat="46.78631356917321681976318359375" lon="6.854321099817752838134765625">
        <ele>559.79998779296875</ele>
        <time>2013-09-01T14:34:44.000Z</time>
        <extensions>
          <ns3:TrackPointExtension>
            <ns3:atemp>18.0</ns3:atemp>
          </ns3:TrackPointExtension>
        </extensions>
      </trkpt>
      <trkpt lat="46.78630937822163105010986328125" lon="6.85429134406149387359619140625">
        <ele>560</ele>
        <time>2013-09-01T14:34:45.000Z</time>
        <extensions>
          <ns3:TrackPointExtension>
            <ns3:atemp>18.0</ns3:atemp>
          </ns3:TrackPointExtension>
        </extensions>
      </trkpt>
      <trkpt lat="46.7863097973167896270751953125" lon="6.854266785085201263427734375">
        <ele>560</ele>
        <time>2013-09-01T14:34:46.000Z</time>
        <extensions>
          <ns3:TrackPointExtension>
            <ns3:atemp>18.0</ns3:atemp>
          </ns3:TrackPointExtension>
        </extensions>
      </trkpt>
      <trkpt lat="46.7863141559064388275146484375" lon="6.85423719696700572967529296875">
        <ele>560.20001220703125</ele>
        <time>2013-09-01T14:34:47.000Z</time>
        <extensions>
          <ns3:TrackPointExtension>
            <ns3:atemp>18.0</ns3:atemp>
          </ns3:TrackPointExtension>
        </extensions>
      </trkpt>
      <trkpt lat="46.7863195203244686126708984375" lon="6.85420735739171504974365234375">
        <ele>560.4000244140625</ele>
        <time>2013-09-01T14:34:48.000Z</time>
        <extensions>
          <ns3:TrackPointExtension>
            <ns3:atemp>18.0</ns3:atemp>
          </ns3:TrackPointExtension>
        </extensions>
      </trkpt>
      <trkpt lat="46.78632278926670551300048828125" lon="6.854174919426441192626953125">
        <ele>560.5999755859375</ele>
        <time>2013-09-01T14:34:49.000Z</time>
        <extensions>
          <ns3:TrackPointExtension>
            <ns3:atemp>18.0</ns3:atemp>
          </ns3:TrackPointExtension>
        </extensions>
      </trkpt>
      <trkpt lat="46.78633251227438449859619140625" lon="6.8541450798511505126953125">
        <ele>560.79998779296875</ele>
        <time>2013-09-01T14:34:50.000Z</time>
        <extensions>
          <ns3:TrackPointExtension>
            <ns3:atemp>18.0</ns3:atemp>
          </ns3:TrackPointExtension>
        </extensions>
      </trkpt>
      <trkpt lat="46.78634776733815670013427734375" lon="6.85410954058170318603515625">
        <ele>561</ele>
        <time>2013-09-01T14:34:51.000Z</time>
        <extensions>
          <ns3:TrackPointExtension>
            <ns3:atemp>18.0</ns3:atemp>
          </ns3:TrackPointExtension>
        </extensions>
      </trkpt>
      <trkpt lat="46.786363609135150909423828125" lon="6.85408003628253936767578125">
        <ele>561</ele>
        <time>2013-09-01T14:34:52.000Z</time>
        <extensions>
          <ns3:TrackPointExtension>
            <ns3:atemp>18.0</ns3:atemp>
          </ns3:TrackPointExtension>
        </extensions>
      </trkpt>
      <trkpt lat="46.786383055150508880615234375" lon="6.85404709540307521820068359375">
        <ele>561.20001220703125</ele>
        <time>2013-09-01T14:34:53.000Z</time>
        <extensions>
          <ns3:TrackPointExtension>
            <ns3:atemp>18.0</ns3:atemp>
          </ns3:TrackPointExtension>
        </extensions>
      </trkpt>
      <trkpt lat="46.78639747202396392822265625" lon="6.8540225364267826080322265625">
        <ele>561.4000244140625</ele>
        <time>2013-09-01T14:34:54.000Z</time>
        <extensions>
          <ns3:TrackPointExtension>
            <ns3:atemp>18.0</ns3:atemp>
          </ns3:TrackPointExtension>
        </extensions>
      </trkpt>
      <trkpt lat="46.78641146980226039886474609375" lon="6.8539943732321262359619140625">
        <ele>561.4000244140625</ele>
        <time>2013-09-01T14:34:55.000Z</time>
        <extensions>
          <ns3:TrackPointExtension>
            <ns3:atemp>18.0</ns3:atemp>
          </ns3:TrackPointExtension>
        </extensions>
      </trkpt>
      <trkpt lat="46.78642571903765201568603515625" lon="6.8539638631045818328857421875">
        <ele>561.4000244140625</ele>
        <time>2013-09-01T14:34:56.000Z</time>
        <extensions>
          <ns3:TrackPointExtension>
            <ns3:atemp>18.0</ns3:atemp>
          </ns3:TrackPointExtension>
        </extensions>
      </trkpt>
      <trkpt lat="46.7864330112934112548828125" lon="6.85392790473997592926025390625">
        <ele>561.5999755859375</ele>
        <time>2013-09-01T14:34:57.000Z</time>
        <extensions>
          <ns3:TrackPointExtension>
            <ns3:atemp>18.0</ns3:atemp>
          </ns3:TrackPointExtension>
        </extensions>
      </trkpt>
      <trkpt lat="46.78644751198589801788330078125" lon="6.85390711762011051177978515625">
        <ele>561.79998779296875</ele>
        <time>2013-09-01T14:34:58.000Z</time>
        <extensions>
          <ns3:TrackPointExtension>
            <ns3:atemp>18.0</ns3:atemp>
          </ns3:TrackPointExtension>
        </extensions>
      </trkpt>
      <trkpt lat="46.78646008484065532684326171875" lon="6.8538837321102619171142578125">
        <ele>561.79998779296875</ele>
        <time>2013-09-01T14:34:59.000Z</time>
        <extensions>
          <ns3:TrackPointExtension>
            <ns3:atemp>18.0</ns3:atemp>
          </ns3:TrackPointExtension>
        </extensions>
      </trkpt>
      <trkpt lat="46.78647584281861782073974609375" lon="6.8538538925349712371826171875">
        <ele>562</ele>
        <time>2013-09-01T14:35:00.000Z</time>
        <extensions>
          <ns3:TrackPointExtension>
            <ns3:atemp>18.0</ns3:atemp>
          </ns3:TrackPointExtension>
        </extensions>
      </trkpt>
      <trkpt lat="46.78649981506168842315673828125" lon="6.8538230471312999725341796875">
        <ele>562</ele>
        <time>2013-09-01T14:35:01.000Z</time>
        <extensions>
          <ns3:TrackPointExtension>
            <ns3:atemp>18.0</ns3:atemp>
          </ns3:TrackPointExtension>
        </extensions>
      </trkpt>
      <trkpt lat="46.78651708178222179412841796875" lon="6.85379077680408954620361328125">
        <ele>562</ele>
        <time>2013-09-01T14:35:02.000Z</time>
        <extensions>
          <ns3:TrackPointExtension>
            <ns3:atemp>18.0</ns3:atemp>
          </ns3:TrackPointExtension>
        </extensions>
      </trkpt>
      <trkpt lat="46.7865364439785480499267578125" lon="6.853760182857513427734375">
        <ele>562</ele>
        <time>2013-09-01T14:35:03.000Z</time>
        <extensions>
          <ns3:TrackPointExtension>
            <ns3:atemp>18.0</ns3:atemp>
          </ns3:TrackPointExtension>
        </extensions>
      </trkpt>
      <trkpt lat="46.7865515314042568206787109375" lon="6.8537378869950771331787109375">
        <ele>562.20001220703125</ele>
        <time>2013-09-01T14:35:04.000Z</time>
        <extensions>
          <ns3:TrackPointExtension>
            <ns3:atemp>18.0</ns3:atemp>
          </ns3:TrackPointExtension>
        </extensions>
      </trkpt>
      <trkpt lat="46.78656854666769504547119140625" lon="6.85370779596269130706787109375">
        <ele>562.20001220703125</ele>
        <time>2013-09-01T14:35:05.000Z</time>
        <extensions>
          <ns3:TrackPointExtension>
            <ns3:atemp>18.0</ns3:atemp>
          </ns3:TrackPointExtension>
        </extensions>
      </trkpt>
      <trkpt lat="46.7865941114723682403564453125" lon="6.85367912985384464263916015625">
        <ele>562.4000244140625</ele>
        <time>2013-09-01T14:35:06.000Z</time>
        <extensions>
          <ns3:TrackPointExtension>
            <ns3:atemp>18.0</ns3:atemp>
          </ns3:TrackPointExtension>
        </extensions>
      </trkpt>
      <trkpt lat="46.7866132222115993499755859375" lon="6.85365700162947177886962890625">
        <ele>562.5999755859375</ele>
        <time>2013-09-01T14:35:07.000Z</time>
        <extensions>
          <ns3:TrackPointExtension>
            <ns3:atemp>18.0</ns3:atemp>
          </ns3:TrackPointExtension>
        </extensions>
      </trkpt>
      <trkpt lat="46.78663694299757480621337890625" lon="6.85362213291227817535400390625">
        <ele>562.79998779296875</ele>
        <time>2013-09-01T14:35:08.000Z</time>
        <extensions>
          <ns3:TrackPointExtension>
            <ns3:atemp>18.0</ns3:atemp>
          </ns3:TrackPointExtension>
        </extensions>
      </trkpt>
      <trkpt lat="46.78665873594582080841064453125" lon="6.85359832830727100372314453125">
        <ele>563</ele>
        <time>2013-09-01T14:35:09.000Z</time>
        <extensions>
          <ns3:TrackPointExtension>
            <ns3:atemp>18.0</ns3:atemp>
          </ns3:TrackPointExtension>
        </extensions>
      </trkpt>
      <trkpt lat="46.7866755835711956024169921875" lon="6.85356463305652141571044921875">
        <ele>563</ele>
        <time>2013-09-01T14:35:10.000Z</time>
        <extensions>
          <ns3:TrackPointExtension>
            <ns3:atemp>18.0</ns3:atemp>
          </ns3:TrackPointExtension>
        </extensions>
      </trkpt>
      <trkpt lat="46.78669444285333156585693359375" lon="6.853533200919628143310546875">
        <ele>563.20001220703125</ele>
        <time>2013-09-01T14:35:11.000Z</time>
        <extensions>
          <ns3:TrackPointExtension>
            <ns3:atemp>18.0</ns3:atemp>
          </ns3:TrackPointExtension>
        </extensions>
      </trkpt>
      <trkpt lat="46.7867158167064189910888671875" lon="6.853513419628143310546875">
        <ele>563.4000244140625</ele>
        <time>2013-09-01T14:35:12.000Z</time>
        <extensions>
          <ns3:TrackPointExtension>
            <ns3:atemp>18.0</ns3:atemp>
          </ns3:TrackPointExtension>
        </extensions>
      </trkpt>
      <trkpt lat="46.78673400543630123138427734375" lon="6.853493638336658477783203125">
        <ele>563.5999755859375</ele>
        <time>2013-09-01T14:35:13.000Z</time>
        <extensions>
          <ns3:TrackPointExtension>
            <ns3:atemp>18.0</ns3:atemp>
          </ns3:TrackPointExtension>
        </extensions>
      </trkpt>
      <trkpt lat="46.786755211651325225830078125" lon="6.8534763716161251068115234375">
        <ele>563.79998779296875</ele>
        <time>2013-09-01T14:35:14.000Z</time>
        <extensions>
          <ns3:TrackPointExtension>
            <ns3:atemp>18.0</ns3:atemp>
          </ns3:TrackPointExtension>
        </extensions>
      </trkpt>
      <trkpt lat="46.78676619194447994232177734375" lon="6.85345114208757877349853515625">
        <ele>564</ele>
        <time>2013-09-01T14:35:15.000Z</time>
        <extensions>
          <ns3:TrackPointExtension>
            <ns3:atemp>18.0</ns3:atemp>
          </ns3:TrackPointExtension>
        </extensions>
      </trkpt>
      <trkpt lat="46.7867617495357990264892578125" lon="6.85342423617839813232421875">
        <ele>564.20001220703125</ele>
        <time>2013-09-01T14:35:16.000Z</time>
        <extensions>
          <ns3:TrackPointExtension>
            <ns3:atemp>18.0</ns3:atemp>
          </ns3:TrackPointExtension>
        </extensions>
      </trkpt>
      <trkpt lat="46.78675211034715175628662109375" lon="6.8534032814204692840576171875">
        <ele>564.4000244140625</ele>
        <time>2013-09-01T14:35:17.000Z</time>
        <extensions>
          <ns3:TrackPointExtension>
            <ns3:atemp>18.0</ns3:atemp>
          </ns3:TrackPointExtension>
        </extensions>
      </trkpt>
      <trkpt lat="46.7867376096546649932861328125" lon="6.85338199138641357421875">
        <ele>564.5999755859375</ele>
        <time>2013-09-01T14:35:18.000Z</time>
        <extensions>
          <ns3:TrackPointExtension>
            <ns3:atemp>18.0</ns3:atemp>
          </ns3:TrackPointExtension>
        </extensions>
      </trkpt>
      <trkpt lat="46.78671891801059246063232421875" lon="6.8533551692962646484375">
        <ele>564.79998779296875</ele>
        <time>2013-09-01T14:35:19.000Z</time>
        <extensions>
          <ns3:TrackPointExtension>
            <ns3:atemp>18.0</ns3:atemp>
          </ns3:TrackPointExtension>
        </extensions>
      </trkpt>
      <trkpt lat="46.78670215420424938201904296875" lon="6.85333027504384517669677734375">
        <ele>564.79998779296875</ele>
        <time>2013-09-01T14:35:20.000Z</time>
        <extensions>
          <ns3:TrackPointExtension>
            <ns3:atemp>18.0</ns3:atemp>
          </ns3:TrackPointExtension>
        </extensions>
      </trkpt>
      <trkpt lat="46.7866779305040836334228515625" lon="6.85330160893499851226806640625">
        <ele>564.79998779296875</ele>
        <time>2013-09-01T14:35:21.000Z</time>
        <extensions>
          <ns3:TrackPointExtension>
            <ns3:atemp>18.0</ns3:atemp>
          </ns3:TrackPointExtension>
        </extensions>
      </trkpt>
      <trkpt lat="46.78665504790842533111572265625" lon="6.85326992534101009368896484375">
        <ele>564.79998779296875</ele>
        <time>2013-09-01T14:35:22.000Z</time>
        <extensions>
          <ns3:TrackPointExtension>
            <ns3:atemp>18.0</ns3:atemp>
          </ns3:TrackPointExtension>
        </extensions>
      </trkpt>
      <trkpt lat="46.78663359023630619049072265625" lon="6.8532376550137996673583984375">
        <ele>564.79998779296875</ele>
        <time>2013-09-01T14:35:23.000Z</time>
        <extensions>
          <ns3:TrackPointExtension>
            <ns3:atemp>18.0</ns3:atemp>
          </ns3:TrackPointExtension>
        </extensions>
      </trkpt>
      <trkpt lat="46.78660869598388671875" lon="6.8531944043934345245361328125">
        <ele>564.79998779296875</ele>
        <time>2013-09-01T14:35:24.000Z</time>
        <extensions>
          <ns3:TrackPointExtension>
            <ns3:atemp>18.0</ns3:atemp>
          </ns3:TrackPointExtension>
        </extensions>
      </trkpt>
      <trkpt lat="46.7865790240466594696044921875" lon="6.853148974478244781494140625">
        <ele>565</ele>
        <time>2013-09-01T14:35:25.000Z</time>
        <extensions>
          <ns3:TrackPointExtension>
            <ns3:atemp>18.0</ns3:atemp>
          </ns3:TrackPointExtension>
        </extensions>
      </trkpt>
      <trkpt lat="46.7865481786429882049560546875" lon="6.853107400238513946533203125">
        <ele>565</ele>
        <time>2013-09-01T14:35:26.000Z</time>
        <extensions>
          <ns3:TrackPointExtension>
            <ns3:atemp>18.0</ns3:atemp>
          </ns3:TrackPointExtension>
        </extensions>
      </trkpt>
      <trkpt lat="46.786518506705760955810546875" lon="6.853059791028499603271484375">
        <ele>565</ele>
        <time>2013-09-01T14:35:27.000Z</time>
        <extensions>
          <ns3:TrackPointExtension>
            <ns3:atemp>18.0</ns3:atemp>
          </ns3:TrackPointExtension>
        </extensions>
      </trkpt>
      <trkpt lat="46.78648866713047027587890625" lon="6.8530113436281681060791015625">
        <ele>565</ele>
        <time>2013-09-01T14:35:28.000Z</time>
        <extensions>
          <ns3:TrackPointExtension>
            <ns3:atemp>18.0</ns3:atemp>
          </ns3:TrackPointExtension>
        </extensions>
      </trkpt>
      <trkpt lat="46.7864539660513401031494140625" lon="6.8529587052762508392333984375">
        <ele>565</ele>
        <time>2013-09-01T14:35:29.000Z</time>
        <extensions>
          <ns3:TrackPointExtension>
            <ns3:atemp>18.0</ns3:atemp>
          </ns3:TrackPointExtension>
        </extensions>
      </trkpt>
      <trkpt lat="46.7864207737147808074951171875" lon="6.85290849767625331878662109375">
        <ele>565</ele>
        <time>2013-09-01T14:35:30.000Z</time>
        <extensions>
          <ns3:TrackPointExtension>
            <ns3:atemp>18.0</ns3:atemp>
          </ns3:TrackPointExtension>
        </extensions>
      </trkpt>
      <trkpt lat="46.78638766519725322723388671875" lon="6.85285963118076324462890625">
        <ele>565</ele>
        <time>2013-09-01T14:35:31.000Z</time>
        <extensions>
          <ns3:TrackPointExtension>
            <ns3:atemp>18.0</ns3:atemp>
          </ns3:TrackPointExtension>
        </extensions>
      </trkpt>
      <trkpt lat="46.78635413758456707000732421875" lon="6.85281529091298580169677734375">
        <ele>565.20001220703125</ele>
        <time>2013-09-01T14:35:32.000Z</time>
        <extensions>
          <ns3:TrackPointExtension>
            <ns3:atemp>18.0</ns3:atemp>
          </ns3:TrackPointExtension>
        </extensions>
      </trkpt>
      <trkpt lat="46.78632228635251522064208984375" lon="6.852777488529682159423828125">
        <ele>565.4000244140625</ele>
        <time>2013-09-01T14:35:33.000Z</time>
        <extensions>
          <ns3:TrackPointExtension>
            <ns3:atemp>18.0</ns3:atemp>
          </ns3:TrackPointExtension>
        </extensions>
      </trkpt>
      <trkpt lat="46.7862923629581928253173828125" lon="6.85273893177509307861328125">
        <ele>565.4000244140625</ele>
        <time>2013-09-01T14:35:34.000Z</time>
        <extensions>
          <ns3:TrackPointExtension>
            <ns3:atemp>18.0</ns3:atemp>
          </ns3:TrackPointExtension>
        </extensions>
      </trkpt>
      <trkpt lat="46.78626361303031444549560546875" lon="6.8527012132108211517333984375">
        <ele>565.4000244140625</ele>
        <time>2013-09-01T14:35:35.000Z</time>
        <extensions>
          <ns3:TrackPointExtension>
            <ns3:atemp>18.0</ns3:atemp>
          </ns3:TrackPointExtension>
        </extensions>
      </trkpt>
      <trkpt lat="46.786233521997928619384765625" lon="6.85266575776040554046630859375">
        <ele>565.5999755859375</ele>
        <time>2013-09-01T14:35:36.000Z</time>
        <extensions>
          <ns3:TrackPointExtension>
            <ns3:atemp>18.0</ns3:atemp>
          </ns3:TrackPointExtension>
        </extensions>
      </trkpt>
      <trkpt lat="46.786201335489749908447265625" lon="6.8526284582912921905517578125">
        <ele>565.5999755859375</ele>
        <time>2013-09-01T14:35:37.000Z</time>
        <extensions>
          <ns3:TrackPointExtension>
            <ns3:atemp>18.0</ns3:atemp>
          </ns3:TrackPointExtension>
        </extensions>
      </trkpt>
      <trkpt lat="46.786171160638332366943359375" lon="6.85258814133703708648681640625">
        <ele>565.79998779296875</ele>
        <time>2013-09-01T14:35:38.000Z</time>
        <extensions>
          <ns3:TrackPointExtension>
            <ns3:atemp>18.0</ns3:atemp>
          </ns3:TrackPointExtension>
        </extensions>
      </trkpt>
      <trkpt lat="46.78614241071045398712158203125" lon="6.85255243442952632904052734375">
        <ele>565.79998779296875</ele>
        <time>2013-09-01T14:35:39.000Z</time>
        <extensions>
          <ns3:TrackPointExtension>
            <ns3:atemp>18.0</ns3:atemp>
          </ns3:TrackPointExtension>
        </extensions>
      </trkpt>
      <trkpt lat="46.78611190058290958404541015625" lon="6.8525084294378757476806640625">
        <ele>566</ele>
        <time>2013-09-01T14:35:40.000Z</time>
        <extensions>
          <ns3:TrackPointExtension>
            <ns3:atemp>18.0</ns3:atemp>
          </ns3:TrackPointExtension>
        </extensions>
      </trkpt>
      <trkpt lat="46.7860905267298221588134765625" lon="6.8524754047393798828125">
        <ele>566.4000244140625</ele>
        <time>2013-09-01T14:35:41.000Z</time>
        <extensions>
          <ns3:TrackPointExtension>
            <ns3:atemp>18.0</ns3:atemp>
          </ns3:TrackPointExtension>
        </extensions>
      </trkpt>
      <trkpt lat="46.7860623635351657867431640625" lon="6.8524527736008167266845703125">
        <ele>566.5999755859375</ele>
        <time>2013-09-01T14:35:42.000Z</time>
        <extensions>
          <ns3:TrackPointExtension>
            <ns3:atemp>18.0</ns3:atemp>
          </ns3:TrackPointExtension>
        </extensions>
      </trkpt>
      <trkpt lat="46.78603327833116054534912109375" lon="6.8524366803467273712158203125">
        <ele>566.5999755859375</ele>
        <time>2013-09-01T14:35:43.000Z</time>
        <extensions>
          <ns3:TrackPointExtension>
            <ns3:atemp>18.0</ns3:atemp>
          </ns3:TrackPointExtension>
        </extensions>
      </trkpt>
      <trkpt lat="46.7860060371458530426025390625" lon="6.852408014237880706787109375">
        <ele>566.4000244140625</ele>
        <time>2013-09-01T14:35:44.000Z</time>
        <extensions>
          <ns3:TrackPointExtension>
            <ns3:atemp>18.0</ns3:atemp>
          </ns3:TrackPointExtension>
        </extensions>
      </trkpt>
      <trkpt lat="46.78598164580762386322021484375" lon="6.85238647274672985076904296875">
        <ele>566.5999755859375</ele>
        <time>2013-09-01T14:35:45.000Z</time>
        <extensions>
          <ns3:TrackPointExtension>
            <ns3:atemp>18.0</ns3:atemp>
          </ns3:TrackPointExtension>
        </extensions>
      </trkpt>
      <trkpt lat="46.78595968522131443023681640625" lon="6.85236744582653045654296875">
        <ele>566.79998779296875</ele>
        <time>2013-09-01T14:35:46.000Z</time>
        <extensions>
          <ns3:TrackPointExtension>
            <ns3:atemp>18.0</ns3:atemp>
          </ns3:TrackPointExtension>
        </extensions>
      </trkpt>
      <trkpt lat="46.7859396524727344512939453125" lon="6.85234238393604755401611328125">
        <ele>567</ele>
        <time>2013-09-01T14:35:47.000Z</time>
        <extensions>
          <ns3:TrackPointExtension>
            <ns3:atemp>18.0</ns3:atemp>
          </ns3:TrackPointExtension>
        </extensions>
      </trkpt>
      <trkpt lat="46.7859215475618839263916015625" lon="6.85231246054172515869140625">
        <ele>566.79998779296875</ele>
        <time>2013-09-01T14:35:48.000Z</time>
        <extensions>
          <ns3:TrackPointExtension>
            <ns3:atemp>18.0</ns3:atemp>
          </ns3:TrackPointExtension>
        </extensions>
      </trkpt>
      <trkpt lat="46.78589816205203533172607421875" lon="6.8522755801677703857421875">
        <ele>566.79998779296875</ele>
        <time>2013-09-01T14:35:49.000Z</time>
        <extensions>
          <ns3:TrackPointExtension>
            <ns3:atemp>18.0</ns3:atemp>
          </ns3:TrackPointExtension>
        </extensions>
      </trkpt>
      <trkpt lat="46.785878799855709075927734375" lon="6.85223392210900783538818359375">
        <ele>566.79998779296875</ele>
        <time>2013-09-01T14:35:50.000Z</time>
        <extensions>
          <ns3:TrackPointExtension>
            <ns3:atemp>18.0</ns3:atemp>
          </ns3:TrackPointExtension>
        </extensions>
      </trkpt>
      <trkpt lat="46.7858581803739070892333984375" lon="6.8521951138973236083984375">
        <ele>567.20001220703125</ele>
        <time>2013-09-01T14:35:51.000Z</time>
        <extensions>
          <ns3:TrackPointExtension>
            <ns3:atemp>18.0</ns3:atemp>
          </ns3:TrackPointExtension>
        </extensions>
      </trkpt>
      <trkpt lat="46.78584082983434200286865234375" lon="6.8521634303033351898193359375">
        <ele>567.4000244140625</ele>
        <time>2013-09-01T14:35:52.000Z</time>
        <extensions>
          <ns3:TrackPointExtension>
            <ns3:atemp>18.0</ns3:atemp>
          </ns3:TrackPointExtension>
        </extensions>
      </trkpt>
      <trkpt lat="46.7858239822089672088623046875" lon="6.85213350690901279449462890625">
        <ele>567.5999755859375</ele>
        <time>2013-09-01T14:35:53.000Z</time>
        <extensions>
          <ns3:TrackPointExtension>
            <ns3:atemp>18.0</ns3:atemp>
          </ns3:TrackPointExtension>
        </extensions>
      </trkpt>
      <trkpt lat="46.78580462001264095306396484375" lon="6.8521034158766269683837890625">
        <ele>567.5999755859375</ele>
        <time>2013-09-01T14:35:54.000Z</time>
        <extensions>
          <ns3:TrackPointExtension>
            <ns3:atemp>18.0</ns3:atemp>
          </ns3:TrackPointExtension>
        </extensions>
      </trkpt>
      <trkpt lat="46.78578835912048816680908203125" lon="6.8520765937864780426025390625">
        <ele>568</ele>
        <time>2013-09-01T14:35:55.000Z</time>
        <extensions>
          <ns3:TrackPointExtension>
            <ns3:atemp>18.0</ns3:atemp>
          </ns3:TrackPointExtension>
        </extensions>
      </trkpt>
      <trkpt lat="46.785784251987934112548828125" lon="6.85204499401152133941650390625">
        <ele>568</ele>
        <time>2013-09-01T14:35:56.000Z</time>
        <extensions>
          <ns3:TrackPointExtension>
            <ns3:atemp>18.0</ns3:atemp>
          </ns3:TrackPointExtension>
        </extensions>
      </trkpt>
      <trkpt lat="46.7857921309769153594970703125" lon="6.85202387161552906036376953125">
        <ele>568.4000244140625</ele>
        <time>2013-09-01T14:35:57.000Z</time>
        <extensions>
          <ns3:TrackPointExtension>
            <ns3:atemp>18.0</ns3:atemp>
          </ns3:TrackPointExtension>
        </extensions>
      </trkpt>
      <trkpt lat="46.7857891134917736053466796875" lon="6.85203644447028636932373046875">
        <ele>568.5999755859375</ele>
        <time>2013-09-01T14:35:58.000Z</time>
        <extensions>
          <ns3:TrackPointExtension>
            <ns3:atemp>18.0</ns3:atemp>
          </ns3:TrackPointExtension>
        </extensions>
      </trkpt>
      <trkpt lat="46.78580244071781635284423828125" lon="6.8519870750606060028076171875">
        <ele>568.79998779296875</ele>
        <time>2013-09-01T14:35:59.000Z</time>
        <extensions>
          <ns3:TrackPointExtension>
            <ns3:atemp>18.0</ns3:atemp>
          </ns3:TrackPointExtension>
        </extensions>
      </trkpt>
      <trkpt lat="46.78580596111714839935302734375" lon="6.85196268372237682342529296875">
        <ele>569</ele>
        <time>2013-09-01T14:36:00.000Z</time>
        <extensions>
          <ns3:TrackPointExtension>
            <ns3:atemp>18.0</ns3:atemp>
          </ns3:TrackPointExtension>
        </extensions>
      </trkpt>
      <trkpt lat="46.78581283427774906158447265625" lon="6.85194365680217742919921875">
        <ele>569.20001220703125</ele>
        <time>2013-09-01T14:36:01.000Z</time>
        <extensions>
          <ns3:TrackPointExtension>
            <ns3:atemp>18.0</ns3:atemp>
          </ns3:TrackPointExtension>
        </extensions>
      </trkpt>
      <trkpt lat="46.78581836633384227752685546875" lon="6.85192546807229518890380859375">
        <ele>569.5999755859375</ele>
        <time>2013-09-01T14:36:02.000Z</time>
        <extensions>
          <ns3:TrackPointExtension>
            <ns3:atemp>18.0</ns3:atemp>
          </ns3:TrackPointExtension>
        </extensions>
      </trkpt>
      <trkpt lat="46.7858337052166461944580078125" lon="6.85189194045960903167724609375">
        <ele>569.79998779296875</ele>
        <time>2013-09-01T14:36:03.000Z</time>
        <extensions>
          <ns3:TrackPointExtension>
            <ns3:atemp>18.0</ns3:atemp>
          </ns3:TrackPointExtension>
        </extensions>
      </trkpt>
      <trkpt lat="46.785831190645694732666015625" lon="6.8519035913050174713134765625">
        <ele>570</ele>
        <time>2013-09-01T14:36:04.000Z</time>
        <extensions>
          <ns3:TrackPointExtension>
            <ns3:atemp>18.0</ns3:atemp>
          </ns3:TrackPointExtension>
        </extensions>
      </trkpt>
      <trkpt lat="46.78586396388709545135498046875" lon="6.85184600763022899627685546875">
        <ele>570.20001220703125</ele>
        <time>2013-09-01T14:36:05.000Z</time>
        <extensions>
          <ns3:TrackPointExtension>
            <ns3:atemp>18.0</ns3:atemp>
          </ns3:TrackPointExtension>
        </extensions>
      </trkpt>
      <trkpt lat="46.78587553091347217559814453125" lon="6.85182639397680759429931640625">
        <ele>570.5999755859375</ele>
        <time>2013-09-01T14:36:06.000Z</time>
        <extensions>
          <ns3:TrackPointExtension>
            <ns3:atemp>18.0</ns3:atemp>
          </ns3:TrackPointExtension>
        </extensions>
      </trkpt>
      <trkpt lat="46.785882823169231414794921875" lon="6.85180225409567356109619140625">
        <ele>570.79998779296875</ele>
        <time>2013-09-01T14:36:07.000Z</time>
        <extensions>
          <ns3:TrackPointExtension>
            <ns3:atemp>18.0</ns3:atemp>
          </ns3:TrackPointExtension>
        </extensions>
      </trkpt>
      <trkpt lat="46.78588860668241977691650390625" lon="6.85177459381520748138427734375">
        <ele>571.20001220703125</ele>
        <time>2013-09-01T14:36:08.000Z</time>
        <extensions>
          <ns3:TrackPointExtension>
            <ns3:atemp>18.0</ns3:atemp>
          </ns3:TrackPointExtension>
        </extensions>
      </trkpt>
      <trkpt lat="46.78588248789310455322265625" lon="6.851753890514373779296875">
        <ele>571.5999755859375</ele>
        <time>2013-09-01T14:36:09.000Z</time>
        <extensions>
          <ns3:TrackPointExtension>
            <ns3:atemp>18.0</ns3:atemp>
          </ns3:TrackPointExtension>
        </extensions>
      </trkpt>
      <trkpt lat="46.78586932830512523651123046875" lon="6.85173151083290576934814453125">
        <ele>571.79998779296875</ele>
        <time>2013-09-01T14:36:10.000Z</time>
        <extensions>
          <ns3:TrackPointExtension>
            <ns3:atemp>18.0</ns3:atemp>
          </ns3:TrackPointExtension>
        </extensions>
      </trkpt>
      <trkpt lat="46.78584887646138668060302734375" lon="6.85169597156345844268798828125">
        <ele>572</ele>
        <time>2013-09-01T14:36:11.000Z</time>
        <extensions>
          <ns3:TrackPointExtension>
            <ns3:atemp>18.0</ns3:atemp>
          </ns3:TrackPointExtension>
        </extensions>
      </trkpt>
      <trkpt lat="46.785828508436679840087890625" lon="6.8516655452549457550048828125">
        <ele>572</ele>
        <time>2013-09-01T14:36:12.000Z</time>
        <extensions>
          <ns3:TrackPointExtension>
            <ns3:atemp>18.0</ns3:atemp>
          </ns3:TrackPointExtension>
        </extensions>
      </trkpt>
      <trkpt lat="46.78580579347908496856689453125" lon="6.8516345322132110595703125">
        <ele>572</ele>
        <time>2013-09-01T14:36:13.000Z</time>
        <extensions>
          <ns3:TrackPointExtension>
            <ns3:atemp>18.0</ns3:atemp>
          </ns3:TrackPointExtension>
        </extensions>
      </trkpt>
      <trkpt lat="46.78577863611280918121337890625" lon="6.85160947032272815704345703125">
        <ele>572</ele>
        <time>2013-09-01T14:36:14.000Z</time>
        <extensions>
          <ns3:TrackPointExtension>
            <ns3:atemp>18.0</ns3:atemp>
          </ns3:TrackPointExtension>
        </extensions>
      </trkpt>
      <trkpt lat="46.78575701080262660980224609375" lon="6.85158281587064266204833984375">
        <ele>572.20001220703125</ele>
        <time>2013-09-01T14:36:15.000Z</time>
        <extensions>
          <ns3:TrackPointExtension>
            <ns3:atemp>18.0</ns3:atemp>
          </ns3:TrackPointExtension>
        </extensions>
      </trkpt>
      <trkpt lat="46.7857408337295055389404296875" lon="6.85154727660119533538818359375">
        <ele>572.4000244140625</ele>
        <time>2013-09-01T14:36:16.000Z</time>
        <extensions>
          <ns3:TrackPointExtension>
            <ns3:atemp>18.0</ns3:atemp>
          </ns3:TrackPointExtension>
        </extensions>
      </trkpt>
      <trkpt lat="46.78572356700897216796875" lon="6.8515173532068729400634765625">
        <ele>572.4000244140625</ele>
        <time>2013-09-01T14:36:17.000Z</time>
        <extensions>
          <ns3:TrackPointExtension>
            <ns3:atemp>18.0</ns3:atemp>
          </ns3:TrackPointExtension>
        </extensions>
      </trkpt>
      <trkpt lat="46.785706467926502227783203125" lon="6.85149027965962886810302734375">
        <ele>572.79998779296875</ele>
        <time>2013-09-01T14:36:18.000Z</time>
        <extensions>
          <ns3:TrackPointExtension>
            <ns3:atemp>18.0</ns3:atemp>
          </ns3:TrackPointExtension>
        </extensions>
      </trkpt>
      <trkpt lat="46.78568878211081027984619140625" lon="6.85146396048367023468017578125">
        <ele>573</ele>
        <time>2013-09-01T14:36:19.000Z</time>
        <extensions>
          <ns3:TrackPointExtension>
            <ns3:atemp>18.0</ns3:atemp>
          </ns3:TrackPointExtension>
        </extensions>
      </trkpt>
      <trkpt lat="46.785673610866069793701171875" lon="6.8514387309551239013671875">
        <ele>573.4000244140625</ele>
        <time>2013-09-01T14:36:20.000Z</time>
        <extensions>
          <ns3:TrackPointExtension>
            <ns3:atemp>18.0</ns3:atemp>
          </ns3:TrackPointExtension>
        </extensions>
      </trkpt>
      <trkpt lat="46.7856536619365215301513671875" lon="6.85141249559819698333740234375">
        <ele>573.4000244140625</ele>
        <time>2013-09-01T14:36:21.000Z</time>
        <extensions>
          <ns3:TrackPointExtension>
            <ns3:atemp>18.0</ns3:atemp>
          </ns3:TrackPointExtension>
        </extensions>
      </trkpt>
      <trkpt lat="46.7856318689882755279541015625" lon="6.851390786468982696533203125">
        <ele>573.5999755859375</ele>
        <time>2013-09-01T14:36:22.000Z</time>
        <extensions>
          <ns3:TrackPointExtension>
            <ns3:atemp>18.0</ns3:atemp>
          </ns3:TrackPointExtension>
        </extensions>
      </trkpt>
      <trkpt lat="46.78561300970613956451416015625" lon="6.85136689804494380950927734375">
        <ele>573.79998779296875</ele>
        <time>2013-09-01T14:36:23.000Z</time>
        <extensions>
          <ns3:TrackPointExtension>
            <ns3:atemp>18.0</ns3:atemp>
          </ns3:TrackPointExtension>
        </extensions>
      </trkpt>
      <trkpt lat="46.78559406660497188568115234375" lon="6.85134460218250751495361328125">
        <ele>573.79998779296875</ele>
        <time>2013-09-01T14:36:24.000Z</time>
        <extensions>
          <ns3:TrackPointExtension>
            <ns3:atemp>18.0</ns3:atemp>
          </ns3:TrackPointExtension>
        </extensions>
      </trkpt>
      <trkpt lat="46.78557411767542362213134765625" lon="6.8513238988816738128662109375">
        <ele>574</ele>
        <time>2013-09-01T14:36:25.000Z</time>
        <extensions>
          <ns3:TrackPointExtension>
            <ns3:atemp>18.0</ns3:atemp>
          </ns3:TrackPointExtension>
        </extensions>
      </trkpt>
      <trkpt lat="46.78555584512650966644287109375" lon="6.851301603019237518310546875">
        <ele>574.20001220703125</ele>
        <time>2013-09-01T14:36:26.000Z</time>
        <extensions>
          <ns3:TrackPointExtension>
            <ns3:atemp>18.0</ns3:atemp>
          </ns3:TrackPointExtension>
        </extensions>
      </trkpt>
      <trkpt lat="46.78553656674921512603759765625" lon="6.85127670876681804656982421875">
        <ele>574.4000244140625</ele>
        <time>2013-09-01T14:36:27.000Z</time>
        <extensions>
          <ns3:TrackPointExtension>
            <ns3:atemp>18.0</ns3:atemp>
          </ns3:TrackPointExtension>
        </extensions>
      </trkpt>
      <trkpt lat="46.78551913239061832427978515625" lon="6.85125240124762058258056640625">
        <ele>574.79998779296875</ele>
        <time>2013-09-01T14:36:28.000Z</time>
        <extensions>
          <ns3:TrackPointExtension>
            <ns3:atemp>18.0</ns3:atemp>
          </ns3:TrackPointExtension>
        </extensions>
      </trkpt>
      <trkpt lat="46.785506643354892730712890625" lon="6.85122205875813961029052734375">
        <ele>575</ele>
        <time>2013-09-01T14:36:29.000Z</time>
        <extensions>
          <ns3:TrackPointExtension>
            <ns3:atemp>18.0</ns3:atemp>
          </ns3:TrackPointExtension>
        </extensions>
      </trkpt>
      <trkpt lat="46.78548711352050304412841796875" lon="6.85119808651506900787353515625">
        <ele>575.20001220703125</ele>
        <time>2013-09-01T14:36:30.000Z</time>
        <extensions>
          <ns3:TrackPointExtension>
            <ns3:atemp>18.0</ns3:atemp>
          </ns3:TrackPointExtension>
        </extensions>
      </trkpt>
      <trkpt lat="46.78546733222901821136474609375" lon="6.85116891749203205108642578125">
        <ele>575.4000244140625</ele>
        <time>2013-09-01T14:36:31.000Z</time>
        <extensions>
          <ns3:TrackPointExtension>
            <ns3:atemp>18.0</ns3:atemp>
          </ns3:TrackPointExtension>
        </extensions>
      </trkpt>
      <trkpt lat="46.7854535020887851715087890625" lon="6.8511438556015491485595703125">
        <ele>575.79998779296875</ele>
        <time>2013-09-01T14:36:32.000Z</time>
        <extensions>
          <ns3:TrackPointExtension>
            <ns3:atemp>18.0</ns3:atemp>
          </ns3:TrackPointExtension>
        </extensions>
      </trkpt>
      <trkpt lat="46.78543455898761749267578125" lon="6.8511200509965419769287109375">
        <ele>575.79998779296875</ele>
        <time>2013-09-01T14:36:33.000Z</time>
        <extensions>
          <ns3:TrackPointExtension>
            <ns3:atemp>18.0</ns3:atemp>
          </ns3:TrackPointExtension>
        </extensions>
      </trkpt>
      <trkpt lat="46.78541787900030612945556640625" lon="6.8510942347347736358642578125">
        <ele>576.20001220703125</ele>
        <time>2013-09-01T14:36:34.000Z</time>
        <extensions>
          <ns3:TrackPointExtension>
            <ns3:atemp>18.0</ns3:atemp>
          </ns3:TrackPointExtension>
        </extensions>
      </trkpt>
      <trkpt lat="46.78540145047008991241455078125" lon="6.85106866993010044097900390625">
        <ele>576.4000244140625</ele>
        <time>2013-09-01T14:36:35.000Z</time>
        <extensions>
          <ns3:TrackPointExtension>
            <ns3:atemp>18.0</ns3:atemp>
          </ns3:TrackPointExtension>
        </extensions>
      </trkpt>
      <trkpt lat="46.78538351319730281829833984375" lon="6.85103614814579486846923828125">
        <ele>576.5999755859375</ele>
        <time>2013-09-01T14:36:36.000Z</time>
        <extensions>
          <ns3:TrackPointExtension>
            <ns3:atemp>18.0</ns3:atemp>
          </ns3:TrackPointExtension>
        </extensions>
      </trkpt>
      <trkpt lat="46.78536272607743740081787109375" lon="6.8510095775127410888671875">
        <ele>576.79998779296875</ele>
        <time>2013-09-01T14:36:37.000Z</time>
        <extensions>
          <ns3:TrackPointExtension>
            <ns3:atemp>18.0</ns3:atemp>
          </ns3:TrackPointExtension>
        </extensions>
      </trkpt>
      <trkpt lat="46.78534696809947490692138671875" lon="6.850990466773509979248046875">
        <ele>577</ele>
        <time>2013-09-01T14:36:38.000Z</time>
        <extensions>
          <ns3:TrackPointExtension>
            <ns3:atemp>18.0</ns3:atemp>
          </ns3:TrackPointExtension>
        </extensions>
      </trkpt>
      <trkpt lat="46.7853321321308612823486328125" lon="6.85096993111073970794677734375">
        <ele>577.4000244140625</ele>
        <time>2013-09-01T14:36:39.000Z</time>
        <extensions>
          <ns3:TrackPointExtension>
            <ns3:atemp>18.0</ns3:atemp>
          </ns3:TrackPointExtension>
        </extensions>
      </trkpt>
      <trkpt lat="46.78531276993453502655029296875" lon="6.850948892533779144287109375">
        <ele>577.79998779296875</ele>
        <time>2013-09-01T14:36:40.000Z</time>
        <extensions>
          <ns3:TrackPointExtension>
            <ns3:atemp>18.0</ns3:atemp>
          </ns3:TrackPointExtension>
        </extensions>
      </trkpt>
      <trkpt lat="46.78529298864305019378662109375" lon="6.85093590058386325836181640625">
        <ele>578</ele>
        <time>2013-09-01T14:36:41.000Z</time>
        <extensions>
          <ns3:TrackPointExtension>
            <ns3:atemp>18.0</ns3:atemp>
          </ns3:TrackPointExtension>
        </extensions>
      </trkpt>
      <trkpt lat="46.78527496755123138427734375" lon="6.8509165383875370025634765625">
        <ele>578.4000244140625</ele>
        <time>2013-09-01T14:36:42.000Z</time>
        <extensions>
          <ns3:TrackPointExtension>
            <ns3:atemp>18.0</ns3:atemp>
          </ns3:TrackPointExtension>
        </extensions>
      </trkpt>
      <trkpt lat="46.7852577008306980133056640625" lon="6.85088946484029293060302734375">
        <ele>578.5999755859375</ele>
        <time>2013-09-01T14:36:43.000Z</time>
        <extensions>
          <ns3:TrackPointExtension>
            <ns3:atemp>18.0</ns3:atemp>
          </ns3:TrackPointExtension>
        </extensions>
      </trkpt>
      <trkpt lat="46.785241104662418365478515625" lon="6.85085878707468509674072265625">
        <ele>578.79998779296875</ele>
        <time>2013-09-01T14:36:44.000Z</time>
        <extensions>
          <ns3:TrackPointExtension>
            <ns3:atemp>18.0</ns3:atemp>
          </ns3:TrackPointExtension>
        </extensions>
      </trkpt>
      <trkpt lat="46.78522727452218532562255859375" lon="6.85082475654780864715576171875">
        <ele>579.20001220703125</ele>
        <time>2013-09-01T14:36:45.000Z</time>
        <extensions>
          <ns3:TrackPointExtension>
            <ns3:atemp>18.0</ns3:atemp>
          </ns3:TrackPointExtension>
        </extensions>
      </trkpt>
      <trkpt lat="46.78521520458161830902099609375" lon="6.8507944978773593902587890625">
        <ele>579.4000244140625</ele>
        <time>2013-09-01T14:36:46.000Z</time>
        <extensions>
          <ns3:TrackPointExtension>
            <ns3:atemp>18.0</ns3:atemp>
          </ns3:TrackPointExtension>
        </extensions>
      </trkpt>
      <trkpt lat="46.78520011715590953826904296875" lon="6.85076558031141757965087890625">
        <ele>579.5999755859375</ele>
        <time>2013-09-01T14:36:47.000Z</time>
        <extensions>
          <ns3:TrackPointExtension>
            <ns3:atemp>18.0</ns3:atemp>
          </ns3:TrackPointExtension>
        </extensions>
      </trkpt>
      <trkpt lat="46.78518368862569332122802734375" lon="6.85074160806834697723388671875">
        <ele>579.5999755859375</ele>
        <time>2013-09-01T14:36:48.000Z</time>
        <extensions>
          <ns3:TrackPointExtension>
            <ns3:atemp>18.0</ns3:atemp>
          </ns3:TrackPointExtension>
        </extensions>
      </trkpt>
      <trkpt lat="46.7851661704480648040771484375" lon="6.8507172167301177978515625">
        <ele>579.79998779296875</ele>
        <time>2013-09-01T14:36:49.000Z</time>
        <extensions>
          <ns3:TrackPointExtension>
            <ns3:atemp>18.0</ns3:atemp>
          </ns3:TrackPointExtension>
        </extensions>
      </trkpt>
      <trkpt lat="46.78515049628913402557373046875" lon="6.850689388811588287353515625">
        <ele>580</ele>
        <time>2013-09-01T14:36:50.000Z</time>
        <extensions>
          <ns3:TrackPointExtension>
            <ns3:atemp>18.0</ns3:atemp>
          </ns3:TrackPointExtension>
        </extensions>
      </trkpt>
      <trkpt lat="46.78513004444539546966552734375" lon="6.8506617285311222076416015625">
        <ele>580.20001220703125</ele>
        <time>2013-09-01T14:36:51.000Z</time>
        <extensions>
          <ns3:TrackPointExtension>
            <ns3:atemp>18.0</ns3:atemp>
          </ns3:TrackPointExtension>
        </extensions>
      </trkpt>
      <trkpt lat="46.78511143662035465240478515625" lon="6.8506345711648464202880859375">
        <ele>580.4000244140625</ele>
        <time>2013-09-01T14:36:52.000Z</time>
        <extensions>
          <ns3:TrackPointExtension>
            <ns3:atemp>18.0</ns3:atemp>
          </ns3:TrackPointExtension>
        </extensions>
      </trkpt>
      <trkpt lat="46.78508930839598178863525390625" lon="6.85060716234147548675537109375">
        <ele>580.5999755859375</ele>
        <time>2013-09-01T14:36:53.000Z</time>
        <extensions>
          <ns3:TrackPointExtension>
            <ns3:atemp>18.0</ns3:atemp>
          </ns3:TrackPointExtension>
        </extensions>
      </trkpt>
      <trkpt lat="46.78506701253354549407958984375" lon="6.8505789153277873992919921875">
        <ele>580.79998779296875</ele>
        <time>2013-09-01T14:36:54.000Z</time>
        <extensions>
          <ns3:TrackPointExtension>
            <ns3:atemp>18.0</ns3:atemp>
          </ns3:TrackPointExtension>
        </extensions>
      </trkpt>
      <trkpt lat="46.78504589013755321502685546875" lon="6.85054664500057697296142578125">
        <ele>580.79998779296875</ele>
        <time>2013-09-01T14:36:55.000Z</time>
        <extensions>
          <ns3:TrackPointExtension>
            <ns3:atemp>18.0</ns3:atemp>
          </ns3:TrackPointExtension>
        </extensions>
      </trkpt>
      <trkpt lat="46.7850275337696075439453125" lon="6.85051596723496913909912109375">
        <ele>581</ele>
        <time>2013-09-01T14:36:56.000Z</time>
        <extensions>
          <ns3:TrackPointExtension>
            <ns3:atemp>17.0</ns3:atemp>
          </ns3:TrackPointExtension>
        </extensions>
      </trkpt>
      <trkpt lat="46.78500615991652011871337890625" lon="6.850486211478710174560546875">
        <ele>581</ele>
        <time>2013-09-01T14:36:57.000Z</time>
        <extensions>
          <ns3:TrackPointExtension>
            <ns3:atemp>17.0</ns3:atemp>
          </ns3:TrackPointExtension>
        </extensions>
      </trkpt>
      <trkpt lat="46.78498989902436733245849609375" lon="6.85045276768505573272705078125">
        <ele>581.20001220703125</ele>
        <time>2013-09-01T14:36:58.000Z</time>
        <extensions>
          <ns3:TrackPointExtension>
            <ns3:atemp>17.0</ns3:atemp>
          </ns3:TrackPointExtension>
        </extensions>
      </trkpt>
      <trkpt lat="46.78497347049415111541748046875" lon="6.85042091645300388336181640625">
        <ele>581.20001220703125</ele>
        <time>2013-09-01T14:36:59.000Z</time>
        <extensions>
          <ns3:TrackPointExtension>
            <ns3:atemp>17.0</ns3:atemp>
          </ns3:TrackPointExtension>
        </extensions>
      </trkpt>
      <trkpt lat="46.78495553322136402130126953125" lon="6.85039375908672809600830078125">
        <ele>581.4000244140625</ele>
        <time>2013-09-01T14:37:00.000Z</time>
        <extensions>
          <ns3:TrackPointExtension>
            <ns3:atemp>17.0</ns3:atemp>
          </ns3:TrackPointExtension>
        </extensions>
      </trkpt>
      <trkpt lat="46.78493474610149860382080078125" lon="6.85036710463464260101318359375">
        <ele>581.4000244140625</ele>
        <time>2013-09-01T14:37:01.000Z</time>
        <extensions>
          <ns3:TrackPointExtension>
            <ns3:atemp>17.0</ns3:atemp>
          </ns3:TrackPointExtension>
        </extensions>
      </trkpt>
      <trkpt lat="46.7849083431065082550048828125" lon="6.85033961199223995208740234375">
        <ele>581.5999755859375</ele>
        <time>2013-09-01T14:37:02.000Z</time>
        <extensions>
          <ns3:TrackPointExtension>
            <ns3:atemp>17.0</ns3:atemp>
          </ns3:TrackPointExtension>
        </extensions>
      </trkpt>
      <trkpt lat="46.78488646633923053741455078125" lon="6.85031019151210784912109375">
        <ele>581.79998779296875</ele>
        <time>2013-09-01T14:37:03.000Z</time>
        <extensions>
          <ns3:TrackPointExtension>
            <ns3:atemp>17.0</ns3:atemp>
          </ns3:TrackPointExtension>
        </extensions>
      </trkpt>
      <trkpt lat="46.7848614044487476348876953125" lon="6.850279681384563446044921875">
        <ele>582</ele>
        <time>2013-09-01T14:37:04.000Z</time>
        <extensions>
          <ns3:TrackPointExtension>
            <ns3:atemp>17.0</ns3:atemp>
          </ns3:TrackPointExtension>
        </extensions>
      </trkpt>
      <trkpt lat="46.78483902476727962493896484375" lon="6.85024824924767017364501953125">
        <ele>582</ele>
        <time>2013-09-01T14:37:05.000Z</time>
        <extensions>
          <ns3:TrackPointExtension>
            <ns3:atemp>17.0</ns3:atemp>
          </ns3:TrackPointExtension>
        </extensions>
      </trkpt>
      <trkpt lat="46.78481840528547763824462890625" lon="6.85022226534783840179443359375">
        <ele>582</ele>
        <time>2013-09-01T14:37:06.000Z</time>
        <extensions>
          <ns3:TrackPointExtension>
            <ns3:atemp>17.0</ns3:atemp>
          </ns3:TrackPointExtension>
        </extensions>
      </trkpt>
      <trkpt lat="46.78479677997529506683349609375" lon="6.850189827382564544677734375">
        <ele>582.20001220703125</ele>
        <time>2013-09-01T14:37:07.000Z</time>
        <extensions>
          <ns3:TrackPointExtension>
            <ns3:atemp>17.0</ns3:atemp>
          </ns3:TrackPointExtension>
        </extensions>
      </trkpt>
      <trkpt lat="46.78477381356060504913330078125" lon="6.85016526840627193450927734375">
        <ele>582.20001220703125</ele>
        <time>2013-09-01T14:37:08.000Z</time>
        <extensions>
          <ns3:TrackPointExtension>
            <ns3:atemp>17.0</ns3:atemp>
          </ns3:TrackPointExtension>
        </extensions>
      </trkpt>
      <trkpt lat="46.7847512662410736083984375" lon="6.850135512650012969970703125">
        <ele>582.4000244140625</ele>
        <time>2013-09-01T14:37:09.000Z</time>
        <extensions>
          <ns3:TrackPointExtension>
            <ns3:atemp>17.0</ns3:atemp>
          </ns3:TrackPointExtension>
        </extensions>
      </trkpt>
      <trkpt lat="46.78473240695893764495849609375" lon="6.85010927729308605194091796875">
        <ele>582.4000244140625</ele>
        <time>2013-09-01T14:37:10.000Z</time>
        <extensions>
          <ns3:TrackPointExtension>
            <ns3:atemp>17.0</ns3:atemp>
          </ns3:TrackPointExtension>
        </extensions>
      </trkpt>
      <trkpt lat="46.784712374210357666015625" lon="6.850076504051685333251953125">
        <ele>582.4000244140625</ele>
        <time>2013-09-01T14:37:11.000Z</time>
        <extensions>
          <ns3:TrackPointExtension>
            <ns3:atemp>17.0</ns3:atemp>
          </ns3:TrackPointExtension>
        </extensions>
      </trkpt>
      <trkpt lat="46.7846917547285556793212890625" lon="6.8500439822673797607421875">
        <ele>582.4000244140625</ele>
        <time>2013-09-01T14:37:12.000Z</time>
        <extensions>
          <ns3:TrackPointExtension>
            <ns3:atemp>17.0</ns3:atemp>
          </ns3:TrackPointExtension>
        </extensions>
      </trkpt>
      <trkpt lat="46.784670464694499969482421875" lon="6.8500146456062793731689453125">
        <ele>582.79998779296875</ele>
        <time>2013-09-01T14:37:13.000Z</time>
        <extensions>
          <ns3:TrackPointExtension>
            <ns3:atemp>17.0</ns3:atemp>
          </ns3:TrackPointExtension>
        </extensions>
      </trkpt>
      <trkpt lat="46.78464942611753940582275390625" lon="6.84998430311679840087890625">
        <ele>583</ele>
        <time>2013-09-01T14:37:14.000Z</time>
        <extensions>
          <ns3:TrackPointExtension>
            <ns3:atemp>17.0</ns3:atemp>
          </ns3:TrackPointExtension>
        </extensions>
      </trkpt>
      <trkpt lat="46.78462796844542026519775390625" lon="6.84995387680828571319580078125">
        <ele>583.20001220703125</ele>
        <time>2013-09-01T14:37:15.000Z</time>
        <extensions>
          <ns3:TrackPointExtension>
            <ns3:atemp>17.0</ns3:atemp>
          </ns3:TrackPointExtension>
        </extensions>
      </trkpt>
      <trkpt lat="46.784606762230396270751953125" lon="6.84992370195686817169189453125">
        <ele>583.4000244140625</ele>
        <time>2013-09-01T14:37:16.000Z</time>
        <extensions>
          <ns3:TrackPointExtension>
            <ns3:atemp>17.0</ns3:atemp>
          </ns3:TrackPointExtension>
        </extensions>
      </trkpt>
      <trkpt lat="46.78459024988114833831787109375" lon="6.849895454943180084228515625">
        <ele>583.5999755859375</ele>
        <time>2013-09-01T14:37:17.000Z</time>
        <extensions>
          <ns3:TrackPointExtension>
            <ns3:atemp>17.0</ns3:atemp>
          </ns3:TrackPointExtension>
        </extensions>
      </trkpt>
      <trkpt lat="46.78456812165677547454833984375" lon="6.8498627655208110809326171875">
        <ele>583.79998779296875</ele>
        <time>2013-09-01T14:37:18.000Z</time>
        <extensions>
          <ns3:TrackPointExtension>
            <ns3:atemp>17.0</ns3:atemp>
          </ns3:TrackPointExtension>
        </extensions>
      </trkpt>
      <trkpt lat="46.78454515524208545684814453125" lon="6.84983535669744014739990234375">
        <ele>584</ele>
        <time>2013-09-01T14:37:19.000Z</time>
        <extensions>
          <ns3:TrackPointExtension>
            <ns3:atemp>17.0</ns3:atemp>
          </ns3:TrackPointExtension>
        </extensions>
      </trkpt>
      <trkpt lat="46.7845244519412517547607421875" lon="6.84981138445436954498291015625">
        <ele>584</ele>
        <time>2013-09-01T14:37:20.000Z</time>
        <extensions>
          <ns3:TrackPointExtension>
            <ns3:atemp>17.0</ns3:atemp>
          </ns3:TrackPointExtension>
        </extensions>
      </trkpt>
      <trkpt lat="46.78450249135494232177734375" lon="6.84978439472615718841552734375">
        <ele>584.4000244140625</ele>
        <time>2013-09-01T14:37:21.000Z</time>
        <extensions>
          <ns3:TrackPointExtension>
            <ns3:atemp>17.0</ns3:atemp>
          </ns3:TrackPointExtension>
        </extensions>
      </trkpt>
      <trkpt lat="46.78448279388248920440673828125" lon="6.8497662059962749481201171875">
        <ele>584.4000244140625</ele>
        <time>2013-09-01T14:37:22.000Z</time>
        <extensions>
          <ns3:TrackPointExtension>
            <ns3:atemp>17.0</ns3:atemp>
          </ns3:TrackPointExtension>
        </extensions>
      </trkpt>
      <trkpt lat="46.784457229077816009521484375" lon="6.84974801726639270782470703125">
        <ele>584.79998779296875</ele>
        <time>2013-09-01T14:37:23.000Z</time>
        <extensions>
          <ns3:TrackPointExtension>
            <ns3:atemp>17.0</ns3:atemp>
          </ns3:TrackPointExtension>
        </extensions>
      </trkpt>
      <trkpt lat="46.7844345979392528533935546875" lon="6.849724464118480682373046875">
        <ele>585</ele>
        <time>2013-09-01T14:37:24.000Z</time>
        <extensions>
          <ns3:TrackPointExtension>
            <ns3:atemp>17.0</ns3:atemp>
          </ns3:TrackPointExtension>
        </extensions>
      </trkpt>
      <trkpt lat="46.7844141460955142974853515625" lon="6.84969537891447544097900390625">
        <ele>585.4000244140625</ele>
        <time>2013-09-01T14:37:25.000Z</time>
        <extensions>
          <ns3:TrackPointExtension>
            <ns3:atemp>17.0</ns3:atemp>
          </ns3:TrackPointExtension>
        </extensions>
      </trkpt>
      <trkpt lat="46.78439394570887088775634765625" lon="6.84966755099594593048095703125">
        <ele>585.79998779296875</ele>
        <time>2013-09-01T14:37:26.000Z</time>
        <extensions>
          <ns3:TrackPointExtension>
            <ns3:atemp>17.0</ns3:atemp>
          </ns3:TrackPointExtension>
        </extensions>
      </trkpt>
      <trkpt lat="46.784368045628070831298828125" lon="6.849640309810638427734375">
        <ele>586.20001220703125</ele>
        <time>2013-09-01T14:37:27.000Z</time>
        <extensions>
          <ns3:TrackPointExtension>
            <ns3:atemp>17.0</ns3:atemp>
          </ns3:TrackPointExtension>
        </extensions>
      </trkpt>
      <trkpt lat="46.78435438312590122222900390625" lon="6.84960401616990566253662109375">
        <ele>586.5999755859375</ele>
        <time>2013-09-01T14:37:28.000Z</time>
        <extensions>
          <ns3:TrackPointExtension>
            <ns3:atemp>17.0</ns3:atemp>
          </ns3:TrackPointExtension>
        </extensions>
      </trkpt>
      <trkpt lat="46.7843382060527801513671875" lon="6.8495804630219936370849609375">
        <ele>587</ele>
        <time>2013-09-01T14:37:29.000Z</time>
        <extensions>
          <ns3:TrackPointExtension>
            <ns3:atemp>17.0</ns3:atemp>
          </ns3:TrackPointExtension>
        </extensions>
      </trkpt>
      <trkpt lat="46.78432010114192962646484375" lon="6.84955649077892303466796875">
        <ele>587.20001220703125</ele>
        <time>2013-09-01T14:37:30.000Z</time>
        <extensions>
          <ns3:TrackPointExtension>
            <ns3:atemp>17.0</ns3:atemp>
          </ns3:TrackPointExtension>
        </extensions>
      </trkpt>
      <trkpt lat="46.7842978052794933319091796875" lon="6.84952891431748867034912109375">
        <ele>587.5999755859375</ele>
        <time>2013-09-01T14:37:31.000Z</time>
        <extensions>
          <ns3:TrackPointExtension>
            <ns3:atemp>17.0</ns3:atemp>
          </ns3:TrackPointExtension>
        </extensions>
      </trkpt>
      <trkpt lat="46.78427852690219879150390625" lon="6.84949748218059539794921875">
        <ele>587.79998779296875</ele>
        <time>2013-09-01T14:37:32.000Z</time>
        <extensions>
          <ns3:TrackPointExtension>
            <ns3:atemp>17.0</ns3:atemp>
          </ns3:TrackPointExtension>
        </extensions>
      </trkpt>
      <trkpt lat="46.7842565663158893585205078125" lon="6.849465630948543548583984375">
        <ele>588.20001220703125</ele>
        <time>2013-09-01T14:37:33.000Z</time>
        <extensions>
          <ns3:TrackPointExtension>
            <ns3:atemp>17.0</ns3:atemp>
          </ns3:TrackPointExtension>
        </extensions>
      </trkpt>
      <trkpt lat="46.784233935177326202392578125" lon="6.8494329415261745452880859375">
        <ele>588.4000244140625</ele>
        <time>2013-09-01T14:37:34.000Z</time>
        <extensions>
          <ns3:TrackPointExtension>
            <ns3:atemp>17.0</ns3:atemp>
          </ns3:TrackPointExtension>
        </extensions>
      </trkpt>
      <trkpt lat="46.78421105258166790008544921875" lon="6.8493930436670780181884765625">
        <ele>588.79998779296875</ele>
        <time>2013-09-01T14:37:35.000Z</time>
        <extensions>
          <ns3:TrackPointExtension>
            <ns3:atemp>17.0</ns3:atemp>
          </ns3:TrackPointExtension>
        </extensions>
      </trkpt>
      <trkpt lat="46.78418423049151897430419921875" lon="6.849361695349216461181640625">
        <ele>589</ele>
        <time>2013-09-01T14:37:36.000Z</time>
        <extensions>
          <ns3:TrackPointExtension>
            <ns3:atemp>17.0</ns3:atemp>
          </ns3:TrackPointExtension>
        </extensions>
      </trkpt>
      <trkpt lat="46.784159503877162933349609375" lon="6.84933411888778209686279296875">
        <ele>589.20001220703125</ele>
        <time>2013-09-01T14:37:37.000Z</time>
        <extensions>
          <ns3:TrackPointExtension>
            <ns3:atemp>17.0</ns3:atemp>
          </ns3:TrackPointExtension>
        </extensions>
      </trkpt>
      <trkpt lat="46.7841341905295848846435546875" lon="6.84930092655122280120849609375">
        <ele>589.5999755859375</ele>
        <time>2013-09-01T14:37:38.000Z</time>
        <extensions>
          <ns3:TrackPointExtension>
            <ns3:atemp>17.0</ns3:atemp>
          </ns3:TrackPointExtension>
        </extensions>
      </trkpt>
      <trkpt lat="46.784114576876163482666015625" lon="6.84926404617726802825927734375">
        <ele>589.79998779296875</ele>
        <time>2013-09-01T14:37:39.000Z</time>
        <extensions>
          <ns3:TrackPointExtension>
            <ns3:atemp>17.0</ns3:atemp>
          </ns3:TrackPointExtension>
        </extensions>
      </trkpt>
      <trkpt lat="46.78408968262374401092529296875" lon="6.849232278764247894287109375">
        <ele>590</ele>
        <time>2013-09-01T14:37:40.000Z</time>
        <extensions>
          <ns3:TrackPointExtension>
            <ns3:atemp>17.0</ns3:atemp>
          </ns3:TrackPointExtension>
        </extensions>
      </trkpt>
      <trkpt lat="46.78406822495162487030029296875" lon="6.849198080599308013916015625">
        <ele>590.20001220703125</ele>
        <time>2013-09-01T14:37:41.000Z</time>
        <extensions>
          <ns3:TrackPointExtension>
            <ns3:atemp>17.0</ns3:atemp>
          </ns3:TrackPointExtension>
        </extensions>
      </trkpt>
      <trkpt lat="46.78404492326080799102783203125" lon="6.8491670675575733184814453125">
        <ele>590.4000244140625</ele>
        <time>2013-09-01T14:37:42.000Z</time>
        <extensions>
          <ns3:TrackPointExtension>
            <ns3:atemp>17.0</ns3:atemp>
          </ns3:TrackPointExtension>
        </extensions>
      </trkpt>
      <trkpt lat="46.78402212448418140411376953125" lon="6.849143095314502716064453125">
        <ele>590.79998779296875</ele>
        <time>2013-09-01T14:37:43.000Z</time>
        <extensions>
          <ns3:TrackPointExtension>
            <ns3:atemp>17.0</ns3:atemp>
          </ns3:TrackPointExtension>
        </extensions>
      </trkpt>
      <trkpt lat="46.783999241888523101806640625" lon="6.84911769814789295196533203125">
        <ele>590.79998779296875</ele>
        <time>2013-09-01T14:37:44.000Z</time>
        <extensions>
          <ns3:TrackPointExtension>
            <ns3:atemp>17.0</ns3:atemp>
          </ns3:TrackPointExtension>
        </extensions>
      </trkpt>
      <trkpt lat="46.78397786803543567657470703125" lon="6.8490886129438877105712890625">
        <ele>591</ele>
        <time>2013-09-01T14:37:45.000Z</time>
        <extensions>
          <ns3:TrackPointExtension>
            <ns3:atemp>17.0</ns3:atemp>
          </ns3:TrackPointExtension>
        </extensions>
      </trkpt>
      <trkpt lat="46.78395557217299938201904296875" lon="6.849056594073772430419921875">
        <ele>591.20001220703125</ele>
        <time>2013-09-01T14:37:46.000Z</time>
        <extensions>
          <ns3:TrackPointExtension>
            <ns3:atemp>17.0</ns3:atemp>
          </ns3:TrackPointExtension>
        </extensions>
      </trkpt>
      <trkpt lat="46.783931516110897064208984375" lon="6.8490212224423885345458984375">
        <ele>591.4000244140625</ele>
        <time>2013-09-01T14:37:47.000Z</time>
        <extensions>
          <ns3:TrackPointExtension>
            <ns3:atemp>17.0</ns3:atemp>
          </ns3:TrackPointExtension>
        </extensions>
      </trkpt>
      <trkpt lat="46.7839051969349384307861328125" lon="6.84899213723838329315185546875">
        <ele>591.5999755859375</ele>
        <time>2013-09-01T14:37:48.000Z</time>
        <extensions>
          <ns3:TrackPointExtension>
            <ns3:atemp>17.0</ns3:atemp>
          </ns3:TrackPointExtension>
        </extensions>
      </trkpt>
      <trkpt lat="46.78387896157801151275634765625" lon="6.84895911253988742828369140625">
        <ele>591.79998779296875</ele>
        <time>2013-09-01T14:37:49.000Z</time>
        <extensions>
          <ns3:TrackPointExtension>
            <ns3:atemp>17.0</ns3:atemp>
          </ns3:TrackPointExtension>
        </extensions>
      </trkpt>
      <trkpt lat="46.78385599516332149505615234375" lon="6.848926506936550140380859375">
        <ele>592</ele>
        <time>2013-09-01T14:37:50.000Z</time>
        <extensions>
          <ns3:TrackPointExtension>
            <ns3:atemp>17.0</ns3:atemp>
          </ns3:TrackPointExtension>
        </extensions>
      </trkpt>
      <trkpt lat="46.78383470512926578521728515625" lon="6.8488964997231960296630859375">
        <ele>592.20001220703125</ele>
        <time>2013-09-01T14:37:51.000Z</time>
        <extensions>
          <ns3:TrackPointExtension>
            <ns3:atemp>17.0</ns3:atemp>
          </ns3:TrackPointExtension>
        </extensions>
      </trkpt>
      <trkpt lat="46.78381190635263919830322265625" lon="6.84887177310883998870849609375">
        <ele>592.4000244140625</ele>
        <time>2013-09-01T14:37:52.000Z</time>
        <extensions>
          <ns3:TrackPointExtension>
            <ns3:atemp>17.0</ns3:atemp>
          </ns3:TrackPointExtension>
        </extensions>
      </trkpt>
      <trkpt lat="46.78378634154796600341796875" lon="6.848844699561595916748046875">
        <ele>592.79998779296875</ele>
        <time>2013-09-01T14:37:53.000Z</time>
        <extensions>
          <ns3:TrackPointExtension>
            <ns3:atemp>17.0</ns3:atemp>
          </ns3:TrackPointExtension>
        </extensions>
      </trkpt>
      <trkpt lat="46.783761195838451385498046875" lon="6.84882097877562046051025390625">
        <ele>592.79998779296875</ele>
        <time>2013-09-01T14:37:54.000Z</time>
        <extensions>
          <ns3:TrackPointExtension>
            <ns3:atemp>17.0</ns3:atemp>
          </ns3:TrackPointExtension>
        </extensions>
      </trkpt>
      <trkpt lat="46.7837375588715076446533203125" lon="6.84878527186810970306396484375">
        <ele>593</ele>
        <time>2013-09-01T14:37:55.000Z</time>
        <extensions>
          <ns3:TrackPointExtension>
            <ns3:atemp>17.0</ns3:atemp>
          </ns3:TrackPointExtension>
        </extensions>
      </trkpt>
      <trkpt lat="46.783714257180690765380859375" lon="6.84875006787478923797607421875">
        <ele>593.20001220703125</ele>
        <time>2013-09-01T14:37:56.000Z</time>
        <extensions>
          <ns3:TrackPointExtension>
            <ns3:atemp>17.0</ns3:atemp>
          </ns3:TrackPointExtension>
        </extensions>
      </trkpt>
      <trkpt lat="46.78368709981441497802734375" lon="6.84871754609048366546630859375">
        <ele>593.20001220703125</ele>
        <time>2013-09-01T14:37:57.000Z</time>
        <extensions>
          <ns3:TrackPointExtension>
            <ns3:atemp>17.0</ns3:atemp>
          </ns3:TrackPointExtension>
        </extensions>
      </trkpt>
      <trkpt lat="46.7836527340114116668701171875" lon="6.84868887998163700103759765625">
        <ele>593.4000244140625</ele>
        <time>2013-09-01T14:37:58.000Z</time>
        <extensions>
          <ns3:TrackPointExtension>
            <ns3:atemp>17.0</ns3:atemp>
          </ns3:TrackPointExtension>
        </extensions>
      </trkpt>
      <trkpt lat="46.78362465463578701019287109375" lon="6.8486524187028408050537109375">
        <ele>593.5999755859375</ele>
        <time>2013-09-01T14:37:59.000Z</time>
        <extensions>
          <ns3:TrackPointExtension>
            <ns3:atemp>17.0</ns3:atemp>
          </ns3:TrackPointExtension>
        </extensions>
      </trkpt>
      <trkpt lat="46.78359431214630603790283203125" lon="6.8486219085752964019775390625">
        <ele>593.79998779296875</ele>
        <time>2013-09-01T14:38:00.000Z</time>
        <extensions>
          <ns3:TrackPointExtension>
            <ns3:atemp>17.0</ns3:atemp>
          </ns3:TrackPointExtension>
        </extensions>
      </trkpt>
      <trkpt lat="46.7835669033229351043701171875" lon="6.848588548600673675537109375">
        <ele>594.20001220703125</ele>
        <time>2013-09-01T14:38:01.000Z</time>
        <extensions>
          <ns3:TrackPointExtension>
            <ns3:atemp>17.0</ns3:atemp>
          </ns3:TrackPointExtension>
        </extensions>
      </trkpt>
      <trkpt lat="46.78353832103312015533447265625" lon="6.84855694882571697235107421875">
        <ele>594.20001220703125</ele>
        <time>2013-09-01T14:38:02.000Z</time>
        <extensions>
          <ns3:TrackPointExtension>
            <ns3:atemp>17.0</ns3:atemp>
          </ns3:TrackPointExtension>
        </extensions>
      </trkpt>
      <trkpt lat="46.78351082839071750640869140625" lon="6.84852727688848972320556640625">
        <ele>594.5999755859375</ele>
        <time>2013-09-01T14:38:03.000Z</time>
        <extensions>
          <ns3:TrackPointExtension>
            <ns3:atemp>17.0</ns3:atemp>
          </ns3:TrackPointExtension>
        </extensions>
      </trkpt>
      <trkpt lat="46.7834850959479808807373046875" lon="6.84849592857062816619873046875">
        <ele>594.5999755859375</ele>
        <time>2013-09-01T14:38:04.000Z</time>
        <extensions>
          <ns3:TrackPointExtension>
            <ns3:atemp>17.0</ns3:atemp>
          </ns3:TrackPointExtension>
        </extensions>
      </trkpt>
      <trkpt lat="46.7834559269249439239501953125" lon="6.84846105985343456268310546875">
        <ele>594.79998779296875</ele>
        <time>2013-09-01T14:38:05.000Z</time>
        <extensions>
          <ns3:TrackPointExtension>
            <ns3:atemp>17.0</ns3:atemp>
          </ns3:TrackPointExtension>
        </extensions>
      </trkpt>
      <trkpt lat="46.78342617116868495941162109375" lon="6.8484301306307315826416015625">
        <ele>594.5999755859375</ele>
        <time>2013-09-01T14:38:06.000Z</time>
        <extensions>
          <ns3:TrackPointExtension>
            <ns3:atemp>17.0</ns3:atemp>
          </ns3:TrackPointExtension>
        </extensions>
      </trkpt>
      <trkpt lat="46.783393062651157379150390625" lon="6.8483949266374111175537109375">
        <ele>594.79998779296875</ele>
        <time>2013-09-01T14:38:07.000Z</time>
        <extensions>
          <ns3:TrackPointExtension>
            <ns3:atemp>17.0</ns3:atemp>
          </ns3:TrackPointExtension>
        </extensions>
      </trkpt>
      <trkpt lat="46.78336028940975666046142578125" lon="6.84836089611053466796875">
        <ele>595</ele>
        <time>2013-09-01T14:38:08.000Z</time>
        <extensions>
          <ns3:TrackPointExtension>
            <ns3:atemp>17.0</ns3:atemp>
          </ns3:TrackPointExtension>
        </extensions>
      </trkpt>
      <trkpt lat="46.78332977928221225738525390625" lon="6.84832376427948474884033203125">
        <ele>595.20001220703125</ele>
        <time>2013-09-01T14:38:09.000Z</time>
        <extensions>
          <ns3:TrackPointExtension>
            <ns3:atemp>17.0</ns3:atemp>
          </ns3:TrackPointExtension>
        </extensions>
      </trkpt>
      <trkpt lat="46.78329742513597011566162109375" lon="6.8482859618961811065673828125">
        <ele>595.4000244140625</ele>
        <time>2013-09-01T14:38:10.000Z</time>
        <extensions>
          <ns3:TrackPointExtension>
            <ns3:atemp>17.0</ns3:atemp>
          </ns3:TrackPointExtension>
        </extensions>
      </trkpt>
      <trkpt lat="46.783274374902248382568359375" lon="6.8482490815222263336181640625">
        <ele>595.5999755859375</ele>
        <time>2013-09-01T14:38:11.000Z</time>
        <extensions>
          <ns3:TrackPointExtension>
            <ns3:atemp>17.0</ns3:atemp>
          </ns3:TrackPointExtension>
        </extensions>
      </trkpt>
      <trkpt lat="46.78324864245951175689697265625" lon="6.84821027331054210662841796875">
        <ele>595.5999755859375</ele>
        <time>2013-09-01T14:38:12.000Z</time>
        <extensions>
          <ns3:TrackPointExtension>
            <ns3:atemp>17.0</ns3:atemp>
          </ns3:TrackPointExtension>
        </extensions>
      </trkpt>
      <trkpt lat="46.7832195572555065155029296875" lon="6.84818244539201259613037109375">
        <ele>595.79998779296875</ele>
        <time>2013-09-01T14:38:13.000Z</time>
        <extensions>
          <ns3:TrackPointExtension>
            <ns3:atemp>17.0</ns3:atemp>
          </ns3:TrackPointExtension>
        </extensions>
      </trkpt>
      <trkpt lat="46.783194243907928466796875" lon="6.84815679676830768585205078125">
        <ele>596</ele>
        <time>2013-09-01T14:38:14.000Z</time>
        <extensions>
          <ns3:TrackPointExtension>
            <ns3:atemp>17.0</ns3:atemp>
          </ns3:TrackPointExtension>
        </extensions>
      </trkpt>
      <trkpt lat="46.783169098198413848876953125" lon="6.8481226824223995208740234375">
        <ele>596</ele>
        <time>2013-09-01T14:38:15.000Z</time>
        <extensions>
          <ns3:TrackPointExtension>
            <ns3:atemp>17.0</ns3:atemp>
          </ns3:TrackPointExtension>
        </extensions>
      </trkpt>
      <trkpt lat="46.783140264451503753662109375" lon="6.84809125028550624847412109375">
        <ele>596.20001220703125</ele>
        <time>2013-09-01T14:38:16.000Z</time>
        <extensions>
          <ns3:TrackPointExtension>
            <ns3:atemp>17.0</ns3:atemp>
          </ns3:TrackPointExtension>
        </extensions>
      </trkpt>
      <trkpt lat="46.783112771809101104736328125" lon="6.84806191362440586090087890625">
        <ele>596.5999755859375</ele>
        <time>2013-09-01T14:38:17.000Z</time>
        <extensions>
          <ns3:TrackPointExtension>
            <ns3:atemp>17.0</ns3:atemp>
          </ns3:TrackPointExtension>
        </extensions>
      </trkpt>
      <trkpt lat="46.78308720700442790985107421875" lon="6.8480267934501171112060546875">
        <ele>596.79998779296875</ele>
        <time>2013-09-01T14:38:18.000Z</time>
        <extensions>
          <ns3:TrackPointExtension>
            <ns3:atemp>17.0</ns3:atemp>
          </ns3:TrackPointExtension>
        </extensions>
      </trkpt>
      <trkpt lat="46.78306214511394500732421875" lon="6.8479855544865131378173828125">
        <ele>597</ele>
        <time>2013-09-01T14:38:19.000Z</time>
        <extensions>
          <ns3:TrackPointExtension>
            <ns3:atemp>17.0</ns3:atemp>
          </ns3:TrackPointExtension>
        </extensions>
      </trkpt>
      <trkpt lat="46.7830358259379863739013671875" lon="6.84794289059937000274658203125">
        <ele>597.20001220703125</ele>
        <time>2013-09-01T14:38:20.000Z</time>
        <extensions>
          <ns3:TrackPointExtension>
            <ns3:atemp>17.0</ns3:atemp>
          </ns3:TrackPointExtension>
        </extensions>
      </trkpt>
      <trkpt lat="46.78300556726753711700439453125" lon="6.84790818952023983001708984375">
        <ele>597.4000244140625</ele>
        <time>2013-09-01T14:38:21.000Z</time>
        <extensions>
          <ns3:TrackPointExtension>
            <ns3:atemp>17.0</ns3:atemp>
          </ns3:TrackPointExtension>
        </extensions>
      </trkpt>
      <trkpt lat="46.78297899663448333740234375" lon="6.8478742428123950958251953125">
        <ele>597.4000244140625</ele>
        <time>2013-09-01T14:38:22.000Z</time>
        <extensions>
          <ns3:TrackPointExtension>
            <ns3:atemp>17.0</ns3:atemp>
          </ns3:TrackPointExtension>
        </extensions>
      </trkpt>
      <trkpt lat="46.7829520069062709808349609375" lon="6.84783761389553546905517578125">
        <ele>597.4000244140625</ele>
        <time>2013-09-01T14:38:23.000Z</time>
        <extensions>
          <ns3:TrackPointExtension>
            <ns3:atemp>17.0</ns3:atemp>
          </ns3:TrackPointExtension>
        </extensions>
      </trkpt>
      <trkpt lat="46.7829214967787265777587890625" lon="6.84779972769320011138916015625">
        <ele>597.4000244140625</ele>
        <time>2013-09-01T14:38:24.000Z</time>
        <extensions>
          <ns3:TrackPointExtension>
            <ns3:atemp>17.0</ns3:atemp>
          </ns3:TrackPointExtension>
        </extensions>
      </trkpt>
      <trkpt lat="46.78289090283215045928955078125" lon="6.84776075184345245361328125">
        <ele>597.5999755859375</ele>
        <time>2013-09-01T14:38:25.000Z</time>
        <extensions>
          <ns3:TrackPointExtension>
            <ns3:atemp>17.0</ns3:atemp>
          </ns3:TrackPointExtension>
        </extensions>
      </trkpt>
      <trkpt lat="46.78285569883882999420166015625" lon="6.84772362001240253448486328125">
        <ele>597.79998779296875</ele>
        <time>2013-09-01T14:38:26.000Z</time>
        <extensions>
          <ns3:TrackPointExtension>
            <ns3:atemp>17.0</ns3:atemp>
          </ns3:TrackPointExtension>
        </extensions>
      </trkpt>
      <trkpt lat="46.78282200358808040618896484375" lon="6.84768120758235454559326171875">
        <ele>597.79998779296875</ele>
        <time>2013-09-01T14:38:27.000Z</time>
        <extensions>
          <ns3:TrackPointExtension>
            <ns3:atemp>17.0</ns3:atemp>
          </ns3:TrackPointExtension>
        </extensions>
      </trkpt>
      <trkpt lat="46.78278780542314052581787109375" lon="6.84763695113360881805419921875">
        <ele>598</ele>
        <time>2013-09-01T14:38:28.000Z</time>
        <extensions>
          <ns3:TrackPointExtension>
            <ns3:atemp>17.0</ns3:atemp>
          </ns3:TrackPointExtension>
        </extensions>
      </trkpt>
      <trkpt lat="46.78275561891496181488037109375" lon="6.8475882522761821746826171875">
        <ele>598</ele>
        <time>2013-09-01T14:38:29.000Z</time>
        <extensions>
          <ns3:TrackPointExtension>
            <ns3:atemp>17.0</ns3:atemp>
          </ns3:TrackPointExtension>
        </extensions>
      </trkpt>
      <trkpt lat="46.78271907381713390350341796875" lon="6.8475359492003917694091796875">
        <ele>598</ele>
        <time>2013-09-01T14:38:30.000Z</time>
        <extensions>
          <ns3:TrackPointExtension>
            <ns3:atemp>17.0</ns3:atemp>
          </ns3:TrackPointExtension>
        </extensions>
      </trkpt>
      <trkpt lat="46.7826824449002742767333984375" lon="6.84748624451458454132080078125">
        <ele>598.20001220703125</ele>
        <time>2013-09-01T14:38:31.000Z</time>
        <extensions>
          <ns3:TrackPointExtension>
            <ns3:atemp>17.0</ns3:atemp>
          </ns3:TrackPointExtension>
        </extensions>
      </trkpt>
      <trkpt lat="46.78264749236404895782470703125" lon="6.8474467657506465911865234375">
        <ele>598.4000244140625</ele>
        <time>2013-09-01T14:38:32.000Z</time>
        <extensions>
          <ns3:TrackPointExtension>
            <ns3:atemp>17.0</ns3:atemp>
          </ns3:TrackPointExtension>
        </extensions>
      </trkpt>
      <trkpt lat="46.78261564113199710845947265625" lon="6.84740393422544002532958984375">
        <ele>598.4000244140625</ele>
        <time>2013-09-01T14:38:33.000Z</time>
        <extensions>
          <ns3:TrackPointExtension>
            <ns3:atemp>17.0</ns3:atemp>
          </ns3:TrackPointExtension>
        </extensions>
      </trkpt>
      <trkpt lat="46.78258144296705722808837890625" lon="6.8473646230995655059814453125">
        <ele>598.4000244140625</ele>
        <time>2013-09-01T14:38:34.000Z</time>
        <extensions>
          <ns3:TrackPointExtension>
            <ns3:atemp>17.0</ns3:atemp>
          </ns3:TrackPointExtension>
        </extensions>
      </trkpt>
      <trkpt lat="46.78254707716405391693115234375" lon="6.8473243899643421173095703125">
        <ele>598.5999755859375</ele>
        <time>2013-09-01T14:38:35.000Z</time>
        <extensions>
          <ns3:TrackPointExtension>
            <ns3:atemp>17.0</ns3:atemp>
          </ns3:TrackPointExtension>
        </extensions>
      </trkpt>
      <trkpt lat="46.78251103498041629791259765625" lon="6.84728155843913555145263671875">
        <ele>598.5999755859375</ele>
        <time>2013-09-01T14:38:36.000Z</time>
        <extensions>
          <ns3:TrackPointExtension>
            <ns3:atemp>17.0</ns3:atemp>
          </ns3:TrackPointExtension>
        </extensions>
      </trkpt>
      <trkpt lat="46.78247650153934955596923828125" lon="6.8472405709326267242431640625">
        <ele>598.5999755859375</ele>
        <time>2013-09-01T14:38:37.000Z</time>
        <extensions>
          <ns3:TrackPointExtension>
            <ns3:atemp>17.0</ns3:atemp>
          </ns3:TrackPointExtension>
        </extensions>
      </trkpt>
      <trkpt lat="46.7824420519173145294189453125" lon="6.84720109216868877410888671875">
        <ele>598.79998779296875</ele>
        <time>2013-09-01T14:38:38.000Z</time>
        <extensions>
          <ns3:TrackPointExtension>
            <ns3:atemp>17.0</ns3:atemp>
          </ns3:TrackPointExtension>
        </extensions>
      </trkpt>
      <trkpt lat="46.78240760229527950286865234375" lon="6.847162283957004547119140625">
        <ele>599</ele>
        <time>2013-09-01T14:38:39.000Z</time>
        <extensions>
          <ns3:TrackPointExtension>
            <ns3:atemp>17.0</ns3:atemp>
          </ns3:TrackPointExtension>
        </extensions>
      </trkpt>
      <trkpt lat="46.78238161839544773101806640625" lon="6.84712833724915981292724609375">
        <ele>599.20001220703125</ele>
        <time>2013-09-01T14:38:40.000Z</time>
        <extensions>
          <ns3:TrackPointExtension>
            <ns3:atemp>17.0</ns3:atemp>
          </ns3:TrackPointExtension>
        </extensions>
      </trkpt>
      <trkpt lat="46.78234959952533245086669921875" lon="6.84708860702812671661376953125">
        <ele>599.4000244140625</ele>
        <time>2013-09-01T14:38:41.000Z</time>
        <extensions>
          <ns3:TrackPointExtension>
            <ns3:atemp>17.0</ns3:atemp>
          </ns3:TrackPointExtension>
        </extensions>
      </trkpt>
      <trkpt lat="46.78231271915137767791748046875" lon="6.847044266760349273681640625">
        <ele>599.4000244140625</ele>
        <time>2013-09-01T14:38:42.000Z</time>
        <extensions>
          <ns3:TrackPointExtension>
            <ns3:atemp>17.0</ns3:atemp>
          </ns3:TrackPointExtension>
        </extensions>
      </trkpt>
      <trkpt lat="46.78227986209094524383544921875" lon="6.847002021968364715576171875">
        <ele>599.5999755859375</ele>
        <time>2013-09-01T14:38:43.000Z</time>
        <extensions>
          <ns3:TrackPointExtension>
            <ns3:atemp>17.0</ns3:atemp>
          </ns3:TrackPointExtension>
        </extensions>
      </trkpt>
      <trkpt lat="46.7822465859353542327880859375" lon="6.84696053154766559600830078125">
        <ele>599.79998779296875</ele>
        <time>2013-09-01T14:38:44.000Z</time>
        <extensions>
          <ns3:TrackPointExtension>
            <ns3:atemp>17.0</ns3:atemp>
          </ns3:TrackPointExtension>
        </extensions>
      </trkpt>
      <trkpt lat="46.78221481852233409881591796875" lon="6.84692415408790111541748046875">
        <ele>600</ele>
        <time>2013-09-01T14:38:45.000Z</time>
        <extensions>
          <ns3:TrackPointExtension>
            <ns3:atemp>17.0</ns3:atemp>
          </ns3:TrackPointExtension>
        </extensions>
      </trkpt>
      <trkpt lat="46.7821828834712505340576171875" lon="6.84688308276236057281494140625">
        <ele>600.20001220703125</ele>
        <time>2013-09-01T14:38:46.000Z</time>
        <extensions>
          <ns3:TrackPointExtension>
            <ns3:atemp>17.0</ns3:atemp>
          </ns3:TrackPointExtension>
        </extensions>
      </trkpt>
      <trkpt lat="46.782151199877262115478515625" lon="6.84684720821678638458251953125">
        <ele>600.20001220703125</ele>
        <time>2013-09-01T14:38:47.000Z</time>
        <extensions>
          <ns3:TrackPointExtension>
            <ns3:atemp>17.0</ns3:atemp>
          </ns3:TrackPointExtension>
        </extensions>
      </trkpt>
      <trkpt lat="46.7821158282458782196044921875" lon="6.84680764563381671905517578125">
        <ele>600.4000244140625</ele>
        <time>2013-09-01T14:38:48.000Z</time>
        <extensions>
          <ns3:TrackPointExtension>
            <ns3:atemp>17.0</ns3:atemp>
          </ns3:TrackPointExtension>
        </extensions>
      </trkpt>
      <trkpt lat="46.78207970224320888519287109375" lon="6.84677009470760822296142578125">
        <ele>600.5999755859375</ele>
        <time>2013-09-01T14:38:49.000Z</time>
        <extensions>
          <ns3:TrackPointExtension>
            <ns3:atemp>17.0</ns3:atemp>
          </ns3:TrackPointExtension>
        </extensions>
      </trkpt>
      <trkpt lat="46.782046258449554443359375" lon="6.84673120267689228057861328125">
        <ele>600.79998779296875</ele>
        <time>2013-09-01T14:38:50.000Z</time>
        <extensions>
          <ns3:TrackPointExtension>
            <ns3:atemp>17.0</ns3:atemp>
          </ns3:TrackPointExtension>
        </extensions>
      </trkpt>
      <trkpt lat="46.78201071918010711669921875" lon="6.8466836772859096527099609375">
        <ele>601.20001220703125</ele>
        <time>2013-09-01T14:38:51.000Z</time>
        <extensions>
          <ns3:TrackPointExtension>
            <ns3:atemp>17.0</ns3:atemp>
          </ns3:TrackPointExtension>
        </extensions>
      </trkpt>
      <trkpt lat="46.78197777830064296722412109375" lon="6.84663782827556133270263671875">
        <ele>601.4000244140625</ele>
        <time>2013-09-01T14:38:52.000Z</time>
        <extensions>
          <ns3:TrackPointExtension>
            <ns3:atemp>17.0</ns3:atemp>
          </ns3:TrackPointExtension>
        </extensions>
      </trkpt>
      <trkpt lat="46.7819461785256862640380859375" lon="6.8465928174555301666259765625">
        <ele>601.5999755859375</ele>
        <time>2013-09-01T14:38:53.000Z</time>
        <extensions>
          <ns3:TrackPointExtension>
            <ns3:atemp>17.0</ns3:atemp>
          </ns3:TrackPointExtension>
        </extensions>
      </trkpt>
      <trkpt lat="46.78191290237009525299072265625" lon="6.846551410853862762451171875">
        <ele>602</ele>
        <time>2013-09-01T14:38:54.000Z</time>
        <extensions>
          <ns3:TrackPointExtension>
            <ns3:atemp>17.0</ns3:atemp>
          </ns3:TrackPointExtension>
        </extensions>
      </trkpt>
      <trkpt lat="46.78188331425189971923828125" lon="6.84650572948157787322998046875">
        <ele>602.20001220703125</ele>
        <time>2013-09-01T14:38:55.000Z</time>
        <extensions>
          <ns3:TrackPointExtension>
            <ns3:atemp>17.0</ns3:atemp>
          </ns3:TrackPointExtension>
        </extensions>
      </trkpt>
      <trkpt lat="46.78185272030532360076904296875" lon="6.84646516107022762298583984375">
        <ele>602.4000244140625</ele>
        <time>2013-09-01T14:38:56.000Z</time>
        <extensions>
          <ns3:TrackPointExtension>
            <ns3:atemp>17.0</ns3:atemp>
          </ns3:TrackPointExtension>
        </extensions>
      </trkpt>
      <trkpt lat="46.78182941861450672149658203125" lon="6.84643347747623920440673828125">
        <ele>602.4000244140625</ele>
        <time>2013-09-01T14:38:57.000Z</time>
        <extensions>
          <ns3:TrackPointExtension>
            <ns3:atemp>17.0</ns3:atemp>
          </ns3:TrackPointExtension>
        </extensions>
      </trkpt>
      <trkpt lat="46.7818088829517364501953125" lon="6.8464020453393459320068359375">
        <ele>602.79998779296875</ele>
        <time>2013-09-01T14:38:58.000Z</time>
        <extensions>
          <ns3:TrackPointExtension>
            <ns3:atemp>17.0</ns3:atemp>
          </ns3:TrackPointExtension>
        </extensions>
      </trkpt>
      <trkpt lat="46.78177862428128719329833984375" lon="6.846367679536342620849609375">
        <ele>602.79998779296875</ele>
        <time>2013-09-01T14:38:59.000Z</time>
        <extensions>
          <ns3:TrackPointExtension>
            <ns3:atemp>17.0</ns3:atemp>
          </ns3:TrackPointExtension>
        </extensions>
      </trkpt>
      <trkpt lat="46.7817498743534088134765625" lon="6.84633239172399044036865234375">
        <ele>603.20001220703125</ele>
        <time>2013-09-01T14:39:00.000Z</time>
        <extensions>
          <ns3:TrackPointExtension>
            <ns3:atemp>17.0</ns3:atemp>
          </ns3:TrackPointExtension>
        </extensions>
      </trkpt>
      <trkpt lat="46.781719028949737548828125" lon="6.84629132039844989776611328125">
        <ele>603.4000244140625</ele>
        <time>2013-09-01T14:39:01.000Z</time>
        <extensions>
          <ns3:TrackPointExtension>
            <ns3:atemp>17.0</ns3:atemp>
          </ns3:TrackPointExtension>
        </extensions>
      </trkpt>
      <trkpt lat="46.781685166060924530029296875" lon="6.84626265428960323333740234375">
        <ele>603.79998779296875</ele>
        <time>2013-09-01T14:39:02.000Z</time>
        <extensions>
          <ns3:TrackPointExtension>
            <ns3:atemp>17.0</ns3:atemp>
          </ns3:TrackPointExtension>
        </extensions>
      </trkpt>
      <trkpt lat="46.78164803422987461090087890625" lon="6.8462620675563812255859375">
        <ele>604</ele>
        <time>2013-09-01T14:39:03.000Z</time>
        <extensions>
          <ns3:TrackPointExtension>
            <ns3:atemp>17.0</ns3:atemp>
          </ns3:TrackPointExtension>
        </extensions>
      </trkpt>
      <trkpt lat="46.7816152609884738922119140625" lon="6.84629702009260654449462890625">
        <ele>604</ele>
        <time>2013-09-01T14:39:04.000Z</time>
        <extensions>
          <ns3:TrackPointExtension>
            <ns3:atemp>17.0</ns3:atemp>
          </ns3:TrackPointExtension>
        </extensions>
      </trkpt>
      <trkpt lat="46.78158986382186412811279296875" lon="6.8463494069874286651611328125">
        <ele>604.20001220703125</ele>
        <time>2013-09-01T14:39:05.000Z</time>
        <extensions>
          <ns3:TrackPointExtension>
            <ns3:atemp>17.0</ns3:atemp>
          </ns3:TrackPointExtension>
        </extensions>
      </trkpt>
      <trkpt lat="46.78156270645558834075927734375" lon="6.846407912671566009521484375">
        <ele>604.20001220703125</ele>
        <time>2013-09-01T14:39:06.000Z</time>
        <extensions>
          <ns3:TrackPointExtension>
            <ns3:atemp>17.0</ns3:atemp>
          </ns3:TrackPointExtension>
        </extensions>
      </trkpt>
      <trkpt lat="46.78153689019381999969482421875" lon="6.846475303173065185546875">
        <ele>604.20001220703125</ele>
        <time>2013-09-01T14:39:07.000Z</time>
        <extensions>
          <ns3:TrackPointExtension>
            <ns3:atemp>17.0</ns3:atemp>
          </ns3:TrackPointExtension>
        </extensions>
      </trkpt>
      <trkpt lat="46.7815123312175273895263671875" lon="6.84654445387423038482666015625">
        <ele>603.79998779296875</ele>
        <time>2013-09-01T14:39:08.000Z</time>
        <extensions>
          <ns3:TrackPointExtension>
            <ns3:atemp>17.0</ns3:atemp>
          </ns3:TrackPointExtension>
        </extensions>
      </trkpt>
      <trkpt lat="46.78148567676544189453125" lon="6.8466206453740596771240234375">
        <ele>603.5999755859375</ele>
        <time>2013-09-01T14:39:09.000Z</time>
        <extensions>
          <ns3:TrackPointExtension>
            <ns3:atemp>17.0</ns3:atemp>
          </ns3:TrackPointExtension>
        </extensions>
      </trkpt>
      <trkpt lat="46.781459189951419830322265625" lon="6.84670018963515758514404296875">
        <ele>603.4000244140625</ele>
        <time>2013-09-01T14:39:10.000Z</time>
        <extensions>
          <ns3:TrackPointExtension>
            <ns3:atemp>17.0</ns3:atemp>
          </ns3:TrackPointExtension>
        </extensions>
      </trkpt>
      <trkpt lat="46.7814280092716217041015625" lon="6.8467835895717144012451171875">
        <ele>603.4000244140625</ele>
        <time>2013-09-01T14:39:11.000Z</time>
        <extensions>
          <ns3:TrackPointExtension>
            <ns3:atemp>17.0</ns3:atemp>
          </ns3:TrackPointExtension>
        </extensions>
      </trkpt>
      <trkpt lat="46.78139456547796726226806640625" lon="6.84687235392630100250244140625">
        <ele>603.4000244140625</ele>
        <time>2013-09-01T14:39:12.000Z</time>
        <extensions>
          <ns3:TrackPointExtension>
            <ns3:atemp>17.0</ns3:atemp>
          </ns3:TrackPointExtension>
        </extensions>
      </trkpt>
      <trkpt lat="46.78135986439883708953857421875" lon="6.84696019627153873443603515625">
        <ele>603.20001220703125</ele>
        <time>2013-09-01T14:39:13.000Z</time>
        <extensions>
          <ns3:TrackPointExtension>
            <ns3:atemp>17.0</ns3:atemp>
          </ns3:TrackPointExtension>
        </extensions>
      </trkpt>
      <trkpt lat="46.78132114000618457794189453125" lon="6.84705072082579135894775390625">
        <ele>602.79998779296875</ele>
        <time>2013-09-01T14:39:14.000Z</time>
        <extensions>
          <ns3:TrackPointExtension>
            <ns3:atemp>17.0</ns3:atemp>
          </ns3:TrackPointExtension>
        </extensions>
      </trkpt>
      <trkpt lat="46.78127721883356571197509765625" lon="6.84713705442845821380615234375">
        <ele>602.4000244140625</ele>
        <time>2013-09-01T14:39:15.000Z</time>
        <extensions>
          <ns3:TrackPointExtension>
            <ns3:atemp>17.0</ns3:atemp>
          </ns3:TrackPointExtension>
        </extensions>
      </trkpt>
      <trkpt lat="46.7812253348529338836669921875" lon="6.84720528312027454376220703125">
        <ele>602</ele>
        <time>2013-09-01T14:39:16.000Z</time>
        <extensions>
          <ns3:TrackPointExtension>
            <ns3:atemp>17.0</ns3:atemp>
          </ns3:TrackPointExtension>
        </extensions>
      </trkpt>
      <trkpt lat="46.78116909228265285491943359375" lon="6.84723529033362865447998046875">
        <ele>601.79998779296875</ele>
        <time>2013-09-01T14:39:17.000Z</time>
        <extensions>
          <ns3:TrackPointExtension>
            <ns3:atemp>17.0</ns3:atemp>
          </ns3:TrackPointExtension>
        </extensions>
      </trkpt>
      <trkpt lat="46.7810996063053607940673828125" lon="6.8472181074321269989013671875">
        <ele>601.5999755859375</ele>
        <time>2013-09-01T14:39:18.000Z</time>
        <extensions>
          <ns3:TrackPointExtension>
            <ns3:atemp>17.0</ns3:atemp>
          </ns3:TrackPointExtension>
        </extensions>
      </trkpt>
      <trkpt lat="46.781036742031574249267578125" lon="6.847185082733631134033203125">
        <ele>601.5999755859375</ele>
        <time>2013-09-01T14:39:19.000Z</time>
        <extensions>
          <ns3:TrackPointExtension>
            <ns3:atemp>17.0</ns3:atemp>
          </ns3:TrackPointExtension>
        </extensions>
      </trkpt>
      <trkpt lat="46.78097966127097606658935546875" lon="6.84714929200708866119384765625">
        <ele>601.79998779296875</ele>
        <time>2013-09-01T14:39:20.000Z</time>
        <extensions>
          <ns3:TrackPointExtension>
            <ns3:atemp>17.0</ns3:atemp>
          </ns3:TrackPointExtension>
        </extensions>
      </trkpt>
      <trkpt lat="46.78092484362423419952392578125" lon="6.8471181951463222503662109375">
        <ele>602</ele>
        <time>2013-09-01T14:39:21.000Z</time>
        <extensions>
          <ns3:TrackPointExtension>
            <ns3:atemp>17.0</ns3:atemp>
          </ns3:TrackPointExtension>
        </extensions>
      </trkpt>
      <trkpt lat="46.78087254054844379425048828125" lon="6.8470843322575092315673828125">
        <ele>602</ele>
        <time>2013-09-01T14:39:22.000Z</time>
        <extensions>
          <ns3:TrackPointExtension>
            <ns3:atemp>17.0</ns3:atemp>
          </ns3:TrackPointExtension>
        </extensions>
      </trkpt>
      <trkpt lat="46.78082384169101715087890625" lon="6.8470484577119350433349609375">
        <ele>602</ele>
        <time>2013-09-01T14:39:23.000Z</time>
        <extensions>
          <ns3:TrackPointExtension>
            <ns3:atemp>17.0</ns3:atemp>
          </ns3:TrackPointExtension>
        </extensions>
      </trkpt>
      <trkpt lat="46.7807777412235736846923828125" lon="6.84702021069824695587158203125">
        <ele>602</ele>
        <time>2013-09-01T14:39:24.000Z</time>
        <extensions>
          <ns3:TrackPointExtension>
            <ns3:atemp>17.0</ns3:atemp>
          </ns3:TrackPointExtension>
        </extensions>
      </trkpt>
      <trkpt lat="46.7807341553270816802978515625" lon="6.8469943106174468994140625">
        <ele>602.20001220703125</ele>
        <time>2013-09-01T14:39:25.000Z</time>
        <extensions>
          <ns3:TrackPointExtension>
            <ns3:atemp>17.0</ns3:atemp>
          </ns3:TrackPointExtension>
        </extensions>
      </trkpt>
      <trkpt lat="46.78069132380187511444091796875" lon="6.8469663150608539581298828125">
        <ele>602.4000244140625</ele>
        <time>2013-09-01T14:39:26.000Z</time>
        <extensions>
          <ns3:TrackPointExtension>
            <ns3:atemp>17.0</ns3:atemp>
          </ns3:TrackPointExtension>
        </extensions>
      </trkpt>
      <trkpt lat="46.78065226413309574127197265625" lon="6.84694024734199047088623046875">
        <ele>602.4000244140625</ele>
        <time>2013-09-01T14:39:27.000Z</time>
        <extensions>
          <ns3:TrackPointExtension>
            <ns3:atemp>17.0</ns3:atemp>
          </ns3:TrackPointExtension>
        </extensions>
      </trkpt>
      <trkpt lat="46.78061303682625293731689453125" lon="6.84691392816603183746337890625">
        <ele>602.5999755859375</ele>
        <time>2013-09-01T14:39:28.000Z</time>
        <extensions>
          <ns3:TrackPointExtension>
            <ns3:atemp>17.0</ns3:atemp>
          </ns3:TrackPointExtension>
        </extensions>
      </trkpt>
      <trkpt lat="46.78057464770972728729248046875" lon="6.846887357532978057861328125">
        <ele>603</ele>
        <time>2013-09-01T14:39:29.000Z</time>
        <extensions>
          <ns3:TrackPointExtension>
            <ns3:atemp>17.0</ns3:atemp>
          </ns3:TrackPointExtension>
        </extensions>
      </trkpt>
      <trkpt lat="46.7805396951735019683837890625" lon="6.84685374610126018524169921875">
        <ele>603</ele>
        <time>2013-09-01T14:39:30.000Z</time>
        <extensions>
          <ns3:TrackPointExtension>
            <ns3:atemp>17.0</ns3:atemp>
          </ns3:TrackPointExtension>
        </extensions>
      </trkpt>
      <trkpt lat="46.7805105261504650115966796875" lon="6.8468224816024303436279296875">
        <ele>603</ele>
        <time>2013-09-01T14:39:31.000Z</time>
        <extensions>
          <ns3:TrackPointExtension>
            <ns3:atemp>17.0</ns3:atemp>
          </ns3:TrackPointExtension>
        </extensions>
      </trkpt>
      <trkpt lat="46.78048378787934780120849609375" lon="6.84678266756236553192138671875">
        <ele>603.20001220703125</ele>
        <time>2013-09-01T14:39:32.000Z</time>
        <extensions>
          <ns3:TrackPointExtension>
            <ns3:atemp>17.0</ns3:atemp>
          </ns3:TrackPointExtension>
        </extensions>
      </trkpt>
      <trkpt lat="46.7804552055895328521728515625" lon="6.8467460386455059051513671875">
        <ele>603.4000244140625</ele>
        <time>2013-09-01T14:39:33.000Z</time>
        <extensions>
          <ns3:TrackPointExtension>
            <ns3:atemp>17.0</ns3:atemp>
          </ns3:TrackPointExtension>
        </extensions>
      </trkpt>
      <trkpt lat="46.780431568622589111328125" lon="6.84671846218407154083251953125">
        <ele>603.5999755859375</ele>
        <time>2013-09-01T14:39:34.000Z</time>
        <extensions>
          <ns3:TrackPointExtension>
            <ns3:atemp>17.0</ns3:atemp>
          </ns3:TrackPointExtension>
        </extensions>
      </trkpt>
      <trkpt lat="46.78040541708469390869140625" lon="6.8466934002935886383056640625">
        <ele>603.5999755859375</ele>
        <time>2013-09-01T14:39:35.000Z</time>
        <extensions>
          <ns3:TrackPointExtension>
            <ns3:atemp>17.0</ns3:atemp>
          </ns3:TrackPointExtension>
        </extensions>
      </trkpt>
      <trkpt lat="46.78037851117551326751708984375" lon="6.84666506946086883544921875">
        <ele>603.79998779296875</ele>
        <time>2013-09-01T14:39:36.000Z</time>
        <extensions>
          <ns3:TrackPointExtension>
            <ns3:atemp>17.0</ns3:atemp>
          </ns3:TrackPointExtension>
        </extensions>
      </trkpt>
      <trkpt lat="46.780346073210239410400390625" lon="6.84663699008524417877197265625">
        <ele>604</ele>
        <time>2013-09-01T14:39:37.000Z</time>
        <extensions>
          <ns3:TrackPointExtension>
            <ns3:atemp>17.0</ns3:atemp>
          </ns3:TrackPointExtension>
        </extensions>
      </trkpt>
      <trkpt lat="46.78031916730105876922607421875" lon="6.84661285020411014556884765625">
        <ele>604.20001220703125</ele>
        <time>2013-09-01T14:39:38.000Z</time>
        <extensions>
          <ns3:TrackPointExtension>
            <ns3:atemp>17.0</ns3:atemp>
          </ns3:TrackPointExtension>
        </extensions>
      </trkpt>
      <trkpt lat="46.780291087925434112548828125" lon="6.84658518992364406585693359375">
        <ele>604.5999755859375</ele>
        <time>2013-09-01T14:39:39.000Z</time>
        <extensions>
          <ns3:TrackPointExtension>
            <ns3:atemp>17.0</ns3:atemp>
          </ns3:TrackPointExtension>
        </extensions>
      </trkpt>
      <trkpt lat="46.78026569075882434844970703125" lon="6.8465569429099559783935546875">
        <ele>604.79998779296875</ele>
        <time>2013-09-01T14:39:40.000Z</time>
        <extensions>
          <ns3:TrackPointExtension>
            <ns3:atemp>17.0</ns3:atemp>
          </ns3:TrackPointExtension>
        </extensions>
      </trkpt>
      <trkpt lat="46.78024356253445148468017578125" lon="6.8465260975062847137451171875">
        <ele>605</ele>
        <time>2013-09-01T14:39:41.000Z</time>
        <extensions>
          <ns3:TrackPointExtension>
            <ns3:atemp>17.0</ns3:atemp>
          </ns3:TrackPointExtension>
        </extensions>
      </trkpt>
      <trkpt lat="46.78022361360490322113037109375" lon="6.846499107778072357177734375">
        <ele>605</ele>
        <time>2013-09-01T14:39:42.000Z</time>
        <extensions>
          <ns3:TrackPointExtension>
            <ns3:atemp>17.0</ns3:atemp>
          </ns3:TrackPointExtension>
        </extensions>
      </trkpt>
      <trkpt lat="46.7802024073898792266845703125" lon="6.846467591822147369384765625">
        <ele>605.4000244140625</ele>
        <time>2013-09-01T14:39:43.000Z</time>
        <extensions>
          <ns3:TrackPointExtension>
            <ns3:atemp>17.0</ns3:atemp>
          </ns3:TrackPointExtension>
        </extensions>
      </trkpt>
      <trkpt lat="46.78017340600490570068359375" lon="6.84643532149493694305419921875">
        <ele>605.5999755859375</ele>
        <time>2013-09-01T14:39:44.000Z</time>
        <extensions>
          <ns3:TrackPointExtension>
            <ns3:atemp>17.0</ns3:atemp>
          </ns3:TrackPointExtension>
        </extensions>
      </trkpt>
      <trkpt lat="46.7801464162766933441162109375" lon="6.8464060686528682708740234375">
        <ele>606</ele>
        <time>2013-09-01T14:39:45.000Z</time>
        <extensions>
          <ns3:TrackPointExtension>
            <ns3:atemp>17.0</ns3:atemp>
          </ns3:TrackPointExtension>
        </extensions>
      </trkpt>
      <trkpt lat="46.780121438205242156982421875" lon="6.8463745526969432830810546875">
        <ele>606.20001220703125</ele>
        <time>2013-09-01T14:39:46.000Z</time>
        <extensions>
          <ns3:TrackPointExtension>
            <ns3:atemp>17.0</ns3:atemp>
          </ns3:TrackPointExtension>
        </extensions>
      </trkpt>
      <trkpt lat="46.780099309980869293212890625" lon="6.84634848497807979583740234375">
        <ele>606.5999755859375</ele>
        <time>2013-09-01T14:39:47.000Z</time>
        <extensions>
          <ns3:TrackPointExtension>
            <ns3:atemp>17.0</ns3:atemp>
          </ns3:TrackPointExtension>
        </extensions>
      </trkpt>
      <trkpt lat="46.7800800316035747528076171875" lon="6.84632308781147003173828125">
        <ele>606.79998779296875</ele>
        <time>2013-09-01T14:39:48.000Z</time>
        <extensions>
          <ns3:TrackPointExtension>
            <ns3:atemp>17.0</ns3:atemp>
          </ns3:TrackPointExtension>
        </extensions>
      </trkpt>
      <trkpt lat="46.78005664609372615814208984375" lon="6.846295930445194244384765625">
        <ele>607</ele>
        <time>2013-09-01T14:39:49.000Z</time>
        <extensions>
          <ns3:TrackPointExtension>
            <ns3:atemp>17.0</ns3:atemp>
          </ns3:TrackPointExtension>
        </extensions>
      </trkpt>
      <trkpt lat="46.78003351204097270965576171875" lon="6.84626801870763301849365234375">
        <ele>607.4000244140625</ele>
        <time>2013-09-01T14:39:50.000Z</time>
        <extensions>
          <ns3:TrackPointExtension>
            <ns3:atemp>17.0</ns3:atemp>
          </ns3:TrackPointExtension>
        </extensions>
      </trkpt>
      <trkpt lat="46.78001649677753448486328125" lon="6.84623650275170803070068359375">
        <ele>607.5999755859375</ele>
        <time>2013-09-01T14:39:51.000Z</time>
        <extensions>
          <ns3:TrackPointExtension>
            <ns3:atemp>17.0</ns3:atemp>
          </ns3:TrackPointExtension>
        </extensions>
      </trkpt>
      <trkpt lat="46.77999210543930530548095703125" lon="6.84621253050863742828369140625">
        <ele>608</ele>
        <time>2013-09-01T14:39:52.000Z</time>
        <extensions>
          <ns3:TrackPointExtension>
            <ns3:atemp>17.0</ns3:atemp>
          </ns3:TrackPointExtension>
        </extensions>
      </trkpt>
      <trkpt lat="46.7799700610339641571044921875" lon="6.846184618771076202392578125">
        <ele>608.5999755859375</ele>
        <time>2013-09-01T14:39:53.000Z</time>
        <extensions>
          <ns3:TrackPointExtension>
            <ns3:atemp>17.0</ns3:atemp>
          </ns3:TrackPointExtension>
        </extensions>
      </trkpt>
      <trkpt lat="46.77994684316217899322509765625" lon="6.8461509235203266143798828125">
        <ele>608.79998779296875</ele>
        <time>2013-09-01T14:39:54.000Z</time>
        <extensions>
          <ns3:TrackPointExtension>
            <ns3:atemp>17.0</ns3:atemp>
          </ns3:TrackPointExtension>
        </extensions>
      </trkpt>
      <trkpt lat="46.77992337383329868316650390625" lon="6.84611949138343334197998046875">
        <ele>609</ele>
        <time>2013-09-01T14:39:55.000Z</time>
        <extensions>
          <ns3:TrackPointExtension>
            <ns3:atemp>17.0</ns3:atemp>
          </ns3:TrackPointExtension>
        </extensions>
      </trkpt>
      <trkpt lat="46.7798991501331329345703125" lon="6.84608847834169864654541015625">
        <ele>609.20001220703125</ele>
        <time>2013-09-01T14:39:56.000Z</time>
        <extensions>
          <ns3:TrackPointExtension>
            <ns3:atemp>17.0</ns3:atemp>
          </ns3:TrackPointExtension>
        </extensions>
      </trkpt>
      <trkpt lat="46.77987744100391864776611328125" lon="6.846052519977092742919921875">
        <ele>609.5999755859375</ele>
        <time>2013-09-01T14:39:57.000Z</time>
        <extensions>
          <ns3:TrackPointExtension>
            <ns3:atemp>17.0</ns3:atemp>
          </ns3:TrackPointExtension>
        </extensions>
      </trkpt>
      <trkpt lat="46.77985698916018009185791015625" lon="6.8460153043270111083984375">
        <ele>609.5999755859375</ele>
        <time>2013-09-01T14:39:58.000Z</time>
        <extensions>
          <ns3:TrackPointExtension>
            <ns3:atemp>17.0</ns3:atemp>
          </ns3:TrackPointExtension>
        </extensions>
      </trkpt>
      <trkpt lat="46.77983804605901241302490234375" lon="6.845979429781436920166015625">
        <ele>610</ele>
        <time>2013-09-01T14:39:59.000Z</time>
        <extensions>
          <ns3:TrackPointExtension>
            <ns3:atemp>17.0</ns3:atemp>
          </ns3:TrackPointExtension>
        </extensions>
      </trkpt>
      <trkpt lat="46.779818348586559295654296875" lon="6.84594246558845043182373046875">
        <ele>610</ele>
        <time>2013-09-01T14:40:00.000Z</time>
        <extensions>
          <ns3:TrackPointExtension>
            <ns3:atemp>17.0</ns3:atemp>
          </ns3:TrackPointExtension>
        </extensions>
      </trkpt>
      <trkpt lat="46.779801584780216217041015625" lon="6.845903657376766204833984375">
        <ele>610.4000244140625</ele>
        <time>2013-09-01T14:40:01.000Z</time>
        <extensions>
          <ns3:TrackPointExtension>
            <ns3:atemp>17.0</ns3:atemp>
          </ns3:TrackPointExtension>
        </extensions>
      </trkpt>
      <trkpt lat="46.77978406660258769989013671875" lon="6.84586317278444766998291015625">
        <ele>610.5999755859375</ele>
        <time>2013-09-01T14:40:02.000Z</time>
        <extensions>
          <ns3:TrackPointExtension>
            <ns3:atemp>17.0</ns3:atemp>
          </ns3:TrackPointExtension>
        </extensions>
      </trkpt>
      <trkpt lat="46.77977166138589382171630859375" lon="6.84582076035439968109130859375">
        <ele>610.79998779296875</ele>
        <time>2013-09-01T14:40:03.000Z</time>
        <extensions>
          <ns3:TrackPointExtension>
            <ns3:atemp>17.0</ns3:atemp>
          </ns3:TrackPointExtension>
        </extensions>
      </trkpt>
      <trkpt lat="46.77975808270275592803955078125" lon="6.8457770906388759613037109375">
        <ele>610.79998779296875</ele>
        <time>2013-09-01T14:40:04.000Z</time>
        <extensions>
          <ns3:TrackPointExtension>
            <ns3:atemp>17.0</ns3:atemp>
          </ns3:TrackPointExtension>
        </extensions>
      </trkpt>
      <trkpt lat="46.779741905629634857177734375" lon="6.84573945589363574981689453125">
        <ele>610.79998779296875</ele>
        <time>2013-09-01T14:40:05.000Z</time>
        <extensions>
          <ns3:TrackPointExtension>
            <ns3:atemp>17.0</ns3:atemp>
          </ns3:TrackPointExtension>
        </extensions>
      </trkpt>
      <trkpt lat="46.77972455509006977081298828125" lon="6.84570123441517353057861328125">
        <ele>611.20001220703125</ele>
        <time>2013-09-01T14:40:06.000Z</time>
        <extensions>
          <ns3:TrackPointExtension>
            <ns3:atemp>17.0</ns3:atemp>
          </ns3:TrackPointExtension>
        </extensions>
      </trkpt>
      <trkpt lat="46.77970133721828460693359375" lon="6.84566820971667766571044921875">
        <ele>611.5999755859375</ele>
        <time>2013-09-01T14:40:07.000Z</time>
        <extensions>
          <ns3:TrackPointExtension>
            <ns3:atemp>17.0</ns3:atemp>
          </ns3:TrackPointExtension>
        </extensions>
      </trkpt>
      <trkpt lat="46.77968080155551433563232421875" lon="6.84563577175140380859375">
        <ele>611.79998779296875</ele>
        <time>2013-09-01T14:40:08.000Z</time>
        <extensions>
          <ns3:TrackPointExtension>
            <ns3:atemp>17.0</ns3:atemp>
          </ns3:TrackPointExtension>
        </extensions>
      </trkpt>
      <trkpt lat="46.779661439359188079833984375" lon="6.84560216031968593597412109375">
        <ele>612</ele>
        <time>2013-09-01T14:40:09.000Z</time>
        <extensions>
          <ns3:TrackPointExtension>
            <ns3:atemp>17.0</ns3:atemp>
          </ns3:TrackPointExtension>
        </extensions>
      </trkpt>
      <trkpt lat="46.7796411551535129547119140625" lon="6.8455675430595874786376953125">
        <ele>612.20001220703125</ele>
        <time>2013-09-01T14:40:10.000Z</time>
        <extensions>
          <ns3:TrackPointExtension>
            <ns3:atemp>17.0</ns3:atemp>
          </ns3:TrackPointExtension>
        </extensions>
      </trkpt>
      <trkpt lat="46.7796228826045989990234375" lon="6.8455323390662670135498046875">
        <ele>612.4000244140625</ele>
        <time>2013-09-01T14:40:11.000Z</time>
        <extensions>
          <ns3:TrackPointExtension>
            <ns3:atemp>17.0</ns3:atemp>
          </ns3:TrackPointExtension>
        </extensions>
      </trkpt>
      <trkpt lat="46.779603101313114166259765625" lon="6.84549688361585140228271484375">
        <ele>612.79998779296875</ele>
        <time>2013-09-01T14:40:12.000Z</time>
        <extensions>
          <ns3:TrackPointExtension>
            <ns3:atemp>17.0</ns3:atemp>
          </ns3:TrackPointExtension>
        </extensions>
      </trkpt>
      <trkpt lat="46.779583655297756195068359375" lon="6.8454615958034992218017578125">
        <ele>613</ele>
        <time>2013-09-01T14:40:13.000Z</time>
        <extensions>
          <ns3:TrackPointExtension>
            <ns3:atemp>17.0</ns3:atemp>
          </ns3:TrackPointExtension>
        </extensions>
      </trkpt>
      <trkpt lat="46.7795650474727153778076171875" lon="6.84543100185692310333251953125">
        <ele>613.20001220703125</ele>
        <time>2013-09-01T14:40:14.000Z</time>
        <extensions>
          <ns3:TrackPointExtension>
            <ns3:atemp>17.0</ns3:atemp>
          </ns3:TrackPointExtension>
        </extensions>
      </trkpt>
      <trkpt lat="46.779546104371547698974609375" lon="6.845396719872951507568359375">
        <ele>613.4000244140625</ele>
        <time>2013-09-01T14:40:15.000Z</time>
        <extensions>
          <ns3:TrackPointExtension>
            <ns3:atemp>17.0</ns3:atemp>
          </ns3:TrackPointExtension>
        </extensions>
      </trkpt>
      <trkpt lat="46.7795352078974246978759765625" lon="6.84536956250667572021484375">
        <ele>613.5999755859375</ele>
        <time>2013-09-01T14:40:16.000Z</time>
        <extensions>
          <ns3:TrackPointExtension>
            <ns3:atemp>17.0</ns3:atemp>
          </ns3:TrackPointExtension>
        </extensions>
      </trkpt>
      <trkpt lat="46.77952020429074764251708984375" lon="6.845329664647579193115234375">
        <ele>614.20001220703125</ele>
        <time>2013-09-01T14:40:17.000Z</time>
        <extensions>
          <ns3:TrackPointExtension>
            <ns3:atemp>17.0</ns3:atemp>
          </ns3:TrackPointExtension>
        </extensions>
      </trkpt>
      <trkpt lat="46.77950276993215084075927734375" lon="6.84529571793973445892333984375">
        <ele>614.5999755859375</ele>
        <time>2013-09-01T14:40:18.000Z</time>
        <extensions>
          <ns3:TrackPointExtension>
            <ns3:atemp>17.0</ns3:atemp>
          </ns3:TrackPointExtension>
        </extensions>
      </trkpt>
      <trkpt lat="46.77948215045034885406494140625" lon="6.84526319615542888641357421875">
        <ele>614.5999755859375</ele>
        <time>2013-09-01T14:40:19.000Z</time>
        <extensions>
          <ns3:TrackPointExtension>
            <ns3:atemp>17.0</ns3:atemp>
          </ns3:TrackPointExtension>
        </extensions>
      </trkpt>
      <trkpt lat="46.77946270443499088287353515625" lon="6.84523033909499645233154296875">
        <ele>614.79998779296875</ele>
        <time>2013-09-01T14:40:20.000Z</time>
        <extensions>
          <ns3:TrackPointExtension>
            <ns3:atemp>17.0</ns3:atemp>
          </ns3:TrackPointExtension>
        </extensions>
      </trkpt>
      <trkpt lat="46.779442839324474334716796875" lon="6.845202930271625518798828125">
        <ele>615</ele>
        <time>2013-09-01T14:40:21.000Z</time>
        <extensions>
          <ns3:TrackPointExtension>
            <ns3:atemp>17.0</ns3:atemp>
          </ns3:TrackPointExtension>
        </extensions>
      </trkpt>
      <trkpt lat="46.77942330949008464813232421875" lon="6.8451725877821445465087890625">
        <ele>615.4000244140625</ele>
        <time>2013-09-01T14:40:22.000Z</time>
        <extensions>
          <ns3:TrackPointExtension>
            <ns3:atemp>17.0</ns3:atemp>
          </ns3:TrackPointExtension>
        </extensions>
      </trkpt>
      <trkpt lat="46.77940067835152149200439453125" lon="6.845141239464282989501953125">
        <ele>615.5999755859375</ele>
        <time>2013-09-01T14:40:23.000Z</time>
        <extensions>
          <ns3:TrackPointExtension>
            <ns3:atemp>17.0</ns3:atemp>
          </ns3:TrackPointExtension>
        </extensions>
      </trkpt>
      <trkpt lat="46.7793833278119564056396484375" lon="6.845112740993499755859375">
        <ele>615.79998779296875</ele>
        <time>2013-09-01T14:40:24.000Z</time>
        <extensions>
          <ns3:TrackPointExtension>
            <ns3:atemp>17.0</ns3:atemp>
          </ns3:TrackPointExtension>
        </extensions>
      </trkpt>
      <trkpt lat="46.77936597727239131927490234375" lon="6.84508097358047962188720703125">
        <ele>616</ele>
        <time>2013-09-01T14:40:25.000Z</time>
        <extensions>
          <ns3:TrackPointExtension>
            <ns3:atemp>17.0</ns3:atemp>
          </ns3:TrackPointExtension>
        </extensions>
      </trkpt>
      <trkpt lat="46.77934619598090648651123046875" lon="6.84505096636712551116943359375">
        <ele>616.20001220703125</ele>
        <time>2013-09-01T14:40:26.000Z</time>
        <extensions>
          <ns3:TrackPointExtension>
            <ns3:atemp>17.0</ns3:atemp>
          </ns3:TrackPointExtension>
        </extensions>
      </trkpt>
      <trkpt lat="46.779330186545848846435546875" lon="6.84501542709767818450927734375">
        <ele>616.5999755859375</ele>
        <time>2013-09-01T14:40:27.000Z</time>
        <extensions>
          <ns3:TrackPointExtension>
            <ns3:atemp>17.0</ns3:atemp>
          </ns3:TrackPointExtension>
        </extensions>
      </trkpt>
      <trkpt lat="46.77931032143533229827880859375" lon="6.8449828214943408966064453125">
        <ele>616.5999755859375</ele>
        <time>2013-09-01T14:40:28.000Z</time>
        <extensions>
          <ns3:TrackPointExtension>
            <ns3:atemp>17.0</ns3:atemp>
          </ns3:TrackPointExtension>
        </extensions>
      </trkpt>
      <trkpt lat="46.77928919903934001922607421875" lon="6.84495088644325733184814453125">
        <ele>616.79998779296875</ele>
        <time>2013-09-01T14:40:29.000Z</time>
        <extensions>
          <ns3:TrackPointExtension>
            <ns3:atemp>17.0</ns3:atemp>
          </ns3:TrackPointExtension>
        </extensions>
      </trkpt>
      <trkpt lat="46.77927109412848949432373046875" lon="6.84491618536412715911865234375">
        <ele>616.79998779296875</ele>
        <time>2013-09-01T14:40:30.000Z</time>
        <extensions>
          <ns3:TrackPointExtension>
            <ns3:atemp>17.0</ns3:atemp>
          </ns3:TrackPointExtension>
        </extensions>
      </trkpt>
      <trkpt lat="46.77925449796020984649658203125" lon="6.84487628750503063201904296875">
        <ele>617</ele>
        <time>2013-09-01T14:40:31.000Z</time>
        <extensions>
          <ns3:TrackPointExtension>
            <ns3:atemp>17.0</ns3:atemp>
          </ns3:TrackPointExtension>
        </extensions>
      </trkpt>
      <trkpt lat="46.77923865616321563720703125" lon="6.84484074823558330535888671875">
        <ele>617.4000244140625</ele>
        <time>2013-09-01T14:40:32.000Z</time>
        <extensions>
          <ns3:TrackPointExtension>
            <ns3:atemp>17.0</ns3:atemp>
          </ns3:TrackPointExtension>
        </extensions>
      </trkpt>
      <trkpt lat="46.7792203836143016815185546875" lon="6.8448057956993579864501953125">
        <ele>617.5999755859375</ele>
        <time>2013-09-01T14:40:33.000Z</time>
        <extensions>
          <ns3:TrackPointExtension>
            <ns3:atemp>17.0</ns3:atemp>
          </ns3:TrackPointExtension>
        </extensions>
      </trkpt>
      <trkpt lat="46.7792016081511974334716796875" lon="6.84477218426764011383056640625">
        <ele>617.79998779296875</ele>
        <time>2013-09-01T14:40:34.000Z</time>
        <extensions>
          <ns3:TrackPointExtension>
            <ns3:atemp>17.0</ns3:atemp>
          </ns3:TrackPointExtension>
        </extensions>
      </trkpt>
      <trkpt lat="46.7791803181171417236328125" lon="6.8447358906269073486328125">
        <ele>618</ele>
        <time>2013-09-01T14:40:35.000Z</time>
        <extensions>
          <ns3:TrackPointExtension>
            <ns3:atemp>17.0</ns3:atemp>
          </ns3:TrackPointExtension>
        </extensions>
      </trkpt>
      <trkpt lat="46.77916045300662517547607421875" lon="6.84469808824360370635986328125">
        <ele>618.20001220703125</ele>
        <time>2013-09-01T14:40:36.000Z</time>
        <extensions>
          <ns3:TrackPointExtension>
            <ns3:atemp>17.0</ns3:atemp>
          </ns3:TrackPointExtension>
        </extensions>
      </trkpt>
      <trkpt lat="46.77913933061063289642333984375" lon="6.84466053731739521026611328125">
        <ele>618.4000244140625</ele>
        <time>2013-09-01T14:40:37.000Z</time>
        <extensions>
          <ns3:TrackPointExtension>
            <ns3:atemp>17.0</ns3:atemp>
          </ns3:TrackPointExtension>
        </extensions>
      </trkpt>
      <trkpt lat="46.77911904640495777130126953125" lon="6.8446260876953601837158203125">
        <ele>618.5999755859375</ele>
        <time>2013-09-01T14:40:38.000Z</time>
        <extensions>
          <ns3:TrackPointExtension>
            <ns3:atemp>17.0</ns3:atemp>
          </ns3:TrackPointExtension>
        </extensions>
      </trkpt>
      <trkpt lat="46.779099516570568084716796875" lon="6.844591386616230010986328125">
        <ele>618.79998779296875</ele>
        <time>2013-09-01T14:40:39.000Z</time>
        <extensions>
          <ns3:TrackPointExtension>
            <ns3:atemp>17.0</ns3:atemp>
          </ns3:TrackPointExtension>
        </extensions>
      </trkpt>
      <trkpt lat="46.77907981909811496734619140625" lon="6.84455743990838527679443359375">
        <ele>619</ele>
        <time>2013-09-01T14:40:40.000Z</time>
        <extensions>
          <ns3:TrackPointExtension>
            <ns3:atemp>17.0</ns3:atemp>
          </ns3:TrackPointExtension>
        </extensions>
      </trkpt>
      <trkpt lat="46.77905718795955181121826171875" lon="6.84452441520988941192626953125">
        <ele>619.4000244140625</ele>
        <time>2013-09-01T14:40:41.000Z</time>
        <extensions>
          <ns3:TrackPointExtension>
            <ns3:atemp>17.0</ns3:atemp>
          </ns3:TrackPointExtension>
        </extensions>
      </trkpt>
      <trkpt lat="46.77903807722032070159912109375" lon="6.84448652900755405426025390625">
        <ele>619.5999755859375</ele>
        <time>2013-09-01T14:40:42.000Z</time>
        <extensions>
          <ns3:TrackPointExtension>
            <ns3:atemp>17.0</ns3:atemp>
          </ns3:TrackPointExtension>
        </extensions>
      </trkpt>
      <trkpt lat="46.77901846356689929962158203125" lon="6.8444520793855190277099609375">
        <ele>619.5999755859375</ele>
        <time>2013-09-01T14:40:43.000Z</time>
        <extensions>
          <ns3:TrackPointExtension>
            <ns3:atemp>17.0</ns3:atemp>
          </ns3:TrackPointExtension>
        </extensions>
      </trkpt>
      <trkpt lat="46.778995580971240997314453125" lon="6.84442810714244842529296875">
        <ele>619.79998779296875</ele>
        <time>2013-09-01T14:40:44.000Z</time>
        <extensions>
          <ns3:TrackPointExtension>
            <ns3:atemp>17.0</ns3:atemp>
          </ns3:TrackPointExtension>
        </extensions>
      </trkpt>
      <trkpt lat="46.77897236309945583343505859375" lon="6.8444037996232509613037109375">
        <ele>619.79998779296875</ele>
        <time>2013-09-01T14:40:45.000Z</time>
        <extensions>
          <ns3:TrackPointExtension>
            <ns3:atemp>17.0</ns3:atemp>
          </ns3:TrackPointExtension>
        </extensions>
      </trkpt>
      <trkpt lat="46.778948307037353515625" lon="6.8443716131150722503662109375">
        <ele>620</ele>
        <time>2013-09-01T14:40:46.000Z</time>
        <extensions>
          <ns3:TrackPointExtension>
            <ns3:atemp>17.0</ns3:atemp>
          </ns3:TrackPointExtension>
        </extensions>
      </trkpt>
      <trkpt lat="46.7789219878613948822021484375" lon="6.84433515183627605438232421875">
        <ele>620.20001220703125</ele>
        <time>2013-09-01T14:40:47.000Z</time>
        <extensions>
          <ns3:TrackPointExtension>
            <ns3:atemp>17.0</ns3:atemp>
          </ns3:TrackPointExtension>
        </extensions>
      </trkpt>
      <trkpt lat="46.7788986861705780029296875" lon="6.8442998640239238739013671875">
        <ele>620.5999755859375</ele>
        <time>2013-09-01T14:40:48.000Z</time>
        <extensions>
          <ns3:TrackPointExtension>
            <ns3:atemp>17.0</ns3:atemp>
          </ns3:TrackPointExtension>
        </extensions>
      </trkpt>
      <trkpt lat="46.77887949161231517791748046875" lon="6.84425015933811664581298828125">
        <ele>620.79998779296875</ele>
        <time>2013-09-01T14:40:49.000Z</time>
        <extensions>
          <ns3:TrackPointExtension>
            <ns3:atemp>17.0</ns3:atemp>
          </ns3:TrackPointExtension>
        </extensions>
      </trkpt>
      <trkpt lat="46.77885510027408599853515625" lon="6.84420824982225894927978515625">
        <ele>621</ele>
        <time>2013-09-01T14:40:50.000Z</time>
        <extensions>
          <ns3:TrackPointExtension>
            <ns3:atemp>17.0</ns3:atemp>
          </ns3:TrackPointExtension>
        </extensions>
      </trkpt>
      <trkpt lat="46.77883070893585681915283203125" lon="6.84417338110506534576416015625">
        <ele>621.20001220703125</ele>
        <time>2013-09-01T14:40:51.000Z</time>
        <extensions>
          <ns3:TrackPointExtension>
            <ns3:atemp>17.0</ns3:atemp>
          </ns3:TrackPointExtension>
        </extensions>
      </trkpt>
      <trkpt lat="46.77880070172250270843505859375" lon="6.8441469781100749969482421875">
        <ele>621.4000244140625</ele>
        <time>2013-09-01T14:40:52.000Z</time>
        <extensions>
          <ns3:TrackPointExtension>
            <ns3:atemp>17.0</ns3:atemp>
          </ns3:TrackPointExtension>
        </extensions>
      </trkpt>
      <trkpt lat="46.7787724547088146209716796875" lon="6.84413029812276363372802734375">
        <ele>621.4000244140625</ele>
        <time>2013-09-01T14:40:53.000Z</time>
        <extensions>
          <ns3:TrackPointExtension>
            <ns3:atemp>17.0</ns3:atemp>
          </ns3:TrackPointExtension>
        </extensions>
      </trkpt>
      <trkpt lat="46.7787456326186656951904296875" lon="6.8441171385347843170166015625">
        <ele>621.5999755859375</ele>
        <time>2013-09-01T14:40:54.000Z</time>
        <extensions>
          <ns3:TrackPointExtension>
            <ns3:atemp>17.0</ns3:atemp>
          </ns3:TrackPointExtension>
        </extensions>
      </trkpt>
      <trkpt lat="46.778717301785945892333984375" lon="6.8441084213554859161376953125">
        <ele>621.79998779296875</ele>
        <time>2013-09-01T14:40:55.000Z</time>
        <extensions>
          <ns3:TrackPointExtension>
            <ns3:atemp>17.0</ns3:atemp>
          </ns3:TrackPointExtension>
        </extensions>
      </trkpt>
      <trkpt lat="46.77868754602968692779541015625" lon="6.84409207664430141448974609375">
        <ele>622.20001220703125</ele>
        <time>2013-09-01T14:40:56.000Z</time>
        <extensions>
          <ns3:TrackPointExtension>
            <ns3:atemp>17.0</ns3:atemp>
          </ns3:TrackPointExtension>
        </extensions>
      </trkpt>
      <trkpt lat="46.7786599695682525634765625" lon="6.84408067725598812103271484375">
        <ele>622.4000244140625</ele>
        <time>2013-09-01T14:40:57.000Z</time>
        <extensions>
          <ns3:TrackPointExtension>
            <ns3:atemp>17.0</ns3:atemp>
          </ns3:TrackPointExtension>
        </extensions>
      </trkpt>
      <trkpt lat="46.77863406948745250701904296875" lon="6.84407137334346771240234375">
        <ele>622.4000244140625</ele>
        <time>2013-09-01T14:40:58.000Z</time>
        <extensions>
          <ns3:TrackPointExtension>
            <ns3:atemp>17.0</ns3:atemp>
          </ns3:TrackPointExtension>
        </extensions>
      </trkpt>
      <trkpt lat="46.7786044813692569732666015625" lon="6.844061315059661865234375">
        <ele>622.79998779296875</ele>
        <time>2013-09-01T14:40:59.000Z</time>
        <extensions>
          <ns3:TrackPointExtension>
            <ns3:atemp>17.0</ns3:atemp>
          </ns3:TrackPointExtension>
        </extensions>
      </trkpt>
      <trkpt lat="46.7785746417939662933349609375" lon="6.8440524302423000335693359375">
        <ele>623</ele>
        <time>2013-09-01T14:41:00.000Z</time>
        <extensions>
          <ns3:TrackPointExtension>
            <ns3:atemp>17.0</ns3:atemp>
          </ns3:TrackPointExtension>
        </extensions>
      </trkpt>
      <trkpt lat="46.77855108864605426788330078125" lon="6.8440465629100799560546875">
        <ele>623.20001220703125</ele>
        <time>2013-09-01T14:41:01.000Z</time>
        <extensions>
          <ns3:TrackPointExtension>
            <ns3:atemp>17.0</ns3:atemp>
          </ns3:TrackPointExtension>
        </extensions>
      </trkpt>
      <trkpt lat="46.77851856686174869537353515625" lon="6.8440410308539867401123046875">
        <ele>623.5999755859375</ele>
        <time>2013-09-01T14:41:02.000Z</time>
        <extensions>
          <ns3:TrackPointExtension>
            <ns3:atemp>17.0</ns3:atemp>
          </ns3:TrackPointExtension>
        </extensions>
      </trkpt>
      <trkpt lat="46.77848654799163341522216796875" lon="6.84403373859822750091552734375">
        <ele>623.79998779296875</ele>
        <time>2013-09-01T14:41:03.000Z</time>
        <extensions>
          <ns3:TrackPointExtension>
            <ns3:atemp>17.0</ns3:atemp>
          </ns3:TrackPointExtension>
        </extensions>
      </trkpt>
      <trkpt lat="46.77845955826342105865478515625" lon="6.84402577579021453857421875">
        <ele>624</ele>
        <time>2013-09-01T14:41:04.000Z</time>
        <extensions>
          <ns3:TrackPointExtension>
            <ns3:atemp>17.0</ns3:atemp>
          </ns3:TrackPointExtension>
        </extensions>
      </trkpt>
      <trkpt lat="46.77843022160232067108154296875" lon="6.84401479549705982208251953125">
        <ele>624.5999755859375</ele>
        <time>2013-09-01T14:41:05.000Z</time>
        <extensions>
          <ns3:TrackPointExtension>
            <ns3:atemp>17.0</ns3:atemp>
          </ns3:TrackPointExtension>
        </extensions>
      </trkpt>
      <trkpt lat="46.77839702926576137542724609375" lon="6.84400104917585849761962890625">
        <ele>624.79998779296875</ele>
        <time>2013-09-01T14:41:06.000Z</time>
        <extensions>
          <ns3:TrackPointExtension>
            <ns3:atemp>17.0</ns3:atemp>
          </ns3:TrackPointExtension>
        </extensions>
      </trkpt>
      <trkpt lat="46.778364591300487518310546875" lon="6.8439875543117523193359375">
        <ele>625.20001220703125</ele>
        <time>2013-09-01T14:41:07.000Z</time>
        <extensions>
          <ns3:TrackPointExtension>
            <ns3:atemp>17.0</ns3:atemp>
          </ns3:TrackPointExtension>
        </extensions>
      </trkpt>
      <trkpt lat="46.77833399735391139984130859375" lon="6.843966431915760040283203125">
        <ele>625.79998779296875</ele>
        <time>2013-09-01T14:41:08.000Z</time>
        <extensions>
          <ns3:TrackPointExtension>
            <ns3:atemp>17.0</ns3:atemp>
          </ns3:TrackPointExtension>
        </extensions>
      </trkpt>
      <trkpt lat="46.778304241597652435302734375" lon="6.8439394421875476837158203125">
        <ele>626</ele>
        <time>2013-09-01T14:41:09.000Z</time>
        <extensions>
          <ns3:TrackPointExtension>
            <ns3:atemp>17.0</ns3:atemp>
          </ns3:TrackPointExtension>
        </extensions>
      </trkpt>
      <trkpt lat="46.77827398292720317840576171875" lon="6.84392745606601238250732421875">
        <ele>626.20001220703125</ele>
        <time>2013-09-01T14:41:10.000Z</time>
        <extensions>
          <ns3:TrackPointExtension>
            <ns3:atemp>17.0</ns3:atemp>
          </ns3:TrackPointExtension>
        </extensions>
      </trkpt>
      <trkpt lat="46.77824615500867366790771484375" lon="6.8439092673361301422119140625">
        <ele>626.4000244140625</ele>
        <time>2013-09-01T14:41:11.000Z</time>
        <extensions>
          <ns3:TrackPointExtension>
            <ns3:atemp>17.0</ns3:atemp>
          </ns3:TrackPointExtension>
        </extensions>
      </trkpt>
      <trkpt lat="46.7782158963382244110107421875" lon="6.8438883125782012939453125">
        <ele>626.4000244140625</ele>
        <time>2013-09-01T14:41:12.000Z</time>
        <extensions>
          <ns3:TrackPointExtension>
            <ns3:atemp>17.0</ns3:atemp>
          </ns3:TrackPointExtension>
        </extensions>
      </trkpt>
      <trkpt lat="46.77818588912487030029296875" lon="6.84386911801993846893310546875">
        <ele>626.5999755859375</ele>
        <time>2013-09-01T14:41:13.000Z</time>
        <extensions>
          <ns3:TrackPointExtension>
            <ns3:atemp>17.0</ns3:atemp>
          </ns3:TrackPointExtension>
        </extensions>
      </trkpt>
      <trkpt lat="46.77815596573054790496826171875" lon="6.84385118074715137481689453125">
        <ele>626.5999755859375</ele>
        <time>2013-09-01T14:41:14.000Z</time>
        <extensions>
          <ns3:TrackPointExtension>
            <ns3:atemp>17.0</ns3:atemp>
          </ns3:TrackPointExtension>
        </extensions>
      </trkpt>
      <trkpt lat="46.7781277187168598175048828125" lon="6.8438368476927280426025390625">
        <ele>626.79998779296875</ele>
        <time>2013-09-01T14:41:15.000Z</time>
        <extensions>
          <ns3:TrackPointExtension>
            <ns3:atemp>17.0</ns3:atemp>
          </ns3:TrackPointExtension>
        </extensions>
      </trkpt>
      <trkpt lat="46.77810198627412319183349609375" lon="6.8438163958489894866943359375">
        <ele>627</ele>
        <time>2013-09-01T14:41:16.000Z</time>
        <extensions>
          <ns3:TrackPointExtension>
            <ns3:atemp>17.0</ns3:atemp>
          </ns3:TrackPointExtension>
        </extensions>
      </trkpt>
      <trkpt lat="46.77807499654591083526611328125" lon="6.84379451908171176910400390625">
        <ele>627.20001220703125</ele>
        <time>2013-09-01T14:41:17.000Z</time>
        <extensions>
          <ns3:TrackPointExtension>
            <ns3:atemp>17.0</ns3:atemp>
          </ns3:TrackPointExtension>
        </extensions>
      </trkpt>
      <trkpt lat="46.7780452407896518707275390625" lon="6.8437810242176055908203125">
        <ele>627.4000244140625</ele>
        <time>2013-09-01T14:41:18.000Z</time>
        <extensions>
          <ns3:TrackPointExtension>
            <ns3:atemp>17.0</ns3:atemp>
          </ns3:TrackPointExtension>
        </extensions>
      </trkpt>
      <trkpt lat="46.77801556885242462158203125" lon="6.843767948448657989501953125">
        <ele>627.79998779296875</ele>
        <time>2013-09-01T14:41:19.000Z</time>
        <extensions>
          <ns3:TrackPointExtension>
            <ns3:atemp>17.0</ns3:atemp>
          </ns3:TrackPointExtension>
        </extensions>
      </trkpt>
      <trkpt lat="46.77798899821937084197998046875" lon="6.84374992735683917999267578125">
        <ele>628</ele>
        <time>2013-09-01T14:41:20.000Z</time>
        <extensions>
          <ns3:TrackPointExtension>
            <ns3:atemp>16.0</ns3:atemp>
          </ns3:TrackPointExtension>
        </extensions>
      </trkpt>
      <trkpt lat="46.777963601052761077880859375" lon="6.84372729621827602386474609375">
        <ele>628</ele>
        <time>2013-09-01T14:41:21.000Z</time>
        <extensions>
          <ns3:TrackPointExtension>
            <ns3:atemp>16.0</ns3:atemp>
          </ns3:TrackPointExtension>
        </extensions>
      </trkpt>
      <trkpt lat="46.7779349349439144134521484375" lon="6.84370432980358600616455078125">
        <ele>628.4000244140625</ele>
        <time>2013-09-01T14:41:22.000Z</time>
        <extensions>
          <ns3:TrackPointExtension>
            <ns3:atemp>16.0</ns3:atemp>
          </ns3:TrackPointExtension>
        </extensions>
      </trkpt>
      <trkpt lat="46.77790920250117778778076171875" lon="6.8436762504279613494873046875">
        <ele>628.5999755859375</ele>
        <time>2013-09-01T14:41:23.000Z</time>
        <extensions>
          <ns3:TrackPointExtension>
            <ns3:atemp>16.0</ns3:atemp>
          </ns3:TrackPointExtension>
        </extensions>
      </trkpt>
      <trkpt lat="46.77788673900067806243896484375" lon="6.84364733286201953887939453125">
        <ele>628.79998779296875</ele>
        <time>2013-09-01T14:41:24.000Z</time>
        <extensions>
          <ns3:TrackPointExtension>
            <ns3:atemp>16.0</ns3:atemp>
          </ns3:TrackPointExtension>
        </extensions>
      </trkpt>
      <trkpt lat="46.77786243148148059844970703125" lon="6.843620426952838897705078125">
        <ele>629.20001220703125</ele>
        <time>2013-09-01T14:41:25.000Z</time>
        <extensions>
          <ns3:TrackPointExtension>
            <ns3:atemp>16.0</ns3:atemp>
          </ns3:TrackPointExtension>
        </extensions>
      </trkpt>
      <trkpt lat="46.7778383754193782806396484375" lon="6.8436014838516712188720703125">
        <ele>629.4000244140625</ele>
        <time>2013-09-01T14:41:26.000Z</time>
        <extensions>
          <ns3:TrackPointExtension>
            <ns3:atemp>16.0</ns3:atemp>
          </ns3:TrackPointExtension>
        </extensions>
      </trkpt>
      <trkpt lat="46.77781096659600734710693359375" lon="6.843582876026630401611328125">
        <ele>629.79998779296875</ele>
        <time>2013-09-01T14:41:27.000Z</time>
        <extensions>
          <ns3:TrackPointExtension>
            <ns3:atemp>16.0</ns3:atemp>
          </ns3:TrackPointExtension>
        </extensions>
      </trkpt>
      <trkpt lat="46.77778732962906360626220703125" lon="6.84356770478188991546630859375">
        <ele>630.20001220703125</ele>
        <time>2013-09-01T14:41:28.000Z</time>
        <extensions>
          <ns3:TrackPointExtension>
            <ns3:atemp>16.0</ns3:atemp>
          </ns3:TrackPointExtension>
        </extensions>
      </trkpt>
      <trkpt lat="46.77776218391954898834228515625" lon="6.843545325100421905517578125">
        <ele>630.4000244140625</ele>
        <time>2013-09-01T14:41:29.000Z</time>
        <extensions>
          <ns3:TrackPointExtension>
            <ns3:atemp>16.0</ns3:atemp>
          </ns3:TrackPointExtension>
        </extensions>
      </trkpt>
      <trkpt lat="46.77773335017263889312744140625" lon="6.84352395124733448028564453125">
        <ele>630.5999755859375</ele>
        <time>2013-09-01T14:41:30.000Z</time>
        <extensions>
          <ns3:TrackPointExtension>
            <ns3:atemp>16.0</ns3:atemp>
          </ns3:TrackPointExtension>
        </extensions>
      </trkpt>
      <trkpt lat="46.7777039296925067901611328125" lon="6.843508780002593994140625">
        <ele>630.79998779296875</ele>
        <time>2013-09-01T14:41:31.000Z</time>
        <extensions>
          <ns3:TrackPointExtension>
            <ns3:atemp>16.0</ns3:atemp>
          </ns3:TrackPointExtension>
        </extensions>
      </trkpt>
      <trkpt lat="46.777675263583660125732421875" lon="6.84349335730075836181640625">
        <ele>630.79998779296875</ele>
        <time>2013-09-01T14:41:32.000Z</time>
        <extensions>
          <ns3:TrackPointExtension>
            <ns3:atemp>16.0</ns3:atemp>
          </ns3:TrackPointExtension>
        </extensions>
      </trkpt>
      <trkpt lat="46.7776442505419254302978515625" lon="6.84347382746636867523193359375">
        <ele>631</ele>
        <time>2013-09-01T14:41:33.000Z</time>
        <extensions>
          <ns3:TrackPointExtension>
            <ns3:atemp>16.0</ns3:atemp>
          </ns3:TrackPointExtension>
        </extensions>
      </trkpt>
      <trkpt lat="46.77761466242372989654541015625" lon="6.8434610031545162200927734375">
        <ele>631</ele>
        <time>2013-09-01T14:41:34.000Z</time>
        <extensions>
          <ns3:TrackPointExtension>
            <ns3:atemp>16.0</ns3:atemp>
          </ns3:TrackPointExtension>
        </extensions>
      </trkpt>
      <trkpt lat="46.77758381702005863189697265625" lon="6.84345052577555179595947265625">
        <ele>631.20001220703125</ele>
        <time>2013-09-01T14:41:35.000Z</time>
        <extensions>
          <ns3:TrackPointExtension>
            <ns3:atemp>16.0</ns3:atemp>
          </ns3:TrackPointExtension>
        </extensions>
      </trkpt>
      <trkpt lat="46.77755598910152912139892578125" lon="6.8434355221688747406005859375">
        <ele>631.4000244140625</ele>
        <time>2013-09-01T14:41:36.000Z</time>
        <extensions>
          <ns3:TrackPointExtension>
            <ns3:atemp>16.0</ns3:atemp>
          </ns3:TrackPointExtension>
        </extensions>
      </trkpt>
      <trkpt lat="46.7775235511362552642822265625" lon="6.843428649008274078369140625">
        <ele>631.79998779296875</ele>
        <time>2013-09-01T14:41:37.000Z</time>
        <extensions>
          <ns3:TrackPointExtension>
            <ns3:atemp>16.0</ns3:atemp>
          </ns3:TrackPointExtension>
        </extensions>
      </trkpt>
      <trkpt lat="46.777490861713886260986328125" lon="6.84342093765735626220703125">
        <ele>632</ele>
        <time>2013-09-01T14:41:38.000Z</time>
        <extensions>
          <ns3:TrackPointExtension>
            <ns3:atemp>16.0</ns3:atemp>
          </ns3:TrackPointExtension>
        </extensions>
      </trkpt>
      <trkpt lat="46.7774595133960247039794921875" lon="6.84341498650610446929931640625">
        <ele>632.20001220703125</ele>
        <time>2013-09-01T14:41:39.000Z</time>
        <extensions>
          <ns3:TrackPointExtension>
            <ns3:atemp>16.0</ns3:atemp>
          </ns3:TrackPointExtension>
        </extensions>
      </trkpt>
      <trkpt lat="46.7774253152310848236083984375" lon="6.84340484440326690673828125">
        <ele>632.20001220703125</ele>
        <time>2013-09-01T14:41:40.000Z</time>
        <extensions>
          <ns3:TrackPointExtension>
            <ns3:atemp>16.0</ns3:atemp>
          </ns3:TrackPointExtension>
        </extensions>
      </trkpt>
      <trkpt lat="46.7773927934467792510986328125" lon="6.84339369647204875946044921875">
        <ele>632.4000244140625</ele>
        <time>2013-09-01T14:41:41.000Z</time>
        <extensions>
          <ns3:TrackPointExtension>
            <ns3:atemp>16.0</ns3:atemp>
          </ns3:TrackPointExtension>
        </extensions>
      </trkpt>
      <trkpt lat="46.77735767327249050140380859375" lon="6.843385733664035797119140625">
        <ele>632.5999755859375</ele>
        <time>2013-09-01T14:41:42.000Z</time>
        <extensions>
          <ns3:TrackPointExtension>
            <ns3:atemp>16.0</ns3:atemp>
          </ns3:TrackPointExtension>
        </extensions>
      </trkpt>
      <trkpt lat="46.7773257382214069366455078125" lon="6.84338162653148174285888671875">
        <ele>632.79998779296875</ele>
        <time>2013-09-01T14:41:43.000Z</time>
        <extensions>
          <ns3:TrackPointExtension>
            <ns3:atemp>16.0</ns3:atemp>
          </ns3:TrackPointExtension>
        </extensions>
      </trkpt>
      <trkpt lat="46.777299083769321441650390625" lon="6.8433758430182933807373046875">
        <ele>633</ele>
        <time>2013-09-01T14:41:44.000Z</time>
        <extensions>
          <ns3:TrackPointExtension>
            <ns3:atemp>16.0</ns3:atemp>
          </ns3:TrackPointExtension>
        </extensions>
      </trkpt>
      <trkpt lat="46.7772687412798404693603515625" lon="6.8433721549808979034423828125">
        <ele>633.20001220703125</ele>
        <time>2013-09-01T14:41:45.000Z</time>
        <extensions>
          <ns3:TrackPointExtension>
            <ns3:atemp>16.0</ns3:atemp>
          </ns3:TrackPointExtension>
        </extensions>
      </trkpt>
      <trkpt lat="46.7772348783910274505615234375" lon="6.84337140060961246490478515625">
        <ele>633.20001220703125</ele>
        <time>2013-09-01T14:41:46.000Z</time>
        <extensions>
          <ns3:TrackPointExtension>
            <ns3:atemp>16.0</ns3:atemp>
          </ns3:TrackPointExtension>
        </extensions>
      </trkpt>
      <trkpt lat="46.77720277570188045501708984375" lon="6.84336218051612377166748046875">
        <ele>633.4000244140625</ele>
        <time>2013-09-01T14:41:47.000Z</time>
        <extensions>
          <ns3:TrackPointExtension>
            <ns3:atemp>16.0</ns3:atemp>
          </ns3:TrackPointExtension>
        </extensions>
      </trkpt>
      <trkpt lat="46.77717478014528751373291015625" lon="6.84335966594517230987548828125">
        <ele>633.5999755859375</ele>
        <time>2013-09-01T14:41:48.000Z</time>
        <extensions>
          <ns3:TrackPointExtension>
            <ns3:atemp>16.0</ns3:atemp>
          </ns3:TrackPointExtension>
        </extensions>
      </trkpt>
      <trkpt lat="46.77714410237967967987060546875" lon="6.8433547206223011016845703125">
        <ele>633.5999755859375</ele>
        <time>2013-09-01T14:41:49.000Z</time>
        <extensions>
          <ns3:TrackPointExtension>
            <ns3:atemp>16.0</ns3:atemp>
          </ns3:TrackPointExtension>
        </extensions>
      </trkpt>
      <trkpt lat="46.7771141789853572845458984375" lon="6.843352876603603363037109375">
        <ele>633.79998779296875</ele>
        <time>2013-09-01T14:41:50.000Z</time>
        <extensions>
          <ns3:TrackPointExtension>
            <ns3:atemp>16.0</ns3:atemp>
          </ns3:TrackPointExtension>
        </extensions>
      </trkpt>
      <trkpt lat="46.77708140574395656585693359375" lon="6.8433496914803981781005859375">
        <ele>634</ele>
        <time>2013-09-01T14:41:51.000Z</time>
        <extensions>
          <ns3:TrackPointExtension>
            <ns3:atemp>16.0</ns3:atemp>
          </ns3:TrackPointExtension>
        </extensions>
      </trkpt>
      <trkpt lat="46.77705139853060245513916015625" lon="6.84334055520594120025634765625">
        <ele>634.20001220703125</ele>
        <time>2013-09-01T14:41:52.000Z</time>
        <extensions>
          <ns3:TrackPointExtension>
            <ns3:atemp>16.0</ns3:atemp>
          </ns3:TrackPointExtension>
        </extensions>
      </trkpt>
      <trkpt lat="46.77701778709888458251953125" lon="6.84333334676921367645263671875">
        <ele>634.5999755859375</ele>
        <time>2013-09-01T14:41:53.000Z</time>
        <extensions>
          <ns3:TrackPointExtension>
            <ns3:atemp>16.0</ns3:atemp>
          </ns3:TrackPointExtension>
        </extensions>
      </trkpt>
      <trkpt lat="46.77698618732392787933349609375" lon="6.84332278557121753692626953125">
        <ele>635</ele>
        <time>2013-09-01T14:41:54.000Z</time>
        <extensions>
          <ns3:TrackPointExtension>
            <ns3:atemp>16.0</ns3:atemp>
          </ns3:TrackPointExtension>
        </extensions>
      </trkpt>
      <trkpt lat="46.77695207297801971435546875" lon="6.8433114700019359588623046875">
        <ele>634.79998779296875</ele>
        <time>2013-09-01T14:41:55.000Z</time>
        <extensions>
          <ns3:TrackPointExtension>
            <ns3:atemp>16.0</ns3:atemp>
          </ns3:TrackPointExtension>
        </extensions>
      </trkpt>
      <trkpt lat="46.77691577933728694915771484375" lon="6.84329965151846408843994140625">
        <ele>635</ele>
        <time>2013-09-01T14:41:56.000Z</time>
        <extensions>
          <ns3:TrackPointExtension>
            <ns3:atemp>16.0</ns3:atemp>
          </ns3:TrackPointExtension>
        </extensions>
      </trkpt>
      <trkpt lat="46.776878647506237030029296875" lon="6.8432853184640407562255859375">
        <ele>635.20001220703125</ele>
        <time>2013-09-01T14:41:57.000Z</time>
        <extensions>
          <ns3:TrackPointExtension>
            <ns3:atemp>16.0</ns3:atemp>
          </ns3:TrackPointExtension>
        </extensions>
      </trkpt>
      <trkpt lat="46.77684352733194828033447265625" lon="6.84327199123799800872802734375">
        <ele>635.4000244140625</ele>
        <time>2013-09-01T14:41:58.000Z</time>
        <extensions>
          <ns3:TrackPointExtension>
            <ns3:atemp>16.0</ns3:atemp>
          </ns3:TrackPointExtension>
        </extensions>
      </trkpt>
      <trkpt lat="46.77680714987218379974365234375" lon="6.84325958602130413055419921875">
        <ele>635.4000244140625</ele>
        <time>2013-09-01T14:41:59.000Z</time>
        <extensions>
          <ns3:TrackPointExtension>
            <ns3:atemp>16.0</ns3:atemp>
          </ns3:TrackPointExtension>
        </extensions>
      </trkpt>
      <trkpt lat="46.776771359145641326904296875" lon="6.84324768371880054473876953125">
        <ele>635.5999755859375</ele>
        <time>2013-09-01T14:42:00.000Z</time>
        <extensions>
          <ns3:TrackPointExtension>
            <ns3:atemp>16.0</ns3:atemp>
          </ns3:TrackPointExtension>
        </extensions>
      </trkpt>
      <trkpt lat="46.776740513741970062255859375" lon="6.84324122965335845947265625">
        <ele>635.5999755859375</ele>
        <time>2013-09-01T14:42:01.000Z</time>
        <extensions>
          <ns3:TrackPointExtension>
            <ns3:atemp>16.0</ns3:atemp>
          </ns3:TrackPointExtension>
        </extensions>
      </trkpt>
      <trkpt lat="46.77670522592961788177490234375" lon="6.84323661960661411285400390625">
        <ele>635.79998779296875</ele>
        <time>2013-09-01T14:42:02.000Z</time>
        <extensions>
          <ns3:TrackPointExtension>
            <ns3:atemp>16.0</ns3:atemp>
          </ns3:TrackPointExtension>
        </extensions>
      </trkpt>
      <trkpt lat="46.77667220123112201690673828125" lon="6.84322781860828399658203125">
        <ele>635.79998779296875</ele>
        <time>2013-09-01T14:42:03.000Z</time>
        <extensions>
          <ns3:TrackPointExtension>
            <ns3:atemp>16.0</ns3:atemp>
          </ns3:TrackPointExtension>
        </extensions>
      </trkpt>
      <trkpt lat="46.77664135582745075225830078125" lon="6.84322647750377655029296875">
        <ele>635.79998779296875</ele>
        <time>2013-09-01T14:42:04.000Z</time>
        <extensions>
          <ns3:TrackPointExtension>
            <ns3:atemp>16.0</ns3:atemp>
          </ns3:TrackPointExtension>
        </extensions>
      </trkpt>
      <trkpt lat="46.77660916931927204132080078125" lon="6.843235194683074951171875">
        <ele>636</ele>
        <time>2013-09-01T14:42:05.000Z</time>
        <extensions>
          <ns3:TrackPointExtension>
            <ns3:atemp>16.0</ns3:atemp>
          </ns3:TrackPointExtension>
        </extensions>
      </trkpt>
      <trkpt lat="46.77656608633697032928466796875" lon="6.84323779307305812835693359375">
        <ele>635.79998779296875</ele>
        <time>2013-09-01T14:42:06.000Z</time>
        <extensions>
          <ns3:TrackPointExtension>
            <ns3:atemp>16.0</ns3:atemp>
          </ns3:TrackPointExtension>
        </extensions>
      </trkpt>
      <trkpt lat="46.77652266807854175567626953125" lon="6.84324718080461025238037109375">
        <ele>635.79998779296875</ele>
        <time>2013-09-01T14:42:07.000Z</time>
        <extensions>
          <ns3:TrackPointExtension>
            <ns3:atemp>16.0</ns3:atemp>
          </ns3:TrackPointExtension>
        </extensions>
      </trkpt>
      <trkpt lat="46.776477992534637451171875" lon="6.84325598180294036865234375">
        <ele>635.79998779296875</ele>
        <time>2013-09-01T14:42:08.000Z</time>
        <extensions>
          <ns3:TrackPointExtension>
            <ns3:atemp>16.0</ns3:atemp>
          </ns3:TrackPointExtension>
        </extensions>
      </trkpt>
      <trkpt lat="46.77643583156168460845947265625" lon="6.84326729737222194671630859375">
        <ele>635.79998779296875</ele>
        <time>2013-09-01T14:42:09.000Z</time>
        <extensions>
          <ns3:TrackPointExtension>
            <ns3:atemp>16.0</ns3:atemp>
          </ns3:TrackPointExtension>
        </extensions>
      </trkpt>
      <trkpt lat="46.77639040164649486541748046875" lon="6.84326612390577793121337890625">
        <ele>636</ele>
        <time>2013-09-01T14:42:10.000Z</time>
        <extensions>
          <ns3:TrackPointExtension>
            <ns3:atemp>16.0</ns3:atemp>
          </ns3:TrackPointExtension>
        </extensions>
      </trkpt>
      <trkpt lat="46.7763551138341426849365234375" lon="6.843254305422306060791015625">
        <ele>635.5999755859375</ele>
        <time>2013-09-01T14:42:11.000Z</time>
        <extensions>
          <ns3:TrackPointExtension>
            <ns3:atemp>16.0</ns3:atemp>
          </ns3:TrackPointExtension>
        </extensions>
      </trkpt>
      <trkpt lat="46.7763242684304714202880859375" lon="6.8432289920747280120849609375">
        <ele>635.4000244140625</ele>
        <time>2013-09-01T14:42:12.000Z</time>
        <extensions>
          <ns3:TrackPointExtension>
            <ns3:atemp>16.0</ns3:atemp>
          </ns3:TrackPointExtension>
        </extensions>
      </trkpt>
      <trkpt lat="46.776299290359020233154296875" lon="6.843132264912128448486328125">
        <ele>635.20001220703125</ele>
        <time>2013-09-01T14:42:13.000Z</time>
        <extensions>
          <ns3:TrackPointExtension>
            <ns3:atemp>16.0</ns3:atemp>
          </ns3:TrackPointExtension>
        </extensions>
      </trkpt>
      <trkpt lat="46.7762870527803897857666015625" lon="6.843057833611965179443359375">
        <ele>635.20001220703125</ele>
        <time>2013-09-01T14:42:14.000Z</time>
        <extensions>
          <ns3:TrackPointExtension>
            <ns3:atemp>16.0</ns3:atemp>
          </ns3:TrackPointExtension>
        </extensions>
      </trkpt>
      <trkpt lat="46.77627808414399623870849609375" lon="6.84298952110111713409423828125">
        <ele>635</ele>
        <time>2013-09-01T14:42:15.000Z</time>
        <extensions>
          <ns3:TrackPointExtension>
            <ns3:atemp>16.0</ns3:atemp>
          </ns3:TrackPointExtension>
        </extensions>
      </trkpt>
      <trkpt lat="46.77627657540142536163330078125" lon="6.842913664877414703369140625">
        <ele>634.79998779296875</ele>
        <time>2013-09-01T14:42:16.000Z</time>
        <extensions>
          <ns3:TrackPointExtension>
            <ns3:atemp>16.0</ns3:atemp>
          </ns3:TrackPointExtension>
        </extensions>
      </trkpt>
      <trkpt lat="46.77628981880843639373779296875" lon="6.842833198606967926025390625">
        <ele>633.79998779296875</ele>
        <time>2013-09-01T14:42:17.000Z</time>
        <extensions>
          <ns3:TrackPointExtension>
            <ns3:atemp>16.0</ns3:atemp>
          </ns3:TrackPointExtension>
        </extensions>
      </trkpt>
      <trkpt lat="46.77631244994699954986572265625" lon="6.84274510480463504791259765625">
        <ele>633.4000244140625</ele>
        <time>2013-09-01T14:42:18.000Z</time>
        <extensions>
          <ns3:TrackPointExtension>
            <ns3:atemp>16.0</ns3:atemp>
          </ns3:TrackPointExtension>
        </extensions>
      </trkpt>
      <trkpt lat="46.77633759565651416778564453125" lon="6.84265005402266979217529296875">
        <ele>632.79998779296875</ele>
        <time>2013-09-01T14:42:19.000Z</time>
        <extensions>
          <ns3:TrackPointExtension>
            <ns3:atemp>16.0</ns3:atemp>
          </ns3:TrackPointExtension>
        </extensions>
      </trkpt>
      <trkpt lat="46.7763510905206203460693359375" lon="6.84256522916257381439208984375">
        <ele>632.20001220703125</ele>
        <time>2013-09-01T14:42:20.000Z</time>
        <extensions>
          <ns3:TrackPointExtension>
            <ns3:atemp>16.0</ns3:atemp>
          </ns3:TrackPointExtension>
        </extensions>
      </trkpt>
      <trkpt lat="46.776359640061855316162109375" lon="6.842486523091793060302734375">
        <ele>631.20001220703125</ele>
        <time>2013-09-01T14:42:21.000Z</time>
        <extensions>
          <ns3:TrackPointExtension>
            <ns3:atemp>16.0</ns3:atemp>
          </ns3:TrackPointExtension>
        </extensions>
      </trkpt>
      <trkpt lat="46.77634966559708118438720703125" lon="6.8424157798290252685546875">
        <ele>630.4000244140625</ele>
        <time>2013-09-01T14:42:22.000Z</time>
        <extensions>
          <ns3:TrackPointExtension>
            <ns3:atemp>16.0</ns3:atemp>
          </ns3:TrackPointExtension>
        </extensions>
      </trkpt>
      <trkpt lat="46.776340194046497344970703125" lon="6.8423156999051570892333984375">
        <ele>629.79998779296875</ele>
        <time>2013-09-01T14:42:23.000Z</time>
        <extensions>
          <ns3:TrackPointExtension>
            <ns3:atemp>16.0</ns3:atemp>
          </ns3:TrackPointExtension>
        </extensions>
      </trkpt>
      <trkpt lat="46.77633927203714847564697265625" lon="6.84221134521067142486572265625">
        <ele>628.79998779296875</ele>
        <time>2013-09-01T14:42:24.000Z</time>
        <extensions>
          <ns3:TrackPointExtension>
            <ns3:atemp>16.0</ns3:atemp>
          </ns3:TrackPointExtension>
        </extensions>
      </trkpt>
      <trkpt lat="46.77633357234299182891845703125" lon="6.84210673905909061431884765625">
        <ele>627.79998779296875</ele>
        <time>2013-09-01T14:42:25.000Z</time>
        <extensions>
          <ns3:TrackPointExtension>
            <ns3:atemp>16.0</ns3:atemp>
          </ns3:TrackPointExtension>
        </extensions>
      </trkpt>
      <trkpt lat="46.7763138748705387115478515625" lon="6.84200900606811046600341796875">
        <ele>626.4000244140625</ele>
        <time>2013-09-01T14:42:26.000Z</time>
        <extensions>
          <ns3:TrackPointExtension>
            <ns3:atemp>16.0</ns3:atemp>
          </ns3:TrackPointExtension>
        </extensions>
      </trkpt>
      <trkpt lat="46.7762783356010913848876953125" lon="6.84191529639065265655517578125">
        <ele>625.4000244140625</ele>
        <time>2013-09-01T14:42:27.000Z</time>
        <extensions>
          <ns3:TrackPointExtension>
            <ns3:atemp>16.0</ns3:atemp>
          </ns3:TrackPointExtension>
        </extensions>
      </trkpt>
      <trkpt lat="46.7762191593647003173828125" lon="6.84183172881603240966796875">
        <ele>624.4000244140625</ele>
        <time>2013-09-01T14:42:28.000Z</time>
        <extensions>
          <ns3:TrackPointExtension>
            <ns3:atemp>16.0</ns3:atemp>
          </ns3:TrackPointExtension>
        </extensions>
      </trkpt>
      <trkpt lat="46.7761328257620334625244140625" lon="6.84176291339099407196044921875">
        <ele>623.5999755859375</ele>
        <time>2013-09-01T14:42:29.000Z</time>
        <extensions>
          <ns3:TrackPointExtension>
            <ns3:atemp>16.0</ns3:atemp>
          </ns3:TrackPointExtension>
        </extensions>
      </trkpt>
      <trkpt lat="46.776038110256195068359375" lon="6.84172184206545352935791015625">
        <ele>622.4000244140625</ele>
        <time>2013-09-01T14:42:30.000Z</time>
        <extensions>
          <ns3:TrackPointExtension>
            <ns3:atemp>16.0</ns3:atemp>
          </ns3:TrackPointExtension>
        </extensions>
      </trkpt>
      <trkpt lat="46.77594515495002269744873046875" lon="6.84168311767280101776123046875">
        <ele>621.79998779296875</ele>
        <time>2013-09-01T14:42:31.000Z</time>
        <extensions>
          <ns3:TrackPointExtension>
            <ns3:atemp>16.0</ns3:atemp>
          </ns3:TrackPointExtension>
        </extensions>
      </trkpt>
      <trkpt lat="46.7758535407483577728271484375" lon="6.8416552059352397918701171875">
        <ele>621.5999755859375</ele>
        <time>2013-09-01T14:42:32.000Z</time>
        <extensions>
          <ns3:TrackPointExtension>
            <ns3:atemp>16.0</ns3:atemp>
          </ns3:TrackPointExtension>
        </extensions>
      </trkpt>
      <trkpt lat="46.7757599987089633941650390625" lon="6.84163299389183521270751953125">
        <ele>621.20001220703125</ele>
        <time>2013-09-01T14:42:33.000Z</time>
        <extensions>
          <ns3:TrackPointExtension>
            <ns3:atemp>16.0</ns3:atemp>
          </ns3:TrackPointExtension>
        </extensions>
      </trkpt>
      <trkpt lat="46.77566570229828357696533203125" lon="6.84160985983908176422119140625">
        <ele>620.79998779296875</ele>
        <time>2013-09-01T14:42:34.000Z</time>
        <extensions>
          <ns3:TrackPointExtension>
            <ns3:atemp>16.0</ns3:atemp>
          </ns3:TrackPointExtension>
        </extensions>
      </trkpt>
      <trkpt lat="46.77557299844920635223388671875" lon="6.841579936444759368896484375">
        <ele>620.4000244140625</ele>
        <time>2013-09-01T14:42:35.000Z</time>
        <extensions>
          <ns3:TrackPointExtension>
            <ns3:atemp>16.0</ns3:atemp>
          </ns3:TrackPointExtension>
        </extensions>
      </trkpt>
      <trkpt lat="46.77548230625689029693603515625" lon="6.84154196642339229583740234375">
        <ele>620.20001220703125</ele>
        <time>2013-09-01T14:42:36.000Z</time>
        <extensions>
          <ns3:TrackPointExtension>
            <ns3:atemp>16.0</ns3:atemp>
          </ns3:TrackPointExtension>
        </extensions>
      </trkpt>
      <trkpt lat="46.775395385921001434326171875" lon="6.8414976261556148529052734375">
        <ele>619.79998779296875</ele>
        <time>2013-09-01T14:42:37.000Z</time>
        <extensions>
          <ns3:TrackPointExtension>
            <ns3:atemp>16.0</ns3:atemp>
          </ns3:TrackPointExtension>
        </extensions>
      </trkpt>
      <trkpt lat="46.7753060348331928253173828125" lon="6.84146049432456493377685546875">
        <ele>619.20001220703125</ele>
        <time>2013-09-01T14:42:38.000Z</time>
        <extensions>
          <ns3:TrackPointExtension>
            <ns3:atemp>16.0</ns3:atemp>
          </ns3:TrackPointExtension>
        </extensions>
      </trkpt>
      <trkpt lat="46.775214672088623046875" lon="6.8414423055946826934814453125">
        <ele>618.5999755859375</ele>
        <time>2013-09-01T14:42:39.000Z</time>
        <extensions>
          <ns3:TrackPointExtension>
            <ns3:atemp>16.0</ns3:atemp>
          </ns3:TrackPointExtension>
        </extensions>
      </trkpt>
      <trkpt lat="46.77512548863887786865234375" lon="6.841421015560626983642578125">
        <ele>618.4000244140625</ele>
        <time>2013-09-01T14:42:40.000Z</time>
        <extensions>
          <ns3:TrackPointExtension>
            <ns3:atemp>16.0</ns3:atemp>
          </ns3:TrackPointExtension>
        </extensions>
      </trkpt>
      <trkpt lat="46.77504007704555988311767578125" lon="6.8413940258324146270751953125">
        <ele>618.4000244140625</ele>
        <time>2013-09-01T14:42:41.000Z</time>
        <extensions>
          <ns3:TrackPointExtension>
            <ns3:atemp>16.0</ns3:atemp>
          </ns3:TrackPointExtension>
        </extensions>
      </trkpt>
      <trkpt lat="46.774957515299320220947265625" lon="6.84135966002941131591796875">
        <ele>618.4000244140625</ele>
        <time>2013-09-01T14:42:42.000Z</time>
        <extensions>
          <ns3:TrackPointExtension>
            <ns3:atemp>16.0</ns3:atemp>
          </ns3:TrackPointExtension>
        </extensions>
      </trkpt>
      <trkpt lat="46.7748805694282054901123046875" lon="6.8413088656961917877197265625">
        <ele>618.20001220703125</ele>
        <time>2013-09-01T14:42:43.000Z</time>
        <extensions>
          <ns3:TrackPointExtension>
            <ns3:atemp>16.0</ns3:atemp>
          </ns3:TrackPointExtension>
        </extensions>
      </trkpt>
      <trkpt lat="46.774808652698993682861328125" lon="6.84125379659235477447509765625">
        <ele>617.79998779296875</ele>
        <time>2013-09-01T14:42:44.000Z</time>
        <extensions>
          <ns3:TrackPointExtension>
            <ns3:atemp>16.0</ns3:atemp>
          </ns3:TrackPointExtension>
        </extensions>
      </trkpt>
      <trkpt lat="46.77473631687462329864501953125" lon="6.8411952070891857147216796875">
        <ele>617.79998779296875</ele>
        <time>2013-09-01T14:42:45.000Z</time>
        <extensions>
          <ns3:TrackPointExtension>
            <ns3:atemp>16.0</ns3:atemp>
          </ns3:TrackPointExtension>
        </extensions>
      </trkpt>
      <trkpt lat="46.77466624416410923004150390625" lon="6.84113913215696811676025390625">
        <ele>617.5999755859375</ele>
        <time>2013-09-01T14:42:46.000Z</time>
        <extensions>
          <ns3:TrackPointExtension>
            <ns3:atemp>16.0</ns3:atemp>
          </ns3:TrackPointExtension>
        </extensions>
      </trkpt>
      <trkpt lat="46.77459751255810260772705078125" lon="6.8410849012434482574462890625">
        <ele>618</ele>
        <time>2013-09-01T14:42:47.000Z</time>
        <extensions>
          <ns3:TrackPointExtension>
            <ns3:atemp>16.0</ns3:atemp>
          </ns3:TrackPointExtension>
        </extensions>
      </trkpt>
      <trkpt lat="46.774530708789825439453125" lon="6.84102379716932773590087890625">
        <ele>618.20001220703125</ele>
        <time>2013-09-01T14:42:48.000Z</time>
        <extensions>
          <ns3:TrackPointExtension>
            <ns3:atemp>16.0</ns3:atemp>
          </ns3:TrackPointExtension>
        </extensions>
      </trkpt>
      <trkpt lat="46.774467341601848602294921875" lon="6.84096009470522403717041015625">
        <ele>618.4000244140625</ele>
        <time>2013-09-01T14:42:49.000Z</time>
        <extensions>
          <ns3:TrackPointExtension>
            <ns3:atemp>16.0</ns3:atemp>
          </ns3:TrackPointExtension>
        </extensions>
      </trkpt>
      <trkpt lat="46.7744006216526031494140625" lon="6.84089723043143749237060546875">
        <ele>618</ele>
        <time>2013-09-01T14:42:50.000Z</time>
        <extensions>
          <ns3:TrackPointExtension>
            <ns3:atemp>16.0</ns3:atemp>
          </ns3:TrackPointExtension>
        </extensions>
      </trkpt>
      <trkpt lat="46.77432962693274021148681640625" lon="6.84082531370222568511962890625">
        <ele>617.5999755859375</ele>
        <time>2013-09-01T14:42:51.000Z</time>
        <extensions>
          <ns3:TrackPointExtension>
            <ns3:atemp>16.0</ns3:atemp>
          </ns3:TrackPointExtension>
        </extensions>
      </trkpt>
      <trkpt lat="46.77425687201321125030517578125" lon="6.840759180486202239990234375">
        <ele>617.20001220703125</ele>
        <time>2013-09-01T14:42:52.000Z</time>
        <extensions>
          <ns3:TrackPointExtension>
            <ns3:atemp>16.0</ns3:atemp>
          </ns3:TrackPointExtension>
        </extensions>
      </trkpt>
      <trkpt lat="46.77418562583625316619873046875" lon="6.840684413909912109375">
        <ele>617.20001220703125</ele>
        <time>2013-09-01T14:42:53.000Z</time>
        <extensions>
          <ns3:TrackPointExtension>
            <ns3:atemp>16.0</ns3:atemp>
          </ns3:TrackPointExtension>
        </extensions>
      </trkpt>
      <trkpt lat="46.77412024699151515960693359375" lon="6.8406098149716854095458984375">
        <ele>617.20001220703125</ele>
        <time>2013-09-01T14:42:54.000Z</time>
        <extensions>
          <ns3:TrackPointExtension>
            <ns3:atemp>16.0</ns3:atemp>
          </ns3:TrackPointExtension>
        </extensions>
      </trkpt>
      <trkpt lat="46.7740531079471111297607421875" lon="6.84054217301309108734130859375">
        <ele>617.20001220703125</ele>
        <time>2013-09-01T14:42:55.000Z</time>
        <extensions>
          <ns3:TrackPointExtension>
            <ns3:atemp>16.0</ns3:atemp>
          </ns3:TrackPointExtension>
        </extensions>
      </trkpt>
      <trkpt lat="46.7739924229681491851806640625" lon="6.8404817394912242889404296875">
        <ele>617</ele>
        <time>2013-09-01T14:42:56.000Z</time>
        <extensions>
          <ns3:TrackPointExtension>
            <ns3:atemp>16.0</ns3:atemp>
          </ns3:TrackPointExtension>
        </extensions>
      </trkpt>
      <trkpt lat="46.77393936552107334136962890625" lon="6.84041292406618595123291015625">
        <ele>616.5999755859375</ele>
        <time>2013-09-01T14:42:57.000Z</time>
        <extensions>
          <ns3:TrackPointExtension>
            <ns3:atemp>16.0</ns3:atemp>
          </ns3:TrackPointExtension>
        </extensions>
      </trkpt>
      <trkpt lat="46.7738936841487884521484375" lon="6.84035860933363437652587890625">
        <ele>616.20001220703125</ele>
        <time>2013-09-01T14:42:58.000Z</time>
        <extensions>
          <ns3:TrackPointExtension>
            <ns3:atemp>16.0</ns3:atemp>
          </ns3:TrackPointExtension>
        </extensions>
      </trkpt>
      <trkpt lat="46.77383677102625370025634765625" lon="6.840342096984386444091796875">
        <ele>615.79998779296875</ele>
        <time>2013-09-01T14:42:59.000Z</time>
        <extensions>
          <ns3:TrackPointExtension>
            <ns3:atemp>16.0</ns3:atemp>
          </ns3:TrackPointExtension>
        </extensions>
      </trkpt>
      <trkpt lat="46.77378027699887752532958984375" lon="6.84036984108388423919677734375">
        <ele>615.79998779296875</ele>
        <time>2013-09-01T14:43:00.000Z</time>
        <extensions>
          <ns3:TrackPointExtension>
            <ns3:atemp>16.0</ns3:atemp>
          </ns3:TrackPointExtension>
        </extensions>
      </trkpt>
      <trkpt lat="46.773730404675006866455078125" lon="6.8404166959226131439208984375">
        <ele>615.79998779296875</ele>
        <time>2013-09-01T14:43:01.000Z</time>
        <extensions>
          <ns3:TrackPointExtension>
            <ns3:atemp>16.0</ns3:atemp>
          </ns3:TrackPointExtension>
        </extensions>
      </trkpt>
      <trkpt lat="46.77367432974278926849365234375" lon="6.84042667038738727569580078125">
        <ele>615.79998779296875</ele>
        <time>2013-09-01T14:43:02.000Z</time>
        <extensions>
          <ns3:TrackPointExtension>
            <ns3:atemp>16.0</ns3:atemp>
          </ns3:TrackPointExtension>
        </extensions>
      </trkpt>
      <trkpt lat="46.7736185900866985321044921875" lon="6.84039331041276454925537109375">
        <ele>616</ele>
        <time>2013-09-01T14:43:03.000Z</time>
        <extensions>
          <ns3:TrackPointExtension>
            <ns3:atemp>16.0</ns3:atemp>
          </ns3:TrackPointExtension>
        </extensions>
      </trkpt>
      <trkpt lat="46.77357383072376251220703125" lon="6.8403362296521663665771484375">
        <ele>615.79998779296875</ele>
        <time>2013-09-01T14:43:04.000Z</time>
        <extensions>
          <ns3:TrackPointExtension>
            <ns3:atemp>16.0</ns3:atemp>
          </ns3:TrackPointExtension>
        </extensions>
      </trkpt>
      <trkpt lat="46.77352999337017536163330078125" lon="6.840272359549999237060546875">
        <ele>615.5999755859375</ele>
        <time>2013-09-01T14:43:05.000Z</time>
        <extensions>
          <ns3:TrackPointExtension>
            <ns3:atemp>16.0</ns3:atemp>
          </ns3:TrackPointExtension>
        </extensions>
      </trkpt>
      <trkpt lat="46.773480288684368133544921875" lon="6.84021427296102046966552734375">
        <ele>615.5999755859375</ele>
        <time>2013-09-01T14:43:06.000Z</time>
        <extensions>
          <ns3:TrackPointExtension>
            <ns3:atemp>16.0</ns3:atemp>
          </ns3:TrackPointExtension>
        </extensions>
      </trkpt>
      <trkpt lat="46.77342371083796024322509765625" lon="6.84016071259975433349609375">
        <ele>615.79998779296875</ele>
        <time>2013-09-01T14:43:07.000Z</time>
        <extensions>
          <ns3:TrackPointExtension>
            <ns3:atemp>16.0</ns3:atemp>
          </ns3:TrackPointExtension>
        </extensions>
      </trkpt>
      <trkpt lat="46.77336051128804683685302734375" lon="6.84011486358940601348876953125">
        <ele>616</ele>
        <time>2013-09-01T14:43:08.000Z</time>
        <extensions>
          <ns3:TrackPointExtension>
            <ns3:atemp>16.0</ns3:atemp>
          </ns3:TrackPointExtension>
        </extensions>
      </trkpt>
      <trkpt lat="46.77329379133880138397216796875" lon="6.84007379226386547088623046875">
        <ele>616</ele>
        <time>2013-09-01T14:43:09.000Z</time>
        <extensions>
          <ns3:TrackPointExtension>
            <ns3:atemp>16.0</ns3:atemp>
          </ns3:TrackPointExtension>
        </extensions>
      </trkpt>
      <trkpt lat="46.77322254516184329986572265625" lon="6.84004914946854114532470703125">
        <ele>615.79998779296875</ele>
        <time>2013-09-01T14:43:10.000Z</time>
        <extensions>
          <ns3:TrackPointExtension>
            <ns3:atemp>16.0</ns3:atemp>
          </ns3:TrackPointExtension>
        </extensions>
      </trkpt>
      <trkpt lat="46.7731515504419803619384765625" lon="6.8400311283767223358154296875">
        <ele>615.79998779296875</ele>
        <time>2013-09-01T14:43:11.000Z</time>
        <extensions>
          <ns3:TrackPointExtension>
            <ns3:atemp>16.0</ns3:atemp>
          </ns3:TrackPointExtension>
        </extensions>
      </trkpt>
      <trkpt lat="46.77308022044599056243896484375" lon="6.84001780115067958831787109375">
        <ele>615.79998779296875</ele>
        <time>2013-09-01T14:43:12.000Z</time>
        <extensions>
          <ns3:TrackPointExtension>
            <ns3:atemp>16.0</ns3:atemp>
          </ns3:TrackPointExtension>
        </extensions>
      </trkpt>
      <trkpt lat="46.77301400341093540191650390625" lon="6.840003468096256256103515625">
        <ele>616</ele>
        <time>2013-09-01T14:43:13.000Z</time>
        <extensions>
          <ns3:TrackPointExtension>
            <ns3:atemp>16.0</ns3:atemp>
          </ns3:TrackPointExtension>
        </extensions>
      </trkpt>
      <trkpt lat="46.77294560708105564117431640625" lon="6.84000246226787567138671875">
        <ele>616</ele>
        <time>2013-09-01T14:43:14.000Z</time>
        <extensions>
          <ns3:TrackPointExtension>
            <ns3:atemp>16.0</ns3:atemp>
          </ns3:TrackPointExtension>
        </extensions>
      </trkpt>
      <trkpt lat="46.77288257516920566558837890625" lon="6.840022243559360504150390625">
        <ele>615.79998779296875</ele>
        <time>2013-09-01T14:43:15.000Z</time>
        <extensions>
          <ns3:TrackPointExtension>
            <ns3:atemp>16.0</ns3:atemp>
          </ns3:TrackPointExtension>
        </extensions>
      </trkpt>
      <trkpt lat="46.77282038144767284393310546875" lon="6.840052418410778045654296875">
        <ele>616</ele>
        <time>2013-09-01T14:43:16.000Z</time>
        <extensions>
          <ns3:TrackPointExtension>
            <ns3:atemp>16.0</ns3:atemp>
          </ns3:TrackPointExtension>
        </extensions>
      </trkpt>
      <trkpt lat="46.7727592773735523223876953125" lon="6.84008217416703701019287109375">
        <ele>616.20001220703125</ele>
        <time>2013-09-01T14:43:17.000Z</time>
        <extensions>
          <ns3:TrackPointExtension>
            <ns3:atemp>16.0</ns3:atemp>
          </ns3:TrackPointExtension>
        </extensions>
      </trkpt>
      <trkpt lat="46.77269716747105121612548828125" lon="6.8401313759386539459228515625">
        <ele>616.5999755859375</ele>
        <time>2013-09-01T14:43:18.000Z</time>
        <extensions>
          <ns3:TrackPointExtension>
            <ns3:atemp>16.0</ns3:atemp>
          </ns3:TrackPointExtension>
        </extensions>
      </trkpt>
      <trkpt lat="46.77263581193983554840087890625" lon="6.8401773087680339813232421875">
        <ele>616.79998779296875</ele>
        <time>2013-09-01T14:43:19.000Z</time>
        <extensions>
          <ns3:TrackPointExtension>
            <ns3:atemp>16.0</ns3:atemp>
          </ns3:TrackPointExtension>
        </extensions>
      </trkpt>
      <trkpt lat="46.77257780916988849639892578125" lon="6.84022030793130397796630859375">
        <ele>617</ele>
        <time>2013-09-01T14:43:20.000Z</time>
        <extensions>
          <ns3:TrackPointExtension>
            <ns3:atemp>16.0</ns3:atemp>
          </ns3:TrackPointExtension>
        </extensions>
      </trkpt>
      <trkpt lat="46.77251972258090972900390625" lon="6.84026339091360569000244140625">
        <ele>617.20001220703125</ele>
        <time>2013-09-01T14:43:21.000Z</time>
        <extensions>
          <ns3:TrackPointExtension>
            <ns3:atemp>16.0</ns3:atemp>
          </ns3:TrackPointExtension>
        </extensions>
      </trkpt>
      <trkpt lat="46.77246163599193096160888671875" lon="6.84030647389590740203857421875">
        <ele>617.4000244140625</ele>
        <time>2013-09-01T14:43:22.000Z</time>
        <extensions>
          <ns3:TrackPointExtension>
            <ns3:atemp>16.0</ns3:atemp>
          </ns3:TrackPointExtension>
        </extensions>
      </trkpt>
      <trkpt lat="46.7724072374403476715087890625" lon="6.8403560109436511993408203125">
        <ele>617.5999755859375</ele>
        <time>2013-09-01T14:43:23.000Z</time>
        <extensions>
          <ns3:TrackPointExtension>
            <ns3:atemp>16.0</ns3:atemp>
          </ns3:TrackPointExtension>
        </extensions>
      </trkpt>
      <trkpt lat="46.772355772554874420166015625" lon="6.840411834418773651123046875">
        <ele>617.79998779296875</ele>
        <time>2013-09-01T14:43:24.000Z</time>
        <extensions>
          <ns3:TrackPointExtension>
            <ns3:atemp>16.0</ns3:atemp>
          </ns3:TrackPointExtension>
        </extensions>
      </trkpt>
      <trkpt lat="46.77230690605938434600830078125" lon="6.8404736928641796112060546875">
        <ele>617.79998779296875</ele>
        <time>2013-09-01T14:43:25.000Z</time>
        <extensions>
          <ns3:TrackPointExtension>
            <ns3:atemp>16.0</ns3:atemp>
          </ns3:TrackPointExtension>
        </extensions>
      </trkpt>
      <trkpt lat="46.77226181142032146453857421875" lon="6.8405382335186004638671875">
        <ele>618</ele>
        <time>2013-09-01T14:43:26.000Z</time>
        <extensions>
          <ns3:TrackPointExtension>
            <ns3:atemp>16.0</ns3:atemp>
          </ns3:TrackPointExtension>
        </extensions>
      </trkpt>
      <trkpt lat="46.77221453748643398284912109375" lon="6.84059791266918182373046875">
        <ele>618</ele>
        <time>2013-09-01T14:43:27.000Z</time>
        <extensions>
          <ns3:TrackPointExtension>
            <ns3:atemp>16.0</ns3:atemp>
          </ns3:TrackPointExtension>
        </extensions>
      </trkpt>
      <trkpt lat="46.77216692827641963958740234375" lon="6.840657927095890045166015625">
        <ele>618.20001220703125</ele>
        <time>2013-09-01T14:43:28.000Z</time>
        <extensions>
          <ns3:TrackPointExtension>
            <ns3:atemp>16.0</ns3:atemp>
          </ns3:TrackPointExtension>
        </extensions>
      </trkpt>
      <trkpt lat="46.77211747504770755767822265625" lon="6.84071014635264873504638671875">
        <ele>618.20001220703125</ele>
        <time>2013-09-01T14:43:29.000Z</time>
        <extensions>
          <ns3:TrackPointExtension>
            <ns3:atemp>16.0</ns3:atemp>
          </ns3:TrackPointExtension>
        </extensions>
      </trkpt>
      <trkpt lat="46.7720699496567249298095703125" lon="6.84076479636132717132568359375">
        <ele>618.20001220703125</ele>
        <time>2013-09-01T14:43:30.000Z</time>
        <extensions>
          <ns3:TrackPointExtension>
            <ns3:atemp>16.0</ns3:atemp>
          </ns3:TrackPointExtension>
        </extensions>
      </trkpt>
      <trkpt lat="46.77202259190380573272705078125" lon="6.84081827290356159210205078125">
        <ele>618.5999755859375</ele>
        <time>2013-09-01T14:43:31.000Z</time>
        <extensions>
          <ns3:TrackPointExtension>
            <ns3:atemp>16.0</ns3:atemp>
          </ns3:TrackPointExtension>
        </extensions>
      </trkpt>
      <trkpt lat="46.7719733901321887969970703125" lon="6.84086353518068790435791015625">
        <ele>619</ele>
        <time>2013-09-01T14:43:32.000Z</time>
        <extensions>
          <ns3:TrackPointExtension>
            <ns3:atemp>16.0</ns3:atemp>
          </ns3:TrackPointExtension>
        </extensions>
      </trkpt>
      <trkpt lat="46.77191832102835178375244140625" lon="6.84089723043143749237060546875">
        <ele>619.20001220703125</ele>
        <time>2013-09-01T14:43:33.000Z</time>
        <extensions>
          <ns3:TrackPointExtension>
            <ns3:atemp>16.0</ns3:atemp>
          </ns3:TrackPointExtension>
        </extensions>
      </trkpt>
      <trkpt lat="46.7718577198684215545654296875" lon="6.8409129045903682708740234375">
        <ele>619.20001220703125</ele>
        <time>2013-09-01T14:43:34.000Z</time>
        <extensions>
          <ns3:TrackPointExtension>
            <ns3:atemp>16.0</ns3:atemp>
          </ns3:TrackPointExtension>
        </extensions>
      </trkpt>
      <trkpt lat="46.77180013619363307952880859375" lon="6.84092111885547637939453125">
        <ele>618.79998779296875</ele>
        <time>2013-09-01T14:43:35.000Z</time>
        <extensions>
          <ns3:TrackPointExtension>
            <ns3:atemp>16.0</ns3:atemp>
          </ns3:TrackPointExtension>
        </extensions>
      </trkpt>
      <trkpt lat="46.771742887794971466064453125" lon="6.84093059040606021881103515625">
        <ele>618.5999755859375</ele>
        <time>2013-09-01T14:43:36.000Z</time>
        <extensions>
          <ns3:TrackPointExtension>
            <ns3:atemp>16.0</ns3:atemp>
          </ns3:TrackPointExtension>
        </extensions>
      </trkpt>
      <trkpt lat="46.7716833762824535369873046875" lon="6.84093226678669452667236328125">
        <ele>618.5999755859375</ele>
        <time>2013-09-01T14:43:37.000Z</time>
        <extensions>
          <ns3:TrackPointExtension>
            <ns3:atemp>16.0</ns3:atemp>
          </ns3:TrackPointExtension>
        </extensions>
      </trkpt>
      <trkpt lat="46.7716218531131744384765625" lon="6.8409311771392822265625">
        <ele>619</ele>
        <time>2013-09-01T14:43:38.000Z</time>
        <extensions>
          <ns3:TrackPointExtension>
            <ns3:atemp>16.0</ns3:atemp>
          </ns3:TrackPointExtension>
        </extensions>
      </trkpt>
      <trkpt lat="46.77156292833387851715087890625" lon="6.84093478135764598846435546875">
        <ele>619.4000244140625</ele>
        <time>2013-09-01T14:43:39.000Z</time>
        <extensions>
          <ns3:TrackPointExtension>
            <ns3:atemp>16.0</ns3:atemp>
          </ns3:TrackPointExtension>
        </extensions>
      </trkpt>
      <trkpt lat="46.77150911651551723480224609375" lon="6.84094266034662723541259765625">
        <ele>619.5999755859375</ele>
        <time>2013-09-01T14:43:40.000Z</time>
        <extensions>
          <ns3:TrackPointExtension>
            <ns3:atemp>16.0</ns3:atemp>
          </ns3:TrackPointExtension>
        </extensions>
      </trkpt>
      <trkpt lat="46.77145413123071193695068359375" lon="6.840950958430767059326171875">
        <ele>619.20001220703125</ele>
        <time>2013-09-01T14:43:41.000Z</time>
        <extensions>
          <ns3:TrackPointExtension>
            <ns3:atemp>16.0</ns3:atemp>
          </ns3:TrackPointExtension>
        </extensions>
      </trkpt>
      <trkpt lat="46.7713965475559234619140625" lon="6.8409521318972110748291015625">
        <ele>618.79998779296875</ele>
        <time>2013-09-01T14:43:42.000Z</time>
        <extensions>
          <ns3:TrackPointExtension>
            <ns3:atemp>16.0</ns3:atemp>
          </ns3:TrackPointExtension>
        </extensions>
      </trkpt>
      <trkpt lat="46.77133561111986637115478515625" lon="6.840949952602386474609375">
        <ele>618.4000244140625</ele>
        <time>2013-09-01T14:43:43.000Z</time>
        <extensions>
          <ns3:TrackPointExtension>
            <ns3:atemp>16.0</ns3:atemp>
          </ns3:TrackPointExtension>
        </extensions>
      </trkpt>
      <trkpt lat="46.771272830665111541748046875" lon="6.84095305390655994415283203125">
        <ele>618.4000244140625</ele>
        <time>2013-09-01T14:43:44.000Z</time>
        <extensions>
          <ns3:TrackPointExtension>
            <ns3:atemp>16.0</ns3:atemp>
          </ns3:TrackPointExtension>
        </extensions>
      </trkpt>
      <trkpt lat="46.77120745182037353515625" lon="6.840953640639781951904296875">
        <ele>618.5999755859375</ele>
        <time>2013-09-01T14:43:45.000Z</time>
        <extensions>
          <ns3:TrackPointExtension>
            <ns3:atemp>16.0</ns3:atemp>
          </ns3:TrackPointExtension>
        </extensions>
      </trkpt>
      <trkpt lat="46.77114106714725494384765625" lon="6.840955317020416259765625">
        <ele>618.5999755859375</ele>
        <time>2013-09-01T14:43:46.000Z</time>
        <extensions>
          <ns3:TrackPointExtension>
            <ns3:atemp>16.0</ns3:atemp>
          </ns3:TrackPointExtension>
        </extensions>
      </trkpt>
      <trkpt lat="46.77107057534158229827880859375" lon="6.84095473028719425201416015625">
        <ele>618.4000244140625</ele>
        <time>2013-09-01T14:43:47.000Z</time>
        <extensions>
          <ns3:TrackPointExtension>
            <ns3:atemp>16.0</ns3:atemp>
          </ns3:TrackPointExtension>
        </extensions>
      </trkpt>
      <trkpt lat="46.77099932916462421417236328125" lon="6.840958334505558013916015625">
        <ele>618</ele>
        <time>2013-09-01T14:43:48.000Z</time>
        <extensions>
          <ns3:TrackPointExtension>
            <ns3:atemp>16.0</ns3:atemp>
          </ns3:TrackPointExtension>
        </extensions>
      </trkpt>
      <trkpt lat="46.770924814045429229736328125" lon="6.84095590375363826751708984375">
        <ele>617.5999755859375</ele>
        <time>2013-09-01T14:43:49.000Z</time>
        <extensions>
          <ns3:TrackPointExtension>
            <ns3:atemp>16.0</ns3:atemp>
          </ns3:TrackPointExtension>
        </extensions>
      </trkpt>
      <trkpt lat="46.7708485387265682220458984375" lon="6.8409390561282634735107421875">
        <ele>617</ele>
        <time>2013-09-01T14:43:50.000Z</time>
        <extensions>
          <ns3:TrackPointExtension>
            <ns3:atemp>16.0</ns3:atemp>
          </ns3:TrackPointExtension>
        </extensions>
      </trkpt>
      <trkpt lat="46.77077469415962696075439453125" lon="6.840895973145961761474609375">
        <ele>616.5999755859375</ele>
        <time>2013-09-01T14:43:51.000Z</time>
        <extensions>
          <ns3:TrackPointExtension>
            <ns3:atemp>16.0</ns3:atemp>
          </ns3:TrackPointExtension>
        </extensions>
      </trkpt>
      <trkpt lat="46.77070009522140026092529296875" lon="6.8408468551933765411376953125">
        <ele>616.4000244140625</ele>
        <time>2013-09-01T14:43:52.000Z</time>
        <extensions>
          <ns3:TrackPointExtension>
            <ns3:atemp>16.0</ns3:atemp>
          </ns3:TrackPointExtension>
        </extensions>
      </trkpt>
      <trkpt lat="46.7706299386918544769287109375" lon="6.8407841585576534271240234375">
        <ele>616.4000244140625</ele>
        <time>2013-09-01T14:43:53.000Z</time>
        <extensions>
          <ns3:TrackPointExtension>
            <ns3:atemp>16.0</ns3:atemp>
          </ns3:TrackPointExtension>
        </extensions>
      </trkpt>
      <trkpt lat="46.77056112326681613922119140625" lon="6.840710230171680450439453125">
        <ele>616.5999755859375</ele>
        <time>2013-09-01T14:43:54.000Z</time>
        <extensions>
          <ns3:TrackPointExtension>
            <ns3:atemp>16.0</ns3:atemp>
          </ns3:TrackPointExtension>
        </extensions>
      </trkpt>
      <trkpt lat="46.770494990050792694091796875" lon="6.84063018299639225006103515625">
        <ele>616.4000244140625</ele>
        <time>2013-09-01T14:43:55.000Z</time>
        <extensions>
          <ns3:TrackPointExtension>
            <ns3:atemp>16.0</ns3:atemp>
          </ns3:TrackPointExtension>
        </extensions>
      </trkpt>
      <trkpt lat="46.770432293415069580078125" lon="6.8405534885823726654052734375">
        <ele>616.20001220703125</ele>
        <time>2013-09-01T14:43:56.000Z</time>
        <extensions>
          <ns3:TrackPointExtension>
            <ns3:atemp>16.0</ns3:atemp>
          </ns3:TrackPointExtension>
        </extensions>
      </trkpt>
      <trkpt lat="46.77036901004612445831298828125" lon="6.84047453105449676513671875">
        <ele>615.79998779296875</ele>
        <time>2013-09-01T14:43:57.000Z</time>
        <extensions>
          <ns3:TrackPointExtension>
            <ns3:atemp>16.0</ns3:atemp>
          </ns3:TrackPointExtension>
        </extensions>
      </trkpt>
      <trkpt lat="46.77030581049621105194091796875" lon="6.84039817191660404205322265625">
        <ele>616.20001220703125</ele>
        <time>2013-09-01T14:43:58.000Z</time>
        <extensions>
          <ns3:TrackPointExtension>
            <ns3:atemp>16.0</ns3:atemp>
          </ns3:TrackPointExtension>
        </extensions>
      </trkpt>
      <trkpt lat="46.770233474671840667724609375" lon="6.84032608754932880401611328125">
        <ele>615.5999755859375</ele>
        <time>2013-09-01T14:43:59.000Z</time>
        <extensions>
          <ns3:TrackPointExtension>
            <ns3:atemp>16.0</ns3:atemp>
          </ns3:TrackPointExtension>
        </extensions>
      </trkpt>
      <trkpt lat="46.77015979774296283721923828125" lon="6.84025819413363933563232421875">
        <ele>615.20001220703125</ele>
        <time>2013-09-01T14:44:00.000Z</time>
        <extensions>
          <ns3:TrackPointExtension>
            <ns3:atemp>16.0</ns3:atemp>
          </ns3:TrackPointExtension>
        </extensions>
      </trkpt>
      <trkpt lat="46.7700817622244358062744140625" lon="6.84020454995334148406982421875">
        <ele>614.79998779296875</ele>
        <time>2013-09-01T14:44:01.000Z</time>
        <extensions>
          <ns3:TrackPointExtension>
            <ns3:atemp>16.0</ns3:atemp>
          </ns3:TrackPointExtension>
        </extensions>
      </trkpt>
      <trkpt lat="46.769999451935291290283203125" lon="6.8401571922004222869873046875">
        <ele>614.20001220703125</ele>
        <time>2013-09-01T14:44:02.000Z</time>
        <extensions>
          <ns3:TrackPointExtension>
            <ns3:atemp>16.0</ns3:atemp>
          </ns3:TrackPointExtension>
        </extensions>
      </trkpt>
      <trkpt lat="46.76991638727486133575439453125" lon="6.84012559242546558380126953125">
        <ele>614</ele>
        <time>2013-09-01T14:44:03.000Z</time>
        <extensions>
          <ns3:TrackPointExtension>
            <ns3:atemp>16.0</ns3:atemp>
          </ns3:TrackPointExtension>
        </extensions>
      </trkpt>
      <trkpt lat="46.76983214914798736572265625" lon="6.84009055607020854949951171875">
        <ele>613.5999755859375</ele>
        <time>2013-09-01T14:44:04.000Z</time>
        <extensions>
          <ns3:TrackPointExtension>
            <ns3:atemp>16.0</ns3:atemp>
          </ns3:TrackPointExtension>
        </extensions>
      </trkpt>
      <trkpt lat="46.769745647907257080078125" lon="6.840062476694583892822265625">
        <ele>613.4000244140625</ele>
        <time>2013-09-01T14:44:05.000Z</time>
        <extensions>
          <ns3:TrackPointExtension>
            <ns3:atemp>16.0</ns3:atemp>
          </ns3:TrackPointExtension>
        </extensions>
      </trkpt>
      <trkpt lat="46.76966140978038311004638671875" lon="6.84004177339375019073486328125">
        <ele>613</ele>
        <time>2013-09-01T14:44:06.000Z</time>
        <extensions>
          <ns3:TrackPointExtension>
            <ns3:atemp>16.0</ns3:atemp>
          </ns3:TrackPointExtension>
        </extensions>
      </trkpt>
      <trkpt lat="46.7695731483399868011474609375" lon="6.84002551250159740447998046875">
        <ele>613</ele>
        <time>2013-09-01T14:44:07.000Z</time>
        <extensions>
          <ns3:TrackPointExtension>
            <ns3:atemp>16.0</ns3:atemp>
          </ns3:TrackPointExtension>
        </extensions>
      </trkpt>
      <trkpt lat="46.7694906704127788543701171875" lon="6.84001109562814235687255859375">
        <ele>612.79998779296875</ele>
        <time>2013-09-01T14:44:08.000Z</time>
        <extensions>
          <ns3:TrackPointExtension>
            <ns3:atemp>16.0</ns3:atemp>
          </ns3:TrackPointExtension>
        </extensions>
      </trkpt>
      <trkpt lat="46.76940391771495342254638671875" lon="6.8399910628795623779296875">
        <ele>612.5999755859375</ele>
        <time>2013-09-01T14:44:09.000Z</time>
        <extensions>
          <ns3:TrackPointExtension>
            <ns3:atemp>16.0</ns3:atemp>
          </ns3:TrackPointExtension>
        </extensions>
      </trkpt>
      <trkpt lat="46.76933149807155132293701171875" lon="6.83995879255235195159912109375">
        <ele>612.79998779296875</ele>
        <time>2013-09-01T14:44:10.000Z</time>
        <extensions>
          <ns3:TrackPointExtension>
            <ns3:atemp>16.0</ns3:atemp>
          </ns3:TrackPointExtension>
        </extensions>
      </trkpt>
      <trkpt lat="46.769268214702606201171875" lon="6.83991017751395702362060546875">
        <ele>612.79998779296875</ele>
        <time>2013-09-01T14:44:11.000Z</time>
        <extensions>
          <ns3:TrackPointExtension>
            <ns3:atemp>16.0</ns3:atemp>
          </ns3:TrackPointExtension>
        </extensions>
      </trkpt>
      <trkpt lat="46.769216917455196380615234375" lon="6.8398487381637096405029296875">
        <ele>612.79998779296875</ele>
        <time>2013-09-01T14:44:12.000Z</time>
        <extensions>
          <ns3:TrackPointExtension>
            <ns3:atemp>16.0</ns3:atemp>
          </ns3:TrackPointExtension>
        </extensions>
      </trkpt>
      <trkpt lat="46.76916402764618396759033203125" lon="6.83977707289159297943115234375">
        <ele>612.5999755859375</ele>
        <time>2013-09-01T14:44:13.000Z</time>
        <extensions>
          <ns3:TrackPointExtension>
            <ns3:atemp>16.0</ns3:atemp>
          </ns3:TrackPointExtension>
        </extensions>
      </trkpt>
      <trkpt lat="46.76910267211496829986572265625" lon="6.83970700018107891082763671875">
        <ele>612.79998779296875</ele>
        <time>2013-09-01T14:44:14.000Z</time>
        <extensions>
          <ns3:TrackPointExtension>
            <ns3:atemp>16.0</ns3:atemp>
          </ns3:TrackPointExtension>
        </extensions>
      </trkpt>
      <trkpt lat="46.76904098130762577056884765625" lon="6.839634664356708526611328125">
        <ele>612.79998779296875</ele>
        <time>2013-09-01T14:44:15.000Z</time>
        <extensions>
          <ns3:TrackPointExtension>
            <ns3:atemp>16.0</ns3:atemp>
          </ns3:TrackPointExtension>
        </extensions>
      </trkpt>
      <trkpt lat="46.7689780332148075103759765625" lon="6.839570291340351104736328125">
        <ele>612.79998779296875</ele>
        <time>2013-09-01T14:44:16.000Z</time>
        <extensions>
          <ns3:TrackPointExtension>
            <ns3:atemp>16.0</ns3:atemp>
          </ns3:TrackPointExtension>
        </extensions>
      </trkpt>
      <trkpt lat="46.76891885697841644287109375" lon="6.8394956924021244049072265625">
        <ele>612.20001220703125</ele>
        <time>2013-09-01T14:44:17.000Z</time>
        <extensions>
          <ns3:TrackPointExtension>
            <ns3:atemp>16.0</ns3:atemp>
          </ns3:TrackPointExtension>
        </extensions>
      </trkpt>
      <trkpt lat="46.76885691471397876739501953125" lon="6.83943240903317928314208984375">
        <ele>612</ele>
        <time>2013-09-01T14:44:18.000Z</time>
        <extensions>
          <ns3:TrackPointExtension>
            <ns3:atemp>16.0</ns3:atemp>
          </ns3:TrackPointExtension>
        </extensions>
      </trkpt>
      <trkpt lat="46.76880109123885631561279296875" lon="6.83936619199812412261962890625">
        <ele>611.4000244140625</ele>
        <time>2013-09-01T14:44:19.000Z</time>
        <extensions>
          <ns3:TrackPointExtension>
            <ns3:atemp>16.0</ns3:atemp>
          </ns3:TrackPointExtension>
        </extensions>
      </trkpt>
      <trkpt lat="46.76873923279345035552978515625" lon="6.8393035791814327239990234375">
        <ele>611.4000244140625</ele>
        <time>2013-09-01T14:44:20.000Z</time>
        <extensions>
          <ns3:TrackPointExtension>
            <ns3:atemp>16.0</ns3:atemp>
          </ns3:TrackPointExtension>
        </extensions>
      </trkpt>
      <trkpt lat="46.7686769552528858184814453125" lon="6.83923727832734584808349609375">
        <ele>611</ele>
        <time>2013-09-01T14:44:21.000Z</time>
        <extensions>
          <ns3:TrackPointExtension>
            <ns3:atemp>16.0</ns3:atemp>
          </ns3:TrackPointExtension>
        </extensions>
      </trkpt>
      <trkpt lat="46.76861719228327274322509765625" lon="6.83917877264320850372314453125">
        <ele>610.79998779296875</ele>
        <time>2013-09-01T14:44:22.000Z</time>
        <extensions>
          <ns3:TrackPointExtension>
            <ns3:atemp>16.0</ns3:atemp>
          </ns3:TrackPointExtension>
        </extensions>
      </trkpt>
      <trkpt lat="46.76855969242751598358154296875" lon="6.839110963046550750732421875">
        <ele>610.4000244140625</ele>
        <time>2013-09-01T14:44:23.000Z</time>
        <extensions>
          <ns3:TrackPointExtension>
            <ns3:atemp>16.0</ns3:atemp>
          </ns3:TrackPointExtension>
        </extensions>
      </trkpt>
      <trkpt lat="46.76850470714271068572998046875" lon="6.8390361964702606201171875">
        <ele>610</ele>
        <time>2013-09-01T14:44:24.000Z</time>
        <extensions>
          <ns3:TrackPointExtension>
            <ns3:atemp>16.0</ns3:atemp>
          </ns3:TrackPointExtension>
        </extensions>
      </trkpt>
      <trkpt lat="46.76844670437276363372802734375" lon="6.838962100446224212646484375">
        <ele>609.5999755859375</ele>
        <time>2013-09-01T14:44:25.000Z</time>
        <extensions>
          <ns3:TrackPointExtension>
            <ns3:atemp>16.0</ns3:atemp>
          </ns3:TrackPointExtension>
        </extensions>
      </trkpt>
      <trkpt lat="46.76838576793670654296875" lon="6.83888842351734638214111328125">
        <ele>609.4000244140625</ele>
        <time>2013-09-01T14:44:26.000Z</time>
        <extensions>
          <ns3:TrackPointExtension>
            <ns3:atemp>16.0</ns3:atemp>
          </ns3:TrackPointExtension>
        </extensions>
      </trkpt>
      <trkpt lat="46.76832550205290317535400390625" lon="6.83882002718746662139892578125">
        <ele>609.20001220703125</ele>
        <time>2013-09-01T14:44:27.000Z</time>
        <extensions>
          <ns3:TrackPointExtension>
            <ns3:atemp>16.0</ns3:atemp>
          </ns3:TrackPointExtension>
        </extensions>
      </trkpt>
      <trkpt lat="46.76826833747327327728271484375" lon="6.838747523725032806396484375">
        <ele>609</ele>
        <time>2013-09-01T14:44:28.000Z</time>
        <extensions>
          <ns3:TrackPointExtension>
            <ns3:atemp>16.0</ns3:atemp>
          </ns3:TrackPointExtension>
        </extensions>
      </trkpt>
      <trkpt lat="46.76821217872202396392822265625" lon="6.8386829830706119537353515625">
        <ele>609</ele>
        <time>2013-09-01T14:44:29.000Z</time>
        <extensions>
          <ns3:TrackPointExtension>
            <ns3:atemp>16.0</ns3:atemp>
          </ns3:TrackPointExtension>
        </extensions>
      </trkpt>
      <trkpt lat="46.76815166138112545013427734375" lon="6.83861911296844482421875">
        <ele>608.79998779296875</ele>
        <time>2013-09-01T14:44:30.000Z</time>
        <extensions>
          <ns3:TrackPointExtension>
            <ns3:atemp>16.0</ns3:atemp>
          </ns3:TrackPointExtension>
        </extensions>
      </trkpt>
      <trkpt lat="46.76808896474540233612060546875" lon="6.83855733834207057952880859375">
        <ele>608.5999755859375</ele>
        <time>2013-09-01T14:44:31.000Z</time>
        <extensions>
          <ns3:TrackPointExtension>
            <ns3:atemp>16.0</ns3:atemp>
          </ns3:TrackPointExtension>
        </extensions>
      </trkpt>
      <trkpt lat="46.7680248431861400604248046875" lon="6.838490031659603118896484375">
        <ele>608.5999755859375</ele>
        <time>2013-09-01T14:44:32.000Z</time>
        <extensions>
          <ns3:TrackPointExtension>
            <ns3:atemp>16.0</ns3:atemp>
          </ns3:TrackPointExtension>
        </extensions>
      </trkpt>
      <trkpt lat="46.767964661121368408203125" lon="6.83842356316745281219482421875">
        <ele>608.4000244140625</ele>
        <time>2013-09-01T14:44:33.000Z</time>
        <extensions>
          <ns3:TrackPointExtension>
            <ns3:atemp>16.0</ns3:atemp>
          </ns3:TrackPointExtension>
        </extensions>
      </trkpt>
      <trkpt lat="46.7678981088101863861083984375" lon="6.8383510597050189971923828125">
        <ele>608</ele>
        <time>2013-09-01T14:44:34.000Z</time>
        <extensions>
          <ns3:TrackPointExtension>
            <ns3:atemp>16.0</ns3:atemp>
          </ns3:TrackPointExtension>
        </extensions>
      </trkpt>
      <trkpt lat="46.76783432252705097198486328125" lon="6.8382702581584453582763671875">
        <ele>607.79998779296875</ele>
        <time>2013-09-01T14:44:35.000Z</time>
        <extensions>
          <ns3:TrackPointExtension>
            <ns3:atemp>16.0</ns3:atemp>
          </ns3:TrackPointExtension>
        </extensions>
      </trkpt>
      <trkpt lat="46.767769195139408111572265625" lon="6.838191635906696319580078125">
        <ele>607.5999755859375</ele>
        <time>2013-09-01T14:44:36.000Z</time>
        <extensions>
          <ns3:TrackPointExtension>
            <ns3:atemp>16.0</ns3:atemp>
          </ns3:TrackPointExtension>
        </extensions>
      </trkpt>
      <trkpt lat="46.76770607940852642059326171875" lon="6.83811510913074016571044921875">
        <ele>607.4000244140625</ele>
        <time>2013-09-01T14:44:37.000Z</time>
        <extensions>
          <ns3:TrackPointExtension>
            <ns3:atemp>16.0</ns3:atemp>
          </ns3:TrackPointExtension>
        </extensions>
      </trkpt>
      <trkpt lat="46.76763885654509067535400390625" lon="6.8380597047507762908935546875">
        <ele>607</ele>
        <time>2013-09-01T14:44:38.000Z</time>
        <extensions>
          <ns3:TrackPointExtension>
            <ns3:atemp>16.0</ns3:atemp>
          </ns3:TrackPointExtension>
        </extensions>
      </trkpt>
      <trkpt lat="46.76755704917013645172119140625" lon="6.8380250036716461181640625">
        <ele>606.5999755859375</ele>
        <time>2013-09-01T14:44:39.000Z</time>
        <extensions>
          <ns3:TrackPointExtension>
            <ns3:atemp>16.0</ns3:atemp>
          </ns3:TrackPointExtension>
        </extensions>
      </trkpt>
      <trkpt lat="46.76747708581387996673583984375" lon="6.83799172751605510711669921875">
        <ele>606.20001220703125</ele>
        <time>2013-09-01T14:44:40.000Z</time>
        <extensions>
          <ns3:TrackPointExtension>
            <ns3:atemp>16.0</ns3:atemp>
          </ns3:TrackPointExtension>
        </extensions>
      </trkpt>
      <trkpt lat="46.767395026981830596923828125" lon="6.83794814161956310272216796875">
        <ele>605.20001220703125</ele>
        <time>2013-09-01T14:44:41.000Z</time>
        <extensions>
          <ns3:TrackPointExtension>
            <ns3:atemp>16.0</ns3:atemp>
          </ns3:TrackPointExtension>
        </extensions>
      </trkpt>
      <trkpt lat="46.76731782965362071990966796875" lon="6.83788594789803028106689453125">
        <ele>604.79998779296875</ele>
        <time>2013-09-01T14:44:42.000Z</time>
        <extensions>
          <ns3:TrackPointExtension>
            <ns3:atemp>16.0</ns3:atemp>
          </ns3:TrackPointExtension>
        </extensions>
      </trkpt>
      <trkpt lat="46.76724893040955066680908203125" lon="6.83781637810170650482177734375">
        <ele>604.5999755859375</ele>
        <time>2013-09-01T14:44:43.000Z</time>
        <extensions>
          <ns3:TrackPointExtension>
            <ns3:atemp>16.0</ns3:atemp>
          </ns3:TrackPointExtension>
        </extensions>
      </trkpt>
      <trkpt lat="46.7671869881451129913330078125" lon="6.8377264402806758880615234375">
        <ele>604.4000244140625</ele>
        <time>2013-09-01T14:44:44.000Z</time>
        <extensions>
          <ns3:TrackPointExtension>
            <ns3:atemp>16.0</ns3:atemp>
          </ns3:TrackPointExtension>
        </extensions>
      </trkpt>
      <trkpt lat="46.7671425640583038330078125" lon="6.83760615997016429901123046875">
        <ele>604</ele>
        <time>2013-09-01T14:44:45.000Z</time>
        <extensions>
          <ns3:TrackPointExtension>
            <ns3:atemp>16.0</ns3:atemp>
          </ns3:TrackPointExtension>
        </extensions>
      </trkpt>
      <trkpt lat="46.76710744388401508331298828125" lon="6.8374917469918727874755859375">
        <ele>603.4000244140625</ele>
        <time>2013-09-01T14:44:46.000Z</time>
        <extensions>
          <ns3:TrackPointExtension>
            <ns3:atemp>16.0</ns3:atemp>
          </ns3:TrackPointExtension>
        </extensions>
      </trkpt>
      <trkpt lat="46.76707156933844089508056640625" lon="6.83737616054713726043701171875">
        <ele>602.4000244140625</ele>
        <time>2013-09-01T14:44:47.000Z</time>
        <extensions>
          <ns3:TrackPointExtension>
            <ns3:atemp>16.0</ns3:atemp>
          </ns3:TrackPointExtension>
        </extensions>
      </trkpt>
      <trkpt lat="46.76704960875213146209716796875" lon="6.8372674472630023956298828125">
        <ele>602</ele>
        <time>2013-09-01T14:44:48.000Z</time>
        <extensions>
          <ns3:TrackPointExtension>
            <ns3:atemp>16.0</ns3:atemp>
          </ns3:TrackPointExtension>
        </extensions>
      </trkpt>
      <trkpt lat="46.7670196853578090667724609375" lon="6.83717675507068634033203125">
        <ele>601.4000244140625</ele>
        <time>2013-09-01T14:44:49.000Z</time>
        <extensions>
          <ns3:TrackPointExtension>
            <ns3:atemp>16.0</ns3:atemp>
          </ns3:TrackPointExtension>
        </extensions>
      </trkpt>
      <trkpt lat="46.766993701457977294921875" lon="6.8370942771434783935546875">
        <ele>600.5999755859375</ele>
        <time>2013-09-01T14:44:50.000Z</time>
        <extensions>
          <ns3:TrackPointExtension>
            <ns3:atemp>16.0</ns3:atemp>
          </ns3:TrackPointExtension>
        </extensions>
      </trkpt>
      <trkpt lat="46.76695941947400569915771484375" lon="6.837013475596904754638671875">
        <ele>600</ele>
        <time>2013-09-01T14:44:51.000Z</time>
        <extensions>
          <ns3:TrackPointExtension>
            <ns3:atemp>16.0</ns3:atemp>
          </ns3:TrackPointExtension>
        </extensions>
      </trkpt>
      <trkpt lat="46.76689705811440944671630859375" lon="6.836942732334136962890625">
        <ele>599.4000244140625</ele>
        <time>2013-09-01T14:44:52.000Z</time>
        <extensions>
          <ns3:TrackPointExtension>
            <ns3:atemp>16.0</ns3:atemp>
          </ns3:TrackPointExtension>
        </extensions>
      </trkpt>
      <trkpt lat="46.7668228782713413238525390625" lon="6.83689453639090061187744140625">
        <ele>598.79998779296875</ele>
        <time>2013-09-01T14:44:53.000Z</time>
        <extensions>
          <ns3:TrackPointExtension>
            <ns3:atemp>16.0</ns3:atemp>
          </ns3:TrackPointExtension>
        </extensions>
      </trkpt>
      <trkpt lat="46.7667477764189243316650390625" lon="6.8368553929030895233154296875">
        <ele>597.79998779296875</ele>
        <time>2013-09-01T14:44:54.000Z</time>
        <extensions>
          <ns3:TrackPointExtension>
            <ns3:atemp>16.0</ns3:atemp>
          </ns3:TrackPointExtension>
        </extensions>
      </trkpt>
      <trkpt lat="46.76667342893779277801513671875" lon="6.8368356116116046905517578125">
        <ele>597.4000244140625</ele>
        <time>2013-09-01T14:44:55.000Z</time>
        <extensions>
          <ns3:TrackPointExtension>
            <ns3:atemp>16.0</ns3:atemp>
          </ns3:TrackPointExtension>
        </extensions>
      </trkpt>
      <trkpt lat="46.76660000346601009368896484375" lon="6.83680904097855091094970703125">
        <ele>597</ele>
        <time>2013-09-01T14:44:56.000Z</time>
        <extensions>
          <ns3:TrackPointExtension>
            <ns3:atemp>16.0</ns3:atemp>
          </ns3:TrackPointExtension>
        </extensions>
      </trkpt>
      <trkpt lat="46.76652967929840087890625" lon="6.8367859907448291778564453125">
        <ele>596.79998779296875</ele>
        <time>2013-09-01T14:44:57.000Z</time>
        <extensions>
          <ns3:TrackPointExtension>
            <ns3:atemp>16.0</ns3:atemp>
          </ns3:TrackPointExtension>
        </extensions>
      </trkpt>
      <trkpt lat="46.76646270789206027984619140625" lon="6.8367670476436614990234375">
        <ele>596.4000244140625</ele>
        <time>2013-09-01T14:44:58.000Z</time>
        <extensions>
          <ns3:TrackPointExtension>
            <ns3:atemp>16.0</ns3:atemp>
          </ns3:TrackPointExtension>
        </extensions>
      </trkpt>
      <trkpt lat="46.7664044536650180816650390625" lon="6.83678322471678256988525390625">
        <ele>596.4000244140625</ele>
        <time>2013-09-01T14:44:59.000Z</time>
        <extensions>
          <ns3:TrackPointExtension>
            <ns3:atemp>16.0</ns3:atemp>
          </ns3:TrackPointExtension>
        </extensions>
      </trkpt>
      <trkpt lat="46.76635525189340114593505859375" lon="6.836816333234310150146484375">
        <ele>596</ele>
        <time>2013-09-01T14:45:00.000Z</time>
        <extensions>
          <ns3:TrackPointExtension>
            <ns3:atemp>16.0</ns3:atemp>
          </ns3:TrackPointExtension>
        </extensions>
      </trkpt>
      <trkpt lat="46.76633060909807682037353515625" lon="6.836854554712772369384765625">
        <ele>595.5999755859375</ele>
        <time>2013-09-01T14:45:01.000Z</time>
        <extensions>
          <ns3:TrackPointExtension>
            <ns3:atemp>16.0</ns3:atemp>
          </ns3:TrackPointExtension>
        </extensions>
      </trkpt>
      <trkpt lat="46.76631577312946319580078125" lon="6.8369003199040889739990234375">
        <ele>595.4000244140625</ele>
        <time>2013-09-01T14:45:02.000Z</time>
        <extensions>
          <ns3:TrackPointExtension>
            <ns3:atemp>16.0</ns3:atemp>
          </ns3:TrackPointExtension>
        </extensions>
      </trkpt>
      <trkpt lat="46.76631367765367031097412109375" lon="6.8369405530393123626708984375">
        <ele>595.4000244140625</ele>
        <time>2013-09-01T14:45:03.000Z</time>
        <extensions>
          <ns3:TrackPointExtension>
            <ns3:atemp>16.0</ns3:atemp>
          </ns3:TrackPointExtension>
        </extensions>
      </trkpt>
      <trkpt lat="46.76631317473948001861572265625" lon="6.83698556385934352874755859375">
        <ele>595.79998779296875</ele>
        <time>2013-09-01T14:45:04.000Z</time>
        <extensions>
          <ns3:TrackPointExtension>
            <ns3:atemp>16.0</ns3:atemp>
          </ns3:TrackPointExtension>
        </extensions>
      </trkpt>
      <trkpt lat="46.7663139291107654571533203125" lon="6.83703417889773845672607421875">
        <ele>596.5999755859375</ele>
        <time>2013-09-01T14:45:05.000Z</time>
        <extensions>
          <ns3:TrackPointExtension>
            <ns3:atemp>16.0</ns3:atemp>
          </ns3:TrackPointExtension>
        </extensions>
      </trkpt>
      <trkpt lat="46.7663204669952392578125" lon="6.83709301985800266265869140625">
        <ele>597</ele>
        <time>2013-09-01T14:45:06.000Z</time>
        <extensions>
          <ns3:TrackPointExtension>
            <ns3:atemp>16.0</ns3:atemp>
          </ns3:TrackPointExtension>
        </extensions>
      </trkpt>
      <trkpt lat="46.76632784307003021240234375" lon="6.83715286664664745330810546875">
        <ele>597.20001220703125</ele>
        <time>2013-09-01T14:45:07.000Z</time>
        <extensions>
          <ns3:TrackPointExtension>
            <ns3:atemp>16.0</ns3:atemp>
          </ns3:TrackPointExtension>
        </extensions>
      </trkpt>
      <trkpt lat="46.76634117029607295989990234375" lon="6.8372097797691822052001953125">
        <ele>597.5999755859375</ele>
        <time>2013-09-01T14:45:08.000Z</time>
        <extensions>
          <ns3:TrackPointExtension>
            <ns3:atemp>16.0</ns3:atemp>
          </ns3:TrackPointExtension>
        </extensions>
      </trkpt>
      <trkpt lat="46.76635759882628917694091796875" lon="6.8372686207294464111328125">
        <ele>597.79998779296875</ele>
        <time>2013-09-01T14:45:09.000Z</time>
        <extensions>
          <ns3:TrackPointExtension>
            <ns3:atemp>16.0</ns3:atemp>
          </ns3:TrackPointExtension>
        </extensions>
      </trkpt>
      <trkpt lat="46.766376793384552001953125" lon="6.83733089827001094818115234375">
        <ele>598.20001220703125</ele>
        <time>2013-09-01T14:45:10.000Z</time>
        <extensions>
          <ns3:TrackPointExtension>
            <ns3:atemp>16.0</ns3:atemp>
          </ns3:TrackPointExtension>
        </extensions>
      </trkpt>
      <trkpt lat="46.7663969099521636962890625" lon="6.83739208616316318511962890625">
        <ele>598.5999755859375</ele>
        <time>2013-09-01T14:45:11.000Z</time>
        <extensions>
          <ns3:TrackPointExtension>
            <ns3:atemp>16.0</ns3:atemp>
          </ns3:TrackPointExtension>
        </extensions>
      </trkpt>
      <trkpt lat="46.766416020691394805908203125" lon="6.83745008893311023712158203125">
        <ele>599</ele>
        <time>2013-09-01T14:45:12.000Z</time>
        <extensions>
          <ns3:TrackPointExtension>
            <ns3:atemp>16.0</ns3:atemp>
          </ns3:TrackPointExtension>
        </extensions>
      </trkpt>
      <trkpt lat="46.76643940620124340057373046875" lon="6.83751094155013561248779296875">
        <ele>599.4000244140625</ele>
        <time>2013-09-01T14:45:13.000Z</time>
        <extensions>
          <ns3:TrackPointExtension>
            <ns3:atemp>16.0</ns3:atemp>
          </ns3:TrackPointExtension>
        </extensions>
      </trkpt>
      <trkpt lat="46.76646237261593341827392578125" lon="6.83756995014846324920654296875">
        <ele>600</ele>
        <time>2013-09-01T14:45:14.000Z</time>
        <extensions>
          <ns3:TrackPointExtension>
            <ns3:atemp>16.0</ns3:atemp>
          </ns3:TrackPointExtension>
        </extensions>
      </trkpt>
      <trkpt lat="46.7664842493832111358642578125" lon="6.8376266956329345703125">
        <ele>600.4000244140625</ele>
        <time>2013-09-01T14:45:15.000Z</time>
        <extensions>
          <ns3:TrackPointExtension>
            <ns3:atemp>16.0</ns3:atemp>
          </ns3:TrackPointExtension>
        </extensions>
      </trkpt>
      <trkpt lat="46.76650813780725002288818359375" lon="6.83768905699253082275390625">
        <ele>600.79998779296875</ele>
        <time>2013-09-01T14:45:16.000Z</time>
        <extensions>
          <ns3:TrackPointExtension>
            <ns3:atemp>16.0</ns3:atemp>
          </ns3:TrackPointExtension>
        </extensions>
      </trkpt>
      <trkpt lat="46.76653814502060413360595703125" lon="6.83774328790605068206787109375">
        <ele>601</ele>
        <time>2013-09-01T14:45:17.000Z</time>
        <extensions>
          <ns3:TrackPointExtension>
            <ns3:atemp>16.0</ns3:atemp>
          </ns3:TrackPointExtension>
        </extensions>
      </trkpt>
      <trkpt lat="46.76656547002494335174560546875" lon="6.83780162595212459564208984375">
        <ele>601.5999755859375</ele>
        <time>2013-09-01T14:45:18.000Z</time>
        <extensions>
          <ns3:TrackPointExtension>
            <ns3:atemp>16.0</ns3:atemp>
          </ns3:TrackPointExtension>
        </extensions>
      </trkpt>
      <trkpt lat="46.7665958963334560394287109375" lon="6.8378639034926891326904296875">
        <ele>602</ele>
        <time>2013-09-01T14:45:19.000Z</time>
        <extensions>
          <ns3:TrackPointExtension>
            <ns3:atemp>16.0</ns3:atemp>
          </ns3:TrackPointExtension>
        </extensions>
      </trkpt>
      <trkpt lat="46.76662045530974864959716796875" lon="6.83793489821255207061767578125">
        <ele>602.4000244140625</ele>
        <time>2013-09-01T14:45:20.000Z</time>
        <extensions>
          <ns3:TrackPointExtension>
            <ns3:atemp>16.0</ns3:atemp>
          </ns3:TrackPointExtension>
        </extensions>
      </trkpt>
      <trkpt lat="46.76664107479155063629150390625" lon="6.83799751102924346923828125">
        <ele>602.5999755859375</ele>
        <time>2013-09-01T14:45:21.000Z</time>
        <extensions>
          <ns3:TrackPointExtension>
            <ns3:atemp>16.0</ns3:atemp>
          </ns3:TrackPointExtension>
        </extensions>
      </trkpt>
      <trkpt lat="46.76666454412043094635009765625" lon="6.8380580283701419830322265625">
        <ele>603</ele>
        <time>2013-09-01T14:45:22.000Z</time>
        <extensions>
          <ns3:TrackPointExtension>
            <ns3:atemp>16.0</ns3:atemp>
          </ns3:TrackPointExtension>
        </extensions>
      </trkpt>
      <trkpt lat="46.76669455133378505706787109375" lon="6.8381126783788204193115234375">
        <ele>603</ele>
        <time>2013-09-01T14:45:23.000Z</time>
        <extensions>
          <ns3:TrackPointExtension>
            <ns3:atemp>16.0</ns3:atemp>
          </ns3:TrackPointExtension>
        </extensions>
      </trkpt>
      <trkpt lat="46.7667233012616634368896484375" lon="6.83817713521420955657958984375">
        <ele>603.4000244140625</ele>
        <time>2013-09-01T14:45:24.000Z</time>
        <extensions>
          <ns3:TrackPointExtension>
            <ns3:atemp>16.0</ns3:atemp>
          </ns3:TrackPointExtension>
        </extensions>
      </trkpt>
      <trkpt lat="46.76674970425665378570556640625" lon="6.8382395803928375244140625">
        <ele>603.5999755859375</ele>
        <time>2013-09-01T14:45:25.000Z</time>
        <extensions>
          <ns3:TrackPointExtension>
            <ns3:atemp>16.0</ns3:atemp>
          </ns3:TrackPointExtension>
        </extensions>
      </trkpt>
      <trkpt lat="46.76677769981324672698974609375" lon="6.8383017741143703460693359375">
        <ele>603.5999755859375</ele>
        <time>2013-09-01T14:45:26.000Z</time>
        <extensions>
          <ns3:TrackPointExtension>
            <ns3:atemp>16.0</ns3:atemp>
          </ns3:TrackPointExtension>
        </extensions>
      </trkpt>
      <trkpt lat="46.76680284552276134490966796875" lon="6.83836874552071094512939453125">
        <ele>603.79998779296875</ele>
        <time>2013-09-01T14:45:27.000Z</time>
        <extensions>
          <ns3:TrackPointExtension>
            <ns3:atemp>16.0</ns3:atemp>
          </ns3:TrackPointExtension>
        </extensions>
      </trkpt>
      <trkpt lat="46.7668272368609905242919921875" lon="6.838433034718036651611328125">
        <ele>603.79998779296875</ele>
        <time>2013-09-01T14:45:28.000Z</time>
        <extensions>
          <ns3:TrackPointExtension>
            <ns3:atemp>16.0</ns3:atemp>
          </ns3:TrackPointExtension>
        </extensions>
      </trkpt>
      <trkpt lat="46.766854226589202880859375" lon="6.83849346823990345001220703125">
        <ele>604.20001220703125</ele>
        <time>2013-09-01T14:45:29.000Z</time>
        <extensions>
          <ns3:TrackPointExtension>
            <ns3:atemp>16.0</ns3:atemp>
          </ns3:TrackPointExtension>
        </extensions>
      </trkpt>
      <trkpt lat="46.76687660627067089080810546875" lon="6.8385408259928226470947265625">
        <ele>604.4000244140625</ele>
        <time>2013-09-01T14:45:30.000Z</time>
        <extensions>
          <ns3:TrackPointExtension>
            <ns3:atemp>16.0</ns3:atemp>
          </ns3:TrackPointExtension>
        </extensions>
      </trkpt>
      <trkpt lat="46.7669043503701686859130859375" lon="6.83858315460383892059326171875">
        <ele>604.5999755859375</ele>
        <time>2013-09-01T14:45:31.000Z</time>
        <extensions>
          <ns3:TrackPointExtension>
            <ns3:atemp>16.0</ns3:atemp>
          </ns3:TrackPointExtension>
        </extensions>
      </trkpt>
      <trkpt lat="46.76693242974579334259033203125" lon="6.83863009326159954071044921875">
        <ele>605</ele>
        <time>2013-09-01T14:45:32.000Z</time>
        <extensions>
          <ns3:TrackPointExtension>
            <ns3:atemp>16.0</ns3:atemp>
          </ns3:TrackPointExtension>
        </extensions>
      </trkpt>
      <trkpt lat="46.76696344278752803802490234375" lon="6.83867082931101322174072265625">
        <ele>605.4000244140625</ele>
        <time>2013-09-01T14:45:33.000Z</time>
        <extensions>
          <ns3:TrackPointExtension>
            <ns3:atemp>16.0</ns3:atemp>
          </ns3:TrackPointExtension>
        </extensions>
      </trkpt>
      <trkpt lat="46.76700300537049770355224609375" lon="6.838719360530376434326171875">
        <ele>605.5999755859375</ele>
        <time>2013-09-01T14:45:34.000Z</time>
        <extensions>
          <ns3:TrackPointExtension>
            <ns3:atemp>16.0</ns3:atemp>
          </ns3:TrackPointExtension>
        </extensions>
      </trkpt>
      <trkpt lat="46.767038293182849884033203125" lon="6.8387855775654315948486328125">
        <ele>605.79998779296875</ele>
        <time>2013-09-01T14:45:35.000Z</time>
        <extensions>
          <ns3:TrackPointExtension>
            <ns3:atemp>16.0</ns3:atemp>
          </ns3:TrackPointExtension>
        </extensions>
      </trkpt>
      <trkpt lat="46.76707291044294834136962890625" lon="6.83885673992335796356201171875">
        <ele>606</ele>
        <time>2013-09-01T14:45:36.000Z</time>
        <extensions>
          <ns3:TrackPointExtension>
            <ns3:atemp>16.0</ns3:atemp>
          </ns3:TrackPointExtension>
        </extensions>
      </trkpt>
      <trkpt lat="46.767111383378505706787109375" lon="6.83894391171634197235107421875">
        <ele>606</ele>
        <time>2013-09-01T14:45:37.000Z</time>
        <extensions>
          <ns3:TrackPointExtension>
            <ns3:atemp>16.0</ns3:atemp>
          </ns3:TrackPointExtension>
        </extensions>
      </trkpt>
      <trkpt lat="46.7671514488756656646728515625" lon="6.839032508432865142822265625">
        <ele>606</ele>
        <time>2013-09-01T14:45:38.000Z</time>
        <extensions>
          <ns3:TrackPointExtension>
            <ns3:atemp>16.0</ns3:atemp>
          </ns3:TrackPointExtension>
        </extensions>
      </trkpt>
      <trkpt lat="46.7671935260295867919921875" lon="6.83911641128361225128173828125">
        <ele>606</ele>
        <time>2013-09-01T14:45:39.000Z</time>
        <extensions>
          <ns3:TrackPointExtension>
            <ns3:atemp>16.0</ns3:atemp>
          </ns3:TrackPointExtension>
        </extensions>
      </trkpt>
      <trkpt lat="46.76723116077482700347900390625" lon="6.83920676819980144500732421875">
        <ele>605.79998779296875</ele>
        <time>2013-09-01T14:45:40.000Z</time>
        <extensions>
          <ns3:TrackPointExtension>
            <ns3:atemp>16.0</ns3:atemp>
          </ns3:TrackPointExtension>
        </extensions>
      </trkpt>
      <trkpt lat="46.7672701366245746612548828125" lon="6.839300058782100677490234375">
        <ele>605.79998779296875</ele>
        <time>2013-09-01T14:45:41.000Z</time>
        <extensions>
          <ns3:TrackPointExtension>
            <ns3:atemp>16.0</ns3:atemp>
          </ns3:TrackPointExtension>
        </extensions>
      </trkpt>
      <trkpt lat="46.7673110403120517730712890625" lon="6.8393930979073047637939453125">
        <ele>605.4000244140625</ele>
        <time>2013-09-01T14:45:42.000Z</time>
        <extensions>
          <ns3:TrackPointExtension>
            <ns3:atemp>16.0</ns3:atemp>
          </ns3:TrackPointExtension>
        </extensions>
      </trkpt>
      <trkpt lat="46.76735135726630687713623046875" lon="6.839487813413143157958984375">
        <ele>605</ele>
        <time>2013-09-01T14:45:43.000Z</time>
        <extensions>
          <ns3:TrackPointExtension>
            <ns3:atemp>16.0</ns3:atemp>
          </ns3:TrackPointExtension>
        </extensions>
      </trkpt>
      <trkpt lat="46.76739175803959369659423828125" lon="6.83958646841347217559814453125">
        <ele>604.4000244140625</ele>
        <time>2013-09-01T14:45:44.000Z</time>
        <extensions>
          <ns3:TrackPointExtension>
            <ns3:atemp>16.0</ns3:atemp>
          </ns3:TrackPointExtension>
        </extensions>
      </trkpt>
      <trkpt lat="46.76743048243224620819091796875" lon="6.8396866321563720703125">
        <ele>604</ele>
        <time>2013-09-01T14:45:45.000Z</time>
        <extensions>
          <ns3:TrackPointExtension>
            <ns3:atemp>16.0</ns3:atemp>
          </ns3:TrackPointExtension>
        </extensions>
      </trkpt>
      <trkpt lat="46.76747289486229419708251953125" lon="6.83978478424251079559326171875">
        <ele>603.5999755859375</ele>
        <time>2013-09-01T14:45:46.000Z</time>
        <extensions>
          <ns3:TrackPointExtension>
            <ns3:atemp>16.0</ns3:atemp>
          </ns3:TrackPointExtension>
        </extensions>
      </trkpt>
      <trkpt lat="46.767513044178485870361328125" lon="6.839882433414459228515625">
        <ele>603.4000244140625</ele>
        <time>2013-09-01T14:45:47.000Z</time>
        <extensions>
          <ns3:TrackPointExtension>
            <ns3:atemp>16.0</ns3:atemp>
          </ns3:TrackPointExtension>
        </extensions>
      </trkpt>
      <trkpt lat="46.767553277313709259033203125" lon="6.839984692633152008056640625">
        <ele>603</ele>
        <time>2013-09-01T14:45:48.000Z</time>
        <extensions>
          <ns3:TrackPointExtension>
            <ns3:atemp>16.0</ns3:atemp>
          </ns3:TrackPointExtension>
        </extensions>
      </trkpt>
      <trkpt lat="46.7676010541617870330810546875" lon="6.84010178782045841217041015625">
        <ele>603</ele>
        <time>2013-09-01T14:45:49.000Z</time>
        <extensions>
          <ns3:TrackPointExtension>
            <ns3:atemp>16.0</ns3:atemp>
          </ns3:TrackPointExtension>
        </extensions>
      </trkpt>
      <trkpt lat="46.76766349934041500091552734375" lon="6.84020924381911754608154296875">
        <ele>602.5999755859375</ele>
        <time>2013-09-01T14:45:50.000Z</time>
        <extensions>
          <ns3:TrackPointExtension>
            <ns3:atemp>16.0</ns3:atemp>
          </ns3:TrackPointExtension>
        </extensions>
      </trkpt>
      <trkpt lat="46.767744719982147216796875" lon="6.840298175811767578125">
        <ele>602.20001220703125</ele>
        <time>2013-09-01T14:45:51.000Z</time>
        <extensions>
          <ns3:TrackPointExtension>
            <ns3:atemp>16.0</ns3:atemp>
          </ns3:TrackPointExtension>
        </extensions>
      </trkpt>
      <trkpt lat="46.7678330652415752410888671875" lon="6.8403764627873897552490234375">
        <ele>601.79998779296875</ele>
        <time>2013-09-01T14:45:52.000Z</time>
        <extensions>
          <ns3:TrackPointExtension>
            <ns3:atemp>16.0</ns3:atemp>
          </ns3:TrackPointExtension>
        </extensions>
      </trkpt>
      <trkpt lat="46.76793205551803112030029296875" lon="6.8404336273670196533203125">
        <ele>601.20001220703125</ele>
        <time>2013-09-01T14:45:53.000Z</time>
        <extensions>
          <ns3:TrackPointExtension>
            <ns3:atemp>16.0</ns3:atemp>
          </ns3:TrackPointExtension>
        </extensions>
      </trkpt>
      <trkpt lat="46.76803565584123134613037109375" lon="6.8404872715473175048828125">
        <ele>599.5999755859375</ele>
        <time>2013-09-01T14:45:54.000Z</time>
        <extensions>
          <ns3:TrackPointExtension>
            <ns3:atemp>16.0</ns3:atemp>
          </ns3:TrackPointExtension>
        </extensions>
      </trkpt>
      <trkpt lat="46.7681381665170192718505859375" lon="6.84054200537502765655517578125">
        <ele>598</ele>
        <time>2013-09-01T14:45:55.000Z</time>
        <extensions>
          <ns3:TrackPointExtension>
            <ns3:atemp>16.0</ns3:atemp>
          </ns3:TrackPointExtension>
        </extensions>
      </trkpt>
      <trkpt lat="46.76823799498379230499267578125" lon="6.84060637839138507843017578125">
        <ele>597.4000244140625</ele>
        <time>2013-09-01T14:45:56.000Z</time>
        <extensions>
          <ns3:TrackPointExtension>
            <ns3:atemp>16.0</ns3:atemp>
          </ns3:TrackPointExtension>
        </extensions>
      </trkpt>
      <trkpt lat="46.7683329619467258453369140625" lon="6.840675361454486846923828125">
        <ele>597.20001220703125</ele>
        <time>2013-09-01T14:45:57.000Z</time>
        <extensions>
          <ns3:TrackPointExtension>
            <ns3:atemp>16.0</ns3:atemp>
          </ns3:TrackPointExtension>
        </extensions>
      </trkpt>
      <trkpt lat="46.76842130720615386962890625" lon="6.84075239114463329315185546875">
        <ele>597.20001220703125</ele>
        <time>2013-09-01T14:45:58.000Z</time>
        <extensions>
          <ns3:TrackPointExtension>
            <ns3:atemp>16.0</ns3:atemp>
          </ns3:TrackPointExtension>
        </extensions>
      </trkpt>
      <trkpt lat="46.76851359196007251739501953125" lon="6.8408270739018917083740234375">
        <ele>596.5999755859375</ele>
        <time>2013-09-01T14:45:59.000Z</time>
        <extensions>
          <ns3:TrackPointExtension>
            <ns3:atemp>16.0</ns3:atemp>
          </ns3:TrackPointExtension>
        </extensions>
      </trkpt>
      <trkpt lat="46.76860277540981769561767578125" lon="6.8409164249897003173828125">
        <ele>596</ele>
        <time>2013-09-01T14:46:00.000Z</time>
        <extensions>
          <ns3:TrackPointExtension>
            <ns3:atemp>16.0</ns3:atemp>
          </ns3:TrackPointExtension>
        </extensions>
      </trkpt>
      <trkpt lat="46.7686806432902812957763671875" lon="6.841013319790363311767578125">
        <ele>595.20001220703125</ele>
        <time>2013-09-01T14:46:01.000Z</time>
        <extensions>
          <ns3:TrackPointExtension>
            <ns3:atemp>16.0</ns3:atemp>
          </ns3:TrackPointExtension>
        </extensions>
      </trkpt>
      <trkpt lat="46.76875264383852481842041015625" lon="6.8411310017108917236328125">
        <ele>594.5999755859375</ele>
        <time>2013-09-01T14:46:02.000Z</time>
        <extensions>
          <ns3:TrackPointExtension>
            <ns3:atemp>16.0</ns3:atemp>
          </ns3:TrackPointExtension>
        </extensions>
      </trkpt>
      <trkpt lat="46.7688077129423618316650390625" lon="6.84127257205545902252197265625">
        <ele>593.79998779296875</ele>
        <time>2013-09-01T14:46:03.000Z</time>
        <extensions>
          <ns3:TrackPointExtension>
            <ns3:atemp>16.0</ns3:atemp>
          </ns3:TrackPointExtension>
        </extensions>
      </trkpt>
      <trkpt lat="46.76886144094169139862060546875" lon="6.841419003903865814208984375">
        <ele>593.20001220703125</ele>
        <time>2013-09-01T14:46:04.000Z</time>
        <extensions>
          <ns3:TrackPointExtension>
            <ns3:atemp>16.0</ns3:atemp>
          </ns3:TrackPointExtension>
        </extensions>
      </trkpt>
      <trkpt lat="46.7689019255340099334716796875" lon="6.84157582931220531463623046875">
        <ele>592.4000244140625</ele>
        <time>2013-09-01T14:46:05.000Z</time>
        <extensions>
          <ns3:TrackPointExtension>
            <ns3:atemp>16.0</ns3:atemp>
          </ns3:TrackPointExtension>
        </extensions>
      </trkpt>
      <trkpt lat="46.76894366741180419921875" lon="6.84173122979700565338134765625">
        <ele>591.79998779296875</ele>
        <time>2013-09-01T14:46:06.000Z</time>
        <extensions>
          <ns3:TrackPointExtension>
            <ns3:atemp>16.0</ns3:atemp>
          </ns3:TrackPointExtension>
        </extensions>
      </trkpt>
      <trkpt lat="46.76897585391998291015625" lon="6.84189149178564548492431640625">
        <ele>591</ele>
        <time>2013-09-01T14:46:07.000Z</time>
        <extensions>
          <ns3:TrackPointExtension>
            <ns3:atemp>16.0</ns3:atemp>
          </ns3:TrackPointExtension>
        </extensions>
      </trkpt>
      <trkpt lat="46.768991611897945404052734375" lon="6.84205158613622188568115234375">
        <ele>590.20001220703125</ele>
        <time>2013-09-01T14:46:08.000Z</time>
        <extensions>
          <ns3:TrackPointExtension>
            <ns3:atemp>16.0</ns3:atemp>
          </ns3:TrackPointExtension>
        </extensions>
      </trkpt>
      <trkpt lat="46.769010387361049652099609375" lon="6.84221369214355945587158203125">
        <ele>589.79998779296875</ele>
        <time>2013-09-01T14:46:09.000Z</time>
        <extensions>
          <ns3:TrackPointExtension>
            <ns3:atemp>16.0</ns3:atemp>
          </ns3:TrackPointExtension>
        </extensions>
      </trkpt>
      <trkpt lat="46.769016422331333160400390625" lon="6.842371188104152679443359375">
        <ele>589.20001220703125</ele>
        <time>2013-09-01T14:46:10.000Z</time>
        <extensions>
          <ns3:TrackPointExtension>
            <ns3:atemp>16.0</ns3:atemp>
          </ns3:TrackPointExtension>
        </extensions>
      </trkpt>
      <trkpt lat="46.76901885308325290679931640625" lon="6.84252734296023845672607421875">
        <ele>588.5999755859375</ele>
        <time>2013-09-01T14:46:11.000Z</time>
        <extensions>
          <ns3:TrackPointExtension>
            <ns3:atemp>16.0</ns3:atemp>
          </ns3:TrackPointExtension>
        </extensions>
      </trkpt>
      <trkpt lat="46.7690310068428516387939453125" lon="6.84268089942634105682373046875">
        <ele>587.5999755859375</ele>
        <time>2013-09-01T14:46:12.000Z</time>
        <extensions>
          <ns3:TrackPointExtension>
            <ns3:atemp>16.0</ns3:atemp>
          </ns3:TrackPointExtension>
        </extensions>
      </trkpt>
      <trkpt lat="46.7690454237163066864013671875" lon="6.84283596463501453399658203125">
        <ele>586.79998779296875</ele>
        <time>2013-09-01T14:46:13.000Z</time>
        <extensions>
          <ns3:TrackPointExtension>
            <ns3:atemp>16.0</ns3:atemp>
          </ns3:TrackPointExtension>
        </extensions>
      </trkpt>
      <trkpt lat="46.76906160078942775726318359375" lon="6.8429875932633876800537109375">
        <ele>586.20001220703125</ele>
        <time>2013-09-01T14:46:14.000Z</time>
        <extensions>
          <ns3:TrackPointExtension>
            <ns3:atemp>16.0</ns3:atemp>
          </ns3:TrackPointExtension>
        </extensions>
      </trkpt>
      <trkpt lat="46.7690849862992763519287109375" lon="6.84313503094017505645751953125">
        <ele>585.4000244140625</ele>
        <time>2013-09-01T14:46:15.000Z</time>
        <extensions>
          <ns3:TrackPointExtension>
            <ns3:atemp>16.0</ns3:atemp>
          </ns3:TrackPointExtension>
        </extensions>
      </trkpt>
      <trkpt lat="46.76911457441747188568115234375" lon="6.8432759307324886322021484375">
        <ele>584.79998779296875</ele>
        <time>2013-09-01T14:46:16.000Z</time>
        <extensions>
          <ns3:TrackPointExtension>
            <ns3:atemp>16.0</ns3:atemp>
          </ns3:TrackPointExtension>
        </extensions>
      </trkpt>
      <trkpt lat="46.7691664583981037139892578125" lon="6.84340911917388439178466796875">
        <ele>583.5999755859375</ele>
        <time>2013-09-01T14:46:17.000Z</time>
        <extensions>
          <ns3:TrackPointExtension>
            <ns3:atemp>16.0</ns3:atemp>
          </ns3:TrackPointExtension>
        </extensions>
      </trkpt>
      <trkpt lat="46.76922135986387729644775390625" lon="6.84353836812078952789306640625">
        <ele>582.4000244140625</ele>
        <time>2013-09-01T14:46:18.000Z</time>
        <extensions>
          <ns3:TrackPointExtension>
            <ns3:atemp>16.0</ns3:atemp>
          </ns3:TrackPointExtension>
        </extensions>
      </trkpt>
      <trkpt lat="46.7693015746772289276123046875" lon="6.843651272356510162353515625">
        <ele>580.79998779296875</ele>
        <time>2013-09-01T14:46:19.000Z</time>
        <extensions>
          <ns3:TrackPointExtension>
            <ns3:atemp>16.0</ns3:atemp>
          </ns3:TrackPointExtension>
        </extensions>
      </trkpt>
      <trkpt lat="46.76939419470727443695068359375" lon="6.84375110082328319549560546875">
        <ele>579.20001220703125</ele>
        <time>2013-09-01T14:46:20.000Z</time>
        <extensions>
          <ns3:TrackPointExtension>
            <ns3:atemp>16.0</ns3:atemp>
          </ns3:TrackPointExtension>
        </extensions>
      </trkpt>
      <trkpt lat="46.76947281695902347564697265625" lon="6.843863166868686676025390625">
        <ele>578.20001220703125</ele>
        <time>2013-09-01T14:46:21.000Z</time>
        <extensions>
          <ns3:TrackPointExtension>
            <ns3:atemp>16.0</ns3:atemp>
          </ns3:TrackPointExtension>
        </extensions>
      </trkpt>
      <trkpt lat="46.76955881528556346893310546875" lon="6.84397707693278789520263671875">
        <ele>577.5999755859375</ele>
        <time>2013-09-01T14:46:22.000Z</time>
        <extensions>
          <ns3:TrackPointExtension>
            <ns3:atemp>16.0</ns3:atemp>
          </ns3:TrackPointExtension>
        </extensions>
      </trkpt>
      <trkpt lat="46.7696546204388141632080078125" lon="6.84409056790173053741455078125">
        <ele>577</ele>
        <time>2013-09-01T14:46:23.000Z</time>
        <extensions>
          <ns3:TrackPointExtension>
            <ns3:atemp>16.0</ns3:atemp>
          </ns3:TrackPointExtension>
        </extensions>
      </trkpt>
      <trkpt lat="46.7697468213737010955810546875" lon="6.84420992620289325714111328125">
        <ele>576.4000244140625</ele>
        <time>2013-09-01T14:46:24.000Z</time>
        <extensions>
          <ns3:TrackPointExtension>
            <ns3:atemp>16.0</ns3:atemp>
          </ns3:TrackPointExtension>
        </extensions>
      </trkpt>
      <trkpt lat="46.7698435485363006591796875" lon="6.844330541789531707763671875">
        <ele>575.4000244140625</ele>
        <time>2013-09-01T14:46:25.000Z</time>
        <extensions>
          <ns3:TrackPointExtension>
            <ns3:atemp>16.0</ns3:atemp>
          </ns3:TrackPointExtension>
        </extensions>
      </trkpt>
      <trkpt lat="46.7699382640421390533447265625" lon="6.84445367194712162017822265625">
        <ele>574.5999755859375</ele>
        <time>2013-09-01T14:46:26.000Z</time>
        <extensions>
          <ns3:TrackPointExtension>
            <ns3:atemp>16.0</ns3:atemp>
          </ns3:TrackPointExtension>
        </extensions>
      </trkpt>
      <trkpt lat="46.77002619020640850067138671875" lon="6.8445737846195697784423828125">
        <ele>573.79998779296875</ele>
        <time>2013-09-01T14:46:27.000Z</time>
        <extensions>
          <ns3:TrackPointExtension>
            <ns3:atemp>16.0</ns3:atemp>
          </ns3:TrackPointExtension>
        </extensions>
      </trkpt>
      <trkpt lat="46.7701132781803607940673828125" lon="6.8447010219097137451171875">
        <ele>572.79998779296875</ele>
        <time>2013-09-01T14:46:28.000Z</time>
        <extensions>
          <ns3:TrackPointExtension>
            <ns3:atemp>16.0</ns3:atemp>
          </ns3:TrackPointExtension>
        </extensions>
      </trkpt>
      <trkpt lat="46.7701976001262664794921875" lon="6.84483387507498264312744140625">
        <ele>571.79998779296875</ele>
        <time>2013-09-01T14:46:29.000Z</time>
        <extensions>
          <ns3:TrackPointExtension>
            <ns3:atemp>16.0</ns3:atemp>
          </ns3:TrackPointExtension>
        </extensions>
      </trkpt>
      <trkpt lat="46.77028351463377475738525390625" lon="6.8449620343744754791259765625">
        <ele>570.4000244140625</ele>
        <time>2013-09-01T14:46:30.000Z</time>
        <extensions>
          <ns3:TrackPointExtension>
            <ns3:atemp>16.0</ns3:atemp>
          </ns3:TrackPointExtension>
        </extensions>
      </trkpt>
      <trkpt lat="46.77037454210221767425537109375" lon="6.84508700855076313018798828125">
        <ele>569.5999755859375</ele>
        <time>2013-09-01T14:46:31.000Z</time>
        <extensions>
          <ns3:TrackPointExtension>
            <ns3:atemp>16.0</ns3:atemp>
          </ns3:TrackPointExtension>
        </extensions>
      </trkpt>
      <trkpt lat="46.7704685032367706298828125" lon="6.845206953585147857666015625">
        <ele>568.4000244140625</ele>
        <time>2013-09-01T14:46:32.000Z</time>
        <extensions>
          <ns3:TrackPointExtension>
            <ns3:atemp>16.0</ns3:atemp>
          </ns3:TrackPointExtension>
        </extensions>
      </trkpt>
      <trkpt lat="46.77056514658033847808837890625" lon="6.8453221209347248077392578125">
        <ele>567.5999755859375</ele>
        <time>2013-09-01T14:46:33.000Z</time>
        <extensions>
          <ns3:TrackPointExtension>
            <ns3:atemp>16.0</ns3:atemp>
          </ns3:TrackPointExtension>
        </extensions>
      </trkpt>
      <trkpt lat="46.770664639770984649658203125" lon="6.8454300798475742340087890625">
        <ele>566.20001220703125</ele>
        <time>2013-09-01T14:46:34.000Z</time>
        <extensions>
          <ns3:TrackPointExtension>
            <ns3:atemp>16.0</ns3:atemp>
          </ns3:TrackPointExtension>
        </extensions>
      </trkpt>
      <trkpt lat="46.77076329477131366729736328125" lon="6.84553443454205989837646484375">
        <ele>565.5999755859375</ele>
        <time>2013-09-01T14:46:35.000Z</time>
        <extensions>
          <ns3:TrackPointExtension>
            <ns3:atemp>16.0</ns3:atemp>
          </ns3:TrackPointExtension>
        </extensions>
      </trkpt>
      <trkpt lat="46.77086153067648410797119140625" lon="6.84563484974205493927001953125">
        <ele>564.79998779296875</ele>
        <time>2013-09-01T14:46:36.000Z</time>
        <extensions>
          <ns3:TrackPointExtension>
            <ns3:atemp>16.0</ns3:atemp>
          </ns3:TrackPointExtension>
        </extensions>
      </trkpt>
      <trkpt lat="46.77095867693424224853515625" lon="6.84573258273303508758544921875">
        <ele>564.20001220703125</ele>
        <time>2013-09-01T14:46:37.000Z</time>
        <extensions>
          <ns3:TrackPointExtension>
            <ns3:atemp>16.0</ns3:atemp>
          </ns3:TrackPointExtension>
        </extensions>
      </trkpt>
      <trkpt lat="46.7710585892200469970703125" lon="6.84582646004855632781982421875">
        <ele>563</ele>
        <time>2013-09-01T14:46:38.000Z</time>
        <extensions>
          <ns3:TrackPointExtension>
            <ns3:atemp>16.0</ns3:atemp>
          </ns3:TrackPointExtension>
        </extensions>
      </trkpt>
      <trkpt lat="46.77115380764007568359375" lon="6.845917403697967529296875">
        <ele>562</ele>
        <time>2013-09-01T14:46:39.000Z</time>
        <extensions>
          <ns3:TrackPointExtension>
            <ns3:atemp>16.0</ns3:atemp>
          </ns3:TrackPointExtension>
        </extensions>
      </trkpt>
      <trkpt lat="46.771237291395664215087890625" lon="6.84600801207125186920166015625">
        <ele>560.4000244140625</ele>
        <time>2013-09-01T14:46:40.000Z</time>
        <extensions>
          <ns3:TrackPointExtension>
            <ns3:atemp>16.0</ns3:atemp>
          </ns3:TrackPointExtension>
        </extensions>
      </trkpt>
      <trkpt lat="46.77129990421235561370849609375" lon="6.846101470291614532470703125">
        <ele>557.5999755859375</ele>
        <time>2013-09-01T14:46:41.000Z</time>
        <extensions>
          <ns3:TrackPointExtension>
            <ns3:atemp>16.0</ns3:atemp>
          </ns3:TrackPointExtension>
        </extensions>
      </trkpt>
      <trkpt lat="46.77135203965008258819580078125" lon="6.8462102673947811126708984375">
        <ele>556.20001220703125</ele>
        <time>2013-09-01T14:46:42.000Z</time>
        <extensions>
          <ns3:TrackPointExtension>
            <ns3:atemp>16.0</ns3:atemp>
          </ns3:TrackPointExtension>
        </extensions>
      </trkpt>
      <trkpt lat="46.77140031941235065460205078125" lon="6.84632702730596065521240234375">
        <ele>555</ele>
        <time>2013-09-01T14:46:43.000Z</time>
        <extensions>
          <ns3:TrackPointExtension>
            <ns3:atemp>16.0</ns3:atemp>
          </ns3:TrackPointExtension>
        </extensions>
      </trkpt>
      <trkpt lat="46.7714399658143520355224609375" lon="6.84646365232765674591064453125">
        <ele>554</ele>
        <time>2013-09-01T14:46:44.000Z</time>
        <extensions>
          <ns3:TrackPointExtension>
            <ns3:atemp>16.0</ns3:atemp>
          </ns3:TrackPointExtension>
        </extensions>
      </trkpt>
      <trkpt lat="46.77148162387311458587646484375" lon="6.84660145081579685211181640625">
        <ele>553</ele>
        <time>2013-09-01T14:46:45.000Z</time>
        <extensions>
          <ns3:TrackPointExtension>
            <ns3:atemp>16.0</ns3:atemp>
          </ns3:TrackPointExtension>
        </extensions>
      </trkpt>
      <trkpt lat="46.77151179872453212738037109375" lon="6.846739836037158966064453125">
        <ele>551.5999755859375</ele>
        <time>2013-09-01T14:46:46.000Z</time>
        <extensions>
          <ns3:TrackPointExtension>
            <ns3:atemp>16.0</ns3:atemp>
          </ns3:TrackPointExtension>
        </extensions>
      </trkpt>
      <trkpt lat="46.7715361900627613067626953125" lon="6.8468816578388214111328125">
        <ele>550.4000244140625</ele>
        <time>2013-09-01T14:46:47.000Z</time>
        <extensions>
          <ns3:TrackPointExtension>
            <ns3:atemp>16.0</ns3:atemp>
          </ns3:TrackPointExtension>
        </extensions>
      </trkpt>
      <trkpt lat="46.771549768745899200439453125" lon="6.84701266698539257049560546875">
        <ele>549.4000244140625</ele>
        <time>2013-09-01T14:46:48.000Z</time>
        <extensions>
          <ns3:TrackPointExtension>
            <ns3:atemp>16.0</ns3:atemp>
          </ns3:TrackPointExtension>
        </extensions>
      </trkpt>
      <trkpt lat="46.77157281897962093353271484375" lon="6.847134791314601898193359375">
        <ele>548.20001220703125</ele>
        <time>2013-09-01T14:46:49.000Z</time>
        <extensions>
          <ns3:TrackPointExtension>
            <ns3:atemp>16.0</ns3:atemp>
          </ns3:TrackPointExtension>
        </extensions>
      </trkpt>
      <trkpt lat="46.77160282619297504425048828125" lon="6.84725574217736721038818359375">
        <ele>547.20001220703125</ele>
        <time>2013-09-01T14:46:50.000Z</time>
        <extensions>
          <ns3:TrackPointExtension>
            <ns3:atemp>16.0</ns3:atemp>
          </ns3:TrackPointExtension>
        </extensions>
      </trkpt>
      <trkpt lat="46.77163266576826572418212890625" lon="6.8473823927342891693115234375">
        <ele>546.5999755859375</ele>
        <time>2013-09-01T14:46:51.000Z</time>
        <extensions>
          <ns3:TrackPointExtension>
            <ns3:atemp>16.0</ns3:atemp>
          </ns3:TrackPointExtension>
        </extensions>
      </trkpt>
      <trkpt lat="46.77165806293487548828125" lon="6.8475200235843658447265625">
        <ele>546.20001220703125</ele>
        <time>2013-09-01T14:46:52.000Z</time>
        <extensions>
          <ns3:TrackPointExtension>
            <ns3:atemp>16.0</ns3:atemp>
          </ns3:TrackPointExtension>
        </extensions>
      </trkpt>
      <trkpt lat="46.77167910151183605194091796875" lon="6.8476710654795169830322265625">
        <ele>546</ele>
        <time>2013-09-01T14:46:53.000Z</time>
        <extensions>
          <ns3:TrackPointExtension>
            <ns3:atemp>16.0</ns3:atemp>
          </ns3:TrackPointExtension>
        </extensions>
      </trkpt>
      <trkpt lat="46.77169620059430599212646484375" lon="6.84783241711556911468505859375">
        <ele>545.4000244140625</ele>
        <time>2013-09-01T14:46:54.000Z</time>
        <extensions>
          <ns3:TrackPointExtension>
            <ns3:atemp>16.0</ns3:atemp>
          </ns3:TrackPointExtension>
        </extensions>
      </trkpt>
      <trkpt lat="46.77171262912452220916748046875" lon="6.84799787588417530059814453125">
        <ele>544</ele>
        <time>2013-09-01T14:46:55.000Z</time>
        <extensions>
          <ns3:TrackPointExtension>
            <ns3:atemp>16.0</ns3:atemp>
          </ns3:TrackPointExtension>
        </extensions>
      </trkpt>
      <trkpt lat="46.7717162333428859710693359375" lon="6.848158724606037139892578125">
        <ele>542.20001220703125</ele>
        <time>2013-09-01T14:46:56.000Z</time>
        <extensions>
          <ns3:TrackPointExtension>
            <ns3:atemp>16.0</ns3:atemp>
          </ns3:TrackPointExtension>
        </extensions>
      </trkpt>
      <trkpt lat="46.77171279676258563995361328125" lon="6.84832242317497730255126953125">
        <ele>540</ele>
        <time>2013-09-01T14:46:57.000Z</time>
        <extensions>
          <ns3:TrackPointExtension>
            <ns3:atemp>16.0</ns3:atemp>
          </ns3:TrackPointExtension>
        </extensions>
      </trkpt>
      <trkpt lat="46.771713383495807647705078125" lon="6.8484901450574398040771484375">
        <ele>538.20001220703125</ele>
        <time>2013-09-01T14:46:58.000Z</time>
        <extensions>
          <ns3:TrackPointExtension>
            <ns3:atemp>16.0</ns3:atemp>
          </ns3:TrackPointExtension>
        </extensions>
      </trkpt>
      <trkpt lat="46.771725453436374664306640625" lon="6.84865501709282398223876953125">
        <ele>537.20001220703125</ele>
        <time>2013-09-01T14:46:59.000Z</time>
        <extensions>
          <ns3:TrackPointExtension>
            <ns3:atemp>16.0</ns3:atemp>
          </ns3:TrackPointExtension>
        </extensions>
      </trkpt>
      <trkpt lat="46.7717581428587436676025390625" lon="6.8488101661205291748046875">
        <ele>536</ele>
        <time>2013-09-01T14:47:00.000Z</time>
        <extensions>
          <ns3:TrackPointExtension>
            <ns3:atemp>16.0</ns3:atemp>
          </ns3:TrackPointExtension>
        </extensions>
      </trkpt>
      <trkpt lat="46.7717827856540679931640625" lon="6.84895710088312625885009765625">
        <ele>534.79998779296875</ele>
        <time>2013-09-01T14:47:01.000Z</time>
        <extensions>
          <ns3:TrackPointExtension>
            <ns3:atemp>16.0</ns3:atemp>
          </ns3:TrackPointExtension>
        </extensions>
      </trkpt>
      <trkpt lat="46.771799884736537933349609375" lon="6.84907461516559123992919921875">
        <ele>533.20001220703125</ele>
        <time>2013-09-01T14:47:02.000Z</time>
        <extensions>
          <ns3:TrackPointExtension>
            <ns3:atemp>16.0</ns3:atemp>
          </ns3:TrackPointExtension>
        </extensions>
      </trkpt>
      <trkpt lat="46.7718161456286907196044921875" lon="6.84917201288044452667236328125">
        <ele>531.79998779296875</ele>
        <time>2013-09-01T14:47:03.000Z</time>
        <extensions>
          <ns3:TrackPointExtension>
            <ns3:atemp>16.0</ns3:atemp>
          </ns3:TrackPointExtension>
        </extensions>
      </trkpt>
      <trkpt lat="46.77182947285473346710205078125" lon="6.84927108697593212127685546875">
        <ele>530.5999755859375</ele>
        <time>2013-09-01T14:47:04.000Z</time>
        <extensions>
          <ns3:TrackPointExtension>
            <ns3:atemp>16.0</ns3:atemp>
          </ns3:TrackPointExtension>
        </extensions>
      </trkpt>
      <trkpt lat="46.77184606902301311492919921875" lon="6.84933923184871673583984375">
        <ele>528.79998779296875</ele>
        <time>2013-09-01T14:47:05.000Z</time>
        <extensions>
          <ns3:TrackPointExtension>
            <ns3:atemp>16.0</ns3:atemp>
          </ns3:TrackPointExtension>
        </extensions>
      </trkpt>
      <trkpt lat="46.77187004126608371734619140625" lon="6.849413327872753143310546875">
        <ele>528.4000244140625</ele>
        <time>2013-09-01T14:47:06.000Z</time>
        <extensions>
          <ns3:TrackPointExtension>
            <ns3:atemp>16.0</ns3:atemp>
          </ns3:TrackPointExtension>
        </extensions>
      </trkpt>
      <trkpt lat="46.77190189249813556671142578125" lon="6.849495135247707366943359375">
        <ele>528.4000244140625</ele>
        <time>2013-09-01T14:47:07.000Z</time>
        <extensions>
          <ns3:TrackPointExtension>
            <ns3:atemp>16.0</ns3:atemp>
          </ns3:TrackPointExtension>
        </extensions>
      </trkpt>
      <trkpt lat="46.7719328217208385467529296875" lon="6.84958976693451404571533203125">
        <ele>528</ele>
        <time>2013-09-01T14:47:08.000Z</time>
        <extensions>
          <ns3:TrackPointExtension>
            <ns3:atemp>16.0</ns3:atemp>
          </ns3:TrackPointExtension>
        </extensions>
      </trkpt>
      <trkpt lat="46.77195905707776546478271484375" lon="6.84970091097056865692138671875">
        <ele>527.4000244140625</ele>
        <time>2013-09-01T14:47:09.000Z</time>
        <extensions>
          <ns3:TrackPointExtension>
            <ns3:atemp>16.0</ns3:atemp>
          </ns3:TrackPointExtension>
        </extensions>
      </trkpt>
      <trkpt lat="46.771984286606311798095703125" lon="6.849824376404285430908203125">
        <ele>526.5999755859375</ele>
        <time>2013-09-01T14:47:10.000Z</time>
        <extensions>
          <ns3:TrackPointExtension>
            <ns3:atemp>16.0</ns3:atemp>
          </ns3:TrackPointExtension>
        </extensions>
      </trkpt>
      <trkpt lat="46.77201068960130214691162109375" lon="6.84995672665536403656005859375">
        <ele>525.79998779296875</ele>
        <time>2013-09-01T14:47:11.000Z</time>
        <extensions>
          <ns3:TrackPointExtension>
            <ns3:atemp>16.0</ns3:atemp>
          </ns3:TrackPointExtension>
        </extensions>
      </trkpt>
      <trkpt lat="46.77203952334821224212646484375" lon="6.85009586624801158905029296875">
        <ele>525.20001220703125</ele>
        <time>2013-09-01T14:47:12.000Z</time>
        <extensions>
          <ns3:TrackPointExtension>
            <ns3:atemp>16.0</ns3:atemp>
          </ns3:TrackPointExtension>
        </extensions>
      </trkpt>
      <trkpt lat="46.772072128951549530029296875" lon="6.85023886151611804962158203125">
        <ele>524.5999755859375</ele>
        <time>2013-09-01T14:47:13.000Z</time>
        <extensions>
          <ns3:TrackPointExtension>
            <ns3:atemp>16.0</ns3:atemp>
          </ns3:TrackPointExtension>
        </extensions>
      </trkpt>
      <trkpt lat="46.77210825495421886444091796875" lon="6.850388981401920318603515625">
        <ele>524.20001220703125</ele>
        <time>2013-09-01T14:47:14.000Z</time>
        <extensions>
          <ns3:TrackPointExtension>
            <ns3:atemp>16.0</ns3:atemp>
          </ns3:TrackPointExtension>
        </extensions>
      </trkpt>
      <trkpt lat="46.7721460573375225067138671875" lon="6.85054463334381580352783203125">
        <ele>523.5999755859375</ele>
        <time>2013-09-01T14:47:15.000Z</time>
        <extensions>
          <ns3:TrackPointExtension>
            <ns3:atemp>16.0</ns3:atemp>
          </ns3:TrackPointExtension>
        </extensions>
      </trkpt>
      <trkpt lat="46.77218654192984104156494140625" lon="6.8507046438753604888916015625">
        <ele>523.20001220703125</ele>
        <time>2013-09-01T14:47:16.000Z</time>
        <extensions>
          <ns3:TrackPointExtension>
            <ns3:atemp>16.0</ns3:atemp>
          </ns3:TrackPointExtension>
        </extensions>
      </trkpt>
      <trkpt lat="46.77222778089344501495361328125" lon="6.85086540877819061279296875">
        <ele>522.4000244140625</ele>
        <time>2013-09-01T14:47:17.000Z</time>
        <extensions>
          <ns3:TrackPointExtension>
            <ns3:atemp>16.0</ns3:atemp>
          </ns3:TrackPointExtension>
        </extensions>
      </trkpt>
      <trkpt lat="46.77226767875254154205322265625" lon="6.8510208092629909515380859375">
        <ele>521.4000244140625</ele>
        <time>2013-09-01T14:47:18.000Z</time>
        <extensions>
          <ns3:TrackPointExtension>
            <ns3:atemp>16.0</ns3:atemp>
          </ns3:TrackPointExtension>
        </extensions>
      </trkpt>
      <trkpt lat="46.77230774424970149993896484375" lon="6.8511760421097278594970703125">
        <ele>520.5999755859375</ele>
        <time>2013-09-01T14:47:19.000Z</time>
        <extensions>
          <ns3:TrackPointExtension>
            <ns3:atemp>16.0</ns3:atemp>
          </ns3:TrackPointExtension>
        </extensions>
      </trkpt>
      <trkpt lat="46.772330962121486663818359375" lon="6.8513178639113903045654296875">
        <ele>519.4000244140625</ele>
        <time>2013-09-01T14:47:20.000Z</time>
        <extensions>
          <ns3:TrackPointExtension>
            <ns3:atemp>16.0</ns3:atemp>
          </ns3:TrackPointExtension>
        </extensions>
      </trkpt>
      <trkpt lat="46.7723261006176471710205078125" lon="6.85143931768834590911865234375">
        <ele>517.79998779296875</ele>
        <time>2013-09-01T14:47:21.000Z</time>
        <extensions>
          <ns3:TrackPointExtension>
            <ns3:atemp>16.0</ns3:atemp>
          </ns3:TrackPointExtension>
        </extensions>
      </trkpt>
      <trkpt lat="46.77230522967875003814697265625" lon="6.851548366248607635498046875">
        <ele>515.79998779296875</ele>
        <time>2013-09-01T14:47:22.000Z</time>
        <extensions>
          <ns3:TrackPointExtension>
            <ns3:atemp>16.0</ns3:atemp>
          </ns3:TrackPointExtension>
        </extensions>
      </trkpt>
      <trkpt lat="46.772264577448368072509765625" lon="6.8516313470900058746337890625">
        <ele>514</ele>
        <time>2013-09-01T14:47:23.000Z</time>
        <extensions>
          <ns3:TrackPointExtension>
            <ns3:atemp>16.0</ns3:atemp>
          </ns3:TrackPointExtension>
        </extensions>
      </trkpt>
      <trkpt lat="46.772203557193279266357421875" lon="6.85168256051838397979736328125">
        <ele>512.5999755859375</ele>
        <time>2013-09-01T14:47:24.000Z</time>
        <extensions>
          <ns3:TrackPointExtension>
            <ns3:atemp>16.0</ns3:atemp>
          </ns3:TrackPointExtension>
        </extensions>
      </trkpt>
      <trkpt lat="46.7721336521208286285400390625" lon="6.8517124839127063751220703125">
        <ele>511.399993896484375</ele>
        <time>2013-09-01T14:47:25.000Z</time>
        <extensions>
          <ns3:TrackPointExtension>
            <ns3:atemp>16.0</ns3:atemp>
          </ns3:TrackPointExtension>
        </extensions>
      </trkpt>
      <trkpt lat="46.77205729298293590545654296875" lon="6.851728074252605438232421875">
        <ele>510.600006103515625</ele>
        <time>2013-09-01T14:47:26.000Z</time>
        <extensions>
          <ns3:TrackPointExtension>
            <ns3:atemp>16.0</ns3:atemp>
          </ns3:TrackPointExtension>
        </extensions>
      </trkpt>
      <trkpt lat="46.77198269404470920562744140625" lon="6.85174592770636081695556640625">
        <ele>509.79998779296875</ele>
        <time>2013-09-01T14:47:27.000Z</time>
        <extensions>
          <ns3:TrackPointExtension>
            <ns3:atemp>16.0</ns3:atemp>
          </ns3:TrackPointExtension>
        </extensions>
      </trkpt>
      <trkpt lat="46.77190876565873622894287109375" lon="6.851774342358112335205078125">
        <ele>509.399993896484375</ele>
        <time>2013-09-01T14:47:28.000Z</time>
        <extensions>
          <ns3:TrackPointExtension>
            <ns3:atemp>16.0</ns3:atemp>
          </ns3:TrackPointExtension>
        </extensions>
      </trkpt>
      <trkpt lat="46.77184388972818851470947265625" lon="6.8517981469631195068359375">
        <ele>508.79998779296875</ele>
        <time>2013-09-01T14:47:29.000Z</time>
        <extensions>
          <ns3:TrackPointExtension>
            <ns3:atemp>16.0</ns3:atemp>
          </ns3:TrackPointExtension>
        </extensions>
      </trkpt>
      <trkpt lat="46.771794520318508148193359375" lon="6.85181222856044769287109375">
        <ele>507.20001220703125</ele>
        <time>2013-09-01T14:47:30.000Z</time>
        <extensions>
          <ns3:TrackPointExtension>
            <ns3:atemp>16.0</ns3:atemp>
          </ns3:TrackPointExtension>
        </extensions>
      </trkpt>
      <trkpt lat="46.771750934422016143798828125" lon="6.85181759297847747802734375">
        <ele>506.600006103515625</ele>
        <time>2013-09-01T14:47:31.000Z</time>
        <extensions>
          <ns3:TrackPointExtension>
            <ns3:atemp>16.0</ns3:atemp>
          </ns3:TrackPointExtension>
        </extensions>
      </trkpt>
      <trkpt lat="46.7717091925442218780517578125" lon="6.85183092020452022552490234375">
        <ele>506.20001220703125</ele>
        <time>2013-09-01T14:47:32.000Z</time>
        <extensions>
          <ns3:TrackPointExtension>
            <ns3:atemp>16.0</ns3:atemp>
          </ns3:TrackPointExtension>
        </extensions>
      </trkpt>
      <trkpt lat="46.77167608402669429779052734375" lon="6.8518472649157047271728515625">
        <ele>505.600006103515625</ele>
        <time>2013-09-01T14:47:33.000Z</time>
        <extensions>
          <ns3:TrackPointExtension>
            <ns3:atemp>16.0</ns3:atemp>
          </ns3:TrackPointExtension>
        </extensions>
      </trkpt>
      <trkpt lat="46.7716431431472301483154296875" lon="6.85185170732438564300537109375">
        <ele>505.399993896484375</ele>
        <time>2013-09-01T14:47:34.000Z</time>
        <extensions>
          <ns3:TrackPointExtension>
            <ns3:atemp>16.0</ns3:atemp>
          </ns3:TrackPointExtension>
        </extensions>
      </trkpt>
      <trkpt lat="46.7716133035719394683837890625" lon="6.85186344198882579803466796875">
        <ele>505.20001220703125</ele>
        <time>2013-09-01T14:47:35.000Z</time>
        <extensions>
          <ns3:TrackPointExtension>
            <ns3:atemp>16.0</ns3:atemp>
          </ns3:TrackPointExtension>
        </extensions>
      </trkpt>
      <trkpt lat="46.77158673293888568878173828125" lon="6.85187350027263164520263671875">
        <ele>505.20001220703125</ele>
        <time>2013-09-01T14:47:36.000Z</time>
        <extensions>
          <ns3:TrackPointExtension>
            <ns3:atemp>16.0</ns3:atemp>
          </ns3:TrackPointExtension>
        </extensions>
      </trkpt>
      <trkpt lat="46.7715610004961490631103515625" lon="6.85188121162354946136474609375">
        <ele>505</ele>
        <time>2013-09-01T14:47:37.000Z</time>
        <extensions>
          <ns3:TrackPointExtension>
            <ns3:atemp>16.0</ns3:atemp>
          </ns3:TrackPointExtension>
        </extensions>
      </trkpt>
      <trkpt lat="46.77153543569147586822509765625" lon="6.85188439674675464630126953125">
        <ele>504.600006103515625</ele>
        <time>2013-09-01T14:47:38.000Z</time>
        <extensions>
          <ns3:TrackPointExtension>
            <ns3:atemp>16.0</ns3:atemp>
          </ns3:TrackPointExtension>
        </extensions>
      </trkpt>
      <trkpt lat="46.771514229476451873779296875" lon="6.85188892297446727752685546875">
        <ele>504.399993896484375</ele>
        <time>2013-09-01T14:47:39.000Z</time>
        <extensions>
          <ns3:TrackPointExtension>
            <ns3:atemp>16.0</ns3:atemp>
          </ns3:TrackPointExtension>
        </extensions>
      </trkpt>
      <trkpt lat="46.77150375209748744964599609375" lon="6.85190401040017604827880859375">
        <ele>504.20001220703125</ele>
        <time>2013-09-01T14:47:40.000Z</time>
        <extensions>
          <ns3:TrackPointExtension>
            <ns3:atemp>16.0</ns3:atemp>
          </ns3:TrackPointExtension>
        </extensions>
      </trkpt>
      <trkpt lat="46.771506853401660919189453125" lon="6.8519216962158679962158203125">
        <ele>504.20001220703125</ele>
        <time>2013-09-01T14:47:41.000Z</time>
        <extensions>
          <ns3:TrackPointExtension>
            <ns3:atemp>16.0</ns3:atemp>
          </ns3:TrackPointExtension>
        </extensions>
      </trkpt>
      <trkpt lat="46.77152051590383052825927734375" lon="6.85193049721419811248779296875">
        <ele>504</ele>
        <time>2013-09-01T14:47:42.000Z</time>
        <extensions>
          <ns3:TrackPointExtension>
            <ns3:atemp>16.0</ns3:atemp>
          </ns3:TrackPointExtension>
        </extensions>
      </trkpt>
      <trkpt lat="46.7715368606150150299072265625" lon="6.8519287370145320892333984375">
        <ele>504</ele>
        <time>2013-09-01T14:47:43.000Z</time>
        <extensions>
          <ns3:TrackPointExtension>
            <ns3:atemp>16.0</ns3:atemp>
          </ns3:TrackPointExtension>
        </extensions>
      </trkpt>
      <trkpt lat="46.77155689336359500885009765625" lon="6.85191675089299678802490234375">
        <ele>504</ele>
        <time>2013-09-01T14:47:44.000Z</time>
        <extensions>
          <ns3:TrackPointExtension>
            <ns3:atemp>16.0</ns3:atemp>
          </ns3:TrackPointExtension>
        </extensions>
      </trkpt>
      <trkpt lat="46.77157700993120670318603515625" lon="6.85189663432538509368896484375">
        <ele>504</ele>
        <time>2013-09-01T14:47:45.000Z</time>
        <extensions>
          <ns3:TrackPointExtension>
            <ns3:atemp>16.0</ns3:atemp>
          </ns3:TrackPointExtension>
        </extensions>
      </trkpt>
      <trkpt lat="46.7715965397655963897705078125" lon="6.85187433846294879913330078125">
        <ele>504</ele>
        <time>2013-09-01T14:47:46.000Z</time>
        <extensions>
          <ns3:TrackPointExtension>
            <ns3:atemp>16.0</ns3:atemp>
          </ns3:TrackPointExtension>
        </extensions>
      </trkpt>
      <trkpt lat="46.771634258329868316650390625" lon="6.85185388661921024322509765625">
        <ele>504</ele>
        <time>2013-09-01T14:47:47.000Z</time>
        <extensions>
          <ns3:TrackPointExtension>
            <ns3:atemp>16.0</ns3:atemp>
          </ns3:TrackPointExtension>
        </extensions>
      </trkpt>
      <trkpt lat="46.77166887558996677398681640625" lon="6.8518315069377422332763671875">
        <ele>504</ele>
        <time>2013-09-01T14:47:48.000Z</time>
        <extensions>
          <ns3:TrackPointExtension>
            <ns3:atemp>16.0</ns3:atemp>
          </ns3:TrackPointExtension>
        </extensions>
      </trkpt>
      <trkpt lat="46.7717065103352069854736328125" lon="6.85180141590535640716552734375">
        <ele>504.399993896484375</ele>
        <time>2013-09-01T14:47:49.000Z</time>
        <extensions>
          <ns3:TrackPointExtension>
            <ns3:atemp>16.0</ns3:atemp>
          </ns3:TrackPointExtension>
        </extensions>
      </trkpt>
      <trkpt lat="46.77174448035657405853271484375" lon="6.851776354014873504638671875">
        <ele>505</ele>
        <time>2013-09-01T14:47:50.000Z</time>
        <extensions>
          <ns3:TrackPointExtension>
            <ns3:atemp>16.0</ns3:atemp>
          </ns3:TrackPointExtension>
        </extensions>
      </trkpt>
      <trkpt lat="46.77177700214087963104248046875" lon="6.85174844227731227874755859375">
        <ele>505.399993896484375</ele>
        <time>2013-09-01T14:47:51.000Z</time>
        <extensions>
          <ns3:TrackPointExtension>
            <ns3:atemp>16.0</ns3:atemp>
          </ns3:TrackPointExtension>
        </extensions>
      </trkpt>
      <trkpt lat="46.77181296050548553466796875" lon="6.851726733148097991943359375">
        <ele>505.79998779296875</ele>
        <time>2013-09-01T14:47:52.000Z</time>
        <extensions>
          <ns3:TrackPointExtension>
            <ns3:atemp>16.0</ns3:atemp>
          </ns3:TrackPointExtension>
        </extensions>
      </trkpt>
      <trkpt lat="46.771848835051059722900390625" lon="6.851708628237247467041015625">
        <ele>506</ele>
        <time>2013-09-01T14:47:53.000Z</time>
        <extensions>
          <ns3:TrackPointExtension>
            <ns3:atemp>16.0</ns3:atemp>
          </ns3:TrackPointExtension>
        </extensions>
      </trkpt>
      <trkpt lat="46.77188361994922161102294921875" lon="6.8516916967928409576416015625">
        <ele>506.20001220703125</ele>
        <time>2013-09-01T14:47:54.000Z</time>
        <extensions>
          <ns3:TrackPointExtension>
            <ns3:atemp>16.0</ns3:atemp>
          </ns3:TrackPointExtension>
        </extensions>
      </trkpt>
      <trkpt lat="46.771917231380939483642578125" lon="6.85168080031871795654296875">
        <ele>506.399993896484375</ele>
        <time>2013-09-01T14:47:55.000Z</time>
        <extensions>
          <ns3:TrackPointExtension>
            <ns3:atemp>16.0</ns3:atemp>
          </ns3:TrackPointExtension>
        </extensions>
      </trkpt>
      <trkpt lat="46.7719499208033084869384765625" lon="6.8516735918819904327392578125">
        <ele>506.79998779296875</ele>
        <time>2013-09-01T14:47:56.000Z</time>
        <extensions>
          <ns3:TrackPointExtension>
            <ns3:atemp>16.0</ns3:atemp>
          </ns3:TrackPointExtension>
        </extensions>
      </trkpt>
      <trkpt lat="46.77198152057826519012451171875" lon="6.8516662158071994781494140625">
        <ele>507</ele>
        <time>2013-09-01T14:47:57.000Z</time>
        <extensions>
          <ns3:TrackPointExtension>
            <ns3:atemp>16.0</ns3:atemp>
          </ns3:TrackPointExtension>
        </extensions>
      </trkpt>
      <trkpt lat="46.77201270125806331634521484375" lon="6.8516571633517742156982421875">
        <ele>507.20001220703125</ele>
        <time>2013-09-01T14:47:58.000Z</time>
        <extensions>
          <ns3:TrackPointExtension>
            <ns3:atemp>16.0</ns3:atemp>
          </ns3:TrackPointExtension>
        </extensions>
      </trkpt>
      <trkpt lat="46.77204237319529056549072265625" lon="6.851646937429904937744140625">
        <ele>507.600006103515625</ele>
        <time>2013-09-01T14:47:59.000Z</time>
        <extensions>
          <ns3:TrackPointExtension>
            <ns3:atemp>16.0</ns3:atemp>
          </ns3:TrackPointExtension>
        </extensions>
      </trkpt>
      <trkpt lat="46.772070787847042083740234375" lon="6.8516360409557819366455078125">
        <ele>507.79998779296875</ele>
        <time>2013-09-01T14:48:00.000Z</time>
        <extensions>
          <ns3:TrackPointExtension>
            <ns3:atemp>16.0</ns3:atemp>
          </ns3:TrackPointExtension>
        </extensions>
      </trkpt>
      <trkpt lat="46.7720991186797618865966796875" lon="6.85162656940519809722900390625">
        <ele>508.20001220703125</ele>
        <time>2013-09-01T14:48:01.000Z</time>
        <extensions>
          <ns3:TrackPointExtension>
            <ns3:atemp>16.0</ns3:atemp>
          </ns3:TrackPointExtension>
        </extensions>
      </trkpt>
      <trkpt lat="46.772130466997623443603515625" lon="6.85162338428199291229248046875">
        <ele>508.399993896484375</ele>
        <time>2013-09-01T14:48:02.000Z</time>
        <extensions>
          <ns3:TrackPointExtension>
            <ns3:atemp>16.0</ns3:atemp>
          </ns3:TrackPointExtension>
        </extensions>
      </trkpt>
      <trkpt lat="46.772165000438690185546875" lon="6.8516387231647968292236328125">
        <ele>508.79998779296875</ele>
        <time>2013-09-01T14:48:03.000Z</time>
        <extensions>
          <ns3:TrackPointExtension>
            <ns3:atemp>16.0</ns3:atemp>
          </ns3:TrackPointExtension>
        </extensions>
      </trkpt>
      <trkpt lat="46.77219643257558345794677734375" lon="6.85164651833474636077880859375">
        <ele>508.79998779296875</ele>
        <time>2013-09-01T14:48:04.000Z</time>
        <extensions>
          <ns3:TrackPointExtension>
            <ns3:atemp>16.0</ns3:atemp>
          </ns3:TrackPointExtension>
        </extensions>
      </trkpt>
      <trkpt lat="46.77220799960196018218994140625" lon="6.851691864430904388427734375">
        <ele>509</ele>
        <time>2013-09-01T14:48:05.000Z</time>
        <extensions>
          <ns3:TrackPointExtension>
            <ns3:atemp>16.0</ns3:atemp>
          </ns3:TrackPointExtension>
        </extensions>
      </trkpt>
      <trkpt lat="46.772213280200958251953125" lon="6.85173385776579380035400390625">
        <ele>509.399993896484375</ele>
        <time>2013-09-01T14:48:06.000Z</time>
        <extensions>
          <ns3:TrackPointExtension>
            <ns3:atemp>16.0</ns3:atemp>
          </ns3:TrackPointExtension>
        </extensions>
      </trkpt>
      <trkpt lat="46.77221017889678478240966796875" lon="6.85177727602422237396240234375">
        <ele>509.600006103515625</ele>
        <time>2013-09-01T14:48:07.000Z</time>
        <extensions>
          <ns3:TrackPointExtension>
            <ns3:atemp>16.0</ns3:atemp>
          </ns3:TrackPointExtension>
        </extensions>
      </trkpt>
      <trkpt lat="46.77220263518393039703369140625" lon="6.85182304121553897857666015625">
        <ele>510</ele>
        <time>2013-09-01T14:48:08.000Z</time>
        <extensions>
          <ns3:TrackPointExtension>
            <ns3:atemp>16.0</ns3:atemp>
          </ns3:TrackPointExtension>
        </extensions>
      </trkpt>
      <trkpt lat="46.77219810895621776580810546875" lon="6.851876936852931976318359375">
        <ele>510.20001220703125</ele>
        <time>2013-09-01T14:48:09.000Z</time>
        <extensions>
          <ns3:TrackPointExtension>
            <ns3:atemp>16.0</ns3:atemp>
          </ns3:TrackPointExtension>
        </extensions>
      </trkpt>
      <trkpt lat="46.77219542674720287322998046875" lon="6.8519314192235469818115234375">
        <ele>510.600006103515625</ele>
        <time>2013-09-01T14:48:10.000Z</time>
        <extensions>
          <ns3:TrackPointExtension>
            <ns3:atemp>16.0</ns3:atemp>
          </ns3:TrackPointExtension>
        </extensions>
      </trkpt>
      <trkpt lat="46.772192828357219696044921875" lon="6.85198699124157428741455078125">
        <ele>510.79998779296875</ele>
        <time>2013-09-01T14:48:11.000Z</time>
        <extensions>
          <ns3:TrackPointExtension>
            <ns3:atemp>16.0</ns3:atemp>
          </ns3:TrackPointExtension>
        </extensions>
      </trkpt>
      <trkpt lat="46.77219090051949024200439453125" lon="6.85204532928764820098876953125">
        <ele>511.20001220703125</ele>
        <time>2013-09-01T14:48:12.000Z</time>
        <extensions>
          <ns3:TrackPointExtension>
            <ns3:atemp>16.0</ns3:atemp>
          </ns3:TrackPointExtension>
        </extensions>
      </trkpt>
      <trkpt lat="46.77219123579561710357666015625" lon="6.8521057628095149993896484375">
        <ele>511.600006103515625</ele>
        <time>2013-09-01T14:48:13.000Z</time>
        <extensions>
          <ns3:TrackPointExtension>
            <ns3:atemp>16.0</ns3:atemp>
          </ns3:TrackPointExtension>
        </extensions>
      </trkpt>
      <trkpt lat="46.77219291217625141143798828125" lon="6.85217164456844329833984375">
        <ele>511.79998779296875</ele>
        <time>2013-09-01T14:48:14.000Z</time>
        <extensions>
          <ns3:TrackPointExtension>
            <ns3:atemp>16.0</ns3:atemp>
          </ns3:TrackPointExtension>
        </extensions>
      </trkpt>
      <trkpt lat="46.77219651639461517333984375" lon="6.852244399487972259521484375">
        <ele>511.79998779296875</ele>
        <time>2013-09-01T14:48:15.000Z</time>
        <extensions>
          <ns3:TrackPointExtension>
            <ns3:atemp>16.0</ns3:atemp>
          </ns3:TrackPointExtension>
        </extensions>
      </trkpt>
      <trkpt lat="46.77220079116523265838623046875" lon="6.85232511721551418304443359375">
        <ele>512</ele>
        <time>2013-09-01T14:48:16.000Z</time>
        <extensions>
          <ns3:TrackPointExtension>
            <ns3:atemp>16.0</ns3:atemp>
          </ns3:TrackPointExtension>
        </extensions>
      </trkpt>
      <trkpt lat="46.772204227745532989501953125" lon="6.852408349514007568359375">
        <ele>511.79998779296875</ele>
        <time>2013-09-01T14:48:17.000Z</time>
        <extensions>
          <ns3:TrackPointExtension>
            <ns3:atemp>16.0</ns3:atemp>
          </ns3:TrackPointExtension>
        </extensions>
      </trkpt>
      <trkpt lat="46.77220917306840419769287109375" lon="6.85250021517276763916015625">
        <ele>510.79998779296875</ele>
        <time>2013-09-01T14:48:18.000Z</time>
        <extensions>
          <ns3:TrackPointExtension>
            <ns3:atemp>16.0</ns3:atemp>
          </ns3:TrackPointExtension>
        </extensions>
      </trkpt>
      <trkpt lat="46.7722154594957828521728515625" lon="6.85260842554271221160888671875">
        <ele>510.399993896484375</ele>
        <time>2013-09-01T14:48:19.000Z</time>
        <extensions>
          <ns3:TrackPointExtension>
            <ns3:atemp>16.0</ns3:atemp>
          </ns3:TrackPointExtension>
        </extensions>
      </trkpt>
      <trkpt lat="46.77222040481865406036376953125" lon="6.8527166359126567840576171875">
        <ele>510.20001220703125</ele>
        <time>2013-09-01T14:48:20.000Z</time>
        <extensions>
          <ns3:TrackPointExtension>
            <ns3:atemp>16.0</ns3:atemp>
          </ns3:TrackPointExtension>
        </extensions>
      </trkpt>
      <trkpt lat="46.772224009037017822265625" lon="6.85283004306256771087646484375">
        <ele>510.399993896484375</ele>
        <time>2013-09-01T14:48:21.000Z</time>
        <extensions>
          <ns3:TrackPointExtension>
            <ns3:atemp>16.0</ns3:atemp>
          </ns3:TrackPointExtension>
        </extensions>
      </trkpt>
      <trkpt lat="46.7722265236079692840576171875" lon="6.8529473058879375457763671875">
        <ele>510.600006103515625</ele>
        <time>2013-09-01T14:48:22.000Z</time>
        <extensions>
          <ns3:TrackPointExtension>
            <ns3:atemp>16.0</ns3:atemp>
          </ns3:TrackPointExtension>
        </extensions>
      </trkpt>
      <trkpt lat="46.77222677506506443023681640625" lon="6.8530695140361785888671875">
        <ele>510.20001220703125</ele>
        <time>2013-09-01T14:48:23.000Z</time>
        <extensions>
          <ns3:TrackPointExtension>
            <ns3:atemp>16.0</ns3:atemp>
          </ns3:TrackPointExtension>
        </extensions>
      </trkpt>
      <trkpt lat="46.77222694270312786102294921875" lon="6.85319532640278339385986328125">
        <ele>509.79998779296875</ele>
        <time>2013-09-01T14:48:24.000Z</time>
        <extensions>
          <ns3:TrackPointExtension>
            <ns3:atemp>16.0</ns3:atemp>
          </ns3:TrackPointExtension>
        </extensions>
      </trkpt>
      <trkpt lat="46.77222560159862041473388671875" lon="6.85332440771162509918212890625">
        <ele>509.399993896484375</ele>
        <time>2013-09-01T14:48:25.000Z</time>
        <extensions>
          <ns3:TrackPointExtension>
            <ns3:atemp>16.0</ns3:atemp>
          </ns3:TrackPointExtension>
        </extensions>
      </trkpt>
      <trkpt lat="46.77222199738025665283203125" lon="6.85345767997205257415771484375">
        <ele>508.79998779296875</ele>
        <time>2013-09-01T14:48:26.000Z</time>
        <extensions>
          <ns3:TrackPointExtension>
            <ns3:atemp>16.0</ns3:atemp>
          </ns3:TrackPointExtension>
        </extensions>
      </trkpt>
      <trkpt lat="46.7722141183912754058837890625" lon="6.8535920418798923492431640625">
        <ele>508.79998779296875</ele>
        <time>2013-09-01T14:48:27.000Z</time>
        <extensions>
          <ns3:TrackPointExtension>
            <ns3:atemp>16.0</ns3:atemp>
          </ns3:TrackPointExtension>
        </extensions>
      </trkpt>
      <trkpt lat="46.77220179699361324310302734375" lon="6.8537271581590175628662109375">
        <ele>508</ele>
        <time>2013-09-01T14:48:28.000Z</time>
        <extensions>
          <ns3:TrackPointExtension>
            <ns3:atemp>16.0</ns3:atemp>
          </ns3:TrackPointExtension>
        </extensions>
      </trkpt>
      <trkpt lat="46.77218335680663585662841796875" lon="6.85386403463780879974365234375">
        <ele>507.600006103515625</ele>
        <time>2013-09-01T14:48:29.000Z</time>
        <extensions>
          <ns3:TrackPointExtension>
            <ns3:atemp>16.0</ns3:atemp>
          </ns3:TrackPointExtension>
        </extensions>
      </trkpt>
      <trkpt lat="46.7721611447632312774658203125" lon="6.8540024198591709136962890625">
        <ele>507.20001220703125</ele>
        <time>2013-09-01T14:48:30.000Z</time>
        <extensions>
          <ns3:TrackPointExtension>
            <ns3:atemp>16.0</ns3:atemp>
          </ns3:TrackPointExtension>
        </extensions>
      </trkpt>
      <trkpt lat="46.7721368372440338134765625" lon="6.85413829050958156585693359375">
        <ele>507</ele>
        <time>2013-09-01T14:48:31.000Z</time>
        <extensions>
          <ns3:TrackPointExtension>
            <ns3:atemp>16.0</ns3:atemp>
          </ns3:TrackPointExtension>
        </extensions>
      </trkpt>
      <trkpt lat="46.7721101827919483184814453125" lon="6.8542749993503093719482421875">
        <ele>506.79998779296875</ele>
        <time>2013-09-01T14:48:32.000Z</time>
        <extensions>
          <ns3:TrackPointExtension>
            <ns3:atemp>16.0</ns3:atemp>
          </ns3:TrackPointExtension>
        </extensions>
      </trkpt>
      <trkpt lat="46.77208126522600650787353515625" lon="6.85441128909587860107421875">
        <ele>506</ele>
        <time>2013-09-01T14:48:33.000Z</time>
        <extensions>
          <ns3:TrackPointExtension>
            <ns3:atemp>16.0</ns3:atemp>
          </ns3:TrackPointExtension>
        </extensions>
      </trkpt>
      <trkpt lat="46.772047989070415496826171875" lon="6.85454498045146465301513671875">
        <ele>505</ele>
        <time>2013-09-01T14:48:34.000Z</time>
        <extensions>
          <ns3:TrackPointExtension>
            <ns3:atemp>16.0</ns3:atemp>
          </ns3:TrackPointExtension>
        </extensions>
      </trkpt>
      <trkpt lat="46.7720132879912853240966796875" lon="6.8546810187399387359619140625">
        <ele>504</ele>
        <time>2013-09-01T14:48:35.000Z</time>
        <extensions>
          <ns3:TrackPointExtension>
            <ns3:atemp>16.0</ns3:atemp>
          </ns3:TrackPointExtension>
        </extensions>
      </trkpt>
      <trkpt lat="46.77197850309312343597412109375" lon="6.85482175089418888092041015625">
        <ele>503.600006103515625</ele>
        <time>2013-09-01T14:48:36.000Z</time>
        <extensions>
          <ns3:TrackPointExtension>
            <ns3:atemp>16.0</ns3:atemp>
          </ns3:TrackPointExtension>
        </extensions>
      </trkpt>
      <trkpt lat="46.77194036543369293212890625" lon="6.85496742837131023406982421875">
        <ele>503</ele>
        <time>2013-09-01T14:48:37.000Z</time>
        <extensions>
          <ns3:TrackPointExtension>
            <ns3:atemp>17.0</ns3:atemp>
          </ns3:TrackPointExtension>
        </extensions>
      </trkpt>
      <trkpt lat="46.77189736627042293548583984375" lon="6.8551175482571125030517578125">
        <ele>502.399993896484375</ele>
        <time>2013-09-01T14:48:38.000Z</time>
        <extensions>
          <ns3:TrackPointExtension>
            <ns3:atemp>17.0</ns3:atemp>
          </ns3:TrackPointExtension>
        </extensions>
      </trkpt>
      <trkpt lat="46.7718476615846157073974609375" lon="6.8552697636187076568603515625">
        <ele>501.600006103515625</ele>
        <time>2013-09-01T14:48:39.000Z</time>
        <extensions>
          <ns3:TrackPointExtension>
            <ns3:atemp>17.0</ns3:atemp>
          </ns3:TrackPointExtension>
        </extensions>
      </trkpt>
      <trkpt lat="46.77178840152919292449951171875" lon="6.8554216437041759490966796875">
        <ele>500.79998779296875</ele>
        <time>2013-09-01T14:48:40.000Z</time>
        <extensions>
          <ns3:TrackPointExtension>
            <ns3:atemp>17.0</ns3:atemp>
          </ns3:TrackPointExtension>
        </extensions>
      </trkpt>
      <trkpt lat="46.7717179097235202789306640625" lon="6.85557612217962741851806640625">
        <ele>499.600006103515625</ele>
        <time>2013-09-01T14:48:41.000Z</time>
        <extensions>
          <ns3:TrackPointExtension>
            <ns3:atemp>17.0</ns3:atemp>
          </ns3:TrackPointExtension>
        </extensions>
      </trkpt>
      <trkpt lat="46.771649010479450225830078125" lon="6.85573898255825042724609375">
        <ele>499</ele>
        <time>2013-09-01T14:48:42.000Z</time>
        <extensions>
          <ns3:TrackPointExtension>
            <ns3:atemp>17.0</ns3:atemp>
          </ns3:TrackPointExtension>
        </extensions>
      </trkpt>
      <trkpt lat="46.77158472128212451934814453125" lon="6.8559086322784423828125">
        <ele>497.79998779296875</ele>
        <time>2013-09-01T14:48:43.000Z</time>
        <extensions>
          <ns3:TrackPointExtension>
            <ns3:atemp>17.0</ns3:atemp>
          </ns3:TrackPointExtension>
        </extensions>
      </trkpt>
      <trkpt lat="46.77153124473989009857177734375" lon="6.85608507134020328521728515625">
        <ele>496.600006103515625</ele>
        <time>2013-09-01T14:48:44.000Z</time>
        <extensions>
          <ns3:TrackPointExtension>
            <ns3:atemp>17.0</ns3:atemp>
          </ns3:TrackPointExtension>
        </extensions>
      </trkpt>
      <trkpt lat="46.7714899219572544097900390625" lon="6.85626477934420108795166015625">
        <ele>495.600006103515625</ele>
        <time>2013-09-01T14:48:45.000Z</time>
        <extensions>
          <ns3:TrackPointExtension>
            <ns3:atemp>17.0</ns3:atemp>
          </ns3:TrackPointExtension>
        </extensions>
      </trkpt>
      <trkpt lat="46.7714580707252025604248046875" lon="6.85644306242465972900390625">
        <ele>494.20001220703125</ele>
        <time>2013-09-01T14:48:46.000Z</time>
        <extensions>
          <ns3:TrackPointExtension>
            <ns3:atemp>17.0</ns3:atemp>
          </ns3:TrackPointExtension>
        </extensions>
      </trkpt>
      <trkpt lat="46.77142940461635589599609375" lon="6.8566167354583740234375">
        <ele>493.600006103515625</ele>
        <time>2013-09-01T14:48:47.000Z</time>
        <extensions>
          <ns3:TrackPointExtension>
            <ns3:atemp>17.0</ns3:atemp>
          </ns3:TrackPointExtension>
        </extensions>
      </trkpt>
      <trkpt lat="46.77140233106911182403564453125" lon="6.85678680427372455596923828125">
        <ele>493</ele>
        <time>2013-09-01T14:48:48.000Z</time>
        <extensions>
          <ns3:TrackPointExtension>
            <ns3:atemp>17.0</ns3:atemp>
          </ns3:TrackPointExtension>
        </extensions>
      </trkpt>
      <trkpt lat="46.771376430988311767578125" lon="6.85695008374750614166259765625">
        <ele>492.600006103515625</ele>
        <time>2013-09-01T14:48:49.000Z</time>
        <extensions>
          <ns3:TrackPointExtension>
            <ns3:atemp>17.0</ns3:atemp>
          </ns3:TrackPointExtension>
        </extensions>
      </trkpt>
      <trkpt lat="46.77134097553789615631103515625" lon="6.85710154473781585693359375">
        <ele>491.79998779296875</ele>
        <time>2013-09-01T14:48:50.000Z</time>
        <extensions>
          <ns3:TrackPointExtension>
            <ns3:atemp>17.0</ns3:atemp>
          </ns3:TrackPointExtension>
        </extensions>
      </trkpt>
      <trkpt lat="46.77129521034657955169677734375" lon="6.8572448752820491790771484375">
        <ele>490.79998779296875</ele>
        <time>2013-09-01T14:48:51.000Z</time>
        <extensions>
          <ns3:TrackPointExtension>
            <ns3:atemp>17.0</ns3:atemp>
          </ns3:TrackPointExtension>
        </extensions>
      </trkpt>
      <trkpt lat="46.77124374546110630035400390625" lon="6.8573866970837116241455078125">
        <ele>489.600006103515625</ele>
        <time>2013-09-01T14:48:52.000Z</time>
        <extensions>
          <ns3:TrackPointExtension>
            <ns3:atemp>17.0</ns3:atemp>
          </ns3:TrackPointExtension>
        </extensions>
      </trkpt>
      <trkpt lat="46.771195046603679656982421875" lon="6.85753346420824527740478515625">
        <ele>488.399993896484375</ele>
        <time>2013-09-01T14:48:53.000Z</time>
        <extensions>
          <ns3:TrackPointExtension>
            <ns3:atemp>17.0</ns3:atemp>
          </ns3:TrackPointExtension>
        </extensions>
      </trkpt>
      <trkpt lat="46.7711486108601093292236328125" lon="6.8576881103217601776123046875">
        <ele>487.399993896484375</ele>
        <time>2013-09-01T14:48:54.000Z</time>
        <extensions>
          <ns3:TrackPointExtension>
            <ns3:atemp>17.0</ns3:atemp>
          </ns3:TrackPointExtension>
        </extensions>
      </trkpt>
      <trkpt lat="46.7711023427546024322509765625" lon="6.8578450195491313934326171875">
        <ele>486.600006103515625</ele>
        <time>2013-09-01T14:48:55.000Z</time>
        <extensions>
          <ns3:TrackPointExtension>
            <ns3:atemp>17.0</ns3:atemp>
          </ns3:TrackPointExtension>
        </extensions>
      </trkpt>
      <trkpt lat="46.771053560078144073486328125" lon="6.8580020964145660400390625">
        <ele>486</ele>
        <time>2013-09-01T14:48:56.000Z</time>
        <extensions>
          <ns3:TrackPointExtension>
            <ns3:atemp>17.0</ns3:atemp>
          </ns3:TrackPointExtension>
        </extensions>
      </trkpt>
      <trkpt lat="46.771002598106861114501953125" lon="6.8581576645374298095703125">
        <ele>485.399993896484375</ele>
        <time>2013-09-01T14:48:57.000Z</time>
        <extensions>
          <ns3:TrackPointExtension>
            <ns3:atemp>17.0</ns3:atemp>
          </ns3:TrackPointExtension>
        </extensions>
      </trkpt>
      <trkpt lat="46.77095021121203899383544921875" lon="6.85831264592707157135009765625">
        <ele>485</ele>
        <time>2013-09-01T14:48:58.000Z</time>
        <extensions>
          <ns3:TrackPointExtension>
            <ns3:atemp>17.0</ns3:atemp>
          </ns3:TrackPointExtension>
        </extensions>
      </trkpt>
      <trkpt lat="46.7708995006978511810302734375" lon="6.85846745967864990234375">
        <ele>484</ele>
        <time>2013-09-01T14:48:59.000Z</time>
        <extensions>
          <ns3:TrackPointExtension>
            <ns3:atemp>17.0</ns3:atemp>
          </ns3:TrackPointExtension>
        </extensions>
      </trkpt>
      <trkpt lat="46.770850382745265960693359375" lon="6.85862177051603794097900390625">
        <ele>483.20001220703125</ele>
        <time>2013-09-01T14:49:00.000Z</time>
        <extensions>
          <ns3:TrackPointExtension>
            <ns3:atemp>17.0</ns3:atemp>
          </ns3:TrackPointExtension>
        </extensions>
      </trkpt>
      <trkpt lat="46.77080268971621990203857421875" lon="6.85877633281052112579345703125">
        <ele>481.79998779296875</ele>
        <time>2013-09-01T14:49:01.000Z</time>
        <extensions>
          <ns3:TrackPointExtension>
            <ns3:atemp>17.0</ns3:atemp>
          </ns3:TrackPointExtension>
        </extensions>
      </trkpt>
      <trkpt lat="46.7707554996013641357421875" lon="6.85892938636243343353271484375">
        <ele>481</ele>
        <time>2013-09-01T14:49:02.000Z</time>
        <extensions>
          <ns3:TrackPointExtension>
            <ns3:atemp>17.0</ns3:atemp>
          </ns3:TrackPointExtension>
        </extensions>
      </trkpt>
      <trkpt lat="46.770709566771984100341796875" lon="6.85908277519047260284423828125">
        <ele>480.399993896484375</ele>
        <time>2013-09-01T14:49:03.000Z</time>
        <extensions>
          <ns3:TrackPointExtension>
            <ns3:atemp>17.0</ns3:atemp>
          </ns3:TrackPointExtension>
        </extensions>
      </trkpt>
      <trkpt lat="46.77066539414227008819580078125" lon="6.85923767276108264923095703125">
        <ele>479.79998779296875</ele>
        <time>2013-09-01T14:49:04.000Z</time>
        <extensions>
          <ns3:TrackPointExtension>
            <ns3:atemp>17.0</ns3:atemp>
          </ns3:TrackPointExtension>
        </extensions>
      </trkpt>
      <trkpt lat="46.770620383322238922119140625" lon="6.85938955284655094146728515625">
        <ele>478</ele>
        <time>2013-09-01T14:49:05.000Z</time>
        <extensions>
          <ns3:TrackPointExtension>
            <ns3:atemp>17.0</ns3:atemp>
          </ns3:TrackPointExtension>
        </extensions>
      </trkpt>
      <trkpt lat="46.77057235501706600189208984375" lon="6.85953430831432342529296875">
        <ele>477.600006103515625</ele>
        <time>2013-09-01T14:49:06.000Z</time>
        <extensions>
          <ns3:TrackPointExtension>
            <ns3:atemp>17.0</ns3:atemp>
          </ns3:TrackPointExtension>
        </extensions>
      </trkpt>
      <trkpt lat="46.77051770500838756561279296875" lon="6.85966900549829006195068359375">
        <ele>477.399993896484375</ele>
        <time>2013-09-01T14:49:07.000Z</time>
        <extensions>
          <ns3:TrackPointExtension>
            <ns3:atemp>17.0</ns3:atemp>
          </ns3:TrackPointExtension>
        </extensions>
      </trkpt>
      <trkpt lat="46.770456098020076751708984375" lon="6.8597929738461971282958984375">
        <ele>477.20001220703125</ele>
        <time>2013-09-01T14:49:08.000Z</time>
        <extensions>
          <ns3:TrackPointExtension>
            <ns3:atemp>17.0</ns3:atemp>
          </ns3:TrackPointExtension>
        </extensions>
      </trkpt>
      <trkpt lat="46.77039004862308502197265625" lon="6.8599086441099643707275390625">
        <ele>476.79998779296875</ele>
        <time>2013-09-01T14:49:09.000Z</time>
        <extensions>
          <ns3:TrackPointExtension>
            <ns3:atemp>17.0</ns3:atemp>
          </ns3:TrackPointExtension>
        </extensions>
      </trkpt>
      <trkpt lat="46.7703201435506343841552734375" lon="6.86001978814601898193359375">
        <ele>476.20001220703125</ele>
        <time>2013-09-01T14:49:10.000Z</time>
        <extensions>
          <ns3:TrackPointExtension>
            <ns3:atemp>17.0</ns3:atemp>
          </ns3:TrackPointExtension>
        </extensions>
      </trkpt>
      <trkpt lat="46.77024981938302516937255859375" lon="6.86013051308691501617431640625">
        <ele>475.600006103515625</ele>
        <time>2013-09-01T14:49:11.000Z</time>
        <extensions>
          <ns3:TrackPointExtension>
            <ns3:atemp>17.0</ns3:atemp>
          </ns3:TrackPointExtension>
        </extensions>
      </trkpt>
      <trkpt lat="46.77018460817635059356689453125" lon="6.8602499552071094512939453125">
        <ele>475.20001220703125</ele>
        <time>2013-09-01T14:49:12.000Z</time>
        <extensions>
          <ns3:TrackPointExtension>
            <ns3:atemp>17.0</ns3:atemp>
          </ns3:TrackPointExtension>
        </extensions>
      </trkpt>
      <trkpt lat="46.77012694068253040313720703125" lon="6.86038733460009098052978515625">
        <ele>475</ele>
        <time>2013-09-01T14:49:13.000Z</time>
        <extensions>
          <ns3:TrackPointExtension>
            <ns3:atemp>17.0</ns3:atemp>
          </ns3:TrackPointExtension>
        </extensions>
      </trkpt>
      <trkpt lat="46.770073883235454559326171875" lon="6.86054089106619358062744140625">
        <ele>474.20001220703125</ele>
        <time>2013-09-01T14:49:14.000Z</time>
        <extensions>
          <ns3:TrackPointExtension>
            <ns3:atemp>17.0</ns3:atemp>
          </ns3:TrackPointExtension>
        </extensions>
      </trkpt>
      <trkpt lat="46.77001898176968097686767578125" lon="6.86070618219673633575439453125">
        <ele>473</ele>
        <time>2013-09-01T14:49:15.000Z</time>
        <extensions>
          <ns3:TrackPointExtension>
            <ns3:atemp>17.0</ns3:atemp>
          </ns3:TrackPointExtension>
        </extensions>
      </trkpt>
      <trkpt lat="46.7699620686471462249755859375" lon="6.8608816154301166534423828125">
        <ele>472</ele>
        <time>2013-09-01T14:49:16.000Z</time>
        <extensions>
          <ns3:TrackPointExtension>
            <ns3:atemp>17.0</ns3:atemp>
          </ns3:TrackPointExtension>
        </extensions>
      </trkpt>
      <trkpt lat="46.76991085521876811981201171875" lon="6.86106794513761997222900390625">
        <ele>471</ele>
        <time>2013-09-01T14:49:17.000Z</time>
        <extensions>
          <ns3:TrackPointExtension>
            <ns3:atemp>17.0</ns3:atemp>
          </ns3:TrackPointExtension>
        </extensions>
      </trkpt>
      <trkpt lat="46.7698658443987369537353515625" lon="6.86126106418669223785400390625">
        <ele>470.399993896484375</ele>
        <time>2013-09-01T14:49:18.000Z</time>
        <extensions>
          <ns3:TrackPointExtension>
            <ns3:atemp>17.0</ns3:atemp>
          </ns3:TrackPointExtension>
        </extensions>
      </trkpt>
      <trkpt lat="46.7698219232261180877685546875" lon="6.8614556081593036651611328125">
        <ele>469.20001220703125</ele>
        <time>2013-09-01T14:49:19.000Z</time>
        <extensions>
          <ns3:TrackPointExtension>
            <ns3:atemp>17.0</ns3:atemp>
          </ns3:TrackPointExtension>
        </extensions>
      </trkpt>
      <trkpt lat="46.769777834415435791015625" lon="6.86164830811321735382080078125">
        <ele>468</ele>
        <time>2013-09-01T14:49:20.000Z</time>
        <extensions>
          <ns3:TrackPointExtension>
            <ns3:atemp>17.0</ns3:atemp>
          </ns3:TrackPointExtension>
        </extensions>
      </trkpt>
      <trkpt lat="46.76973651163280010223388671875" lon="6.86184100806713104248046875">
        <ele>466.79998779296875</ele>
        <time>2013-09-01T14:49:21.000Z</time>
        <extensions>
          <ns3:TrackPointExtension>
            <ns3:atemp>17.0</ns3:atemp>
          </ns3:TrackPointExtension>
        </extensions>
      </trkpt>
      <trkpt lat="46.76969711668789386749267578125" lon="6.862027756869792938232421875">
        <ele>466.20001220703125</ele>
        <time>2013-09-01T14:49:22.000Z</time>
        <extensions>
          <ns3:TrackPointExtension>
            <ns3:atemp>17.0</ns3:atemp>
          </ns3:TrackPointExtension>
        </extensions>
      </trkpt>
      <trkpt lat="46.76965705119073390960693359375" lon="6.86220386065542697906494140625">
        <ele>465</ele>
        <time>2013-09-01T14:49:23.000Z</time>
        <extensions>
          <ns3:TrackPointExtension>
            <ns3:atemp>17.0</ns3:atemp>
          </ns3:TrackPointExtension>
        </extensions>
      </trkpt>
      <trkpt lat="46.769615225493907928466796875" lon="6.86235993169248104095458984375">
        <ele>463.79998779296875</ele>
        <time>2013-09-01T14:49:24.000Z</time>
        <extensions>
          <ns3:TrackPointExtension>
            <ns3:atemp>17.0</ns3:atemp>
          </ns3:TrackPointExtension>
        </extensions>
      </trkpt>
      <trkpt lat="46.76956526935100555419921875" lon="6.862497143447399139404296875">
        <ele>462.20001220703125</ele>
        <time>2013-09-01T14:49:25.000Z</time>
        <extensions>
          <ns3:TrackPointExtension>
            <ns3:atemp>17.0</ns3:atemp>
          </ns3:TrackPointExtension>
        </extensions>
      </trkpt>
      <trkpt lat="46.76949377171695232391357421875" lon="6.86260518617928028106689453125">
        <ele>460.79998779296875</ele>
        <time>2013-09-01T14:49:26.000Z</time>
        <extensions>
          <ns3:TrackPointExtension>
            <ns3:atemp>17.0</ns3:atemp>
          </ns3:TrackPointExtension>
        </extensions>
      </trkpt>
      <trkpt lat="46.76940165460109710693359375" lon="6.862676851451396942138671875">
        <ele>459.20001220703125</ele>
        <time>2013-09-01T14:49:27.000Z</time>
        <extensions>
          <ns3:TrackPointExtension>
            <ns3:atemp>17.0</ns3:atemp>
          </ns3:TrackPointExtension>
        </extensions>
      </trkpt>
      <trkpt lat="46.76930350251495838165283203125" lon="6.86273309402167797088623046875">
        <ele>457.600006103515625</ele>
        <time>2013-09-01T14:49:28.000Z</time>
        <extensions>
          <ns3:TrackPointExtension>
            <ns3:atemp>17.0</ns3:atemp>
          </ns3:TrackPointExtension>
        </extensions>
      </trkpt>
      <trkpt lat="46.76920183002948760986328125" lon="6.86278807930648326873779296875">
        <ele>455.79998779296875</ele>
        <time>2013-09-01T14:49:29.000Z</time>
        <extensions>
          <ns3:TrackPointExtension>
            <ns3:atemp>17.0</ns3:atemp>
          </ns3:TrackPointExtension>
        </extensions>
      </trkpt>
      <trkpt lat="46.76910133101046085357666015625" lon="6.86284557916224002838134765625">
        <ele>455.600006103515625</ele>
        <time>2013-09-01T14:49:30.000Z</time>
        <extensions>
          <ns3:TrackPointExtension>
            <ns3:atemp>17.0</ns3:atemp>
          </ns3:TrackPointExtension>
        </extensions>
      </trkpt>
      <trkpt lat="46.7690025083720684051513671875" lon="6.86290777288377285003662109375">
        <ele>455.20001220703125</ele>
        <time>2013-09-01T14:49:31.000Z</time>
        <extensions>
          <ns3:TrackPointExtension>
            <ns3:atemp>17.0</ns3:atemp>
          </ns3:TrackPointExtension>
        </extensions>
      </trkpt>
      <trkpt lat="46.76890603266656398773193359375" lon="6.8629722297191619873046875">
        <ele>455</ele>
        <time>2013-09-01T14:49:32.000Z</time>
        <extensions>
          <ns3:TrackPointExtension>
            <ns3:atemp>17.0</ns3:atemp>
          </ns3:TrackPointExtension>
        </extensions>
      </trkpt>
      <trkpt lat="46.76881098188459873199462890625" lon="6.86303433962166309356689453125">
        <ele>454.399993896484375</ele>
        <time>2013-09-01T14:49:33.000Z</time>
        <extensions>
          <ns3:TrackPointExtension>
            <ns3:atemp>17.0</ns3:atemp>
          </ns3:TrackPointExtension>
        </extensions>
      </trkpt>
      <trkpt lat="46.7687168531119823455810546875" lon="6.86309552751481533050537109375">
        <ele>454</ele>
        <time>2013-09-01T14:49:34.000Z</time>
        <extensions>
          <ns3:TrackPointExtension>
            <ns3:atemp>17.0</ns3:atemp>
          </ns3:TrackPointExtension>
        </extensions>
      </trkpt>
      <trkpt lat="46.76862725056707859039306640625" lon="6.86316442675888538360595703125">
        <ele>453.600006103515625</ele>
        <time>2013-09-01T14:49:35.000Z</time>
        <extensions>
          <ns3:TrackPointExtension>
            <ns3:atemp>17.0</ns3:atemp>
          </ns3:TrackPointExtension>
        </extensions>
      </trkpt>
      <trkpt lat="46.76854158751666545867919921875" lon="6.86324120499193668365478515625">
        <ele>453.399993896484375</ele>
        <time>2013-09-01T14:49:36.000Z</time>
        <extensions>
          <ns3:TrackPointExtension>
            <ns3:atemp>17.0</ns3:atemp>
          </ns3:TrackPointExtension>
        </extensions>
      </trkpt>
      <trkpt lat="46.76845843903720378875732421875" lon="6.8633209168910980224609375">
        <ele>453</ele>
        <time>2013-09-01T14:49:37.000Z</time>
        <extensions>
          <ns3:TrackPointExtension>
            <ns3:atemp>17.0</ns3:atemp>
          </ns3:TrackPointExtension>
        </extensions>
      </trkpt>
      <trkpt lat="46.76837545819580554962158203125" lon="6.86340339481830596923828125">
        <ele>452.399993896484375</ele>
        <time>2013-09-01T14:49:38.000Z</time>
        <extensions>
          <ns3:TrackPointExtension>
            <ns3:atemp>17.0</ns3:atemp>
          </ns3:TrackPointExtension>
        </extensions>
      </trkpt>
      <trkpt lat="46.7682903818786144256591796875" lon="6.8634857051074504852294921875">
        <ele>451.600006103515625</ele>
        <time>2013-09-01T14:49:39.000Z</time>
        <extensions>
          <ns3:TrackPointExtension>
            <ns3:atemp>17.0</ns3:atemp>
          </ns3:TrackPointExtension>
        </extensions>
      </trkpt>
      <trkpt lat="46.7682047188282012939453125" lon="6.86356566846370697021484375">
        <ele>451.20001220703125</ele>
        <time>2013-09-01T14:49:40.000Z</time>
        <extensions>
          <ns3:TrackPointExtension>
            <ns3:atemp>17.0</ns3:atemp>
          </ns3:TrackPointExtension>
        </extensions>
      </trkpt>
      <trkpt lat="46.76812064833939075469970703125" lon="6.8636476434767246246337890625">
        <ele>451</ele>
        <time>2013-09-01T14:49:41.000Z</time>
        <extensions>
          <ns3:TrackPointExtension>
            <ns3:atemp>17.0</ns3:atemp>
          </ns3:TrackPointExtension>
        </extensions>
      </trkpt>
      <trkpt lat="46.7680362425744533538818359375" lon="6.86372986994683742523193359375">
        <ele>450.79998779296875</ele>
        <time>2013-09-01T14:49:42.000Z</time>
        <extensions>
          <ns3:TrackPointExtension>
            <ns3:atemp>17.0</ns3:atemp>
          </ns3:TrackPointExtension>
        </extensions>
      </trkpt>
      <trkpt lat="46.76795192062854766845703125" lon="6.86381000094115734100341796875">
        <ele>450.79998779296875</ele>
        <time>2013-09-01T14:49:43.000Z</time>
        <extensions>
          <ns3:TrackPointExtension>
            <ns3:atemp>17.0</ns3:atemp>
          </ns3:TrackPointExtension>
        </extensions>
      </trkpt>
      <trkpt lat="46.7678679339587688446044921875" lon="6.86388728208839893341064453125">
        <ele>450.600006103515625</ele>
        <time>2013-09-01T14:49:44.000Z</time>
        <extensions>
          <ns3:TrackPointExtension>
            <ns3:atemp>17.0</ns3:atemp>
          </ns3:TrackPointExtension>
        </extensions>
      </trkpt>
      <trkpt lat="46.7677867971360683441162109375" lon="6.8639631383121013641357421875">
        <ele>450.399993896484375</ele>
        <time>2013-09-01T14:49:45.000Z</time>
        <extensions>
          <ns3:TrackPointExtension>
            <ns3:atemp>17.0</ns3:atemp>
          </ns3:TrackPointExtension>
        </extensions>
      </trkpt>
      <trkpt lat="46.7677106894552707672119140625" lon="6.86404050327837467193603515625">
        <ele>450</ele>
        <time>2013-09-01T14:49:46.000Z</time>
        <extensions>
          <ns3:TrackPointExtension>
            <ns3:atemp>17.0</ns3:atemp>
          </ns3:TrackPointExtension>
        </extensions>
      </trkpt>
      <trkpt lat="46.767641790211200714111328125" lon="6.8641121685504913330078125">
        <ele>449.600006103515625</ele>
        <time>2013-09-01T14:49:47.000Z</time>
        <extensions>
          <ns3:TrackPointExtension>
            <ns3:atemp>17.0</ns3:atemp>
          </ns3:TrackPointExtension>
        </extensions>
      </trkpt>
      <trkpt lat="46.767578423023223876953125" lon="6.86417494900524616241455078125">
        <ele>449.20001220703125</ele>
        <time>2013-09-01T14:49:48.000Z</time>
        <extensions>
          <ns3:TrackPointExtension>
            <ns3:atemp>17.0</ns3:atemp>
          </ns3:TrackPointExtension>
        </extensions>
      </trkpt>
      <trkpt lat="46.767522431910037994384765625" lon="6.864231526851654052734375">
        <ele>448.600006103515625</ele>
        <time>2013-09-01T14:49:49.000Z</time>
        <extensions>
          <ns3:TrackPointExtension>
            <ns3:atemp>17.0</ns3:atemp>
          </ns3:TrackPointExtension>
        </extensions>
      </trkpt>
      <trkpt lat="46.7674692906439304351806640625" lon="6.86426949687302112579345703125">
        <ele>447.79998779296875</ele>
        <time>2013-09-01T14:49:50.000Z</time>
        <extensions>
          <ns3:TrackPointExtension>
            <ns3:atemp>17.0</ns3:atemp>
          </ns3:TrackPointExtension>
        </extensions>
      </trkpt>
      <trkpt lat="46.7674146406352519989013671875" lon="6.8642757833003997802734375">
        <ele>447</ele>
        <time>2013-09-01T14:49:51.000Z</time>
        <extensions>
          <ns3:TrackPointExtension>
            <ns3:atemp>17.0</ns3:atemp>
          </ns3:TrackPointExtension>
        </extensions>
      </trkpt>
      <trkpt lat="46.7673680372536182403564453125" lon="6.86424569226801395416259765625">
        <ele>446.399993896484375</ele>
        <time>2013-09-01T14:49:52.000Z</time>
        <extensions>
          <ns3:TrackPointExtension>
            <ns3:atemp>17.0</ns3:atemp>
          </ns3:TrackPointExtension>
        </extensions>
      </trkpt>
      <trkpt lat="46.7673371918499469757080078125" lon="6.86419003643095493316650390625">
        <ele>445.399993896484375</ele>
        <time>2013-09-01T14:49:53.000Z</time>
        <extensions>
          <ns3:TrackPointExtension>
            <ns3:atemp>17.0</ns3:atemp>
          </ns3:TrackPointExtension>
        </extensions>
      </trkpt>
      <trkpt lat="46.76731497980654239654541015625" lon="6.8641223944723606109619140625">
        <ele>445.20001220703125</ele>
        <time>2013-09-01T14:49:54.000Z</time>
        <extensions>
          <ns3:TrackPointExtension>
            <ns3:atemp>17.0</ns3:atemp>
          </ns3:TrackPointExtension>
        </extensions>
      </trkpt>
      <trkpt lat="46.76729134283959865570068359375" lon="6.8640526570379734039306640625">
        <ele>445.20001220703125</ele>
        <time>2013-09-01T14:49:55.000Z</time>
        <extensions>
          <ns3:TrackPointExtension>
            <ns3:atemp>17.0</ns3:atemp>
          </ns3:TrackPointExtension>
        </extensions>
      </trkpt>
      <trkpt lat="46.76726527512073516845703125" lon="6.86398317106068134307861328125">
        <ele>445.20001220703125</ele>
        <time>2013-09-01T14:49:56.000Z</time>
        <extensions>
          <ns3:TrackPointExtension>
            <ns3:atemp>17.0</ns3:atemp>
          </ns3:TrackPointExtension>
        </extensions>
      </trkpt>
      <trkpt lat="46.76723853684961795806884765625" lon="6.86391326598823070526123046875">
        <ele>445.399993896484375</ele>
        <time>2013-09-01T14:49:57.000Z</time>
        <extensions>
          <ns3:TrackPointExtension>
            <ns3:atemp>17.0</ns3:atemp>
          </ns3:TrackPointExtension>
        </extensions>
      </trkpt>
      <trkpt lat="46.7672114633023738861083984375" lon="6.86384486965835094451904296875">
        <ele>445.79998779296875</ele>
        <time>2013-09-01T14:49:58.000Z</time>
        <extensions>
          <ns3:TrackPointExtension>
            <ns3:atemp>17.0</ns3:atemp>
          </ns3:TrackPointExtension>
        </extensions>
      </trkpt>
      <trkpt lat="46.76718539558351039886474609375" lon="6.86377898789942264556884765625">
        <ele>446</ele>
        <time>2013-09-01T14:49:59.000Z</time>
        <extensions>
          <ns3:TrackPointExtension>
            <ns3:atemp>17.0</ns3:atemp>
          </ns3:TrackPointExtension>
        </extensions>
      </trkpt>
      <trkpt lat="46.76716175861656665802001953125" lon="6.86371444724500179290771484375">
        <ele>446</ele>
        <time>2013-09-01T14:50:00.000Z</time>
        <extensions>
          <ns3:TrackPointExtension>
            <ns3:atemp>17.0</ns3:atemp>
          </ns3:TrackPointExtension>
        </extensions>
      </trkpt>
      <trkpt lat="46.76714055240154266357421875" lon="6.86365275643765926361083984375">
        <ele>446</ele>
        <time>2013-09-01T14:50:01.000Z</time>
        <extensions>
          <ns3:TrackPointExtension>
            <ns3:atemp>17.0</ns3:atemp>
          </ns3:TrackPointExtension>
        </extensions>
      </trkpt>
      <trkpt lat="46.76712336950004100799560546875" lon="6.86359324492514133453369140625">
        <ele>446.20001220703125</ele>
        <time>2013-09-01T14:50:02.000Z</time>
        <extensions>
          <ns3:TrackPointExtension>
            <ns3:atemp>17.0</ns3:atemp>
          </ns3:TrackPointExtension>
        </extensions>
      </trkpt>
      <trkpt lat="46.76710962317883968353271484375" lon="6.8635406903922557830810546875">
        <ele>446.399993896484375</ele>
        <time>2013-09-01T14:50:03.000Z</time>
        <extensions>
          <ns3:TrackPointExtension>
            <ns3:atemp>17.0</ns3:atemp>
          </ns3:TrackPointExtension>
        </extensions>
      </trkpt>
      <trkpt lat="46.7670964635908603668212890625" lon="6.8634925782680511474609375">
        <ele>446.600006103515625</ele>
        <time>2013-09-01T14:50:04.000Z</time>
        <extensions>
          <ns3:TrackPointExtension>
            <ns3:atemp>17.0</ns3:atemp>
          </ns3:TrackPointExtension>
        </extensions>
      </trkpt>
      <trkpt lat="46.76708581857383251190185546875" lon="6.86344505287706851959228515625">
        <ele>446.600006103515625</ele>
        <time>2013-09-01T14:50:05.000Z</time>
        <extensions>
          <ns3:TrackPointExtension>
            <ns3:atemp>17.0</ns3:atemp>
          </ns3:TrackPointExtension>
        </extensions>
      </trkpt>
      <trkpt lat="46.76707081496715545654296875" lon="6.86339668929576873779296875">
        <ele>446.79998779296875</ele>
        <time>2013-09-01T14:50:06.000Z</time>
        <extensions>
          <ns3:TrackPointExtension>
            <ns3:atemp>17.0</ns3:atemp>
          </ns3:TrackPointExtension>
        </extensions>
      </trkpt>
      <trkpt lat="46.76704994402825832366943359375" lon="6.86334698460996150970458984375">
        <ele>446.79998779296875</ele>
        <time>2013-09-01T14:50:07.000Z</time>
        <extensions>
          <ns3:TrackPointExtension>
            <ns3:atemp>17.0</ns3:atemp>
          </ns3:TrackPointExtension>
        </extensions>
      </trkpt>
      <trkpt lat="46.76702949218451976776123046875" lon="6.86329878866672515869140625">
        <ele>446.79998779296875</ele>
        <time>2013-09-01T14:50:08.000Z</time>
        <extensions>
          <ns3:TrackPointExtension>
            <ns3:atemp>17.0</ns3:atemp>
          </ns3:TrackPointExtension>
        </extensions>
      </trkpt>
      <trkpt lat="46.76701021380722522735595703125" lon="6.8632456474006175994873046875">
        <ele>446.79998779296875</ele>
        <time>2013-09-01T14:50:09.000Z</time>
        <extensions>
          <ns3:TrackPointExtension>
            <ns3:atemp>17.0</ns3:atemp>
          </ns3:TrackPointExtension>
        </extensions>
      </trkpt>
      <trkpt lat="46.766992025077342987060546875" lon="6.86318236403167247772216796875">
        <ele>446.79998779296875</ele>
        <time>2013-09-01T14:50:10.000Z</time>
        <extensions>
          <ns3:TrackPointExtension>
            <ns3:atemp>17.0</ns3:atemp>
          </ns3:TrackPointExtension>
        </extensions>
      </trkpt>
      <trkpt lat="46.7669754289090633392333984375" lon="6.86311262659728527069091796875">
        <ele>446.600006103515625</ele>
        <time>2013-09-01T14:50:11.000Z</time>
        <extensions>
          <ns3:TrackPointExtension>
            <ns3:atemp>17.0</ns3:atemp>
          </ns3:TrackPointExtension>
        </extensions>
      </trkpt>
      <trkpt lat="46.76696092821657657623291015625" lon="6.86303869821131229400634765625">
        <ele>446.399993896484375</ele>
        <time>2013-09-01T14:50:12.000Z</time>
        <extensions>
          <ns3:TrackPointExtension>
            <ns3:atemp>17.0</ns3:atemp>
          </ns3:TrackPointExtension>
        </extensions>
      </trkpt>
      <trkpt lat="46.7669472657144069671630859375" lon="6.86295948922634124755859375">
        <ele>446.20001220703125</ele>
        <time>2013-09-01T14:50:13.000Z</time>
        <extensions>
          <ns3:TrackPointExtension>
            <ns3:atemp>17.0</ns3:atemp>
          </ns3:TrackPointExtension>
        </extensions>
      </trkpt>
      <trkpt lat="46.766934692859649658203125" lon="6.862878687679767608642578125">
        <ele>446</ele>
        <time>2013-09-01T14:50:14.000Z</time>
        <extensions>
          <ns3:TrackPointExtension>
            <ns3:atemp>17.0</ns3:atemp>
          </ns3:TrackPointExtension>
        </extensions>
      </trkpt>
      <trkpt lat="46.76692706532776355743408203125" lon="6.862796209752559661865234375">
        <ele>445.79998779296875</ele>
        <time>2013-09-01T14:50:15.000Z</time>
        <extensions>
          <ns3:TrackPointExtension>
            <ns3:atemp>17.0</ns3:atemp>
          </ns3:TrackPointExtension>
        </extensions>
      </trkpt>
      <trkpt lat="46.76692538894712924957275390625" lon="6.8627102114260196685791015625">
        <ele>445.600006103515625</ele>
        <time>2013-09-01T14:50:16.000Z</time>
        <extensions>
          <ns3:TrackPointExtension>
            <ns3:atemp>17.0</ns3:atemp>
          </ns3:TrackPointExtension>
        </extensions>
      </trkpt>
      <trkpt lat="46.76692404784262180328369140625" lon="6.86262153089046478271484375">
        <ele>443.600006103515625</ele>
        <time>2013-09-01T14:50:17.000Z</time>
        <extensions>
          <ns3:TrackPointExtension>
            <ns3:atemp>17.0</ns3:atemp>
          </ns3:TrackPointExtension>
        </extensions>
      </trkpt>
      <trkpt lat="46.76691834814846515655517578125" lon="6.86252974905073642730712890625">
        <ele>441.79998779296875</ele>
        <time>2013-09-01T14:50:18.000Z</time>
        <extensions>
          <ns3:TrackPointExtension>
            <ns3:atemp>17.0</ns3:atemp>
          </ns3:TrackPointExtension>
        </extensions>
      </trkpt>
      <trkpt lat="46.766904853284358978271484375" lon="6.86243352480232715606689453125">
        <ele>440.399993896484375</ele>
        <time>2013-09-01T14:50:19.000Z</time>
        <extensions>
          <ns3:TrackPointExtension>
            <ns3:atemp>17.0</ns3:atemp>
          </ns3:TrackPointExtension>
        </extensions>
      </trkpt>
      <trkpt lat="46.7668795399367809295654296875" lon="6.8623367138206958770751953125">
        <ele>439.20001220703125</ele>
        <time>2013-09-01T14:50:20.000Z</time>
        <extensions>
          <ns3:TrackPointExtension>
            <ns3:atemp>17.0</ns3:atemp>
          </ns3:TrackPointExtension>
        </extensions>
      </trkpt>
      <trkpt lat="46.7668443359434604644775390625" lon="6.8622401542961597442626953125">
        <ele>437.79998779296875</ele>
        <time>2013-09-01T14:50:21.000Z</time>
        <extensions>
          <ns3:TrackPointExtension>
            <ns3:atemp>17.0</ns3:atemp>
          </ns3:TrackPointExtension>
        </extensions>
      </trkpt>
      <trkpt lat="46.7668051086366176605224609375" lon="6.8621459417045116424560546875">
        <ele>436.600006103515625</ele>
        <time>2013-09-01T14:50:22.000Z</time>
        <extensions>
          <ns3:TrackPointExtension>
            <ns3:atemp>17.0</ns3:atemp>
          </ns3:TrackPointExtension>
        </extensions>
      </trkpt>
      <trkpt lat="46.76676370203495025634765625" lon="6.86204678378999233245849609375">
        <ele>435.399993896484375</ele>
        <time>2013-09-01T14:50:23.000Z</time>
        <extensions>
          <ns3:TrackPointExtension>
            <ns3:atemp>17.0</ns3:atemp>
          </ns3:TrackPointExtension>
        </extensions>
      </trkpt>
      <trkpt lat="46.7667290009558200836181640625" lon="6.86195441521704196929931640625">
        <ele>434</ele>
        <time>2013-09-01T14:50:24.000Z</time>
        <extensions>
          <ns3:TrackPointExtension>
            <ns3:atemp>17.0</ns3:atemp>
          </ns3:TrackPointExtension>
        </extensions>
      </trkpt>
      <trkpt lat="46.76670326851308345794677734375" lon="6.86185441911220550537109375">
        <ele>433.20001220703125</ele>
        <time>2013-09-01T14:50:25.000Z</time>
        <extensions>
          <ns3:TrackPointExtension>
            <ns3:atemp>17.0</ns3:atemp>
          </ns3:TrackPointExtension>
        </extensions>
      </trkpt>
      <trkpt lat="46.76668725907802581787109375" lon="6.86174989677965641021728515625">
        <ele>432.399993896484375</ele>
        <time>2013-09-01T14:50:26.000Z</time>
        <extensions>
          <ns3:TrackPointExtension>
            <ns3:atemp>17.0</ns3:atemp>
          </ns3:TrackPointExtension>
        </extensions>
      </trkpt>
      <trkpt lat="46.7666773684322834014892578125" lon="6.86164093203842639923095703125">
        <ele>431.79998779296875</ele>
        <time>2013-09-01T14:50:27.000Z</time>
        <extensions>
          <ns3:TrackPointExtension>
            <ns3:atemp>17.0</ns3:atemp>
          </ns3:TrackPointExtension>
        </extensions>
      </trkpt>
      <trkpt lat="46.7666699923574924468994140625" lon="6.86152174137532711029052734375">
        <ele>431</ele>
        <time>2013-09-01T14:50:28.000Z</time>
        <extensions>
          <ns3:TrackPointExtension>
            <ns3:atemp>17.0</ns3:atemp>
          </ns3:TrackPointExtension>
        </extensions>
      </trkpt>
      <trkpt lat="46.76666580140590667724609375" lon="6.86140322126448154449462890625">
        <ele>429.79998779296875</ele>
        <time>2013-09-01T14:50:29.000Z</time>
        <extensions>
          <ns3:TrackPointExtension>
            <ns3:atemp>17.0</ns3:atemp>
          </ns3:TrackPointExtension>
        </extensions>
      </trkpt>
      <trkpt lat="46.76666052080690860748291015625" lon="6.86127933673560619354248046875">
        <ele>428.600006103515625</ele>
        <time>2013-09-01T14:50:30.000Z</time>
        <extensions>
          <ns3:TrackPointExtension>
            <ns3:atemp>17.0</ns3:atemp>
          </ns3:TrackPointExtension>
        </extensions>
      </trkpt>
      <trkpt lat="46.76665146835148334503173828125" lon="6.8611478246748447418212890625">
        <ele>427.399993896484375</ele>
        <time>2013-09-01T14:50:31.000Z</time>
        <extensions>
          <ns3:TrackPointExtension>
            <ns3:atemp>17.0</ns3:atemp>
          </ns3:TrackPointExtension>
        </extensions>
      </trkpt>
      <trkpt lat="46.76664476282894611358642578125" lon="6.861018575727939605712890625">
        <ele>426.20001220703125</ele>
        <time>2013-09-01T14:50:32.000Z</time>
        <extensions>
          <ns3:TrackPointExtension>
            <ns3:atemp>17.0</ns3:atemp>
          </ns3:TrackPointExtension>
        </extensions>
      </trkpt>
      <trkpt lat="46.7666351236402988433837890625" lon="6.86088991351425647735595703125">
        <ele>425.79998779296875</ele>
        <time>2013-09-01T14:50:33.000Z</time>
        <extensions>
          <ns3:TrackPointExtension>
            <ns3:atemp>17.0</ns3:atemp>
          </ns3:TrackPointExtension>
        </extensions>
      </trkpt>
      <trkpt lat="46.76661944948136806488037109375" lon="6.86075982637703418731689453125">
        <ele>425</ele>
        <time>2013-09-01T14:50:34.000Z</time>
        <extensions>
          <ns3:TrackPointExtension>
            <ns3:atemp>17.0</ns3:atemp>
          </ns3:TrackPointExtension>
        </extensions>
      </trkpt>
      <trkpt lat="46.76660285331308841705322265625" lon="6.8606221117079257965087890625">
        <ele>425</ele>
        <time>2013-09-01T14:50:35.000Z</time>
        <extensions>
          <ns3:TrackPointExtension>
            <ns3:atemp>17.0</ns3:atemp>
          </ns3:TrackPointExtension>
        </extensions>
      </trkpt>
      <trkpt lat="46.7665694095194339752197265625" lon="6.86049512587487697601318359375">
        <ele>424.20001220703125</ele>
        <time>2013-09-01T14:50:36.000Z</time>
        <extensions>
          <ns3:TrackPointExtension>
            <ns3:atemp>17.0</ns3:atemp>
          </ns3:TrackPointExtension>
        </extensions>
      </trkpt>
      <trkpt lat="46.7665218003094196319580078125" lon="6.860379539430141448974609375">
        <ele>423.399993896484375</ele>
        <time>2013-09-01T14:50:37.000Z</time>
        <extensions>
          <ns3:TrackPointExtension>
            <ns3:atemp>17.0</ns3:atemp>
          </ns3:TrackPointExtension>
        </extensions>
      </trkpt>
      <trkpt lat="46.76645784638822078704833984375" lon="6.86029932461678981781005859375">
        <ele>422.399993896484375</ele>
        <time>2013-09-01T14:50:38.000Z</time>
        <extensions>
          <ns3:TrackPointExtension>
            <ns3:atemp>17.0</ns3:atemp>
          </ns3:TrackPointExtension>
        </extensions>
      </trkpt>
      <trkpt lat="46.76638282835483551025390625" lon="6.86023293994367122650146484375">
        <ele>421.79998779296875</ele>
        <time>2013-09-01T14:50:39.000Z</time>
        <extensions>
          <ns3:TrackPointExtension>
            <ns3:atemp>17.0</ns3:atemp>
          </ns3:TrackPointExtension>
        </extensions>
      </trkpt>
      <trkpt lat="46.7663109116256237030029296875" lon="6.860186755657196044921875">
        <ele>421.20001220703125</ele>
        <time>2013-09-01T14:50:40.000Z</time>
        <extensions>
          <ns3:TrackPointExtension>
            <ns3:atemp>17.0</ns3:atemp>
          </ns3:TrackPointExtension>
        </extensions>
      </trkpt>
      <trkpt lat="46.76624293439090251922607421875" lon="6.86014987528324127197265625">
        <ele>421</ele>
        <time>2013-09-01T14:50:41.000Z</time>
        <extensions>
          <ns3:TrackPointExtension>
            <ns3:atemp>17.0</ns3:atemp>
          </ns3:TrackPointExtension>
        </extensions>
      </trkpt>
      <trkpt lat="46.766175962984561920166015625" lon="6.86011098325252532958984375">
        <ele>421.399993896484375</ele>
        <time>2013-09-01T14:50:42.000Z</time>
        <extensions>
          <ns3:TrackPointExtension>
            <ns3:atemp>17.0</ns3:atemp>
          </ns3:TrackPointExtension>
        </extensions>
      </trkpt>
      <trkpt lat="46.766113936901092529296875" lon="6.8600789643824100494384765625">
        <ele>421.600006103515625</ele>
        <time>2013-09-01T14:50:43.000Z</time>
        <extensions>
          <ns3:TrackPointExtension>
            <ns3:atemp>17.0</ns3:atemp>
          </ns3:TrackPointExtension>
        </extensions>
      </trkpt>
      <trkpt lat="46.76605853252112865447998046875" lon="6.86005205847322940826416015625">
        <ele>422</ele>
        <time>2013-09-01T14:50:44.000Z</time>
        <extensions>
          <ns3:TrackPointExtension>
            <ns3:atemp>17.0</ns3:atemp>
          </ns3:TrackPointExtension>
        </extensions>
      </trkpt>
      <trkpt lat="46.766008324921131134033203125" lon="6.8600290082395076751708984375">
        <ele>422</ele>
        <time>2013-09-01T14:50:45.000Z</time>
        <extensions>
          <ns3:TrackPointExtension>
            <ns3:atemp>17.0</ns3:atemp>
          </ns3:TrackPointExtension>
        </extensions>
      </trkpt>
      <trkpt lat="46.765960715711116790771484375" lon="6.8600149266421794891357421875">
        <ele>422.399993896484375</ele>
        <time>2013-09-01T14:50:46.000Z</time>
        <extensions>
          <ns3:TrackPointExtension>
            <ns3:atemp>17.0</ns3:atemp>
          </ns3:TrackPointExtension>
        </extensions>
      </trkpt>
      <trkpt lat="46.76591285504400730133056640625" lon="6.860011406242847442626953125">
        <ele>422.600006103515625</ele>
        <time>2013-09-01T14:50:47.000Z</time>
        <extensions>
          <ns3:TrackPointExtension>
            <ns3:atemp>17.0</ns3:atemp>
          </ns3:TrackPointExtension>
        </extensions>
      </trkpt>
      <trkpt lat="46.76586625166237354278564453125" lon="6.8600092269480228424072265625">
        <ele>422.79998779296875</ele>
        <time>2013-09-01T14:50:48.000Z</time>
        <extensions>
          <ns3:TrackPointExtension>
            <ns3:atemp>17.0</ns3:atemp>
          </ns3:TrackPointExtension>
        </extensions>
      </trkpt>
      <trkpt lat="46.76582149229943752288818359375" lon="6.8600038625299930572509765625">
        <ele>422.79998779296875</ele>
        <time>2013-09-01T14:50:49.000Z</time>
        <extensions>
          <ns3:TrackPointExtension>
            <ns3:atemp>17.0</ns3:atemp>
          </ns3:TrackPointExtension>
        </extensions>
      </trkpt>
      <trkpt lat="46.765775978565216064453125" lon="6.85999221168458461761474609375">
        <ele>423</ele>
        <time>2013-09-01T14:50:50.000Z</time>
        <extensions>
          <ns3:TrackPointExtension>
            <ns3:atemp>17.0</ns3:atemp>
          </ns3:TrackPointExtension>
        </extensions>
      </trkpt>
      <trkpt lat="46.7657322250306606292724609375" lon="6.85998165048658847808837890625">
        <ele>423.399993896484375</ele>
        <time>2013-09-01T14:50:51.000Z</time>
        <extensions>
          <ns3:TrackPointExtension>
            <ns3:atemp>17.0</ns3:atemp>
          </ns3:TrackPointExtension>
        </extensions>
      </trkpt>
      <trkpt lat="46.765687130391597747802734375" lon="6.85997226275503635406494140625">
        <ele>423.79998779296875</ele>
        <time>2013-09-01T14:50:52.000Z</time>
        <extensions>
          <ns3:TrackPointExtension>
            <ns3:atemp>17.0</ns3:atemp>
          </ns3:TrackPointExtension>
        </extensions>
      </trkpt>
      <trkpt lat="46.7656400240957736968994140625" lon="6.85996069572865962982177734375">
        <ele>423.600006103515625</ele>
        <time>2013-09-01T14:50:53.000Z</time>
        <extensions>
          <ns3:TrackPointExtension>
            <ns3:atemp>17.0</ns3:atemp>
          </ns3:TrackPointExtension>
        </extensions>
      </trkpt>
      <trkpt lat="46.76559283398091793060302734375" lon="6.85994879342615604400634765625">
        <ele>423.399993896484375</ele>
        <time>2013-09-01T14:50:54.000Z</time>
        <extensions>
          <ns3:TrackPointExtension>
            <ns3:atemp>17.0</ns3:atemp>
          </ns3:TrackPointExtension>
        </extensions>
      </trkpt>
      <trkpt lat="46.7655454762279987335205078125" lon="6.85993705876171588897705078125">
        <ele>423.20001220703125</ele>
        <time>2013-09-01T14:50:55.000Z</time>
        <extensions>
          <ns3:TrackPointExtension>
            <ns3:atemp>17.0</ns3:atemp>
          </ns3:TrackPointExtension>
        </extensions>
      </trkpt>
      <trkpt lat="46.765497028827667236328125" lon="6.85992012731730937957763671875">
        <ele>423.20001220703125</ele>
        <time>2013-09-01T14:50:56.000Z</time>
        <extensions>
          <ns3:TrackPointExtension>
            <ns3:atemp>17.0</ns3:atemp>
          </ns3:TrackPointExtension>
        </extensions>
      </trkpt>
      <trkpt lat="46.76544807851314544677734375" lon="6.85990638099610805511474609375">
        <ele>423.399993896484375</ele>
        <time>2013-09-01T14:50:57.000Z</time>
        <extensions>
          <ns3:TrackPointExtension>
            <ns3:atemp>17.0</ns3:atemp>
          </ns3:TrackPointExtension>
        </extensions>
      </trkpt>
      <trkpt lat="46.76540038548409938812255859375" lon="6.8598932214081287384033203125">
        <ele>423.399993896484375</ele>
        <time>2013-09-01T14:50:58.000Z</time>
        <extensions>
          <ns3:TrackPointExtension>
            <ns3:atemp>17.0</ns3:atemp>
          </ns3:TrackPointExtension>
        </extensions>
      </trkpt>
      <trkpt lat="46.76535495556890964508056640625" lon="6.8598794750869274139404296875">
        <ele>423.399993896484375</ele>
        <time>2013-09-01T14:50:59.000Z</time>
        <extensions>
          <ns3:TrackPointExtension>
            <ns3:atemp>17.0</ns3:atemp>
          </ns3:TrackPointExtension>
        </extensions>
      </trkpt>
      <trkpt lat="46.7653084360063076019287109375" lon="6.8598660640418529510498046875">
        <ele>423.600006103515625</ele>
        <time>2013-09-01T14:51:00.000Z</time>
        <extensions>
          <ns3:TrackPointExtension>
            <ns3:atemp>17.0</ns3:atemp>
          </ns3:TrackPointExtension>
        </extensions>
      </trkpt>
      <trkpt lat="46.7652601562440395355224609375" lon="6.85985290445387363433837890625">
        <ele>423.600006103515625</ele>
        <time>2013-09-01T14:51:01.000Z</time>
        <extensions>
          <ns3:TrackPointExtension>
            <ns3:atemp>17.0</ns3:atemp>
          </ns3:TrackPointExtension>
        </extensions>
      </trkpt>
      <trkpt lat="46.765208356082439422607421875" lon="6.859838403761386871337890625">
        <ele>423.600006103515625</ele>
        <time>2013-09-01T14:51:02.000Z</time>
        <extensions>
          <ns3:TrackPointExtension>
            <ns3:atemp>17.0</ns3:atemp>
          </ns3:TrackPointExtension>
        </extensions>
      </trkpt>
      <trkpt lat="46.76515437662601470947265625" lon="6.8598248250782489776611328125">
        <ele>423.600006103515625</ele>
        <time>2013-09-01T14:51:03.000Z</time>
        <extensions>
          <ns3:TrackPointExtension>
            <ns3:atemp>17.0</ns3:atemp>
          </ns3:TrackPointExtension>
        </extensions>
      </trkpt>
      <trkpt lat="46.765099056065082550048828125" lon="6.859808228909969329833984375">
        <ele>423.600006103515625</ele>
        <time>2013-09-01T14:51:04.000Z</time>
        <extensions>
          <ns3:TrackPointExtension>
            <ns3:atemp>17.0</ns3:atemp>
          </ns3:TrackPointExtension>
        </extensions>
      </trkpt>
      <trkpt lat="46.76504381932318210601806640625" lon="6.8597909621894359588623046875">
        <ele>423.600006103515625</ele>
        <time>2013-09-01T14:51:05.000Z</time>
        <extensions>
          <ns3:TrackPointExtension>
            <ns3:atemp>17.0</ns3:atemp>
          </ns3:TrackPointExtension>
        </extensions>
      </trkpt>
      <trkpt lat="46.76498916931450366973876953125" lon="6.85977361164987087249755859375">
        <ele>423.399993896484375</ele>
        <time>2013-09-01T14:51:06.000Z</time>
        <extensions>
          <ns3:TrackPointExtension>
            <ns3:atemp>17.0</ns3:atemp>
          </ns3:TrackPointExtension>
        </extensions>
      </trkpt>
      <trkpt lat="46.76493435166776180267333984375" lon="6.8597584404051303863525390625">
        <ele>423.20001220703125</ele>
        <time>2013-09-01T14:51:07.000Z</time>
        <extensions>
          <ns3:TrackPointExtension>
            <ns3:atemp>17.0</ns3:atemp>
          </ns3:TrackPointExtension>
        </extensions>
      </trkpt>
      <trkpt lat="46.76488079130649566650390625" lon="6.85974427498877048492431640625">
        <ele>423</ele>
        <time>2013-09-01T14:51:08.000Z</time>
        <extensions>
          <ns3:TrackPointExtension>
            <ns3:atemp>17.0</ns3:atemp>
          </ns3:TrackPointExtension>
        </extensions>
      </trkpt>
      <trkpt lat="46.76482840441167354583740234375" lon="6.85972818173468112945556640625">
        <ele>423</ele>
        <time>2013-09-01T14:51:09.000Z</time>
        <extensions>
          <ns3:TrackPointExtension>
            <ns3:atemp>17.0</ns3:atemp>
          </ns3:TrackPointExtension>
        </extensions>
      </trkpt>
      <trkpt lat="46.76477828063070774078369140625" lon="6.85971242375671863555908203125">
        <ele>423</ele>
        <time>2013-09-01T14:51:10.000Z</time>
        <extensions>
          <ns3:TrackPointExtension>
            <ns3:atemp>17.0</ns3:atemp>
          </ns3:TrackPointExtension>
        </extensions>
      </trkpt>
      <trkpt lat="46.764728911221027374267578125" lon="6.8596990965306758880615234375">
        <ele>422.79998779296875</ele>
        <time>2013-09-01T14:51:11.000Z</time>
        <extensions>
          <ns3:TrackPointExtension>
            <ns3:atemp>17.0</ns3:atemp>
          </ns3:TrackPointExtension>
        </extensions>
      </trkpt>
      <trkpt lat="46.7646818049252033233642578125" lon="6.85968945734202861785888671875">
        <ele>423</ele>
        <time>2013-09-01T14:51:12.000Z</time>
        <extensions>
          <ns3:TrackPointExtension>
            <ns3:atemp>17.0</ns3:atemp>
          </ns3:TrackPointExtension>
        </extensions>
      </trkpt>
      <trkpt lat="46.76463914103806018829345703125" lon="6.8596759624779224395751953125">
        <ele>422.79998779296875</ele>
        <time>2013-09-01T14:51:13.000Z</time>
        <extensions>
          <ns3:TrackPointExtension>
            <ns3:atemp>17.0</ns3:atemp>
          </ns3:TrackPointExtension>
        </extensions>
      </trkpt>
      <trkpt lat="46.7646097205579280853271484375" lon="6.85964168049395084381103515625">
        <ele>422.399993896484375</ele>
        <time>2013-09-01T14:51:14.000Z</time>
        <extensions>
          <ns3:TrackPointExtension>
            <ns3:atemp>17.0</ns3:atemp>
          </ns3:TrackPointExtension>
        </extensions>
      </trkpt>
      <trkpt lat="46.764605529606342315673828125" lon="6.85959390364587306976318359375">
        <ele>422</ele>
        <time>2013-09-01T14:51:15.000Z</time>
        <extensions>
          <ns3:TrackPointExtension>
            <ns3:atemp>17.0</ns3:atemp>
          </ns3:TrackPointExtension>
        </extensions>
      </trkpt>
      <trkpt lat="46.76462195813655853271484375" lon="6.859554760158061981201171875">
        <ele>421.79998779296875</ele>
        <time>2013-09-01T14:51:16.000Z</time>
        <extensions>
          <ns3:TrackPointExtension>
            <ns3:atemp>17.0</ns3:atemp>
          </ns3:TrackPointExtension>
        </extensions>
      </trkpt>
      <trkpt lat="46.7646442539989948272705078125" lon="6.8595254234969615936279296875">
        <ele>422</ele>
        <time>2013-09-01T14:51:17.000Z</time>
        <extensions>
          <ns3:TrackPointExtension>
            <ns3:atemp>17.0</ns3:atemp>
          </ns3:TrackPointExtension>
        </extensions>
      </trkpt>
      <trkpt lat="46.76466361619532108306884765625" lon="6.8594960868358612060546875">
        <ele>422.399993896484375</ele>
        <time>2013-09-01T14:51:18.000Z</time>
        <extensions>
          <ns3:TrackPointExtension>
            <ns3:atemp>17.0</ns3:atemp>
          </ns3:TrackPointExtension>
        </extensions>
      </trkpt>
      <trkpt lat="46.76468054763972759246826171875" lon="6.859467588365077972412109375">
        <ele>422.79998779296875</ele>
        <time>2013-09-01T14:51:19.000Z</time>
        <extensions>
          <ns3:TrackPointExtension>
            <ns3:atemp>17.0</ns3:atemp>
          </ns3:TrackPointExtension>
        </extensions>
      </trkpt>
      <trkpt lat="46.76469647325575351715087890625" lon="6.8594382517039775848388671875">
        <ele>423.399993896484375</ele>
        <time>2013-09-01T14:51:20.000Z</time>
        <extensions>
          <ns3:TrackPointExtension>
            <ns3:atemp>17.0</ns3:atemp>
          </ns3:TrackPointExtension>
        </extensions>
      </trkpt>
      <trkpt lat="46.7647109739482402801513671875" lon="6.859407909214496612548828125">
        <ele>423.79998779296875</ele>
        <time>2013-09-01T14:51:21.000Z</time>
        <extensions>
          <ns3:TrackPointExtension>
            <ns3:atemp>17.0</ns3:atemp>
          </ns3:TrackPointExtension>
        </extensions>
      </trkpt>
      <trkpt lat="46.7647200264036655426025390625" lon="6.8593742139637470245361328125">
        <ele>424</ele>
        <time>2013-09-01T14:51:22.000Z</time>
        <extensions>
          <ns3:TrackPointExtension>
            <ns3:atemp>17.0</ns3:atemp>
          </ns3:TrackPointExtension>
        </extensions>
      </trkpt>
      <trkpt lat="46.764727570116519927978515625" lon="6.8593405187129974365234375">
        <ele>424.20001220703125</ele>
        <time>2013-09-01T14:51:23.000Z</time>
        <extensions>
          <ns3:TrackPointExtension>
            <ns3:atemp>17.0</ns3:atemp>
          </ns3:TrackPointExtension>
        </extensions>
      </trkpt>
      <trkpt lat="46.76473058760166168212890625" lon="6.85930958949029445648193359375">
        <ele>424.600006103515625</ele>
        <time>2013-09-01T14:51:24.000Z</time>
        <extensions>
          <ns3:TrackPointExtension>
            <ns3:atemp>17.0</ns3:atemp>
          </ns3:TrackPointExtension>
        </extensions>
      </trkpt>
      <trkpt lat="46.76473117433488368988037109375" lon="6.8592774868011474609375">
        <ele>424.79998779296875</ele>
        <time>2013-09-01T14:51:25.000Z</time>
        <extensions>
          <ns3:TrackPointExtension>
            <ns3:atemp>17.0</ns3:atemp>
          </ns3:TrackPointExtension>
        </extensions>
      </trkpt>
      <trkpt lat="46.7647334374487400054931640625" lon="6.85924404300749301910400390625">
        <ele>425</ele>
        <time>2013-09-01T14:51:26.000Z</time>
        <extensions>
          <ns3:TrackPointExtension>
            <ns3:atemp>17.0</ns3:atemp>
          </ns3:TrackPointExtension>
        </extensions>
      </trkpt>
      <trkpt lat="46.7647357843816280364990234375" lon="6.8592122755944728851318359375">
        <ele>425.399993896484375</ele>
        <time>2013-09-01T14:51:27.000Z</time>
        <extensions>
          <ns3:TrackPointExtension>
            <ns3:atemp>17.0</ns3:atemp>
          </ns3:TrackPointExtension>
        </extensions>
      </trkpt>
      <trkpt lat="46.7647367902100086212158203125" lon="6.85918000526726245880126953125">
        <ele>425.600006103515625</ele>
        <time>2013-09-01T14:51:28.000Z</time>
        <extensions>
          <ns3:TrackPointExtension>
            <ns3:atemp>17.0</ns3:atemp>
          </ns3:TrackPointExtension>
        </extensions>
      </trkpt>
      <trkpt lat="46.7647354491055011749267578125" lon="6.85914664529263973236083984375">
        <ele>426.20001220703125</ele>
        <time>2013-09-01T14:51:29.000Z</time>
        <extensions>
          <ns3:TrackPointExtension>
            <ns3:atemp>17.0</ns3:atemp>
          </ns3:TrackPointExtension>
        </extensions>
      </trkpt>
      <trkpt lat="46.76472924649715423583984375" lon="6.85911613516509532928466796875">
        <ele>426.600006103515625</ele>
        <time>2013-09-01T14:51:30.000Z</time>
        <extensions>
          <ns3:TrackPointExtension>
            <ns3:atemp>17.0</ns3:atemp>
          </ns3:TrackPointExtension>
        </extensions>
      </trkpt>
      <trkpt lat="46.76471860148012638092041015625" lon="6.8590868823230266571044921875">
        <ele>427</ele>
        <time>2013-09-01T14:51:31.000Z</time>
        <extensions>
          <ns3:TrackPointExtension>
            <ns3:atemp>17.0</ns3:atemp>
          </ns3:TrackPointExtension>
        </extensions>
      </trkpt>
      <trkpt lat="46.76470753736793994903564453125" lon="6.859056539833545684814453125">
        <ele>427.20001220703125</ele>
        <time>2013-09-01T14:51:32.000Z</time>
        <extensions>
          <ns3:TrackPointExtension>
            <ns3:atemp>17.0</ns3:atemp>
          </ns3:TrackPointExtension>
        </extensions>
      </trkpt>
      <trkpt lat="46.764698065817356109619140625" lon="6.85902468860149383544921875">
        <ele>427.399993896484375</ele>
        <time>2013-09-01T14:51:33.000Z</time>
        <extensions>
          <ns3:TrackPointExtension>
            <ns3:atemp>17.0</ns3:atemp>
          </ns3:TrackPointExtension>
        </extensions>
      </trkpt>
      <trkpt lat="46.7646878398954868316650390625" lon="6.85899392701685428619384765625">
        <ele>427.79998779296875</ele>
        <time>2013-09-01T14:51:34.000Z</time>
        <extensions>
          <ns3:TrackPointExtension>
            <ns3:atemp>17.0</ns3:atemp>
          </ns3:TrackPointExtension>
        </extensions>
      </trkpt>
      <trkpt lat="46.76467820070683956146240234375" lon="6.85896324925124645233154296875">
        <ele>428.20001220703125</ele>
        <time>2013-09-01T14:51:35.000Z</time>
        <extensions>
          <ns3:TrackPointExtension>
            <ns3:atemp>17.0</ns3:atemp>
          </ns3:TrackPointExtension>
        </extensions>
      </trkpt>
      <trkpt lat="46.76466780714690685272216796875" lon="6.858933158218860626220703125">
        <ele>428.399993896484375</ele>
        <time>2013-09-01T14:51:36.000Z</time>
        <extensions>
          <ns3:TrackPointExtension>
            <ns3:atemp>17.0</ns3:atemp>
          </ns3:TrackPointExtension>
        </extensions>
      </trkpt>
      <trkpt lat="46.76465808413922786712646484375" lon="6.85890264809131622314453125">
        <ele>428.79998779296875</ele>
        <time>2013-09-01T14:51:37.000Z</time>
        <extensions>
          <ns3:TrackPointExtension>
            <ns3:atemp>17.0</ns3:atemp>
          </ns3:TrackPointExtension>
        </extensions>
      </trkpt>
      <trkpt lat="46.76464702002704143524169921875" lon="6.85887088067829608917236328125">
        <ele>429.20001220703125</ele>
        <time>2013-09-01T14:51:38.000Z</time>
        <extensions>
          <ns3:TrackPointExtension>
            <ns3:atemp>17.0</ns3:atemp>
          </ns3:TrackPointExtension>
        </extensions>
      </trkpt>
      <trkpt lat="46.76463645882904529571533203125" lon="6.85884104110300540924072265625">
        <ele>429.399993896484375</ele>
        <time>2013-09-01T14:51:39.000Z</time>
        <extensions>
          <ns3:TrackPointExtension>
            <ns3:atemp>17.0</ns3:atemp>
          </ns3:TrackPointExtension>
        </extensions>
      </trkpt>
      <trkpt lat="46.76462455652654170989990234375" lon="6.85880969278514385223388671875">
        <ele>429.600006103515625</ele>
        <time>2013-09-01T14:51:40.000Z</time>
        <extensions>
          <ns3:TrackPointExtension>
            <ns3:atemp>17.0</ns3:atemp>
          </ns3:TrackPointExtension>
        </extensions>
      </trkpt>
      <trkpt lat="46.7646134085953235626220703125" lon="6.85877817682921886444091796875">
        <ele>430</ele>
        <time>2013-09-01T14:51:41.000Z</time>
        <extensions>
          <ns3:TrackPointExtension>
            <ns3:atemp>17.0</ns3:atemp>
          </ns3:TrackPointExtension>
        </extensions>
      </trkpt>
      <trkpt lat="46.7646020092070102691650390625" lon="6.85875252820551395416259765625">
        <ele>430</ele>
        <time>2013-09-01T14:51:42.000Z</time>
        <extensions>
          <ns3:TrackPointExtension>
            <ns3:atemp>17.0</ns3:atemp>
          </ns3:TrackPointExtension>
        </extensions>
      </trkpt>
      <trkpt lat="46.76459186710417270660400390625" lon="6.85873794369399547576904296875">
        <ele>430.20001220703125</ele>
        <time>2013-09-01T14:51:43.000Z</time>
        <extensions>
          <ns3:TrackPointExtension>
            <ns3:atemp>17.0</ns3:atemp>
          </ns3:TrackPointExtension>
        </extensions>
      </trkpt>
      <trkpt lat="46.76459320820868015289306640625" lon="6.858739368617534637451171875">
        <ele>430.399993896484375</ele>
        <time>2013-09-01T14:51:44.000Z</time>
        <extensions>
          <ns3:TrackPointExtension>
            <ns3:atemp>17.0</ns3:atemp>
          </ns3:TrackPointExtension>
        </extensions>
      </trkpt>
      <trkpt lat="46.7645879276096820831298828125" lon="6.85873308219015598297119140625">
        <ele>430.600006103515625</ele>
        <time>2013-09-01T14:51:45.000Z</time>
        <extensions>
          <ns3:TrackPointExtension>
            <ns3:atemp>17.0</ns3:atemp>
          </ns3:TrackPointExtension>
        </extensions>
      </trkpt>
      <trkpt lat="46.7645879276096820831298828125" lon="6.858734004199504852294921875">
        <ele>430.79998779296875</ele>
        <time>2013-09-01T14:51:46.000Z</time>
        <extensions>
          <ns3:TrackPointExtension>
            <ns3:atemp>17.0</ns3:atemp>
          </ns3:TrackPointExtension>
        </extensions>
      </trkpt>
      <trkpt lat="46.76458717323839664459228515625" lon="6.85872972942888736724853515625">
        <ele>430.79998779296875</ele>
        <time>2013-09-01T14:51:47.000Z</time>
        <extensions>
          <ns3:TrackPointExtension>
            <ns3:atemp>17.0</ns3:atemp>
          </ns3:TrackPointExtension>
        </extensions>
      </trkpt>
      <trkpt lat="46.76458717323839664459228515625" lon="6.85872972942888736724853515625">
        <ele>430.79998779296875</ele>
        <time>2013-09-01T14:51:48.000Z</time>
        <extensions>
          <ns3:TrackPointExtension>
            <ns3:atemp>17.0</ns3:atemp>
          </ns3:TrackPointExtension>
        </extensions>
      </trkpt>
      <trkpt lat="46.76458717323839664459228515625" lon="6.85872972942888736724853515625">
        <ele>430.79998779296875</ele>
        <time>2013-09-01T14:51:49.000Z</time>
        <extensions>
          <ns3:TrackPointExtension>
            <ns3:atemp>17.0</ns3:atemp>
          </ns3:TrackPointExtension>
        </extensions>
      </trkpt>
      <trkpt lat="46.76458717323839664459228515625" lon="6.85872972942888736724853515625">
        <ele>430.79998779296875</ele>
        <time>2013-09-01T14:51:50.000Z</time>
        <extensions>
          <ns3:TrackPointExtension>
            <ns3:atemp>17.0</ns3:atemp>
          </ns3:TrackPointExtension>
        </extensions>
      </trkpt>
      <trkpt lat="46.76458717323839664459228515625" lon="6.85872972942888736724853515625">
        <ele>430.79998779296875</ele>
        <time>2013-09-01T14:51:51.000Z</time>
        <extensions>
          <ns3:TrackPointExtension>
            <ns3:atemp>17.0</ns3:atemp>
          </ns3:TrackPointExtension>
        </extensions>
      </trkpt>
      <trkpt lat="46.76458717323839664459228515625" lon="6.85872972942888736724853515625">
        <ele>430.79998779296875</ele>
        <time>2013-09-01T14:51:52.000Z</time>
        <extensions>
          <ns3:TrackPointExtension>
            <ns3:atemp>17.0</ns3:atemp>
          </ns3:TrackPointExtension>
        </extensions>
      </trkpt>
      <trkpt lat="46.76458717323839664459228515625" lon="6.85872972942888736724853515625">
        <ele>430.79998779296875</ele>
        <time>2013-09-01T14:51:53.000Z</time>
        <extensions>
          <ns3:TrackPointExtension>
            <ns3:atemp>17.0</ns3:atemp>
          </ns3:TrackPointExtension>
        </extensions>
      </trkpt>
      <trkpt lat="46.76458717323839664459228515625" lon="6.85872972942888736724853515625">
        <ele>430.79998779296875</ele>
        <time>2013-09-01T14:51:54.000Z</time>
        <extensions>
          <ns3:TrackPointExtension>
            <ns3:atemp>17.0</ns3:atemp>
          </ns3:TrackPointExtension>
        </extensions>
      </trkpt>
      <trkpt lat="46.76458717323839664459228515625" lon="6.85872972942888736724853515625">
        <ele>430.79998779296875</ele>
        <time>2013-09-01T14:51:55.000Z</time>
        <extensions>
          <ns3:TrackPointExtension>
            <ns3:atemp>17.0</ns3:atemp>
          </ns3:TrackPointExtension>
        </extensions>
      </trkpt>
      <trkpt lat="46.76458717323839664459228515625" lon="6.85872972942888736724853515625">
        <ele>430.79998779296875</ele>
        <time>2013-09-01T14:51:56.000Z</time>
        <extensions>
          <ns3:TrackPointExtension>
            <ns3:atemp>17.0</ns3:atemp>
          </ns3:TrackPointExtension>
        </extensions>
      </trkpt>
      <trkpt lat="46.76458717323839664459228515625" lon="6.85872972942888736724853515625">
        <ele>430.79998779296875</ele>
        <time>2013-09-01T14:51:57.000Z</time>
        <extensions>
          <ns3:TrackPointExtension>
            <ns3:atemp>17.0</ns3:atemp>
          </ns3:TrackPointExtension>
        </extensions>
      </trkpt>
      <trkpt lat="46.76458717323839664459228515625" lon="6.85872972942888736724853515625">
        <ele>430.79998779296875</ele>
        <time>2013-09-01T14:51:58.000Z</time>
        <extensions>
          <ns3:TrackPointExtension>
            <ns3:atemp>17.0</ns3:atemp>
          </ns3:TrackPointExtension>
        </extensions>
      </trkpt>
      <trkpt lat="46.76458717323839664459228515625" lon="6.85872972942888736724853515625">
        <ele>430.79998779296875</ele>
        <time>2013-09-01T14:51:59.000Z</time>
        <extensions>
          <ns3:TrackPointExtension>
            <ns3:atemp>17.0</ns3:atemp>
          </ns3:TrackPointExtension>
        </extensions>
      </trkpt>
      <trkpt lat="46.76458717323839664459228515625" lon="6.85872972942888736724853515625">
        <ele>430.79998779296875</ele>
        <time>2013-09-01T14:52:00.000Z</time>
        <extensions>
          <ns3:TrackPointExtension>
            <ns3:atemp>17.0</ns3:atemp>
          </ns3:TrackPointExtension>
        </extensions>
      </trkpt>
      <trkpt lat="46.76458717323839664459228515625" lon="6.85872972942888736724853515625">
        <ele>430.79998779296875</ele>
        <time>2013-09-01T14:52:01.000Z</time>
        <extensions>
          <ns3:TrackPointExtension>
            <ns3:atemp>17.0</ns3:atemp>
          </ns3:TrackPointExtension>
        </extensions>
      </trkpt>
      <trkpt lat="46.76458717323839664459228515625" lon="6.85872972942888736724853515625">
        <ele>430.79998779296875</ele>
        <time>2013-09-01T14:52:02.000Z</time>
        <extensions>
          <ns3:TrackPointExtension>
            <ns3:atemp>17.0</ns3:atemp>
          </ns3:TrackPointExtension>
        </extensions>
      </trkpt>
      <trkpt lat="46.76458717323839664459228515625" lon="6.85872972942888736724853515625">
        <ele>431</ele>
        <time>2013-09-01T14:52:03.000Z</time>
        <extensions>
          <ns3:TrackPointExtension>
            <ns3:atemp>17.0</ns3:atemp>
          </ns3:TrackPointExtension>
        </extensions>
      </trkpt>
      <trkpt lat="46.76458717323839664459228515625" lon="6.85872972942888736724853515625">
        <ele>431.20001220703125</ele>
        <time>2013-09-01T14:52:04.000Z</time>
        <extensions>
          <ns3:TrackPointExtension>
            <ns3:atemp>17.0</ns3:atemp>
          </ns3:TrackPointExtension>
        </extensions>
      </trkpt>
      <trkpt lat="46.76458717323839664459228515625" lon="6.85872972942888736724853515625">
        <ele>431.20001220703125</ele>
        <time>2013-09-01T14:52:05.000Z</time>
        <extensions>
          <ns3:TrackPointExtension>
            <ns3:atemp>17.0</ns3:atemp>
          </ns3:TrackPointExtension>
        </extensions>
      </trkpt>
      <trkpt lat="46.76458717323839664459228515625" lon="6.85872972942888736724853515625">
        <ele>431.20001220703125</ele>
        <time>2013-09-01T14:52:06.000Z</time>
        <extensions>
          <ns3:TrackPointExtension>
            <ns3:atemp>17.0</ns3:atemp>
          </ns3:TrackPointExtension>
        </extensions>
      </trkpt>
      <trkpt lat="46.76458717323839664459228515625" lon="6.85872972942888736724853515625">
        <ele>431</ele>
        <time>2013-09-01T14:52:07.000Z</time>
        <extensions>
          <ns3:TrackPointExtension>
            <ns3:atemp>17.0</ns3:atemp>
          </ns3:TrackPointExtension>
        </extensions>
      </trkpt>
      <trkpt lat="46.76458717323839664459228515625" lon="6.85872972942888736724853515625">
        <ele>431</ele>
        <time>2013-09-01T14:52:08.000Z</time>
        <extensions>
          <ns3:TrackPointExtension>
            <ns3:atemp>17.0</ns3:atemp>
          </ns3:TrackPointExtension>
        </extensions>
      </trkpt>
      <trkpt lat="46.76458717323839664459228515625" lon="6.85872972942888736724853515625">
        <ele>431</ele>
        <time>2013-09-01T14:52:09.000Z</time>
        <extensions>
          <ns3:TrackPointExtension>
            <ns3:atemp>17.0</ns3:atemp>
          </ns3:TrackPointExtension>
        </extensions>
      </trkpt>
      <trkpt lat="46.76458717323839664459228515625" lon="6.85872972942888736724853515625">
        <ele>430.600006103515625</ele>
        <time>2013-09-01T14:52:10.000Z</time>
        <extensions>
          <ns3:TrackPointExtension>
            <ns3:atemp>17.0</ns3:atemp>
          </ns3:TrackPointExtension>
        </extensions>
      </trkpt>
      <trkpt lat="46.76458717323839664459228515625" lon="6.85872972942888736724853515625">
        <ele>430.600006103515625</ele>
        <time>2013-09-01T14:52:11.000Z</time>
        <extensions>
          <ns3:TrackPointExtension>
            <ns3:atemp>17.0</ns3:atemp>
          </ns3:TrackPointExtension>
        </extensions>
      </trkpt>
      <trkpt lat="46.76458717323839664459228515625" lon="6.85872972942888736724853515625">
        <ele>430.600006103515625</ele>
        <time>2013-09-01T14:52:12.000Z</time>
        <extensions>
          <ns3:TrackPointExtension>
            <ns3:atemp>17.0</ns3:atemp>
          </ns3:TrackPointExtension>
        </extensions>
      </trkpt>
      <trkpt lat="46.76458717323839664459228515625" lon="6.85872972942888736724853515625">
        <ele>430.79998779296875</ele>
        <time>2013-09-01T14:52:13.000Z</time>
        <extensions>
          <ns3:TrackPointExtension>
            <ns3:atemp>17.0</ns3:atemp>
          </ns3:TrackPointExtension>
        </extensions>
      </trkpt>
      <trkpt lat="46.76458717323839664459228515625" lon="6.85872972942888736724853515625">
        <ele>430.79998779296875</ele>
        <time>2013-09-01T14:52:14.000Z</time>
        <extensions>
          <ns3:TrackPointExtension>
            <ns3:atemp>17.0</ns3:atemp>
          </ns3:TrackPointExtension>
        </extensions>
      </trkpt>
      <trkpt lat="46.76458717323839664459228515625" lon="6.85872972942888736724853515625">
        <ele>430.79998779296875</ele>
        <time>2013-09-01T14:52:15.000Z</time>
        <extensions>
          <ns3:TrackPointExtension>
            <ns3:atemp>17.0</ns3:atemp>
          </ns3:TrackPointExtension>
        </extensions>
      </trkpt>
      <trkpt lat="46.76458717323839664459228515625" lon="6.85872972942888736724853515625">
        <ele>431</ele>
        <time>2013-09-01T14:52:16.000Z</time>
        <extensions>
          <ns3:TrackPointExtension>
            <ns3:atemp>17.0</ns3:atemp>
          </ns3:TrackPointExtension>
        </extensions>
      </trkpt>
      <trkpt lat="46.76458717323839664459228515625" lon="6.85872972942888736724853515625">
        <ele>431</ele>
        <time>2013-09-01T14:52:17.000Z</time>
        <extensions>
          <ns3:TrackPointExtension>
            <ns3:atemp>17.0</ns3:atemp>
          </ns3:TrackPointExtension>
        </extensions>
      </trkpt>
      <trkpt lat="46.76458717323839664459228515625" lon="6.85872972942888736724853515625">
        <ele>431</ele>
        <time>2013-09-01T14:52:18.000Z</time>
        <extensions>
          <ns3:TrackPointExtension>
            <ns3:atemp>17.0</ns3:atemp>
          </ns3:TrackPointExtension>
        </extensions>
      </trkpt>
      <trkpt lat="46.76458717323839664459228515625" lon="6.85872972942888736724853515625">
        <ele>431</ele>
        <time>2013-09-01T14:52:19.000Z</time>
        <extensions>
          <ns3:TrackPointExtension>
            <ns3:atemp>17.0</ns3:atemp>
          </ns3:TrackPointExtension>
        </extensions>
      </trkpt>
      <trkpt lat="46.76458717323839664459228515625" lon="6.85872972942888736724853515625">
        <ele>430.79998779296875</ele>
        <time>2013-09-01T14:52:20.000Z</time>
        <extensions>
          <ns3:TrackPointExtension>
            <ns3:atemp>17.0</ns3:atemp>
          </ns3:TrackPointExtension>
        </extensions>
      </trkpt>
      <trkpt lat="46.76458717323839664459228515625" lon="6.85872972942888736724853515625">
        <ele>430.79998779296875</ele>
        <time>2013-09-01T14:52:21.000Z</time>
        <extensions>
          <ns3:TrackPointExtension>
            <ns3:atemp>17.0</ns3:atemp>
          </ns3:TrackPointExtension>
        </extensions>
      </trkpt>
      <trkpt lat="46.76458717323839664459228515625" lon="6.85872972942888736724853515625">
        <ele>430.79998779296875</ele>
        <time>2013-09-01T14:52:22.000Z</time>
        <extensions>
          <ns3:TrackPointExtension>
            <ns3:atemp>17.0</ns3:atemp>
          </ns3:TrackPointExtension>
        </extensions>
      </trkpt>
      <trkpt lat="46.76458717323839664459228515625" lon="6.85872972942888736724853515625">
        <ele>430.79998779296875</ele>
        <time>2013-09-01T14:52:23.000Z</time>
        <extensions>
          <ns3:TrackPointExtension>
            <ns3:atemp>17.0</ns3:atemp>
          </ns3:TrackPointExtension>
        </extensions>
      </trkpt>
      <trkpt lat="46.76458717323839664459228515625" lon="6.85872972942888736724853515625">
        <ele>430.79998779296875</ele>
        <time>2013-09-01T14:52:24.000Z</time>
        <extensions>
          <ns3:TrackPointExtension>
            <ns3:atemp>17.0</ns3:atemp>
          </ns3:TrackPointExtension>
        </extensions>
      </trkpt>
      <trkpt lat="46.76458717323839664459228515625" lon="6.85872972942888736724853515625">
        <ele>430.79998779296875</ele>
        <time>2013-09-01T14:52:25.000Z</time>
        <extensions>
          <ns3:TrackPointExtension>
            <ns3:atemp>17.0</ns3:atemp>
          </ns3:TrackPointExtension>
        </extensions>
      </trkpt>
      <trkpt lat="46.76458440721035003662109375" lon="6.858733333647251129150390625">
        <ele>430.79998779296875</ele>
        <time>2013-09-01T14:52:26.000Z</time>
        <extensions>
          <ns3:TrackPointExtension>
            <ns3:atemp>17.0</ns3:atemp>
          </ns3:TrackPointExtension>
        </extensions>
      </trkpt>
      <trkpt lat="46.76458440721035003662109375" lon="6.858733333647251129150390625">
        <ele>430.600006103515625</ele>
        <time>2013-09-01T14:52:27.000Z</time>
        <extensions>
          <ns3:TrackPointExtension>
            <ns3:atemp>17.0</ns3:atemp>
          </ns3:TrackPointExtension>
        </extensions>
      </trkpt>
      <trkpt lat="46.76458440721035003662109375" lon="6.858733333647251129150390625">
        <ele>430.600006103515625</ele>
        <time>2013-09-01T14:52:28.000Z</time>
        <extensions>
          <ns3:TrackPointExtension>
            <ns3:atemp>17.0</ns3:atemp>
          </ns3:TrackPointExtension>
        </extensions>
      </trkpt>
      <trkpt lat="46.76458440721035003662109375" lon="6.858733333647251129150390625">
        <ele>430.79998779296875</ele>
        <time>2013-09-01T14:52:29.000Z</time>
        <extensions>
          <ns3:TrackPointExtension>
            <ns3:atemp>17.0</ns3:atemp>
          </ns3:TrackPointExtension>
        </extensions>
      </trkpt>
      <trkpt lat="46.76458440721035003662109375" lon="6.858733333647251129150390625">
        <ele>430.600006103515625</ele>
        <time>2013-09-01T14:52:30.000Z</time>
        <extensions>
          <ns3:TrackPointExtension>
            <ns3:atemp>17.0</ns3:atemp>
          </ns3:TrackPointExtension>
        </extensions>
      </trkpt>
      <trkpt lat="46.76458440721035003662109375" lon="6.858733333647251129150390625">
        <ele>430.600006103515625</ele>
        <time>2013-09-01T14:52:31.000Z</time>
        <extensions>
          <ns3:TrackPointExtension>
            <ns3:atemp>17.0</ns3:atemp>
          </ns3:TrackPointExtension>
        </extensions>
      </trkpt>
      <trkpt lat="46.76458440721035003662109375" lon="6.858733333647251129150390625">
        <ele>430.399993896484375</ele>
        <time>2013-09-01T14:52:32.000Z</time>
        <extensions>
          <ns3:TrackPointExtension>
            <ns3:atemp>17.0</ns3:atemp>
          </ns3:TrackPointExtension>
        </extensions>
      </trkpt>
      <trkpt lat="46.76458440721035003662109375" lon="6.858733333647251129150390625">
        <ele>430.399993896484375</ele>
        <time>2013-09-01T14:52:33.000Z</time>
        <extensions>
          <ns3:TrackPointExtension>
            <ns3:atemp>17.0</ns3:atemp>
          </ns3:TrackPointExtension>
        </extensions>
      </trkpt>
      <trkpt lat="46.76458440721035003662109375" lon="6.858733333647251129150390625">
        <ele>430.600006103515625</ele>
        <time>2013-09-01T14:52:34.000Z</time>
        <extensions>
          <ns3:TrackPointExtension>
            <ns3:atemp>17.0</ns3:atemp>
          </ns3:TrackPointExtension>
        </extensions>
      </trkpt>
      <trkpt lat="46.76458440721035003662109375" lon="6.858733333647251129150390625">
        <ele>430.79998779296875</ele>
        <time>2013-09-01T14:52:35.000Z</time>
        <extensions>
          <ns3:TrackPointExtension>
            <ns3:atemp>17.0</ns3:atemp>
          </ns3:TrackPointExtension>
        </extensions>
      </trkpt>
      <trkpt lat="46.76458440721035003662109375" lon="6.858733333647251129150390625">
        <ele>430.79998779296875</ele>
        <time>2013-09-01T14:52:36.000Z</time>
        <extensions>
          <ns3:TrackPointExtension>
            <ns3:atemp>17.0</ns3:atemp>
          </ns3:TrackPointExtension>
        </extensions>
      </trkpt>
      <trkpt lat="46.76458440721035003662109375" lon="6.858733333647251129150390625">
        <ele>431</ele>
        <time>2013-09-01T14:52:37.000Z</time>
        <extensions>
          <ns3:TrackPointExtension>
            <ns3:atemp>17.0</ns3:atemp>
          </ns3:TrackPointExtension>
        </extensions>
      </trkpt>
      <trkpt lat="46.76458440721035003662109375" lon="6.858733333647251129150390625">
        <ele>431.20001220703125</ele>
        <time>2013-09-01T14:52:38.000Z</time>
        <extensions>
          <ns3:TrackPointExtension>
            <ns3:atemp>17.0</ns3:atemp>
          </ns3:TrackPointExtension>
        </extensions>
      </trkpt>
      <trkpt lat="46.76458440721035003662109375" lon="6.858733333647251129150390625">
        <ele>431</ele>
        <time>2013-09-01T14:52:39.000Z</time>
        <extensions>
          <ns3:TrackPointExtension>
            <ns3:atemp>17.0</ns3:atemp>
          </ns3:TrackPointExtension>
        </extensions>
      </trkpt>
      <trkpt lat="46.76458440721035003662109375" lon="6.858733333647251129150390625">
        <ele>431</ele>
        <time>2013-09-01T14:52:40.000Z</time>
        <extensions>
          <ns3:TrackPointExtension>
            <ns3:atemp>17.0</ns3:atemp>
          </ns3:TrackPointExtension>
        </extensions>
      </trkpt>
      <trkpt lat="46.76458440721035003662109375" lon="6.858733333647251129150390625">
        <ele>431</ele>
        <time>2013-09-01T14:52:41.000Z</time>
        <extensions>
          <ns3:TrackPointExtension>
            <ns3:atemp>17.0</ns3:atemp>
          </ns3:TrackPointExtension>
        </extensions>
      </trkpt>
      <trkpt lat="46.76458440721035003662109375" lon="6.858733333647251129150390625">
        <ele>430.79998779296875</ele>
        <time>2013-09-01T14:52:42.000Z</time>
        <extensions>
          <ns3:TrackPointExtension>
            <ns3:atemp>17.0</ns3:atemp>
          </ns3:TrackPointExtension>
        </extensions>
      </trkpt>
      <trkpt lat="46.76458440721035003662109375" lon="6.858733333647251129150390625">
        <ele>430.79998779296875</ele>
        <time>2013-09-01T14:52:43.000Z</time>
        <extensions>
          <ns3:TrackPointExtension>
            <ns3:atemp>17.0</ns3:atemp>
          </ns3:TrackPointExtension>
        </extensions>
      </trkpt>
      <trkpt lat="46.76458440721035003662109375" lon="6.858733333647251129150390625">
        <ele>430.79998779296875</ele>
        <time>2013-09-01T14:52:44.000Z</time>
        <extensions>
          <ns3:TrackPointExtension>
            <ns3:atemp>17.0</ns3:atemp>
          </ns3:TrackPointExtension>
        </extensions>
      </trkpt>
      <trkpt lat="46.76458440721035003662109375" lon="6.858733333647251129150390625">
        <ele>430.79998779296875</ele>
        <time>2013-09-01T14:52:45.000Z</time>
        <extensions>
          <ns3:TrackPointExtension>
            <ns3:atemp>17.0</ns3:atemp>
          </ns3:TrackPointExtension>
        </extensions>
      </trkpt>
      <trkpt lat="46.76458440721035003662109375" lon="6.858733333647251129150390625">
        <ele>430.79998779296875</ele>
        <time>2013-09-01T14:52:46.000Z</time>
        <extensions>
          <ns3:TrackPointExtension>
            <ns3:atemp>17.0</ns3:atemp>
          </ns3:TrackPointExtension>
        </extensions>
      </trkpt>
      <trkpt lat="46.76458440721035003662109375" lon="6.858733333647251129150390625">
        <ele>430.79998779296875</ele>
        <time>2013-09-01T14:52:47.000Z</time>
        <extensions>
          <ns3:TrackPointExtension>
            <ns3:atemp>17.0</ns3:atemp>
          </ns3:TrackPointExtension>
        </extensions>
      </trkpt>
      <trkpt lat="46.76458440721035003662109375" lon="6.858733333647251129150390625">
        <ele>431</ele>
        <time>2013-09-01T14:52:48.000Z</time>
        <extensions>
          <ns3:TrackPointExtension>
            <ns3:atemp>17.0</ns3:atemp>
          </ns3:TrackPointExtension>
        </extensions>
      </trkpt>
      <trkpt lat="46.76458440721035003662109375" lon="6.858733333647251129150390625">
        <ele>431</ele>
        <time>2013-09-01T14:52:49.000Z</time>
        <extensions>
          <ns3:TrackPointExtension>
            <ns3:atemp>17.0</ns3:atemp>
          </ns3:TrackPointExtension>
        </extensions>
      </trkpt>
      <trkpt lat="46.76458440721035003662109375" lon="6.858733333647251129150390625">
        <ele>431</ele>
        <time>2013-09-01T14:52:50.000Z</time>
        <extensions>
          <ns3:TrackPointExtension>
            <ns3:atemp>17.0</ns3:atemp>
          </ns3:TrackPointExtension>
        </extensions>
      </trkpt>
      <trkpt lat="46.76458440721035003662109375" lon="6.858733333647251129150390625">
        <ele>431</ele>
        <time>2013-09-01T14:52:51.000Z</time>
        <extensions>
          <ns3:TrackPointExtension>
            <ns3:atemp>17.0</ns3:atemp>
          </ns3:TrackPointExtension>
        </extensions>
      </trkpt>
      <trkpt lat="46.76458440721035003662109375" lon="6.858733333647251129150390625">
        <ele>431</ele>
        <time>2013-09-01T14:52:52.000Z</time>
        <extensions>
          <ns3:TrackPointExtension>
            <ns3:atemp>17.0</ns3:atemp>
          </ns3:TrackPointExtension>
        </extensions>
      </trkpt>
      <trkpt lat="46.76458440721035003662109375" lon="6.858733333647251129150390625">
        <ele>431</ele>
        <time>2013-09-01T14:52:53.000Z</time>
        <extensions>
          <ns3:TrackPointExtension>
            <ns3:atemp>17.0</ns3:atemp>
          </ns3:TrackPointExtension>
        </extensions>
      </trkpt>
      <trkpt lat="46.76458440721035003662109375" lon="6.858733333647251129150390625">
        <ele>431</ele>
        <time>2013-09-01T14:52:54.000Z</time>
        <extensions>
          <ns3:TrackPointExtension>
            <ns3:atemp>17.0</ns3:atemp>
          </ns3:TrackPointExtension>
        </extensions>
      </trkpt>
      <trkpt lat="46.76458440721035003662109375" lon="6.858733333647251129150390625">
        <ele>431</ele>
        <time>2013-09-01T14:52:55.000Z</time>
        <extensions>
          <ns3:TrackPointExtension>
            <ns3:atemp>17.0</ns3:atemp>
          </ns3:TrackPointExtension>
        </extensions>
      </trkpt>
      <trkpt lat="46.76458440721035003662109375" lon="6.858733333647251129150390625">
        <ele>430.79998779296875</ele>
        <time>2013-09-01T14:52:56.000Z</time>
        <extensions>
          <ns3:TrackPointExtension>
            <ns3:atemp>17.0</ns3:atemp>
          </ns3:TrackPointExtension>
        </extensions>
      </trkpt>
      <trkpt lat="46.76458440721035003662109375" lon="6.858733333647251129150390625">
        <ele>430.79998779296875</ele>
        <time>2013-09-01T14:52:57.000Z</time>
        <extensions>
          <ns3:TrackPointExtension>
            <ns3:atemp>17.0</ns3:atemp>
          </ns3:TrackPointExtension>
        </extensions>
      </trkpt>
      <trkpt lat="46.76458440721035003662109375" lon="6.858733333647251129150390625">
        <ele>430.79998779296875</ele>
        <time>2013-09-01T14:52:58.000Z</time>
        <extensions>
          <ns3:TrackPointExtension>
            <ns3:atemp>17.0</ns3:atemp>
          </ns3:TrackPointExtension>
        </extensions>
      </trkpt>
      <trkpt lat="46.76458440721035003662109375" lon="6.858733333647251129150390625">
        <ele>431</ele>
        <time>2013-09-01T14:52:59.000Z</time>
        <extensions>
          <ns3:TrackPointExtension>
            <ns3:atemp>17.0</ns3:atemp>
          </ns3:TrackPointExtension>
        </extensions>
      </trkpt>
      <trkpt lat="46.76458440721035003662109375" lon="6.858733333647251129150390625">
        <ele>431</ele>
        <time>2013-09-01T14:53:00.000Z</time>
        <extensions>
          <ns3:TrackPointExtension>
            <ns3:atemp>17.0</ns3:atemp>
          </ns3:TrackPointExtension>
        </extensions>
      </trkpt>
      <trkpt lat="46.76458440721035003662109375" lon="6.858733333647251129150390625">
        <ele>431</ele>
        <time>2013-09-01T14:53:01.000Z</time>
        <extensions>
          <ns3:TrackPointExtension>
            <ns3:atemp>17.0</ns3:atemp>
          </ns3:TrackPointExtension>
        </extensions>
      </trkpt>
      <trkpt lat="46.76458440721035003662109375" lon="6.858733333647251129150390625">
        <ele>431.20001220703125</ele>
        <time>2013-09-01T14:53:02.000Z</time>
        <extensions>
          <ns3:TrackPointExtension>
            <ns3:atemp>17.0</ns3:atemp>
          </ns3:TrackPointExtension>
        </extensions>
      </trkpt>
      <trkpt lat="46.76458440721035003662109375" lon="6.858733333647251129150390625">
        <ele>431</ele>
        <time>2013-09-01T14:53:03.000Z</time>
        <extensions>
          <ns3:TrackPointExtension>
            <ns3:atemp>17.0</ns3:atemp>
          </ns3:TrackPointExtension>
        </extensions>
      </trkpt>
      <trkpt lat="46.76458440721035003662109375" lon="6.858733333647251129150390625">
        <ele>431</ele>
        <time>2013-09-01T14:53:04.000Z</time>
        <extensions>
          <ns3:TrackPointExtension>
            <ns3:atemp>17.0</ns3:atemp>
          </ns3:TrackPointExtension>
        </extensions>
      </trkpt>
      <trkpt lat="46.76458440721035003662109375" lon="6.858733333647251129150390625">
        <ele>431</ele>
        <time>2013-09-01T14:53:05.000Z</time>
        <extensions>
          <ns3:TrackPointExtension>
            <ns3:atemp>17.0</ns3:atemp>
          </ns3:TrackPointExtension>
        </extensions>
      </trkpt>
      <trkpt lat="46.76458574831485748291015625" lon="6.858736015856266021728515625">
        <ele>431</ele>
        <time>2013-09-01T14:53:06.000Z</time>
        <extensions>
          <ns3:TrackPointExtension>
            <ns3:atemp>17.0</ns3:atemp>
          </ns3:TrackPointExtension>
        </extensions>
      </trkpt>
      <trkpt lat="46.76458574831485748291015625" lon="6.858736015856266021728515625">
        <ele>431</ele>
        <time>2013-09-01T14:53:07.000Z</time>
        <extensions>
          <ns3:TrackPointExtension>
            <ns3:atemp>17.0</ns3:atemp>
          </ns3:TrackPointExtension>
        </extensions>
      </trkpt>
      <trkpt lat="46.76458574831485748291015625" lon="6.858736015856266021728515625">
        <ele>431</ele>
        <time>2013-09-01T14:53:08.000Z</time>
        <extensions>
          <ns3:TrackPointExtension>
            <ns3:atemp>17.0</ns3:atemp>
          </ns3:TrackPointExtension>
        </extensions>
      </trkpt>
      <trkpt lat="46.76458574831485748291015625" lon="6.858736015856266021728515625">
        <ele>431</ele>
        <time>2013-09-01T14:53:09.000Z</time>
        <extensions>
          <ns3:TrackPointExtension>
            <ns3:atemp>17.0</ns3:atemp>
          </ns3:TrackPointExtension>
        </extensions>
      </trkpt>
      <trkpt lat="46.76458574831485748291015625" lon="6.858736015856266021728515625">
        <ele>430.79998779296875</ele>
        <time>2013-09-01T14:53:10.000Z</time>
        <extensions>
          <ns3:TrackPointExtension>
            <ns3:atemp>18.0</ns3:atemp>
          </ns3:TrackPointExtension>
        </extensions>
      </trkpt>
      <trkpt lat="46.76458574831485748291015625" lon="6.858736015856266021728515625">
        <ele>430.79998779296875</ele>
        <time>2013-09-01T14:53:11.000Z</time>
        <extensions>
          <ns3:TrackPointExtension>
            <ns3:atemp>18.0</ns3:atemp>
          </ns3:TrackPointExtension>
        </extensions>
      </trkpt>
      <trkpt lat="46.76458574831485748291015625" lon="6.858736015856266021728515625">
        <ele>430.79998779296875</ele>
        <time>2013-09-01T14:53:12.000Z</time>
        <extensions>
          <ns3:TrackPointExtension>
            <ns3:atemp>18.0</ns3:atemp>
          </ns3:TrackPointExtension>
        </extensions>
      </trkpt>
      <trkpt lat="46.76458574831485748291015625" lon="6.858736015856266021728515625">
        <ele>430.79998779296875</ele>
        <time>2013-09-01T14:53:13.000Z</time>
        <extensions>
          <ns3:TrackPointExtension>
            <ns3:atemp>18.0</ns3:atemp>
          </ns3:TrackPointExtension>
        </extensions>
      </trkpt>
      <trkpt lat="46.76458574831485748291015625" lon="6.858736015856266021728515625">
        <ele>431</ele>
        <time>2013-09-01T14:53:14.000Z</time>
        <extensions>
          <ns3:TrackPointExtension>
            <ns3:atemp>18.0</ns3:atemp>
          </ns3:TrackPointExtension>
        </extensions>
      </trkpt>
      <trkpt lat="46.76458574831485748291015625" lon="6.858736015856266021728515625">
        <ele>431</ele>
        <time>2013-09-01T14:53:16.000Z</time>
        <extensions>
          <ns3:TrackPointExtension>
            <ns3:atemp>18.0</ns3:atemp>
          </ns3:TrackPointExtension>
        </extensions>
      </trkpt>
      <trkpt lat="46.76458574831485748291015625" lon="6.858736015856266021728515625">
        <ele>431</ele>
        <time>2013-09-01T14:53:17.000Z</time>
        <extensions>
          <ns3:TrackPointExtension>
            <ns3:atemp>18.0</ns3:atemp>
          </ns3:TrackPointExtension>
        </extensions>
      </trkpt>
      <trkpt lat="46.76458574831485748291015625" lon="6.858736015856266021728515625">
        <ele>431</ele>
        <time>2013-09-01T14:53:18.000Z</time>
        <extensions>
          <ns3:TrackPointExtension>
            <ns3:atemp>18.0</ns3:atemp>
          </ns3:TrackPointExtension>
        </extensions>
      </trkpt>
      <trkpt lat="46.76458574831485748291015625" lon="6.858736015856266021728515625">
        <ele>431</ele>
        <time>2013-09-01T14:53:19.000Z</time>
        <extensions>
          <ns3:TrackPointExtension>
            <ns3:atemp>18.0</ns3:atemp>
          </ns3:TrackPointExtension>
        </extensions>
      </trkpt>
      <trkpt lat="46.76458574831485748291015625" lon="6.858736015856266021728515625">
        <ele>431</ele>
        <time>2013-09-01T14:53:20.000Z</time>
        <extensions>
          <ns3:TrackPointExtension>
            <ns3:atemp>18.0</ns3:atemp>
          </ns3:TrackPointExtension>
        </extensions>
      </trkpt>
      <trkpt lat="46.76458574831485748291015625" lon="6.858736015856266021728515625">
        <ele>431</ele>
        <time>2013-09-01T14:53:21.000Z</time>
        <extensions>
          <ns3:TrackPointExtension>
            <ns3:atemp>18.0</ns3:atemp>
          </ns3:TrackPointExtension>
        </extensions>
      </trkpt>
      <trkpt lat="46.76458574831485748291015625" lon="6.858736015856266021728515625">
        <ele>431</ele>
        <time>2013-09-01T14:53:22.000Z</time>
        <extensions>
          <ns3:TrackPointExtension>
            <ns3:atemp>18.0</ns3:atemp>
          </ns3:TrackPointExtension>
        </extensions>
      </trkpt>
      <trkpt lat="46.76458574831485748291015625" lon="6.858736015856266021728515625">
        <ele>431</ele>
        <time>2013-09-01T14:53:23.000Z</time>
        <extensions>
          <ns3:TrackPointExtension>
            <ns3:atemp>18.0</ns3:atemp>
          </ns3:TrackPointExtension>
        </extensions>
      </trkpt>
      <trkpt lat="46.76458574831485748291015625" lon="6.858736015856266021728515625">
        <ele>430.79998779296875</ele>
        <time>2013-09-01T14:53:24.000Z</time>
        <extensions>
          <ns3:TrackPointExtension>
            <ns3:atemp>18.0</ns3:atemp>
          </ns3:TrackPointExtension>
        </extensions>
      </trkpt>
      <trkpt lat="46.76458574831485748291015625" lon="6.858736015856266021728515625">
        <ele>431</ele>
        <time>2013-09-01T14:53:25.000Z</time>
        <extensions>
          <ns3:TrackPointExtension>
            <ns3:atemp>18.0</ns3:atemp>
          </ns3:TrackPointExtension>
        </extensions>
      </trkpt>
      <trkpt lat="46.76458574831485748291015625" lon="6.858736015856266021728515625">
        <ele>431</ele>
        <time>2013-09-01T14:53:26.000Z</time>
        <extensions>
          <ns3:TrackPointExtension>
            <ns3:atemp>18.0</ns3:atemp>
          </ns3:TrackPointExtension>
        </extensions>
      </trkpt>
      <trkpt lat="46.76458574831485748291015625" lon="6.858736015856266021728515625">
        <ele>431</ele>
        <time>2013-09-01T14:53:27.000Z</time>
        <extensions>
          <ns3:TrackPointExtension>
            <ns3:atemp>18.0</ns3:atemp>
          </ns3:TrackPointExtension>
        </extensions>
      </trkpt>
      <trkpt lat="46.76458574831485748291015625" lon="6.858736015856266021728515625">
        <ele>431</ele>
        <time>2013-09-01T14:53:28.000Z</time>
        <extensions>
          <ns3:TrackPointExtension>
            <ns3:atemp>18.0</ns3:atemp>
          </ns3:TrackPointExtension>
        </extensions>
      </trkpt>
      <trkpt lat="46.76458574831485748291015625" lon="6.858736015856266021728515625">
        <ele>431</ele>
        <time>2013-09-01T14:53:29.000Z</time>
        <extensions>
          <ns3:TrackPointExtension>
            <ns3:atemp>18.0</ns3:atemp>
          </ns3:TrackPointExtension>
        </extensions>
      </trkpt>
      <trkpt lat="46.76458574831485748291015625" lon="6.858736015856266021728515625">
        <ele>431</ele>
        <time>2013-09-01T14:53:30.000Z</time>
        <extensions>
          <ns3:TrackPointExtension>
            <ns3:atemp>18.0</ns3:atemp>
          </ns3:TrackPointExtension>
        </extensions>
      </trkpt>
      <trkpt lat="46.76458574831485748291015625" lon="6.858736015856266021728515625">
        <ele>431.20001220703125</ele>
        <time>2013-09-01T14:53:31.000Z</time>
        <extensions>
          <ns3:TrackPointExtension>
            <ns3:atemp>18.0</ns3:atemp>
          </ns3:TrackPointExtension>
        </extensions>
      </trkpt>
      <trkpt lat="46.76458574831485748291015625" lon="6.858736015856266021728515625">
        <ele>431.20001220703125</ele>
        <time>2013-09-01T14:53:32.000Z</time>
        <extensions>
          <ns3:TrackPointExtension>
            <ns3:atemp>18.0</ns3:atemp>
          </ns3:TrackPointExtension>
        </extensions>
      </trkpt>
      <trkpt lat="46.76458574831485748291015625" lon="6.858736015856266021728515625">
        <ele>431</ele>
        <time>2013-09-01T14:53:33.000Z</time>
        <extensions>
          <ns3:TrackPointExtension>
            <ns3:atemp>18.0</ns3:atemp>
          </ns3:TrackPointExtension>
        </extensions>
      </trkpt>
      <trkpt lat="46.76458574831485748291015625" lon="6.858736015856266021728515625">
        <ele>431</ele>
        <time>2013-09-01T14:53:34.000Z</time>
        <extensions>
          <ns3:TrackPointExtension>
            <ns3:atemp>18.0</ns3:atemp>
          </ns3:TrackPointExtension>
        </extensions>
      </trkpt>
      <trkpt lat="46.76458574831485748291015625" lon="6.858736015856266021728515625">
        <ele>431.20001220703125</ele>
        <time>2013-09-01T14:53:35.000Z</time>
        <extensions>
          <ns3:TrackPointExtension>
            <ns3:atemp>18.0</ns3:atemp>
          </ns3:TrackPointExtension>
        </extensions>
      </trkpt>
      <trkpt lat="46.76458574831485748291015625" lon="6.858736015856266021728515625">
        <ele>431.20001220703125</ele>
        <time>2013-09-01T14:53:36.000Z</time>
        <extensions>
          <ns3:TrackPointExtension>
            <ns3:atemp>18.0</ns3:atemp>
          </ns3:TrackPointExtension>
        </extensions>
      </trkpt>
      <trkpt lat="46.76458574831485748291015625" lon="6.858736015856266021728515625">
        <ele>431.20001220703125</ele>
        <time>2013-09-01T14:53:37.000Z</time>
        <extensions>
          <ns3:TrackPointExtension>
            <ns3:atemp>18.0</ns3:atemp>
          </ns3:TrackPointExtension>
        </extensions>
      </trkpt>
      <trkpt lat="46.76458574831485748291015625" lon="6.858736015856266021728515625">
        <ele>431.20001220703125</ele>
        <time>2013-09-01T14:53:38.000Z</time>
        <extensions>
          <ns3:TrackPointExtension>
            <ns3:atemp>18.0</ns3:atemp>
          </ns3:TrackPointExtension>
        </extensions>
      </trkpt>
      <trkpt lat="46.76458574831485748291015625" lon="6.858736015856266021728515625">
        <ele>431.20001220703125</ele>
        <time>2013-09-01T14:53:39.000Z</time>
        <extensions>
          <ns3:TrackPointExtension>
            <ns3:atemp>18.0</ns3:atemp>
          </ns3:TrackPointExtension>
        </extensions>
      </trkpt>
      <trkpt lat="46.76458574831485748291015625" lon="6.858736015856266021728515625">
        <ele>431.20001220703125</ele>
        <time>2013-09-01T14:53:40.000Z</time>
        <extensions>
          <ns3:TrackPointExtension>
            <ns3:atemp>18.0</ns3:atemp>
          </ns3:TrackPointExtension>
        </extensions>
      </trkpt>
      <trkpt lat="46.76458574831485748291015625" lon="6.858736015856266021728515625">
        <ele>431.20001220703125</ele>
        <time>2013-09-01T14:53:41.000Z</time>
        <extensions>
          <ns3:TrackPointExtension>
            <ns3:atemp>18.0</ns3:atemp>
          </ns3:TrackPointExtension>
        </extensions>
      </trkpt>
      <trkpt lat="46.76458574831485748291015625" lon="6.858736015856266021728515625">
        <ele>431.20001220703125</ele>
        <time>2013-09-01T14:53:42.000Z</time>
        <extensions>
          <ns3:TrackPointExtension>
            <ns3:atemp>18.0</ns3:atemp>
          </ns3:TrackPointExtension>
        </extensions>
      </trkpt>
      <trkpt lat="46.76458574831485748291015625" lon="6.858736015856266021728515625">
        <ele>431.20001220703125</ele>
        <time>2013-09-01T14:53:43.000Z</time>
        <extensions>
          <ns3:TrackPointExtension>
            <ns3:atemp>18.0</ns3:atemp>
          </ns3:TrackPointExtension>
        </extensions>
      </trkpt>
      <trkpt lat="46.76458574831485748291015625" lon="6.858736015856266021728515625">
        <ele>431</ele>
        <time>2013-09-01T14:53:44.000Z</time>
        <extensions>
          <ns3:TrackPointExtension>
            <ns3:atemp>18.0</ns3:atemp>
          </ns3:TrackPointExtension>
        </extensions>
      </trkpt>
      <trkpt lat="46.76458574831485748291015625" lon="6.858736015856266021728515625">
        <ele>431.20001220703125</ele>
        <time>2013-09-01T14:53:45.000Z</time>
        <extensions>
          <ns3:TrackPointExtension>
            <ns3:atemp>18.0</ns3:atemp>
          </ns3:TrackPointExtension>
        </extensions>
      </trkpt>
      <trkpt lat="46.76458599977195262908935546875" lon="6.85873635113239288330078125">
        <ele>431</ele>
        <time>2013-09-01T14:53:46.000Z</time>
        <extensions>
          <ns3:TrackPointExtension>
            <ns3:atemp>18.0</ns3:atemp>
          </ns3:TrackPointExtension>
        </extensions>
      </trkpt>
      <trkpt lat="46.76458599977195262908935546875" lon="6.85873635113239288330078125">
        <ele>431</ele>
        <time>2013-09-01T14:53:47.000Z</time>
        <extensions>
          <ns3:TrackPointExtension>
            <ns3:atemp>18.0</ns3:atemp>
          </ns3:TrackPointExtension>
        </extensions>
      </trkpt>
      <trkpt lat="46.76458599977195262908935546875" lon="6.85873635113239288330078125">
        <ele>431</ele>
        <time>2013-09-01T14:53:48.000Z</time>
        <extensions>
          <ns3:TrackPointExtension>
            <ns3:atemp>18.0</ns3:atemp>
          </ns3:TrackPointExtension>
        </extensions>
      </trkpt>
      <trkpt lat="46.76458599977195262908935546875" lon="6.85873635113239288330078125">
        <ele>431</ele>
        <time>2013-09-01T14:53:49.000Z</time>
        <extensions>
          <ns3:TrackPointExtension>
            <ns3:atemp>18.0</ns3:atemp>
          </ns3:TrackPointExtension>
        </extensions>
      </trkpt>
      <trkpt lat="46.76458599977195262908935546875" lon="6.85873635113239288330078125">
        <ele>431</ele>
        <time>2013-09-01T14:53:50.000Z</time>
        <extensions>
          <ns3:TrackPointExtension>
            <ns3:atemp>18.0</ns3:atemp>
          </ns3:TrackPointExtension>
        </extensions>
      </trkpt>
      <trkpt lat="46.76458599977195262908935546875" lon="6.85873635113239288330078125">
        <ele>431</ele>
        <time>2013-09-01T14:53:51.000Z</time>
        <extensions>
          <ns3:TrackPointExtension>
            <ns3:atemp>18.0</ns3:atemp>
          </ns3:TrackPointExtension>
        </extensions>
      </trkpt>
      <trkpt lat="46.76458599977195262908935546875" lon="6.85873635113239288330078125">
        <ele>431.20001220703125</ele>
        <time>2013-09-01T14:53:52.000Z</time>
        <extensions>
          <ns3:TrackPointExtension>
            <ns3:atemp>18.0</ns3:atemp>
          </ns3:TrackPointExtension>
        </extensions>
      </trkpt>
      <trkpt lat="46.76458599977195262908935546875" lon="6.85873635113239288330078125">
        <ele>431</ele>
        <time>2013-09-01T14:53:53.000Z</time>
        <extensions>
          <ns3:TrackPointExtension>
            <ns3:atemp>18.0</ns3:atemp>
          </ns3:TrackPointExtension>
        </extensions>
      </trkpt>
      <trkpt lat="46.76458599977195262908935546875" lon="6.85873635113239288330078125">
        <ele>431</ele>
        <time>2013-09-01T14:53:54.000Z</time>
        <extensions>
          <ns3:TrackPointExtension>
            <ns3:atemp>18.0</ns3:atemp>
          </ns3:TrackPointExtension>
        </extensions>
      </trkpt>
      <trkpt lat="46.76458599977195262908935546875" lon="6.85873635113239288330078125">
        <ele>431</ele>
        <time>2013-09-01T14:53:55.000Z</time>
        <extensions>
          <ns3:TrackPointExtension>
            <ns3:atemp>18.0</ns3:atemp>
          </ns3:TrackPointExtension>
        </extensions>
      </trkpt>
      <trkpt lat="46.76458599977195262908935546875" lon="6.85873635113239288330078125">
        <ele>431</ele>
        <time>2013-09-01T14:53:56.000Z</time>
        <extensions>
          <ns3:TrackPointExtension>
            <ns3:atemp>18.0</ns3:atemp>
          </ns3:TrackPointExtension>
        </extensions>
      </trkpt>
      <trkpt lat="46.76458599977195262908935546875" lon="6.85873635113239288330078125">
        <ele>431</ele>
        <time>2013-09-01T14:53:57.000Z</time>
        <extensions>
          <ns3:TrackPointExtension>
            <ns3:atemp>18.0</ns3:atemp>
          </ns3:TrackPointExtension>
        </extensions>
      </trkpt>
      <trkpt lat="46.76458599977195262908935546875" lon="6.85873635113239288330078125">
        <ele>431</ele>
        <time>2013-09-01T14:53:58.000Z</time>
        <extensions>
          <ns3:TrackPointExtension>
            <ns3:atemp>18.0</ns3:atemp>
          </ns3:TrackPointExtension>
        </extensions>
      </trkpt>
      <trkpt lat="46.76458599977195262908935546875" lon="6.85873635113239288330078125">
        <ele>431</ele>
        <time>2013-09-01T14:53:59.000Z</time>
        <extensions>
          <ns3:TrackPointExtension>
            <ns3:atemp>18.0</ns3:atemp>
          </ns3:TrackPointExtension>
        </extensions>
      </trkpt>
      <trkpt lat="46.76458599977195262908935546875" lon="6.85873635113239288330078125">
        <ele>431</ele>
        <time>2013-09-01T14:54:00.000Z</time>
        <extensions>
          <ns3:TrackPointExtension>
            <ns3:atemp>18.0</ns3:atemp>
          </ns3:TrackPointExtension>
        </extensions>
      </trkpt>
      <trkpt lat="46.76458599977195262908935546875" lon="6.85873635113239288330078125">
        <ele>431</ele>
        <time>2013-09-01T14:54:01.000Z</time>
        <extensions>
          <ns3:TrackPointExtension>
            <ns3:atemp>18.0</ns3:atemp>
          </ns3:TrackPointExtension>
        </extensions>
      </trkpt>
      <trkpt lat="46.76458599977195262908935546875" lon="6.85873635113239288330078125">
        <ele>431</ele>
        <time>2013-09-01T14:54:02.000Z</time>
        <extensions>
          <ns3:TrackPointExtension>
            <ns3:atemp>18.0</ns3:atemp>
          </ns3:TrackPointExtension>
        </extensions>
      </trkpt>
      <trkpt lat="46.76458599977195262908935546875" lon="6.85873635113239288330078125">
        <ele>431</ele>
        <time>2013-09-01T14:54:03.000Z</time>
        <extensions>
          <ns3:TrackPointExtension>
            <ns3:atemp>18.0</ns3:atemp>
          </ns3:TrackPointExtension>
        </extensions>
      </trkpt>
      <trkpt lat="46.76458599977195262908935546875" lon="6.85873635113239288330078125">
        <ele>431</ele>
        <time>2013-09-01T14:54:04.000Z</time>
        <extensions>
          <ns3:TrackPointExtension>
            <ns3:atemp>18.0</ns3:atemp>
          </ns3:TrackPointExtension>
        </extensions>
      </trkpt>
      <trkpt lat="46.76458599977195262908935546875" lon="6.85873635113239288330078125">
        <ele>431</ele>
        <time>2013-09-01T14:54:05.000Z</time>
        <extensions>
          <ns3:TrackPointExtension>
            <ns3:atemp>18.0</ns3:atemp>
          </ns3:TrackPointExtension>
        </extensions>
      </trkpt>
      <trkpt lat="46.76458599977195262908935546875" lon="6.85873635113239288330078125">
        <ele>431</ele>
        <time>2013-09-01T14:54:06.000Z</time>
        <extensions>
          <ns3:TrackPointExtension>
            <ns3:atemp>18.0</ns3:atemp>
          </ns3:TrackPointExtension>
        </extensions>
      </trkpt>
      <trkpt lat="46.76458599977195262908935546875" lon="6.85873635113239288330078125">
        <ele>431</ele>
        <time>2013-09-01T14:54:07.000Z</time>
        <extensions>
          <ns3:TrackPointExtension>
            <ns3:atemp>18.0</ns3:atemp>
          </ns3:TrackPointExtension>
        </extensions>
      </trkpt>
      <trkpt lat="46.76458599977195262908935546875" lon="6.85873635113239288330078125">
        <ele>431</ele>
        <time>2013-09-01T14:54:08.000Z</time>
        <extensions>
          <ns3:TrackPointExtension>
            <ns3:atemp>18.0</ns3:atemp>
          </ns3:TrackPointExtension>
        </extensions>
      </trkpt>
      <trkpt lat="46.76458599977195262908935546875" lon="6.85873635113239288330078125">
        <ele>431</ele>
        <time>2013-09-01T14:54:09.000Z</time>
        <extensions>
          <ns3:TrackPointExtension>
            <ns3:atemp>18.0</ns3:atemp>
          </ns3:TrackPointExtension>
        </extensions>
      </trkpt>
      <trkpt lat="46.76458599977195262908935546875" lon="6.85873635113239288330078125">
        <ele>431</ele>
        <time>2013-09-01T14:54:10.000Z</time>
        <extensions>
          <ns3:TrackPointExtension>
            <ns3:atemp>18.0</ns3:atemp>
          </ns3:TrackPointExtension>
        </extensions>
      </trkpt>
      <trkpt lat="46.76458599977195262908935546875" lon="6.85873635113239288330078125">
        <ele>431</ele>
        <time>2013-09-01T14:54:11.000Z</time>
        <extensions>
          <ns3:TrackPointExtension>
            <ns3:atemp>18.0</ns3:atemp>
          </ns3:TrackPointExtension>
        </extensions>
      </trkpt>
      <trkpt lat="46.76458599977195262908935546875" lon="6.85873635113239288330078125">
        <ele>431</ele>
        <time>2013-09-01T14:54:12.000Z</time>
        <extensions>
          <ns3:TrackPointExtension>
            <ns3:atemp>18.0</ns3:atemp>
          </ns3:TrackPointExtension>
        </extensions>
      </trkpt>
      <trkpt lat="46.76458599977195262908935546875" lon="6.85873635113239288330078125">
        <ele>431</ele>
        <time>2013-09-01T14:54:13.000Z</time>
        <extensions>
          <ns3:TrackPointExtension>
            <ns3:atemp>18.0</ns3:atemp>
          </ns3:TrackPointExtension>
        </extensions>
      </trkpt>
      <trkpt lat="46.76458599977195262908935546875" lon="6.85873635113239288330078125">
        <ele>431.20001220703125</ele>
        <time>2013-09-01T14:54:14.000Z</time>
        <extensions>
          <ns3:TrackPointExtension>
            <ns3:atemp>18.0</ns3:atemp>
          </ns3:TrackPointExtension>
        </extensions>
      </trkpt>
      <trkpt lat="46.76458599977195262908935546875" lon="6.85873635113239288330078125">
        <ele>431.20001220703125</ele>
        <time>2013-09-01T14:54:15.000Z</time>
        <extensions>
          <ns3:TrackPointExtension>
            <ns3:atemp>18.0</ns3:atemp>
          </ns3:TrackPointExtension>
        </extensions>
      </trkpt>
      <trkpt lat="46.76458599977195262908935546875" lon="6.85873635113239288330078125">
        <ele>431.399993896484375</ele>
        <time>2013-09-01T14:54:16.000Z</time>
        <extensions>
          <ns3:TrackPointExtension>
            <ns3:atemp>18.0</ns3:atemp>
          </ns3:TrackPointExtension>
        </extensions>
      </trkpt>
      <trkpt lat="46.76458599977195262908935546875" lon="6.85873635113239288330078125">
        <ele>431.399993896484375</ele>
        <time>2013-09-01T14:54:17.000Z</time>
        <extensions>
          <ns3:TrackPointExtension>
            <ns3:atemp>18.0</ns3:atemp>
          </ns3:TrackPointExtension>
        </extensions>
      </trkpt>
      <trkpt lat="46.76458599977195262908935546875" lon="6.85873635113239288330078125">
        <ele>431.20001220703125</ele>
        <time>2013-09-01T14:54:18.000Z</time>
        <extensions>
          <ns3:TrackPointExtension>
            <ns3:atemp>18.0</ns3:atemp>
          </ns3:TrackPointExtension>
        </extensions>
      </trkpt>
      <trkpt lat="46.76458599977195262908935546875" lon="6.85873635113239288330078125">
        <ele>431.20001220703125</ele>
        <time>2013-09-01T14:54:19.000Z</time>
        <extensions>
          <ns3:TrackPointExtension>
            <ns3:atemp>18.0</ns3:atemp>
          </ns3:TrackPointExtension>
        </extensions>
      </trkpt>
      <trkpt lat="46.76458599977195262908935546875" lon="6.85873635113239288330078125">
        <ele>431.20001220703125</ele>
        <time>2013-09-01T14:54:20.000Z</time>
        <extensions>
          <ns3:TrackPointExtension>
            <ns3:atemp>18.0</ns3:atemp>
          </ns3:TrackPointExtension>
        </extensions>
      </trkpt>
      <trkpt lat="46.76458599977195262908935546875" lon="6.85873635113239288330078125">
        <ele>431.20001220703125</ele>
        <time>2013-09-01T14:54:21.000Z</time>
        <extensions>
          <ns3:TrackPointExtension>
            <ns3:atemp>18.0</ns3:atemp>
          </ns3:TrackPointExtension>
        </extensions>
      </trkpt>
      <trkpt lat="46.76458599977195262908935546875" lon="6.85873635113239288330078125">
        <ele>431.20001220703125</ele>
        <time>2013-09-01T14:54:22.000Z</time>
        <extensions>
          <ns3:TrackPointExtension>
            <ns3:atemp>18.0</ns3:atemp>
          </ns3:TrackPointExtension>
        </extensions>
      </trkpt>
      <trkpt lat="46.76458599977195262908935546875" lon="6.85873635113239288330078125">
        <ele>431.399993896484375</ele>
        <time>2013-09-01T14:54:23.000Z</time>
        <extensions>
          <ns3:TrackPointExtension>
            <ns3:atemp>18.0</ns3:atemp>
          </ns3:TrackPointExtension>
        </extensions>
      </trkpt>
      <trkpt lat="46.76458599977195262908935546875" lon="6.85873635113239288330078125">
        <ele>431.399993896484375</ele>
        <time>2013-09-01T14:54:24.000Z</time>
        <extensions>
          <ns3:TrackPointExtension>
            <ns3:atemp>18.0</ns3:atemp>
          </ns3:TrackPointExtension>
        </extensions>
      </trkpt>
      <trkpt lat="46.76458599977195262908935546875" lon="6.85873635113239288330078125">
        <ele>431.399993896484375</ele>
        <time>2013-09-01T14:54:25.000Z</time>
        <extensions>
          <ns3:TrackPointExtension>
            <ns3:atemp>18.0</ns3:atemp>
          </ns3:TrackPointExtension>
        </extensions>
      </trkpt>
      <trkpt lat="46.76458172500133514404296875" lon="6.8587187491357326507568359375">
        <ele>431.20001220703125</ele>
        <time>2013-09-01T14:54:26.000Z</time>
        <extensions>
          <ns3:TrackPointExtension>
            <ns3:atemp>18.0</ns3:atemp>
          </ns3:TrackPointExtension>
        </extensions>
      </trkpt>
      <trkpt lat="46.764578036963939666748046875" lon="6.8587060086429119110107421875">
        <ele>431.20001220703125</ele>
        <time>2013-09-01T14:54:27.000Z</time>
        <extensions>
          <ns3:TrackPointExtension>
            <ns3:atemp>18.0</ns3:atemp>
          </ns3:TrackPointExtension>
        </extensions>
      </trkpt>
      <trkpt lat="46.76457107998430728912353515625" lon="6.85868597589433193206787109375">
        <ele>431.20001220703125</ele>
        <time>2013-09-01T14:54:28.000Z</time>
        <extensions>
          <ns3:TrackPointExtension>
            <ns3:atemp>18.0</ns3:atemp>
          </ns3:TrackPointExtension>
        </extensions>
      </trkpt>
      <trkpt lat="46.7645617760717868804931640625" lon="6.8586573936045169830322265625">
        <ele>431.399993896484375</ele>
        <time>2013-09-01T14:54:29.000Z</time>
        <extensions>
          <ns3:TrackPointExtension>
            <ns3:atemp>18.0</ns3:atemp>
          </ns3:TrackPointExtension>
        </extensions>
      </trkpt>
      <trkpt lat="46.76455381326377391815185546875" lon="6.8586265482008457183837890625">
        <ele>431.600006103515625</ele>
        <time>2013-09-01T14:54:30.000Z</time>
        <extensions>
          <ns3:TrackPointExtension>
            <ns3:atemp>18.0</ns3:atemp>
          </ns3:TrackPointExtension>
        </extensions>
      </trkpt>
      <trkpt lat="46.7645463533699512481689453125" lon="6.858593858778476715087890625">
        <ele>432</ele>
        <time>2013-09-01T14:54:31.000Z</time>
        <extensions>
          <ns3:TrackPointExtension>
            <ns3:atemp>18.0</ns3:atemp>
          </ns3:TrackPointExtension>
        </extensions>
      </trkpt>
      <trkpt lat="46.764535121619701385498046875" lon="6.8585599958896636962890625">
        <ele>432.20001220703125</ele>
        <time>2013-09-01T14:54:32.000Z</time>
        <extensions>
          <ns3:TrackPointExtension>
            <ns3:atemp>18.0</ns3:atemp>
          </ns3:TrackPointExtension>
        </extensions>
      </trkpt>
      <trkpt lat="46.76452179439365863800048828125" lon="6.858527474105358123779296875">
        <ele>432.399993896484375</ele>
        <time>2013-09-01T14:54:33.000Z</time>
        <extensions>
          <ns3:TrackPointExtension>
            <ns3:atemp>18.0</ns3:atemp>
          </ns3:TrackPointExtension>
        </extensions>
      </trkpt>
      <trkpt lat="46.76450930535793304443359375" lon="6.858493275940418243408203125">
        <ele>432.600006103515625</ele>
        <time>2013-09-01T14:54:34.000Z</time>
        <extensions>
          <ns3:TrackPointExtension>
            <ns3:atemp>18.0</ns3:atemp>
          </ns3:TrackPointExtension>
        </extensions>
      </trkpt>
      <trkpt lat="46.764497570693492889404296875" lon="6.858459077775478363037109375">
        <ele>432.79998779296875</ele>
        <time>2013-09-01T14:54:35.000Z</time>
        <extensions>
          <ns3:TrackPointExtension>
            <ns3:atemp>18.0</ns3:atemp>
          </ns3:TrackPointExtension>
        </extensions>
      </trkpt>
      <trkpt lat="46.76448541693389415740966796875" lon="6.858426220715045928955078125">
        <ele>433.20001220703125</ele>
        <time>2013-09-01T14:54:36.000Z</time>
        <extensions>
          <ns3:TrackPointExtension>
            <ns3:atemp>18.0</ns3:atemp>
          </ns3:TrackPointExtension>
        </extensions>
      </trkpt>
      <trkpt lat="46.76447443664073944091796875" lon="6.858394034206867218017578125">
        <ele>433.399993896484375</ele>
        <time>2013-09-01T14:54:37.000Z</time>
        <extensions>
          <ns3:TrackPointExtension>
            <ns3:atemp>18.0</ns3:atemp>
          </ns3:TrackPointExtension>
        </extensions>
      </trkpt>
      <trkpt lat="46.76446379162371158599853515625" lon="6.85836276970803737640380859375">
        <ele>433.79998779296875</ele>
        <time>2013-09-01T14:54:38.000Z</time>
        <extensions>
          <ns3:TrackPointExtension>
            <ns3:atemp>18.0</ns3:atemp>
          </ns3:TrackPointExtension>
        </extensions>
      </trkpt>
      <trkpt lat="46.7644494585692882537841796875" lon="6.85833343304693698883056640625">
        <ele>434</ele>
        <time>2013-09-01T14:54:39.000Z</time>
        <extensions>
          <ns3:TrackPointExtension>
            <ns3:atemp>18.0</ns3:atemp>
          </ns3:TrackPointExtension>
        </extensions>
      </trkpt>
      <trkpt lat="46.76443554461002349853515625" lon="6.858306191861629486083984375">
        <ele>434.20001220703125</ele>
        <time>2013-09-01T14:54:40.000Z</time>
        <extensions>
          <ns3:TrackPointExtension>
            <ns3:atemp>18.0</ns3:atemp>
          </ns3:TrackPointExtension>
        </extensions>
      </trkpt>
      <trkpt lat="46.76442456431686878204345703125" lon="6.858281381428241729736328125">
        <ele>434.600006103515625</ele>
        <time>2013-09-01T14:54:41.000Z</time>
        <extensions>
          <ns3:TrackPointExtension>
            <ns3:atemp>18.0</ns3:atemp>
          </ns3:TrackPointExtension>
        </extensions>
      </trkpt>
      <trkpt lat="46.76441467367112636566162109375" lon="6.85825623571872711181640625">
        <ele>435.20001220703125</ele>
        <time>2013-09-01T14:54:42.000Z</time>
        <extensions>
          <ns3:TrackPointExtension>
            <ns3:atemp>18.0</ns3:atemp>
          </ns3:TrackPointExtension>
        </extensions>
      </trkpt>
      <trkpt lat="46.7644052021205425262451171875" lon="6.85822932980954647064208984375">
        <ele>435.399993896484375</ele>
        <time>2013-09-01T14:54:43.000Z</time>
        <extensions>
          <ns3:TrackPointExtension>
            <ns3:atemp>18.0</ns3:atemp>
          </ns3:TrackPointExtension>
        </extensions>
      </trkpt>
      <trkpt lat="46.76439690403640270233154296875" lon="6.8582005798816680908203125">
        <ele>435.600006103515625</ele>
        <time>2013-09-01T14:54:44.000Z</time>
        <extensions>
          <ns3:TrackPointExtension>
            <ns3:atemp>18.0</ns3:atemp>
          </ns3:TrackPointExtension>
        </extensions>
      </trkpt>
      <trkpt lat="46.76438952796161174774169921875" lon="6.85816965065896511077880859375">
        <ele>436</ele>
        <time>2013-09-01T14:54:45.000Z</time>
        <extensions>
          <ns3:TrackPointExtension>
            <ns3:atemp>18.0</ns3:atemp>
          </ns3:TrackPointExtension>
        </extensions>
      </trkpt>
      <trkpt lat="46.7643830738961696624755859375" lon="6.85814232565462589263916015625">
        <ele>436.20001220703125</ele>
        <time>2013-09-01T14:54:46.000Z</time>
        <extensions>
          <ns3:TrackPointExtension>
            <ns3:atemp>18.0</ns3:atemp>
          </ns3:TrackPointExtension>
        </extensions>
      </trkpt>
      <trkpt lat="46.76437661983072757720947265625" lon="6.85811751522123813629150390625">
        <ele>436.600006103515625</ele>
        <time>2013-09-01T14:54:47.000Z</time>
        <extensions>
          <ns3:TrackPointExtension>
            <ns3:atemp>18.0</ns3:atemp>
          </ns3:TrackPointExtension>
        </extensions>
      </trkpt>
      <trkpt lat="46.76437092013657093048095703125" lon="6.858088262379169464111328125">
        <ele>436.79998779296875</ele>
        <time>2013-09-01T14:54:48.000Z</time>
        <extensions>
          <ns3:TrackPointExtension>
            <ns3:atemp>18.0</ns3:atemp>
          </ns3:TrackPointExtension>
        </extensions>
      </trkpt>
      <trkpt lat="46.76436421461403369903564453125" lon="6.85805498622357845306396484375">
        <ele>437</ele>
        <time>2013-09-01T14:54:49.000Z</time>
        <extensions>
          <ns3:TrackPointExtension>
            <ns3:atemp>18.0</ns3:atemp>
          </ns3:TrackPointExtension>
        </extensions>
      </trkpt>
      <trkpt lat="46.7643552459776401519775390625" lon="6.8580230511724948883056640625">
        <ele>437.20001220703125</ele>
        <time>2013-09-01T14:54:50.000Z</time>
        <extensions>
          <ns3:TrackPointExtension>
            <ns3:atemp>18.0</ns3:atemp>
          </ns3:TrackPointExtension>
        </extensions>
      </trkpt>
      <trkpt lat="46.7643428407609462738037109375" lon="6.8579925410449504852294921875">
        <ele>437.600006103515625</ele>
        <time>2013-09-01T14:54:51.000Z</time>
        <extensions>
          <ns3:TrackPointExtension>
            <ns3:atemp>18.0</ns3:atemp>
          </ns3:TrackPointExtension>
        </extensions>
      </trkpt>
      <trkpt lat="46.76432867534458637237548828125" lon="6.857961528003215789794921875">
        <ele>438</ele>
        <time>2013-09-01T14:54:52.000Z</time>
        <extensions>
          <ns3:TrackPointExtension>
            <ns3:atemp>18.0</ns3:atemp>
          </ns3:TrackPointExtension>
        </extensions>
      </trkpt>
      <trkpt lat="46.764315851032733917236328125" lon="6.8579298444092273712158203125">
        <ele>438.20001220703125</ele>
        <time>2013-09-01T14:54:53.000Z</time>
        <extensions>
          <ns3:TrackPointExtension>
            <ns3:atemp>18.0</ns3:atemp>
          </ns3:TrackPointExtension>
        </extensions>
      </trkpt>
      <trkpt lat="46.76430269144475460052490234375" lon="6.8578976579010486602783203125">
        <ele>438.399993896484375</ele>
        <time>2013-09-01T14:54:54.000Z</time>
        <extensions>
          <ns3:TrackPointExtension>
            <ns3:atemp>18.0</ns3:atemp>
          </ns3:TrackPointExtension>
        </extensions>
      </trkpt>
      <trkpt lat="46.76428995095193386077880859375" lon="6.85786572284996509552001953125">
        <ele>438.79998779296875</ele>
        <time>2013-09-01T14:54:55.000Z</time>
        <extensions>
          <ns3:TrackPointExtension>
            <ns3:atemp>18.0</ns3:atemp>
          </ns3:TrackPointExtension>
        </extensions>
      </trkpt>
      <trkpt lat="46.76427855156362056732177734375" lon="6.857830099761486053466796875">
        <ele>439.20001220703125</ele>
        <time>2013-09-01T14:54:56.000Z</time>
        <extensions>
          <ns3:TrackPointExtension>
            <ns3:atemp>18.0</ns3:atemp>
          </ns3:TrackPointExtension>
        </extensions>
      </trkpt>
      <trkpt lat="46.76427117548882961273193359375" lon="6.8577943928539752960205078125">
        <ele>439.600006103515625</ele>
        <time>2013-09-01T14:54:57.000Z</time>
        <extensions>
          <ns3:TrackPointExtension>
            <ns3:atemp>18.0</ns3:atemp>
          </ns3:TrackPointExtension>
        </extensions>
      </trkpt>
      <trkpt lat="46.764262877404689788818359375" lon="6.857761703431606292724609375">
        <ele>439.79998779296875</ele>
        <time>2013-09-01T14:54:58.000Z</time>
        <extensions>
          <ns3:TrackPointExtension>
            <ns3:atemp>18.0</ns3:atemp>
          </ns3:TrackPointExtension>
        </extensions>
      </trkpt>
      <trkpt lat="46.76425390876829624176025390625" lon="6.8577293492853641510009765625">
        <ele>440.20001220703125</ele>
        <time>2013-09-01T14:54:59.000Z</time>
        <extensions>
          <ns3:TrackPointExtension>
            <ns3:atemp>18.0</ns3:atemp>
          </ns3:TrackPointExtension>
        </extensions>
      </trkpt>
      <trkpt lat="46.76424485631287097930908203125" lon="6.85769372619688510894775390625">
        <ele>440.399993896484375</ele>
        <time>2013-09-01T14:55:00.000Z</time>
        <extensions>
          <ns3:TrackPointExtension>
            <ns3:atemp>18.0</ns3:atemp>
          </ns3:TrackPointExtension>
        </extensions>
      </trkpt>
      <trkpt lat="46.76423530094325542449951171875" lon="6.857660450041294097900390625">
        <ele>440.79998779296875</ele>
        <time>2013-09-01T14:55:01.000Z</time>
        <extensions>
          <ns3:TrackPointExtension>
            <ns3:atemp>18.0</ns3:atemp>
          </ns3:TrackPointExtension>
        </extensions>
      </trkpt>
      <trkpt lat="46.76422608084976673126220703125" lon="6.8576264195144176483154296875">
        <ele>441</ele>
        <time>2013-09-01T14:55:02.000Z</time>
        <extensions>
          <ns3:TrackPointExtension>
            <ns3:atemp>18.0</ns3:atemp>
          </ns3:TrackPointExtension>
        </extensions>
      </trkpt>
      <trkpt lat="46.7642221413552761077880859375" lon="6.85759381391108036041259765625">
        <ele>441.399993896484375</ele>
        <time>2013-09-01T14:55:03.000Z</time>
        <extensions>
          <ns3:TrackPointExtension>
            <ns3:atemp>18.0</ns3:atemp>
          </ns3:TrackPointExtension>
        </extensions>
      </trkpt>
      <trkpt lat="46.76421954296529293060302734375" lon="6.85756129212677478790283203125">
        <ele>441.600006103515625</ele>
        <time>2013-09-01T14:55:04.000Z</time>
        <extensions>
          <ns3:TrackPointExtension>
            <ns3:atemp>18.0</ns3:atemp>
          </ns3:TrackPointExtension>
        </extensions>
      </trkpt>
      <trkpt lat="46.76422306336462497711181640625" lon="6.8575228191912174224853515625">
        <ele>442</ele>
        <time>2013-09-01T14:55:05.000Z</time>
        <extensions>
          <ns3:TrackPointExtension>
            <ns3:atemp>18.0</ns3:atemp>
          </ns3:TrackPointExtension>
        </extensions>
      </trkpt>
      <trkpt lat="46.7642288468778133392333984375" lon="6.8574839271605014801025390625">
        <ele>442.600006103515625</ele>
        <time>2013-09-01T14:55:06.000Z</time>
        <extensions>
          <ns3:TrackPointExtension>
            <ns3:atemp>18.0</ns3:atemp>
          </ns3:TrackPointExtension>
        </extensions>
      </trkpt>
      <trkpt lat="46.76423496566712856292724609375" lon="6.85744277201592922210693359375">
        <ele>442.79998779296875</ele>
        <time>2013-09-01T14:55:07.000Z</time>
        <extensions>
          <ns3:TrackPointExtension>
            <ns3:atemp>18.0</ns3:atemp>
          </ns3:TrackPointExtension>
        </extensions>
      </trkpt>
      <trkpt lat="46.76423748023808002471923828125" lon="6.85740807093679904937744140625">
        <ele>443</ele>
        <time>2013-09-01T14:55:08.000Z</time>
        <extensions>
          <ns3:TrackPointExtension>
            <ns3:atemp>18.0</ns3:atemp>
          </ns3:TrackPointExtension>
        </extensions>
      </trkpt>
      <trkpt lat="46.7642402462661266326904296875" lon="6.85737655498087406158447265625">
        <ele>443.399993896484375</ele>
        <time>2013-09-01T14:55:09.000Z</time>
        <extensions>
          <ns3:TrackPointExtension>
            <ns3:atemp>18.0</ns3:atemp>
          </ns3:TrackPointExtension>
        </extensions>
      </trkpt>
      <trkpt lat="46.7642419226467609405517578125" lon="6.85734235681593418121337890625">
        <ele>443.79998779296875</ele>
        <time>2013-09-01T14:55:10.000Z</time>
        <extensions>
          <ns3:TrackPointExtension>
            <ns3:atemp>18.0</ns3:atemp>
          </ns3:TrackPointExtension>
        </extensions>
      </trkpt>
      <trkpt lat="46.76424854435026645660400390625" lon="6.8573095835745334625244140625">
        <ele>444</ele>
        <time>2013-09-01T14:55:11.000Z</time>
        <extensions>
          <ns3:TrackPointExtension>
            <ns3:atemp>18.0</ns3:atemp>
          </ns3:TrackPointExtension>
        </extensions>
      </trkpt>
      <trkpt lat="46.76425809971988201141357421875" lon="6.8572794087231159210205078125">
        <ele>444.399993896484375</ele>
        <time>2013-09-01T14:55:12.000Z</time>
        <extensions>
          <ns3:TrackPointExtension>
            <ns3:atemp>18.0</ns3:atemp>
          </ns3:TrackPointExtension>
        </extensions>
      </trkpt>
      <trkpt lat="46.764265559613704681396484375" lon="6.85724864713847637176513671875">
        <ele>444.600006103515625</ele>
        <time>2013-09-01T14:55:13.000Z</time>
        <extensions>
          <ns3:TrackPointExtension>
            <ns3:atemp>18.0</ns3:atemp>
          </ns3:TrackPointExtension>
        </extensions>
      </trkpt>
      <trkpt lat="46.76427318714559078216552734375" lon="6.85722165741026401519775390625">
        <ele>444.79998779296875</ele>
        <time>2013-09-01T14:55:14.000Z</time>
        <extensions>
          <ns3:TrackPointExtension>
            <ns3:atemp>18.0</ns3:atemp>
          </ns3:TrackPointExtension>
        </extensions>
      </trkpt>
      <trkpt lat="46.76427989266812801361083984375" lon="6.85719600878655910491943359375">
        <ele>445.20001220703125</ele>
        <time>2013-09-01T14:55:15.000Z</time>
        <extensions>
          <ns3:TrackPointExtension>
            <ns3:atemp>18.0</ns3:atemp>
          </ns3:TrackPointExtension>
        </extensions>
      </trkpt>
      <trkpt lat="46.764281652867794036865234375" lon="6.8571640737354755401611328125">
        <ele>445.399993896484375</ele>
        <time>2013-09-01T14:55:16.000Z</time>
        <extensions>
          <ns3:TrackPointExtension>
            <ns3:atemp>18.0</ns3:atemp>
          </ns3:TrackPointExtension>
        </extensions>
      </trkpt>
      <trkpt lat="46.7642875202000141143798828125" lon="6.85712995938956737518310546875">
        <ele>445.79998779296875</ele>
        <time>2013-09-01T14:55:17.000Z</time>
        <extensions>
          <ns3:TrackPointExtension>
            <ns3:atemp>18.0</ns3:atemp>
          </ns3:TrackPointExtension>
        </extensions>
      </trkpt>
      <trkpt lat="46.7642922140657901763916015625" lon="6.85708947479724884033203125">
        <ele>446</ele>
        <time>2013-09-01T14:55:18.000Z</time>
        <extensions>
          <ns3:TrackPointExtension>
            <ns3:atemp>18.0</ns3:atemp>
          </ns3:TrackPointExtension>
        </extensions>
      </trkpt>
      <trkpt lat="46.76430000923573970794677734375" lon="6.85705284588038921356201171875">
        <ele>446.20001220703125</ele>
        <time>2013-09-01T14:55:19.000Z</time>
        <extensions>
          <ns3:TrackPointExtension>
            <ns3:atemp>18.0</ns3:atemp>
          </ns3:TrackPointExtension>
        </extensions>
      </trkpt>
      <trkpt lat="46.7643047869205474853515625" lon="6.85701345093548297882080078125">
        <ele>446.600006103515625</ele>
        <time>2013-09-01T14:55:20.000Z</time>
        <extensions>
          <ns3:TrackPointExtension>
            <ns3:atemp>18.0</ns3:atemp>
          </ns3:TrackPointExtension>
        </extensions>
      </trkpt>
      <trkpt lat="46.764311157166957855224609375" lon="6.85696952976286411285400390625">
        <ele>447</ele>
        <time>2013-09-01T14:55:21.000Z</time>
        <extensions>
          <ns3:TrackPointExtension>
            <ns3:atemp>18.0</ns3:atemp>
          </ns3:TrackPointExtension>
        </extensions>
      </trkpt>
      <trkpt lat="46.76432113163173198699951171875" lon="6.8569310568273067474365234375">
        <ele>447.20001220703125</ele>
        <time>2013-09-01T14:55:22.000Z</time>
        <extensions>
          <ns3:TrackPointExtension>
            <ns3:atemp>18.0</ns3:atemp>
          </ns3:TrackPointExtension>
        </extensions>
      </trkpt>
      <trkpt lat="46.76433093845844268798828125" lon="6.856889314949512481689453125">
        <ele>447.399993896484375</ele>
        <time>2013-09-01T14:55:23.000Z</time>
        <extensions>
          <ns3:TrackPointExtension>
            <ns3:atemp>18.0</ns3:atemp>
          </ns3:TrackPointExtension>
        </extensions>
      </trkpt>
      <trkpt lat="46.76434342749416828155517578125" lon="6.85685100965201854705810546875">
        <ele>447.600006103515625</ele>
        <time>2013-09-01T14:55:24.000Z</time>
        <extensions>
          <ns3:TrackPointExtension>
            <ns3:atemp>18.0</ns3:atemp>
          </ns3:TrackPointExtension>
        </extensions>
      </trkpt>
      <trkpt lat="46.76435667090117931365966796875" lon="6.85681748203933238983154296875">
        <ele>447.79998779296875</ele>
        <time>2013-09-01T14:55:25.000Z</time>
        <extensions>
          <ns3:TrackPointExtension>
            <ns3:atemp>18.0</ns3:atemp>
          </ns3:TrackPointExtension>
        </extensions>
      </trkpt>
      <trkpt lat="46.7643686570227146148681640625" lon="6.8567858822643756866455078125">
        <ele>448</ele>
        <time>2013-09-01T14:55:26.000Z</time>
        <extensions>
          <ns3:TrackPointExtension>
            <ns3:atemp>18.0</ns3:atemp>
          </ns3:TrackPointExtension>
        </extensions>
      </trkpt>
      <trkpt lat="46.7643783800303936004638671875" lon="6.85675294138491153717041015625">
        <ele>448.399993896484375</ele>
        <time>2013-09-01T14:55:27.000Z</time>
        <extensions>
          <ns3:TrackPointExtension>
            <ns3:atemp>18.0</ns3:atemp>
          </ns3:TrackPointExtension>
        </extensions>
      </trkpt>
      <trkpt lat="46.764390952885150909423828125" lon="6.85672025196254253387451171875">
        <ele>448.600006103515625</ele>
        <time>2013-09-01T14:55:28.000Z</time>
        <extensions>
          <ns3:TrackPointExtension>
            <ns3:atemp>18.0</ns3:atemp>
          </ns3:TrackPointExtension>
        </extensions>
      </trkpt>
      <trkpt lat="46.76440411247313022613525390625" lon="6.85669158585369586944580078125">
        <ele>448.79998779296875</ele>
        <time>2013-09-01T14:55:29.000Z</time>
        <extensions>
          <ns3:TrackPointExtension>
            <ns3:atemp>18.0</ns3:atemp>
          </ns3:TrackPointExtension>
        </extensions>
      </trkpt>
      <trkpt lat="46.76441869698464870452880859375" lon="6.85666509903967380523681640625">
        <ele>449.20001220703125</ele>
        <time>2013-09-01T14:55:30.000Z</time>
        <extensions>
          <ns3:TrackPointExtension>
            <ns3:atemp>18.0</ns3:atemp>
          </ns3:TrackPointExtension>
        </extensions>
      </trkpt>
      <trkpt lat="46.7644340358674526214599609375" lon="6.8566457368433475494384765625">
        <ele>449.20001220703125</ele>
        <time>2013-09-01T14:55:31.000Z</time>
        <extensions>
          <ns3:TrackPointExtension>
            <ns3:atemp>18.0</ns3:atemp>
          </ns3:TrackPointExtension>
        </extensions>
      </trkpt>
      <trkpt lat="46.76444853655993938446044921875" lon="6.8566222675144672393798828125">
        <ele>449.20001220703125</ele>
        <time>2013-09-01T14:55:32.000Z</time>
        <extensions>
          <ns3:TrackPointExtension>
            <ns3:atemp>18.0</ns3:atemp>
          </ns3:TrackPointExtension>
        </extensions>
      </trkpt>
      <trkpt lat="46.76446496509015560150146484375" lon="6.856599636375904083251953125">
        <ele>449.399993896484375</ele>
        <time>2013-09-01T14:55:33.000Z</time>
        <extensions>
          <ns3:TrackPointExtension>
            <ns3:atemp>18.0</ns3:atemp>
          </ns3:TrackPointExtension>
        </extensions>
      </trkpt>
      <trkpt lat="46.764482147991657257080078125" lon="6.85657180845737457275390625">
        <ele>449.600006103515625</ele>
        <time>2013-09-01T14:55:34.000Z</time>
        <extensions>
          <ns3:TrackPointExtension>
            <ns3:atemp>18.0</ns3:atemp>
          </ns3:TrackPointExtension>
        </extensions>
      </trkpt>
      <trkpt lat="46.76449916325509548187255859375" lon="6.85654624365270137786865234375">
        <ele>449.79998779296875</ele>
        <time>2013-09-01T14:55:35.000Z</time>
        <extensions>
          <ns3:TrackPointExtension>
            <ns3:atemp>18.0</ns3:atemp>
          </ns3:TrackPointExtension>
        </extensions>
      </trkpt>
      <trkpt lat="46.76451827399432659149169921875" lon="6.85652210377156734466552734375">
        <ele>450</ele>
        <time>2013-09-01T14:55:36.000Z</time>
        <extensions>
          <ns3:TrackPointExtension>
            <ns3:atemp>18.0</ns3:atemp>
          </ns3:TrackPointExtension>
        </extensions>
      </trkpt>
      <trkpt lat="46.76453336142003536224365234375" lon="6.8564992211759090423583984375">
        <ele>450.20001220703125</ele>
        <time>2013-09-01T14:55:37.000Z</time>
        <extensions>
          <ns3:TrackPointExtension>
            <ns3:atemp>18.0</ns3:atemp>
          </ns3:TrackPointExtension>
        </extensions>
      </trkpt>
      <trkpt lat="46.764550544321537017822265625" lon="6.8564787693321704864501953125">
        <ele>450.399993896484375</ele>
        <time>2013-09-01T14:55:38.000Z</time>
        <extensions>
          <ns3:TrackPointExtension>
            <ns3:atemp>18.0</ns3:atemp>
          </ns3:TrackPointExtension>
        </extensions>
      </trkpt>
      <trkpt lat="46.76456873305141925811767578125" lon="6.85645303688943386077880859375">
        <ele>450.399993896484375</ele>
        <time>2013-09-01T14:55:39.000Z</time>
        <extensions>
          <ns3:TrackPointExtension>
            <ns3:atemp>18.0</ns3:atemp>
          </ns3:TrackPointExtension>
        </extensions>
      </trkpt>
      <trkpt lat="46.76458801142871379852294921875" lon="6.85642705298960208892822265625">
        <ele>450.600006103515625</ele>
        <time>2013-09-01T14:55:40.000Z</time>
        <extensions>
          <ns3:TrackPointExtension>
            <ns3:atemp>18.0</ns3:atemp>
          </ns3:TrackPointExtension>
        </extensions>
      </trkpt>
      <trkpt lat="46.7646063677966594696044921875" lon="6.856399811804294586181640625">
        <ele>450.600006103515625</ele>
        <time>2013-09-01T14:55:41.000Z</time>
        <extensions>
          <ns3:TrackPointExtension>
            <ns3:atemp>18.0</ns3:atemp>
          </ns3:TrackPointExtension>
        </extensions>
      </trkpt>
      <trkpt lat="46.76462539471685886383056640625" lon="6.85637340880930423736572265625">
        <ele>450.79998779296875</ele>
        <time>2013-09-01T14:55:42.000Z</time>
        <extensions>
          <ns3:TrackPointExtension>
            <ns3:atemp>18.0</ns3:atemp>
          </ns3:TrackPointExtension>
        </extensions>
      </trkpt>
      <trkpt lat="46.7646402306854724884033203125" lon="6.856349520385265350341796875">
        <ele>450.79998779296875</ele>
        <time>2013-09-01T14:55:43.000Z</time>
        <extensions>
          <ns3:TrackPointExtension>
            <ns3:atemp>18.0</ns3:atemp>
          </ns3:TrackPointExtension>
        </extensions>
      </trkpt>
      <trkpt lat="46.7646556533873081207275390625" lon="6.85632915236055850982666015625">
        <ele>451</ele>
        <time>2013-09-01T14:55:44.000Z</time>
        <extensions>
          <ns3:TrackPointExtension>
            <ns3:atemp>18.0</ns3:atemp>
          </ns3:TrackPointExtension>
        </extensions>
      </trkpt>
      <trkpt lat="46.76466529257595539093017578125" lon="6.856306605041027069091796875">
        <ele>451.20001220703125</ele>
        <time>2013-09-01T14:55:45.000Z</time>
        <extensions>
          <ns3:TrackPointExtension>
            <ns3:atemp>18.0</ns3:atemp>
          </ns3:TrackPointExtension>
        </extensions>
      </trkpt>
      <trkpt lat="46.7646724171936511993408203125" lon="6.85628187842667102813720703125">
        <ele>451.20001220703125</ele>
        <time>2013-09-01T14:55:46.000Z</time>
        <extensions>
          <ns3:TrackPointExtension>
            <ns3:atemp>18.0</ns3:atemp>
          </ns3:TrackPointExtension>
        </extensions>
      </trkpt>
      <trkpt lat="46.764681637287139892578125" lon="6.85626444406807422637939453125">
        <ele>451.20001220703125</ele>
        <time>2013-09-01T14:55:47.000Z</time>
        <extensions>
          <ns3:TrackPointExtension>
            <ns3:atemp>18.0</ns3:atemp>
          </ns3:TrackPointExtension>
        </extensions>
      </trkpt>
      <trkpt lat="46.764692701399326324462890625" lon="6.85625304467976093292236328125">
        <ele>451.399993896484375</ele>
        <time>2013-09-01T14:55:48.000Z</time>
        <extensions>
          <ns3:TrackPointExtension>
            <ns3:atemp>18.0</ns3:atemp>
          </ns3:TrackPointExtension>
        </extensions>
      </trkpt>
      <trkpt lat="46.764704100787639617919921875" lon="6.856241561472415924072265625">
        <ele>451.399993896484375</ele>
        <time>2013-09-01T14:55:49.000Z</time>
        <extensions>
          <ns3:TrackPointExtension>
            <ns3:atemp>18.0</ns3:atemp>
          </ns3:TrackPointExtension>
        </extensions>
      </trkpt>
      <trkpt lat="46.7647062800824642181396484375" lon="6.85622756369411945343017578125">
        <ele>451.399993896484375</ele>
        <time>2013-09-01T14:55:50.000Z</time>
        <extensions>
          <ns3:TrackPointExtension>
            <ns3:atemp>18.0</ns3:atemp>
          </ns3:TrackPointExtension>
        </extensions>
      </trkpt>
      <trkpt lat="46.7646962217986583709716796875" lon="6.85622538439929485321044921875">
        <ele>451.600006103515625</ele>
        <time>2013-09-01T14:55:51.000Z</time>
        <extensions>
          <ns3:TrackPointExtension>
            <ns3:atemp>18.0</ns3:atemp>
          </ns3:TrackPointExtension>
        </extensions>
      </trkpt>
      <trkpt lat="46.764683984220027923583984375" lon="6.85623653233051300048828125">
        <ele>451.600006103515625</ele>
        <time>2013-09-01T14:55:52.000Z</time>
        <extensions>
          <ns3:TrackPointExtension>
            <ns3:atemp>18.0</ns3:atemp>
          </ns3:TrackPointExtension>
        </extensions>
      </trkpt>
      <trkpt lat="46.7646722495555877685546875" lon="6.85626260004937648773193359375">
        <ele>451.600006103515625</ele>
        <time>2013-09-01T14:55:53.000Z</time>
        <extensions>
          <ns3:TrackPointExtension>
            <ns3:atemp>18.0</ns3:atemp>
          </ns3:TrackPointExtension>
        </extensions>
      </trkpt>
      <trkpt lat="46.76465992815792560577392578125" lon="6.85629822313785552978515625">
        <ele>451.79998779296875</ele>
        <time>2013-09-01T14:55:54.000Z</time>
        <extensions>
          <ns3:TrackPointExtension>
            <ns3:atemp>18.0</ns3:atemp>
          </ns3:TrackPointExtension>
        </extensions>
      </trkpt>
      <trkpt lat="46.76464584656059741973876953125" lon="6.856336109340190887451171875">
        <ele>451.79998779296875</ele>
        <time>2013-09-01T14:55:55.000Z</time>
        <extensions>
          <ns3:TrackPointExtension>
            <ns3:atemp>18.0</ns3:atemp>
          </ns3:TrackPointExtension>
        </extensions>
      </trkpt>
      <trkpt lat="46.76463126204907894134521484375" lon="6.85637625865638256072998046875">
        <ele>451.79998779296875</ele>
        <time>2013-09-01T14:55:56.000Z</time>
        <extensions>
          <ns3:TrackPointExtension>
            <ns3:atemp>18.0</ns3:atemp>
          </ns3:TrackPointExtension>
        </extensions>
      </trkpt>
      <trkpt lat="46.76460896618664264678955078125" lon="6.85641615651547908782958984375">
        <ele>451.600006103515625</ele>
        <time>2013-09-01T14:55:57.000Z</time>
        <extensions>
          <ns3:TrackPointExtension>
            <ns3:atemp>18.0</ns3:atemp>
          </ns3:TrackPointExtension>
        </extensions>
      </trkpt>
      <trkpt lat="46.76458264701068401336669921875" lon="6.85645739547908306121826171875">
        <ele>451.399993896484375</ele>
        <time>2013-09-01T14:55:58.000Z</time>
        <extensions>
          <ns3:TrackPointExtension>
            <ns3:atemp>18.0</ns3:atemp>
          </ns3:TrackPointExtension>
        </extensions>
      </trkpt>
      <trkpt lat="46.7645542323589324951171875" lon="6.8565000593662261962890625">
        <ele>451.399993896484375</ele>
        <time>2013-09-01T14:55:59.000Z</time>
        <extensions>
          <ns3:TrackPointExtension>
            <ns3:atemp>18.0</ns3:atemp>
          </ns3:TrackPointExtension>
        </extensions>
      </trkpt>
      <trkpt lat="46.7645252309739589691162109375" lon="6.85653752647340297698974609375">
        <ele>451.20001220703125</ele>
        <time>2013-09-01T14:56:00.000Z</time>
        <extensions>
          <ns3:TrackPointExtension>
            <ns3:atemp>18.0</ns3:atemp>
          </ns3:TrackPointExtension>
        </extensions>
      </trkpt>
      <trkpt lat="46.76449715159833431243896484375" lon="6.8565766699612140655517578125">
        <ele>451</ele>
        <time>2013-09-01T14:56:01.000Z</time>
        <extensions>
          <ns3:TrackPointExtension>
            <ns3:atemp>18.0</ns3:atemp>
          </ns3:TrackPointExtension>
        </extensions>
      </trkpt>
      <trkpt lat="46.7644739337265491485595703125" lon="6.85661665163934230804443359375">
        <ele>450.79998779296875</ele>
        <time>2013-09-01T14:56:02.000Z</time>
        <extensions>
          <ns3:TrackPointExtension>
            <ns3:atemp>18.0</ns3:atemp>
          </ns3:TrackPointExtension>
        </extensions>
      </trkpt>
      <trkpt lat="46.764453984797000885009765625" lon="6.8566551245748996734619140625">
        <ele>450.600006103515625</ele>
        <time>2013-09-01T14:56:03.000Z</time>
        <extensions>
          <ns3:TrackPointExtension>
            <ns3:atemp>18.0</ns3:atemp>
          </ns3:TrackPointExtension>
        </extensions>
      </trkpt>
      <trkpt lat="46.7644347064197063446044921875" lon="6.85668488033115863800048828125">
        <ele>450.600006103515625</ele>
        <time>2013-09-01T14:56:04.000Z</time>
        <extensions>
          <ns3:TrackPointExtension>
            <ns3:atemp>18.0</ns3:atemp>
          </ns3:TrackPointExtension>
        </extensions>
      </trkpt>
      <trkpt lat="46.7644179426133632659912109375" lon="6.85670918785035610198974609375">
        <ele>450.399993896484375</ele>
        <time>2013-09-01T14:56:05.000Z</time>
        <extensions>
          <ns3:TrackPointExtension>
            <ns3:atemp>18.0</ns3:atemp>
          </ns3:TrackPointExtension>
        </extensions>
      </trkpt>
      <trkpt lat="46.764401681721210479736328125" lon="6.85672762803733348846435546875">
        <ele>450</ele>
        <time>2013-09-01T14:56:06.000Z</time>
        <extensions>
          <ns3:TrackPointExtension>
            <ns3:atemp>18.0</ns3:atemp>
          </ns3:TrackPointExtension>
        </extensions>
      </trkpt>
      <trkpt lat="46.76439137198030948638916015625" lon="6.85674212872982025146484375">
        <ele>449.600006103515625</ele>
        <time>2013-09-01T14:56:07.000Z</time>
        <extensions>
          <ns3:TrackPointExtension>
            <ns3:atemp>18.0</ns3:atemp>
          </ns3:TrackPointExtension>
        </extensions>
      </trkpt>
      <trkpt lat="46.7643852531909942626953125" lon="6.8567530252039432525634765625">
        <ele>449.399993896484375</ele>
        <time>2013-09-01T14:56:08.000Z</time>
        <extensions>
          <ns3:TrackPointExtension>
            <ns3:atemp>18.0</ns3:atemp>
          </ns3:TrackPointExtension>
        </extensions>
      </trkpt>
      <trkpt lat="46.76437787711620330810546875" lon="6.85675897635519504547119140625">
        <ele>449.399993896484375</ele>
        <time>2013-09-01T14:56:09.000Z</time>
        <extensions>
          <ns3:TrackPointExtension>
            <ns3:atemp>18.0</ns3:atemp>
          </ns3:TrackPointExtension>
        </extensions>
      </trkpt>
      <trkpt lat="46.76436580717563629150390625" lon="6.85676551423966884613037109375">
        <ele>449.20001220703125</ele>
        <time>2013-09-01T14:56:10.000Z</time>
        <extensions>
          <ns3:TrackPointExtension>
            <ns3:atemp>18.0</ns3:atemp>
          </ns3:TrackPointExtension>
        </extensions>
      </trkpt>
      <trkpt lat="46.76434761844575405120849609375" lon="6.85676685534417629241943359375">
        <ele>449</ele>
        <time>2013-09-01T14:56:11.000Z</time>
        <extensions>
          <ns3:TrackPointExtension>
            <ns3:atemp>18.0</ns3:atemp>
          </ns3:TrackPointExtension>
        </extensions>
      </trkpt>
      <trkpt lat="46.76432331092655658721923828125" lon="6.8567637540400028228759765625">
        <ele>448.79998779296875</ele>
        <time>2013-09-01T14:56:12.000Z</time>
        <extensions>
          <ns3:TrackPointExtension>
            <ns3:atemp>18.0</ns3:atemp>
          </ns3:TrackPointExtension>
        </extensions>
      </trkpt>
      <trkpt lat="46.7642942257225513458251953125" lon="6.85676132328808307647705078125">
        <ele>448.600006103515625</ele>
        <time>2013-09-01T14:56:13.000Z</time>
        <extensions>
          <ns3:TrackPointExtension>
            <ns3:atemp>18.0</ns3:atemp>
          </ns3:TrackPointExtension>
        </extensions>
      </trkpt>
      <trkpt lat="46.76426564343273639678955078125" lon="6.85675562359392642974853515625">
        <ele>448.20001220703125</ele>
        <time>2013-09-01T14:56:14.000Z</time>
        <extensions>
          <ns3:TrackPointExtension>
            <ns3:atemp>18.0</ns3:atemp>
          </ns3:TrackPointExtension>
        </extensions>
      </trkpt>
      <trkpt lat="46.764237396419048309326171875" lon="6.85674807988107204437255859375">
        <ele>448</ele>
        <time>2013-09-01T14:56:15.000Z</time>
        <extensions>
          <ns3:TrackPointExtension>
            <ns3:atemp>18.0</ns3:atemp>
          </ns3:TrackPointExtension>
        </extensions>
      </trkpt>
      <trkpt lat="46.76421317271888256072998046875" lon="6.8567362613976001739501953125">
        <ele>447.600006103515625</ele>
        <time>2013-09-01T14:56:16.000Z</time>
        <extensions>
          <ns3:TrackPointExtension>
            <ns3:atemp>18.0</ns3:atemp>
          </ns3:TrackPointExtension>
        </extensions>
      </trkpt>
      <trkpt lat="46.76419674418866634368896484375" lon="6.85673232190310955047607421875">
        <ele>447.20001220703125</ele>
        <time>2013-09-01T14:56:17.000Z</time>
        <extensions>
          <ns3:TrackPointExtension>
            <ns3:atemp>18.0</ns3:atemp>
          </ns3:TrackPointExtension>
        </extensions>
      </trkpt>
      <trkpt lat="46.76419909112155437469482421875" lon="6.85673349536955356597900390625">
        <ele>446.399993896484375</ele>
        <time>2013-09-01T14:56:18.000Z</time>
        <extensions>
          <ns3:TrackPointExtension>
            <ns3:atemp>18.0</ns3:atemp>
          </ns3:TrackPointExtension>
        </extensions>
      </trkpt>
      <trkpt lat="46.76417578943073749542236328125" lon="6.85673248954117298126220703125">
        <ele>446.20001220703125</ele>
        <time>2013-09-01T14:56:19.000Z</time>
        <extensions>
          <ns3:TrackPointExtension>
            <ns3:atemp>18.0</ns3:atemp>
          </ns3:TrackPointExtension>
        </extensions>
      </trkpt>
      <trkpt lat="46.76417578943073749542236328125" lon="6.85673248954117298126220703125">
        <ele>446.20001220703125</ele>
        <time>2013-09-01T14:56:20.000Z</time>
        <extensions>
          <ns3:TrackPointExtension>
            <ns3:atemp>18.0</ns3:atemp>
          </ns3:TrackPointExtension>
        </extensions>
      </trkpt>
      <trkpt lat="46.76417578943073749542236328125" lon="6.85673248954117298126220703125">
        <ele>446.20001220703125</ele>
        <time>2013-09-01T14:56:21.000Z</time>
        <extensions>
          <ns3:TrackPointExtension>
            <ns3:atemp>18.0</ns3:atemp>
          </ns3:TrackPointExtension>
        </extensions>
      </trkpt>
      <trkpt lat="46.76417578943073749542236328125" lon="6.85673248954117298126220703125">
        <ele>446.399993896484375</ele>
        <time>2013-09-01T14:56:22.000Z</time>
        <extensions>
          <ns3:TrackPointExtension>
            <ns3:atemp>18.0</ns3:atemp>
          </ns3:TrackPointExtension>
        </extensions>
      </trkpt>
      <trkpt lat="46.76417528651654720306396484375" lon="6.85674187727272510528564453125">
        <ele>446.399993896484375</ele>
        <time>2013-09-01T14:56:23.000Z</time>
        <extensions>
          <ns3:TrackPointExtension>
            <ns3:atemp>18.0</ns3:atemp>
          </ns3:TrackPointExtension>
        </extensions>
      </trkpt>
      <trkpt lat="46.7641768790781497955322265625" lon="6.8567483313381671905517578125">
        <ele>446.600006103515625</ele>
        <time>2013-09-01T14:56:24.000Z</time>
        <extensions>
          <ns3:TrackPointExtension>
            <ns3:atemp>18.0</ns3:atemp>
          </ns3:TrackPointExtension>
        </extensions>
      </trkpt>
      <trkpt lat="46.764181070029735565185546875" lon="6.85675243847072124481201171875">
        <ele>446.399993896484375</ele>
        <time>2013-09-01T14:56:25.000Z</time>
        <extensions>
          <ns3:TrackPointExtension>
            <ns3:atemp>18.0</ns3:atemp>
          </ns3:TrackPointExtension>
        </extensions>
      </trkpt>
      <trkpt lat="46.76418500952422618865966796875" lon="6.85675746761262416839599609375">
        <ele>446.600006103515625</ele>
        <time>2013-09-01T14:56:26.000Z</time>
        <extensions>
          <ns3:TrackPointExtension>
            <ns3:atemp>18.0</ns3:atemp>
          </ns3:TrackPointExtension>
        </extensions>
      </trkpt>
      <trkpt lat="46.76419079303741455078125" lon="6.856761239469051361083984375">
        <ele>446.600006103515625</ele>
        <time>2013-09-01T14:56:27.000Z</time>
        <extensions>
          <ns3:TrackPointExtension>
            <ns3:atemp>18.0</ns3:atemp>
          </ns3:TrackPointExtension>
        </extensions>
      </trkpt>
      <trkpt lat="46.7641963250935077667236328125" lon="6.85676417313516139984130859375">
        <ele>446.79998779296875</ele>
        <time>2013-09-01T14:56:28.000Z</time>
        <extensions>
          <ns3:TrackPointExtension>
            <ns3:atemp>18.0</ns3:atemp>
          </ns3:TrackPointExtension>
        </extensions>
      </trkpt>
      <trkpt lat="46.76420244388282299041748046875" lon="6.8567671068012714385986328125">
        <ele>446.79998779296875</ele>
        <time>2013-09-01T14:56:29.000Z</time>
        <extensions>
          <ns3:TrackPointExtension>
            <ns3:atemp>18.0</ns3:atemp>
          </ns3:TrackPointExtension>
        </extensions>
      </trkpt>
      <trkpt lat="46.7642087303102016448974609375" lon="6.85676869936287403106689453125">
        <ele>447</ele>
        <time>2013-09-01T14:56:30.000Z</time>
        <extensions>
          <ns3:TrackPointExtension>
            <ns3:atemp>18.0</ns3:atemp>
          </ns3:TrackPointExtension>
        </extensions>
      </trkpt>
      <trkpt lat="46.7642147652804851531982421875" lon="6.85676802881062030792236328125">
        <ele>447.20001220703125</ele>
        <time>2013-09-01T14:56:31.000Z</time>
        <extensions>
          <ns3:TrackPointExtension>
            <ns3:atemp>18.0</ns3:atemp>
          </ns3:TrackPointExtension>
        </extensions>
      </trkpt>
      <trkpt lat="46.7642214708030223846435546875" lon="6.856768615543842315673828125">
        <ele>447.399993896484375</ele>
        <time>2013-09-01T14:56:32.000Z</time>
        <extensions>
          <ns3:TrackPointExtension>
            <ns3:atemp>18.0</ns3:atemp>
          </ns3:TrackPointExtension>
        </extensions>
      </trkpt>
      <trkpt lat="46.764228679239749908447265625" lon="6.8567687831819057464599609375">
        <ele>447.399993896484375</ele>
        <time>2013-09-01T14:56:33.000Z</time>
        <extensions>
          <ns3:TrackPointExtension>
            <ns3:atemp>18.0</ns3:atemp>
          </ns3:TrackPointExtension>
        </extensions>
      </trkpt>
      <trkpt lat="46.76423613913357257843017578125" lon="6.8567661009728908538818359375">
        <ele>447.600006103515625</ele>
        <time>2013-09-01T14:56:34.000Z</time>
        <extensions>
          <ns3:TrackPointExtension>
            <ns3:atemp>18.0</ns3:atemp>
          </ns3:TrackPointExtension>
        </extensions>
      </trkpt>
      <trkpt lat="46.76424385048449039459228515625" lon="6.85676266439259052276611328125">
        <ele>447.79998779296875</ele>
        <time>2013-09-01T14:56:35.000Z</time>
        <extensions>
          <ns3:TrackPointExtension>
            <ns3:atemp>18.0</ns3:atemp>
          </ns3:TrackPointExtension>
        </extensions>
      </trkpt>
      <trkpt lat="46.76425181329250335693359375" lon="6.85676132328808307647705078125">
        <ele>447.79998779296875</ele>
        <time>2013-09-01T14:56:36.000Z</time>
        <extensions>
          <ns3:TrackPointExtension>
            <ns3:atemp>18.0</ns3:atemp>
          </ns3:TrackPointExtension>
        </extensions>
      </trkpt>
      <trkpt lat="46.76425977610051631927490234375" lon="6.856762580573558807373046875">
        <ele>448</ele>
        <time>2013-09-01T14:56:37.000Z</time>
        <extensions>
          <ns3:TrackPointExtension>
            <ns3:atemp>18.0</ns3:atemp>
          </ns3:TrackPointExtension>
        </extensions>
      </trkpt>
      <trkpt lat="46.76427301950752735137939453125" lon="6.85676719062030315399169921875">
        <ele>448</ele>
        <time>2013-09-01T14:56:38.000Z</time>
        <extensions>
          <ns3:TrackPointExtension>
            <ns3:atemp>18.0</ns3:atemp>
          </ns3:TrackPointExtension>
        </extensions>
      </trkpt>
      <trkpt lat="46.7642865143716335296630859375" lon="6.85676869936287403106689453125">
        <ele>448.20001220703125</ele>
        <time>2013-09-01T14:56:39.000Z</time>
        <extensions>
          <ns3:TrackPointExtension>
            <ns3:atemp>18.0</ns3:atemp>
          </ns3:TrackPointExtension>
        </extensions>
      </trkpt>
      <trkpt lat="46.76430118270218372344970703125" lon="6.856770627200603485107421875">
        <ele>448</ele>
        <time>2013-09-01T14:56:40.000Z</time>
        <extensions>
          <ns3:TrackPointExtension>
            <ns3:atemp>18.0</ns3:atemp>
          </ns3:TrackPointExtension>
        </extensions>
      </trkpt>
      <trkpt lat="46.7643173597753047943115234375" lon="6.85677574016153812408447265625">
        <ele>448</ele>
        <time>2013-09-01T14:56:41.000Z</time>
        <extensions>
          <ns3:TrackPointExtension>
            <ns3:atemp>18.0</ns3:atemp>
          </ns3:TrackPointExtension>
        </extensions>
      </trkpt>
      <trkpt lat="46.7643344588577747344970703125" lon="6.8567763268947601318359375">
        <ele>448.399993896484375</ele>
        <time>2013-09-01T14:56:42.000Z</time>
        <extensions>
          <ns3:TrackPointExtension>
            <ns3:atemp>18.0</ns3:atemp>
          </ns3:TrackPointExtension>
        </extensions>
      </trkpt>
      <trkpt lat="46.764357089996337890625" lon="6.8567684479057788848876953125">
        <ele>448.79998779296875</ele>
        <time>2013-09-01T14:56:43.000Z</time>
        <extensions>
          <ns3:TrackPointExtension>
            <ns3:atemp>18.0</ns3:atemp>
          </ns3:TrackPointExtension>
        </extensions>
      </trkpt>
      <trkpt lat="46.764374189078807830810546875" lon="6.8567821942269802093505859375">
        <ele>449</ele>
        <time>2013-09-01T14:56:44.000Z</time>
        <extensions>
          <ns3:TrackPointExtension>
            <ns3:atemp>18.0</ns3:atemp>
          </ns3:TrackPointExtension>
        </extensions>
      </trkpt>
      <trkpt lat="46.76437946967780590057373046875" lon="6.8568100221455097198486328125">
        <ele>449.20001220703125</ele>
        <time>2013-09-01T14:56:45.000Z</time>
        <extensions>
          <ns3:TrackPointExtension>
            <ns3:atemp>18.0</ns3:atemp>
          </ns3:TrackPointExtension>
        </extensions>
      </trkpt>
      <trkpt lat="46.76437385380268096923828125" lon="6.8568375147879123687744140625">
        <ele>449</ele>
        <time>2013-09-01T14:56:46.000Z</time>
        <extensions>
          <ns3:TrackPointExtension>
            <ns3:atemp>18.0</ns3:atemp>
          </ns3:TrackPointExtension>
        </extensions>
      </trkpt>
      <trkpt lat="46.7643569223582744598388671875" lon="6.856876909732818603515625">
        <ele>448.79998779296875</ele>
        <time>2013-09-01T14:56:47.000Z</time>
        <extensions>
          <ns3:TrackPointExtension>
            <ns3:atemp>18.0</ns3:atemp>
          </ns3:TrackPointExtension>
        </extensions>
      </trkpt>
      <trkpt lat="46.764333285391330718994140625" lon="6.85692443512380123138427734375">
        <ele>448.600006103515625</ele>
        <time>2013-09-01T14:56:48.000Z</time>
        <extensions>
          <ns3:TrackPointExtension>
            <ns3:atemp>18.0</ns3:atemp>
          </ns3:TrackPointExtension>
        </extensions>
      </trkpt>
      <trkpt lat="46.76430872641503810882568359375" lon="6.85697958804666996002197265625">
        <ele>448.399993896484375</ele>
        <time>2013-09-01T14:56:49.000Z</time>
        <extensions>
          <ns3:TrackPointExtension>
            <ns3:atemp>18.0</ns3:atemp>
          </ns3:TrackPointExtension>
        </extensions>
      </trkpt>
      <trkpt lat="46.76428441889584064483642578125" lon="6.85704312287271022796630859375">
        <ele>448.20001220703125</ele>
        <time>2013-09-01T14:56:50.000Z</time>
        <extensions>
          <ns3:TrackPointExtension>
            <ns3:atemp>18.0</ns3:atemp>
          </ns3:TrackPointExtension>
        </extensions>
      </trkpt>
      <trkpt lat="46.7642647214233875274658203125" lon="6.8571167998015880584716796875">
        <ele>448</ele>
        <time>2013-09-01T14:56:51.000Z</time>
        <extensions>
          <ns3:TrackPointExtension>
            <ns3:atemp>18.0</ns3:atemp>
          </ns3:TrackPointExtension>
        </extensions>
      </trkpt>
      <trkpt lat="46.76424804143607616424560546875" lon="6.85719600878655910491943359375">
        <ele>447.600006103515625</ele>
        <time>2013-09-01T14:56:52.000Z</time>
        <extensions>
          <ns3:TrackPointExtension>
            <ns3:atemp>18.0</ns3:atemp>
          </ns3:TrackPointExtension>
        </extensions>
      </trkpt>
      <trkpt lat="46.76423303782939910888671875" lon="6.85727345757186412811279296875">
        <ele>447</ele>
        <time>2013-09-01T14:56:53.000Z</time>
        <extensions>
          <ns3:TrackPointExtension>
            <ns3:atemp>18.0</ns3:atemp>
          </ns3:TrackPointExtension>
        </extensions>
      </trkpt>
      <trkpt lat="46.7642243206501007080078125" lon="6.85735241509974002838134765625">
        <ele>446.399993896484375</ele>
        <time>2013-09-01T14:56:54.000Z</time>
        <extensions>
          <ns3:TrackPointExtension>
            <ns3:atemp>18.0</ns3:atemp>
          </ns3:TrackPointExtension>
        </extensions>
      </trkpt>
      <trkpt lat="46.76422256045043468475341796875" lon="6.85743413865566253662109375">
        <ele>445.600006103515625</ele>
        <time>2013-09-01T14:56:55.000Z</time>
        <extensions>
          <ns3:TrackPointExtension>
            <ns3:atemp>18.0</ns3:atemp>
          </ns3:TrackPointExtension>
        </extensions>
      </trkpt>
      <trkpt lat="46.76422490738332271575927734375" lon="6.85751594603061676025390625">
        <ele>445</ele>
        <time>2013-09-01T14:56:56.000Z</time>
        <extensions>
          <ns3:TrackPointExtension>
            <ns3:atemp>18.0</ns3:atemp>
          </ns3:TrackPointExtension>
        </extensions>
      </trkpt>
      <trkpt lat="46.76423035562038421630859375" lon="6.85759431682527065277099609375">
        <ele>444.399993896484375</ele>
        <time>2013-09-01T14:56:57.000Z</time>
        <extensions>
          <ns3:TrackPointExtension>
            <ns3:atemp>18.0</ns3:atemp>
          </ns3:TrackPointExtension>
        </extensions>
      </trkpt>
      <trkpt lat="46.76423815079033374786376953125" lon="6.857670508325099945068359375">
        <ele>443.79998779296875</ele>
        <time>2013-09-01T14:56:58.000Z</time>
        <extensions>
          <ns3:TrackPointExtension>
            <ns3:atemp>18.0</ns3:atemp>
          </ns3:TrackPointExtension>
        </extensions>
      </trkpt>
      <trkpt lat="46.7642472870647907257080078125" lon="6.85774653218686580657958984375">
        <ele>443.20001220703125</ele>
        <time>2013-09-01T14:56:59.000Z</time>
        <extensions>
          <ns3:TrackPointExtension>
            <ns3:atemp>18.0</ns3:atemp>
          </ns3:TrackPointExtension>
        </extensions>
      </trkpt>
      <trkpt lat="46.76425759680569171905517578125" lon="6.85782314278185367584228515625">
        <ele>442.399993896484375</ele>
        <time>2013-09-01T14:57:00.000Z</time>
        <extensions>
          <ns3:TrackPointExtension>
            <ns3:atemp>18.0</ns3:atemp>
          </ns3:TrackPointExtension>
        </extensions>
      </trkpt>
      <trkpt lat="46.764270253479480743408203125" lon="6.85790218412876129150390625">
        <ele>442</ele>
        <time>2013-09-01T14:57:01.000Z</time>
        <extensions>
          <ns3:TrackPointExtension>
            <ns3:atemp>18.0</ns3:atemp>
          </ns3:TrackPointExtension>
        </extensions>
      </trkpt>
      <trkpt lat="46.7642895318567752838134765625" lon="6.85799580998718738555908203125">
        <ele>441.399993896484375</ele>
        <time>2013-09-01T14:57:02.000Z</time>
        <extensions>
          <ns3:TrackPointExtension>
            <ns3:atemp>18.0</ns3:atemp>
          </ns3:TrackPointExtension>
        </extensions>
      </trkpt>
      <trkpt lat="46.76431342028081417083740234375" lon="6.8580973148345947265625">
        <ele>440.600006103515625</ele>
        <time>2013-09-01T14:57:03.000Z</time>
        <extensions>
          <ns3:TrackPointExtension>
            <ns3:atemp>18.0</ns3:atemp>
          </ns3:TrackPointExtension>
        </extensions>
      </trkpt>
      <trkpt lat="46.76434376277029514312744140625" lon="6.858210302889347076416015625">
        <ele>439.79998779296875</ele>
        <time>2013-09-01T14:57:04.000Z</time>
        <extensions>
          <ns3:TrackPointExtension>
            <ns3:atemp>18.0</ns3:atemp>
          </ns3:TrackPointExtension>
        </extensions>
      </trkpt>
      <trkpt lat="46.76440930925309658050537109375" lon="6.858373582363128662109375">
        <ele>439</ele>
        <time>2013-09-01T14:57:05.000Z</time>
        <extensions>
          <ns3:TrackPointExtension>
            <ns3:atemp>18.0</ns3:atemp>
          </ns3:TrackPointExtension>
        </extensions>
      </trkpt>
      <trkpt lat="46.76447116769850254058837890625" lon="6.858528815209865570068359375">
        <ele>436.600006103515625</ele>
        <time>2013-09-01T14:57:06.000Z</time>
        <extensions>
          <ns3:TrackPointExtension>
            <ns3:atemp>18.0</ns3:atemp>
          </ns3:TrackPointExtension>
        </extensions>
      </trkpt>
      <trkpt lat="46.764571331441402435302734375" lon="6.85873769223690032958984375">
        <ele>435.20001220703125</ele>
        <time>2013-09-01T14:57:07.000Z</time>
        <extensions>
          <ns3:TrackPointExtension>
            <ns3:atemp>18.0</ns3:atemp>
          </ns3:TrackPointExtension>
        </extensions>
      </trkpt>
      <trkpt lat="46.764633692800998687744140625" lon="6.8589024804532527923583984375">
        <ele>434</ele>
        <time>2013-09-01T14:57:08.000Z</time>
        <extensions>
          <ns3:TrackPointExtension>
            <ns3:atemp>18.0</ns3:atemp>
          </ns3:TrackPointExtension>
        </extensions>
      </trkpt>
      <trkpt lat="46.7646968923509120941162109375" lon="6.85905209742486476898193359375">
        <ele>432.600006103515625</ele>
        <time>2013-09-01T14:57:09.000Z</time>
        <extensions>
          <ns3:TrackPointExtension>
            <ns3:atemp>18.0</ns3:atemp>
          </ns3:TrackPointExtension>
        </extensions>
      </trkpt>
      <trkpt lat="46.7647240497171878814697265625" lon="6.85919140465557575225830078125">
        <ele>431.600006103515625</ele>
        <time>2013-09-01T14:57:10.000Z</time>
        <extensions>
          <ns3:TrackPointExtension>
            <ns3:atemp>18.0</ns3:atemp>
          </ns3:TrackPointExtension>
        </extensions>
      </trkpt>
      <trkpt lat="46.76472228951752185821533203125" lon="6.8593232519924640655517578125">
        <ele>430.600006103515625</ele>
        <time>2013-09-01T14:57:11.000Z</time>
        <extensions>
          <ns3:TrackPointExtension>
            <ns3:atemp>18.0</ns3:atemp>
          </ns3:TrackPointExtension>
        </extensions>
      </trkpt>
      <trkpt lat="46.76469597034156322479248046875" lon="6.85943800024688243865966796875">
        <ele>429.399993896484375</ele>
        <time>2013-09-01T14:57:12.000Z</time>
        <extensions>
          <ns3:TrackPointExtension>
            <ns3:atemp>18.0</ns3:atemp>
          </ns3:TrackPointExtension>
        </extensions>
      </trkpt>
      <trkpt lat="46.764636375010013580322265625" lon="6.85953321866691112518310546875">
        <ele>428.399993896484375</ele>
        <time>2013-09-01T14:57:13.000Z</time>
        <extensions>
          <ns3:TrackPointExtension>
            <ns3:atemp>18.0</ns3:atemp>
          </ns3:TrackPointExtension>
        </extensions>
      </trkpt>
      <trkpt lat="46.76455180160701274871826171875" lon="6.859595663845539093017578125">
        <ele>427.399993896484375</ele>
        <time>2013-09-01T14:57:14.000Z</time>
        <extensions>
          <ns3:TrackPointExtension>
            <ns3:atemp>18.0</ns3:atemp>
          </ns3:TrackPointExtension>
        </extensions>
      </trkpt>
      <trkpt lat="46.76445507444441318511962890625" lon="6.85963128693401813507080078125">
        <ele>426.79998779296875</ele>
        <time>2013-09-01T14:57:15.000Z</time>
        <extensions>
          <ns3:TrackPointExtension>
            <ns3:atemp>18.0</ns3:atemp>
          </ns3:TrackPointExtension>
        </extensions>
      </trkpt>
      <trkpt lat="46.76435365341603755950927734375" lon="6.8596343882381916046142578125">
        <ele>426.20001220703125</ele>
        <time>2013-09-01T14:57:16.000Z</time>
        <extensions>
          <ns3:TrackPointExtension>
            <ns3:atemp>18.0</ns3:atemp>
          </ns3:TrackPointExtension>
        </extensions>
      </trkpt>
      <trkpt lat="46.76425189711153507232666015625" lon="6.85962642543017864227294921875">
        <ele>425.600006103515625</ele>
        <time>2013-09-01T14:57:17.000Z</time>
        <extensions>
          <ns3:TrackPointExtension>
            <ns3:atemp>18.0</ns3:atemp>
          </ns3:TrackPointExtension>
        </extensions>
      </trkpt>
      <trkpt lat="46.7641497217118740081787109375" lon="6.859618462622165679931640625">
        <ele>424.79998779296875</ele>
        <time>2013-09-01T14:57:18.000Z</time>
        <extensions>
          <ns3:TrackPointExtension>
            <ns3:atemp>18.0</ns3:atemp>
          </ns3:TrackPointExtension>
        </extensions>
      </trkpt>
      <trkpt lat="46.76404939033091068267822265625" lon="6.859607398509979248046875">
        <ele>424.20001220703125</ele>
        <time>2013-09-01T14:57:19.000Z</time>
        <extensions>
          <ns3:TrackPointExtension>
            <ns3:atemp>18.0</ns3:atemp>
          </ns3:TrackPointExtension>
        </extensions>
      </trkpt>
      <trkpt lat="46.76395199261605739593505859375" lon="6.8595787324011325836181640625">
        <ele>423.600006103515625</ele>
        <time>2013-09-01T14:57:20.000Z</time>
        <extensions>
          <ns3:TrackPointExtension>
            <ns3:atemp>18.0</ns3:atemp>
          </ns3:TrackPointExtension>
        </extensions>
      </trkpt>
      <trkpt lat="46.763860546052455902099609375" lon="6.859523914754390716552734375">
        <ele>423</ele>
        <time>2013-09-01T14:57:21.000Z</time>
        <extensions>
          <ns3:TrackPointExtension>
            <ns3:atemp>18.0</ns3:atemp>
          </ns3:TrackPointExtension>
        </extensions>
      </trkpt>
      <trkpt lat="46.7637792415916919708251953125" lon="6.8594382517039775848388671875">
        <ele>422.20001220703125</ele>
        <time>2013-09-01T14:57:22.000Z</time>
        <extensions>
          <ns3:TrackPointExtension>
            <ns3:atemp>18.0</ns3:atemp>
          </ns3:TrackPointExtension>
        </extensions>
      </trkpt>
      <trkpt lat="46.76371327601373195648193359375" lon="6.85933037661015987396240234375">
        <ele>421.20001220703125</ele>
        <time>2013-09-01T14:57:23.000Z</time>
        <extensions>
          <ns3:TrackPointExtension>
            <ns3:atemp>18.0</ns3:atemp>
          </ns3:TrackPointExtension>
        </extensions>
      </trkpt>
      <trkpt lat="46.763657368719577789306640625" lon="6.85920950956642627716064453125">
        <ele>420.600006103515625</ele>
        <time>2013-09-01T14:57:24.000Z</time>
        <extensions>
          <ns3:TrackPointExtension>
            <ns3:atemp>18.0</ns3:atemp>
          </ns3:TrackPointExtension>
        </extensions>
      </trkpt>
      <trkpt lat="46.7636072449386119842529296875" lon="6.85908813960850238800048828125">
        <ele>420.20001220703125</ele>
        <time>2013-09-01T14:57:25.000Z</time>
        <extensions>
          <ns3:TrackPointExtension>
            <ns3:atemp>18.0</ns3:atemp>
          </ns3:TrackPointExtension>
        </extensions>
      </trkpt>
      <trkpt lat="46.76356089301407337188720703125" lon="6.85896911658346652984619140625">
        <ele>420</ele>
        <time>2013-09-01T14:57:26.000Z</time>
        <extensions>
          <ns3:TrackPointExtension>
            <ns3:atemp>18.0</ns3:atemp>
          </ns3:TrackPointExtension>
        </extensions>
      </trkpt>
      <trkpt lat="46.7635173909366130828857421875" lon="6.858852691948413848876953125">
        <ele>419.79998779296875</ele>
        <time>2013-09-01T14:57:27.000Z</time>
        <extensions>
          <ns3:TrackPointExtension>
            <ns3:atemp>18.0</ns3:atemp>
          </ns3:TrackPointExtension>
        </extensions>
      </trkpt>
      <trkpt lat="46.76347321830689907073974609375" lon="6.858741380274295806884765625">
        <ele>419.600006103515625</ele>
        <time>2013-09-01T14:57:28.000Z</time>
        <extensions>
          <ns3:TrackPointExtension>
            <ns3:atemp>18.0</ns3:atemp>
          </ns3:TrackPointExtension>
        </extensions>
      </trkpt>
      <trkpt lat="46.76342711783945560455322265625" lon="6.85863534919917583465576171875">
        <ele>419.20001220703125</ele>
        <time>2013-09-01T14:57:29.000Z</time>
        <extensions>
          <ns3:TrackPointExtension>
            <ns3:atemp>18.0</ns3:atemp>
          </ns3:TrackPointExtension>
        </extensions>
      </trkpt>
      <trkpt lat="46.7633826099336147308349609375" lon="6.85852982103824615478515625">
        <ele>419</ele>
        <time>2013-09-01T14:57:30.000Z</time>
        <extensions>
          <ns3:TrackPointExtension>
            <ns3:atemp>18.0</ns3:atemp>
          </ns3:TrackPointExtension>
        </extensions>
      </trkpt>
      <trkpt lat="46.76333877258002758026123046875" lon="6.8584285676479339599609375">
        <ele>418.79998779296875</ele>
        <time>2013-09-01T14:57:31.000Z</time>
        <extensions>
          <ns3:TrackPointExtension>
            <ns3:atemp>18.0</ns3:atemp>
          </ns3:TrackPointExtension>
        </extensions>
      </trkpt>
      <trkpt lat="46.763297617435455322265625" lon="6.8583294935524463653564453125">
        <ele>418.79998779296875</ele>
        <time>2013-09-01T14:57:32.000Z</time>
        <extensions>
          <ns3:TrackPointExtension>
            <ns3:atemp>18.0</ns3:atemp>
          </ns3:TrackPointExtension>
        </extensions>
      </trkpt>
      <trkpt lat="46.76325713284313678741455078125" lon="6.85823117382824420928955078125">
        <ele>418.600006103515625</ele>
        <time>2013-09-01T14:57:33.000Z</time>
        <extensions>
          <ns3:TrackPointExtension>
            <ns3:atemp>18.0</ns3:atemp>
          </ns3:TrackPointExtension>
        </extensions>
      </trkpt>
      <trkpt lat="46.76321790553629398345947265625" lon="6.8581336922943592071533203125">
        <ele>418.399993896484375</ele>
        <time>2013-09-01T14:57:34.000Z</time>
        <extensions>
          <ns3:TrackPointExtension>
            <ns3:atemp>18.0</ns3:atemp>
          </ns3:TrackPointExtension>
        </extensions>
      </trkpt>
      <trkpt lat="46.76317817531526088714599609375" lon="6.8580337800085544586181640625">
        <ele>418.20001220703125</ele>
        <time>2013-09-01T14:57:35.000Z</time>
        <extensions>
          <ns3:TrackPointExtension>
            <ns3:atemp>18.0</ns3:atemp>
          </ns3:TrackPointExtension>
        </extensions>
      </trkpt>
      <trkpt lat="46.763135008513927459716796875" lon="6.85793814249336719512939453125">
        <ele>418</ele>
        <time>2013-09-01T14:57:36.000Z</time>
        <extensions>
          <ns3:TrackPointExtension>
            <ns3:atemp>18.0</ns3:atemp>
          </ns3:TrackPointExtension>
        </extensions>
      </trkpt>
      <trkpt lat="46.763083375990390777587890625" lon="6.85785365290939807891845703125">
        <ele>417.600006103515625</ele>
        <time>2013-09-01T14:57:37.000Z</time>
        <extensions>
          <ns3:TrackPointExtension>
            <ns3:atemp>18.0</ns3:atemp>
          </ns3:TrackPointExtension>
        </extensions>
      </trkpt>
      <trkpt lat="46.76302470266819000244140625" lon="6.8577793054282665252685546875">
        <ele>417.399993896484375</ele>
        <time>2013-09-01T14:57:38.000Z</time>
        <extensions>
          <ns3:TrackPointExtension>
            <ns3:atemp>18.0</ns3:atemp>
          </ns3:TrackPointExtension>
        </extensions>
      </trkpt>
      <trkpt lat="46.762959994375705718994140625" lon="6.857720799744129180908203125">
        <ele>417.20001220703125</ele>
        <time>2013-09-01T14:57:39.000Z</time>
        <extensions>
          <ns3:TrackPointExtension>
            <ns3:atemp>18.0</ns3:atemp>
          </ns3:TrackPointExtension>
        </extensions>
      </trkpt>
      <trkpt lat="46.76288883201777935028076171875" lon="6.8576780520379543304443359375">
        <ele>417</ele>
        <time>2013-09-01T14:57:40.000Z</time>
        <extensions>
          <ns3:TrackPointExtension>
            <ns3:atemp>18.0</ns3:atemp>
          </ns3:TrackPointExtension>
        </extensions>
      </trkpt>
      <trkpt lat="46.7628149874508380889892578125" lon="6.85764611698687076568603515625">
        <ele>416.79998779296875</ele>
        <time>2013-09-01T14:57:41.000Z</time>
        <extensions>
          <ns3:TrackPointExtension>
            <ns3:atemp>18.0</ns3:atemp>
          </ns3:TrackPointExtension>
        </extensions>
      </trkpt>
      <trkpt lat="46.76274030469357967376708984375" lon="6.85762465931475162506103515625">
        <ele>416.600006103515625</ele>
        <time>2013-09-01T14:57:42.000Z</time>
        <extensions>
          <ns3:TrackPointExtension>
            <ns3:atemp>18.0</ns3:atemp>
          </ns3:TrackPointExtension>
        </extensions>
      </trkpt>
      <trkpt lat="46.76266721449792385101318359375" lon="6.85760437510907649993896484375">
        <ele>416.20001220703125</ele>
        <time>2013-09-01T14:57:43.000Z</time>
        <extensions>
          <ns3:TrackPointExtension>
            <ns3:atemp>18.0</ns3:atemp>
          </ns3:TrackPointExtension>
        </extensions>
      </trkpt>
      <trkpt lat="46.76260619424283504486083984375" lon="6.85757654719054698944091796875">
        <ele>415.79998779296875</ele>
        <time>2013-09-01T14:57:44.000Z</time>
        <extensions>
          <ns3:TrackPointExtension>
            <ns3:atemp>18.0</ns3:atemp>
          </ns3:TrackPointExtension>
        </extensions>
      </trkpt>
      <trkpt lat="46.7625662125647068023681640625" lon="6.8575305305421352386474609375">
        <ele>415.20001220703125</ele>
        <time>2013-09-01T14:57:45.000Z</time>
        <extensions>
          <ns3:TrackPointExtension>
            <ns3:atemp>18.0</ns3:atemp>
          </ns3:TrackPointExtension>
        </extensions>
      </trkpt>
      <trkpt lat="46.76254299469292163848876953125" lon="6.85747571289539337158203125">
        <ele>414.79998779296875</ele>
        <time>2013-09-01T14:57:46.000Z</time>
        <extensions>
          <ns3:TrackPointExtension>
            <ns3:atemp>18.0</ns3:atemp>
          </ns3:TrackPointExtension>
        </extensions>
      </trkpt>
      <trkpt lat="46.7625293321907520294189453125" lon="6.85742734931409358978271484375">
        <ele>414.600006103515625</ele>
        <time>2013-09-01T14:57:47.000Z</time>
        <extensions>
          <ns3:TrackPointExtension>
            <ns3:atemp>18.0</ns3:atemp>
          </ns3:TrackPointExtension>
        </extensions>
      </trkpt>
      <trkpt lat="46.76252354867756366729736328125" lon="6.85739315114915370941162109375">
        <ele>414.79998779296875</ele>
        <time>2013-09-01T14:57:48.000Z</time>
        <extensions>
          <ns3:TrackPointExtension>
            <ns3:atemp>18.0</ns3:atemp>
          </ns3:TrackPointExtension>
        </extensions>
      </trkpt>
      <trkpt lat="46.76252069883048534393310546875" lon="6.85736834071576595306396484375">
        <ele>415.20001220703125</ele>
        <time>2013-09-01T14:57:49.000Z</time>
        <extensions>
          <ns3:TrackPointExtension>
            <ns3:atemp>18.0</ns3:atemp>
          </ns3:TrackPointExtension>
        </extensions>
      </trkpt>
      <trkpt lat="46.762517429888248443603515625" lon="6.8573474697768688201904296875">
        <ele>415.399993896484375</ele>
        <time>2013-09-01T14:57:50.000Z</time>
        <extensions>
          <ns3:TrackPointExtension>
            <ns3:atemp>18.0</ns3:atemp>
          </ns3:TrackPointExtension>
        </extensions>
      </trkpt>
      <trkpt lat="46.7625149153172969818115234375" lon="6.85732609592378139495849609375">
        <ele>415.600006103515625</ele>
        <time>2013-09-01T14:57:51.000Z</time>
        <extensions>
          <ns3:TrackPointExtension>
            <ns3:atemp>18.0</ns3:atemp>
          </ns3:TrackPointExtension>
        </extensions>
      </trkpt>
      <trkpt lat="46.762510724365711212158203125" lon="6.8573028780519962310791015625">
        <ele>415.600006103515625</ele>
        <time>2013-09-01T14:57:52.000Z</time>
        <extensions>
          <ns3:TrackPointExtension>
            <ns3:atemp>18.0</ns3:atemp>
          </ns3:TrackPointExtension>
        </extensions>
      </trkpt>
      <trkpt lat="46.76250460557639598846435546875" lon="6.857279241085052490234375">
        <ele>416</ele>
        <time>2013-09-01T14:57:53.000Z</time>
        <extensions>
          <ns3:TrackPointExtension>
            <ns3:atemp>18.0</ns3:atemp>
          </ns3:TrackPointExtension>
        </extensions>
      </trkpt>
      <trkpt lat="46.76249471493065357208251953125" lon="6.85725602321326732635498046875">
        <ele>416.600006103515625</ele>
        <time>2013-09-01T14:57:54.000Z</time>
        <extensions>
          <ns3:TrackPointExtension>
            <ns3:atemp>18.0</ns3:atemp>
          </ns3:TrackPointExtension>
        </extensions>
      </trkpt>
      <trkpt lat="46.76248691976070404052734375" lon="6.85723355971276760101318359375">
        <ele>417</ele>
        <time>2013-09-01T14:57:55.000Z</time>
        <extensions>
          <ns3:TrackPointExtension>
            <ns3:atemp>18.0</ns3:atemp>
          </ns3:TrackPointExtension>
        </extensions>
      </trkpt>
      <trkpt lat="46.7624813877046108245849609375" lon="6.85720992274582386016845703125">
        <ele>417</ele>
        <time>2013-09-01T14:57:56.000Z</time>
        <extensions>
          <ns3:TrackPointExtension>
            <ns3:atemp>18.0</ns3:atemp>
          </ns3:TrackPointExtension>
        </extensions>
      </trkpt>
      <trkpt lat="46.76247409544885158538818359375" lon="6.85718662105500698089599609375">
        <ele>417.399993896484375</ele>
        <time>2013-09-01T14:57:57.000Z</time>
        <extensions>
          <ns3:TrackPointExtension>
            <ns3:atemp>18.0</ns3:atemp>
          </ns3:TrackPointExtension>
        </extensions>
      </trkpt>
      <trkpt lat="46.7624689824879169464111328125" lon="6.85716398991644382476806640625">
        <ele>417.600006103515625</ele>
        <time>2013-09-01T14:57:58.000Z</time>
        <extensions>
          <ns3:TrackPointExtension>
            <ns3:atemp>18.0</ns3:atemp>
          </ns3:TrackPointExtension>
        </extensions>
      </trkpt>
      <trkpt lat="46.7624629475176334381103515625" lon="6.85714269988238811492919921875">
        <ele>418</ele>
        <time>2013-09-01T14:57:59.000Z</time>
        <extensions>
          <ns3:TrackPointExtension>
            <ns3:atemp>18.0</ns3:atemp>
          </ns3:TrackPointExtension>
        </extensions>
      </trkpt>
      <trkpt lat="46.7624579183757305145263671875" lon="6.8571188114583492279052734375">
        <ele>418.20001220703125</ele>
        <time>2013-09-01T14:58:00.000Z</time>
        <extensions>
          <ns3:TrackPointExtension>
            <ns3:atemp>18.0</ns3:atemp>
          </ns3:TrackPointExtension>
        </extensions>
      </trkpt>
      <trkpt lat="46.76245498470962047576904296875" lon="6.85709240846335887908935546875">
        <ele>418.600006103515625</ele>
        <time>2013-09-01T14:58:01.000Z</time>
        <extensions>
          <ns3:TrackPointExtension>
            <ns3:atemp>18.0</ns3:atemp>
          </ns3:TrackPointExtension>
        </extensions>
      </trkpt>
      <trkpt lat="46.7624555714428424835205078125" lon="6.857064999639987945556640625">
        <ele>418.79998779296875</ele>
        <time>2013-09-01T14:58:02.000Z</time>
        <extensions>
          <ns3:TrackPointExtension>
            <ns3:atemp>18.0</ns3:atemp>
          </ns3:TrackPointExtension>
        </extensions>
      </trkpt>
      <trkpt lat="46.76245741546154022216796875" lon="6.85703742317855358123779296875">
        <ele>419.20001220703125</ele>
        <time>2013-09-01T14:58:03.000Z</time>
        <extensions>
          <ns3:TrackPointExtension>
            <ns3:atemp>18.0</ns3:atemp>
          </ns3:TrackPointExtension>
        </extensions>
      </trkpt>
      <trkpt lat="46.76246068440377712249755859375" lon="6.8570123612880706787109375">
        <ele>419.399993896484375</ele>
        <time>2013-09-01T14:58:04.000Z</time>
        <extensions>
          <ns3:TrackPointExtension>
            <ns3:atemp>18.0</ns3:atemp>
          </ns3:TrackPointExtension>
        </extensions>
      </trkpt>
      <trkpt lat="46.762466467916965484619140625" lon="6.8569873832166194915771484375">
        <ele>419.600006103515625</ele>
        <time>2013-09-01T14:58:05.000Z</time>
        <extensions>
          <ns3:TrackPointExtension>
            <ns3:atemp>18.0</ns3:atemp>
          </ns3:TrackPointExtension>
        </extensions>
      </trkpt>
      <trkpt lat="46.76247342489659786224365234375" lon="6.85696265660226345062255859375">
        <ele>420</ele>
        <time>2013-09-01T14:58:06.000Z</time>
        <extensions>
          <ns3:TrackPointExtension>
            <ns3:atemp>18.0</ns3:atemp>
          </ns3:TrackPointExtension>
        </extensions>
      </trkpt>
      <trkpt lat="46.76248113624751567840576171875" lon="6.85693499632179737091064453125">
        <ele>420.20001220703125</ele>
        <time>2013-09-01T14:58:07.000Z</time>
        <extensions>
          <ns3:TrackPointExtension>
            <ns3:atemp>18.0</ns3:atemp>
          </ns3:TrackPointExtension>
        </extensions>
      </trkpt>
      <trkpt lat="46.7624867521226406097412109375" lon="6.856908090412616729736328125">
        <ele>420.600006103515625</ele>
        <time>2013-09-01T14:58:08.000Z</time>
        <extensions>
          <ns3:TrackPointExtension>
            <ns3:atemp>18.0</ns3:atemp>
          </ns3:TrackPointExtension>
        </extensions>
      </trkpt>
      <trkpt lat="46.7624901048839092254638671875" lon="6.85688470490276813507080078125">
        <ele>421</ele>
        <time>2013-09-01T14:58:09.000Z</time>
        <extensions>
          <ns3:TrackPointExtension>
            <ns3:atemp>18.0</ns3:atemp>
          </ns3:TrackPointExtension>
        </extensions>
      </trkpt>
      <trkpt lat="46.76249152980744838714599609375" lon="6.8568596430122852325439453125">
        <ele>421.399993896484375</ele>
        <time>2013-09-01T14:58:10.000Z</time>
        <extensions>
          <ns3:TrackPointExtension>
            <ns3:atemp>18.0</ns3:atemp>
          </ns3:TrackPointExtension>
        </extensions>
      </trkpt>
      <trkpt lat="46.7624917812645435333251953125" lon="6.8568299710750579833984375">
        <ele>421.600006103515625</ele>
        <time>2013-09-01T14:58:11.000Z</time>
        <extensions>
          <ns3:TrackPointExtension>
            <ns3:atemp>18.0</ns3:atemp>
          </ns3:TrackPointExtension>
        </extensions>
      </trkpt>
      <trkpt lat="46.76249228417873382568359375" lon="6.85680021531879901885986328125">
        <ele>421.79998779296875</ele>
        <time>2013-09-01T14:58:12.000Z</time>
        <extensions>
          <ns3:TrackPointExtension>
            <ns3:atemp>18.0</ns3:atemp>
          </ns3:TrackPointExtension>
        </extensions>
      </trkpt>
      <trkpt lat="46.76249387674033641815185546875" lon="6.85677255503833293914794921875">
        <ele>422</ele>
        <time>2013-09-01T14:58:13.000Z</time>
        <extensions>
          <ns3:TrackPointExtension>
            <ns3:atemp>18.0</ns3:atemp>
          </ns3:TrackPointExtension>
        </extensions>
      </trkpt>
      <trkpt lat="46.76249287091195583343505859375" lon="6.856745816767215728759765625">
        <ele>422.20001220703125</ele>
        <time>2013-09-01T14:58:14.000Z</time>
        <extensions>
          <ns3:TrackPointExtension>
            <ns3:atemp>18.0</ns3:atemp>
          </ns3:TrackPointExtension>
        </extensions>
      </trkpt>
      <trkpt lat="46.762492619454860687255859375" lon="6.856721341609954833984375">
        <ele>422.600006103515625</ele>
        <time>2013-09-01T14:58:15.000Z</time>
        <extensions>
          <ns3:TrackPointExtension>
            <ns3:atemp>18.0</ns3:atemp>
          </ns3:TrackPointExtension>
        </extensions>
      </trkpt>
      <trkpt lat="46.7624901048839092254638671875" lon="6.8566993810236454010009765625">
        <ele>423</ele>
        <time>2013-09-01T14:58:16.000Z</time>
        <extensions>
          <ns3:TrackPointExtension>
            <ns3:atemp>18.0</ns3:atemp>
          </ns3:TrackPointExtension>
        </extensions>
      </trkpt>
      <trkpt lat="46.7624862492084503173828125" lon="6.856673061847686767578125">
        <ele>423.20001220703125</ele>
        <time>2013-09-01T14:58:17.000Z</time>
        <extensions>
          <ns3:TrackPointExtension>
            <ns3:atemp>18.0</ns3:atemp>
          </ns3:TrackPointExtension>
        </extensions>
      </trkpt>
      <trkpt lat="46.76247945986688137054443359375" lon="6.85664397664368152618408203125">
        <ele>423.600006103515625</ele>
        <time>2013-09-01T14:58:18.000Z</time>
        <extensions>
          <ns3:TrackPointExtension>
            <ns3:atemp>18.0</ns3:atemp>
          </ns3:TrackPointExtension>
        </extensions>
      </trkpt>
      <trkpt lat="46.76247392781078815460205078125" lon="6.85661782510578632354736328125">
        <ele>424</ele>
        <time>2013-09-01T14:58:19.000Z</time>
        <extensions>
          <ns3:TrackPointExtension>
            <ns3:atemp>18.0</ns3:atemp>
          </ns3:TrackPointExtension>
        </extensions>
      </trkpt>
      <trkpt lat="46.76246789284050464630126953125" lon="6.85659351758658885955810546875">
        <ele>424.20001220703125</ele>
        <time>2013-09-01T14:58:20.000Z</time>
        <extensions>
          <ns3:TrackPointExtension>
            <ns3:atemp>18.0</ns3:atemp>
          </ns3:TrackPointExtension>
        </extensions>
      </trkpt>
      <trkpt lat="46.76246386952698230743408203125" lon="6.856569461524486541748046875">
        <ele>424.600006103515625</ele>
        <time>2013-09-01T14:58:21.000Z</time>
        <extensions>
          <ns3:TrackPointExtension>
            <ns3:atemp>18.0</ns3:atemp>
          </ns3:TrackPointExtension>
        </extensions>
      </trkpt>
      <trkpt lat="46.76245565526187419891357421875" lon="6.8565407954156398773193359375">
        <ele>425</ele>
        <time>2013-09-01T14:58:22.000Z</time>
        <extensions>
          <ns3:TrackPointExtension>
            <ns3:atemp>18.0</ns3:atemp>
          </ns3:TrackPointExtension>
        </extensions>
      </trkpt>
      <trkpt lat="46.7624498717486858367919921875" lon="6.85651623643934726715087890625">
        <ele>425.20001220703125</ele>
        <time>2013-09-01T14:58:23.000Z</time>
        <extensions>
          <ns3:TrackPointExtension>
            <ns3:atemp>18.0</ns3:atemp>
          </ns3:TrackPointExtension>
        </extensions>
      </trkpt>
      <trkpt lat="46.7624465189874172210693359375" lon="6.85649142600595951080322265625">
        <ele>425.600006103515625</ele>
        <time>2013-09-01T14:58:24.000Z</time>
        <extensions>
          <ns3:TrackPointExtension>
            <ns3:atemp>18.0</ns3:atemp>
          </ns3:TrackPointExtension>
        </extensions>
      </trkpt>
      <trkpt lat="46.7624404840171337127685546875" lon="6.85646745376288890838623046875">
        <ele>425.79998779296875</ele>
        <time>2013-09-01T14:58:25.000Z</time>
        <extensions>
          <ns3:TrackPointExtension>
            <ns3:atemp>18.0</ns3:atemp>
          </ns3:TrackPointExtension>
        </extensions>
      </trkpt>
      <trkpt lat="46.7624367959797382354736328125" lon="6.8564405478537082672119140625">
        <ele>426</ele>
        <time>2013-09-01T14:58:26.000Z</time>
        <extensions>
          <ns3:TrackPointExtension>
            <ns3:atemp>18.0</ns3:atemp>
          </ns3:TrackPointExtension>
        </extensions>
      </trkpt>
      <trkpt lat="46.762436293065547943115234375" lon="6.85641515068709850311279296875">
        <ele>426.399993896484375</ele>
        <time>2013-09-01T14:58:27.000Z</time>
        <extensions>
          <ns3:TrackPointExtension>
            <ns3:atemp>18.0</ns3:atemp>
          </ns3:TrackPointExtension>
        </extensions>
      </trkpt>
      <trkpt lat="46.7624344490468502044677734375" lon="6.85639419592916965484619140625">
        <ele>426.79998779296875</ele>
        <time>2013-09-01T14:58:28.000Z</time>
        <extensions>
          <ns3:TrackPointExtension>
            <ns3:atemp>18.0</ns3:atemp>
          </ns3:TrackPointExtension>
        </extensions>
      </trkpt>
      <trkpt lat="46.76243453286588191986083984375" lon="6.85639738105237483978271484375">
        <ele>427</ele>
        <time>2013-09-01T14:58:29.000Z</time>
        <extensions>
          <ns3:TrackPointExtension>
            <ns3:atemp>18.0</ns3:atemp>
          </ns3:TrackPointExtension>
        </extensions>
      </trkpt>
      <trkpt lat="46.762430258095264434814453125" lon="6.856357567012310028076171875">
        <ele>427.399993896484375</ele>
        <time>2013-09-01T14:58:30.000Z</time>
        <extensions>
          <ns3:TrackPointExtension>
            <ns3:atemp>18.0</ns3:atemp>
          </ns3:TrackPointExtension>
        </extensions>
      </trkpt>
      <trkpt lat="46.76242447458207607269287109375" lon="6.85634004883468151092529296875">
        <ele>427.600006103515625</ele>
        <time>2013-09-01T14:58:31.000Z</time>
        <extensions>
          <ns3:TrackPointExtension>
            <ns3:atemp>18.0</ns3:atemp>
          </ns3:TrackPointExtension>
        </extensions>
      </trkpt>
      <trkpt lat="46.7624180205166339874267578125" lon="6.85632093809545040130615234375">
        <ele>428</ele>
        <time>2013-09-01T14:58:32.000Z</time>
        <extensions>
          <ns3:TrackPointExtension>
            <ns3:atemp>18.0</ns3:atemp>
          </ns3:TrackPointExtension>
        </extensions>
      </trkpt>
      <trkpt lat="46.76241290755569934844970703125" lon="6.856300570070743560791015625">
        <ele>428.20001220703125</ele>
        <time>2013-09-01T14:58:33.000Z</time>
        <extensions>
          <ns3:TrackPointExtension>
            <ns3:atemp>18.0</ns3:atemp>
          </ns3:TrackPointExtension>
        </extensions>
      </trkpt>
      <trkpt lat="46.7624084651470184326171875" lon="6.85628020204603672027587890625">
        <ele>428.399993896484375</ele>
        <time>2013-09-01T14:58:34.000Z</time>
        <extensions>
          <ns3:TrackPointExtension>
            <ns3:atemp>18.0</ns3:atemp>
          </ns3:TrackPointExtension>
        </extensions>
      </trkpt>
      <trkpt lat="46.7624032683670520782470703125" lon="6.85626008547842502593994140625">
        <ele>428.600006103515625</ele>
        <time>2013-09-01T14:58:35.000Z</time>
        <extensions>
          <ns3:TrackPointExtension>
            <ns3:atemp>18.0</ns3:atemp>
          </ns3:TrackPointExtension>
        </extensions>
      </trkpt>
      <trkpt lat="46.76239681430160999298095703125" lon="6.8562360294163227081298828125">
        <ele>429</ele>
        <time>2013-09-01T14:58:36.000Z</time>
        <extensions>
          <ns3:TrackPointExtension>
            <ns3:atemp>18.0</ns3:atemp>
          </ns3:TrackPointExtension>
        </extensions>
      </trkpt>
      <trkpt lat="46.76239128224551677703857421875" lon="6.856208033859729766845703125">
        <ele>429.399993896484375</ele>
        <time>2013-09-01T14:58:37.000Z</time>
        <extensions>
          <ns3:TrackPointExtension>
            <ns3:atemp>18.0</ns3:atemp>
          </ns3:TrackPointExtension>
        </extensions>
      </trkpt>
      <trkpt lat="46.76238901913166046142578125" lon="6.85618666000664234161376953125">
        <ele>429.600006103515625</ele>
        <time>2013-09-01T14:58:38.000Z</time>
        <extensions>
          <ns3:TrackPointExtension>
            <ns3:atemp>18.0</ns3:atemp>
          </ns3:TrackPointExtension>
        </extensions>
      </trkpt>
      <trkpt lat="46.76238340325653553009033203125" lon="6.85616637580096721649169921875">
        <ele>429.79998779296875</ele>
        <time>2013-09-01T14:58:39.000Z</time>
        <extensions>
          <ns3:TrackPointExtension>
            <ns3:atemp>18.0</ns3:atemp>
          </ns3:TrackPointExtension>
        </extensions>
      </trkpt>
      <trkpt lat="46.76237904466688632965087890625" lon="6.856146343052387237548828125">
        <ele>430.20001220703125</ele>
        <time>2013-09-01T14:58:40.000Z</time>
        <extensions>
          <ns3:TrackPointExtension>
            <ns3:atemp>18.0</ns3:atemp>
          </ns3:TrackPointExtension>
        </extensions>
      </trkpt>
      <trkpt lat="46.76237585954368114471435546875" lon="6.8561233766376972198486328125">
        <ele>430.399993896484375</ele>
        <time>2013-09-01T14:58:41.000Z</time>
        <extensions>
          <ns3:TrackPointExtension>
            <ns3:atemp>18.0</ns3:atemp>
          </ns3:TrackPointExtension>
        </extensions>
      </trkpt>
      <trkpt lat="46.7623690702021121978759765625" lon="6.85609814710915088653564453125">
        <ele>430.79998779296875</ele>
        <time>2013-09-01T14:58:42.000Z</time>
        <extensions>
          <ns3:TrackPointExtension>
            <ns3:atemp>18.0</ns3:atemp>
          </ns3:TrackPointExtension>
        </extensions>
      </trkpt>
      <trkpt lat="46.76236093975603580474853515625" lon="6.85607199557125568389892578125">
        <ele>431.20001220703125</ele>
        <time>2013-09-01T14:58:43.000Z</time>
        <extensions>
          <ns3:TrackPointExtension>
            <ns3:atemp>18.0</ns3:atemp>
          </ns3:TrackPointExtension>
        </extensions>
      </trkpt>
      <trkpt lat="46.7623563297092914581298828125" lon="6.85604768805205821990966796875">
        <ele>431.600006103515625</ele>
        <time>2013-09-01T14:58:44.000Z</time>
        <extensions>
          <ns3:TrackPointExtension>
            <ns3:atemp>18.0</ns3:atemp>
          </ns3:TrackPointExtension>
        </extensions>
      </trkpt>
      <trkpt lat="46.76235674880445003509521484375" lon="6.85602304525673389434814453125">
        <ele>431.79998779296875</ele>
        <time>2013-09-01T14:58:45.000Z</time>
        <extensions>
          <ns3:TrackPointExtension>
            <ns3:atemp>18.0</ns3:atemp>
          </ns3:TrackPointExtension>
        </extensions>
      </trkpt>
      <trkpt lat="46.7623543180525302886962890625" lon="6.855998821556568145751953125">
        <ele>432.20001220703125</ele>
        <time>2013-09-01T14:58:46.000Z</time>
        <extensions>
          <ns3:TrackPointExtension>
            <ns3:atemp>18.0</ns3:atemp>
          </ns3:TrackPointExtension>
        </extensions>
      </trkpt>
      <trkpt lat="46.76235088147222995758056640625" lon="6.855971999466419219970703125">
        <ele>432.20001220703125</ele>
        <time>2013-09-01T14:58:47.000Z</time>
        <extensions>
          <ns3:TrackPointExtension>
            <ns3:atemp>18.0</ns3:atemp>
          </ns3:TrackPointExtension>
        </extensions>
      </trkpt>
      <trkpt lat="46.762342751026153564453125" lon="6.855944506824016571044921875">
        <ele>432.600006103515625</ele>
        <time>2013-09-01T14:58:48.000Z</time>
        <extensions>
          <ns3:TrackPointExtension>
            <ns3:atemp>18.0</ns3:atemp>
          </ns3:TrackPointExtension>
        </extensions>
      </trkpt>
      <trkpt lat="46.76233964972198009490966796875" lon="6.85592028312385082244873046875">
        <ele>433</ele>
        <time>2013-09-01T14:58:49.000Z</time>
        <extensions>
          <ns3:TrackPointExtension>
            <ns3:atemp>18.0</ns3:atemp>
          </ns3:TrackPointExtension>
        </extensions>
      </trkpt>
      <trkpt lat="46.7623333632946014404296875" lon="6.855890192091464996337890625">
        <ele>433.399993896484375</ele>
        <time>2013-09-01T14:58:50.000Z</time>
        <extensions>
          <ns3:TrackPointExtension>
            <ns3:atemp>18.0</ns3:atemp>
          </ns3:TrackPointExtension>
        </extensions>
      </trkpt>
      <trkpt lat="46.7623258195817470550537109375" lon="6.85585104860365390777587890625">
        <ele>433.600006103515625</ele>
        <time>2013-09-01T14:58:51.000Z</time>
        <extensions>
          <ns3:TrackPointExtension>
            <ns3:atemp>18.0</ns3:atemp>
          </ns3:TrackPointExtension>
        </extensions>
      </trkpt>
      <trkpt lat="46.7623248137533664703369140625" lon="6.85583017766475677490234375">
        <ele>434</ele>
        <time>2013-09-01T14:58:52.000Z</time>
        <extensions>
          <ns3:TrackPointExtension>
            <ns3:atemp>18.0</ns3:atemp>
          </ns3:TrackPointExtension>
        </extensions>
      </trkpt>
      <trkpt lat="46.76231391727924346923828125" lon="6.855792291462421417236328125">
        <ele>434.399993896484375</ele>
        <time>2013-09-01T14:58:53.000Z</time>
        <extensions>
          <ns3:TrackPointExtension>
            <ns3:atemp>18.0</ns3:atemp>
          </ns3:TrackPointExtension>
        </extensions>
      </trkpt>
      <trkpt lat="46.76230310462415218353271484375" lon="6.85575482435524463653564453125">
        <ele>434.79998779296875</ele>
        <time>2013-09-01T14:58:54.000Z</time>
        <extensions>
          <ns3:TrackPointExtension>
            <ns3:atemp>18.0</ns3:atemp>
          </ns3:TrackPointExtension>
        </extensions>
      </trkpt>
      <trkpt lat="46.762300170958042144775390625" lon="6.855729259550571441650390625">
        <ele>435</ele>
        <time>2013-09-01T14:58:55.000Z</time>
        <extensions>
          <ns3:TrackPointExtension>
            <ns3:atemp>18.0</ns3:atemp>
          </ns3:TrackPointExtension>
        </extensions>
      </trkpt>
      <trkpt lat="46.7622976563870906829833984375" lon="6.85569698922336101531982421875">
        <ele>435.399993896484375</ele>
        <time>2013-09-01T14:58:56.000Z</time>
        <extensions>
          <ns3:TrackPointExtension>
            <ns3:atemp>18.0</ns3:atemp>
          </ns3:TrackPointExtension>
        </extensions>
      </trkpt>
      <trkpt lat="46.76229245960712432861328125" lon="6.85566245578229427337646484375">
        <ele>435.600006103515625</ele>
        <time>2013-09-01T14:58:57.000Z</time>
        <extensions>
          <ns3:TrackPointExtension>
            <ns3:atemp>18.0</ns3:atemp>
          </ns3:TrackPointExtension>
        </extensions>
      </trkpt>
      <trkpt lat="46.76228986121714115142822265625" lon="6.85563110746443271636962890625">
        <ele>435.79998779296875</ele>
        <time>2013-09-01T14:58:58.000Z</time>
        <extensions>
          <ns3:TrackPointExtension>
            <ns3:atemp>18.0</ns3:atemp>
          </ns3:TrackPointExtension>
        </extensions>
      </trkpt>
      <trkpt lat="46.762289106845855712890625" lon="6.85560286045074462890625">
        <ele>436.20001220703125</ele>
        <time>2013-09-01T14:58:59.000Z</time>
        <extensions>
          <ns3:TrackPointExtension>
            <ns3:atemp>18.0</ns3:atemp>
          </ns3:TrackPointExtension>
        </extensions>
      </trkpt>
      <trkpt lat="46.7622859217226505279541015625" lon="6.85557411052286624908447265625">
        <ele>436.399993896484375</ele>
        <time>2013-09-01T14:59:00.000Z</time>
        <extensions>
          <ns3:TrackPointExtension>
            <ns3:atemp>18.0</ns3:atemp>
          </ns3:TrackPointExtension>
        </extensions>
      </trkpt>
      <trkpt lat="46.7622818984091281890869140625" lon="6.8555534072220325469970703125">
        <ele>436.600006103515625</ele>
        <time>2013-09-01T14:59:01.000Z</time>
        <extensions>
          <ns3:TrackPointExtension>
            <ns3:atemp>18.0</ns3:atemp>
          </ns3:TrackPointExtension>
        </extensions>
      </trkpt>
      <trkpt lat="46.762273013591766357421875" lon="6.85553169809281826019287109375">
        <ele>436.79998779296875</ele>
        <time>2013-09-01T14:59:02.000Z</time>
        <extensions>
          <ns3:TrackPointExtension>
            <ns3:atemp>18.0</ns3:atemp>
          </ns3:TrackPointExtension>
        </extensions>
      </trkpt>
      <trkpt lat="46.76227443851530551910400390625" lon="6.85553471557796001434326171875">
        <ele>437.20001220703125</ele>
        <time>2013-09-01T14:59:03.000Z</time>
        <extensions>
          <ns3:TrackPointExtension>
            <ns3:atemp>18.0</ns3:atemp>
          </ns3:TrackPointExtension>
        </extensions>
      </trkpt>
      <trkpt lat="46.76226295530796051025390625" lon="6.85547922737896442413330078125">
        <ele>437.600006103515625</ele>
        <time>2013-09-01T14:59:04.000Z</time>
        <extensions>
          <ns3:TrackPointExtension>
            <ns3:atemp>18.0</ns3:atemp>
          </ns3:TrackPointExtension>
        </extensions>
      </trkpt>
      <trkpt lat="46.76226253621280193328857421875" lon="6.8554833345115184783935546875">
        <ele>438</ele>
        <time>2013-09-01T14:59:05.000Z</time>
        <extensions>
          <ns3:TrackPointExtension>
            <ns3:atemp>18.0</ns3:atemp>
          </ns3:TrackPointExtension>
        </extensions>
      </trkpt>
      <trkpt lat="46.76225314848124980926513671875" lon="6.85542306862771511077880859375">
        <ele>438.399993896484375</ele>
        <time>2013-09-01T14:59:06.000Z</time>
        <extensions>
          <ns3:TrackPointExtension>
            <ns3:atemp>18.0</ns3:atemp>
          </ns3:TrackPointExtension>
        </extensions>
      </trkpt>
      <trkpt lat="46.76225197501480579376220703125" lon="6.85539758764207363128662109375">
        <ele>438.600006103515625</ele>
        <time>2013-09-01T14:59:07.000Z</time>
        <extensions>
          <ns3:TrackPointExtension>
            <ns3:atemp>18.0</ns3:atemp>
          </ns3:TrackPointExtension>
        </extensions>
      </trkpt>
      <trkpt lat="46.7622483707964420318603515625" lon="6.8553690053522586822509765625">
        <ele>439</ele>
        <time>2013-09-01T14:59:08.000Z</time>
        <extensions>
          <ns3:TrackPointExtension>
            <ns3:atemp>18.0</ns3:atemp>
          </ns3:TrackPointExtension>
        </extensions>
      </trkpt>
      <trkpt lat="46.76224543713033199310302734375" lon="6.8553465418517589569091796875">
        <ele>439.399993896484375</ele>
        <time>2013-09-01T14:59:09.000Z</time>
        <extensions>
          <ns3:TrackPointExtension>
            <ns3:atemp>18.0</ns3:atemp>
          </ns3:TrackPointExtension>
        </extensions>
      </trkpt>
      <trkpt lat="46.762244515120983123779296875" lon="6.85532365925610065460205078125">
        <ele>439.600006103515625</ele>
        <time>2013-09-01T14:59:10.000Z</time>
        <extensions>
          <ns3:TrackPointExtension>
            <ns3:atemp>18.0</ns3:atemp>
          </ns3:TrackPointExtension>
        </extensions>
      </trkpt>
      <trkpt lat="46.76224141381680965423583984375" lon="6.855297423899173736572265625">
        <ele>439.79998779296875</ele>
        <time>2013-09-01T14:59:11.000Z</time>
        <extensions>
          <ns3:TrackPointExtension>
            <ns3:atemp>18.0</ns3:atemp>
          </ns3:TrackPointExtension>
        </extensions>
      </trkpt>
      <trkpt lat="46.7622406594455242156982421875" lon="6.8552714399993419647216796875">
        <ele>440</ele>
        <time>2013-09-01T14:59:12.000Z</time>
        <extensions>
          <ns3:TrackPointExtension>
            <ns3:atemp>18.0</ns3:atemp>
          </ns3:TrackPointExtension>
        </extensions>
      </trkpt>
      <trkpt lat="46.7622396536171436309814453125" lon="6.85524788685142993927001953125">
        <ele>440.399993896484375</ele>
        <time>2013-09-01T14:59:13.000Z</time>
        <extensions>
          <ns3:TrackPointExtension>
            <ns3:atemp>18.0</ns3:atemp>
          </ns3:TrackPointExtension>
        </extensions>
      </trkpt>
      <trkpt lat="46.76223873160779476165771484375" lon="6.85521905310451984405517578125">
        <ele>440.79998779296875</ele>
        <time>2013-09-01T14:59:14.000Z</time>
        <extensions>
          <ns3:TrackPointExtension>
            <ns3:atemp>18.0</ns3:atemp>
          </ns3:TrackPointExtension>
        </extensions>
      </trkpt>
      <trkpt lat="46.76223747432231903076171875" lon="6.85519239865243434906005859375">
        <ele>441.20001220703125</ele>
        <time>2013-09-01T14:59:15.000Z</time>
        <extensions>
          <ns3:TrackPointExtension>
            <ns3:atemp>18.0</ns3:atemp>
          </ns3:TrackPointExtension>
        </extensions>
      </trkpt>
      <trkpt lat="46.76223571412265300750732421875" lon="6.8551711924374103546142578125">
        <ele>441.600006103515625</ele>
        <time>2013-09-01T14:59:16.000Z</time>
        <extensions>
          <ns3:TrackPointExtension>
            <ns3:atemp>18.0</ns3:atemp>
          </ns3:TrackPointExtension>
        </extensions>
      </trkpt>
      <trkpt lat="46.76223269663751125335693359375" lon="6.8551436997950077056884765625">
        <ele>442</ele>
        <time>2013-09-01T14:59:17.000Z</time>
        <extensions>
          <ns3:TrackPointExtension>
            <ns3:atemp>18.0</ns3:atemp>
          </ns3:TrackPointExtension>
        </extensions>
      </trkpt>
      <trkpt lat="46.7622336186468601226806640625" lon="6.8551214039325714111328125">
        <ele>442</ele>
        <time>2013-09-01T14:59:18.000Z</time>
        <extensions>
          <ns3:TrackPointExtension>
            <ns3:atemp>18.0</ns3:atemp>
          </ns3:TrackPointExtension>
        </extensions>
      </trkpt>
      <trkpt lat="46.7622342891991138458251953125" lon="6.8550991080701351165771484375">
        <ele>442.399993896484375</ele>
        <time>2013-09-01T14:59:19.000Z</time>
        <extensions>
          <ns3:TrackPointExtension>
            <ns3:atemp>18.0</ns3:atemp>
          </ns3:TrackPointExtension>
        </extensions>
      </trkpt>
      <trkpt lat="46.76223504357039928436279296875" lon="6.8550784885883331298828125">
        <ele>442.600006103515625</ele>
        <time>2013-09-01T14:59:20.000Z</time>
        <extensions>
          <ns3:TrackPointExtension>
            <ns3:atemp>18.0</ns3:atemp>
          </ns3:TrackPointExtension>
        </extensions>
      </trkpt>
      <trkpt lat="46.762235127389430999755859375" lon="6.85505795292556285858154296875">
        <ele>443</ele>
        <time>2013-09-01T14:59:21.000Z</time>
        <extensions>
          <ns3:TrackPointExtension>
            <ns3:atemp>18.0</ns3:atemp>
          </ns3:TrackPointExtension>
        </extensions>
      </trkpt>
      <trkpt lat="46.76223319955170154571533203125" lon="6.8550382554531097412109375">
        <ele>443.20001220703125</ele>
        <time>2013-09-01T14:59:22.000Z</time>
        <extensions>
          <ns3:TrackPointExtension>
            <ns3:atemp>18.0</ns3:atemp>
          </ns3:TrackPointExtension>
        </extensions>
      </trkpt>
      <trkpt lat="46.76223102025687694549560546875" lon="6.85501973144710063934326171875">
        <ele>443.600006103515625</ele>
        <time>2013-09-01T14:59:23.000Z</time>
        <extensions>
          <ns3:TrackPointExtension>
            <ns3:atemp>18.0</ns3:atemp>
          </ns3:TrackPointExtension>
        </extensions>
      </trkpt>
      <trkpt lat="46.76222515292465686798095703125" lon="6.85499559156596660614013671875">
        <ele>443.79998779296875</ele>
        <time>2013-09-01T14:59:24.000Z</time>
        <extensions>
          <ns3:TrackPointExtension>
            <ns3:atemp>18.0</ns3:atemp>
          </ns3:TrackPointExtension>
        </extensions>
      </trkpt>
      <trkpt lat="46.7622178606688976287841796875" lon="6.85497321188449859619140625">
        <ele>444.20001220703125</ele>
        <time>2013-09-01T14:59:25.000Z</time>
        <extensions>
          <ns3:TrackPointExtension>
            <ns3:atemp>18.0</ns3:atemp>
          </ns3:TrackPointExtension>
        </extensions>
      </trkpt>
      <trkpt lat="46.76221291534602642059326171875" lon="6.85495485551655292510986328125">
        <ele>444.399993896484375</ele>
        <time>2013-09-01T14:59:26.000Z</time>
        <extensions>
          <ns3:TrackPointExtension>
            <ns3:atemp>18.0</ns3:atemp>
          </ns3:TrackPointExtension>
        </extensions>
      </trkpt>
      <trkpt lat="46.7622074671089649200439453125" lon="6.85493406839668750762939453125">
        <ele>444.79998779296875</ele>
        <time>2013-09-01T14:59:27.000Z</time>
        <extensions>
          <ns3:TrackPointExtension>
            <ns3:atemp>18.0</ns3:atemp>
          </ns3:TrackPointExtension>
        </extensions>
      </trkpt>
      <trkpt lat="46.76220185123383998870849609375" lon="6.85491814278066158294677734375">
        <ele>444.79998779296875</ele>
        <time>2013-09-01T14:59:28.000Z</time>
        <extensions>
          <ns3:TrackPointExtension>
            <ns3:atemp>18.0</ns3:atemp>
          </ns3:TrackPointExtension>
        </extensions>
      </trkpt>
      <trkpt lat="46.76219598390161991119384765625" lon="6.854897104203701019287109375">
        <ele>445</ele>
        <time>2013-09-01T14:59:29.000Z</time>
        <extensions>
          <ns3:TrackPointExtension>
            <ns3:atemp>18.0</ns3:atemp>
          </ns3:TrackPointExtension>
        </extensions>
      </trkpt>
      <trkpt lat="46.76218609325587749481201171875" lon="6.8548781611025333404541015625">
        <ele>445.600006103515625</ele>
        <time>2013-09-01T14:59:30.000Z</time>
        <extensions>
          <ns3:TrackPointExtension>
            <ns3:atemp>18.0</ns3:atemp>
          </ns3:TrackPointExtension>
        </extensions>
      </trkpt>
      <trkpt lat="46.76217603497207164764404296875" lon="6.85486231930553913116455078125">
        <ele>445.79998779296875</ele>
        <time>2013-09-01T14:59:31.000Z</time>
        <extensions>
          <ns3:TrackPointExtension>
            <ns3:atemp>18.0</ns3:atemp>
          </ns3:TrackPointExtension>
        </extensions>
      </trkpt>
      <trkpt lat="46.76216396503150463104248046875" lon="6.8548459745943546295166015625">
        <ele>446</ele>
        <time>2013-09-01T14:59:32.000Z</time>
        <extensions>
          <ns3:TrackPointExtension>
            <ns3:atemp>18.0</ns3:atemp>
          </ns3:TrackPointExtension>
        </extensions>
      </trkpt>
      <trkpt lat="46.76215231418609619140625" lon="6.85482812114059925079345703125">
        <ele>446.20001220703125</ele>
        <time>2013-09-01T14:59:33.000Z</time>
        <extensions>
          <ns3:TrackPointExtension>
            <ns3:atemp>18.0</ns3:atemp>
          </ns3:TrackPointExtension>
        </extensions>
      </trkpt>
      <trkpt lat="46.76214401610195636749267578125" lon="6.85480959713459014892578125">
        <ele>446.399993896484375</ele>
        <time>2013-09-01T14:59:34.000Z</time>
        <extensions>
          <ns3:TrackPointExtension>
            <ns3:atemp>18.0</ns3:atemp>
          </ns3:TrackPointExtension>
        </extensions>
      </trkpt>
      <trkpt lat="46.76213630475103855133056640625" lon="6.85479191131889820098876953125">
        <ele>446.79998779296875</ele>
        <time>2013-09-01T14:59:35.000Z</time>
        <extensions>
          <ns3:TrackPointExtension>
            <ns3:atemp>18.0</ns3:atemp>
          </ns3:TrackPointExtension>
        </extensions>
      </trkpt>
      <trkpt lat="46.76213026978075504302978515625" lon="6.85477229766547679901123046875">
        <ele>447.20001220703125</ele>
        <time>2013-09-01T14:59:36.000Z</time>
        <extensions>
          <ns3:TrackPointExtension>
            <ns3:atemp>18.0</ns3:atemp>
          </ns3:TrackPointExtension>
        </extensions>
      </trkpt>
      <trkpt lat="46.76212021149694919586181640625" lon="6.85475192964076995849609375">
        <ele>447.399993896484375</ele>
        <time>2013-09-01T14:59:37.000Z</time>
        <extensions>
          <ns3:TrackPointExtension>
            <ns3:atemp>18.0</ns3:atemp>
          </ns3:TrackPointExtension>
        </extensions>
      </trkpt>
      <trkpt lat="46.7621107399463653564453125" lon="6.85473524965345859527587890625">
        <ele>447.600006103515625</ele>
        <time>2013-09-01T14:59:38.000Z</time>
        <extensions>
          <ns3:TrackPointExtension>
            <ns3:atemp>18.0</ns3:atemp>
          </ns3:TrackPointExtension>
        </extensions>
      </trkpt>
      <trkpt lat="46.7621021904051303863525390625" lon="6.85472016222774982452392578125">
        <ele>447.79998779296875</ele>
        <time>2013-09-01T14:59:39.000Z</time>
        <extensions>
          <ns3:TrackPointExtension>
            <ns3:atemp>18.0</ns3:atemp>
          </ns3:TrackPointExtension>
        </extensions>
      </trkpt>
      <trkpt lat="46.76209121011197566986083984375" lon="6.85470339842140674591064453125">
        <ele>448</ele>
        <time>2013-09-01T14:59:40.000Z</time>
        <extensions>
          <ns3:TrackPointExtension>
            <ns3:atemp>18.0</ns3:atemp>
          </ns3:TrackPointExtension>
        </extensions>
      </trkpt>
      <trkpt lat="46.762081570923328399658203125" lon="6.8546877242624759674072265625">
        <ele>448.20001220703125</ele>
        <time>2013-09-01T14:59:41.000Z</time>
        <extensions>
          <ns3:TrackPointExtension>
            <ns3:atemp>18.0</ns3:atemp>
          </ns3:TrackPointExtension>
        </extensions>
      </trkpt>
      <trkpt lat="46.76207117736339569091796875" lon="6.85466936789453029632568359375">
        <ele>448.600006103515625</ele>
        <time>2013-09-01T14:59:42.000Z</time>
        <extensions>
          <ns3:TrackPointExtension>
            <ns3:atemp>18.0</ns3:atemp>
          </ns3:TrackPointExtension>
        </extensions>
      </trkpt>
      <trkpt lat="46.762060783803462982177734375" lon="6.85464807786047458648681640625">
        <ele>448.79998779296875</ele>
        <time>2013-09-01T14:59:43.000Z</time>
        <extensions>
          <ns3:TrackPointExtension>
            <ns3:atemp>18.0</ns3:atemp>
          </ns3:TrackPointExtension>
        </extensions>
      </trkpt>
      <trkpt lat="46.7620463669300079345703125" lon="6.8546240217983722686767578125">
        <ele>449</ele>
        <time>2013-09-01T14:59:44.000Z</time>
        <extensions>
          <ns3:TrackPointExtension>
            <ns3:atemp>18.0</ns3:atemp>
          </ns3:TrackPointExtension>
        </extensions>
      </trkpt>
      <trkpt lat="46.76203572191298007965087890625" lon="6.85460449196398258209228515625">
        <ele>449.20001220703125</ele>
        <time>2013-09-01T14:59:45.000Z</time>
        <extensions>
          <ns3:TrackPointExtension>
            <ns3:atemp>18.0</ns3:atemp>
          </ns3:TrackPointExtension>
        </extensions>
      </trkpt>
      <trkpt lat="46.76202423870563507080078125" lon="6.8545894883573055267333984375">
        <ele>449.399993896484375</ele>
        <time>2013-09-01T14:59:46.000Z</time>
        <extensions>
          <ns3:TrackPointExtension>
            <ns3:atemp>18.0</ns3:atemp>
          </ns3:TrackPointExtension>
        </extensions>
      </trkpt>
      <trkpt lat="46.76200906746089458465576171875" lon="6.85457247309386730194091796875">
        <ele>449.600006103515625</ele>
        <time>2013-09-01T14:59:47.000Z</time>
        <extensions>
          <ns3:TrackPointExtension>
            <ns3:atemp>18.0</ns3:atemp>
          </ns3:TrackPointExtension>
        </extensions>
      </trkpt>
      <trkpt lat="46.76199339330196380615234375" lon="6.8545552901923656463623046875">
        <ele>449.79998779296875</ele>
        <time>2013-09-01T14:59:48.000Z</time>
        <extensions>
          <ns3:TrackPointExtension>
            <ns3:atemp>18.0</ns3:atemp>
          </ns3:TrackPointExtension>
        </extensions>
      </trkpt>
      <trkpt lat="46.761976964771747589111328125" lon="6.85453525744378566741943359375">
        <ele>450</ele>
        <time>2013-09-01T14:59:49.000Z</time>
        <extensions>
          <ns3:TrackPointExtension>
            <ns3:atemp>18.0</ns3:atemp>
          </ns3:TrackPointExtension>
        </extensions>
      </trkpt>
      <trkpt lat="46.76196296699345111846923828125" lon="6.8545160628855228424072265625">
        <ele>450</ele>
        <time>2013-09-01T14:59:50.000Z</time>
        <extensions>
          <ns3:TrackPointExtension>
            <ns3:atemp>18.0</ns3:atemp>
          </ns3:TrackPointExtension>
        </extensions>
      </trkpt>
      <trkpt lat="46.76194603554904460906982421875" lon="6.8544959463179111480712890625">
        <ele>450.20001220703125</ele>
        <time>2013-09-01T14:59:51.000Z</time>
        <extensions>
          <ns3:TrackPointExtension>
            <ns3:atemp>18.0</ns3:atemp>
          </ns3:TrackPointExtension>
        </extensions>
      </trkpt>
      <trkpt lat="46.76192742772400379180908203125" lon="6.85447222553193569183349609375">
        <ele>450.399993896484375</ele>
        <time>2013-09-01T14:59:52.000Z</time>
        <extensions>
          <ns3:TrackPointExtension>
            <ns3:atemp>18.0</ns3:atemp>
          </ns3:TrackPointExtension>
        </extensions>
      </trkpt>
      <trkpt lat="46.7619060538709163665771484375" lon="6.85444523580372333526611328125">
        <ele>450.399993896484375</ele>
        <time>2013-09-01T14:59:53.000Z</time>
        <extensions>
          <ns3:TrackPointExtension>
            <ns3:atemp>18.0</ns3:atemp>
          </ns3:TrackPointExtension>
        </extensions>
      </trkpt>
      <trkpt lat="46.76188476383686065673828125" lon="6.85441958718001842498779296875">
        <ele>450.600006103515625</ele>
        <time>2013-09-01T14:59:54.000Z</time>
        <extensions>
          <ns3:TrackPointExtension>
            <ns3:atemp>18.0</ns3:atemp>
          </ns3:TrackPointExtension>
        </extensions>
      </trkpt>
      <trkpt lat="46.7618611268699169158935546875" lon="6.85439159162342548370361328125">
        <ele>450.79998779296875</ele>
        <time>2013-09-01T14:59:55.000Z</time>
        <extensions>
          <ns3:TrackPointExtension>
            <ns3:atemp>18.0</ns3:atemp>
          </ns3:TrackPointExtension>
        </extensions>
      </trkpt>
      <trkpt lat="46.76183589734137058258056640625" lon="6.8543591536581516265869140625">
        <ele>450.79998779296875</ele>
        <time>2013-09-01T14:59:56.000Z</time>
        <extensions>
          <ns3:TrackPointExtension>
            <ns3:atemp>18.0</ns3:atemp>
          </ns3:TrackPointExtension>
        </extensions>
      </trkpt>
      <trkpt lat="46.76181125454604625701904296875" lon="6.85432679951190948486328125">
        <ele>451</ele>
        <time>2013-09-01T14:59:57.000Z</time>
        <extensions>
          <ns3:TrackPointExtension>
            <ns3:atemp>18.0</ns3:atemp>
          </ns3:TrackPointExtension>
        </extensions>
      </trkpt>
      <trkpt lat="46.76178577356040477752685546875" lon="6.8542952835559844970703125">
        <ele>451.20001220703125</ele>
        <time>2013-09-01T14:59:58.000Z</time>
        <extensions>
          <ns3:TrackPointExtension>
            <ns3:atemp>18.0</ns3:atemp>
          </ns3:TrackPointExtension>
        </extensions>
      </trkpt>
      <trkpt lat="46.7617662437260150909423828125" lon="6.85426418669521808624267578125">
        <ele>451.399993896484375</ele>
        <time>2013-09-01T14:59:59.000Z</time>
        <extensions>
          <ns3:TrackPointExtension>
            <ns3:atemp>18.0</ns3:atemp>
          </ns3:TrackPointExtension>
        </extensions>
      </trkpt>
      <trkpt lat="46.76175224594771862030029296875" lon="6.85422956943511962890625">
        <ele>451.600006103515625</ele>
        <time>2013-09-01T15:00:00.000Z</time>
        <extensions>
          <ns3:TrackPointExtension>
            <ns3:atemp>18.0</ns3:atemp>
          </ns3:TrackPointExtension>
        </extensions>
      </trkpt>
      <trkpt lat="46.76173858344554901123046875" lon="6.85419964604079723358154296875">
        <ele>451.79998779296875</ele>
        <time>2013-09-01T15:00:01.000Z</time>
        <extensions>
          <ns3:TrackPointExtension>
            <ns3:atemp>18.0</ns3:atemp>
          </ns3:TrackPointExtension>
        </extensions>
      </trkpt>
      <trkpt lat="46.76172240637242794036865234375" lon="6.85416813008487224578857421875">
        <ele>451.79998779296875</ele>
        <time>2013-09-01T15:00:02.000Z</time>
        <extensions>
          <ns3:TrackPointExtension>
            <ns3:atemp>18.0</ns3:atemp>
          </ns3:TrackPointExtension>
        </extensions>
      </trkpt>
      <trkpt lat="46.761702038347721099853515625" lon="6.8541368655860424041748046875">
        <ele>452</ele>
        <time>2013-09-01T15:00:03.000Z</time>
        <extensions>
          <ns3:TrackPointExtension>
            <ns3:atemp>18.0</ns3:atemp>
          </ns3:TrackPointExtension>
        </extensions>
      </trkpt>
      <trkpt lat="46.76167957484722137451171875" lon="6.85411096550524234771728515625">
        <ele>452.20001220703125</ele>
        <time>2013-09-01T15:00:04.000Z</time>
        <extensions>
          <ns3:TrackPointExtension>
            <ns3:atemp>18.0</ns3:atemp>
          </ns3:TrackPointExtension>
        </extensions>
      </trkpt>
      <trkpt lat="46.76165887154638767242431640625" lon="6.85408414341509342193603515625">
        <ele>452.600006103515625</ele>
        <time>2013-09-01T15:00:05.000Z</time>
        <extensions>
          <ns3:TrackPointExtension>
            <ns3:atemp>18.0</ns3:atemp>
          </ns3:TrackPointExtension>
        </extensions>
      </trkpt>
      <trkpt lat="46.7616388387978076934814453125" lon="6.8540523760020732879638671875">
        <ele>452.79998779296875</ele>
        <time>2013-09-01T15:00:06.000Z</time>
        <extensions>
          <ns3:TrackPointExtension>
            <ns3:atemp>18.0</ns3:atemp>
          </ns3:TrackPointExtension>
        </extensions>
      </trkpt>
      <trkpt lat="46.76162081770598888397216796875" lon="6.85401943512260913848876953125">
        <ele>453.20001220703125</ele>
        <time>2013-09-01T15:00:07.000Z</time>
        <extensions>
          <ns3:TrackPointExtension>
            <ns3:atemp>18.0</ns3:atemp>
          </ns3:TrackPointExtension>
        </extensions>
      </trkpt>
      <trkpt lat="46.76160338334739208221435546875" lon="6.8539846502244472503662109375">
        <ele>453.399993896484375</ele>
        <time>2013-09-01T15:00:08.000Z</time>
        <extensions>
          <ns3:TrackPointExtension>
            <ns3:atemp>18.0</ns3:atemp>
          </ns3:TrackPointExtension>
        </extensions>
      </trkpt>
      <trkpt lat="46.76158435642719268798828125" lon="6.85394718311727046966552734375">
        <ele>453.600006103515625</ele>
        <time>2013-09-01T15:00:09.000Z</time>
        <extensions>
          <ns3:TrackPointExtension>
            <ns3:atemp>18.0</ns3:atemp>
          </ns3:TrackPointExtension>
        </extensions>
      </trkpt>
      <trkpt lat="46.761567592620849609375" lon="6.8539117276668548583984375">
        <ele>453.79998779296875</ele>
        <time>2013-09-01T15:00:10.000Z</time>
        <extensions>
          <ns3:TrackPointExtension>
            <ns3:atemp>18.0</ns3:atemp>
          </ns3:TrackPointExtension>
        </extensions>
      </trkpt>
      <trkpt lat="46.76155191846191883087158203125" lon="6.85387694276869297027587890625">
        <ele>453.79998779296875</ele>
        <time>2013-09-01T15:00:11.000Z</time>
        <extensions>
          <ns3:TrackPointExtension>
            <ns3:atemp>18.0</ns3:atemp>
          </ns3:TrackPointExtension>
        </extensions>
      </trkpt>
      <trkpt lat="46.761537753045558929443359375" lon="6.85384274460375308990478515625">
        <ele>454.20001220703125</ele>
        <time>2013-09-01T15:00:12.000Z</time>
        <extensions>
          <ns3:TrackPointExtension>
            <ns3:atemp>18.0</ns3:atemp>
          </ns3:TrackPointExtension>
        </extensions>
      </trkpt>
      <trkpt lat="46.7615206539630889892578125" lon="6.8538099713623523712158203125">
        <ele>454.399993896484375</ele>
        <time>2013-09-01T15:00:13.000Z</time>
        <extensions>
          <ns3:TrackPointExtension>
            <ns3:atemp>18.0</ns3:atemp>
          </ns3:TrackPointExtension>
        </extensions>
      </trkpt>
      <trkpt lat="46.76150011830031871795654296875" lon="6.85378038324415683746337890625">
        <ele>454.79998779296875</ele>
        <time>2013-09-01T15:00:14.000Z</time>
        <extensions>
          <ns3:TrackPointExtension>
            <ns3:atemp>18.0</ns3:atemp>
          </ns3:TrackPointExtension>
        </extensions>
      </trkpt>
      <trkpt lat="46.76148083992302417755126953125" lon="6.85374618507921695709228515625">
        <ele>455</ele>
        <time>2013-09-01T15:00:15.000Z</time>
        <extensions>
          <ns3:TrackPointExtension>
            <ns3:atemp>18.0</ns3:atemp>
          </ns3:TrackPointExtension>
        </extensions>
      </trkpt>
      <trkpt lat="46.76146625541150569915771484375" lon="6.85370528139173984527587890625">
        <ele>455.20001220703125</ele>
        <time>2013-09-01T15:00:16.000Z</time>
        <extensions>
          <ns3:TrackPointExtension>
            <ns3:atemp>18.0</ns3:atemp>
          </ns3:TrackPointExtension>
        </extensions>
      </trkpt>
      <trkpt lat="46.761450581252574920654296875" lon="6.85366504825651645660400390625">
        <ele>455.399993896484375</ele>
        <time>2013-09-01T15:00:17.000Z</time>
        <extensions>
          <ns3:TrackPointExtension>
            <ns3:atemp>18.0</ns3:atemp>
          </ns3:TrackPointExtension>
        </extensions>
      </trkpt>
      <trkpt lat="46.7614336498081684112548828125" lon="6.8536225520074367523193359375">
        <ele>455.399993896484375</ele>
        <time>2013-09-01T15:00:18.000Z</time>
        <extensions>
          <ns3:TrackPointExtension>
            <ns3:atemp>18.0</ns3:atemp>
          </ns3:TrackPointExtension>
        </extensions>
      </trkpt>
      <trkpt lat="46.76141831092536449432373046875" lon="6.85357636772096157073974609375">
        <ele>455.600006103515625</ele>
        <time>2013-09-01T15:00:19.000Z</time>
        <extensions>
          <ns3:TrackPointExtension>
            <ns3:atemp>18.0</ns3:atemp>
          </ns3:TrackPointExtension>
        </extensions>
      </trkpt>
      <trkpt lat="46.76140196621417999267578125" lon="6.853528507053852081298828125">
        <ele>455.79998779296875</ele>
        <time>2013-09-01T15:00:20.000Z</time>
        <extensions>
          <ns3:TrackPointExtension>
            <ns3:atemp>18.0</ns3:atemp>
          </ns3:TrackPointExtension>
        </extensions>
      </trkpt>
      <trkpt lat="46.7613816820085048675537109375" lon="6.853480227291584014892578125">
        <ele>456</ele>
        <time>2013-09-01T15:00:21.000Z</time>
        <extensions>
          <ns3:TrackPointExtension>
            <ns3:atemp>18.0</ns3:atemp>
          </ns3:TrackPointExtension>
        </extensions>
      </trkpt>
      <trkpt lat="46.76135838031768798828125" lon="6.853434629738330841064453125">
        <ele>456</ele>
        <time>2013-09-01T15:00:22.000Z</time>
        <extensions>
          <ns3:TrackPointExtension>
            <ns3:atemp>18.0</ns3:atemp>
          </ns3:TrackPointExtension>
        </extensions>
      </trkpt>
      <trkpt lat="46.76133516244590282440185546875" lon="6.85338668525218963623046875">
        <ele>455.79998779296875</ele>
        <time>2013-09-01T15:00:23.000Z</time>
        <extensions>
          <ns3:TrackPointExtension>
            <ns3:atemp>18.0</ns3:atemp>
          </ns3:TrackPointExtension>
        </extensions>
      </trkpt>
      <trkpt lat="46.76131345331668853759765625" lon="6.8533352203667163848876953125">
        <ele>455.79998779296875</ele>
        <time>2013-09-01T15:00:24.000Z</time>
        <extensions>
          <ns3:TrackPointExtension>
            <ns3:atemp>18.0</ns3:atemp>
          </ns3:TrackPointExtension>
        </extensions>
      </trkpt>
      <trkpt lat="46.7612924985587596893310546875" lon="6.8532840907573699951171875">
        <ele>455.79998779296875</ele>
        <time>2013-09-01T15:00:25.000Z</time>
        <extensions>
          <ns3:TrackPointExtension>
            <ns3:atemp>18.0</ns3:atemp>
          </ns3:TrackPointExtension>
        </extensions>
      </trkpt>
      <trkpt lat="46.761269532144069671630859375" lon="6.8532304465770721435546875">
        <ele>455.79998779296875</ele>
        <time>2013-09-01T15:00:26.000Z</time>
        <extensions>
          <ns3:TrackPointExtension>
            <ns3:atemp>18.0</ns3:atemp>
          </ns3:TrackPointExtension>
        </extensions>
      </trkpt>
      <trkpt lat="46.76124530844390392303466796875" lon="6.85317940078675746917724609375">
        <ele>456</ele>
        <time>2013-09-01T15:00:27.000Z</time>
        <extensions>
          <ns3:TrackPointExtension>
            <ns3:atemp>18.0</ns3:atemp>
          </ns3:TrackPointExtension>
        </extensions>
      </trkpt>
      <trkpt lat="46.761219911277294158935546875" lon="6.85312927700579166412353515625">
        <ele>455.79998779296875</ele>
        <time>2013-09-01T15:00:28.000Z</time>
        <extensions>
          <ns3:TrackPointExtension>
            <ns3:atemp>18.0</ns3:atemp>
          </ns3:TrackPointExtension>
        </extensions>
      </trkpt>
      <trkpt lat="46.76119334064424037933349609375" lon="6.853081248700618743896484375">
        <ele>456</ele>
        <time>2013-09-01T15:00:29.000Z</time>
        <extensions>
          <ns3:TrackPointExtension>
            <ns3:atemp>18.0</ns3:atemp>
          </ns3:TrackPointExtension>
        </extensions>
      </trkpt>
      <trkpt lat="46.7611660994589328765869140625" lon="6.85303322039544582366943359375">
        <ele>455.79998779296875</ele>
        <time>2013-09-01T15:00:30.000Z</time>
        <extensions>
          <ns3:TrackPointExtension>
            <ns3:atemp>18.0</ns3:atemp>
          </ns3:TrackPointExtension>
        </extensions>
      </trkpt>
      <trkpt lat="46.76113667897880077362060546875" lon="6.85298435389995574951171875">
        <ele>456.20001220703125</ele>
        <time>2013-09-01T15:00:31.000Z</time>
        <extensions>
          <ns3:TrackPointExtension>
            <ns3:atemp>18.0</ns3:atemp>
          </ns3:TrackPointExtension>
        </extensions>
      </trkpt>
      <trkpt lat="46.7611054144799709320068359375" lon="6.852937079966068267822265625">
        <ele>456.20001220703125</ele>
        <time>2013-09-01T15:00:32.000Z</time>
        <extensions>
          <ns3:TrackPointExtension>
            <ns3:atemp>18.0</ns3:atemp>
          </ns3:TrackPointExtension>
        </extensions>
      </trkpt>
      <trkpt lat="46.76107230596244335174560546875" lon="6.8528882972896099090576171875">
        <ele>456.399993896484375</ele>
        <time>2013-09-01T15:00:33.000Z</time>
        <extensions>
          <ns3:TrackPointExtension>
            <ns3:atemp>18.0</ns3:atemp>
          </ns3:TrackPointExtension>
        </extensions>
      </trkpt>
      <trkpt lat="46.76104179583489894866943359375" lon="6.8528401851654052734375">
        <ele>456.399993896484375</ele>
        <time>2013-09-01T15:00:34.000Z</time>
        <extensions>
          <ns3:TrackPointExtension>
            <ns3:atemp>18.0</ns3:atemp>
          </ns3:TrackPointExtension>
        </extensions>
      </trkpt>
      <trkpt lat="46.76101413555443286895751953125" lon="6.85279081575572490692138671875">
        <ele>456.399993896484375</ele>
        <time>2013-09-01T15:00:35.000Z</time>
        <extensions>
          <ns3:TrackPointExtension>
            <ns3:atemp>17.0</ns3:atemp>
          </ns3:TrackPointExtension>
        </extensions>
      </trkpt>
      <trkpt lat="46.7609884031116962432861328125" lon="6.8527417816221714019775390625">
        <ele>456.399993896484375</ele>
        <time>2013-09-01T15:00:36.000Z</time>
        <extensions>
          <ns3:TrackPointExtension>
            <ns3:atemp>17.0</ns3:atemp>
          </ns3:TrackPointExtension>
        </extensions>
      </trkpt>
      <trkpt lat="46.76096686162054538726806640625" lon="6.85268889181315898895263671875">
        <ele>456.399993896484375</ele>
        <time>2013-09-01T15:00:37.000Z</time>
        <extensions>
          <ns3:TrackPointExtension>
            <ns3:atemp>17.0</ns3:atemp>
          </ns3:TrackPointExtension>
        </extensions>
      </trkpt>
      <trkpt lat="46.76094037480652332305908203125" lon="6.8526361696422100067138671875">
        <ele>456.20001220703125</ele>
        <time>2013-09-01T15:00:38.000Z</time>
        <extensions>
          <ns3:TrackPointExtension>
            <ns3:atemp>17.0</ns3:atemp>
          </ns3:TrackPointExtension>
        </extensions>
      </trkpt>
      <trkpt lat="46.7609102837741374969482421875" lon="6.85258814133703708648681640625">
        <ele>456</ele>
        <time>2013-09-01T15:00:39.000Z</time>
        <extensions>
          <ns3:TrackPointExtension>
            <ns3:atemp>17.0</ns3:atemp>
          </ns3:TrackPointExtension>
        </extensions>
      </trkpt>
      <trkpt lat="46.76087985746562480926513671875" lon="6.8525429628789424896240234375">
        <ele>456</ele>
        <time>2013-09-01T15:00:40.000Z</time>
        <extensions>
          <ns3:TrackPointExtension>
            <ns3:atemp>17.0</ns3:atemp>
          </ns3:TrackPointExtension>
        </extensions>
      </trkpt>
      <trkpt lat="46.76085169427096843719482421875" lon="6.8524997122585773468017578125">
        <ele>456.20001220703125</ele>
        <time>2013-09-01T15:00:41.000Z</time>
        <extensions>
          <ns3:TrackPointExtension>
            <ns3:atemp>17.0</ns3:atemp>
          </ns3:TrackPointExtension>
        </extensions>
      </trkpt>
      <trkpt lat="46.76082587800920009613037109375" lon="6.85245570726692676544189453125">
        <ele>456.600006103515625</ele>
        <time>2013-09-01T15:00:42.000Z</time>
        <extensions>
          <ns3:TrackPointExtension>
            <ns3:atemp>17.0</ns3:atemp>
          </ns3:TrackPointExtension>
        </extensions>
      </trkpt>
      <trkpt lat="46.7608023248612880706787109375" lon="6.85241295956075191497802734375">
        <ele>456.79998779296875</ele>
        <time>2013-09-01T15:00:43.000Z</time>
        <extensions>
          <ns3:TrackPointExtension>
            <ns3:atemp>17.0</ns3:atemp>
          </ns3:TrackPointExtension>
        </extensions>
      </trkpt>
      <trkpt lat="46.76077969372272491455078125" lon="6.85237549245357513427734375">
        <ele>456.79998779296875</ele>
        <time>2013-09-01T15:00:44.000Z</time>
        <extensions>
          <ns3:TrackPointExtension>
            <ns3:atemp>17.0</ns3:atemp>
          </ns3:TrackPointExtension>
        </extensions>
      </trkpt>
      <trkpt lat="46.760761253535747528076171875" lon="6.85233928263187408447265625">
        <ele>456.79998779296875</ele>
        <time>2013-09-01T15:00:45.000Z</time>
        <extensions>
          <ns3:TrackPointExtension>
            <ns3:atemp>17.0</ns3:atemp>
          </ns3:TrackPointExtension>
        </extensions>
      </trkpt>
      <trkpt lat="46.76074457354843616485595703125" lon="6.85229980386793613433837890625">
        <ele>456.79998779296875</ele>
        <time>2013-09-01T15:00:46.000Z</time>
        <extensions>
          <ns3:TrackPointExtension>
            <ns3:atemp>17.0</ns3:atemp>
          </ns3:TrackPointExtension>
        </extensions>
      </trkpt>
      <trkpt lat="46.76072898320853710174560546875" lon="6.8522620014846324920654296875">
        <ele>456.79998779296875</ele>
        <time>2013-09-01T15:00:47.000Z</time>
        <extensions>
          <ns3:TrackPointExtension>
            <ns3:atemp>17.0</ns3:atemp>
          </ns3:TrackPointExtension>
        </extensions>
      </trkpt>
      <trkpt lat="46.76071004010736942291259765625" lon="6.85222260653972625732421875">
        <ele>456.79998779296875</ele>
        <time>2013-09-01T15:00:48.000Z</time>
        <extensions>
          <ns3:TrackPointExtension>
            <ns3:atemp>17.0</ns3:atemp>
          </ns3:TrackPointExtension>
        </extensions>
      </trkpt>
      <trkpt lat="46.760688833892345428466796875" lon="6.8521818704903125762939453125">
        <ele>456.600006103515625</ele>
        <time>2013-09-01T15:00:49.000Z</time>
        <extensions>
          <ns3:TrackPointExtension>
            <ns3:atemp>17.0</ns3:atemp>
          </ns3:TrackPointExtension>
        </extensions>
      </trkpt>
      <trkpt lat="46.760666035115718841552734375" lon="6.8521359376609325408935546875">
        <ele>456.20001220703125</ele>
        <time>2013-09-01T15:00:50.000Z</time>
        <extensions>
          <ns3:TrackPointExtension>
            <ns3:atemp>17.0</ns3:atemp>
          </ns3:TrackPointExtension>
        </extensions>
      </trkpt>
      <trkpt lat="46.7606430687010288238525390625" lon="6.85208455659449100494384765625">
        <ele>455.79998779296875</ele>
        <time>2013-09-01T15:00:51.000Z</time>
        <extensions>
          <ns3:TrackPointExtension>
            <ns3:atemp>17.0</ns3:atemp>
          </ns3:TrackPointExtension>
        </extensions>
      </trkpt>
      <trkpt lat="46.760619767010211944580078125" lon="6.85202973894774913787841796875">
        <ele>455.600006103515625</ele>
        <time>2013-09-01T15:00:52.000Z</time>
        <extensions>
          <ns3:TrackPointExtension>
            <ns3:atemp>17.0</ns3:atemp>
          </ns3:TrackPointExtension>
        </extensions>
      </trkpt>
      <trkpt lat="46.76059638150036334991455078125" lon="6.8519729934632778167724609375">
        <ele>455.399993896484375</ele>
        <time>2013-09-01T15:00:53.000Z</time>
        <extensions>
          <ns3:TrackPointExtension>
            <ns3:atemp>17.0</ns3:atemp>
          </ns3:TrackPointExtension>
        </extensions>
      </trkpt>
      <trkpt lat="46.760570816695690155029296875" lon="6.85191004537045955657958984375">
        <ele>455.399993896484375</ele>
        <time>2013-09-01T15:00:54.000Z</time>
        <extensions>
          <ns3:TrackPointExtension>
            <ns3:atemp>18.0</ns3:atemp>
          </ns3:TrackPointExtension>
        </extensions>
      </trkpt>
      <trkpt lat="46.76054424606263637542724609375" lon="6.85184466652572154998779296875">
        <ele>455.600006103515625</ele>
        <time>2013-09-01T15:00:55.000Z</time>
        <extensions>
          <ns3:TrackPointExtension>
            <ns3:atemp>18.0</ns3:atemp>
          </ns3:TrackPointExtension>
        </extensions>
      </trkpt>
      <trkpt lat="46.76051842980086803436279296875" lon="6.85177627019584178924560546875">
        <ele>455.399993896484375</ele>
        <time>2013-09-01T15:00:56.000Z</time>
        <extensions>
          <ns3:TrackPointExtension>
            <ns3:atemp>18.0</ns3:atemp>
          </ns3:TrackPointExtension>
        </extensions>
      </trkpt>
      <trkpt lat="46.7604925297200679779052734375" lon="6.85170628130435943603515625">
        <ele>455.399993896484375</ele>
        <time>2013-09-01T15:00:57.000Z</time>
        <extensions>
          <ns3:TrackPointExtension>
            <ns3:atemp>18.0</ns3:atemp>
          </ns3:TrackPointExtension>
        </extensions>
      </trkpt>
      <trkpt lat="46.76046746782958507537841796875" lon="6.8516340292990207672119140625">
        <ele>455</ele>
        <time>2013-09-01T15:00:58.000Z</time>
        <extensions>
          <ns3:TrackPointExtension>
            <ns3:atemp>18.0</ns3:atemp>
          </ns3:TrackPointExtension>
        </extensions>
      </trkpt>
      <trkpt lat="46.7604415677487850189208984375" lon="6.8515616096556186676025390625">
        <ele>454.79998779296875</ele>
        <time>2013-09-01T15:00:59.000Z</time>
        <extensions>
          <ns3:TrackPointExtension>
            <ns3:atemp>18.0</ns3:atemp>
          </ns3:TrackPointExtension>
        </extensions>
      </trkpt>
      <trkpt lat="46.76041332073509693145751953125" lon="6.85149497352540493011474609375">
        <ele>455</ele>
        <time>2013-09-01T15:01:00.000Z</time>
        <extensions>
          <ns3:TrackPointExtension>
            <ns3:atemp>18.0</ns3:atemp>
          </ns3:TrackPointExtension>
        </extensions>
      </trkpt>
      <trkpt lat="46.7603842355310916900634765625" lon="6.851434372365474700927734375">
        <ele>455.399993896484375</ele>
        <time>2013-09-01T15:01:01.000Z</time>
        <extensions>
          <ns3:TrackPointExtension>
            <ns3:atemp>18.0</ns3:atemp>
          </ns3:TrackPointExtension>
        </extensions>
      </trkpt>
      <trkpt lat="46.7603567428886890411376953125" lon="6.85137427411973476409912109375">
        <ele>455.600006103515625</ele>
        <time>2013-09-01T15:01:02.000Z</time>
        <extensions>
          <ns3:TrackPointExtension>
            <ns3:atemp>18.0</ns3:atemp>
          </ns3:TrackPointExtension>
        </extensions>
      </trkpt>
      <trkpt lat="46.76033436320722103118896484375" lon="6.851312331855297088623046875">
        <ele>455.399993896484375</ele>
        <time>2013-09-01T15:01:03.000Z</time>
        <extensions>
          <ns3:TrackPointExtension>
            <ns3:atemp>18.0</ns3:atemp>
          </ns3:TrackPointExtension>
        </extensions>
      </trkpt>
      <trkpt lat="46.76030552946031093597412109375" lon="6.85126313008368015289306640625">
        <ele>455.20001220703125</ele>
        <time>2013-09-01T15:01:04.000Z</time>
        <extensions>
          <ns3:TrackPointExtension>
            <ns3:atemp>18.0</ns3:atemp>
          </ns3:TrackPointExtension>
        </extensions>
      </trkpt>
      <trkpt lat="46.76027669571340084075927734375" lon="6.85123530216515064239501953125">
        <ele>454.79998779296875</ele>
        <time>2013-09-01T15:01:05.000Z</time>
        <extensions>
          <ns3:TrackPointExtension>
            <ns3:atemp>18.0</ns3:atemp>
          </ns3:TrackPointExtension>
        </extensions>
      </trkpt>
      <trkpt lat="46.76025590859353542327880859375" lon="6.85122214257717132568359375">
        <ele>454.20001220703125</ele>
        <time>2013-09-01T15:01:06.000Z</time>
        <extensions>
          <ns3:TrackPointExtension>
            <ns3:atemp>18.0</ns3:atemp>
          </ns3:TrackPointExtension>
        </extensions>
      </trkpt>
      <trkpt lat="46.7602393962442874908447265625" lon="6.851225160062313079833984375">
        <ele>454.20001220703125</ele>
        <time>2013-09-01T15:01:07.000Z</time>
        <extensions>
          <ns3:TrackPointExtension>
            <ns3:atemp>18.0</ns3:atemp>
          </ns3:TrackPointExtension>
        </extensions>
      </trkpt>
      <trkpt lat="46.760223805904388427734375" lon="6.85123714618384838104248046875">
        <ele>454</ele>
        <time>2013-09-01T15:01:08.000Z</time>
        <extensions>
          <ns3:TrackPointExtension>
            <ns3:atemp>18.0</ns3:atemp>
          </ns3:TrackPointExtension>
        </extensions>
      </trkpt>
      <trkpt lat="46.760218106210231781005859375" lon="6.85126237571239471435546875">
        <ele>454</ele>
        <time>2013-09-01T15:01:09.000Z</time>
        <extensions>
          <ns3:TrackPointExtension>
            <ns3:atemp>18.0</ns3:atemp>
          </ns3:TrackPointExtension>
        </extensions>
      </trkpt>
      <trkpt lat="46.76022640429437160491943359375" lon="6.85129162855446338653564453125">
        <ele>454.20001220703125</ele>
        <time>2013-09-01T15:01:10.000Z</time>
        <extensions>
          <ns3:TrackPointExtension>
            <ns3:atemp>18.0</ns3:atemp>
          </ns3:TrackPointExtension>
        </extensions>
      </trkpt>
      <trkpt lat="46.76024316810071468353271484375" lon="6.8513088114559650421142578125">
        <ele>454.20001220703125</ele>
        <time>2013-09-01T15:01:11.000Z</time>
        <extensions>
          <ns3:TrackPointExtension>
            <ns3:atemp>18.0</ns3:atemp>
          </ns3:TrackPointExtension>
        </extensions>
      </trkpt>
      <trkpt lat="46.76026546396315097808837890625" lon="6.8513114936649799346923828125">
        <ele>454.600006103515625</ele>
        <time>2013-09-01T15:01:12.000Z</time>
        <extensions>
          <ns3:TrackPointExtension>
            <ns3:atemp>18.0</ns3:atemp>
          </ns3:TrackPointExtension>
        </extensions>
      </trkpt>
      <trkpt lat="46.76029027439653873443603515625" lon="6.85129514895379543304443359375">
        <ele>454.600006103515625</ele>
        <time>2013-09-01T15:01:13.000Z</time>
        <extensions>
          <ns3:TrackPointExtension>
            <ns3:atemp>18.0</ns3:atemp>
          </ns3:TrackPointExtension>
        </extensions>
      </trkpt>
      <trkpt lat="46.7603101395070552825927734375" lon="6.851264052093029022216796875">
        <ele>454.600006103515625</ele>
        <time>2013-09-01T15:01:14.000Z</time>
        <extensions>
          <ns3:TrackPointExtension>
            <ns3:atemp>18.0</ns3:atemp>
          </ns3:TrackPointExtension>
        </extensions>
      </trkpt>
      <trkpt lat="46.76032313145697116851806640625" lon="6.8512256629765033721923828125">
        <ele>454.399993896484375</ele>
        <time>2013-09-01T15:01:15.000Z</time>
        <extensions>
          <ns3:TrackPointExtension>
            <ns3:atemp>18.0</ns3:atemp>
          </ns3:TrackPointExtension>
        </extensions>
      </trkpt>
      <trkpt lat="46.76033486612141132354736328125" lon="6.8511820770800113677978515625">
        <ele>454.20001220703125</ele>
        <time>2013-09-01T15:01:16.000Z</time>
        <extensions>
          <ns3:TrackPointExtension>
            <ns3:atemp>18.0</ns3:atemp>
          </ns3:TrackPointExtension>
        </extensions>
      </trkpt>
      <trkpt lat="46.7603463493287563323974609375" lon="6.85113371349871158599853515625">
        <ele>454</ele>
        <time>2013-09-01T15:01:17.000Z</time>
        <extensions>
          <ns3:TrackPointExtension>
            <ns3:atemp>18.0</ns3:atemp>
          </ns3:TrackPointExtension>
        </extensions>
      </trkpt>
      <trkpt lat="46.76035464741289615631103515625" lon="6.851086355745792388916015625">
        <ele>453.79998779296875</ele>
        <time>2013-09-01T15:01:18.000Z</time>
        <extensions>
          <ns3:TrackPointExtension>
            <ns3:atemp>18.0</ns3:atemp>
          </ns3:TrackPointExtension>
        </extensions>
      </trkpt>
      <trkpt lat="46.760358251631259918212890625" lon="6.85103665105998516082763671875">
        <ele>453.600006103515625</ele>
        <time>2013-09-01T15:01:19.000Z</time>
        <extensions>
          <ns3:TrackPointExtension>
            <ns3:atemp>18.0</ns3:atemp>
          </ns3:TrackPointExtension>
        </extensions>
      </trkpt>
      <trkpt lat="46.7603550665080547332763671875" lon="6.85098267160356044769287109375">
        <ele>453.79998779296875</ele>
        <time>2013-09-01T15:01:20.000Z</time>
        <extensions>
          <ns3:TrackPointExtension>
            <ns3:atemp>18.0</ns3:atemp>
          </ns3:TrackPointExtension>
        </extensions>
      </trkpt>
      <trkpt lat="46.76034919917583465576171875" lon="6.8509369902312755584716796875">
        <ele>454</ele>
        <time>2013-09-01T15:01:21.000Z</time>
        <extensions>
          <ns3:TrackPointExtension>
            <ns3:atemp>18.0</ns3:atemp>
          </ns3:TrackPointExtension>
        </extensions>
      </trkpt>
      <trkpt lat="46.76034525968134403228759765625" lon="6.85089482925832271575927734375">
        <ele>454.20001220703125</ele>
        <time>2013-09-01T15:01:22.000Z</time>
        <extensions>
          <ns3:TrackPointExtension>
            <ns3:atemp>18.0</ns3:atemp>
          </ns3:TrackPointExtension>
        </extensions>
      </trkpt>
      <trkpt lat="46.7603379674255847930908203125" lon="6.8508565239608287811279296875">
        <ele>454.600006103515625</ele>
        <time>2013-09-01T15:01:23.000Z</time>
        <extensions>
          <ns3:TrackPointExtension>
            <ns3:atemp>18.0</ns3:atemp>
          </ns3:TrackPointExtension>
        </extensions>
      </trkpt>
      <trkpt lat="46.76033000461757183074951171875" lon="6.85082056559622287750244140625">
        <ele>454.79998779296875</ele>
        <time>2013-09-01T15:01:24.000Z</time>
        <extensions>
          <ns3:TrackPointExtension>
            <ns3:atemp>18.0</ns3:atemp>
          </ns3:TrackPointExtension>
        </extensions>
      </trkpt>
      <trkpt lat="46.76032531075179576873779296875" lon="6.85078485868871212005615234375">
        <ele>455.20001220703125</ele>
        <time>2013-09-01T15:01:25.000Z</time>
        <extensions>
          <ns3:TrackPointExtension>
            <ns3:atemp>18.0</ns3:atemp>
          </ns3:TrackPointExtension>
        </extensions>
      </trkpt>
      <trkpt lat="46.76031994633376598358154296875" lon="6.85074915178120136260986328125">
        <ele>455.399993896484375</ele>
        <time>2013-09-01T15:01:26.000Z</time>
        <extensions>
          <ns3:TrackPointExtension>
            <ns3:atemp>18.0</ns3:atemp>
          </ns3:TrackPointExtension>
        </extensions>
      </trkpt>
      <trkpt lat="46.76030670292675495147705078125" lon="6.85071344487369060516357421875">
        <ele>455.399993896484375</ele>
        <time>2013-09-01T15:01:27.000Z</time>
        <extensions>
          <ns3:TrackPointExtension>
            <ns3:atemp>18.0</ns3:atemp>
          </ns3:TrackPointExtension>
        </extensions>
      </trkpt>
      <trkpt lat="46.760291196405887603759765625" lon="6.850675977766513824462890625">
        <ele>455.399993896484375</ele>
        <time>2013-09-01T15:01:28.000Z</time>
        <extensions>
          <ns3:TrackPointExtension>
            <ns3:atemp>18.0</ns3:atemp>
          </ns3:TrackPointExtension>
        </extensions>
      </trkpt>
      <trkpt lat="46.7602722533047199249267578125" lon="6.850639097392559051513671875">
        <ele>455.600006103515625</ele>
        <time>2013-09-01T15:01:29.000Z</time>
        <extensions>
          <ns3:TrackPointExtension>
            <ns3:atemp>18.0</ns3:atemp>
          </ns3:TrackPointExtension>
        </extensions>
      </trkpt>
      <trkpt lat="46.76025398075580596923828125" lon="6.85060196556150913238525390625">
        <ele>455.79998779296875</ele>
        <time>2013-09-01T15:01:30.000Z</time>
        <extensions>
          <ns3:TrackPointExtension>
            <ns3:atemp>18.0</ns3:atemp>
          </ns3:TrackPointExtension>
        </extensions>
      </trkpt>
      <trkpt lat="46.760236881673336029052734375" lon="6.85056458227336406707763671875">
        <ele>455.79998779296875</ele>
        <time>2013-09-01T15:01:31.000Z</time>
        <extensions>
          <ns3:TrackPointExtension>
            <ns3:atemp>18.0</ns3:atemp>
          </ns3:TrackPointExtension>
        </extensions>
      </trkpt>
      <trkpt lat="46.76022154279053211212158203125" lon="6.85052636079490184783935546875">
        <ele>455.79998779296875</ele>
        <time>2013-09-01T15:01:32.000Z</time>
        <extensions>
          <ns3:TrackPointExtension>
            <ns3:atemp>18.0</ns3:atemp>
          </ns3:TrackPointExtension>
        </extensions>
      </trkpt>
      <trkpt lat="46.76020746119320392608642578125" lon="6.85048847459256649017333984375">
        <ele>455.79998779296875</ele>
        <time>2013-09-01T15:01:33.000Z</time>
        <extensions>
          <ns3:TrackPointExtension>
            <ns3:atemp>18.0</ns3:atemp>
          </ns3:TrackPointExtension>
        </extensions>
      </trkpt>
      <trkpt lat="46.76019187085330486297607421875" lon="6.850452683866024017333984375">
        <ele>455.600006103515625</ele>
        <time>2013-09-01T15:01:34.000Z</time>
        <extensions>
          <ns3:TrackPointExtension>
            <ns3:atemp>18.0</ns3:atemp>
          </ns3:TrackPointExtension>
        </extensions>
      </trkpt>
      <trkpt lat="46.76017560996115207672119140625" lon="6.85042192228138446807861328125">
        <ele>455.600006103515625</ele>
        <time>2013-09-01T15:01:35.000Z</time>
        <extensions>
          <ns3:TrackPointExtension>
            <ns3:atemp>18.0</ns3:atemp>
          </ns3:TrackPointExtension>
        </extensions>
      </trkpt>
      <trkpt lat="46.76016412675380706787109375" lon="6.8503904901444911956787109375">
        <ele>455.600006103515625</ele>
        <time>2013-09-01T15:01:36.000Z</time>
        <extensions>
          <ns3:TrackPointExtension>
            <ns3:atemp>18.0</ns3:atemp>
          </ns3:TrackPointExtension>
        </extensions>
      </trkpt>
      <trkpt lat="46.76015205681324005126953125" lon="6.850364170968532562255859375">
        <ele>455.600006103515625</ele>
        <time>2013-09-01T15:01:37.000Z</time>
        <extensions>
          <ns3:TrackPointExtension>
            <ns3:atemp>18.0</ns3:atemp>
          </ns3:TrackPointExtension>
        </extensions>
      </trkpt>
      <trkpt lat="46.76014141179621219635009765625" lon="6.85034028254449367523193359375">
        <ele>455.600006103515625</ele>
        <time>2013-09-01T15:01:38.000Z</time>
        <extensions>
          <ns3:TrackPointExtension>
            <ns3:atemp>18.0</ns3:atemp>
          </ns3:TrackPointExtension>
        </extensions>
      </trkpt>
      <trkpt lat="46.7601317726075649261474609375" lon="6.85031823813915252685546875">
        <ele>455.600006103515625</ele>
        <time>2013-09-01T15:01:39.000Z</time>
        <extensions>
          <ns3:TrackPointExtension>
            <ns3:atemp>18.0</ns3:atemp>
          </ns3:TrackPointExtension>
        </extensions>
      </trkpt>
      <trkpt lat="46.7601250670850276947021484375" lon="6.85029686428606510162353515625">
        <ele>455.79998779296875</ele>
        <time>2013-09-01T15:01:40.000Z</time>
        <extensions>
          <ns3:TrackPointExtension>
            <ns3:atemp>18.0</ns3:atemp>
          </ns3:TrackPointExtension>
        </extensions>
      </trkpt>
      <trkpt lat="46.760120205581188201904296875" lon="6.850276328623294830322265625">
        <ele>455.600006103515625</ele>
        <time>2013-09-01T15:01:41.000Z</time>
        <extensions>
          <ns3:TrackPointExtension>
            <ns3:atemp>18.0</ns3:atemp>
          </ns3:TrackPointExtension>
        </extensions>
      </trkpt>
      <trkpt lat="46.76012263633310794830322265625" lon="6.85025529004633426666259765625">
        <ele>455.79998779296875</ele>
        <time>2013-09-01T15:01:42.000Z</time>
        <extensions>
          <ns3:TrackPointExtension>
            <ns3:atemp>18.0</ns3:atemp>
          </ns3:TrackPointExtension>
        </extensions>
      </trkpt>
      <trkpt lat="46.76013370044529438018798828125" lon="6.85023986734449863433837890625">
        <ele>455.79998779296875</ele>
        <time>2013-09-01T15:01:43.000Z</time>
        <extensions>
          <ns3:TrackPointExtension>
            <ns3:atemp>18.0</ns3:atemp>
          </ns3:TrackPointExtension>
        </extensions>
      </trkpt>
      <trkpt lat="46.76015214063227176666259765625" lon="6.8502379395067691802978515625">
        <ele>455.79998779296875</ele>
        <time>2013-09-01T15:01:44.000Z</time>
        <extensions>
          <ns3:TrackPointExtension>
            <ns3:atemp>18.0</ns3:atemp>
          </ns3:TrackPointExtension>
        </extensions>
      </trkpt>
      <trkpt lat="46.76017343066632747650146484375" lon="6.85025545768439769744873046875">
        <ele>455.600006103515625</ele>
        <time>2013-09-01T15:01:45.000Z</time>
        <extensions>
          <ns3:TrackPointExtension>
            <ns3:atemp>18.0</ns3:atemp>
          </ns3:TrackPointExtension>
        </extensions>
      </trkpt>
      <trkpt lat="46.760191954672336578369140625" lon="6.8502858839929103851318359375">
        <ele>455.600006103515625</ele>
        <time>2013-09-01T15:01:46.000Z</time>
        <extensions>
          <ns3:TrackPointExtension>
            <ns3:atemp>18.0</ns3:atemp>
          </ns3:TrackPointExtension>
        </extensions>
      </trkpt>
      <trkpt lat="46.76020544953644275665283203125" lon="6.8503261171281337738037109375">
        <ele>455.600006103515625</ele>
        <time>2013-09-01T15:01:47.000Z</time>
        <extensions>
          <ns3:TrackPointExtension>
            <ns3:atemp>18.0</ns3:atemp>
          </ns3:TrackPointExtension>
        </extensions>
      </trkpt>
      <trkpt lat="46.760215424001216888427734375" lon="6.85036911629140377044677734375">
        <ele>455.79998779296875</ele>
        <time>2013-09-01T15:01:48.000Z</time>
        <extensions>
          <ns3:TrackPointExtension>
            <ns3:atemp>18.0</ns3:atemp>
          </ns3:TrackPointExtension>
        </extensions>
      </trkpt>
      <trkpt lat="46.76022556610405445098876953125" lon="6.85041211545467376708984375">
        <ele>456</ele>
        <time>2013-09-01T15:01:49.000Z</time>
        <extensions>
          <ns3:TrackPointExtension>
            <ns3:atemp>18.0</ns3:atemp>
          </ns3:TrackPointExtension>
        </extensions>
      </trkpt>
      <trkpt lat="46.76023646257817745208740234375" lon="6.850452683866024017333984375">
        <ele>456.20001220703125</ele>
        <time>2013-09-01T15:01:50.000Z</time>
        <extensions>
          <ns3:TrackPointExtension>
            <ns3:atemp>18.0</ns3:atemp>
          </ns3:TrackPointExtension>
        </extensions>
      </trkpt>
      <trkpt lat="46.760248281061649322509765625" lon="6.850493252277374267578125">
        <ele>456.20001220703125</ele>
        <time>2013-09-01T15:01:51.000Z</time>
        <extensions>
          <ns3:TrackPointExtension>
            <ns3:atemp>18.0</ns3:atemp>
          </ns3:TrackPointExtension>
        </extensions>
      </trkpt>
      <trkpt lat="46.76026077009737491607666015625" lon="6.85053348541259765625">
        <ele>456.399993896484375</ele>
        <time>2013-09-01T15:01:52.000Z</time>
        <extensions>
          <ns3:TrackPointExtension>
            <ns3:atemp>18.0</ns3:atemp>
          </ns3:TrackPointExtension>
        </extensions>
      </trkpt>
      <trkpt lat="46.76027451641857624053955078125" lon="6.85057262890040874481201171875">
        <ele>456.399993896484375</ele>
        <time>2013-09-01T15:01:53.000Z</time>
        <extensions>
          <ns3:TrackPointExtension>
            <ns3:atemp>18.0</ns3:atemp>
          </ns3:TrackPointExtension>
        </extensions>
      </trkpt>
      <trkpt lat="46.7602876760065555572509765625" lon="6.85061185620725154876708984375">
        <ele>456.20001220703125</ele>
        <time>2013-09-01T15:01:54.000Z</time>
        <extensions>
          <ns3:TrackPointExtension>
            <ns3:atemp>18.0</ns3:atemp>
          </ns3:TrackPointExtension>
        </extensions>
      </trkpt>
      <trkpt lat="46.76030100323259830474853515625" lon="6.8506902270019054412841796875">
        <ele>456.20001220703125</ele>
        <time>2013-09-01T15:01:56.000Z</time>
        <extensions>
          <ns3:TrackPointExtension>
            <ns3:atemp>18.0</ns3:atemp>
          </ns3:TrackPointExtension>
        </extensions>
      </trkpt>
      <trkpt lat="46.76030804403126239776611328125" lon="6.8507193960249423980712890625">
        <ele>456.20001220703125</ele>
        <time>2013-09-01T15:01:57.000Z</time>
        <extensions>
          <ns3:TrackPointExtension>
            <ns3:atemp>18.0</ns3:atemp>
          </ns3:TrackPointExtension>
        </extensions>
      </trkpt>
      <trkpt lat="46.76031039096415042877197265625" lon="6.850734986364841461181640625">
        <ele>456</ele>
        <time>2013-09-01T15:01:58.000Z</time>
        <extensions>
          <ns3:TrackPointExtension>
            <ns3:atemp>18.0</ns3:atemp>
          </ns3:TrackPointExtension>
        </extensions>
      </trkpt>
      <trkpt lat="46.760314665734767913818359375" lon="6.8507495708763599395751953125">
        <ele>455.79998779296875</ele>
        <time>2013-09-01T15:01:59.000Z</time>
        <extensions>
          <ns3:TrackPointExtension>
            <ns3:atemp>18.0</ns3:atemp>
          </ns3:TrackPointExtension>
        </extensions>
      </trkpt>
      <trkpt lat="46.76031609065830707550048828125" lon="6.85076222755014896392822265625">
        <ele>455.79998779296875</ele>
        <time>2013-09-01T15:02:00.000Z</time>
        <extensions>
          <ns3:TrackPointExtension>
            <ns3:atemp>18.0</ns3:atemp>
          </ns3:TrackPointExtension>
        </extensions>
      </trkpt>
      <trkpt lat="46.7603195272386074066162109375" lon="6.8507797457277774810791015625">
        <ele>455.79998779296875</ele>
        <time>2013-09-01T15:02:01.000Z</time>
        <extensions>
          <ns3:TrackPointExtension>
            <ns3:atemp>18.0</ns3:atemp>
          </ns3:TrackPointExtension>
        </extensions>
      </trkpt>
      <trkpt lat="46.76032564602792263031005859375" lon="6.8508022092282772064208984375">
        <ele>455.79998779296875</ele>
        <time>2013-09-01T15:02:02.000Z</time>
        <extensions>
          <ns3:TrackPointExtension>
            <ns3:atemp>18.0</ns3:atemp>
          </ns3:TrackPointExtension>
        </extensions>
      </trkpt>
      <trkpt lat="46.7603339441120624542236328125" lon="6.85082911513745784759521484375">
        <ele>455.79998779296875</ele>
        <time>2013-09-01T15:02:03.000Z</time>
        <extensions>
          <ns3:TrackPointExtension>
            <ns3:atemp>18.0</ns3:atemp>
          </ns3:TrackPointExtension>
        </extensions>
      </trkpt>
      <trkpt lat="46.760344840586185455322265625" lon="6.8508675880730152130126953125">
        <ele>455.79998779296875</ele>
        <time>2013-09-01T15:02:04.000Z</time>
        <extensions>
          <ns3:TrackPointExtension>
            <ns3:atemp>18.0</ns3:atemp>
          </ns3:TrackPointExtension>
        </extensions>
      </trkpt>
      <trkpt lat="46.76035464741289615631103515625" lon="6.85091259889304637908935546875">
        <ele>455.79998779296875</ele>
        <time>2013-09-01T15:02:05.000Z</time>
        <extensions>
          <ns3:TrackPointExtension>
            <ns3:atemp>18.0</ns3:atemp>
          </ns3:TrackPointExtension>
        </extensions>
      </trkpt>
      <trkpt lat="46.7603607662022113800048828125" lon="6.8509644828736782073974609375">
        <ele>455.600006103515625</ele>
        <time>2013-09-01T15:02:06.000Z</time>
        <extensions>
          <ns3:TrackPointExtension>
            <ns3:atemp>18.0</ns3:atemp>
          </ns3:TrackPointExtension>
        </extensions>
      </trkpt>
      <trkpt lat="46.76036353223025798797607421875" lon="6.85102902352809906005859375">
        <ele>455.600006103515625</ele>
        <time>2013-09-01T15:02:07.000Z</time>
        <extensions>
          <ns3:TrackPointExtension>
            <ns3:atemp>18.0</ns3:atemp>
          </ns3:TrackPointExtension>
        </extensions>
      </trkpt>
      <trkpt lat="46.76036269403994083404541015625" lon="6.85109415091574192047119140625">
        <ele>455.79998779296875</ele>
        <time>2013-09-01T15:02:08.000Z</time>
        <extensions>
          <ns3:TrackPointExtension>
            <ns3:atemp>18.0</ns3:atemp>
          </ns3:TrackPointExtension>
        </extensions>
      </trkpt>
      <trkpt lat="46.76035590469837188720703125" lon="6.85115500353276729583740234375">
        <ele>455.79998779296875</ele>
        <time>2013-09-01T15:02:09.000Z</time>
        <extensions>
          <ns3:TrackPointExtension>
            <ns3:atemp>18.0</ns3:atemp>
          </ns3:TrackPointExtension>
        </extensions>
      </trkpt>
      <trkpt lat="46.76034542731940746307373046875" lon="6.8512149341404438018798828125">
        <ele>455.79998779296875</ele>
        <time>2013-09-01T15:02:10.000Z</time>
        <extensions>
          <ns3:TrackPointExtension>
            <ns3:atemp>18.0</ns3:atemp>
          </ns3:TrackPointExtension>
        </extensions>
      </trkpt>
      <trkpt lat="46.76033168099820613861083984375" lon="6.85127469711005687713623046875">
        <ele>455.20001220703125</ele>
        <time>2013-09-01T15:02:11.000Z</time>
        <extensions>
          <ns3:TrackPointExtension>
            <ns3:atemp>18.0</ns3:atemp>
          </ns3:TrackPointExtension>
        </extensions>
      </trkpt>
      <trkpt lat="46.76032799296081066131591796875" lon="6.85133747756481170654296875">
        <ele>454.79998779296875</ele>
        <time>2013-09-01T15:02:12.000Z</time>
        <extensions>
          <ns3:TrackPointExtension>
            <ns3:atemp>18.0</ns3:atemp>
          </ns3:TrackPointExtension>
        </extensions>
      </trkpt>
      <trkpt lat="46.76033704541623592376708984375" lon="6.85140185058116912841796875">
        <ele>455</ele>
        <time>2013-09-01T15:02:13.000Z</time>
        <extensions>
          <ns3:TrackPointExtension>
            <ns3:atemp>18.0</ns3:atemp>
          </ns3:TrackPointExtension>
        </extensions>
      </trkpt>
      <trkpt lat="46.76035850308835506439208984375" lon="6.8514596857130527496337890625">
        <ele>455.20001220703125</ele>
        <time>2013-09-01T15:02:14.000Z</time>
        <extensions>
          <ns3:TrackPointExtension>
            <ns3:atemp>18.0</ns3:atemp>
          </ns3:TrackPointExtension>
        </extensions>
      </trkpt>
      <trkpt lat="46.76038750447332859039306640625" lon="6.85151517391204833984375">
        <ele>455.600006103515625</ele>
        <time>2013-09-01T15:02:15.000Z</time>
        <extensions>
          <ns3:TrackPointExtension>
            <ns3:atemp>18.0</ns3:atemp>
          </ns3:TrackPointExtension>
        </extensions>
      </trkpt>
      <trkpt lat="46.76041600294411182403564453125" lon="6.85157627798616886138916015625">
        <ele>455.399993896484375</ele>
        <time>2013-09-01T15:02:16.000Z</time>
        <extensions>
          <ns3:TrackPointExtension>
            <ns3:atemp>18.0</ns3:atemp>
          </ns3:TrackPointExtension>
        </extensions>
      </trkpt>
      <trkpt lat="46.7604419030249118804931640625" lon="6.8516398966312408447265625">
        <ele>455.600006103515625</ele>
        <time>2013-09-01T15:02:17.000Z</time>
        <extensions>
          <ns3:TrackPointExtension>
            <ns3:atemp>18.0</ns3:atemp>
          </ns3:TrackPointExtension>
        </extensions>
      </trkpt>
      <trkpt lat="46.7604640312492847442626953125" lon="6.85170368291437625885009765625">
        <ele>455.399993896484375</ele>
        <time>2013-09-01T15:02:18.000Z</time>
        <extensions>
          <ns3:TrackPointExtension>
            <ns3:atemp>18.0</ns3:atemp>
          </ns3:TrackPointExtension>
        </extensions>
      </trkpt>
      <trkpt lat="46.76048741675913333892822265625" lon="6.8517661280930042266845703125">
        <ele>455.20001220703125</ele>
        <time>2013-09-01T15:02:19.000Z</time>
        <extensions>
          <ns3:TrackPointExtension>
            <ns3:atemp>18.0</ns3:atemp>
          </ns3:TrackPointExtension>
        </extensions>
      </trkpt>
      <trkpt lat="46.760513149201869964599609375" lon="6.85182404704391956329345703125">
        <ele>455.20001220703125</ele>
        <time>2013-09-01T15:02:20.000Z</time>
        <extensions>
          <ns3:TrackPointExtension>
            <ns3:atemp>18.0</ns3:atemp>
          </ns3:TrackPointExtension>
        </extensions>
      </trkpt>
      <trkpt lat="46.7605364508926868438720703125" lon="6.851884983479976654052734375">
        <ele>455.399993896484375</ele>
        <time>2013-09-01T15:02:21.000Z</time>
        <extensions>
          <ns3:TrackPointExtension>
            <ns3:atemp>18.0</ns3:atemp>
          </ns3:TrackPointExtension>
        </extensions>
      </trkpt>
      <trkpt lat="46.76056100986897945404052734375" lon="6.851946003735065460205078125">
        <ele>455.600006103515625</ele>
        <time>2013-09-01T15:02:22.000Z</time>
        <extensions>
          <ns3:TrackPointExtension>
            <ns3:atemp>18.0</ns3:atemp>
          </ns3:TrackPointExtension>
        </extensions>
      </trkpt>
      <trkpt lat="46.7605887539684772491455078125" lon="6.85200375504791736602783203125">
        <ele>456</ele>
        <time>2013-09-01T15:02:23.000Z</time>
        <extensions>
          <ns3:TrackPointExtension>
            <ns3:atemp>18.0</ns3:atemp>
          </ns3:TrackPointExtension>
        </extensions>
      </trkpt>
      <trkpt lat="46.7606169171631336212158203125" lon="6.852057985961437225341796875">
        <ele>455.79998779296875</ele>
        <time>2013-09-01T15:02:24.000Z</time>
        <extensions>
          <ns3:TrackPointExtension>
            <ns3:atemp>18.0</ns3:atemp>
          </ns3:TrackPointExtension>
        </extensions>
      </trkpt>
      <trkpt lat="46.7606454156339168548583984375" lon="6.85211137868463993072509765625">
        <ele>456</ele>
        <time>2013-09-01T15:02:25.000Z</time>
        <extensions>
          <ns3:TrackPointExtension>
            <ns3:atemp>18.0</ns3:atemp>
          </ns3:TrackPointExtension>
        </extensions>
      </trkpt>
      <trkpt lat="46.76067114807665348052978515625" lon="6.852163933217525482177734375">
        <ele>456</ele>
        <time>2013-09-01T15:02:26.000Z</time>
        <extensions>
          <ns3:TrackPointExtension>
            <ns3:atemp>18.0</ns3:atemp>
          </ns3:TrackPointExtension>
        </extensions>
      </trkpt>
      <trkpt lat="46.760695874691009521484375" lon="6.85221321880817413330078125">
        <ele>456.20001220703125</ele>
        <time>2013-09-01T15:02:27.000Z</time>
        <extensions>
          <ns3:TrackPointExtension>
            <ns3:atemp>18.0</ns3:atemp>
          </ns3:TrackPointExtension>
        </extensions>
      </trkpt>
      <trkpt lat="46.76072009839117527008056640625" lon="6.852256469428539276123046875">
        <ele>456.20001220703125</ele>
        <time>2013-09-01T15:02:28.000Z</time>
        <extensions>
          <ns3:TrackPointExtension>
            <ns3:atemp>18.0</ns3:atemp>
          </ns3:TrackPointExtension>
        </extensions>
      </trkpt>
      <trkpt lat="46.76074524410068988800048828125" lon="6.8522965349256992340087890625">
        <ele>456.399993896484375</ele>
        <time>2013-09-01T15:02:29.000Z</time>
        <extensions>
          <ns3:TrackPointExtension>
            <ns3:atemp>18.0</ns3:atemp>
          </ns3:TrackPointExtension>
        </extensions>
      </trkpt>
      <trkpt lat="46.760770641267299652099609375" lon="6.85233735479414463043212890625">
        <ele>456.600006103515625</ele>
        <time>2013-09-01T15:02:30.000Z</time>
        <extensions>
          <ns3:TrackPointExtension>
            <ns3:atemp>18.0</ns3:atemp>
          </ns3:TrackPointExtension>
        </extensions>
      </trkpt>
      <trkpt lat="46.76079570315778255462646484375" lon="6.85237959958612918853759765625">
        <ele>457</ele>
        <time>2013-09-01T15:02:31.000Z</time>
        <extensions>
          <ns3:TrackPointExtension>
            <ns3:atemp>18.0</ns3:atemp>
          </ns3:TrackPointExtension>
        </extensions>
      </trkpt>
      <trkpt lat="46.760820932686328887939453125" lon="6.8524225987493991851806640625">
        <ele>457.20001220703125</ele>
        <time>2013-09-01T15:02:32.000Z</time>
        <extensions>
          <ns3:TrackPointExtension>
            <ns3:atemp>18.0</ns3:atemp>
          </ns3:TrackPointExtension>
        </extensions>
      </trkpt>
      <trkpt lat="46.7608542926609516143798828125" lon="6.8524544499814510345458984375">
        <ele>457.399993896484375</ele>
        <time>2013-09-01T15:02:33.000Z</time>
        <extensions>
          <ns3:TrackPointExtension>
            <ns3:atemp>18.0</ns3:atemp>
          </ns3:TrackPointExtension>
        </extensions>
      </trkpt>
      <trkpt lat="46.76089100539684295654296875" lon="6.85245864093303680419921875">
        <ele>457.399993896484375</ele>
        <time>2013-09-01T15:02:34.000Z</time>
        <extensions>
          <ns3:TrackPointExtension>
            <ns3:atemp>18.0</ns3:atemp>
          </ns3:TrackPointExtension>
        </extensions>
      </trkpt>
      <trkpt lat="46.76092721521854400634765625" lon="6.85244497843086719512939453125">
        <ele>457.20001220703125</ele>
        <time>2013-09-01T15:02:35.000Z</time>
        <extensions>
          <ns3:TrackPointExtension>
            <ns3:atemp>18.0</ns3:atemp>
          </ns3:TrackPointExtension>
        </extensions>
      </trkpt>
      <trkpt lat="46.7609562166035175323486328125" lon="6.8524068407714366912841796875">
        <ele>457</ele>
        <time>2013-09-01T15:02:36.000Z</time>
        <extensions>
          <ns3:TrackPointExtension>
            <ns3:atemp>18.0</ns3:atemp>
          </ns3:TrackPointExtension>
        </extensions>
      </trkpt>
      <trkpt lat="46.76097490824759006500244140625" lon="6.85235663317143917083740234375">
        <ele>456.600006103515625</ele>
        <time>2013-09-01T15:02:37.000Z</time>
        <extensions>
          <ns3:TrackPointExtension>
            <ns3:atemp>18.0</ns3:atemp>
          </ns3:TrackPointExtension>
        </extensions>
      </trkpt>
      <trkpt lat="46.76099485717713832855224609375" lon="6.85229904949665069580078125">
        <ele>456.399993896484375</ele>
        <time>2013-09-01T15:02:38.000Z</time>
        <extensions>
          <ns3:TrackPointExtension>
            <ns3:atemp>18.0</ns3:atemp>
          </ns3:TrackPointExtension>
        </extensions>
      </trkpt>
      <trkpt lat="46.76102377474308013916015625" lon="6.8522264622151851654052734375">
        <ele>456.20001220703125</ele>
        <time>2013-09-01T15:02:39.000Z</time>
        <extensions>
          <ns3:TrackPointExtension>
            <ns3:atemp>18.0</ns3:atemp>
          </ns3:TrackPointExtension>
        </extensions>
      </trkpt>
      <trkpt lat="46.7610608227550983428955078125" lon="6.85214641503989696502685546875">
        <ele>456</ele>
        <time>2013-09-01T15:02:40.000Z</time>
        <extensions>
          <ns3:TrackPointExtension>
            <ns3:atemp>18.0</ns3:atemp>
          </ns3:TrackPointExtension>
        </extensions>
      </trkpt>
      <trkpt lat="46.76111253909766674041748046875" lon="6.85206913389265537261962890625">
        <ele>455.79998779296875</ele>
        <time>2013-09-01T15:02:41.000Z</time>
        <extensions>
          <ns3:TrackPointExtension>
            <ns3:atemp>18.0</ns3:atemp>
          </ns3:TrackPointExtension>
        </extensions>
      </trkpt>
      <trkpt lat="46.7611734755337238311767578125" lon="6.85199470259249210357666015625">
        <ele>455.399993896484375</ele>
        <time>2013-09-01T15:02:42.000Z</time>
        <extensions>
          <ns3:TrackPointExtension>
            <ns3:atemp>18.0</ns3:atemp>
          </ns3:TrackPointExtension>
        </extensions>
      </trkpt>
      <trkpt lat="46.76124111749231815338134765625" lon="6.85191960074007511138916015625">
        <ele>455</ele>
        <time>2013-09-01T15:02:43.000Z</time>
        <extensions>
          <ns3:TrackPointExtension>
            <ns3:atemp>18.0</ns3:atemp>
          </ns3:TrackPointExtension>
        </extensions>
      </trkpt>
      <trkpt lat="46.7613141238689422607421875" lon="6.85184433124959468841552734375">
        <ele>454.20001220703125</ele>
        <time>2013-09-01T15:02:44.000Z</time>
        <extensions>
          <ns3:TrackPointExtension>
            <ns3:atemp>18.0</ns3:atemp>
          </ns3:TrackPointExtension>
        </extensions>
      </trkpt>
      <trkpt lat="46.761398948729038238525390625" lon="6.85178213752806186676025390625">
        <ele>453.600006103515625</ele>
        <time>2013-09-01T15:02:45.000Z</time>
        <extensions>
          <ns3:TrackPointExtension>
            <ns3:atemp>18.0</ns3:atemp>
          </ns3:TrackPointExtension>
        </extensions>
      </trkpt>
      <trkpt lat="46.76149047911167144775390625" lon="6.85174391604959964752197265625">
        <ele>452.79998779296875</ele>
        <time>2013-09-01T15:02:46.000Z</time>
        <extensions>
          <ns3:TrackPointExtension>
            <ns3:atemp>18.0</ns3:atemp>
          </ns3:TrackPointExtension>
        </extensions>
      </trkpt>
      <trkpt lat="46.7615811713039875030517578125" lon="6.85171793214976787567138671875">
        <ele>452.399993896484375</ele>
        <time>2013-09-01T15:02:47.000Z</time>
        <extensions>
          <ns3:TrackPointExtension>
            <ns3:atemp>18.0</ns3:atemp>
          </ns3:TrackPointExtension>
        </extensions>
      </trkpt>
      <trkpt lat="46.7616676725447177886962890625" lon="6.85169949196279048919677734375">
        <ele>452</ele>
        <time>2013-09-01T15:02:48.000Z</time>
        <extensions>
          <ns3:TrackPointExtension>
            <ns3:atemp>18.0</ns3:atemp>
          </ns3:TrackPointExtension>
        </extensions>
      </trkpt>
      <trkpt lat="46.76174436695873737335205078125" lon="6.8516802974045276641845703125">
        <ele>452</ele>
        <time>2013-09-01T15:02:49.000Z</time>
        <extensions>
          <ns3:TrackPointExtension>
            <ns3:atemp>18.0</ns3:atemp>
          </ns3:TrackPointExtension>
        </extensions>
      </trkpt>
      <trkpt lat="46.76181636750698089599609375" lon="6.85166210867464542388916015625">
        <ele>452</ele>
        <time>2013-09-01T15:02:50.000Z</time>
        <extensions>
          <ns3:TrackPointExtension>
            <ns3:atemp>18.0</ns3:atemp>
          </ns3:TrackPointExtension>
        </extensions>
      </trkpt>
      <trkpt lat="46.76188518293201923370361328125" lon="6.85163654386997222900390625">
        <ele>452</ele>
        <time>2013-09-01T15:02:51.000Z</time>
        <extensions>
          <ns3:TrackPointExtension>
            <ns3:atemp>18.0</ns3:atemp>
          </ns3:TrackPointExtension>
        </extensions>
      </trkpt>
      <trkpt lat="46.76194570027291774749755859375" lon="6.85159387998282909393310546875">
        <ele>451.79998779296875</ele>
        <time>2013-09-01T15:02:52.000Z</time>
        <extensions>
          <ns3:TrackPointExtension>
            <ns3:atemp>18.0</ns3:atemp>
          </ns3:TrackPointExtension>
        </extensions>
      </trkpt>
      <trkpt lat="46.7619989253580570220947265625" lon="6.85154358856379985809326171875">
        <ele>451.79998779296875</ele>
        <time>2013-09-01T15:02:53.000Z</time>
        <extensions>
          <ns3:TrackPointExtension>
            <ns3:atemp>18.0</ns3:atemp>
          </ns3:TrackPointExtension>
        </extensions>
      </trkpt>
      <trkpt lat="46.762039326131343841552734375" lon="6.85148810036480426788330078125">
        <ele>452.20001220703125</ele>
        <time>2013-09-01T15:02:54.000Z</time>
        <extensions>
          <ns3:TrackPointExtension>
            <ns3:atemp>18.0</ns3:atemp>
          </ns3:TrackPointExtension>
        </extensions>
      </trkpt>
      <trkpt lat="46.762076206505298614501953125" lon="6.8514331988990306854248046875">
        <ele>452.399993896484375</ele>
        <time>2013-09-01T15:02:55.000Z</time>
        <extensions>
          <ns3:TrackPointExtension>
            <ns3:atemp>18.0</ns3:atemp>
          </ns3:TrackPointExtension>
        </extensions>
      </trkpt>
      <trkpt lat="46.76209531724452972412109375" lon="6.85137100517749786376953125">
        <ele>452.600006103515625</ele>
        <time>2013-09-01T15:02:56.000Z</time>
        <extensions>
          <ns3:TrackPointExtension>
            <ns3:atemp>18.0</ns3:atemp>
          </ns3:TrackPointExtension>
        </extensions>
      </trkpt>
      <trkpt lat="46.762109734117984771728515625" lon="6.85130788944661617279052734375">
        <ele>453</ele>
        <time>2013-09-01T15:02:57.000Z</time>
        <extensions>
          <ns3:TrackPointExtension>
            <ns3:atemp>18.0</ns3:atemp>
          </ns3:TrackPointExtension>
        </extensions>
      </trkpt>
      <trkpt lat="46.7621145956218242645263671875" lon="6.85123957693576812744140625">
        <ele>453.399993896484375</ele>
        <time>2013-09-01T15:02:58.000Z</time>
        <extensions>
          <ns3:TrackPointExtension>
            <ns3:atemp>18.0</ns3:atemp>
          </ns3:TrackPointExtension>
        </extensions>
      </trkpt>
      <trkpt lat="46.76211534999310970306396484375" lon="6.85117461718618869781494140625">
        <ele>453.600006103515625</ele>
        <time>2013-09-01T15:02:59.000Z</time>
        <extensions>
          <ns3:TrackPointExtension>
            <ns3:atemp>18.0</ns3:atemp>
          </ns3:TrackPointExtension>
        </extensions>
      </trkpt>
      <trkpt lat="46.7621145956218242645263671875" lon="6.8511083163321018218994140625">
        <ele>453.600006103515625</ele>
        <time>2013-09-01T15:03:00.000Z</time>
        <extensions>
          <ns3:TrackPointExtension>
            <ns3:atemp>18.0</ns3:atemp>
          </ns3:TrackPointExtension>
        </extensions>
      </trkpt>
      <trkpt lat="46.7621115781366825103759765625" lon="6.8510362319648265838623046875">
        <ele>453.399993896484375</ele>
        <time>2013-09-01T15:03:01.000Z</time>
        <extensions>
          <ns3:TrackPointExtension>
            <ns3:atemp>18.0</ns3:atemp>
          </ns3:TrackPointExtension>
        </extensions>
      </trkpt>
      <trkpt lat="46.76210378296673297882080078125" lon="6.8509604595601558685302734375">
        <ele>453.20001220703125</ele>
        <time>2013-09-01T15:03:02.000Z</time>
        <extensions>
          <ns3:TrackPointExtension>
            <ns3:atemp>18.0</ns3:atemp>
          </ns3:TrackPointExtension>
        </extensions>
      </trkpt>
      <trkpt lat="46.7620948143303394317626953125" lon="6.850879490375518798828125">
        <ele>453</ele>
        <time>2013-09-01T15:03:03.000Z</time>
        <extensions>
          <ns3:TrackPointExtension>
            <ns3:atemp>18.0</ns3:atemp>
          </ns3:TrackPointExtension>
        </extensions>
      </trkpt>
      <trkpt lat="46.7620867677032947540283203125" lon="6.85079558752477169036865234375">
        <ele>453</ele>
        <time>2013-09-01T15:03:04.000Z</time>
        <extensions>
          <ns3:TrackPointExtension>
            <ns3:atemp>18.0</ns3:atemp>
          </ns3:TrackPointExtension>
        </extensions>
      </trkpt>
      <trkpt lat="46.762081570923328399658203125" lon="6.8507063202559947967529296875">
        <ele>453</ele>
        <time>2013-09-01T15:03:05.000Z</time>
        <extensions>
          <ns3:TrackPointExtension>
            <ns3:atemp>18.0</ns3:atemp>
          </ns3:TrackPointExtension>
        </extensions>
      </trkpt>
      <trkpt lat="46.762077547609806060791015625" lon="6.8506151251494884490966796875">
        <ele>453</ele>
        <time>2013-09-01T15:03:06.000Z</time>
        <extensions>
          <ns3:TrackPointExtension>
            <ns3:atemp>18.0</ns3:atemp>
          </ns3:TrackPointExtension>
        </extensions>
      </trkpt>
      <trkpt lat="46.76207075826823711395263671875" lon="6.850525774061679840087890625">
        <ele>453</ele>
        <time>2013-09-01T15:03:07.000Z</time>
        <extensions>
          <ns3:TrackPointExtension>
            <ns3:atemp>18.0</ns3:atemp>
          </ns3:TrackPointExtension>
        </extensions>
      </trkpt>
      <trkpt lat="46.762061454355716705322265625" lon="6.8504414521157741546630859375">
        <ele>453</ele>
        <time>2013-09-01T15:03:08.000Z</time>
        <extensions>
          <ns3:TrackPointExtension>
            <ns3:atemp>18.0</ns3:atemp>
          </ns3:TrackPointExtension>
        </extensions>
      </trkpt>
      <trkpt lat="46.7620455287396907806396484375" lon="6.8503660149872303009033203125">
        <ele>453</ele>
        <time>2013-09-01T15:03:09.000Z</time>
        <extensions>
          <ns3:TrackPointExtension>
            <ns3:atemp>18.0</ns3:atemp>
          </ns3:TrackPointExtension>
        </extensions>
      </trkpt>
      <trkpt lat="46.7620260827243328094482421875" lon="6.85029351152479648590087890625">
        <ele>453.20001220703125</ele>
        <time>2013-09-01T15:03:10.000Z</time>
        <extensions>
          <ns3:TrackPointExtension>
            <ns3:atemp>18.0</ns3:atemp>
          </ns3:TrackPointExtension>
        </extensions>
      </trkpt>
      <trkpt lat="46.7620073072612285614013671875" lon="6.850221343338489532470703125">
        <ele>453.399993896484375</ele>
        <time>2013-09-01T15:03:11.000Z</time>
        <extensions>
          <ns3:TrackPointExtension>
            <ns3:atemp>18.0</ns3:atemp>
          </ns3:TrackPointExtension>
        </extensions>
      </trkpt>
      <trkpt lat="46.76198878325521945953369140625" lon="6.85015956871211528778076171875">
        <ele>453.600006103515625</ele>
        <time>2013-09-01T15:03:12.000Z</time>
        <extensions>
          <ns3:TrackPointExtension>
            <ns3:atemp>18.0</ns3:atemp>
          </ns3:TrackPointExtension>
        </extensions>
      </trkpt>
      <trkpt lat="46.76196916960179805755615234375" lon="6.85009972192347049713134765625">
        <ele>454</ele>
        <time>2013-09-01T15:03:13.000Z</time>
        <extensions>
          <ns3:TrackPointExtension>
            <ns3:atemp>18.0</ns3:atemp>
          </ns3:TrackPointExtension>
        </extensions>
      </trkpt>
      <trkpt lat="46.76194905303418636322021484375" lon="6.85004238970577716827392578125">
        <ele>454.20001220703125</ele>
        <time>2013-09-01T15:03:14.000Z</time>
        <extensions>
          <ns3:TrackPointExtension>
            <ns3:atemp>18.0</ns3:atemp>
          </ns3:TrackPointExtension>
        </extensions>
      </trkpt>
      <trkpt lat="46.7619291879236698150634765625" lon="6.84998757205903530120849609375">
        <ele>454.399993896484375</ele>
        <time>2013-09-01T15:03:15.000Z</time>
        <extensions>
          <ns3:TrackPointExtension>
            <ns3:atemp>18.0</ns3:atemp>
          </ns3:TrackPointExtension>
        </extensions>
      </trkpt>
      <trkpt lat="46.76191334612667560577392578125" lon="6.84993661008775234222412109375">
        <ele>454.600006103515625</ele>
        <time>2013-09-01T15:03:16.000Z</time>
        <extensions>
          <ns3:TrackPointExtension>
            <ns3:atemp>18.0</ns3:atemp>
          </ns3:TrackPointExtension>
        </extensions>
      </trkpt>
      <trkpt lat="46.761897839605808258056640625" lon="6.84988816268742084503173828125">
        <ele>454.79998779296875</ele>
        <time>2013-09-01T15:03:17.000Z</time>
        <extensions>
          <ns3:TrackPointExtension>
            <ns3:atemp>18.0</ns3:atemp>
          </ns3:TrackPointExtension>
        </extensions>
      </trkpt>
      <trkpt lat="46.761881075799465179443359375" lon="6.8498369492590427398681640625">
        <ele>455.20001220703125</ele>
        <time>2013-09-01T15:03:18.000Z</time>
        <extensions>
          <ns3:TrackPointExtension>
            <ns3:atemp>18.0</ns3:atemp>
          </ns3:TrackPointExtension>
        </extensions>
      </trkpt>
      <trkpt lat="46.76186640746891498565673828125" lon="6.84978271834552288055419921875">
        <ele>455.20001220703125</ele>
        <time>2013-09-01T15:03:19.000Z</time>
        <extensions>
          <ns3:TrackPointExtension>
            <ns3:atemp>18.0</ns3:atemp>
          </ns3:TrackPointExtension>
        </extensions>
      </trkpt>
      <trkpt lat="46.76185651682317256927490234375" lon="6.84972823597490787506103515625">
        <ele>455.20001220703125</ele>
        <time>2013-09-01T15:03:20.000Z</time>
        <extensions>
          <ns3:TrackPointExtension>
            <ns3:atemp>18.0</ns3:atemp>
          </ns3:TrackPointExtension>
        </extensions>
      </trkpt>
      <trkpt lat="46.76184721291065216064453125" lon="6.84967291541397571563720703125">
        <ele>455.399993896484375</ele>
        <time>2013-09-01T15:03:21.000Z</time>
        <extensions>
          <ns3:TrackPointExtension>
            <ns3:atemp>18.0</ns3:atemp>
          </ns3:TrackPointExtension>
        </extensions>
      </trkpt>
      <trkpt lat="46.7618379928171634674072265625" lon="6.8496175110340118408203125">
        <ele>455.79998779296875</ele>
        <time>2013-09-01T15:03:22.000Z</time>
        <extensions>
          <ns3:TrackPointExtension>
            <ns3:atemp>18.0</ns3:atemp>
          </ns3:TrackPointExtension>
        </extensions>
      </trkpt>
      <trkpt lat="46.761828772723674774169921875" lon="6.84956361539661884307861328125">
        <ele>456</ele>
        <time>2013-09-01T15:03:23.000Z</time>
        <extensions>
          <ns3:TrackPointExtension>
            <ns3:atemp>18.0</ns3:atemp>
          </ns3:TrackPointExtension>
        </extensions>
      </trkpt>
      <trkpt lat="46.76182030700147151947021484375" lon="6.84951181523501873016357421875">
        <ele>456.20001220703125</ele>
        <time>2013-09-01T15:03:24.000Z</time>
        <extensions>
          <ns3:TrackPointExtension>
            <ns3:atemp>18.0</ns3:atemp>
          </ns3:TrackPointExtension>
        </extensions>
      </trkpt>
      <trkpt lat="46.761809326708316802978515625" lon="6.8494594283401966094970703125">
        <ele>456.20001220703125</ele>
        <time>2013-09-01T15:03:25.000Z</time>
        <extensions>
          <ns3:TrackPointExtension>
            <ns3:atemp>18.0</ns3:atemp>
          </ns3:TrackPointExtension>
        </extensions>
      </trkpt>
      <trkpt lat="46.76179599948227405548095703125" lon="6.84940762817859649658203125">
        <ele>456.399993896484375</ele>
        <time>2013-09-01T15:03:26.000Z</time>
        <extensions>
          <ns3:TrackPointExtension>
            <ns3:atemp>18.0</ns3:atemp>
          </ns3:TrackPointExtension>
        </extensions>
      </trkpt>
      <trkpt lat="46.761784851551055908203125" lon="6.84935641475021839141845703125">
        <ele>456.600006103515625</ele>
        <time>2013-09-01T15:03:27.000Z</time>
        <extensions>
          <ns3:TrackPointExtension>
            <ns3:atemp>18.0</ns3:atemp>
          </ns3:TrackPointExtension>
        </extensions>
      </trkpt>
      <trkpt lat="46.7617736198008060455322265625" lon="6.8493068777024745941162109375">
        <ele>456.79998779296875</ele>
        <time>2013-09-01T15:03:28.000Z</time>
        <extensions>
          <ns3:TrackPointExtension>
            <ns3:atemp>18.0</ns3:atemp>
          </ns3:TrackPointExtension>
        </extensions>
      </trkpt>
      <trkpt lat="46.76176280714571475982666015625" lon="6.84926102869212627410888671875">
        <ele>457</ele>
        <time>2013-09-01T15:03:29.000Z</time>
        <extensions>
          <ns3:TrackPointExtension>
            <ns3:atemp>18.0</ns3:atemp>
          </ns3:TrackPointExtension>
        </extensions>
      </trkpt>
      <trkpt lat="46.76175040192902088165283203125" lon="6.8492153473198413848876953125">
        <ele>457.20001220703125</ele>
        <time>2013-09-01T15:03:30.000Z</time>
        <extensions>
          <ns3:TrackPointExtension>
            <ns3:atemp>18.0</ns3:atemp>
          </ns3:TrackPointExtension>
        </extensions>
      </trkpt>
      <trkpt lat="46.76173632033169269561767578125" lon="6.84916480444371700286865234375">
        <ele>457.20001220703125</ele>
        <time>2013-09-01T15:03:31.000Z</time>
        <extensions>
          <ns3:TrackPointExtension>
            <ns3:atemp>18.0</ns3:atemp>
          </ns3:TrackPointExtension>
        </extensions>
      </trkpt>
      <trkpt lat="46.7617196403443813323974609375" lon="6.8491157703101634979248046875">
        <ele>457.600006103515625</ele>
        <time>2013-09-01T15:03:32.000Z</time>
        <extensions>
          <ns3:TrackPointExtension>
            <ns3:atemp>18.0</ns3:atemp>
          </ns3:TrackPointExtension>
        </extensions>
      </trkpt>
      <trkpt lat="46.7617012001574039459228515625" lon="6.8490678258240222930908203125">
        <ele>457.600006103515625</ele>
        <time>2013-09-01T15:03:33.000Z</time>
        <extensions>
          <ns3:TrackPointExtension>
            <ns3:atemp>18.0</ns3:atemp>
          </ns3:TrackPointExtension>
        </extensions>
      </trkpt>
      <trkpt lat="46.76168116740882396697998046875" lon="6.84901694767177104949951171875">
        <ele>457.79998779296875</ele>
        <time>2013-09-01T15:03:34.000Z</time>
        <extensions>
          <ns3:TrackPointExtension>
            <ns3:atemp>18.0</ns3:atemp>
          </ns3:TrackPointExtension>
        </extensions>
      </trkpt>
      <trkpt lat="46.76166079938411712646484375" lon="6.84897042810916900634765625">
        <ele>458</ele>
        <time>2013-09-01T15:03:35.000Z</time>
        <extensions>
          <ns3:TrackPointExtension>
            <ns3:atemp>18.0</ns3:atemp>
          </ns3:TrackPointExtension>
        </extensions>
      </trkpt>
      <trkpt lat="46.76163942553102970123291015625" lon="6.8489236570894718170166015625">
        <ele>458.20001220703125</ele>
        <time>2013-09-01T15:03:36.000Z</time>
        <extensions>
          <ns3:TrackPointExtension>
            <ns3:atemp>18.0</ns3:atemp>
          </ns3:TrackPointExtension>
        </extensions>
      </trkpt>
      <trkpt lat="46.76162098534405231475830078125" lon="6.84887588024139404296875">
        <ele>458.399993896484375</ele>
        <time>2013-09-01T15:03:37.000Z</time>
        <extensions>
          <ns3:TrackPointExtension>
            <ns3:atemp>18.0</ns3:atemp>
          </ns3:TrackPointExtension>
        </extensions>
      </trkpt>
      <trkpt lat="46.761603467166423797607421875" lon="6.84882667846977710723876953125">
        <ele>458.399993896484375</ele>
        <time>2013-09-01T15:03:38.000Z</time>
        <extensions>
          <ns3:TrackPointExtension>
            <ns3:atemp>18.0</ns3:atemp>
          </ns3:TrackPointExtension>
        </extensions>
      </trkpt>
      <trkpt lat="46.76158259622752666473388671875" lon="6.8487791530787944793701171875">
        <ele>458.600006103515625</ele>
        <time>2013-09-01T15:03:39.000Z</time>
        <extensions>
          <ns3:TrackPointExtension>
            <ns3:atemp>18.0</ns3:atemp>
          </ns3:TrackPointExtension>
        </extensions>
      </trkpt>
      <trkpt lat="46.76156264729797840118408203125" lon="6.84873397462069988250732421875">
        <ele>458.79998779296875</ele>
        <time>2013-09-01T15:03:40.000Z</time>
        <extensions>
          <ns3:TrackPointExtension>
            <ns3:atemp>18.0</ns3:atemp>
          </ns3:TrackPointExtension>
        </extensions>
      </trkpt>
      <trkpt lat="46.76154219545423984527587890625" lon="6.84869290329515933990478515625">
        <ele>459</ele>
        <time>2013-09-01T15:03:41.000Z</time>
        <extensions>
          <ns3:TrackPointExtension>
            <ns3:atemp>18.0</ns3:atemp>
          </ns3:TrackPointExtension>
        </extensions>
      </trkpt>
      <trkpt lat="46.76151730120182037353515625" lon="6.84864990413188934326171875">
        <ele>459.20001220703125</ele>
        <time>2013-09-01T15:03:42.000Z</time>
        <extensions>
          <ns3:TrackPointExtension>
            <ns3:atemp>18.0</ns3:atemp>
          </ns3:TrackPointExtension>
        </extensions>
      </trkpt>
      <trkpt lat="46.76149450242519378662109375" lon="6.84860740788280963897705078125">
        <ele>459.20001220703125</ele>
        <time>2013-09-01T15:03:43.000Z</time>
        <extensions>
          <ns3:TrackPointExtension>
            <ns3:atemp>18.0</ns3:atemp>
          </ns3:TrackPointExtension>
        </extensions>
      </trkpt>
      <trkpt lat="46.761471368372440338134765625" lon="6.84856407344341278076171875">
        <ele>459.20001220703125</ele>
        <time>2013-09-01T15:03:44.000Z</time>
        <extensions>
          <ns3:TrackPointExtension>
            <ns3:atemp>18.0</ns3:atemp>
          </ns3:TrackPointExtension>
        </extensions>
      </trkpt>
      <trkpt lat="46.761446557939052581787109375" lon="6.8485189788043498992919921875">
        <ele>459</ele>
        <time>2013-09-01T15:03:45.000Z</time>
        <extensions>
          <ns3:TrackPointExtension>
            <ns3:atemp>18.0</ns3:atemp>
          </ns3:TrackPointExtension>
        </extensions>
      </trkpt>
      <trkpt lat="46.7614209093153476715087890625" lon="6.84847312979400157928466796875">
        <ele>459.20001220703125</ele>
        <time>2013-09-01T15:03:46.000Z</time>
        <extensions>
          <ns3:TrackPointExtension>
            <ns3:atemp>18.0</ns3:atemp>
          </ns3:TrackPointExtension>
        </extensions>
      </trkpt>
      <trkpt lat="46.7613934166729450225830078125" lon="6.84842526912689208984375">
        <ele>459.399993896484375</ele>
        <time>2013-09-01T15:03:47.000Z</time>
        <extensions>
          <ns3:TrackPointExtension>
            <ns3:atemp>18.0</ns3:atemp>
          </ns3:TrackPointExtension>
        </extensions>
      </trkpt>
      <trkpt lat="46.7613677680492401123046875" lon="6.84837053529918193817138671875">
        <ele>459.600006103515625</ele>
        <time>2013-09-01T15:03:48.000Z</time>
        <extensions>
          <ns3:TrackPointExtension>
            <ns3:atemp>18.0</ns3:atemp>
          </ns3:TrackPointExtension>
        </extensions>
      </trkpt>
      <trkpt lat="46.7613451369106769561767578125" lon="6.8483166396617889404296875">
        <ele>459.79998779296875</ele>
        <time>2013-09-01T15:03:49.000Z</time>
        <extensions>
          <ns3:TrackPointExtension>
            <ns3:atemp>18.0</ns3:atemp>
          </ns3:TrackPointExtension>
        </extensions>
      </trkpt>
      <trkpt lat="46.761325858533382415771484375" lon="6.8482618220150470733642578125">
        <ele>459.79998779296875</ele>
        <time>2013-09-01T15:03:50.000Z</time>
        <extensions>
          <ns3:TrackPointExtension>
            <ns3:atemp>18.0</ns3:atemp>
          </ns3:TrackPointExtension>
        </extensions>
      </trkpt>
      <trkpt lat="46.76130515523254871368408203125" lon="6.84820826165378093719482421875">
        <ele>460</ele>
        <time>2013-09-01T15:03:51.000Z</time>
        <extensions>
          <ns3:TrackPointExtension>
            <ns3:atemp>18.0</ns3:atemp>
          </ns3:TrackPointExtension>
        </extensions>
      </trkpt>
      <trkpt lat="46.76128797233104705810546875" lon="6.8481558747589588165283203125">
        <ele>460.20001220703125</ele>
        <time>2013-09-01T15:03:52.000Z</time>
        <extensions>
          <ns3:TrackPointExtension>
            <ns3:atemp>18.0</ns3:atemp>
          </ns3:TrackPointExtension>
        </extensions>
      </trkpt>
      <trkpt lat="46.7612717114388942718505859375" lon="6.8481032364070415496826171875">
        <ele>460.20001220703125</ele>
        <time>2013-09-01T15:03:53.000Z</time>
        <extensions>
          <ns3:TrackPointExtension>
            <ns3:atemp>18.0</ns3:atemp>
          </ns3:TrackPointExtension>
        </extensions>
      </trkpt>
      <trkpt lat="46.76125251688063144683837890625" lon="6.84805319644510746002197265625">
        <ele>460.600006103515625</ele>
        <time>2013-09-01T15:03:54.000Z</time>
        <extensions>
          <ns3:TrackPointExtension>
            <ns3:atemp>18.0</ns3:atemp>
          </ns3:TrackPointExtension>
        </extensions>
      </trkpt>
      <trkpt lat="46.761233992874622344970703125" lon="6.8480028212070465087890625">
        <ele>460.600006103515625</ele>
        <time>2013-09-01T15:03:55.000Z</time>
        <extensions>
          <ns3:TrackPointExtension>
            <ns3:atemp>18.0</ns3:atemp>
          </ns3:TrackPointExtension>
        </extensions>
      </trkpt>
      <trkpt lat="46.761212535202503204345703125" lon="6.84795395471155643463134765625">
        <ele>460.600006103515625</ele>
        <time>2013-09-01T15:03:56.000Z</time>
        <extensions>
          <ns3:TrackPointExtension>
            <ns3:atemp>18.0</ns3:atemp>
          </ns3:TrackPointExtension>
        </extensions>
      </trkpt>
      <trkpt lat="46.76118898205459117889404296875" lon="6.8479074351489543914794921875">
        <ele>460.600006103515625</ele>
        <time>2013-09-01T15:03:57.000Z</time>
        <extensions>
          <ns3:TrackPointExtension>
            <ns3:atemp>18.0</ns3:atemp>
          </ns3:TrackPointExtension>
        </extensions>
      </trkpt>
      <trkpt lat="46.76116869784891605377197265625" lon="6.84785856865346431732177734375">
        <ele>460.79998779296875</ele>
        <time>2013-09-01T15:03:58.000Z</time>
        <extensions>
          <ns3:TrackPointExtension>
            <ns3:atemp>18.0</ns3:atemp>
          </ns3:TrackPointExtension>
        </extensions>
      </trkpt>
      <trkpt lat="46.761149503290653228759765625" lon="6.84780810959637165069580078125">
        <ele>461</ele>
        <time>2013-09-01T15:03:59.000Z</time>
        <extensions>
          <ns3:TrackPointExtension>
            <ns3:atemp>18.0</ns3:atemp>
          </ns3:TrackPointExtension>
        </extensions>
      </trkpt>
      <trkpt lat="46.76113374531269073486328125" lon="6.8477589078247547149658203125">
        <ele>461</ele>
        <time>2013-09-01T15:04:00.000Z</time>
        <extensions>
          <ns3:TrackPointExtension>
            <ns3:atemp>18.0</ns3:atemp>
          </ns3:TrackPointExtension>
        </extensions>
      </trkpt>
      <trkpt lat="46.76111941225826740264892578125" lon="6.84770953841507434844970703125">
        <ele>461</ele>
        <time>2013-09-01T15:04:01.000Z</time>
        <extensions>
          <ns3:TrackPointExtension>
            <ns3:atemp>18.0</ns3:atemp>
          </ns3:TrackPointExtension>
        </extensions>
      </trkpt>
      <trkpt lat="46.7611010558903217315673828125" lon="6.84766360558569431304931640625">
        <ele>460.79998779296875</ele>
        <time>2013-09-01T15:04:02.000Z</time>
        <extensions>
          <ns3:TrackPointExtension>
            <ns3:atemp>18.0</ns3:atemp>
          </ns3:TrackPointExtension>
        </extensions>
      </trkpt>
      <trkpt lat="46.76108085550367832183837890625" lon="6.847620941698551177978515625">
        <ele>461</ele>
        <time>2013-09-01T15:04:03.000Z</time>
        <extensions>
          <ns3:TrackPointExtension>
            <ns3:atemp>18.0</ns3:atemp>
          </ns3:TrackPointExtension>
        </extensions>
      </trkpt>
      <trkpt lat="46.76106325350701808929443359375" lon="6.84757391922175884246826171875">
        <ele>461.20001220703125</ele>
        <time>2013-09-01T15:04:04.000Z</time>
        <extensions>
          <ns3:TrackPointExtension>
            <ns3:atemp>18.0</ns3:atemp>
          </ns3:TrackPointExtension>
        </extensions>
      </trkpt>
      <trkpt lat="46.76104724407196044921875" lon="6.84752547182142734527587890625">
        <ele>461.600006103515625</ele>
        <time>2013-09-01T15:04:05.000Z</time>
        <extensions>
          <ns3:TrackPointExtension>
            <ns3:atemp>18.0</ns3:atemp>
          </ns3:TrackPointExtension>
        </extensions>
      </trkpt>
      <trkpt lat="46.76103073172271251678466796875" lon="6.84747903607785701751708984375">
        <ele>462</ele>
        <time>2013-09-01T15:04:06.000Z</time>
        <extensions>
          <ns3:TrackPointExtension>
            <ns3:atemp>18.0</ns3:atemp>
          </ns3:TrackPointExtension>
        </extensions>
      </trkpt>
      <trkpt lat="46.76101799122989177703857421875" lon="6.84742958284914493560791015625">
        <ele>462.20001220703125</ele>
        <time>2013-09-01T15:04:07.000Z</time>
        <extensions>
          <ns3:TrackPointExtension>
            <ns3:atemp>18.0</ns3:atemp>
          </ns3:TrackPointExtension>
        </extensions>
      </trkpt>
      <trkpt lat="46.7610078491270542144775390625" lon="6.84737945906817913055419921875">
        <ele>462.399993896484375</ele>
        <time>2013-09-01T15:04:08.000Z</time>
        <extensions>
          <ns3:TrackPointExtension>
            <ns3:atemp>18.0</ns3:atemp>
          </ns3:TrackPointExtension>
        </extensions>
      </trkpt>
      <trkpt lat="46.7609922587871551513671875" lon="6.84733034111559391021728515625">
        <ele>462.600006103515625</ele>
        <time>2013-09-01T15:04:09.000Z</time>
        <extensions>
          <ns3:TrackPointExtension>
            <ns3:atemp>18.0</ns3:atemp>
          </ns3:TrackPointExtension>
        </extensions>
      </trkpt>
      <trkpt lat="46.7609746567904949188232421875" lon="6.84728306718170642852783203125">
        <ele>462.79998779296875</ele>
        <time>2013-09-01T15:04:10.000Z</time>
        <extensions>
          <ns3:TrackPointExtension>
            <ns3:atemp>18.0</ns3:atemp>
          </ns3:TrackPointExtension>
        </extensions>
      </trkpt>
      <trkpt lat="46.76095512695610523223876953125" lon="6.84723763726651668548583984375">
        <ele>463</ele>
        <time>2013-09-01T15:04:11.000Z</time>
        <extensions>
          <ns3:TrackPointExtension>
            <ns3:atemp>18.0</ns3:atemp>
          </ns3:TrackPointExtension>
        </extensions>
      </trkpt>
      <trkpt lat="46.760937608778476715087890625" lon="6.8471959792077541351318359375">
        <ele>463.20001220703125</ele>
        <time>2013-09-01T15:04:12.000Z</time>
        <extensions>
          <ns3:TrackPointExtension>
            <ns3:atemp>18.0</ns3:atemp>
          </ns3:TrackPointExtension>
        </extensions>
      </trkpt>
      <trkpt lat="46.760921515524387359619140625" lon="6.8471500463783740997314453125">
        <ele>463.399993896484375</ele>
        <time>2013-09-01T15:04:13.000Z</time>
        <extensions>
          <ns3:TrackPointExtension>
            <ns3:atemp>18.0</ns3:atemp>
          </ns3:TrackPointExtension>
        </extensions>
      </trkpt>
      <trkpt lat="46.76090332679450511932373046875" lon="6.8471015989780426025390625">
        <ele>463.600006103515625</ele>
        <time>2013-09-01T15:04:14.000Z</time>
        <extensions>
          <ns3:TrackPointExtension>
            <ns3:atemp>19.0</ns3:atemp>
          </ns3:TrackPointExtension>
        </extensions>
      </trkpt>
      <trkpt lat="46.7608841322362422943115234375" lon="6.84705130755901336669921875">
        <ele>463.79998779296875</ele>
        <time>2013-09-01T15:04:15.000Z</time>
        <extensions>
          <ns3:TrackPointExtension>
            <ns3:atemp>19.0</ns3:atemp>
          </ns3:TrackPointExtension>
        </extensions>
      </trkpt>
      <trkpt lat="46.760864518582820892333984375" lon="6.84700042940676212310791015625">
        <ele>463.79998779296875</ele>
        <time>2013-09-01T15:04:16.000Z</time>
        <extensions>
          <ns3:TrackPointExtension>
            <ns3:atemp>19.0</ns3:atemp>
          </ns3:TrackPointExtension>
        </extensions>
      </trkpt>
      <trkpt lat="46.76084406673908233642578125" lon="6.8469518981873989105224609375">
        <ele>464</ele>
        <time>2013-09-01T15:04:17.000Z</time>
        <extensions>
          <ns3:TrackPointExtension>
            <ns3:atemp>19.0</ns3:atemp>
          </ns3:TrackPointExtension>
        </extensions>
      </trkpt>
      <trkpt lat="46.7608234472572803497314453125" lon="6.8469022773206233978271484375">
        <ele>464.20001220703125</ele>
        <time>2013-09-01T15:04:18.000Z</time>
        <extensions>
          <ns3:TrackPointExtension>
            <ns3:atemp>19.0</ns3:atemp>
          </ns3:TrackPointExtension>
        </extensions>
      </trkpt>
      <trkpt lat="46.7608036659657955169677734375" lon="6.8468516506254673004150390625">
        <ele>464.20001220703125</ele>
        <time>2013-09-01T15:04:19.000Z</time>
        <extensions>
          <ns3:TrackPointExtension>
            <ns3:atemp>19.0</ns3:atemp>
          </ns3:TrackPointExtension>
        </extensions>
      </trkpt>
      <trkpt lat="46.760782711207866668701171875" lon="6.846797503530979156494140625">
        <ele>464.399993896484375</ele>
        <time>2013-09-01T15:04:20.000Z</time>
        <extensions>
          <ns3:TrackPointExtension>
            <ns3:atemp>19.0</ns3:atemp>
          </ns3:TrackPointExtension>
        </extensions>
      </trkpt>
      <trkpt lat="46.7607610858976840972900390625" lon="6.84674193151295185089111328125">
        <ele>464.399993896484375</ele>
        <time>2013-09-01T15:04:21.000Z</time>
        <extensions>
          <ns3:TrackPointExtension>
            <ns3:atemp>19.0</ns3:atemp>
          </ns3:TrackPointExtension>
        </extensions>
      </trkpt>
      <trkpt lat="46.760740466415882110595703125" lon="6.84668744914233684539794921875">
        <ele>464.399993896484375</ele>
        <time>2013-09-01T15:04:22.000Z</time>
        <extensions>
          <ns3:TrackPointExtension>
            <ns3:atemp>19.0</ns3:atemp>
          </ns3:TrackPointExtension>
        </extensions>
      </trkpt>
      <trkpt lat="46.76071976311504840850830078125" lon="6.84663095511496067047119140625">
        <ele>464.600006103515625</ele>
        <time>2013-09-01T15:04:23.000Z</time>
        <extensions>
          <ns3:TrackPointExtension>
            <ns3:atemp>19.0</ns3:atemp>
          </ns3:TrackPointExtension>
        </extensions>
      </trkpt>
      <trkpt lat="46.76069797016680240631103515625" lon="6.84657521545886993408203125">
        <ele>464.79998779296875</ele>
        <time>2013-09-01T15:04:24.000Z</time>
        <extensions>
          <ns3:TrackPointExtension>
            <ns3:atemp>19.0</ns3:atemp>
          </ns3:TrackPointExtension>
        </extensions>
      </trkpt>
      <trkpt lat="46.7606762610375881195068359375" lon="6.8465187214314937591552734375">
        <ele>465</ele>
        <time>2013-09-01T15:04:25.000Z</time>
        <extensions>
          <ns3:TrackPointExtension>
            <ns3:atemp>19.0</ns3:atemp>
          </ns3:TrackPointExtension>
        </extensions>
      </trkpt>
      <trkpt lat="46.7606527917087078094482421875" lon="6.84646247886121273040771484375">
        <ele>465</ele>
        <time>2013-09-01T15:04:26.000Z</time>
        <extensions>
          <ns3:TrackPointExtension>
            <ns3:atemp>19.0</ns3:atemp>
          </ns3:TrackPointExtension>
        </extensions>
      </trkpt>
      <trkpt lat="46.76063041202723979949951171875" lon="6.84640615247189998626708984375">
        <ele>464.79998779296875</ele>
        <time>2013-09-01T15:04:27.000Z</time>
        <extensions>
          <ns3:TrackPointExtension>
            <ns3:atemp>19.0</ns3:atemp>
          </ns3:TrackPointExtension>
        </extensions>
      </trkpt>
      <trkpt lat="46.76061046309769153594970703125" lon="6.84634865261614322662353515625">
        <ele>464.79998779296875</ele>
        <time>2013-09-01T15:04:28.000Z</time>
        <extensions>
          <ns3:TrackPointExtension>
            <ns3:atemp>19.0</ns3:atemp>
          </ns3:TrackPointExtension>
        </extensions>
      </trkpt>
      <trkpt lat="46.76058766432106494903564453125" lon="6.84629132039844989776611328125">
        <ele>464.79998779296875</ele>
        <time>2013-09-01T15:04:29.000Z</time>
        <extensions>
          <ns3:TrackPointExtension>
            <ns3:atemp>19.0</ns3:atemp>
          </ns3:TrackPointExtension>
        </extensions>
      </trkpt>
      <trkpt lat="46.76056587137281894683837890625" lon="6.84623113833367824554443359375">
        <ele>465</ele>
        <time>2013-09-01T15:04:30.000Z</time>
        <extensions>
          <ns3:TrackPointExtension>
            <ns3:atemp>19.0</ns3:atemp>
          </ns3:TrackPointExtension>
        </extensions>
      </trkpt>
      <trkpt lat="46.76054474897682666778564453125" lon="6.84617162682116031646728515625">
        <ele>465</ele>
        <time>2013-09-01T15:04:31.000Z</time>
        <extensions>
          <ns3:TrackPointExtension>
            <ns3:atemp>19.0</ns3:atemp>
          </ns3:TrackPointExtension>
        </extensions>
      </trkpt>
      <trkpt lat="46.760522536933422088623046875" lon="6.84611387550830841064453125">
        <ele>465.399993896484375</ele>
        <time>2013-09-01T15:04:32.000Z</time>
        <extensions>
          <ns3:TrackPointExtension>
            <ns3:atemp>19.0</ns3:atemp>
          </ns3:TrackPointExtension>
        </extensions>
      </trkpt>
      <trkpt lat="46.76049881614744663238525390625" lon="6.84605226851999759674072265625">
        <ele>465.600006103515625</ele>
        <time>2013-09-01T15:04:33.000Z</time>
        <extensions>
          <ns3:TrackPointExtension>
            <ns3:atemp>19.0</ns3:atemp>
          </ns3:TrackPointExtension>
        </extensions>
      </trkpt>
      <trkpt lat="46.76047392189502716064453125" lon="6.8459906615316867828369140625">
        <ele>465.600006103515625</ele>
        <time>2013-09-01T15:04:34.000Z</time>
        <extensions>
          <ns3:TrackPointExtension>
            <ns3:atemp>19.0</ns3:atemp>
          </ns3:TrackPointExtension>
        </extensions>
      </trkpt>
      <trkpt lat="46.7604519613087177276611328125" lon="6.8459272943437099456787109375">
        <ele>465.600006103515625</ele>
        <time>2013-09-01T15:04:35.000Z</time>
        <extensions>
          <ns3:TrackPointExtension>
            <ns3:atemp>19.0</ns3:atemp>
          </ns3:TrackPointExtension>
        </extensions>
      </trkpt>
      <trkpt lat="46.76042740233242511749267578125" lon="6.845868788659572601318359375">
        <ele>465.399993896484375</ele>
        <time>2013-09-01T15:04:36.000Z</time>
        <extensions>
          <ns3:TrackPointExtension>
            <ns3:atemp>19.0</ns3:atemp>
          </ns3:TrackPointExtension>
        </extensions>
      </trkpt>
      <trkpt lat="46.76040359772741794586181640625" lon="6.84581154026091098785400390625">
        <ele>465.399993896484375</ele>
        <time>2013-09-01T15:04:37.000Z</time>
        <extensions>
          <ns3:TrackPointExtension>
            <ns3:atemp>19.0</ns3:atemp>
          </ns3:TrackPointExtension>
        </extensions>
      </trkpt>
      <trkpt lat="46.76037996076047420501708984375" lon="6.84575085528194904327392578125">
        <ele>465.399993896484375</ele>
        <time>2013-09-01T15:04:38.000Z</time>
        <extensions>
          <ns3:TrackPointExtension>
            <ns3:atemp>19.0</ns3:atemp>
          </ns3:TrackPointExtension>
        </extensions>
      </trkpt>
      <trkpt lat="46.76035565324127674102783203125" lon="6.84568874537944793701171875">
        <ele>465.399993896484375</ele>
        <time>2013-09-01T15:04:39.000Z</time>
        <extensions>
          <ns3:TrackPointExtension>
            <ns3:atemp>19.0</ns3:atemp>
          </ns3:TrackPointExtension>
        </extensions>
      </trkpt>
      <trkpt lat="46.76032983697950839996337890625" lon="6.84562646783888339996337890625">
        <ele>465.600006103515625</ele>
        <time>2013-09-01T15:04:40.000Z</time>
        <extensions>
          <ns3:TrackPointExtension>
            <ns3:atemp>19.0</ns3:atemp>
          </ns3:TrackPointExtension>
        </extensions>
      </trkpt>
      <trkpt lat="46.76030133850872516632080078125" lon="6.84555773623287677764892578125">
        <ele>465.600006103515625</ele>
        <time>2013-09-01T15:04:41.000Z</time>
        <extensions>
          <ns3:TrackPointExtension>
            <ns3:atemp>19.0</ns3:atemp>
          </ns3:TrackPointExtension>
        </extensions>
      </trkpt>
      <trkpt lat="46.760272420942783355712890625" lon="6.84548757970333099365234375">
        <ele>465.20001220703125</ele>
        <time>2013-09-01T15:04:42.000Z</time>
        <extensions>
          <ns3:TrackPointExtension>
            <ns3:atemp>19.0</ns3:atemp>
          </ns3:TrackPointExtension>
        </extensions>
      </trkpt>
      <trkpt lat="46.7602420784533023834228515625" lon="6.84541105292737483978271484375">
        <ele>465</ele>
        <time>2013-09-01T15:04:43.000Z</time>
        <extensions>
          <ns3:TrackPointExtension>
            <ns3:atemp>19.0</ns3:atemp>
          </ns3:TrackPointExtension>
        </extensions>
      </trkpt>
      <trkpt lat="46.76020704209804534912109375" lon="6.8453214503824710845947265625">
        <ele>464.399993896484375</ele>
        <time>2013-09-01T15:04:44.000Z</time>
        <extensions>
          <ns3:TrackPointExtension>
            <ns3:atemp>19.0</ns3:atemp>
          </ns3:TrackPointExtension>
        </extensions>
      </trkpt>
      <trkpt lat="46.76016605459153652191162109375" lon="6.84521826915442943572998046875">
        <ele>464.20001220703125</ele>
        <time>2013-09-01T15:04:45.000Z</time>
        <extensions>
          <ns3:TrackPointExtension>
            <ns3:atemp>19.0</ns3:atemp>
          </ns3:TrackPointExtension>
        </extensions>
      </trkpt>
      <trkpt lat="46.7601200379431247711181640625" lon="6.84510159306228160858154296875">
        <ele>463.79998779296875</ele>
        <time>2013-09-01T15:04:46.000Z</time>
        <extensions>
          <ns3:TrackPointExtension>
            <ns3:atemp>19.0</ns3:atemp>
          </ns3:TrackPointExtension>
        </extensions>
      </trkpt>
      <trkpt lat="46.76007133908569812774658203125" lon="6.84497661888599395751953125">
        <ele>463.399993896484375</ele>
        <time>2013-09-01T15:04:47.000Z</time>
        <extensions>
          <ns3:TrackPointExtension>
            <ns3:atemp>19.0</ns3:atemp>
          </ns3:TrackPointExtension>
        </extensions>
      </trkpt>
      <trkpt lat="46.76001920364797115325927734375" lon="6.8448458611965179443359375">
        <ele>462.79998779296875</ele>
        <time>2013-09-01T15:04:48.000Z</time>
        <extensions>
          <ns3:TrackPointExtension>
            <ns3:atemp>19.0</ns3:atemp>
          </ns3:TrackPointExtension>
        </extensions>
      </trkpt>
      <trkpt lat="46.7599654756486415863037109375" lon="6.8447109125554561614990234375">
        <ele>462.20001220703125</ele>
        <time>2013-09-01T15:04:49.000Z</time>
        <extensions>
          <ns3:TrackPointExtension>
            <ns3:atemp>19.0</ns3:atemp>
          </ns3:TrackPointExtension>
        </extensions>
      </trkpt>
      <trkpt lat="46.75991090945899486541748046875" lon="6.8445761315524578094482421875">
        <ele>461.399993896484375</ele>
        <time>2013-09-01T15:04:50.000Z</time>
        <extensions>
          <ns3:TrackPointExtension>
            <ns3:atemp>19.0</ns3:atemp>
          </ns3:TrackPointExtension>
        </extensions>
      </trkpt>
      <trkpt lat="46.7598558403551578521728515625" lon="6.84444210492074489593505859375">
        <ele>460.600006103515625</ele>
        <time>2013-09-01T15:04:51.000Z</time>
        <extensions>
          <ns3:TrackPointExtension>
            <ns3:atemp>19.0</ns3:atemp>
          </ns3:TrackPointExtension>
        </extensions>
      </trkpt>
      <trkpt lat="46.75980110652744770050048828125" lon="6.8443092517554759979248046875">
        <ele>460</ele>
        <time>2013-09-01T15:04:52.000Z</time>
        <extensions>
          <ns3:TrackPointExtension>
            <ns3:atemp>19.0</ns3:atemp>
          </ns3:TrackPointExtension>
        </extensions>
      </trkpt>
      <trkpt lat="46.7597458697855472564697265625" lon="6.844178996980190277099609375">
        <ele>459.79998779296875</ele>
        <time>2013-09-01T15:04:53.000Z</time>
        <extensions>
          <ns3:TrackPointExtension>
            <ns3:atemp>19.0</ns3:atemp>
          </ns3:TrackPointExtension>
        </extensions>
      </trkpt>
      <trkpt lat="46.75969331525266170501708984375" lon="6.84405167587101459503173828125">
        <ele>459.600006103515625</ele>
        <time>2013-09-01T15:04:54.000Z</time>
        <extensions>
          <ns3:TrackPointExtension>
            <ns3:atemp>19.0</ns3:atemp>
          </ns3:TrackPointExtension>
        </extensions>
      </trkpt>
      <trkpt lat="46.75964017398655414581298828125" lon="6.84392678551375865936279296875">
        <ele>459.399993896484375</ele>
        <time>2013-09-01T15:04:55.000Z</time>
        <extensions>
          <ns3:TrackPointExtension>
            <ns3:atemp>19.0</ns3:atemp>
          </ns3:TrackPointExtension>
        </extensions>
      </trkpt>
      <trkpt lat="46.759589128196239471435546875" lon="6.84380315244197845458984375">
        <ele>459.399993896484375</ele>
        <time>2013-09-01T15:04:56.000Z</time>
        <extensions>
          <ns3:TrackPointExtension>
            <ns3:atemp>19.0</ns3:atemp>
          </ns3:TrackPointExtension>
        </extensions>
      </trkpt>
      <trkpt lat="46.75954109989106655120849609375" lon="6.84368513524532318115234375">
        <ele>459.399993896484375</ele>
        <time>2013-09-01T15:04:57.000Z</time>
        <extensions>
          <ns3:TrackPointExtension>
            <ns3:atemp>19.0</ns3:atemp>
          </ns3:TrackPointExtension>
        </extensions>
      </trkpt>
      <trkpt lat="46.75949533469974994659423828125" lon="6.84357223100960254669189453125">
        <ele>459.20001220703125</ele>
        <time>2013-09-01T15:04:58.000Z</time>
        <extensions>
          <ns3:TrackPointExtension>
            <ns3:atemp>19.0</ns3:atemp>
          </ns3:TrackPointExtension>
        </extensions>
      </trkpt>
      <trkpt lat="46.75945065915584564208984375" lon="6.84346175752580165863037109375">
        <ele>459.20001220703125</ele>
        <time>2013-09-01T15:04:59.000Z</time>
        <extensions>
          <ns3:TrackPointExtension>
            <ns3:atemp>19.0</ns3:atemp>
          </ns3:TrackPointExtension>
        </extensions>
      </trkpt>
      <trkpt lat="46.75940774381160736083984375" lon="6.84335446916520595550537109375">
        <ele>459.20001220703125</ele>
        <time>2013-09-01T15:05:00.000Z</time>
        <extensions>
          <ns3:TrackPointExtension>
            <ns3:atemp>19.0</ns3:atemp>
          </ns3:TrackPointExtension>
        </extensions>
      </trkpt>
      <trkpt lat="46.75936642102897167205810546875" lon="6.84325455687940120697021484375">
        <ele>459.399993896484375</ele>
        <time>2013-09-01T15:05:01.000Z</time>
        <extensions>
          <ns3:TrackPointExtension>
            <ns3:atemp>19.0</ns3:atemp>
          </ns3:TrackPointExtension>
        </extensions>
      </trkpt>
      <trkpt lat="46.7593254335224628448486328125" lon="6.8431585840880870819091796875">
        <ele>459.600006103515625</ele>
        <time>2013-09-01T15:05:02.000Z</time>
        <extensions>
          <ns3:TrackPointExtension>
            <ns3:atemp>19.0</ns3:atemp>
          </ns3:TrackPointExtension>
        </extensions>
      </trkpt>
      <trkpt lat="46.7592858709394931793212890625" lon="6.84306931681931018829345703125">
        <ele>459.79998779296875</ele>
        <time>2013-09-01T15:05:03.000Z</time>
        <extensions>
          <ns3:TrackPointExtension>
            <ns3:atemp>19.0</ns3:atemp>
          </ns3:TrackPointExtension>
        </extensions>
      </trkpt>
      <trkpt lat="46.75924756564199924468994140625" lon="6.842988431453704833984375">
        <ele>459.79998779296875</ele>
        <time>2013-09-01T15:05:04.000Z</time>
        <extensions>
          <ns3:TrackPointExtension>
            <ns3:atemp>19.0</ns3:atemp>
          </ns3:TrackPointExtension>
        </extensions>
      </trkpt>
      <trkpt lat="46.7592097632586956024169921875" lon="6.842911653220653533935546875">
        <ele>459.600006103515625</ele>
        <time>2013-09-01T15:05:05.000Z</time>
        <extensions>
          <ns3:TrackPointExtension>
            <ns3:atemp>19.0</ns3:atemp>
          </ns3:TrackPointExtension>
        </extensions>
      </trkpt>
      <trkpt lat="46.7591738887131214141845703125" lon="6.84283914975821971893310546875">
        <ele>459.79998779296875</ele>
        <time>2013-09-01T15:05:06.000Z</time>
        <extensions>
          <ns3:TrackPointExtension>
            <ns3:atemp>19.0</ns3:atemp>
          </ns3:TrackPointExtension>
        </extensions>
      </trkpt>
      <trkpt lat="46.75914078019559383392333984375" lon="6.84276807121932506561279296875">
        <ele>460.20001220703125</ele>
        <time>2013-09-01T15:05:07.000Z</time>
        <extensions>
          <ns3:TrackPointExtension>
            <ns3:atemp>19.0</ns3:atemp>
          </ns3:TrackPointExtension>
        </extensions>
      </trkpt>
      <trkpt lat="46.7591091804206371307373046875" lon="6.8426992557942867279052734375">
        <ele>460.600006103515625</ele>
        <time>2013-09-01T15:05:08.000Z</time>
        <extensions>
          <ns3:TrackPointExtension>
            <ns3:atemp>19.0</ns3:atemp>
          </ns3:TrackPointExtension>
        </extensions>
      </trkpt>
      <trkpt lat="46.75907808355987071990966796875" lon="6.842634715139865875244140625">
        <ele>460.79998779296875</ele>
        <time>2013-09-01T15:05:09.000Z</time>
        <extensions>
          <ns3:TrackPointExtension>
            <ns3:atemp>19.0</ns3:atemp>
          </ns3:TrackPointExtension>
        </extensions>
      </trkpt>
      <trkpt lat="46.7590468190610408782958984375" lon="6.84257470071315765380859375">
        <ele>461.20001220703125</ele>
        <time>2013-09-01T15:05:10.000Z</time>
        <extensions>
          <ns3:TrackPointExtension>
            <ns3:atemp>19.0</ns3:atemp>
          </ns3:TrackPointExtension>
        </extensions>
      </trkpt>
      <trkpt lat="46.7590156383812427520751953125" lon="6.84251812286674976348876953125">
        <ele>461.399993896484375</ele>
        <time>2013-09-01T15:05:11.000Z</time>
        <extensions>
          <ns3:TrackPointExtension>
            <ns3:atemp>19.0</ns3:atemp>
          </ns3:TrackPointExtension>
        </extensions>
      </trkpt>
      <trkpt lat="46.758986301720142364501953125" lon="6.84245743788778781890869140625">
        <ele>461.600006103515625</ele>
        <time>2013-09-01T15:05:12.000Z</time>
        <extensions>
          <ns3:TrackPointExtension>
            <ns3:atemp>19.0</ns3:atemp>
          </ns3:TrackPointExtension>
        </extensions>
      </trkpt>
      <trkpt lat="46.758958138525485992431640625" lon="6.8423938192427158355712890625">
        <ele>461.600006103515625</ele>
        <time>2013-09-01T15:05:13.000Z</time>
        <extensions>
          <ns3:TrackPointExtension>
            <ns3:atemp>19.0</ns3:atemp>
          </ns3:TrackPointExtension>
        </extensions>
      </trkpt>
      <trkpt lat="46.75892704166471958160400390625" lon="6.8423284403979778289794921875">
        <ele>461.600006103515625</ele>
        <time>2013-09-01T15:05:14.000Z</time>
        <extensions>
          <ns3:TrackPointExtension>
            <ns3:atemp>19.0</ns3:atemp>
          </ns3:TrackPointExtension>
        </extensions>
      </trkpt>
      <trkpt lat="46.75888982601463794708251953125" lon="6.84226850979030132293701171875">
        <ele>461.600006103515625</ele>
        <time>2013-09-01T15:05:15.000Z</time>
        <extensions>
          <ns3:TrackPointExtension>
            <ns3:atemp>19.0</ns3:atemp>
          </ns3:TrackPointExtension>
        </extensions>
      </trkpt>
      <trkpt lat="46.75884640775620937347412109375" lon="6.8422104232013225555419921875">
        <ele>461.600006103515625</ele>
        <time>2013-09-01T15:05:16.000Z</time>
        <extensions>
          <ns3:TrackPointExtension>
            <ns3:atemp>19.0</ns3:atemp>
          </ns3:TrackPointExtension>
        </extensions>
      </trkpt>
      <trkpt lat="46.75879955291748046875" lon="6.8421500734984874725341796875">
        <ele>461.600006103515625</ele>
        <time>2013-09-01T15:05:17.000Z</time>
        <extensions>
          <ns3:TrackPointExtension>
            <ns3:atemp>19.0</ns3:atemp>
          </ns3:TrackPointExtension>
        </extensions>
      </trkpt>
      <trkpt lat="46.7587499320507049560546875" lon="6.84208947233855724334716796875">
        <ele>461.399993896484375</ele>
        <time>2013-09-01T15:05:18.000Z</time>
        <extensions>
          <ns3:TrackPointExtension>
            <ns3:atemp>19.0</ns3:atemp>
          </ns3:TrackPointExtension>
        </extensions>
      </trkpt>
      <trkpt lat="46.7587004788219928741455078125" lon="6.8420266918838024139404296875">
        <ele>461.20001220703125</ele>
        <time>2013-09-01T15:05:19.000Z</time>
        <extensions>
          <ns3:TrackPointExtension>
            <ns3:atemp>19.0</ns3:atemp>
          </ns3:TrackPointExtension>
        </extensions>
      </trkpt>
      <trkpt lat="46.75864859484136104583740234375" lon="6.841963827610015869140625">
        <ele>461</ele>
        <time>2013-09-01T15:05:20.000Z</time>
        <extensions>
          <ns3:TrackPointExtension>
            <ns3:atemp>19.0</ns3:atemp>
          </ns3:TrackPointExtension>
        </extensions>
      </trkpt>
      <trkpt lat="46.75859444774687290191650390625" lon="6.84190054424107074737548828125">
        <ele>461</ele>
        <time>2013-09-01T15:05:21.000Z</time>
        <extensions>
          <ns3:TrackPointExtension>
            <ns3:atemp>19.0</ns3:atemp>
          </ns3:TrackPointExtension>
        </extensions>
      </trkpt>
      <trkpt lat="46.7585382051765918731689453125" lon="6.8418364226818084716796875">
        <ele>461</ele>
        <time>2013-09-01T15:05:22.000Z</time>
        <extensions>
          <ns3:TrackPointExtension>
            <ns3:atemp>19.0</ns3:atemp>
          </ns3:TrackPointExtension>
        </extensions>
      </trkpt>
      <trkpt lat="46.75848238170146942138671875" lon="6.841769702732563018798828125">
        <ele>461.20001220703125</ele>
        <time>2013-09-01T15:05:23.000Z</time>
        <extensions>
          <ns3:TrackPointExtension>
            <ns3:atemp>19.0</ns3:atemp>
          </ns3:TrackPointExtension>
        </extensions>
      </trkpt>
      <trkpt lat="46.75842697732150554656982421875" lon="6.841698624193668365478515625">
        <ele>461.20001220703125</ele>
        <time>2013-09-01T15:05:24.000Z</time>
        <extensions>
          <ns3:TrackPointExtension>
            <ns3:atemp>19.0</ns3:atemp>
          </ns3:TrackPointExtension>
        </extensions>
      </trkpt>
      <trkpt lat="46.75837400369346141815185546875" lon="6.84162788093090057373046875">
        <ele>461</ele>
        <time>2013-09-01T15:05:25.000Z</time>
        <extensions>
          <ns3:TrackPointExtension>
            <ns3:atemp>19.0</ns3:atemp>
          </ns3:TrackPointExtension>
        </extensions>
      </trkpt>
      <trkpt lat="46.75832019187510013580322265625" lon="6.84155738912522792816162109375">
        <ele>461.20001220703125</ele>
        <time>2013-09-01T15:05:26.000Z</time>
        <extensions>
          <ns3:TrackPointExtension>
            <ns3:atemp>19.0</ns3:atemp>
          </ns3:TrackPointExtension>
        </extensions>
      </trkpt>
      <trkpt lat="46.75826470367610454559326171875" lon="6.841492094099521636962890625">
        <ele>461.20001220703125</ele>
        <time>2013-09-01T15:05:27.000Z</time>
        <extensions>
          <ns3:TrackPointExtension>
            <ns3:atemp>19.0</ns3:atemp>
          </ns3:TrackPointExtension>
        </extensions>
      </trkpt>
      <trkpt lat="46.7582081258296966552734375" lon="6.84142696671187877655029296875">
        <ele>461</ele>
        <time>2013-09-01T15:05:28.000Z</time>
        <extensions>
          <ns3:TrackPointExtension>
            <ns3:atemp>19.0</ns3:atemp>
          </ns3:TrackPointExtension>
        </extensions>
      </trkpt>
      <trkpt lat="46.75815054215490818023681640625" lon="6.84135806746780872344970703125">
        <ele>461</ele>
        <time>2013-09-01T15:05:29.000Z</time>
        <extensions>
          <ns3:TrackPointExtension>
            <ns3:atemp>19.0</ns3:atemp>
          </ns3:TrackPointExtension>
        </extensions>
      </trkpt>
      <trkpt lat="46.75809069536626338958740234375" lon="6.8412894196808338165283203125">
        <ele>460.79998779296875</ele>
        <time>2013-09-01T15:05:30.000Z</time>
        <extensions>
          <ns3:TrackPointExtension>
            <ns3:atemp>19.0</ns3:atemp>
          </ns3:TrackPointExtension>
        </extensions>
      </trkpt>
      <trkpt lat="46.7580292560160160064697265625" lon="6.841223873198032379150390625">
        <ele>460.600006103515625</ele>
        <time>2013-09-01T15:05:31.000Z</time>
        <extensions>
          <ns3:TrackPointExtension>
            <ns3:atemp>19.0</ns3:atemp>
          </ns3:TrackPointExtension>
        </extensions>
      </trkpt>
      <trkpt lat="46.75796546973288059234619140625" lon="6.841163523495197296142578125">
        <ele>460.399993896484375</ele>
        <time>2013-09-01T15:05:32.000Z</time>
        <extensions>
          <ns3:TrackPointExtension>
            <ns3:atemp>19.0</ns3:atemp>
          </ns3:TrackPointExtension>
        </extensions>
      </trkpt>
      <trkpt lat="46.7578951455652713775634765625" lon="6.84111063368618488311767578125">
        <ele>460.399993896484375</ele>
        <time>2013-09-01T15:05:33.000Z</time>
        <extensions>
          <ns3:TrackPointExtension>
            <ns3:atemp>19.0</ns3:atemp>
          </ns3:TrackPointExtension>
        </extensions>
      </trkpt>
      <trkpt lat="46.75782398320734500885009765625" lon="6.8410671316087245941162109375">
        <ele>460.600006103515625</ele>
        <time>2013-09-01T15:05:34.000Z</time>
        <extensions>
          <ns3:TrackPointExtension>
            <ns3:atemp>19.0</ns3:atemp>
          </ns3:TrackPointExtension>
        </extensions>
      </trkpt>
      <trkpt lat="46.75774938426911830902099609375" lon="6.84104005806148052215576171875">
        <ele>460.79998779296875</ele>
        <time>2013-09-01T15:05:35.000Z</time>
        <extensions>
          <ns3:TrackPointExtension>
            <ns3:atemp>19.0</ns3:atemp>
          </ns3:TrackPointExtension>
        </extensions>
      </trkpt>
      <trkpt lat="46.75767361186444759368896484375" lon="6.841024719178676605224609375">
        <ele>460.79998779296875</ele>
        <time>2013-09-01T15:05:36.000Z</time>
        <extensions>
          <ns3:TrackPointExtension>
            <ns3:atemp>19.0</ns3:atemp>
          </ns3:TrackPointExtension>
        </extensions>
      </trkpt>
      <trkpt lat="46.75759934820234775543212890625" lon="6.8410104699432849884033203125">
        <ele>460.79998779296875</ele>
        <time>2013-09-01T15:05:37.000Z</time>
        <extensions>
          <ns3:TrackPointExtension>
            <ns3:atemp>19.0</ns3:atemp>
          </ns3:TrackPointExtension>
        </extensions>
      </trkpt>
      <trkpt lat="46.75752508454024791717529296875" lon="6.8410007469356060028076171875">
        <ele>460.79998779296875</ele>
        <time>2013-09-01T15:05:38.000Z</time>
        <extensions>
          <ns3:TrackPointExtension>
            <ns3:atemp>19.0</ns3:atemp>
          </ns3:TrackPointExtension>
        </extensions>
      </trkpt>
      <trkpt lat="46.75744931213557720184326171875" lon="6.8409930355846881866455078125">
        <ele>460.79998779296875</ele>
        <time>2013-09-01T15:05:39.000Z</time>
        <extensions>
          <ns3:TrackPointExtension>
            <ns3:atemp>19.0</ns3:atemp>
          </ns3:TrackPointExtension>
        </extensions>
      </trkpt>
      <trkpt lat="46.75737337209284305572509765625" lon="6.840986497700214385986328125">
        <ele>461</ele>
        <time>2013-09-01T15:05:40.000Z</time>
        <extensions>
          <ns3:TrackPointExtension>
            <ns3:atemp>19.0</ns3:atemp>
          </ns3:TrackPointExtension>
        </extensions>
      </trkpt>
      <trkpt lat="46.75730095244944095611572265625" lon="6.84098524041473865509033203125">
        <ele>461</ele>
        <time>2013-09-01T15:05:41.000Z</time>
        <extensions>
          <ns3:TrackPointExtension>
            <ns3:atemp>19.0</ns3:atemp>
          </ns3:TrackPointExtension>
        </extensions>
      </trkpt>
      <trkpt lat="46.75722853280603885650634765625" lon="6.8409906886518001556396484375">
        <ele>461</ele>
        <time>2013-09-01T15:05:42.000Z</time>
        <extensions>
          <ns3:TrackPointExtension>
            <ns3:atemp>19.0</ns3:atemp>
          </ns3:TrackPointExtension>
        </extensions>
      </trkpt>
      <trkpt lat="46.75715561024844646453857421875" lon="6.84099647216498851776123046875">
        <ele>461</ele>
        <time>2013-09-01T15:05:43.000Z</time>
        <extensions>
          <ns3:TrackPointExtension>
            <ns3:atemp>19.0</ns3:atemp>
          </ns3:TrackPointExtension>
        </extensions>
      </trkpt>
      <trkpt lat="46.757085286080837249755859375" lon="6.841003261506557464599609375">
        <ele>461</ele>
        <time>2013-09-01T15:05:44.000Z</time>
        <extensions>
          <ns3:TrackPointExtension>
            <ns3:atemp>19.0</ns3:atemp>
          </ns3:TrackPointExtension>
        </extensions>
      </trkpt>
      <trkpt lat="46.75701345317065715789794921875" lon="6.84100653044879436492919921875">
        <ele>461</ele>
        <time>2013-09-01T15:05:45.000Z</time>
        <extensions>
          <ns3:TrackPointExtension>
            <ns3:atemp>19.0</ns3:atemp>
          </ns3:TrackPointExtension>
        </extensions>
      </trkpt>
      <trkpt lat="46.75694136880338191986083984375" lon="6.8410076200962066650390625">
        <ele>460.79998779296875</ele>
        <time>2013-09-01T15:05:46.000Z</time>
        <extensions>
          <ns3:TrackPointExtension>
            <ns3:atemp>19.0</ns3:atemp>
          </ns3:TrackPointExtension>
        </extensions>
      </trkpt>
      <trkpt lat="46.75686710514128208160400390625" lon="6.84100619517266750335693359375">
        <ele>461</ele>
        <time>2013-09-01T15:05:47.000Z</time>
        <extensions>
          <ns3:TrackPointExtension>
            <ns3:atemp>19.0</ns3:atemp>
          </ns3:TrackPointExtension>
        </extensions>
      </trkpt>
      <trkpt lat="46.75679367966949939727783203125" lon="6.84100301004946231842041015625">
        <ele>461</ele>
        <time>2013-09-01T15:05:48.000Z</time>
        <extensions>
          <ns3:TrackPointExtension>
            <ns3:atemp>19.0</ns3:atemp>
          </ns3:TrackPointExtension>
        </extensions>
      </trkpt>
      <trkpt lat="46.7567210085690021514892578125" lon="6.84099345467984676361083984375">
        <ele>461</ele>
        <time>2013-09-01T15:05:49.000Z</time>
        <extensions>
          <ns3:TrackPointExtension>
            <ns3:atemp>19.0</ns3:atemp>
          </ns3:TrackPointExtension>
        </extensions>
      </trkpt>
      <trkpt lat="46.75665018148720264434814453125" lon="6.8409732542932033538818359375">
        <ele>460.79998779296875</ele>
        <time>2013-09-01T15:05:50.000Z</time>
        <extensions>
          <ns3:TrackPointExtension>
            <ns3:atemp>19.0</ns3:atemp>
          </ns3:TrackPointExtension>
        </extensions>
      </trkpt>
      <trkpt lat="46.756584383547306060791015625" lon="6.8409405648708343505859375">
        <ele>460.600006103515625</ele>
        <time>2013-09-01T15:05:51.000Z</time>
        <extensions>
          <ns3:TrackPointExtension>
            <ns3:atemp>19.0</ns3:atemp>
          </ns3:TrackPointExtension>
        </extensions>
      </trkpt>
      <trkpt lat="46.75652143545448780059814453125" lon="6.84090293012559413909912109375">
        <ele>460.79998779296875</ele>
        <time>2013-09-01T15:05:52.000Z</time>
        <extensions>
          <ns3:TrackPointExtension>
            <ns3:atemp>19.0</ns3:atemp>
          </ns3:TrackPointExtension>
        </extensions>
      </trkpt>
      <trkpt lat="46.7564604990184307098388671875" lon="6.840867139399051666259765625">
        <ele>461</ele>
        <time>2013-09-01T15:05:53.000Z</time>
        <extensions>
          <ns3:TrackPointExtension>
            <ns3:atemp>19.0</ns3:atemp>
          </ns3:TrackPointExtension>
        </extensions>
      </trkpt>
      <trkpt lat="46.756401993334293365478515625" lon="6.8408324383199214935302734375">
        <ele>461.600006103515625</ele>
        <time>2013-09-01T15:05:54.000Z</time>
        <extensions>
          <ns3:TrackPointExtension>
            <ns3:atemp>19.0</ns3:atemp>
          </ns3:TrackPointExtension>
        </extensions>
      </trkpt>
      <trkpt lat="46.75634591840207576751708984375" lon="6.84080067090690135955810546875">
        <ele>461.600006103515625</ele>
        <time>2013-09-01T15:05:55.000Z</time>
        <extensions>
          <ns3:TrackPointExtension>
            <ns3:atemp>19.0</ns3:atemp>
          </ns3:TrackPointExtension>
        </extensions>
      </trkpt>
      <trkpt lat="46.7562931962311267852783203125" lon="6.8407680653035640716552734375">
        <ele>461.600006103515625</ele>
        <time>2013-09-01T15:05:56.000Z</time>
        <extensions>
          <ns3:TrackPointExtension>
            <ns3:atemp>19.0</ns3:atemp>
          </ns3:TrackPointExtension>
        </extensions>
      </trkpt>
      <trkpt lat="46.7562472634017467498779296875" lon="6.84073529206216335296630859375">
        <ele>461.399993896484375</ele>
        <time>2013-09-01T15:05:57.000Z</time>
        <extensions>
          <ns3:TrackPointExtension>
            <ns3:atemp>19.0</ns3:atemp>
          </ns3:TrackPointExtension>
        </extensions>
      </trkpt>
      <trkpt lat="46.756200827658176422119140625" lon="6.84070629067718982696533203125">
        <ele>461.399993896484375</ele>
        <time>2013-09-01T15:05:58.000Z</time>
        <extensions>
          <ns3:TrackPointExtension>
            <ns3:atemp>19.0</ns3:atemp>
          </ns3:TrackPointExtension>
        </extensions>
      </trkpt>
      <trkpt lat="46.75615564920008182525634765625" lon="6.8406741879880428314208984375">
        <ele>461.600006103515625</ele>
        <time>2013-09-01T15:05:59.000Z</time>
        <extensions>
          <ns3:TrackPointExtension>
            <ns3:atemp>19.0</ns3:atemp>
          </ns3:TrackPointExtension>
        </extensions>
      </trkpt>
      <trkpt lat="46.75611306913197040557861328125" lon="6.84063537977635860443115234375">
        <ele>462</ele>
        <time>2013-09-01T15:06:00.000Z</time>
        <extensions>
          <ns3:TrackPointExtension>
            <ns3:atemp>19.0</ns3:atemp>
          </ns3:TrackPointExtension>
        </extensions>
      </trkpt>
      <trkpt lat="46.7560682259500026702880859375" lon="6.8406000919640064239501953125">
        <ele>462.399993896484375</ele>
        <time>2013-09-01T15:06:01.000Z</time>
        <extensions>
          <ns3:TrackPointExtension>
            <ns3:atemp>19.0</ns3:atemp>
          </ns3:TrackPointExtension>
        </extensions>
      </trkpt>
      <trkpt lat="46.7560269869863986968994140625" lon="6.8405618704855442047119140625">
        <ele>463</ele>
        <time>2013-09-01T15:06:02.000Z</time>
        <extensions>
          <ns3:TrackPointExtension>
            <ns3:atemp>19.0</ns3:atemp>
          </ns3:TrackPointExtension>
        </extensions>
      </trkpt>
      <trkpt lat="46.75598516128957271575927734375" lon="6.84052415192127227783203125">
        <ele>463.20001220703125</ele>
        <time>2013-09-01T15:06:03.000Z</time>
        <extensions>
          <ns3:TrackPointExtension>
            <ns3:atemp>19.0</ns3:atemp>
          </ns3:TrackPointExtension>
        </extensions>
      </trkpt>
      <trkpt lat="46.75594031810760498046875" lon="6.8404891155660152435302734375">
        <ele>463.20001220703125</ele>
        <time>2013-09-01T15:06:04.000Z</time>
        <extensions>
          <ns3:TrackPointExtension>
            <ns3:atemp>19.0</ns3:atemp>
          </ns3:TrackPointExtension>
        </extensions>
      </trkpt>
      <trkpt lat="46.75589614547789096832275390625" lon="6.8404505588114261627197265625">
        <ele>463.20001220703125</ele>
        <time>2013-09-01T15:06:05.000Z</time>
        <extensions>
          <ns3:TrackPointExtension>
            <ns3:atemp>19.0</ns3:atemp>
          </ns3:TrackPointExtension>
        </extensions>
      </trkpt>
      <trkpt lat="46.75585105083882808685302734375" lon="6.8404123373329639434814453125">
        <ele>463.20001220703125</ele>
        <time>2013-09-01T15:06:06.000Z</time>
        <extensions>
          <ns3:TrackPointExtension>
            <ns3:atemp>19.0</ns3:atemp>
          </ns3:TrackPointExtension>
        </extensions>
      </trkpt>
      <trkpt lat="46.75580444745719432830810546875" lon="6.8403724394738674163818359375">
        <ele>463.20001220703125</ele>
        <time>2013-09-01T15:06:07.000Z</time>
        <extensions>
          <ns3:TrackPointExtension>
            <ns3:atemp>19.0</ns3:atemp>
          </ns3:TrackPointExtension>
        </extensions>
      </trkpt>
      <trkpt lat="46.75575750879943370819091796875" lon="6.84033103287220001220703125">
        <ele>463.20001220703125</ele>
        <time>2013-09-01T15:06:08.000Z</time>
        <extensions>
          <ns3:TrackPointExtension>
            <ns3:atemp>19.0</ns3:atemp>
          </ns3:TrackPointExtension>
        </extensions>
      </trkpt>
      <trkpt lat="46.75571124069392681121826171875" lon="6.84028971008956432342529296875">
        <ele>463.399993896484375</ele>
        <time>2013-09-01T15:06:09.000Z</time>
        <extensions>
          <ns3:TrackPointExtension>
            <ns3:atemp>19.0</ns3:atemp>
          </ns3:TrackPointExtension>
        </extensions>
      </trkpt>
      <trkpt lat="46.75566631369292736053466796875" lon="6.84024478308856487274169921875">
        <ele>463.600006103515625</ele>
        <time>2013-09-01T15:06:10.000Z</time>
        <extensions>
          <ns3:TrackPointExtension>
            <ns3:atemp>19.0</ns3:atemp>
          </ns3:TrackPointExtension>
        </extensions>
      </trkpt>
      <trkpt lat="46.755622811615467071533203125" lon="6.8402017839252948760986328125">
        <ele>463.399993896484375</ele>
        <time>2013-09-01T15:06:11.000Z</time>
        <extensions>
          <ns3:TrackPointExtension>
            <ns3:atemp>19.0</ns3:atemp>
          </ns3:TrackPointExtension>
        </extensions>
      </trkpt>
      <trkpt lat="46.75557964481413364410400390625" lon="6.8401612155139446258544921875">
        <ele>462.79998779296875</ele>
        <time>2013-09-01T15:06:12.000Z</time>
        <extensions>
          <ns3:TrackPointExtension>
            <ns3:atemp>19.0</ns3:atemp>
          </ns3:TrackPointExtension>
        </extensions>
      </trkpt>
      <trkpt lat="46.75553572364151477813720703125" lon="6.84011670760810375213623046875">
        <ele>462.600006103515625</ele>
        <time>2013-09-01T15:06:13.000Z</time>
        <extensions>
          <ns3:TrackPointExtension>
            <ns3:atemp>19.0</ns3:atemp>
          </ns3:TrackPointExtension>
        </extensions>
      </trkpt>
      <trkpt lat="46.75549213774502277374267578125" lon="6.8400680087506771087646484375">
        <ele>462.399993896484375</ele>
        <time>2013-09-01T15:06:14.000Z</time>
        <extensions>
          <ns3:TrackPointExtension>
            <ns3:atemp>19.0</ns3:atemp>
          </ns3:TrackPointExtension>
        </extensions>
      </trkpt>
      <trkpt lat="46.755443774163722991943359375" lon="6.84001964516937732696533203125">
        <ele>462.399993896484375</ele>
        <time>2013-09-01T15:06:15.000Z</time>
        <extensions>
          <ns3:TrackPointExtension>
            <ns3:atemp>19.0</ns3:atemp>
          </ns3:TrackPointExtension>
        </extensions>
      </trkpt>
      <trkpt lat="46.7553936503827571868896484375" lon="6.83997035957872867584228515625">
        <ele>462.20001220703125</ele>
        <time>2013-09-01T15:06:16.000Z</time>
        <extensions>
          <ns3:TrackPointExtension>
            <ns3:atemp>19.0</ns3:atemp>
          </ns3:TrackPointExtension>
        </extensions>
      </trkpt>
      <trkpt lat="46.75534428097307682037353515625" lon="6.8399201519787311553955078125">
        <ele>462.20001220703125</ele>
        <time>2013-09-01T15:06:17.000Z</time>
        <extensions>
          <ns3:TrackPointExtension>
            <ns3:atemp>19.0</ns3:atemp>
          </ns3:TrackPointExtension>
        </extensions>
      </trkpt>
      <trkpt lat="46.7552967555820941925048828125" lon="6.8398638255894184112548828125">
        <ele>462.20001220703125</ele>
        <time>2013-09-01T15:06:18.000Z</time>
        <extensions>
          <ns3:TrackPointExtension>
            <ns3:atemp>19.0</ns3:atemp>
          </ns3:TrackPointExtension>
        </extensions>
      </trkpt>
      <trkpt lat="46.7552483081817626953125" lon="6.83980666100978851318359375">
        <ele>462</ele>
        <time>2013-09-01T15:06:19.000Z</time>
        <extensions>
          <ns3:TrackPointExtension>
            <ns3:atemp>19.0</ns3:atemp>
          </ns3:TrackPointExtension>
        </extensions>
      </trkpt>
      <trkpt lat="46.75519877113401889801025390625" lon="6.83975058607757091522216796875">
        <ele>461.79998779296875</ele>
        <time>2013-09-01T15:06:20.000Z</time>
        <extensions>
          <ns3:TrackPointExtension>
            <ns3:atemp>19.0</ns3:atemp>
          </ns3:TrackPointExtension>
        </extensions>
      </trkpt>
      <trkpt lat="46.7551509104669094085693359375" lon="6.83968906290829181671142578125">
        <ele>462</ele>
        <time>2013-09-01T15:06:21.000Z</time>
        <extensions>
          <ns3:TrackPointExtension>
            <ns3:atemp>19.0</ns3:atemp>
          </ns3:TrackPointExtension>
        </extensions>
      </trkpt>
      <trkpt lat="46.755101121962070465087890625" lon="6.83962586335837841033935546875">
        <ele>462</ele>
        <time>2013-09-01T15:06:22.000Z</time>
        <extensions>
          <ns3:TrackPointExtension>
            <ns3:atemp>19.0</ns3:atemp>
          </ns3:TrackPointExtension>
        </extensions>
      </trkpt>
      <trkpt lat="46.75504940561950206756591796875" lon="6.83956257998943328857421875">
        <ele>462</ele>
        <time>2013-09-01T15:06:23.000Z</time>
        <extensions>
          <ns3:TrackPointExtension>
            <ns3:atemp>19.0</ns3:atemp>
          </ns3:TrackPointExtension>
        </extensions>
      </trkpt>
      <trkpt lat="46.75499693490564823150634765625" lon="6.83949929662048816680908203125">
        <ele>461.79998779296875</ele>
        <time>2013-09-01T15:06:24.000Z</time>
        <extensions>
          <ns3:TrackPointExtension>
            <ns3:atemp>19.0</ns3:atemp>
          </ns3:TrackPointExtension>
        </extensions>
      </trkpt>
      <trkpt lat="46.7549427039921283721923828125" lon="6.8394346721470355987548828125">
        <ele>461.600006103515625</ele>
        <time>2013-09-01T15:06:25.000Z</time>
        <extensions>
          <ns3:TrackPointExtension>
            <ns3:atemp>19.0</ns3:atemp>
          </ns3:TrackPointExtension>
        </extensions>
      </trkpt>
      <trkpt lat="46.75488746725022792816162109375" lon="6.8393689580261707305908203125">
        <ele>461.399993896484375</ele>
        <time>2013-09-01T15:06:26.000Z</time>
        <extensions>
          <ns3:TrackPointExtension>
            <ns3:atemp>19.0</ns3:atemp>
          </ns3:TrackPointExtension>
        </extensions>
      </trkpt>
      <trkpt lat="46.754836253821849822998046875" lon="6.83929813094437122344970703125">
        <ele>461.20001220703125</ele>
        <time>2013-09-01T15:06:27.000Z</time>
        <extensions>
          <ns3:TrackPointExtension>
            <ns3:atemp>19.0</ns3:atemp>
          </ns3:TrackPointExtension>
        </extensions>
      </trkpt>
      <trkpt lat="46.75478906370699405670166015625" lon="6.839220263063907623291015625">
        <ele>461.20001220703125</ele>
        <time>2013-09-01T15:06:28.000Z</time>
        <extensions>
          <ns3:TrackPointExtension>
            <ns3:atemp>19.0</ns3:atemp>
          </ns3:TrackPointExtension>
        </extensions>
      </trkpt>
      <trkpt lat="46.754743047058582305908203125" lon="6.83913988061249256134033203125">
        <ele>460.79998779296875</ele>
        <time>2013-09-01T15:06:29.000Z</time>
        <extensions>
          <ns3:TrackPointExtension>
            <ns3:atemp>19.0</ns3:atemp>
          </ns3:TrackPointExtension>
        </extensions>
      </trkpt>
      <trkpt lat="46.754702143371105194091796875" lon="6.8390534631907939910888671875">
        <ele>460.399993896484375</ele>
        <time>2013-09-01T15:06:30.000Z</time>
        <extensions>
          <ns3:TrackPointExtension>
            <ns3:atemp>19.0</ns3:atemp>
          </ns3:TrackPointExtension>
        </extensions>
      </trkpt>
      <trkpt lat="46.754665262997150421142578125" lon="6.83896017260849475860595703125">
        <ele>460.20001220703125</ele>
        <time>2013-09-01T15:06:31.000Z</time>
        <extensions>
          <ns3:TrackPointExtension>
            <ns3:atemp>19.0</ns3:atemp>
          </ns3:TrackPointExtension>
        </extensions>
      </trkpt>
      <trkpt lat="46.75458873622119426727294921875" lon="6.83876889757812023162841796875">
        <ele>460</ele>
        <time>2013-09-01T15:06:33.000Z</time>
        <extensions>
          <ns3:TrackPointExtension>
            <ns3:atemp>19.0</ns3:atemp>
          </ns3:TrackPointExtension>
        </extensions>
      </trkpt>
      <trkpt lat="46.75454682670533657073974609375" lon="6.83867099694907665252685546875">
        <ele>460.20001220703125</ele>
        <time>2013-09-01T15:06:34.000Z</time>
        <extensions>
          <ns3:TrackPointExtension>
            <ns3:atemp>19.0</ns3:atemp>
          </ns3:TrackPointExtension>
        </extensions>
      </trkpt>
      <trkpt lat="46.7545008100569248199462890625" lon="6.8385721743106842041015625">
        <ele>459.79998779296875</ele>
        <time>2013-09-01T15:06:35.000Z</time>
        <extensions>
          <ns3:TrackPointExtension>
            <ns3:atemp>19.0</ns3:atemp>
          </ns3:TrackPointExtension>
        </extensions>
      </trkpt>
      <trkpt lat="46.754446662962436676025390625" lon="6.8384767882525920867919921875">
        <ele>459.79998779296875</ele>
        <time>2013-09-01T15:06:36.000Z</time>
        <extensions>
          <ns3:TrackPointExtension>
            <ns3:atemp>19.0</ns3:atemp>
          </ns3:TrackPointExtension>
        </extensions>
      </trkpt>
      <trkpt lat="46.7543720640242099761962890625" lon="6.83840453624725341796875">
        <ele>459.399993896484375</ele>
        <time>2013-09-01T15:06:37.000Z</time>
        <extensions>
          <ns3:TrackPointExtension>
            <ns3:atemp>19.0</ns3:atemp>
          </ns3:TrackPointExtension>
        </extensions>
      </trkpt>
      <trkpt lat="46.7542892508208751678466796875" lon="6.83836229145526885986328125">
        <ele>459.20001220703125</ele>
        <time>2013-09-01T15:06:38.000Z</time>
        <extensions>
          <ns3:TrackPointExtension>
            <ns3:atemp>19.0</ns3:atemp>
          </ns3:TrackPointExtension>
        </extensions>
      </trkpt>
      <trkpt lat="46.75420333631336688995361328125" lon="6.8383415043354034423828125">
        <ele>459.399993896484375</ele>
        <time>2013-09-01T15:06:39.000Z</time>
        <extensions>
          <ns3:TrackPointExtension>
            <ns3:atemp>19.0</ns3:atemp>
          </ns3:TrackPointExtension>
        </extensions>
      </trkpt>
      <trkpt lat="46.7541152425110340118408203125" lon="6.83833404444158077239990234375">
        <ele>459.20001220703125</ele>
        <time>2013-09-01T15:06:40.000Z</time>
        <extensions>
          <ns3:TrackPointExtension>
            <ns3:atemp>19.0</ns3:atemp>
          </ns3:TrackPointExtension>
        </extensions>
      </trkpt>
      <trkpt lat="46.75402681343257427215576171875" lon="6.83834058232605457305908203125">
        <ele>459.20001220703125</ele>
        <time>2013-09-01T15:06:41.000Z</time>
        <extensions>
          <ns3:TrackPointExtension>
            <ns3:atemp>19.0</ns3:atemp>
          </ns3:TrackPointExtension>
        </extensions>
      </trkpt>
      <trkpt lat="46.7539341934025287628173828125" lon="6.83834879659116268157958984375">
        <ele>459.20001220703125</ele>
        <time>2013-09-01T15:06:42.000Z</time>
        <extensions>
          <ns3:TrackPointExtension>
            <ns3:atemp>19.0</ns3:atemp>
          </ns3:TrackPointExtension>
        </extensions>
      </trkpt>
      <trkpt lat="46.75384081900119781494140625" lon="6.8383631296455860137939453125">
        <ele>459.20001220703125</ele>
        <time>2013-09-01T15:06:43.000Z</time>
        <extensions>
          <ns3:TrackPointExtension>
            <ns3:atemp>19.0</ns3:atemp>
          </ns3:TrackPointExtension>
        </extensions>
      </trkpt>
      <trkpt lat="46.75375959835946559906005859375" lon="6.8383991718292236328125">
        <ele>458.79998779296875</ele>
        <time>2013-09-01T15:06:44.000Z</time>
        <extensions>
          <ns3:TrackPointExtension>
            <ns3:atemp>19.0</ns3:atemp>
          </ns3:TrackPointExtension>
        </extensions>
      </trkpt>
      <trkpt lat="46.753695309162139892578125" lon="6.8384543247520923614501953125">
        <ele>458.20001220703125</ele>
        <time>2013-09-01T15:06:45.000Z</time>
        <extensions>
          <ns3:TrackPointExtension>
            <ns3:atemp>19.0</ns3:atemp>
          </ns3:TrackPointExtension>
        </extensions>
      </trkpt>
      <trkpt lat="46.753632612526416778564453125" lon="6.8385062925517559051513671875">
        <ele>457.399993896484375</ele>
        <time>2013-09-01T15:06:46.000Z</time>
        <extensions>
          <ns3:TrackPointExtension>
            <ns3:atemp>19.0</ns3:atemp>
          </ns3:TrackPointExtension>
        </extensions>
      </trkpt>
      <trkpt lat="46.7535640485584735870361328125" lon="6.83853504247963428497314453125">
        <ele>456.79998779296875</ele>
        <time>2013-09-01T15:06:47.000Z</time>
        <extensions>
          <ns3:TrackPointExtension>
            <ns3:atemp>19.0</ns3:atemp>
          </ns3:TrackPointExtension>
        </extensions>
      </trkpt>
      <trkpt lat="46.75349238328635692596435546875" lon="6.83853856287896633148193359375">
        <ele>456.399993896484375</ele>
        <time>2013-09-01T15:06:48.000Z</time>
        <extensions>
          <ns3:TrackPointExtension>
            <ns3:atemp>19.0</ns3:atemp>
          </ns3:TrackPointExtension>
        </extensions>
      </trkpt>
      <trkpt lat="46.75342113710939884185791015625" lon="6.83851526118814945220947265625">
        <ele>456.20001220703125</ele>
        <time>2013-09-01T15:06:49.000Z</time>
        <extensions>
          <ns3:TrackPointExtension>
            <ns3:atemp>19.0</ns3:atemp>
          </ns3:TrackPointExtension>
        </extensions>
      </trkpt>
      <trkpt lat="46.75334989093244075775146484375" lon="6.8384814821183681488037109375">
        <ele>456</ele>
        <time>2013-09-01T15:06:50.000Z</time>
        <extensions>
          <ns3:TrackPointExtension>
            <ns3:atemp>19.0</ns3:atemp>
          </ns3:TrackPointExtension>
        </extensions>
      </trkpt>
      <trkpt lat="46.75327889621257781982421875" lon="6.8384452722966670989990234375">
        <ele>456.20001220703125</ele>
        <time>2013-09-01T15:06:51.000Z</time>
        <extensions>
          <ns3:TrackPointExtension>
            <ns3:atemp>19.0</ns3:atemp>
          </ns3:TrackPointExtension>
        </extensions>
      </trkpt>
      <trkpt lat="46.75320941023528575897216796875" lon="6.83840386569499969482421875">
        <ele>456.600006103515625</ele>
        <time>2013-09-01T15:06:52.000Z</time>
        <extensions>
          <ns3:TrackPointExtension>
            <ns3:atemp>19.0</ns3:atemp>
          </ns3:TrackPointExtension>
        </extensions>
      </trkpt>
      <trkpt lat="46.75314101390540599822998046875" lon="6.83836363255977630615234375">
        <ele>456.600006103515625</ele>
        <time>2013-09-01T15:06:53.000Z</time>
        <extensions>
          <ns3:TrackPointExtension>
            <ns3:atemp>19.0</ns3:atemp>
          </ns3:TrackPointExtension>
        </extensions>
      </trkpt>
      <trkpt lat="46.75307395868003368377685546875" lon="6.8383252434432506561279296875">
        <ele>456.399993896484375</ele>
        <time>2013-09-01T15:06:54.000Z</time>
        <extensions>
          <ns3:TrackPointExtension>
            <ns3:atemp>19.0</ns3:atemp>
          </ns3:TrackPointExtension>
        </extensions>
      </trkpt>
      <trkpt lat="46.75300606526434421539306640625" lon="6.838284842669963836669921875">
        <ele>455.79998779296875</ele>
        <time>2013-09-01T15:06:55.000Z</time>
        <extensions>
          <ns3:TrackPointExtension>
            <ns3:atemp>19.0</ns3:atemp>
          </ns3:TrackPointExtension>
        </extensions>
      </trkpt>
      <trkpt lat="46.75293766893446445465087890625" lon="6.83824268169701099395751953125">
        <ele>455.20001220703125</ele>
        <time>2013-09-01T15:06:56.000Z</time>
        <extensions>
          <ns3:TrackPointExtension>
            <ns3:atemp>19.0</ns3:atemp>
          </ns3:TrackPointExtension>
        </extensions>
      </trkpt>
      <trkpt lat="46.75286927260458469390869140625" lon="6.83819808997213840484619140625">
        <ele>454.600006103515625</ele>
        <time>2013-09-01T15:06:57.000Z</time>
        <extensions>
          <ns3:TrackPointExtension>
            <ns3:atemp>19.0</ns3:atemp>
          </ns3:TrackPointExtension>
        </extensions>
      </trkpt>
      <trkpt lat="46.75279869697988033294677734375" lon="6.8381483852863311767578125">
        <ele>454.20001220703125</ele>
        <time>2013-09-01T15:06:58.000Z</time>
        <extensions>
          <ns3:TrackPointExtension>
            <ns3:atemp>19.0</ns3:atemp>
          </ns3:TrackPointExtension>
        </extensions>
      </trkpt>
      <trkpt lat="46.7527265287935733795166015625" lon="6.8381036259233951568603515625">
        <ele>453.79998779296875</ele>
        <time>2013-09-01T15:06:59.000Z</time>
        <extensions>
          <ns3:TrackPointExtension>
            <ns3:atemp>19.0</ns3:atemp>
          </ns3:TrackPointExtension>
        </extensions>
      </trkpt>
      <trkpt lat="46.75265100784599781036376953125" lon="6.8380620516836643218994140625">
        <ele>453.600006103515625</ele>
        <time>2013-09-01T15:07:00.000Z</time>
        <extensions>
          <ns3:TrackPointExtension>
            <ns3:atemp>19.0</ns3:atemp>
          </ns3:TrackPointExtension>
        </extensions>
      </trkpt>
      <trkpt lat="46.75257506780326366424560546875" lon="6.8380271829664707183837890625">
        <ele>453.79998779296875</ele>
        <time>2013-09-01T15:07:01.000Z</time>
        <extensions>
          <ns3:TrackPointExtension>
            <ns3:atemp>19.0</ns3:atemp>
          </ns3:TrackPointExtension>
        </extensions>
      </trkpt>
      <trkpt lat="46.752496026456356048583984375" lon="6.83799725957214832305908203125">
        <ele>453.79998779296875</ele>
        <time>2013-09-01T15:07:02.000Z</time>
        <extensions>
          <ns3:TrackPointExtension>
            <ns3:atemp>19.0</ns3:atemp>
          </ns3:TrackPointExtension>
        </extensions>
      </trkpt>
      <trkpt lat="46.75241664983332157135009765625" lon="6.8379721976816654205322265625">
        <ele>453.79998779296875</ele>
        <time>2013-09-01T15:07:03.000Z</time>
        <extensions>
          <ns3:TrackPointExtension>
            <ns3:atemp>19.0</ns3:atemp>
          </ns3:TrackPointExtension>
        </extensions>
      </trkpt>
      <trkpt lat="46.7523369379341602325439453125" lon="6.83794730342924594879150390625">
        <ele>453.600006103515625</ele>
        <time>2013-09-01T15:07:04.000Z</time>
        <extensions>
          <ns3:TrackPointExtension>
            <ns3:atemp>19.0</ns3:atemp>
          </ns3:TrackPointExtension>
        </extensions>
      </trkpt>
      <trkpt lat="46.752258650958538055419921875" lon="6.8379222415387630462646484375">
        <ele>453.600006103515625</ele>
        <time>2013-09-01T15:07:05.000Z</time>
        <extensions>
          <ns3:TrackPointExtension>
            <ns3:atemp>19.0</ns3:atemp>
          </ns3:TrackPointExtension>
        </extensions>
      </trkpt>
      <trkpt lat="46.7521810345351696014404296875" lon="6.83789617381989955902099609375">
        <ele>453.399993896484375</ele>
        <time>2013-09-01T15:07:06.000Z</time>
        <extensions>
          <ns3:TrackPointExtension>
            <ns3:atemp>19.0</ns3:atemp>
          </ns3:TrackPointExtension>
        </extensions>
      </trkpt>
      <trkpt lat="46.7521052621304988861083984375" lon="6.837865076959133148193359375">
        <ele>453.20001220703125</ele>
        <time>2013-09-01T15:07:07.000Z</time>
        <extensions>
          <ns3:TrackPointExtension>
            <ns3:atemp>19.0</ns3:atemp>
          </ns3:TrackPointExtension>
        </extensions>
      </trkpt>
      <trkpt lat="46.752034015953540802001953125" lon="6.83782710693776607513427734375">
        <ele>453.20001220703125</ele>
        <time>2013-09-01T15:07:08.000Z</time>
        <extensions>
          <ns3:TrackPointExtension>
            <ns3:atemp>19.0</ns3:atemp>
          </ns3:TrackPointExtension>
        </extensions>
      </trkpt>
      <trkpt lat="46.75196369178593158721923828125" lon="6.83778570033609867095947265625">
        <ele>453.20001220703125</ele>
        <time>2013-09-01T15:07:09.000Z</time>
        <extensions>
          <ns3:TrackPointExtension>
            <ns3:atemp>19.0</ns3:atemp>
          </ns3:TrackPointExtension>
        </extensions>
      </trkpt>
      <trkpt lat="46.75189328379929065704345703125" lon="6.83774529956281185150146484375">
        <ele>453</ele>
        <time>2013-09-01T15:07:10.000Z</time>
        <extensions>
          <ns3:TrackPointExtension>
            <ns3:atemp>19.0</ns3:atemp>
          </ns3:TrackPointExtension>
        </extensions>
      </trkpt>
      <trkpt lat="46.751822121441364288330078125" lon="6.83770649135112762451171875">
        <ele>452.600006103515625</ele>
        <time>2013-09-01T15:07:11.000Z</time>
        <extensions>
          <ns3:TrackPointExtension>
            <ns3:atemp>19.0</ns3:atemp>
          </ns3:TrackPointExtension>
        </extensions>
      </trkpt>
      <trkpt lat="46.75175447948276996612548828125" lon="6.83765728957951068878173828125">
        <ele>452.600006103515625</ele>
        <time>2013-09-01T15:07:12.000Z</time>
        <extensions>
          <ns3:TrackPointExtension>
            <ns3:atemp>19.0</ns3:atemp>
          </ns3:TrackPointExtension>
        </extensions>
      </trkpt>
      <trkpt lat="46.75169329158961772918701171875" lon="6.8375926651060581207275390625">
        <ele>452.20001220703125</ele>
        <time>2013-09-01T15:07:13.000Z</time>
        <extensions>
          <ns3:TrackPointExtension>
            <ns3:atemp>19.0</ns3:atemp>
          </ns3:TrackPointExtension>
        </extensions>
      </trkpt>
      <trkpt lat="46.7516348697245121002197265625" lon="6.83751077391207218170166015625">
        <ele>451.79998779296875</ele>
        <time>2013-09-01T15:07:14.000Z</time>
        <extensions>
          <ns3:TrackPointExtension>
            <ns3:atemp>19.0</ns3:atemp>
          </ns3:TrackPointExtension>
        </extensions>
      </trkpt>
      <trkpt lat="46.7515825666487216949462890625" lon="6.8374072574079036712646484375">
        <ele>451.20001220703125</ele>
        <time>2013-09-01T15:07:15.000Z</time>
        <extensions>
          <ns3:TrackPointExtension>
            <ns3:atemp>19.0</ns3:atemp>
          </ns3:TrackPointExtension>
        </extensions>
      </trkpt>
      <trkpt lat="46.75154090858995914459228515625" lon="6.8372895754873752593994140625">
        <ele>450.79998779296875</ele>
        <time>2013-09-01T15:07:16.000Z</time>
        <extensions>
          <ns3:TrackPointExtension>
            <ns3:atemp>19.0</ns3:atemp>
          </ns3:TrackPointExtension>
        </extensions>
      </trkpt>
      <trkpt lat="46.75150419585406780242919921875" lon="6.83717130683362483978271484375">
        <ele>450.20001220703125</ele>
        <time>2013-09-01T15:07:17.000Z</time>
        <extensions>
          <ns3:TrackPointExtension>
            <ns3:atemp>19.0</ns3:atemp>
          </ns3:TrackPointExtension>
        </extensions>
      </trkpt>
      <trkpt lat="46.75146765075623989105224609375" lon="6.83705848641693592071533203125">
        <ele>449.600006103515625</ele>
        <time>2013-09-01T15:07:18.000Z</time>
        <extensions>
          <ns3:TrackPointExtension>
            <ns3:atemp>19.0</ns3:atemp>
          </ns3:TrackPointExtension>
        </extensions>
      </trkpt>
      <trkpt lat="46.75142708234488964080810546875" lon="6.8369653634727001190185546875">
        <ele>448.600006103515625</ele>
        <time>2013-09-01T15:07:19.000Z</time>
        <extensions>
          <ns3:TrackPointExtension>
            <ns3:atemp>19.0</ns3:atemp>
          </ns3:TrackPointExtension>
        </extensions>
      </trkpt>
      <trkpt lat="46.7513803951442241668701171875" lon="6.8369011580944061279296875">
        <ele>447.600006103515625</ele>
        <time>2013-09-01T15:07:20.000Z</time>
        <extensions>
          <ns3:TrackPointExtension>
            <ns3:atemp>19.0</ns3:atemp>
          </ns3:TrackPointExtension>
        </extensions>
      </trkpt>
      <trkpt lat="46.75133203156292438507080078125" lon="6.8368661217391490936279296875">
        <ele>446.79998779296875</ele>
        <time>2013-09-01T15:07:21.000Z</time>
        <extensions>
          <ns3:TrackPointExtension>
            <ns3:atemp>19.0</ns3:atemp>
          </ns3:TrackPointExtension>
        </extensions>
      </trkpt>
      <trkpt lat="46.75128593109548091888427734375" lon="6.836874000728130340576171875">
        <ele>446.20001220703125</ele>
        <time>2013-09-01T15:07:22.000Z</time>
        <extensions>
          <ns3:TrackPointExtension>
            <ns3:atemp>19.0</ns3:atemp>
          </ns3:TrackPointExtension>
        </extensions>
      </trkpt>
      <trkpt lat="46.751260869204998016357421875" lon="6.83693326078355312347412109375">
        <ele>445.79998779296875</ele>
        <time>2013-09-01T15:07:23.000Z</time>
        <extensions>
          <ns3:TrackPointExtension>
            <ns3:atemp>19.0</ns3:atemp>
          </ns3:TrackPointExtension>
        </extensions>
      </trkpt>
      <trkpt lat="46.751241423189640045166015625" lon="6.8369911797344684600830078125">
        <ele>445.600006103515625</ele>
        <time>2013-09-01T15:07:24.000Z</time>
        <extensions>
          <ns3:TrackPointExtension>
            <ns3:atemp>19.0</ns3:atemp>
          </ns3:TrackPointExtension>
        </extensions>
      </trkpt>
      <trkpt lat="46.751232706010341644287109375" lon="6.83705278672277927398681640625">
        <ele>445.399993896484375</ele>
        <time>2013-09-01T15:07:25.000Z</time>
        <extensions>
          <ns3:TrackPointExtension>
            <ns3:atemp>19.0</ns3:atemp>
          </ns3:TrackPointExtension>
        </extensions>
      </trkpt>
      <trkpt lat="46.75123010762035846710205078125" lon="6.83713518083095550537109375">
        <ele>445</ele>
        <time>2013-09-01T15:07:26.000Z</time>
        <extensions>
          <ns3:TrackPointExtension>
            <ns3:atemp>19.0</ns3:atemp>
          </ns3:TrackPointExtension>
        </extensions>
      </trkpt>
      <trkpt lat="46.7512311972677707672119140625" lon="6.8372372724115848541259765625">
        <ele>444.600006103515625</ele>
        <time>2013-09-01T15:07:27.000Z</time>
        <extensions>
          <ns3:TrackPointExtension>
            <ns3:atemp>19.0</ns3:atemp>
          </ns3:TrackPointExtension>
        </extensions>
      </trkpt>
      <trkpt lat="46.7512343823909759521484375" lon="6.8373459018766880035400390625">
        <ele>444.399993896484375</ele>
        <time>2013-09-01T15:07:28.000Z</time>
        <extensions>
          <ns3:TrackPointExtension>
            <ns3:atemp>19.0</ns3:atemp>
          </ns3:TrackPointExtension>
        </extensions>
      </trkpt>
      <trkpt lat="46.75123949535191059112548828125" lon="6.83745897375047206878662109375">
        <ele>444.20001220703125</ele>
        <time>2013-09-01T15:07:29.000Z</time>
        <extensions>
          <ns3:TrackPointExtension>
            <ns3:atemp>19.0</ns3:atemp>
          </ns3:TrackPointExtension>
        </extensions>
      </trkpt>
      <trkpt lat="46.751244105398654937744140625" lon="6.83757414110004901885986328125">
        <ele>443.79998779296875</ele>
        <time>2013-09-01T15:07:30.000Z</time>
        <extensions>
          <ns3:TrackPointExtension>
            <ns3:atemp>19.0</ns3:atemp>
          </ns3:TrackPointExtension>
        </extensions>
      </trkpt>
      <trkpt lat="46.7512477934360504150390625" lon="6.83768629096448421478271484375">
        <ele>443.600006103515625</ele>
        <time>2013-09-01T15:07:31.000Z</time>
        <extensions>
          <ns3:TrackPointExtension>
            <ns3:atemp>19.0</ns3:atemp>
          </ns3:TrackPointExtension>
        </extensions>
      </trkpt>
      <trkpt lat="46.75125407986342906951904296875" lon="6.837798021733760833740234375">
        <ele>443.79998779296875</ele>
        <time>2013-09-01T15:07:32.000Z</time>
        <extensions>
          <ns3:TrackPointExtension>
            <ns3:atemp>19.0</ns3:atemp>
          </ns3:TrackPointExtension>
        </extensions>
      </trkpt>
      <trkpt lat="46.75126313231885433197021484375" lon="6.83790891431272029876708984375">
        <ele>444</ele>
        <time>2013-09-01T15:07:33.000Z</time>
        <extensions>
          <ns3:TrackPointExtension>
            <ns3:atemp>19.0</ns3:atemp>
          </ns3:TrackPointExtension>
        </extensions>
      </trkpt>
      <trkpt lat="46.75127528607845306396484375" lon="6.8380181305110454559326171875">
        <ele>443.79998779296875</ele>
        <time>2013-09-01T15:07:34.000Z</time>
        <extensions>
          <ns3:TrackPointExtension>
            <ns3:atemp>19.0</ns3:atemp>
          </ns3:TrackPointExtension>
        </extensions>
      </trkpt>
      <trkpt lat="46.75128559581935405731201171875" lon="6.83812625706195831298828125">
        <ele>443.79998779296875</ele>
        <time>2013-09-01T15:07:35.000Z</time>
        <extensions>
          <ns3:TrackPointExtension>
            <ns3:atemp>19.0</ns3:atemp>
          </ns3:TrackPointExtension>
        </extensions>
      </trkpt>
      <trkpt lat="46.751297079026699066162109375" lon="6.83823212049901485443115234375">
        <ele>443.600006103515625</ele>
        <time>2013-09-01T15:07:36.000Z</time>
        <extensions>
          <ns3:TrackPointExtension>
            <ns3:atemp>19.0</ns3:atemp>
          </ns3:TrackPointExtension>
        </extensions>
      </trkpt>
      <trkpt lat="46.75131208263337612152099609375" lon="6.83833655901253223419189453125">
        <ele>443.399993896484375</ele>
        <time>2013-09-01T15:07:37.000Z</time>
        <extensions>
          <ns3:TrackPointExtension>
            <ns3:atemp>19.0</ns3:atemp>
          </ns3:TrackPointExtension>
        </extensions>
      </trkpt>
      <trkpt lat="46.7513327859342098236083984375" lon="6.8384375609457492828369140625">
        <ele>443</ele>
        <time>2013-09-01T15:07:38.000Z</time>
        <extensions>
          <ns3:TrackPointExtension>
            <ns3:atemp>19.0</ns3:atemp>
          </ns3:TrackPointExtension>
        </extensions>
      </trkpt>
      <trkpt lat="46.75135667435824871063232421875" lon="6.83854040689766407012939453125">
        <ele>442.600006103515625</ele>
        <time>2013-09-01T15:07:39.000Z</time>
        <extensions>
          <ns3:TrackPointExtension>
            <ns3:atemp>19.0</ns3:atemp>
          </ns3:TrackPointExtension>
        </extensions>
      </trkpt>
      <trkpt lat="46.7513790540397167205810546875" lon="6.838643252849578857421875">
        <ele>442.20001220703125</ele>
        <time>2013-09-01T15:07:40.000Z</time>
        <extensions>
          <ns3:TrackPointExtension>
            <ns3:atemp>19.0</ns3:atemp>
          </ns3:TrackPointExtension>
        </extensions>
      </trkpt>
      <trkpt lat="46.75140378065407276153564453125" lon="6.83874576352536678314208984375">
        <ele>441.79998779296875</ele>
        <time>2013-09-01T15:07:41.000Z</time>
        <extensions>
          <ns3:TrackPointExtension>
            <ns3:atemp>19.0</ns3:atemp>
          </ns3:TrackPointExtension>
        </extensions>
      </trkpt>
      <trkpt lat="46.75142792053520679473876953125" lon="6.83884701691567897796630859375">
        <ele>441.600006103515625</ele>
        <time>2013-09-01T15:07:42.000Z</time>
        <extensions>
          <ns3:TrackPointExtension>
            <ns3:atemp>19.0</ns3:atemp>
          </ns3:TrackPointExtension>
        </extensions>
      </trkpt>
      <trkpt lat="46.751450635492801666259765625" lon="6.83894894085824489593505859375">
        <ele>441.399993896484375</ele>
        <time>2013-09-01T15:07:43.000Z</time>
        <extensions>
          <ns3:TrackPointExtension>
            <ns3:atemp>19.0</ns3:atemp>
          </ns3:TrackPointExtension>
        </extensions>
      </trkpt>
      <trkpt lat="46.75147200934588909149169921875" lon="6.8390494398772716522216796875">
        <ele>441</ele>
        <time>2013-09-01T15:07:44.000Z</time>
        <extensions>
          <ns3:TrackPointExtension>
            <ns3:atemp>19.0</ns3:atemp>
          </ns3:TrackPointExtension>
        </extensions>
      </trkpt>
      <trkpt lat="46.75149464048445224761962890625" lon="6.839151196181774139404296875">
        <ele>441</ele>
        <time>2013-09-01T15:07:45.000Z</time>
        <extensions>
          <ns3:TrackPointExtension>
            <ns3:atemp>19.0</ns3:atemp>
          </ns3:TrackPointExtension>
        </extensions>
      </trkpt>
      <trkpt lat="46.75151710398495197296142578125" lon="6.8392516113817691802978515625">
        <ele>441.20001220703125</ele>
        <time>2013-09-01T15:07:46.000Z</time>
        <extensions>
          <ns3:TrackPointExtension>
            <ns3:atemp>19.0</ns3:atemp>
          </ns3:TrackPointExtension>
        </extensions>
      </trkpt>
      <trkpt lat="46.75153973512351512908935546875" lon="6.8393515236675739288330078125">
        <ele>441.600006103515625</ele>
        <time>2013-09-01T15:07:47.000Z</time>
        <extensions>
          <ns3:TrackPointExtension>
            <ns3:atemp>19.0</ns3:atemp>
          </ns3:TrackPointExtension>
        </extensions>
      </trkpt>
      <trkpt lat="46.75156085751950740814208984375" lon="6.8394519388675689697265625">
        <ele>441.600006103515625</ele>
        <time>2013-09-01T15:07:48.000Z</time>
        <extensions>
          <ns3:TrackPointExtension>
            <ns3:atemp>19.0</ns3:atemp>
          </ns3:TrackPointExtension>
        </extensions>
      </trkpt>
      <trkpt lat="46.75158164463937282562255859375" lon="6.839551515877246856689453125">
        <ele>441.600006103515625</ele>
        <time>2013-09-01T15:07:49.000Z</time>
        <extensions>
          <ns3:TrackPointExtension>
            <ns3:atemp>19.0</ns3:atemp>
          </ns3:TrackPointExtension>
        </extensions>
      </trkpt>
      <trkpt lat="46.7516013421118259429931640625" lon="6.8396522663533687591552734375">
        <ele>441.600006103515625</ele>
        <time>2013-09-01T15:07:50.000Z</time>
        <extensions>
          <ns3:TrackPointExtension>
            <ns3:atemp>19.0</ns3:atemp>
          </ns3:TrackPointExtension>
        </extensions>
      </trkpt>
      <trkpt lat="46.75162070430815219879150390625" lon="6.83974974788725376129150390625">
        <ele>441.399993896484375</ele>
        <time>2013-09-01T15:07:51.000Z</time>
        <extensions>
          <ns3:TrackPointExtension>
            <ns3:atemp>19.0</ns3:atemp>
          </ns3:TrackPointExtension>
        </extensions>
      </trkpt>
      <trkpt lat="46.75164316780865192413330078125" lon="6.83984781615436077117919921875">
        <ele>441</ele>
        <time>2013-09-01T15:07:52.000Z</time>
        <extensions>
          <ns3:TrackPointExtension>
            <ns3:atemp>19.0</ns3:atemp>
          </ns3:TrackPointExtension>
        </extensions>
      </trkpt>
      <trkpt lat="46.75166546367108821868896484375" lon="6.8399439565837383270263671875">
        <ele>440.399993896484375</ele>
        <time>2013-09-01T15:07:53.000Z</time>
        <extensions>
          <ns3:TrackPointExtension>
            <ns3:atemp>19.0</ns3:atemp>
          </ns3:TrackPointExtension>
        </extensions>
      </trkpt>
      <trkpt lat="46.75168708898127079010009765625" lon="6.840039677917957305908203125">
        <ele>440.20001220703125</ele>
        <time>2013-09-01T15:07:54.000Z</time>
        <extensions>
          <ns3:TrackPointExtension>
            <ns3:atemp>19.0</ns3:atemp>
          </ns3:TrackPointExtension>
        </extensions>
      </trkpt>
      <trkpt lat="46.75171139650046825408935546875" lon="6.84013615362346172332763671875">
        <ele>440.20001220703125</ele>
        <time>2013-09-01T15:07:55.000Z</time>
        <extensions>
          <ns3:TrackPointExtension>
            <ns3:atemp>19.0</ns3:atemp>
          </ns3:TrackPointExtension>
        </extensions>
      </trkpt>
      <trkpt lat="46.75173637457191944122314453125" lon="6.840230785310268402099609375">
        <ele>440.20001220703125</ele>
        <time>2013-09-01T15:07:56.000Z</time>
        <extensions>
          <ns3:TrackPointExtension>
            <ns3:atemp>19.0</ns3:atemp>
          </ns3:TrackPointExtension>
        </extensions>
      </trkpt>
      <trkpt lat="46.75176487304270267486572265625" lon="6.84032960794866085052490234375">
        <ele>440.20001220703125</ele>
        <time>2013-09-01T15:07:57.000Z</time>
        <extensions>
          <ns3:TrackPointExtension>
            <ns3:atemp>19.0</ns3:atemp>
          </ns3:TrackPointExtension>
        </extensions>
      </trkpt>
      <trkpt lat="46.751794628798961639404296875" lon="6.8404254131019115447998046875">
        <ele>440.399993896484375</ele>
        <time>2013-09-01T15:07:58.000Z</time>
        <extensions>
          <ns3:TrackPointExtension>
            <ns3:atemp>19.0</ns3:atemp>
          </ns3:TrackPointExtension>
        </extensions>
      </trkpt>
      <trkpt lat="46.7518273182213306427001953125" lon="6.84052071534097194671630859375">
        <ele>440.20001220703125</ele>
        <time>2013-09-01T15:07:59.000Z</time>
        <extensions>
          <ns3:TrackPointExtension>
            <ns3:atemp>19.0</ns3:atemp>
          </ns3:TrackPointExtension>
        </extensions>
      </trkpt>
      <trkpt lat="46.7518625222146511077880859375" lon="6.840609647333621978759765625">
        <ele>440.399993896484375</ele>
        <time>2013-09-01T15:08:00.000Z</time>
        <extensions>
          <ns3:TrackPointExtension>
            <ns3:atemp>19.0</ns3:atemp>
          </ns3:TrackPointExtension>
        </extensions>
      </trkpt>
      <trkpt lat="46.75189755856990814208984375" lon="6.84069941751658916473388671875">
        <ele>440.399993896484375</ele>
        <time>2013-09-01T15:08:01.000Z</time>
        <extensions>
          <ns3:TrackPointExtension>
            <ns3:atemp>19.0</ns3:atemp>
          </ns3:TrackPointExtension>
        </extensions>
      </trkpt>
      <trkpt lat="46.751927398145198822021484375" lon="6.8407915346324443817138671875">
        <ele>440.20001220703125</ele>
        <time>2013-09-01T15:08:02.000Z</time>
        <extensions>
          <ns3:TrackPointExtension>
            <ns3:atemp>19.0</ns3:atemp>
          </ns3:TrackPointExtension>
        </extensions>
      </trkpt>
      <trkpt lat="46.75194441340863704681396484375" lon="6.84088893234729766845703125">
        <ele>440.20001220703125</ele>
        <time>2013-09-01T15:08:03.000Z</time>
        <extensions>
          <ns3:TrackPointExtension>
            <ns3:atemp>19.0</ns3:atemp>
          </ns3:TrackPointExtension>
        </extensions>
      </trkpt>
      <trkpt lat="46.7519389651715755462646484375" lon="6.84098691679537296295166015625">
        <ele>440</ele>
        <time>2013-09-01T15:08:04.000Z</time>
        <extensions>
          <ns3:TrackPointExtension>
            <ns3:atemp>19.0</ns3:atemp>
          </ns3:TrackPointExtension>
        </extensions>
      </trkpt>
      <trkpt lat="46.7519118078052997589111328125" lon="6.841072998940944671630859375">
        <ele>439.79998779296875</ele>
        <time>2013-09-01T15:08:05.000Z</time>
        <extensions>
          <ns3:TrackPointExtension>
            <ns3:atemp>19.0</ns3:atemp>
          </ns3:TrackPointExtension>
        </extensions>
      </trkpt>
      <trkpt lat="46.75187299959361553192138671875" lon="6.8411432392895221710205078125">
        <ele>439.399993896484375</ele>
        <time>2013-09-01T15:08:06.000Z</time>
        <extensions>
          <ns3:TrackPointExtension>
            <ns3:atemp>19.0</ns3:atemp>
          </ns3:TrackPointExtension>
        </extensions>
      </trkpt>
      <trkpt lat="46.75183125771582126617431640625" lon="6.84120518155395984649658203125">
        <ele>439.20001220703125</ele>
        <time>2013-09-01T15:08:07.000Z</time>
        <extensions>
          <ns3:TrackPointExtension>
            <ns3:atemp>19.0</ns3:atemp>
          </ns3:TrackPointExtension>
        </extensions>
      </trkpt>
      <trkpt lat="46.75178934819996356964111328125" lon="6.84125631116330623626708984375">
        <ele>439.20001220703125</ele>
        <time>2013-09-01T15:08:08.000Z</time>
        <extensions>
          <ns3:TrackPointExtension>
            <ns3:atemp>19.0</ns3:atemp>
          </ns3:TrackPointExtension>
        </extensions>
      </trkpt>
      <trkpt lat="46.75174861215054988861083984375" lon="6.8412991426885128021240234375">
        <ele>439.600006103515625</ele>
        <time>2013-09-01T15:08:09.000Z</time>
        <extensions>
          <ns3:TrackPointExtension>
            <ns3:atemp>19.0</ns3:atemp>
          </ns3:TrackPointExtension>
        </extensions>
      </trkpt>
      <trkpt lat="46.751713491976261138916015625" lon="6.84134113602340221405029296875">
        <ele>440</ele>
        <time>2013-09-01T15:08:10.000Z</time>
        <extensions>
          <ns3:TrackPointExtension>
            <ns3:atemp>19.0</ns3:atemp>
          </ns3:TrackPointExtension>
        </extensions>
      </trkpt>
      <trkpt lat="46.75168071873486042022705078125" lon="6.84137935750186443328857421875">
        <ele>440.20001220703125</ele>
        <time>2013-09-01T15:08:11.000Z</time>
        <extensions>
          <ns3:TrackPointExtension>
            <ns3:atemp>19.0</ns3:atemp>
          </ns3:TrackPointExtension>
        </extensions>
      </trkpt>
      <trkpt lat="46.75165004096925258636474609375" lon="6.84141204692423343658447265625">
        <ele>440.20001220703125</ele>
        <time>2013-09-01T15:08:12.000Z</time>
        <extensions>
          <ns3:TrackPointExtension>
            <ns3:atemp>19.0</ns3:atemp>
          </ns3:TrackPointExtension>
        </extensions>
      </trkpt>
      <trkpt lat="46.7516214586794376373291015625" lon="6.84144121594727039337158203125">
        <ele>440</ele>
        <time>2013-09-01T15:08:13.000Z</time>
        <extensions>
          <ns3:TrackPointExtension>
            <ns3:atemp>19.0</ns3:atemp>
          </ns3:TrackPointExtension>
        </extensions>
      </trkpt>
      <trkpt lat="46.75159446895122528076171875" lon="6.841464936733245849609375">
        <ele>440</ele>
        <time>2013-09-01T15:08:14.000Z</time>
        <extensions>
          <ns3:TrackPointExtension>
            <ns3:atemp>19.0</ns3:atemp>
          </ns3:TrackPointExtension>
        </extensions>
      </trkpt>
      <trkpt lat="46.751570999622344970703125" lon="6.84148840606212615966796875">
        <ele>440.20001220703125</ele>
        <time>2013-09-01T15:08:15.000Z</time>
        <extensions>
          <ns3:TrackPointExtension>
            <ns3:atemp>19.0</ns3:atemp>
          </ns3:TrackPointExtension>
        </extensions>
      </trkpt>
      <trkpt lat="46.751551888883113861083984375" lon="6.841516233980655670166015625">
        <ele>440.399993896484375</ele>
        <time>2013-09-01T15:08:16.000Z</time>
        <extensions>
          <ns3:TrackPointExtension>
            <ns3:atemp>19.0</ns3:atemp>
          </ns3:TrackPointExtension>
        </extensions>
      </trkpt>
      <trkpt lat="46.75153235904872417449951171875" lon="6.8415479175746440887451171875">
        <ele>440.600006103515625</ele>
        <time>2013-09-01T15:08:17.000Z</time>
        <extensions>
          <ns3:TrackPointExtension>
            <ns3:atemp>19.0</ns3:atemp>
          </ns3:TrackPointExtension>
        </extensions>
      </trkpt>
      <trkpt lat="46.7515081353485584259033203125" lon="6.84157649986445903778076171875">
        <ele>440.79998779296875</ele>
        <time>2013-09-01T15:08:18.000Z</time>
        <extensions>
          <ns3:TrackPointExtension>
            <ns3:atemp>19.0</ns3:atemp>
          </ns3:TrackPointExtension>
        </extensions>
      </trkpt>
      <trkpt lat="46.75148315727710723876953125" lon="6.8416057527065277099609375">
        <ele>441.20001220703125</ele>
        <time>2013-09-01T15:08:19.000Z</time>
        <extensions>
          <ns3:TrackPointExtension>
            <ns3:atemp>19.0</ns3:atemp>
          </ns3:TrackPointExtension>
        </extensions>
      </trkpt>
      <trkpt lat="46.75145558081567287445068359375" lon="6.84163232333958148956298828125">
        <ele>441.600006103515625</ele>
        <time>2013-09-01T15:08:20.000Z</time>
        <extensions>
          <ns3:TrackPointExtension>
            <ns3:atemp>19.0</ns3:atemp>
          </ns3:TrackPointExtension>
        </extensions>
      </trkpt>
      <trkpt lat="46.75142808817327022552490234375" lon="6.84165579266846179962158203125">
        <ele>442</ele>
        <time>2013-09-01T15:08:21.000Z</time>
        <extensions>
          <ns3:TrackPointExtension>
            <ns3:atemp>19.0</ns3:atemp>
          </ns3:TrackPointExtension>
        </extensions>
      </trkpt>
      <trkpt lat="46.7514052055776119232177734375" lon="6.8416749872267246246337890625">
        <ele>442.399993896484375</ele>
        <time>2013-09-01T15:08:22.000Z</time>
        <extensions>
          <ns3:TrackPointExtension>
            <ns3:atemp>19.0</ns3:atemp>
          </ns3:TrackPointExtension>
        </extensions>
      </trkpt>
      <trkpt lat="46.75138617865741252899169921875" lon="6.84169770218431949615478515625">
        <ele>442.600006103515625</ele>
        <time>2013-09-01T15:08:23.000Z</time>
        <extensions>
          <ns3:TrackPointExtension>
            <ns3:atemp>19.0</ns3:atemp>
          </ns3:TrackPointExtension>
        </extensions>
      </trkpt>
      <trkpt lat="46.751367487013339996337890625" lon="6.84172268025577068328857421875">
        <ele>443</ele>
        <time>2013-09-01T15:08:24.000Z</time>
        <extensions>
          <ns3:TrackPointExtension>
            <ns3:atemp>19.0</ns3:atemp>
          </ns3:TrackPointExtension>
        </extensions>
      </trkpt>
      <trkpt lat="46.75134946592152118682861328125" lon="6.84174849651753902435302734375">
        <ele>443.20001220703125</ele>
        <time>2013-09-01T15:08:25.000Z</time>
        <extensions>
          <ns3:TrackPointExtension>
            <ns3:atemp>19.0</ns3:atemp>
          </ns3:TrackPointExtension>
        </extensions>
      </trkpt>
      <trkpt lat="46.7513317801058292388916015625" lon="6.8417712114751338958740234375">
        <ele>443.399993896484375</ele>
        <time>2013-09-01T15:08:26.000Z</time>
        <extensions>
          <ns3:TrackPointExtension>
            <ns3:atemp>19.0</ns3:atemp>
          </ns3:TrackPointExtension>
        </extensions>
      </trkpt>
      <trkpt lat="46.7513130046427249908447265625" lon="6.84179509989917278289794921875">
        <ele>443.600006103515625</ele>
        <time>2013-09-01T15:08:27.000Z</time>
        <extensions>
          <ns3:TrackPointExtension>
            <ns3:atemp>19.0</ns3:atemp>
          </ns3:TrackPointExtension>
        </extensions>
      </trkpt>
      <trkpt lat="46.751293726265430450439453125" lon="6.8418184854090213775634765625">
        <ele>443.79998779296875</ele>
        <time>2013-09-01T15:08:28.000Z</time>
        <extensions>
          <ns3:TrackPointExtension>
            <ns3:atemp>19.0</ns3:atemp>
          </ns3:TrackPointExtension>
        </extensions>
      </trkpt>
      <trkpt lat="46.75127419643104076385498046875" lon="6.8418429605662822723388671875">
        <ele>444.20001220703125</ele>
        <time>2013-09-01T15:08:29.000Z</time>
        <extensions>
          <ns3:TrackPointExtension>
            <ns3:atemp>19.0</ns3:atemp>
          </ns3:TrackPointExtension>
        </extensions>
      </trkpt>
      <trkpt lat="46.7512563429772853851318359375" lon="6.84187003411352634429931640625">
        <ele>444.399993896484375</ele>
        <time>2013-09-01T15:08:30.000Z</time>
        <extensions>
          <ns3:TrackPointExtension>
            <ns3:atemp>19.0</ns3:atemp>
          </ns3:TrackPointExtension>
        </extensions>
      </trkpt>
      <trkpt lat="46.75124117173254489898681640625" lon="6.84189752675592899322509765625">
        <ele>444.600006103515625</ele>
        <time>2013-09-01T15:08:31.000Z</time>
        <extensions>
          <ns3:TrackPointExtension>
            <ns3:atemp>19.0</ns3:atemp>
          </ns3:TrackPointExtension>
        </extensions>
      </trkpt>
      <trkpt lat="46.751228682696819305419921875" lon="6.841927953064441680908203125">
        <ele>445</ele>
        <time>2013-09-01T15:08:32.000Z</time>
        <extensions>
          <ns3:TrackPointExtension>
            <ns3:atemp>19.0</ns3:atemp>
          </ns3:TrackPointExtension>
        </extensions>
      </trkpt>
      <trkpt lat="46.75121761858463287353515625" lon="6.841962151229381561279296875">
        <ele>445.20001220703125</ele>
        <time>2013-09-01T15:08:33.000Z</time>
        <extensions>
          <ns3:TrackPointExtension>
            <ns3:atemp>19.0</ns3:atemp>
          </ns3:TrackPointExtension>
        </extensions>
      </trkpt>
      <trkpt lat="46.75120512954890727996826171875" lon="6.841992996633052825927734375">
        <ele>445.399993896484375</ele>
        <time>2013-09-01T15:08:34.000Z</time>
        <extensions>
          <ns3:TrackPointExtension>
            <ns3:atemp>19.0</ns3:atemp>
          </ns3:TrackPointExtension>
        </extensions>
      </trkpt>
      <trkpt lat="46.75119272433221340179443359375" lon="6.84202325530350208282470703125">
        <ele>445.79998779296875</ele>
        <time>2013-09-01T15:08:35.000Z</time>
        <extensions>
          <ns3:TrackPointExtension>
            <ns3:atemp>19.0</ns3:atemp>
          </ns3:TrackPointExtension>
        </extensions>
      </trkpt>
      <trkpt lat="46.751180402934551239013671875" lon="6.84205376543104648590087890625">
        <ele>446</ele>
        <time>2013-09-01T15:08:36.000Z</time>
        <extensions>
          <ns3:TrackPointExtension>
            <ns3:atemp>19.0</ns3:atemp>
          </ns3:TrackPointExtension>
        </extensions>
      </trkpt>
      <trkpt lat="46.75116539932787418365478515625" lon="6.84207824058830738067626953125">
        <ele>446.399993896484375</ele>
        <time>2013-09-01T15:08:37.000Z</time>
        <extensions>
          <ns3:TrackPointExtension>
            <ns3:atemp>19.0</ns3:atemp>
          </ns3:TrackPointExtension>
        </extensions>
      </trkpt>
      <trkpt lat="46.7511503957211971282958984375" lon="6.84210523031651973724365234375">
        <ele>446.600006103515625</ele>
        <time>2013-09-01T15:08:38.000Z</time>
        <extensions>
          <ns3:TrackPointExtension>
            <ns3:atemp>19.0</ns3:atemp>
          </ns3:TrackPointExtension>
        </extensions>
      </trkpt>
      <trkpt lat="46.75113824196159839630126953125" lon="6.8421343155205249786376953125">
        <ele>446.79998779296875</ele>
        <time>2013-09-01T15:08:39.000Z</time>
        <extensions>
          <ns3:TrackPointExtension>
            <ns3:atemp>19.0</ns3:atemp>
          </ns3:TrackPointExtension>
        </extensions>
      </trkpt>
      <trkpt lat="46.75112734548747539520263671875" lon="6.84216356836259365081787109375">
        <ele>447</ele>
        <time>2013-09-01T15:08:40.000Z</time>
        <extensions>
          <ns3:TrackPointExtension>
            <ns3:atemp>19.0</ns3:atemp>
          </ns3:TrackPointExtension>
        </extensions>
      </trkpt>
      <trkpt lat="46.7511175386607646942138671875" lon="6.84219592250883579254150390625">
        <ele>447.399993896484375</ele>
        <time>2013-09-01T15:08:41.000Z</time>
        <extensions>
          <ns3:TrackPointExtension>
            <ns3:atemp>19.0</ns3:atemp>
          </ns3:TrackPointExtension>
        </extensions>
      </trkpt>
      <trkpt lat="46.7511098273098468780517578125" lon="6.8422288633882999420166015625">
        <ele>447.79998779296875</ele>
        <time>2013-09-01T15:08:42.000Z</time>
        <extensions>
          <ns3:TrackPointExtension>
            <ns3:atemp>19.0</ns3:atemp>
          </ns3:TrackPointExtension>
        </extensions>
      </trkpt>
      <trkpt lat="46.7511024512350559234619140625" lon="6.8422587029635906219482421875">
        <ele>448.20001220703125</ele>
        <time>2013-09-01T15:08:43.000Z</time>
        <extensions>
          <ns3:TrackPointExtension>
            <ns3:atemp>19.0</ns3:atemp>
          </ns3:TrackPointExtension>
        </extensions>
      </trkpt>
      <trkpt lat="46.75109867937862873077392578125" lon="6.84229181148111820220947265625">
        <ele>448.600006103515625</ele>
        <time>2013-09-01T15:08:44.000Z</time>
        <extensions>
          <ns3:TrackPointExtension>
            <ns3:atemp>19.0</ns3:atemp>
          </ns3:TrackPointExtension>
        </extensions>
      </trkpt>
      <trkpt lat="46.75109633244574069976806640625" lon="6.8423272669315338134765625">
        <ele>448.79998779296875</ele>
        <time>2013-09-01T15:08:45.000Z</time>
        <extensions>
          <ns3:TrackPointExtension>
            <ns3:atemp>19.0</ns3:atemp>
          </ns3:TrackPointExtension>
        </extensions>
      </trkpt>
      <trkpt lat="46.75109180621802806854248046875" lon="6.8423626385629177093505859375">
        <ele>449.20001220703125</ele>
        <time>2013-09-01T15:08:46.000Z</time>
        <extensions>
          <ns3:TrackPointExtension>
            <ns3:atemp>19.0</ns3:atemp>
          </ns3:TrackPointExtension>
        </extensions>
      </trkpt>
      <trkpt lat="46.75108627416193485260009765625" lon="6.84239792637526988983154296875">
        <ele>449.600006103515625</ele>
        <time>2013-09-01T15:08:47.000Z</time>
        <extensions>
          <ns3:TrackPointExtension>
            <ns3:atemp>19.0</ns3:atemp>
          </ns3:TrackPointExtension>
        </extensions>
      </trkpt>
      <trkpt lat="46.75108124502003192901611328125" lon="6.8424340523779392242431640625">
        <ele>450.20001220703125</ele>
        <time>2013-09-01T15:08:48.000Z</time>
        <extensions>
          <ns3:TrackPointExtension>
            <ns3:atemp>19.0</ns3:atemp>
          </ns3:TrackPointExtension>
        </extensions>
      </trkpt>
      <trkpt lat="46.75107814371585845947265625" lon="6.84247168712317943572998046875">
        <ele>450.399993896484375</ele>
        <time>2013-09-01T15:08:49.000Z</time>
        <extensions>
          <ns3:TrackPointExtension>
            <ns3:atemp>19.0</ns3:atemp>
          </ns3:TrackPointExtension>
        </extensions>
      </trkpt>
      <trkpt lat="46.751073114573955535888671875" lon="6.84250722639262676239013671875">
        <ele>450.600006103515625</ele>
        <time>2013-09-01T15:08:50.000Z</time>
        <extensions>
          <ns3:TrackPointExtension>
            <ns3:atemp>19.0</ns3:atemp>
          </ns3:TrackPointExtension>
        </extensions>
      </trkpt>
      <trkpt lat="46.75106741487979888916015625" lon="6.84254377149045467376708984375">
        <ele>450.79998779296875</ele>
        <time>2013-09-01T15:08:51.000Z</time>
        <extensions>
          <ns3:TrackPointExtension>
            <ns3:atemp>19.0</ns3:atemp>
          </ns3:TrackPointExtension>
        </extensions>
      </trkpt>
      <trkpt lat="46.75106263719499111175537109375" lon="6.842580735683441162109375">
        <ele>451.399993896484375</ele>
        <time>2013-09-01T15:08:52.000Z</time>
        <extensions>
          <ns3:TrackPointExtension>
            <ns3:atemp>19.0</ns3:atemp>
          </ns3:TrackPointExtension>
        </extensions>
      </trkpt>
      <trkpt lat="46.75105894915759563446044921875" lon="6.842618286609649658203125">
        <ele>451.79998779296875</ele>
        <time>2013-09-01T15:08:53.000Z</time>
        <extensions>
          <ns3:TrackPointExtension>
            <ns3:atemp>19.0</ns3:atemp>
          </ns3:TrackPointExtension>
        </extensions>
      </trkpt>
      <trkpt lat="46.7510545067489147186279296875" lon="6.842656172811985015869140625">
        <ele>452.20001220703125</ele>
        <time>2013-09-01T15:08:54.000Z</time>
        <extensions>
          <ns3:TrackPointExtension>
            <ns3:atemp>19.0</ns3:atemp>
          </ns3:TrackPointExtension>
        </extensions>
      </trkpt>
      <trkpt lat="46.7510528303682804107666015625" lon="6.8426948972046375274658203125">
        <ele>452.399993896484375</ele>
        <time>2013-09-01T15:08:55.000Z</time>
        <extensions>
          <ns3:TrackPointExtension>
            <ns3:atemp>19.0</ns3:atemp>
          </ns3:TrackPointExtension>
        </extensions>
      </trkpt>
      <trkpt lat="46.75105324946343898773193359375" lon="6.8427341245114803314208984375">
        <ele>452.600006103515625</ele>
        <time>2013-09-01T15:08:56.000Z</time>
        <extensions>
          <ns3:TrackPointExtension>
            <ns3:atemp>19.0</ns3:atemp>
          </ns3:TrackPointExtension>
        </extensions>
      </trkpt>
      <trkpt lat="46.75105593167245388031005859375" lon="6.84277058579027652740478515625">
        <ele>452.79998779296875</ele>
        <time>2013-09-01T15:08:57.000Z</time>
        <extensions>
          <ns3:TrackPointExtension>
            <ns3:atemp>19.0</ns3:atemp>
          </ns3:TrackPointExtension>
        </extensions>
      </trkpt>
      <trkpt lat="46.75106163136661052703857421875" lon="6.84280763380229473114013671875">
        <ele>453</ele>
        <time>2013-09-01T15:08:58.000Z</time>
        <extensions>
          <ns3:TrackPointExtension>
            <ns3:atemp>19.0</ns3:atemp>
          </ns3:TrackPointExtension>
        </extensions>
      </trkpt>
      <trkpt lat="46.7510652355849742889404296875" lon="6.84284694492816925048828125">
        <ele>453.20001220703125</ele>
        <time>2013-09-01T15:08:59.000Z</time>
        <extensions>
          <ns3:TrackPointExtension>
            <ns3:atemp>19.0</ns3:atemp>
          </ns3:TrackPointExtension>
        </extensions>
      </trkpt>
      <trkpt lat="46.75106716342270374298095703125" lon="6.8428853340446949005126953125">
        <ele>453.399993896484375</ele>
        <time>2013-09-01T15:09:00.000Z</time>
        <extensions>
          <ns3:TrackPointExtension>
            <ns3:atemp>19.0</ns3:atemp>
          </ns3:TrackPointExtension>
        </extensions>
      </trkpt>
      <trkpt lat="46.75107034854590892791748046875" lon="6.84292246587574481964111328125">
        <ele>453.79998779296875</ele>
        <time>2013-09-01T15:09:01.000Z</time>
        <extensions>
          <ns3:TrackPointExtension>
            <ns3:atemp>19.0</ns3:atemp>
          </ns3:TrackPointExtension>
        </extensions>
      </trkpt>
      <trkpt lat="46.75107336603105068206787109375" lon="6.84296068735420703887939453125">
        <ele>453.79998779296875</ele>
        <time>2013-09-01T15:09:02.000Z</time>
        <extensions>
          <ns3:TrackPointExtension>
            <ns3:atemp>19.0</ns3:atemp>
          </ns3:TrackPointExtension>
        </extensions>
      </trkpt>
      <trkpt lat="46.75107722170650959014892578125" lon="6.84299706481397151947021484375">
        <ele>454</ele>
        <time>2013-09-01T15:09:03.000Z</time>
        <extensions>
          <ns3:TrackPointExtension>
            <ns3:atemp>19.0</ns3:atemp>
          </ns3:TrackPointExtension>
        </extensions>
      </trkpt>
      <trkpt lat="46.751082502305507659912109375" lon="6.84303461574018001556396484375">
        <ele>454.20001220703125</ele>
        <time>2013-09-01T15:09:04.000Z</time>
        <extensions>
          <ns3:TrackPointExtension>
            <ns3:atemp>19.0</ns3:atemp>
          </ns3:TrackPointExtension>
        </extensions>
      </trkpt>
      <trkpt lat="46.751087196171283721923828125" lon="6.843071915209293365478515625">
        <ele>454.399993896484375</ele>
        <time>2013-09-01T15:09:05.000Z</time>
        <extensions>
          <ns3:TrackPointExtension>
            <ns3:atemp>19.0</ns3:atemp>
          </ns3:TrackPointExtension>
        </extensions>
      </trkpt>
      <trkpt lat="46.75109029747545719146728515625" lon="6.84310820885002613067626953125">
        <ele>454.399993896484375</ele>
        <time>2013-09-01T15:09:06.000Z</time>
        <extensions>
          <ns3:TrackPointExtension>
            <ns3:atemp>19.0</ns3:atemp>
          </ns3:TrackPointExtension>
        </extensions>
      </trkpt>
      <trkpt lat="46.75109566189348697662353515625" lon="6.843144334852695465087890625">
        <ele>455</ele>
        <time>2013-09-01T15:09:07.000Z</time>
        <extensions>
          <ns3:TrackPointExtension>
            <ns3:atemp>19.0</ns3:atemp>
          </ns3:TrackPointExtension>
        </extensions>
      </trkpt>
      <trkpt lat="46.75110362470149993896484375" lon="6.843180544674396514892578125">
        <ele>455.399993896484375</ele>
        <time>2013-09-01T15:09:08.000Z</time>
        <extensions>
          <ns3:TrackPointExtension>
            <ns3:atemp>19.0</ns3:atemp>
          </ns3:TrackPointExtension>
        </extensions>
      </trkpt>
      <trkpt lat="46.7511118389666080474853515625" lon="6.843216419219970703125">
        <ele>455.79998779296875</ele>
        <time>2013-09-01T15:09:09.000Z</time>
        <extensions>
          <ns3:TrackPointExtension>
            <ns3:atemp>19.0</ns3:atemp>
          </ns3:TrackPointExtension>
        </extensions>
      </trkpt>
      <trkpt lat="46.7511202208697795867919921875" lon="6.84325355105102062225341796875">
        <ele>456</ele>
        <time>2013-09-01T15:09:10.000Z</time>
        <extensions>
          <ns3:TrackPointExtension>
            <ns3:atemp>19.0</ns3:atemp>
          </ns3:TrackPointExtension>
        </extensions>
      </trkpt>
      <trkpt lat="46.7511259205639362335205078125" lon="6.84329311363399028778076171875">
        <ele>456.20001220703125</ele>
        <time>2013-09-01T15:09:11.000Z</time>
        <extensions>
          <ns3:TrackPointExtension>
            <ns3:atemp>19.0</ns3:atemp>
          </ns3:TrackPointExtension>
        </extensions>
      </trkpt>
      <trkpt lat="46.75113053061068058013916015625" lon="6.84333242475986480712890625">
        <ele>456.399993896484375</ele>
        <time>2013-09-01T15:09:12.000Z</time>
        <extensions>
          <ns3:TrackPointExtension>
            <ns3:atemp>19.0</ns3:atemp>
          </ns3:TrackPointExtension>
        </extensions>
      </trkpt>
      <trkpt lat="46.75113455392420291900634765625" lon="6.8433698080480098724365234375">
        <ele>456.600006103515625</ele>
        <time>2013-09-01T15:09:13.000Z</time>
        <extensions>
          <ns3:TrackPointExtension>
            <ns3:atemp>19.0</ns3:atemp>
          </ns3:TrackPointExtension>
        </extensions>
      </trkpt>
      <trkpt lat="46.7511379905045032501220703125" lon="6.8434060178697109222412109375">
        <ele>456.79998779296875</ele>
        <time>2013-09-01T15:09:14.000Z</time>
        <extensions>
          <ns3:TrackPointExtension>
            <ns3:atemp>19.0</ns3:atemp>
          </ns3:TrackPointExtension>
        </extensions>
      </trkpt>
      <trkpt lat="46.75114327110350131988525390625" lon="6.84344164095818996429443359375">
        <ele>456.79998779296875</ele>
        <time>2013-09-01T15:09:15.000Z</time>
        <extensions>
          <ns3:TrackPointExtension>
            <ns3:atemp>19.0</ns3:atemp>
          </ns3:TrackPointExtension>
        </extensions>
      </trkpt>
      <trkpt lat="46.7511483840644359588623046875" lon="6.84347734786570072174072265625">
        <ele>457.20001220703125</ele>
        <time>2013-09-01T15:09:16.000Z</time>
        <extensions>
          <ns3:TrackPointExtension>
            <ns3:atemp>19.0</ns3:atemp>
          </ns3:TrackPointExtension>
        </extensions>
      </trkpt>
      <trkpt lat="46.75115500576794147491455078125" lon="6.8435133062303066253662109375">
        <ele>457.600006103515625</ele>
        <time>2013-09-01T15:09:17.000Z</time>
        <extensions>
          <ns3:TrackPointExtension>
            <ns3:atemp>19.0</ns3:atemp>
          </ns3:TrackPointExtension>
        </extensions>
      </trkpt>
      <trkpt lat="46.7511619627475738525390625" lon="6.8435495160520076751708984375">
        <ele>458</ele>
        <time>2013-09-01T15:09:18.000Z</time>
        <extensions>
          <ns3:TrackPointExtension>
            <ns3:atemp>19.0</ns3:atemp>
          </ns3:TrackPointExtension>
        </extensions>
      </trkpt>
      <trkpt lat="46.751166991889476776123046875" lon="6.84358631260693073272705078125">
        <ele>458.20001220703125</ele>
        <time>2013-09-01T15:09:19.000Z</time>
        <extensions>
          <ns3:TrackPointExtension>
            <ns3:atemp>19.0</ns3:atemp>
          </ns3:TrackPointExtension>
        </extensions>
      </trkpt>
      <trkpt lat="46.751171685755252838134765625" lon="6.8436219356954097747802734375">
        <ele>458.399993896484375</ele>
        <time>2013-09-01T15:09:20.000Z</time>
        <extensions>
          <ns3:TrackPointExtension>
            <ns3:atemp>19.0</ns3:atemp>
          </ns3:TrackPointExtension>
        </extensions>
      </trkpt>
      <trkpt lat="46.7511748708784580230712890625" lon="6.843662001192569732666015625">
        <ele>458.79998779296875</ele>
        <time>2013-09-01T15:09:21.000Z</time>
        <extensions>
          <ns3:TrackPointExtension>
            <ns3:atemp>19.0</ns3:atemp>
          </ns3:TrackPointExtension>
        </extensions>
      </trkpt>
      <trkpt lat="46.751175709068775177001953125" lon="6.8436978757381439208984375">
        <ele>459</ele>
        <time>2013-09-01T15:09:22.000Z</time>
        <extensions>
          <ns3:TrackPointExtension>
            <ns3:atemp>19.0</ns3:atemp>
          </ns3:TrackPointExtension>
        </extensions>
      </trkpt>
      <trkpt lat="46.75117562524974346160888671875" lon="6.84373207390308380126953125">
        <ele>459.20001220703125</ele>
        <time>2013-09-01T15:09:23.000Z</time>
        <extensions>
          <ns3:TrackPointExtension>
            <ns3:atemp>19.0</ns3:atemp>
          </ns3:TrackPointExtension>
        </extensions>
      </trkpt>
      <trkpt lat="46.75117780454456806182861328125" lon="6.84376585297286510467529296875">
        <ele>459.20001220703125</ele>
        <time>2013-09-01T15:09:24.000Z</time>
        <extensions>
          <ns3:TrackPointExtension>
            <ns3:atemp>19.0</ns3:atemp>
          </ns3:TrackPointExtension>
        </extensions>
      </trkpt>
      <trkpt lat="46.75118182785809040069580078125" lon="6.84380290098488330841064453125">
        <ele>459.600006103515625</ele>
        <time>2013-09-01T15:09:25.000Z</time>
        <extensions>
          <ns3:TrackPointExtension>
            <ns3:atemp>19.0</ns3:atemp>
          </ns3:TrackPointExtension>
        </extensions>
      </trkpt>
      <trkpt lat="46.7511845938861370086669921875" lon="6.8438398651778697967529296875">
        <ele>459.79998779296875</ele>
        <time>2013-09-01T15:09:26.000Z</time>
        <extensions>
          <ns3:TrackPointExtension>
            <ns3:atemp>19.0</ns3:atemp>
          </ns3:TrackPointExtension>
        </extensions>
      </trkpt>
      <trkpt lat="46.75118719227612018585205078125" lon="6.84387582354247570037841796875">
        <ele>460</ele>
        <time>2013-09-01T15:09:27.000Z</time>
        <extensions>
          <ns3:TrackPointExtension>
            <ns3:atemp>19.0</ns3:atemp>
          </ns3:TrackPointExtension>
        </extensions>
      </trkpt>
      <trkpt lat="46.7511916346848011016845703125" lon="6.84391303919255733489990234375">
        <ele>460.399993896484375</ele>
        <time>2013-09-01T15:09:28.000Z</time>
        <extensions>
          <ns3:TrackPointExtension>
            <ns3:atemp>19.0</ns3:atemp>
          </ns3:TrackPointExtension>
        </extensions>
      </trkpt>
      <trkpt lat="46.75119691528379917144775390625" lon="6.843948997557163238525390625">
        <ele>460.600006103515625</ele>
        <time>2013-09-01T15:09:29.000Z</time>
        <extensions>
          <ns3:TrackPointExtension>
            <ns3:atemp>19.0</ns3:atemp>
          </ns3:TrackPointExtension>
        </extensions>
      </trkpt>
      <trkpt lat="46.75120152533054351806640625" lon="6.843983866274356842041015625">
        <ele>461</ele>
        <time>2013-09-01T15:09:30.000Z</time>
        <extensions>
          <ns3:TrackPointExtension>
            <ns3:atemp>19.0</ns3:atemp>
          </ns3:TrackPointExtension>
        </extensions>
      </trkpt>
      <trkpt lat="46.7512037046253681182861328125" lon="6.84402200393378734588623046875">
        <ele>461.20001220703125</ele>
        <time>2013-09-01T15:09:31.000Z</time>
        <extensions>
          <ns3:TrackPointExtension>
            <ns3:atemp>19.0</ns3:atemp>
          </ns3:TrackPointExtension>
        </extensions>
      </trkpt>
      <trkpt lat="46.75120445899665355682373046875" lon="6.8440557830035686492919921875">
        <ele>461.399993896484375</ele>
        <time>2013-09-01T15:09:32.000Z</time>
        <extensions>
          <ns3:TrackPointExtension>
            <ns3:atemp>19.0</ns3:atemp>
          </ns3:TrackPointExtension>
        </extensions>
      </trkpt>
      <trkpt lat="46.75120529718697071075439453125" lon="6.84408922679722309112548828125">
        <ele>461.600006103515625</ele>
        <time>2013-09-01T15:09:33.000Z</time>
        <extensions>
          <ns3:TrackPointExtension>
            <ns3:atemp>19.0</ns3:atemp>
          </ns3:TrackPointExtension>
        </extensions>
      </trkpt>
      <trkpt lat="46.75120831467211246490478515625" lon="6.84412091039121150970458984375">
        <ele>461.79998779296875</ele>
        <time>2013-09-01T15:09:34.000Z</time>
        <extensions>
          <ns3:TrackPointExtension>
            <ns3:atemp>19.0</ns3:atemp>
          </ns3:TrackPointExtension>
        </extensions>
      </trkpt>
      <trkpt lat="46.751210577785968780517578125" lon="6.84415041469037532806396484375">
        <ele>462.20001220703125</ele>
        <time>2013-09-01T15:09:35.000Z</time>
        <extensions>
          <ns3:TrackPointExtension>
            <ns3:atemp>19.0</ns3:atemp>
          </ns3:TrackPointExtension>
        </extensions>
      </trkpt>
      <trkpt lat="46.75121166743338108062744140625" lon="6.84418159537017345428466796875">
        <ele>462.399993896484375</ele>
        <time>2013-09-01T15:09:36.000Z</time>
        <extensions>
          <ns3:TrackPointExtension>
            <ns3:atemp>19.0</ns3:atemp>
          </ns3:TrackPointExtension>
        </extensions>
      </trkpt>
      <trkpt lat="46.7512157745659351348876953125" lon="6.8442126922309398651123046875">
        <ele>462.79998779296875</ele>
        <time>2013-09-01T15:09:37.000Z</time>
        <extensions>
          <ns3:TrackPointExtension>
            <ns3:atemp>19.0</ns3:atemp>
          </ns3:TrackPointExtension>
        </extensions>
      </trkpt>
      <trkpt lat="46.75122004933655261993408203125" lon="6.8442438729107379913330078125">
        <ele>463</ele>
        <time>2013-09-01T15:09:38.000Z</time>
        <extensions>
          <ns3:TrackPointExtension>
            <ns3:atemp>19.0</ns3:atemp>
          </ns3:TrackPointExtension>
        </extensions>
      </trkpt>
      <trkpt lat="46.75122524611651897430419921875" lon="6.8442787416279315948486328125">
        <ele>463.399993896484375</ele>
        <time>2013-09-01T15:09:39.000Z</time>
        <extensions>
          <ns3:TrackPointExtension>
            <ns3:atemp>19.0</ns3:atemp>
          </ns3:TrackPointExtension>
        </extensions>
      </trkpt>
      <trkpt lat="46.751227341592311859130859375" lon="6.84431143105030059814453125">
        <ele>463.79998779296875</ele>
        <time>2013-09-01T15:09:40.000Z</time>
        <extensions>
          <ns3:TrackPointExtension>
            <ns3:atemp>19.0</ns3:atemp>
          </ns3:TrackPointExtension>
        </extensions>
      </trkpt>
      <trkpt lat="46.75123102962970733642578125" lon="6.844347305595874786376953125">
        <ele>464</ele>
        <time>2013-09-01T15:09:41.000Z</time>
        <extensions>
          <ns3:TrackPointExtension>
            <ns3:atemp>19.0</ns3:atemp>
          </ns3:TrackPointExtension>
        </extensions>
      </trkpt>
      <trkpt lat="46.75123698078095912933349609375" lon="6.84438007883727550506591796875">
        <ele>464.399993896484375</ele>
        <time>2013-09-01T15:09:42.000Z</time>
        <extensions>
          <ns3:TrackPointExtension>
            <ns3:atemp>19.0</ns3:atemp>
          </ns3:TrackPointExtension>
        </extensions>
      </trkpt>
      <trkpt lat="46.75124100409448146820068359375" lon="6.8444121815264225006103515625">
        <ele>464.79998779296875</ele>
        <time>2013-09-01T15:09:43.000Z</time>
        <extensions>
          <ns3:TrackPointExtension>
            <ns3:atemp>19.0</ns3:atemp>
          </ns3:TrackPointExtension>
        </extensions>
      </trkpt>
      <trkpt lat="46.7512506432831287384033203125" lon="6.8444483913481235504150390625">
        <ele>465</ele>
        <time>2013-09-01T15:09:44.000Z</time>
        <extensions>
          <ns3:TrackPointExtension>
            <ns3:atemp>19.0</ns3:atemp>
          </ns3:TrackPointExtension>
        </extensions>
      </trkpt>
      <trkpt lat="46.751260198652744293212890625" lon="6.8444812484085559844970703125">
        <ele>465.399993896484375</ele>
        <time>2013-09-01T15:09:45.000Z</time>
        <extensions>
          <ns3:TrackPointExtension>
            <ns3:atemp>19.0</ns3:atemp>
          </ns3:TrackPointExtension>
        </extensions>
      </trkpt>
      <trkpt lat="46.75127034075558185577392578125" lon="6.84451636858284473419189453125">
        <ele>465.600006103515625</ele>
        <time>2013-09-01T15:09:46.000Z</time>
        <extensions>
          <ns3:TrackPointExtension>
            <ns3:atemp>19.0</ns3:atemp>
          </ns3:TrackPointExtension>
        </extensions>
      </trkpt>
      <trkpt lat="46.75128056667745113372802734375" lon="6.8445506505668163299560546875">
        <ele>466</ele>
        <time>2013-09-01T15:09:48.000Z</time>
        <extensions>
          <ns3:TrackPointExtension>
            <ns3:atemp>19.0</ns3:atemp>
          </ns3:TrackPointExtension>
        </extensions>
      </trkpt>
      <trkpt lat="46.75129246897995471954345703125" lon="6.844580657780170440673828125">
        <ele>466.600006103515625</ele>
        <time>2013-09-01T15:09:49.000Z</time>
        <extensions>
          <ns3:TrackPointExtension>
            <ns3:atemp>19.0</ns3:atemp>
          </ns3:TrackPointExtension>
        </extensions>
      </trkpt>
      <trkpt lat="46.751305796205997467041015625" lon="6.8446099944412708282470703125">
        <ele>467</ele>
        <time>2013-09-01T15:09:50.000Z</time>
        <extensions>
          <ns3:TrackPointExtension>
            <ns3:atemp>19.0</ns3:atemp>
          </ns3:TrackPointExtension>
        </extensions>
      </trkpt>
      <trkpt lat="46.751315854489803314208984375" lon="6.84464176185429096221923828125">
        <ele>467.20001220703125</ele>
        <time>2013-09-01T15:09:51.000Z</time>
        <extensions>
          <ns3:TrackPointExtension>
            <ns3:atemp>19.0</ns3:atemp>
          </ns3:TrackPointExtension>
        </extensions>
      </trkpt>
      <trkpt lat="46.75132624804973602294921875" lon="6.84467017650604248046875">
        <ele>467.20001220703125</ele>
        <time>2013-09-01T15:09:52.000Z</time>
        <extensions>
          <ns3:TrackPointExtension>
            <ns3:atemp>19.0</ns3:atemp>
          </ns3:TrackPointExtension>
        </extensions>
      </trkpt>
      <trkpt lat="46.75133706070482730865478515625" lon="6.8446956574916839599609375">
        <ele>467.399993896484375</ele>
        <time>2013-09-01T15:09:53.000Z</time>
        <extensions>
          <ns3:TrackPointExtension>
            <ns3:atemp>19.0</ns3:atemp>
          </ns3:TrackPointExtension>
        </extensions>
      </trkpt>
      <trkpt lat="46.751348711550235748291015625" lon="6.844722814857959747314453125">
        <ele>467.600006103515625</ele>
        <time>2013-09-01T15:09:54.000Z</time>
        <extensions>
          <ns3:TrackPointExtension>
            <ns3:atemp>19.0</ns3:atemp>
          </ns3:TrackPointExtension>
        </extensions>
      </trkpt>
      <trkpt lat="46.7513592727482318878173828125" lon="6.84474821202456951141357421875">
        <ele>467.79998779296875</ele>
        <time>2013-09-01T15:09:55.000Z</time>
        <extensions>
          <ns3:TrackPointExtension>
            <ns3:atemp>19.0</ns3:atemp>
          </ns3:TrackPointExtension>
        </extensions>
      </trkpt>
      <trkpt lat="46.75137092359364032745361328125" lon="6.84477218426764011383056640625">
        <ele>468.399993896484375</ele>
        <time>2013-09-01T15:09:56.000Z</time>
        <extensions>
          <ns3:TrackPointExtension>
            <ns3:atemp>19.0</ns3:atemp>
          </ns3:TrackPointExtension>
        </extensions>
      </trkpt>
      <trkpt lat="46.75138768739998340606689453125" lon="6.844793893396854400634765625">
        <ele>468.600006103515625</ele>
        <time>2013-09-01T15:09:57.000Z</time>
        <extensions>
          <ns3:TrackPointExtension>
            <ns3:atemp>19.0</ns3:atemp>
          </ns3:TrackPointExtension>
        </extensions>
      </trkpt>
      <trkpt lat="46.75140277482569217681884765625" lon="6.84482029639184474945068359375">
        <ele>469</ele>
        <time>2013-09-01T15:09:58.000Z</time>
        <extensions>
          <ns3:TrackPointExtension>
            <ns3:atemp>19.0</ns3:atemp>
          </ns3:TrackPointExtension>
        </extensions>
      </trkpt>
      <trkpt lat="46.75141702406108379364013671875" lon="6.84484896250069141387939453125">
        <ele>469.20001220703125</ele>
        <time>2013-09-01T15:09:59.000Z</time>
        <extensions>
          <ns3:TrackPointExtension>
            <ns3:atemp>19.0</ns3:atemp>
          </ns3:TrackPointExtension>
        </extensions>
      </trkpt>
      <trkpt lat="46.75143160857260227203369140625" lon="6.844876706600189208984375">
        <ele>469.399993896484375</ele>
        <time>2013-09-01T15:10:00.000Z</time>
        <extensions>
          <ns3:TrackPointExtension>
            <ns3:atemp>19.0</ns3:atemp>
          </ns3:TrackPointExtension>
        </extensions>
      </trkpt>
      <trkpt lat="46.75144267268478870391845703125" lon="6.84490478597581386566162109375">
        <ele>469.600006103515625</ele>
        <time>2013-09-01T15:10:01.000Z</time>
        <extensions>
          <ns3:TrackPointExtension>
            <ns3:atemp>19.0</ns3:atemp>
          </ns3:TrackPointExtension>
        </extensions>
      </trkpt>
      <trkpt lat="46.7514541558921337127685546875" lon="6.84493563137948513031005859375">
        <ele>469.79998779296875</ele>
        <time>2013-09-01T15:10:02.000Z</time>
        <extensions>
          <ns3:TrackPointExtension>
            <ns3:atemp>19.0</ns3:atemp>
          </ns3:TrackPointExtension>
        </extensions>
      </trkpt>
      <trkpt lat="46.7514642141759395599365234375" lon="6.844962872564792633056640625">
        <ele>470.20001220703125</ele>
        <time>2013-09-01T15:10:03.000Z</time>
        <extensions>
          <ns3:TrackPointExtension>
            <ns3:atemp>19.0</ns3:atemp>
          </ns3:TrackPointExtension>
        </extensions>
      </trkpt>
      <trkpt lat="46.75147469155490398406982421875" lon="6.84499095194041728973388671875">
        <ele>470.399993896484375</ele>
        <time>2013-09-01T15:10:04.000Z</time>
        <extensions>
          <ns3:TrackPointExtension>
            <ns3:atemp>19.0</ns3:atemp>
          </ns3:TrackPointExtension>
        </extensions>
      </trkpt>
      <trkpt lat="46.75148315727710723876953125" lon="6.8450197018682956695556640625">
        <ele>470.600006103515625</ele>
        <time>2013-09-01T15:10:05.000Z</time>
        <extensions>
          <ns3:TrackPointExtension>
            <ns3:atemp>19.0</ns3:atemp>
          </ns3:TrackPointExtension>
        </extensions>
      </trkpt>
      <trkpt lat="46.751490533351898193359375" lon="6.845050044357776641845703125">
        <ele>470.79998779296875</ele>
        <time>2013-09-01T15:10:06.000Z</time>
        <extensions>
          <ns3:TrackPointExtension>
            <ns3:atemp>19.0</ns3:atemp>
          </ns3:TrackPointExtension>
        </extensions>
      </trkpt>
      <trkpt lat="46.751497574150562286376953125" lon="6.845077537000179290771484375">
        <ele>471.20001220703125</ele>
        <time>2013-09-01T15:10:07.000Z</time>
        <extensions>
          <ns3:TrackPointExtension>
            <ns3:atemp>19.0</ns3:atemp>
          </ns3:TrackPointExtension>
        </extensions>
      </trkpt>
      <trkpt lat="46.75150620751082897186279296875" lon="6.84510695748031139373779296875">
        <ele>471.399993896484375</ele>
        <time>2013-09-01T15:10:08.000Z</time>
        <extensions>
          <ns3:TrackPointExtension>
            <ns3:atemp>19.0</ns3:atemp>
          </ns3:TrackPointExtension>
        </extensions>
      </trkpt>
      <trkpt lat="46.75151442177593708038330078125" lon="6.84513696469366550445556640625">
        <ele>471.600006103515625</ele>
        <time>2013-09-01T15:10:09.000Z</time>
        <extensions>
          <ns3:TrackPointExtension>
            <ns3:atemp>19.0</ns3:atemp>
          </ns3:TrackPointExtension>
        </extensions>
      </trkpt>
      <trkpt lat="46.751524396240711212158203125" lon="6.8451648764312267303466796875">
        <ele>471.600006103515625</ele>
        <time>2013-09-01T15:10:10.000Z</time>
        <extensions>
          <ns3:TrackPointExtension>
            <ns3:atemp>19.0</ns3:atemp>
          </ns3:TrackPointExtension>
        </extensions>
      </trkpt>
      <trkpt lat="46.75153604708611965179443359375" lon="6.8451950512826442718505859375">
        <ele>471.79998779296875</ele>
        <time>2013-09-01T15:10:11.000Z</time>
        <extensions>
          <ns3:TrackPointExtension>
            <ns3:atemp>19.0</ns3:atemp>
          </ns3:TrackPointExtension>
        </extensions>
      </trkpt>
      <trkpt lat="46.751548536121845245361328125" lon="6.84522396884858608245849609375">
        <ele>472</ele>
        <time>2013-09-01T15:10:12.000Z</time>
        <extensions>
          <ns3:TrackPointExtension>
            <ns3:atemp>19.0</ns3:atemp>
          </ns3:TrackPointExtension>
        </extensions>
      </trkpt>
      <trkpt lat="46.7515637911856174468994140625" lon="6.84525313787162303924560546875">
        <ele>472.399993896484375</ele>
        <time>2013-09-01T15:10:13.000Z</time>
        <extensions>
          <ns3:TrackPointExtension>
            <ns3:atemp>19.0</ns3:atemp>
          </ns3:TrackPointExtension>
        </extensions>
      </trkpt>
      <trkpt lat="46.7515731789171695709228515625" lon="6.84528373181819915771484375">
        <ele>472.600006103515625</ele>
        <time>2013-09-01T15:10:14.000Z</time>
        <extensions>
          <ns3:TrackPointExtension>
            <ns3:atemp>19.0</ns3:atemp>
          </ns3:TrackPointExtension>
        </extensions>
      </trkpt>
      <trkpt lat="46.75158298574388027191162109375" lon="6.8453123979270458221435546875">
        <ele>472.600006103515625</ele>
        <time>2013-09-01T15:10:15.000Z</time>
        <extensions>
          <ns3:TrackPointExtension>
            <ns3:atemp>19.0</ns3:atemp>
          </ns3:TrackPointExtension>
        </extensions>
      </trkpt>
      <trkpt lat="46.7515919543802738189697265625" lon="6.8453405611217021942138671875">
        <ele>472.79998779296875</ele>
        <time>2013-09-01T15:10:16.000Z</time>
        <extensions>
          <ns3:TrackPointExtension>
            <ns3:atemp>19.0</ns3:atemp>
          </ns3:TrackPointExtension>
        </extensions>
      </trkpt>
      <trkpt lat="46.7516005039215087890625" lon="6.84536981396377086639404296875">
        <ele>473</ele>
        <time>2013-09-01T15:10:17.000Z</time>
        <extensions>
          <ns3:TrackPointExtension>
            <ns3:atemp>19.0</ns3:atemp>
          </ns3:TrackPointExtension>
        </extensions>
      </trkpt>
      <trkpt lat="46.7516098916530609130859375" lon="6.84539906680583953857421875">
        <ele>473.399993896484375</ele>
        <time>2013-09-01T15:10:18.000Z</time>
        <extensions>
          <ns3:TrackPointExtension>
            <ns3:atemp>19.0</ns3:atemp>
          </ns3:TrackPointExtension>
        </extensions>
      </trkpt>
      <trkpt lat="46.7516214586794376373291015625" lon="6.845429576933383941650390625">
        <ele>473.399993896484375</ele>
        <time>2013-09-01T15:10:19.000Z</time>
        <extensions>
          <ns3:TrackPointExtension>
            <ns3:atemp>19.0</ns3:atemp>
          </ns3:TrackPointExtension>
        </extensions>
      </trkpt>
      <trkpt lat="46.7516313493251800537109375" lon="6.84545941650867462158203125">
        <ele>473.600006103515625</ele>
        <time>2013-09-01T15:10:20.000Z</time>
        <extensions>
          <ns3:TrackPointExtension>
            <ns3:atemp>19.0</ns3:atemp>
          </ns3:TrackPointExtension>
        </extensions>
      </trkpt>
      <trkpt lat="46.751641742885112762451171875" lon="6.8454890884459018707275390625">
        <ele>474</ele>
        <time>2013-09-01T15:10:21.000Z</time>
        <extensions>
          <ns3:TrackPointExtension>
            <ns3:atemp>19.0</ns3:atemp>
          </ns3:TrackPointExtension>
        </extensions>
      </trkpt>
      <trkpt lat="46.75165322609245777130126953125" lon="6.84552035294473171234130859375">
        <ele>474.20001220703125</ele>
        <time>2013-09-01T15:10:22.000Z</time>
        <extensions>
          <ns3:TrackPointExtension>
            <ns3:atemp>19.0</ns3:atemp>
          </ns3:TrackPointExtension>
        </extensions>
      </trkpt>
      <trkpt lat="46.75166328437626361846923828125" lon="6.84555253945291042327880859375">
        <ele>474.399993896484375</ele>
        <time>2013-09-01T15:10:23.000Z</time>
        <extensions>
          <ns3:TrackPointExtension>
            <ns3:atemp>19.0</ns3:atemp>
          </ns3:TrackPointExtension>
        </extensions>
      </trkpt>
      <trkpt lat="46.75167535431683063507080078125" lon="6.84558154083788394927978515625">
        <ele>474.600006103515625</ele>
        <time>2013-09-01T15:10:24.000Z</time>
        <extensions>
          <ns3:TrackPointExtension>
            <ns3:atemp>19.0</ns3:atemp>
          </ns3:TrackPointExtension>
        </extensions>
      </trkpt>
      <trkpt lat="46.75168725661933422088623046875" lon="6.8456097878515720367431640625">
        <ele>474.79998779296875</ele>
        <time>2013-09-01T15:10:25.000Z</time>
        <extensions>
          <ns3:TrackPointExtension>
            <ns3:atemp>19.0</ns3:atemp>
          </ns3:TrackPointExtension>
        </extensions>
      </trkpt>
      <trkpt lat="46.75169639289379119873046875" lon="6.845638118684291839599609375">
        <ele>475.20001220703125</ele>
        <time>2013-09-01T15:10:26.000Z</time>
        <extensions>
          <ns3:TrackPointExtension>
            <ns3:atemp>19.0</ns3:atemp>
          </ns3:TrackPointExtension>
        </extensions>
      </trkpt>
      <trkpt lat="46.751699410378932952880859375" lon="6.84567089192569255828857421875">
        <ele>475.399993896484375</ele>
        <time>2013-09-01T15:10:27.000Z</time>
        <extensions>
          <ns3:TrackPointExtension>
            <ns3:atemp>19.0</ns3:atemp>
          </ns3:TrackPointExtension>
        </extensions>
      </trkpt>
      <trkpt lat="46.75170234404504299163818359375" lon="6.84570576064288616180419921875">
        <ele>475.79998779296875</ele>
        <time>2013-09-01T15:10:28.000Z</time>
        <extensions>
          <ns3:TrackPointExtension>
            <ns3:atemp>19.0</ns3:atemp>
          </ns3:TrackPointExtension>
        </extensions>
      </trkpt>
      <trkpt lat="46.751706786453723907470703125" lon="6.84573962353169918060302734375">
        <ele>476.20001220703125</ele>
        <time>2013-09-01T15:10:29.000Z</time>
        <extensions>
          <ns3:TrackPointExtension>
            <ns3:atemp>19.0</ns3:atemp>
          </ns3:TrackPointExtension>
        </extensions>
      </trkpt>
      <trkpt lat="46.751716174185276031494140625" lon="6.84577097184956073760986328125">
        <ele>476.399993896484375</ele>
        <time>2013-09-01T15:10:30.000Z</time>
        <extensions>
          <ns3:TrackPointExtension>
            <ns3:atemp>19.0</ns3:atemp>
          </ns3:TrackPointExtension>
        </extensions>
      </trkpt>
      <trkpt lat="46.7517284117639064788818359375" lon="6.84579997323453426361083984375">
        <ele>476.600006103515625</ele>
        <time>2013-09-01T15:10:31.000Z</time>
        <extensions>
          <ns3:TrackPointExtension>
            <ns3:atemp>19.0</ns3:atemp>
          </ns3:TrackPointExtension>
        </extensions>
      </trkpt>
      <trkpt lat="46.75173930823802947998046875" lon="6.845831237733364105224609375">
        <ele>476.600006103515625</ele>
        <time>2013-09-01T15:10:32.000Z</time>
        <extensions>
          <ns3:TrackPointExtension>
            <ns3:atemp>19.0</ns3:atemp>
          </ns3:TrackPointExtension>
        </extensions>
      </trkpt>
      <trkpt lat="46.7517495341598987579345703125" lon="6.8458592332899570465087890625">
        <ele>477</ele>
        <time>2013-09-01T15:10:33.000Z</time>
        <extensions>
          <ns3:TrackPointExtension>
            <ns3:atemp>19.0</ns3:atemp>
          </ns3:TrackPointExtension>
        </extensions>
      </trkpt>
      <trkpt lat="46.7517636157572269439697265625" lon="6.84588580392301082611083984375">
        <ele>477.20001220703125</ele>
        <time>2013-09-01T15:10:34.000Z</time>
        <extensions>
          <ns3:TrackPointExtension>
            <ns3:atemp>19.0</ns3:atemp>
          </ns3:TrackPointExtension>
        </extensions>
      </trkpt>
      <trkpt lat="46.7517770268023014068603515625" lon="6.8459122069180011749267578125">
        <ele>477.600006103515625</ele>
        <time>2013-09-01T15:10:35.000Z</time>
        <extensions>
          <ns3:TrackPointExtension>
            <ns3:atemp>19.0</ns3:atemp>
          </ns3:TrackPointExtension>
        </extensions>
      </trkpt>
      <trkpt lat="46.75178767181932926177978515625" lon="6.8459376879036426544189453125">
        <ele>478</ele>
        <time>2013-09-01T15:10:36.000Z</time>
        <extensions>
          <ns3:TrackPointExtension>
            <ns3:atemp>19.0</ns3:atemp>
          </ns3:TrackPointExtension>
        </extensions>
      </trkpt>
      <trkpt lat="46.75179907120764255523681640625" lon="6.84596442617475986480712890625">
        <ele>478.20001220703125</ele>
        <time>2013-09-01T15:10:37.000Z</time>
        <extensions>
          <ns3:TrackPointExtension>
            <ns3:atemp>19.0</ns3:atemp>
          </ns3:TrackPointExtension>
        </extensions>
      </trkpt>
      <trkpt lat="46.75180745311081409454345703125" lon="6.84599141590297222137451171875">
        <ele>478.399993896484375</ele>
        <time>2013-09-01T15:10:38.000Z</time>
        <extensions>
          <ns3:TrackPointExtension>
            <ns3:atemp>19.0</ns3:atemp>
          </ns3:TrackPointExtension>
        </extensions>
      </trkpt>
      <trkpt lat="46.751811392605304718017578125" lon="6.84602578170597553253173828125">
        <ele>478.79998779296875</ele>
        <time>2013-09-01T15:10:39.000Z</time>
        <extensions>
          <ns3:TrackPointExtension>
            <ns3:atemp>19.0</ns3:atemp>
          </ns3:TrackPointExtension>
        </extensions>
      </trkpt>
      <trkpt lat="46.75180971622467041015625" lon="6.8460620753467082977294921875">
        <ele>479</ele>
        <time>2013-09-01T15:10:40.000Z</time>
        <extensions>
          <ns3:TrackPointExtension>
            <ns3:atemp>19.0</ns3:atemp>
          </ns3:TrackPointExtension>
        </extensions>
      </trkpt>
      <trkpt lat="46.75180896185338497161865234375" lon="6.8460982851684093475341796875">
        <ele>479.399993896484375</ele>
        <time>2013-09-01T15:10:41.000Z</time>
        <extensions>
          <ns3:TrackPointExtension>
            <ns3:atemp>19.0</ns3:atemp>
          </ns3:TrackPointExtension>
        </extensions>
      </trkpt>
      <trkpt lat="46.7518112249672412872314453125" lon="6.84613374061882495880126953125">
        <ele>479.600006103515625</ele>
        <time>2013-09-01T15:10:42.000Z</time>
        <extensions>
          <ns3:TrackPointExtension>
            <ns3:atemp>19.0</ns3:atemp>
          </ns3:TrackPointExtension>
        </extensions>
      </trkpt>
      <trkpt lat="46.75181415863335132598876953125" lon="6.846169531345367431640625">
        <ele>479.600006103515625</ele>
        <time>2013-09-01T15:10:43.000Z</time>
        <extensions>
          <ns3:TrackPointExtension>
            <ns3:atemp>19.0</ns3:atemp>
          </ns3:TrackPointExtension>
        </extensions>
      </trkpt>
      <trkpt lat="46.7518155835568904876708984375" lon="6.84620800428092479705810546875">
        <ele>480.399993896484375</ele>
        <time>2013-09-01T15:10:44.000Z</time>
        <extensions>
          <ns3:TrackPointExtension>
            <ns3:atemp>19.0</ns3:atemp>
          </ns3:TrackPointExtension>
        </extensions>
      </trkpt>
      <trkpt lat="46.75181767903268337249755859375" lon="6.84624572284519672393798828125">
        <ele>480.600006103515625</ele>
        <time>2013-09-01T15:10:45.000Z</time>
        <extensions>
          <ns3:TrackPointExtension>
            <ns3:atemp>19.0</ns3:atemp>
          </ns3:TrackPointExtension>
        </extensions>
      </trkpt>
      <trkpt lat="46.751817427575588226318359375" lon="6.8462823517620563507080078125">
        <ele>480.600006103515625</ele>
        <time>2013-09-01T15:10:46.000Z</time>
        <extensions>
          <ns3:TrackPointExtension>
            <ns3:atemp>19.0</ns3:atemp>
          </ns3:TrackPointExtension>
        </extensions>
      </trkpt>
      <trkpt lat="46.7518165893852710723876953125" lon="6.84631998650729656219482421875">
        <ele>480.79998779296875</ele>
        <time>2013-09-01T15:10:47.000Z</time>
        <extensions>
          <ns3:TrackPointExtension>
            <ns3:atemp>19.0</ns3:atemp>
          </ns3:TrackPointExtension>
        </extensions>
      </trkpt>
      <trkpt lat="46.751812063157558441162109375" lon="6.84635938145220279693603515625">
        <ele>481</ele>
        <time>2013-09-01T15:10:48.000Z</time>
        <extensions>
          <ns3:TrackPointExtension>
            <ns3:atemp>19.0</ns3:atemp>
          </ns3:TrackPointExtension>
        </extensions>
      </trkpt>
      <trkpt lat="46.75180963240563869476318359375" lon="6.8464028835296630859375">
        <ele>481.20001220703125</ele>
        <time>2013-09-01T15:10:49.000Z</time>
        <extensions>
          <ns3:TrackPointExtension>
            <ns3:atemp>19.0</ns3:atemp>
          </ns3:TrackPointExtension>
        </extensions>
      </trkpt>
      <trkpt lat="46.75180812366306781768798828125" lon="6.846448481082916259765625">
        <ele>481.399993896484375</ele>
        <time>2013-09-01T15:10:50.000Z</time>
        <extensions>
          <ns3:TrackPointExtension>
            <ns3:atemp>19.0</ns3:atemp>
          </ns3:TrackPointExtension>
        </extensions>
      </trkpt>
      <trkpt lat="46.75180611200630664825439453125" lon="6.84649885632097721099853515625">
        <ele>481.20001220703125</ele>
        <time>2013-09-01T15:10:51.000Z</time>
        <extensions>
          <ns3:TrackPointExtension>
            <ns3:atemp>19.0</ns3:atemp>
          </ns3:TrackPointExtension>
        </extensions>
      </trkpt>
      <trkpt lat="46.7518056929111480712890625" lon="6.84654998593032360076904296875">
        <ele>481.20001220703125</ele>
        <time>2013-09-01T15:10:52.000Z</time>
        <extensions>
          <ns3:TrackPointExtension>
            <ns3:atemp>19.0</ns3:atemp>
          </ns3:TrackPointExtension>
        </extensions>
      </trkpt>
      <trkpt lat="46.75180342979729175567626953125" lon="6.846600361168384552001953125">
        <ele>481.399993896484375</ele>
        <time>2013-09-01T15:10:53.000Z</time>
        <extensions>
          <ns3:TrackPointExtension>
            <ns3:atemp>19.0</ns3:atemp>
          </ns3:TrackPointExtension>
        </extensions>
      </trkpt>
      <trkpt lat="46.75180259160697460174560546875" lon="6.84665274806320667266845703125">
        <ele>481.600006103515625</ele>
        <time>2013-09-01T15:10:54.000Z</time>
        <extensions>
          <ns3:TrackPointExtension>
            <ns3:atemp>19.0</ns3:atemp>
          </ns3:TrackPointExtension>
        </extensions>
      </trkpt>
      <trkpt lat="46.7518041841685771942138671875" lon="6.84670639224350452423095703125">
        <ele>482.20001220703125</ele>
        <time>2013-09-01T15:10:55.000Z</time>
        <extensions>
          <ns3:TrackPointExtension>
            <ns3:atemp>19.0</ns3:atemp>
          </ns3:TrackPointExtension>
        </extensions>
      </trkpt>
      <trkpt lat="46.75180770456790924072265625" lon="6.846760623157024383544921875">
        <ele>482.399993896484375</ele>
        <time>2013-09-01T15:10:56.000Z</time>
        <extensions>
          <ns3:TrackPointExtension>
            <ns3:atemp>19.0</ns3:atemp>
          </ns3:TrackPointExtension>
        </extensions>
      </trkpt>
      <trkpt lat="46.7518108896911144256591796875" lon="6.846815608441829681396484375">
        <ele>482.600006103515625</ele>
        <time>2013-09-01T15:10:57.000Z</time>
        <extensions>
          <ns3:TrackPointExtension>
            <ns3:atemp>19.0</ns3:atemp>
          </ns3:TrackPointExtension>
        </extensions>
      </trkpt>
      <trkpt lat="46.75181332044303417205810546875" lon="6.84687084518373012542724609375">
        <ele>482.79998779296875</ele>
        <time>2013-09-01T15:10:58.000Z</time>
        <extensions>
          <ns3:TrackPointExtension>
            <ns3:atemp>19.0</ns3:atemp>
          </ns3:TrackPointExtension>
        </extensions>
      </trkpt>
      <trkpt lat="46.75181667320430278778076171875" lon="6.84692700393497943878173828125">
        <ele>483</ele>
        <time>2013-09-01T15:10:59.000Z</time>
        <extensions>
          <ns3:TrackPointExtension>
            <ns3:atemp>19.0</ns3:atemp>
          </ns3:TrackPointExtension>
        </extensions>
      </trkpt>
      <trkpt lat="46.7518202774226665496826171875" lon="6.846984587609767913818359375">
        <ele>483</ele>
        <time>2013-09-01T15:11:00.000Z</time>
        <extensions>
          <ns3:TrackPointExtension>
            <ns3:atemp>19.0</ns3:atemp>
          </ns3:TrackPointExtension>
        </extensions>
      </trkpt>
      <trkpt lat="46.75182539038360118865966796875" lon="6.84704183600842952728271484375">
        <ele>482.79998779296875</ele>
        <time>2013-09-01T15:11:01.000Z</time>
        <extensions>
          <ns3:TrackPointExtension>
            <ns3:atemp>19.0</ns3:atemp>
          </ns3:TrackPointExtension>
        </extensions>
      </trkpt>
      <trkpt lat="46.751830838620662689208984375" lon="6.84710084460675716400146484375">
        <ele>482.600006103515625</ele>
        <time>2013-09-01T15:11:02.000Z</time>
        <extensions>
          <ns3:TrackPointExtension>
            <ns3:atemp>19.0</ns3:atemp>
          </ns3:TrackPointExtension>
        </extensions>
      </trkpt>
      <trkpt lat="46.75183561630547046661376953125" lon="6.84716127812862396240234375">
        <ele>482.600006103515625</ele>
        <time>2013-09-01T15:11:03.000Z</time>
        <extensions>
          <ns3:TrackPointExtension>
            <ns3:atemp>19.0</ns3:atemp>
          </ns3:TrackPointExtension>
        </extensions>
      </trkpt>
      <trkpt lat="46.75184123218059539794921875" lon="6.84722053818404674530029296875">
        <ele>482.600006103515625</ele>
        <time>2013-09-01T15:11:04.000Z</time>
        <extensions>
          <ns3:TrackPointExtension>
            <ns3:atemp>19.0</ns3:atemp>
          </ns3:TrackPointExtension>
        </extensions>
      </trkpt>
      <trkpt lat="46.75184517167508602142333984375" lon="6.84728088788688182830810546875">
        <ele>482.399993896484375</ele>
        <time>2013-09-01T15:11:05.000Z</time>
        <extensions>
          <ns3:TrackPointExtension>
            <ns3:atemp>19.0</ns3:atemp>
          </ns3:TrackPointExtension>
        </extensions>
      </trkpt>
      <trkpt lat="46.7518514581024646759033203125" lon="6.8473421595990657806396484375">
        <ele>482.600006103515625</ele>
        <time>2013-09-01T15:11:06.000Z</time>
        <extensions>
          <ns3:TrackPointExtension>
            <ns3:atemp>19.0</ns3:atemp>
          </ns3:TrackPointExtension>
        </extensions>
      </trkpt>
      <trkpt lat="46.75185858272016048431396484375" lon="6.84740225784480571746826171875">
        <ele>482.79998779296875</ele>
        <time>2013-09-01T15:11:07.000Z</time>
        <extensions>
          <ns3:TrackPointExtension>
            <ns3:atemp>19.0</ns3:atemp>
          </ns3:TrackPointExtension>
        </extensions>
      </trkpt>
      <trkpt lat="46.7518648691475391387939453125" lon="6.84746545739471912384033203125">
        <ele>483.20001220703125</ele>
        <time>2013-09-01T15:11:08.000Z</time>
        <extensions>
          <ns3:TrackPointExtension>
            <ns3:atemp>19.0</ns3:atemp>
          </ns3:TrackPointExtension>
        </extensions>
      </trkpt>
      <trkpt lat="46.75186931155622005462646484375" lon="6.84752882458269596099853515625">
        <ele>483</ele>
        <time>2013-09-01T15:11:09.000Z</time>
        <extensions>
          <ns3:TrackPointExtension>
            <ns3:atemp>19.0</ns3:atemp>
          </ns3:TrackPointExtension>
        </extensions>
      </trkpt>
      <trkpt lat="46.75187475979328155517578125" lon="6.84759370051324367523193359375">
        <ele>483</ele>
        <time>2013-09-01T15:11:10.000Z</time>
        <extensions>
          <ns3:TrackPointExtension>
            <ns3:atemp>19.0</ns3:atemp>
          </ns3:TrackPointExtension>
        </extensions>
      </trkpt>
      <trkpt lat="46.75188087858259677886962890625" lon="6.84765958227217197418212890625">
        <ele>483</ele>
        <time>2013-09-01T15:11:11.000Z</time>
        <extensions>
          <ns3:TrackPointExtension>
            <ns3:atemp>19.0</ns3:atemp>
          </ns3:TrackPointExtension>
        </extensions>
      </trkpt>
      <trkpt lat="46.75188741646707057952880859375" lon="6.8477265536785125732421875">
        <ele>483.20001220703125</ele>
        <time>2013-09-01T15:11:12.000Z</time>
        <extensions>
          <ns3:TrackPointExtension>
            <ns3:atemp>19.0</ns3:atemp>
          </ns3:TrackPointExtension>
        </extensions>
      </trkpt>
      <trkpt lat="46.75189412198960781097412109375" lon="6.8477921001613140106201171875">
        <ele>483.399993896484375</ele>
        <time>2013-09-01T15:11:13.000Z</time>
        <extensions>
          <ns3:TrackPointExtension>
            <ns3:atemp>19.0</ns3:atemp>
          </ns3:TrackPointExtension>
        </extensions>
      </trkpt>
      <trkpt lat="46.7518968880176544189453125" lon="6.84786024503409862518310546875">
        <ele>483.600006103515625</ele>
        <time>2013-09-01T15:11:14.000Z</time>
        <extensions>
          <ns3:TrackPointExtension>
            <ns3:atemp>19.0</ns3:atemp>
          </ns3:TrackPointExtension>
        </extensions>
      </trkpt>
      <trkpt lat="46.7519027553498744964599609375" lon="6.8479268811643123626708984375">
        <ele>483.600006103515625</ele>
        <time>2013-09-01T15:11:15.000Z</time>
        <extensions>
          <ns3:TrackPointExtension>
            <ns3:atemp>19.0</ns3:atemp>
          </ns3:TrackPointExtension>
        </extensions>
      </trkpt>
      <trkpt lat="46.7519091255962848663330078125" lon="6.847993768751621246337890625">
        <ele>483.600006103515625</ele>
        <time>2013-09-01T15:11:16.000Z</time>
        <extensions>
          <ns3:TrackPointExtension>
            <ns3:atemp>19.0</ns3:atemp>
          </ns3:TrackPointExtension>
        </extensions>
      </trkpt>
      <trkpt lat="46.751917339861392974853515625" lon="6.8480593152344226837158203125">
        <ele>483.600006103515625</ele>
        <time>2013-09-01T15:11:17.000Z</time>
        <extensions>
          <ns3:TrackPointExtension>
            <ns3:atemp>19.0</ns3:atemp>
          </ns3:TrackPointExtension>
        </extensions>
      </trkpt>
      <trkpt lat="46.7519238777458667755126953125" lon="6.8481256999075412750244140625">
        <ele>483.79998779296875</ele>
        <time>2013-09-01T15:11:18.000Z</time>
        <extensions>
          <ns3:TrackPointExtension>
            <ns3:atemp>19.0</ns3:atemp>
          </ns3:TrackPointExtension>
        </extensions>
      </trkpt>
      <trkpt lat="46.7519309185445308685302734375" lon="6.8481900729238986968994140625">
        <ele>484</ele>
        <time>2013-09-01T15:11:19.000Z</time>
        <extensions>
          <ns3:TrackPointExtension>
            <ns3:atemp>19.0</ns3:atemp>
          </ns3:TrackPointExtension>
        </extensions>
      </trkpt>
      <trkpt lat="46.7519406415522098541259765625" lon="6.84825251810252666473388671875">
        <ele>484.20001220703125</ele>
        <time>2013-09-01T15:11:20.000Z</time>
        <extensions>
          <ns3:TrackPointExtension>
            <ns3:atemp>19.0</ns3:atemp>
          </ns3:TrackPointExtension>
        </extensions>
      </trkpt>
      <trkpt lat="46.75194692797958850860595703125" lon="6.8483161367475986480712890625">
        <ele>484.20001220703125</ele>
        <time>2013-09-01T15:11:21.000Z</time>
        <extensions>
          <ns3:TrackPointExtension>
            <ns3:atemp>19.0</ns3:atemp>
          </ns3:TrackPointExtension>
        </extensions>
      </trkpt>
      <trkpt lat="46.75195313058793544769287109375" lon="6.84838025830686092376708984375">
        <ele>484</ele>
        <time>2013-09-01T15:11:22.000Z</time>
        <extensions>
          <ns3:TrackPointExtension>
            <ns3:atemp>19.0</ns3:atemp>
          </ns3:TrackPointExtension>
        </extensions>
      </trkpt>
      <trkpt lat="46.75195899792015552520751953125" lon="6.84844337403774261474609375">
        <ele>484</ele>
        <time>2013-09-01T15:11:23.000Z</time>
        <extensions>
          <ns3:TrackPointExtension>
            <ns3:atemp>19.0</ns3:atemp>
          </ns3:TrackPointExtension>
        </extensions>
      </trkpt>
      <trkpt lat="46.7519657872617244720458984375" lon="6.8485070765018463134765625">
        <ele>483.79998779296875</ele>
        <time>2013-09-01T15:11:24.000Z</time>
        <extensions>
          <ns3:TrackPointExtension>
            <ns3:atemp>19.0</ns3:atemp>
          </ns3:TrackPointExtension>
        </extensions>
      </trkpt>
      <trkpt lat="46.7519708164036273956298828125" lon="6.848572790622711181640625">
        <ele>483.600006103515625</ele>
        <time>2013-09-01T15:11:25.000Z</time>
        <extensions>
          <ns3:TrackPointExtension>
            <ns3:atemp>19.0</ns3:atemp>
          </ns3:TrackPointExtension>
        </extensions>
      </trkpt>
      <trkpt lat="46.75197534263134002685546875" lon="6.84863707982003688812255859375">
        <ele>483.600006103515625</ele>
        <time>2013-09-01T15:11:26.000Z</time>
        <extensions>
          <ns3:TrackPointExtension>
            <ns3:atemp>19.0</ns3:atemp>
          </ns3:TrackPointExtension>
        </extensions>
      </trkpt>
      <trkpt lat="46.7519815452396869659423828125" lon="6.8486983515322208404541015625">
        <ele>483.79998779296875</ele>
        <time>2013-09-01T15:11:27.000Z</time>
        <extensions>
          <ns3:TrackPointExtension>
            <ns3:atemp>19.0</ns3:atemp>
          </ns3:TrackPointExtension>
        </extensions>
      </trkpt>
      <trkpt lat="46.75198582001030445098876953125" lon="6.8487603776156902313232421875">
        <ele>484</ele>
        <time>2013-09-01T15:11:28.000Z</time>
        <extensions>
          <ns3:TrackPointExtension>
            <ns3:atemp>19.0</ns3:atemp>
          </ns3:TrackPointExtension>
        </extensions>
      </trkpt>
      <trkpt lat="46.7519909329712390899658203125" lon="6.8488190509378910064697265625">
        <ele>484.20001220703125</ele>
        <time>2013-09-01T15:11:29.000Z</time>
        <extensions>
          <ns3:TrackPointExtension>
            <ns3:atemp>19.0</ns3:atemp>
          </ns3:TrackPointExtension>
        </extensions>
      </trkpt>
      <trkpt lat="46.7519969679415225982666015625" lon="6.84887428767979145050048828125">
        <ele>484.20001220703125</ele>
        <time>2013-09-01T15:11:30.000Z</time>
        <extensions>
          <ns3:TrackPointExtension>
            <ns3:atemp>19.0</ns3:atemp>
          </ns3:TrackPointExtension>
        </extensions>
      </trkpt>
      <trkpt lat="46.75200208090245723724365234375" lon="6.848929859697818756103515625">
        <ele>484.600006103515625</ele>
        <time>2013-09-01T15:11:31.000Z</time>
        <extensions>
          <ns3:TrackPointExtension>
            <ns3:atemp>19.0</ns3:atemp>
          </ns3:TrackPointExtension>
        </extensions>
      </trkpt>
      <trkpt lat="46.75200543366372585296630859375" lon="6.8489883653819561004638671875">
        <ele>485</ele>
        <time>2013-09-01T15:11:32.000Z</time>
        <extensions>
          <ns3:TrackPointExtension>
            <ns3:atemp>19.0</ns3:atemp>
          </ns3:TrackPointExtension>
        </extensions>
      </trkpt>
      <trkpt lat="46.7520090378820896148681640625" lon="6.8490462005138397216796875">
        <ele>485</ele>
        <time>2013-09-01T15:11:33.000Z</time>
        <extensions>
          <ns3:TrackPointExtension>
            <ns3:atemp>19.0</ns3:atemp>
          </ns3:TrackPointExtension>
        </extensions>
      </trkpt>
      <trkpt lat="46.7520157434046268463134765625" lon="6.84910026378929615020751953125">
        <ele>484.79998779296875</ele>
        <time>2013-09-01T15:11:34.000Z</time>
        <extensions>
          <ns3:TrackPointExtension>
            <ns3:atemp>19.0</ns3:atemp>
          </ns3:TrackPointExtension>
        </extensions>
      </trkpt>
      <trkpt lat="46.752028651535511016845703125" lon="6.849155165255069732666015625">
        <ele>485</ele>
        <time>2013-09-01T15:11:35.000Z</time>
        <extensions>
          <ns3:TrackPointExtension>
            <ns3:atemp>19.0</ns3:atemp>
          </ns3:TrackPointExtension>
        </extensions>
      </trkpt>
      <trkpt lat="46.7520361952483654022216796875" lon="6.8492130003869533538818359375">
        <ele>485.20001220703125</ele>
        <time>2013-09-01T15:11:36.000Z</time>
        <extensions>
          <ns3:TrackPointExtension>
            <ns3:atemp>19.0</ns3:atemp>
          </ns3:TrackPointExtension>
        </extensions>
      </trkpt>
      <trkpt lat="46.7520405538380146026611328125" lon="6.8492726795375347137451171875">
        <ele>485.600006103515625</ele>
        <time>2013-09-01T15:11:37.000Z</time>
        <extensions>
          <ns3:TrackPointExtension>
            <ns3:atemp>19.0</ns3:atemp>
          </ns3:TrackPointExtension>
        </extensions>
      </trkpt>
      <trkpt lat="46.75204499624669551849365234375" lon="6.84933160431683063507080078125">
        <ele>486</ele>
        <time>2013-09-01T15:11:38.000Z</time>
        <extensions>
          <ns3:TrackPointExtension>
            <ns3:atemp>19.0</ns3:atemp>
          </ns3:TrackPointExtension>
        </extensions>
      </trkpt>
      <trkpt lat="46.7520526237785816192626953125" lon="6.8493883498013019561767578125">
        <ele>486.20001220703125</ele>
        <time>2013-09-01T15:11:39.000Z</time>
        <extensions>
          <ns3:TrackPointExtension>
            <ns3:atemp>19.0</ns3:atemp>
          </ns3:TrackPointExtension>
        </extensions>
      </trkpt>
      <trkpt lat="46.75205119885504245758056640625" lon="6.84944140724837779998779296875">
        <ele>486.600006103515625</ele>
        <time>2013-09-01T15:11:40.000Z</time>
        <extensions>
          <ns3:TrackPointExtension>
            <ns3:atemp>19.0</ns3:atemp>
          </ns3:TrackPointExtension>
        </extensions>
      </trkpt>
      <trkpt lat="46.7520486004650592803955078125" lon="6.84949337504804134368896484375">
        <ele>487</ele>
        <time>2013-09-01T15:11:41.000Z</time>
        <extensions>
          <ns3:TrackPointExtension>
            <ns3:atemp>19.0</ns3:atemp>
          </ns3:TrackPointExtension>
        </extensions>
      </trkpt>
      <trkpt lat="46.75204885192215442657470703125" lon="6.84954349882900714874267578125">
        <ele>487.399993896484375</ele>
        <time>2013-09-01T15:11:42.000Z</time>
        <extensions>
          <ns3:TrackPointExtension>
            <ns3:atemp>19.0</ns3:atemp>
          </ns3:TrackPointExtension>
        </extensions>
      </trkpt>
      <trkpt lat="46.752052791416645050048828125" lon="6.849595718085765838623046875">
        <ele>487.600006103515625</ele>
        <time>2013-09-01T15:11:43.000Z</time>
        <extensions>
          <ns3:TrackPointExtension>
            <ns3:atemp>19.0</ns3:atemp>
          </ns3:TrackPointExtension>
        </extensions>
      </trkpt>
      <trkpt lat="46.75205807201564311981201171875" lon="6.84964978136122226715087890625">
        <ele>487.600006103515625</ele>
        <time>2013-09-01T15:11:44.000Z</time>
        <extensions>
          <ns3:TrackPointExtension>
            <ns3:atemp>19.0</ns3:atemp>
          </ns3:TrackPointExtension>
        </extensions>
      </trkpt>
      <trkpt lat="46.75206477753818035125732421875" lon="6.84971231035888195037841796875">
        <ele>488.20001220703125</ele>
        <time>2013-09-01T15:11:45.000Z</time>
        <extensions>
          <ns3:TrackPointExtension>
            <ns3:atemp>19.0</ns3:atemp>
          </ns3:TrackPointExtension>
        </extensions>
      </trkpt>
      <trkpt lat="46.75206863321363925933837890625" lon="6.8497729115188121795654296875">
        <ele>488.399993896484375</ele>
        <time>2013-09-01T15:11:46.000Z</time>
        <extensions>
          <ns3:TrackPointExtension>
            <ns3:atemp>19.0</ns3:atemp>
          </ns3:TrackPointExtension>
        </extensions>
      </trkpt>
      <trkpt lat="46.75207282416522502899169921875" lon="6.84983141720294952392578125">
        <ele>488.79998779296875</ele>
        <time>2013-09-01T15:11:47.000Z</time>
        <extensions>
          <ns3:TrackPointExtension>
            <ns3:atemp>19.0</ns3:atemp>
          </ns3:TrackPointExtension>
        </extensions>
      </trkpt>
      <trkpt lat="46.7520781047642230987548828125" lon="6.8498897552490234375">
        <ele>488.79998779296875</ele>
        <time>2013-09-01T15:11:48.000Z</time>
        <extensions>
          <ns3:TrackPointExtension>
            <ns3:atemp>19.0</ns3:atemp>
          </ns3:TrackPointExtension>
        </extensions>
      </trkpt>
      <trkpt lat="46.75208539701998233795166015625" lon="6.8499489314854145050048828125">
        <ele>489</ele>
        <time>2013-09-01T15:11:49.000Z</time>
        <extensions>
          <ns3:TrackPointExtension>
            <ns3:atemp>19.0</ns3:atemp>
          </ns3:TrackPointExtension>
        </extensions>
      </trkpt>
      <trkpt lat="46.75209294073283672332763671875" lon="6.85000844299793243408203125">
        <ele>489</ele>
        <time>2013-09-01T15:11:50.000Z</time>
        <extensions>
          <ns3:TrackPointExtension>
            <ns3:atemp>19.0</ns3:atemp>
          </ns3:TrackPointExtension>
        </extensions>
      </trkpt>
      <trkpt lat="46.752101071178913116455078125" lon="6.85006150044500827789306640625">
        <ele>489.20001220703125</ele>
        <time>2013-09-01T15:11:51.000Z</time>
        <extensions>
          <ns3:TrackPointExtension>
            <ns3:atemp>19.0</ns3:atemp>
          </ns3:TrackPointExtension>
        </extensions>
      </trkpt>
      <trkpt lat="46.7521092854440212249755859375" lon="6.850120760500431060791015625">
        <ele>489.399993896484375</ele>
        <time>2013-09-01T15:11:52.000Z</time>
        <extensions>
          <ns3:TrackPointExtension>
            <ns3:atemp>19.0</ns3:atemp>
          </ns3:TrackPointExtension>
        </extensions>
      </trkpt>
      <trkpt lat="46.75211858935654163360595703125" lon="6.8501775898039340972900390625">
        <ele>489.600006103515625</ele>
        <time>2013-09-01T15:11:53.000Z</time>
        <extensions>
          <ns3:TrackPointExtension>
            <ns3:atemp>19.0</ns3:atemp>
          </ns3:TrackPointExtension>
        </extensions>
      </trkpt>
      <trkpt lat="46.7521320842206478118896484375" lon="6.8502344191074371337890625">
        <ele>489.600006103515625</ele>
        <time>2013-09-01T15:11:54.000Z</time>
        <extensions>
          <ns3:TrackPointExtension>
            <ns3:atemp>19.0</ns3:atemp>
          </ns3:TrackPointExtension>
        </extensions>
      </trkpt>
      <trkpt lat="46.7521463334560394287109375" lon="6.85028580017387866973876953125">
        <ele>489.79998779296875</ele>
        <time>2013-09-01T15:11:55.000Z</time>
        <extensions>
          <ns3:TrackPointExtension>
            <ns3:atemp>19.0</ns3:atemp>
          </ns3:TrackPointExtension>
        </extensions>
      </trkpt>
      <trkpt lat="46.75215966068208217620849609375" lon="6.85033391229808330535888671875">
        <ele>489.79998779296875</ele>
        <time>2013-09-01T15:11:56.000Z</time>
        <extensions>
          <ns3:TrackPointExtension>
            <ns3:atemp>19.0</ns3:atemp>
          </ns3:TrackPointExtension>
        </extensions>
      </trkpt>
      <trkpt lat="46.7521723173558712005615234375" lon="6.85037858784198760986328125">
        <ele>489.600006103515625</ele>
        <time>2013-09-01T15:11:57.000Z</time>
        <extensions>
          <ns3:TrackPointExtension>
            <ns3:atemp>19.0</ns3:atemp>
          </ns3:TrackPointExtension>
        </extensions>
      </trkpt>
      <trkpt lat="46.75218455493450164794921875" lon="6.8504203297197818756103515625">
        <ele>489.600006103515625</ele>
        <time>2013-09-01T15:11:58.000Z</time>
        <extensions>
          <ns3:TrackPointExtension>
            <ns3:atemp>19.0</ns3:atemp>
          </ns3:TrackPointExtension>
        </extensions>
      </trkpt>
      <trkpt lat="46.7521914280951023101806640625" lon="6.850449331104755401611328125">
        <ele>489.399993896484375</ele>
        <time>2013-09-01T15:11:59.000Z</time>
        <extensions>
          <ns3:TrackPointExtension>
            <ns3:atemp>19.0</ns3:atemp>
          </ns3:TrackPointExtension>
        </extensions>
      </trkpt>
      <trkpt lat="46.75219553522765636444091796875" lon="6.8504677712917327880859375">
        <ele>489.399993896484375</ele>
        <time>2013-09-01T15:12:00.000Z</time>
        <extensions>
          <ns3:TrackPointExtension>
            <ns3:atemp>19.0</ns3:atemp>
          </ns3:TrackPointExtension>
        </extensions>
      </trkpt>
      <trkpt lat="46.7521937750279903411865234375" lon="6.8504578806459903717041015625">
        <ele>489.20001220703125</ele>
        <time>2013-09-01T15:12:01.000Z</time>
        <extensions>
          <ns3:TrackPointExtension>
            <ns3:atemp>19.0</ns3:atemp>
          </ns3:TrackPointExtension>
        </extensions>
      </trkpt>
      <trkpt lat="46.75219352357089519500732421875" lon="6.8504677712917327880859375">
        <ele>489.20001220703125</ele>
        <time>2013-09-01T15:12:02.000Z</time>
        <extensions>
          <ns3:TrackPointExtension>
            <ns3:atemp>19.0</ns3:atemp>
          </ns3:TrackPointExtension>
        </extensions>
      </trkpt>
      <trkpt lat="46.752190925180912017822265625" lon="6.850468106567859649658203125">
        <ele>489.20001220703125</ele>
        <time>2013-09-01T15:12:03.000Z</time>
        <extensions>
          <ns3:TrackPointExtension>
            <ns3:atemp>19.0</ns3:atemp>
          </ns3:TrackPointExtension>
        </extensions>
      </trkpt>
      <trkpt lat="46.752190925180912017822265625" lon="6.850468106567859649658203125">
        <ele>489.20001220703125</ele>
        <time>2013-09-01T15:12:04.000Z</time>
        <extensions>
          <ns3:TrackPointExtension>
            <ns3:atemp>19.0</ns3:atemp>
          </ns3:TrackPointExtension>
        </extensions>
      </trkpt>
      <trkpt lat="46.752190925180912017822265625" lon="6.850468106567859649658203125">
        <ele>489</ele>
        <time>2013-09-01T15:12:05.000Z</time>
        <extensions>
          <ns3:TrackPointExtension>
            <ns3:atemp>19.0</ns3:atemp>
          </ns3:TrackPointExtension>
        </extensions>
      </trkpt>
      <trkpt lat="46.752190925180912017822265625" lon="6.850468106567859649658203125">
        <ele>489</ele>
        <time>2013-09-01T15:12:06.000Z</time>
        <extensions>
          <ns3:TrackPointExtension>
            <ns3:atemp>19.0</ns3:atemp>
          </ns3:TrackPointExtension>
        </extensions>
      </trkpt>
      <trkpt lat="46.752190925180912017822265625" lon="6.850468106567859649658203125">
        <ele>489</ele>
        <time>2013-09-01T15:12:07.000Z</time>
        <extensions>
          <ns3:TrackPointExtension>
            <ns3:atemp>19.0</ns3:atemp>
          </ns3:TrackPointExtension>
        </extensions>
      </trkpt>
      <trkpt lat="46.752190925180912017822265625" lon="6.850468106567859649658203125">
        <ele>489</ele>
        <time>2013-09-01T15:12:08.000Z</time>
        <extensions>
          <ns3:TrackPointExtension>
            <ns3:atemp>19.0</ns3:atemp>
          </ns3:TrackPointExtension>
        </extensions>
      </trkpt>
      <trkpt lat="46.752190925180912017822265625" lon="6.850468106567859649658203125">
        <ele>489</ele>
        <time>2013-09-01T15:12:09.000Z</time>
        <extensions>
          <ns3:TrackPointExtension>
            <ns3:atemp>19.0</ns3:atemp>
          </ns3:TrackPointExtension>
        </extensions>
      </trkpt>
      <trkpt lat="46.752190925180912017822265625" lon="6.850468106567859649658203125">
        <ele>489</ele>
        <time>2013-09-01T15:12:10.000Z</time>
        <extensions>
          <ns3:TrackPointExtension>
            <ns3:atemp>19.0</ns3:atemp>
          </ns3:TrackPointExtension>
        </extensions>
      </trkpt>
      <trkpt lat="46.752190925180912017822265625" lon="6.850468106567859649658203125">
        <ele>489</ele>
        <time>2013-09-01T15:12:11.000Z</time>
        <extensions>
          <ns3:TrackPointExtension>
            <ns3:atemp>19.0</ns3:atemp>
          </ns3:TrackPointExtension>
        </extensions>
      </trkpt>
      <trkpt lat="46.752190925180912017822265625" lon="6.850468106567859649658203125">
        <ele>489</ele>
        <time>2013-09-01T15:12:12.000Z</time>
        <extensions>
          <ns3:TrackPointExtension>
            <ns3:atemp>19.0</ns3:atemp>
          </ns3:TrackPointExtension>
        </extensions>
      </trkpt>
      <trkpt lat="46.752190925180912017822265625" lon="6.850468106567859649658203125">
        <ele>488.79998779296875</ele>
        <time>2013-09-01T15:12:13.000Z</time>
        <extensions>
          <ns3:TrackPointExtension>
            <ns3:atemp>19.0</ns3:atemp>
          </ns3:TrackPointExtension>
        </extensions>
      </trkpt>
      <trkpt lat="46.752190925180912017822265625" lon="6.850468106567859649658203125">
        <ele>489</ele>
        <time>2013-09-01T15:12:14.000Z</time>
        <extensions>
          <ns3:TrackPointExtension>
            <ns3:atemp>19.0</ns3:atemp>
          </ns3:TrackPointExtension>
        </extensions>
      </trkpt>
      <trkpt lat="46.752190925180912017822265625" lon="6.850468106567859649658203125">
        <ele>489</ele>
        <time>2013-09-01T15:12:15.000Z</time>
        <extensions>
          <ns3:TrackPointExtension>
            <ns3:atemp>19.0</ns3:atemp>
          </ns3:TrackPointExtension>
        </extensions>
      </trkpt>
      <trkpt lat="46.752190925180912017822265625" lon="6.850468106567859649658203125">
        <ele>489</ele>
        <time>2013-09-01T15:12:16.000Z</time>
        <extensions>
          <ns3:TrackPointExtension>
            <ns3:atemp>19.0</ns3:atemp>
          </ns3:TrackPointExtension>
        </extensions>
      </trkpt>
      <trkpt lat="46.752190925180912017822265625" lon="6.850468106567859649658203125">
        <ele>489</ele>
        <time>2013-09-01T15:12:17.000Z</time>
        <extensions>
          <ns3:TrackPointExtension>
            <ns3:atemp>19.0</ns3:atemp>
          </ns3:TrackPointExtension>
        </extensions>
      </trkpt>
      <trkpt lat="46.752190925180912017822265625" lon="6.850468106567859649658203125">
        <ele>489</ele>
        <time>2013-09-01T15:12:18.000Z</time>
        <extensions>
          <ns3:TrackPointExtension>
            <ns3:atemp>19.0</ns3:atemp>
          </ns3:TrackPointExtension>
        </extensions>
      </trkpt>
      <trkpt lat="46.752190925180912017822265625" lon="6.850468106567859649658203125">
        <ele>489</ele>
        <time>2013-09-01T15:12:19.000Z</time>
        <extensions>
          <ns3:TrackPointExtension>
            <ns3:atemp>19.0</ns3:atemp>
          </ns3:TrackPointExtension>
        </extensions>
      </trkpt>
      <trkpt lat="46.752190925180912017822265625" lon="6.850468106567859649658203125">
        <ele>488.79998779296875</ele>
        <time>2013-09-01T15:12:20.000Z</time>
        <extensions>
          <ns3:TrackPointExtension>
            <ns3:atemp>19.0</ns3:atemp>
          </ns3:TrackPointExtension>
        </extensions>
      </trkpt>
      <trkpt lat="46.752190925180912017822265625" lon="6.850468106567859649658203125">
        <ele>488.79998779296875</ele>
        <time>2013-09-01T15:12:21.000Z</time>
        <extensions>
          <ns3:TrackPointExtension>
            <ns3:atemp>19.0</ns3:atemp>
          </ns3:TrackPointExtension>
        </extensions>
      </trkpt>
      <trkpt lat="46.752190925180912017822265625" lon="6.850468106567859649658203125">
        <ele>489</ele>
        <time>2013-09-01T15:12:22.000Z</time>
        <extensions>
          <ns3:TrackPointExtension>
            <ns3:atemp>19.0</ns3:atemp>
          </ns3:TrackPointExtension>
        </extensions>
      </trkpt>
      <trkpt lat="46.752190925180912017822265625" lon="6.850468106567859649658203125">
        <ele>488.79998779296875</ele>
        <time>2013-09-01T15:12:23.000Z</time>
        <extensions>
          <ns3:TrackPointExtension>
            <ns3:atemp>19.0</ns3:atemp>
          </ns3:TrackPointExtension>
        </extensions>
      </trkpt>
      <trkpt lat="46.752190925180912017822265625" lon="6.850468106567859649658203125">
        <ele>488.79998779296875</ele>
        <time>2013-09-01T15:12:24.000Z</time>
        <extensions>
          <ns3:TrackPointExtension>
            <ns3:atemp>19.0</ns3:atemp>
          </ns3:TrackPointExtension>
        </extensions>
      </trkpt>
      <trkpt lat="46.752190925180912017822265625" lon="6.850468106567859649658203125">
        <ele>488.79998779296875</ele>
        <time>2013-09-01T15:12:25.000Z</time>
        <extensions>
          <ns3:TrackPointExtension>
            <ns3:atemp>19.0</ns3:atemp>
          </ns3:TrackPointExtension>
        </extensions>
      </trkpt>
      <trkpt lat="46.752190925180912017822265625" lon="6.850468106567859649658203125">
        <ele>488.79998779296875</ele>
        <time>2013-09-01T15:12:26.000Z</time>
        <extensions>
          <ns3:TrackPointExtension>
            <ns3:atemp>19.0</ns3:atemp>
          </ns3:TrackPointExtension>
        </extensions>
      </trkpt>
      <trkpt lat="46.752190925180912017822265625" lon="6.850468106567859649658203125">
        <ele>489</ele>
        <time>2013-09-01T15:12:27.000Z</time>
        <extensions>
          <ns3:TrackPointExtension>
            <ns3:atemp>19.0</ns3:atemp>
          </ns3:TrackPointExtension>
        </extensions>
      </trkpt>
      <trkpt lat="46.752190925180912017822265625" lon="6.850468106567859649658203125">
        <ele>488.79998779296875</ele>
        <time>2013-09-01T15:12:28.000Z</time>
        <extensions>
          <ns3:TrackPointExtension>
            <ns3:atemp>19.0</ns3:atemp>
          </ns3:TrackPointExtension>
        </extensions>
      </trkpt>
      <trkpt lat="46.752190925180912017822265625" lon="6.850468106567859649658203125">
        <ele>488.79998779296875</ele>
        <time>2013-09-01T15:12:29.000Z</time>
        <extensions>
          <ns3:TrackPointExtension>
            <ns3:atemp>19.0</ns3:atemp>
          </ns3:TrackPointExtension>
        </extensions>
      </trkpt>
      <trkpt lat="46.752190925180912017822265625" lon="6.850468106567859649658203125">
        <ele>488.79998779296875</ele>
        <time>2013-09-01T15:12:30.000Z</time>
        <extensions>
          <ns3:TrackPointExtension>
            <ns3:atemp>19.0</ns3:atemp>
          </ns3:TrackPointExtension>
        </extensions>
      </trkpt>
      <trkpt lat="46.75219285301864147186279296875" lon="6.85048009268939495086669921875">
        <ele>488.79998779296875</ele>
        <time>2013-09-01T15:12:31.000Z</time>
        <extensions>
          <ns3:TrackPointExtension>
            <ns3:atemp>19.0</ns3:atemp>
          </ns3:TrackPointExtension>
        </extensions>
      </trkpt>
      <trkpt lat="46.75220064818859100341796875" lon="6.85049836523830890655517578125">
        <ele>489</ele>
        <time>2013-09-01T15:12:32.000Z</time>
        <extensions>
          <ns3:TrackPointExtension>
            <ns3:atemp>19.0</ns3:atemp>
          </ns3:TrackPointExtension>
        </extensions>
      </trkpt>
      <trkpt lat="46.75220668315887451171875" lon="6.8505195714533329010009765625">
        <ele>489.20001220703125</ele>
        <time>2013-09-01T15:12:33.000Z</time>
        <extensions>
          <ns3:TrackPointExtension>
            <ns3:atemp>19.0</ns3:atemp>
          </ns3:TrackPointExtension>
        </extensions>
      </trkpt>
      <trkpt lat="46.7522095330059528350830078125" lon="6.8505524285137653350830078125">
        <ele>489.399993896484375</ele>
        <time>2013-09-01T15:12:34.000Z</time>
        <extensions>
          <ns3:TrackPointExtension>
            <ns3:atemp>19.0</ns3:atemp>
          </ns3:TrackPointExtension>
        </extensions>
      </trkpt>
      <trkpt lat="46.75222185440361499786376953125" lon="6.85059023089706897735595703125">
        <ele>489.600006103515625</ele>
        <time>2013-09-01T15:12:35.000Z</time>
        <extensions>
          <ns3:TrackPointExtension>
            <ns3:atemp>19.0</ns3:atemp>
          </ns3:TrackPointExtension>
        </extensions>
      </trkpt>
      <trkpt lat="46.7522376962006092071533203125" lon="6.85062677599489688873291015625">
        <ele>489.600006103515625</ele>
        <time>2013-09-01T15:12:36.000Z</time>
        <extensions>
          <ns3:TrackPointExtension>
            <ns3:atemp>19.0</ns3:atemp>
          </ns3:TrackPointExtension>
        </extensions>
      </trkpt>
      <trkpt lat="46.75225161015987396240234375" lon="6.85066826641559600830078125">
        <ele>489.79998779296875</ele>
        <time>2013-09-01T15:12:37.000Z</time>
        <extensions>
          <ns3:TrackPointExtension>
            <ns3:atemp>19.0</ns3:atemp>
          </ns3:TrackPointExtension>
        </extensions>
      </trkpt>
      <trkpt lat="46.75226032733917236328125" lon="6.85071654617786407470703125">
        <ele>490</ele>
        <time>2013-09-01T15:12:38.000Z</time>
        <extensions>
          <ns3:TrackPointExtension>
            <ns3:atemp>19.0</ns3:atemp>
          </ns3:TrackPointExtension>
        </extensions>
      </trkpt>
      <trkpt lat="46.75226778723299503326416015625" lon="6.850767843425273895263671875">
        <ele>490.399993896484375</ele>
        <time>2013-09-01T15:12:39.000Z</time>
        <extensions>
          <ns3:TrackPointExtension>
            <ns3:atemp>19.0</ns3:atemp>
          </ns3:TrackPointExtension>
        </extensions>
      </trkpt>
      <trkpt lat="46.7522750794887542724609375" lon="6.850820817053318023681640625">
        <ele>490.600006103515625</ele>
        <time>2013-09-01T15:12:40.000Z</time>
        <extensions>
          <ns3:TrackPointExtension>
            <ns3:atemp>19.0</ns3:atemp>
          </ns3:TrackPointExtension>
        </extensions>
      </trkpt>
      <trkpt lat="46.75228455103933811187744140625" lon="6.850873790681362152099609375">
        <ele>490.600006103515625</ele>
        <time>2013-09-01T15:12:41.000Z</time>
        <extensions>
          <ns3:TrackPointExtension>
            <ns3:atemp>19.0</ns3:atemp>
          </ns3:TrackPointExtension>
        </extensions>
      </trkpt>
      <trkpt lat="46.75229410640895366668701171875" lon="6.85092399828135967254638671875">
        <ele>490.79998779296875</ele>
        <time>2013-09-01T15:12:42.000Z</time>
        <extensions>
          <ns3:TrackPointExtension>
            <ns3:atemp>19.0</ns3:atemp>
          </ns3:TrackPointExtension>
        </extensions>
      </trkpt>
      <trkpt lat="46.752302236855030059814453125" lon="6.850974373519420623779296875">
        <ele>490.79998779296875</ele>
        <time>2013-09-01T15:12:43.000Z</time>
        <extensions>
          <ns3:TrackPointExtension>
            <ns3:atemp>19.0</ns3:atemp>
          </ns3:TrackPointExtension>
        </extensions>
      </trkpt>
      <trkpt lat="46.75230852328240871429443359375" lon="6.8510241620242595672607421875">
        <ele>491.399993896484375</ele>
        <time>2013-09-01T15:12:44.000Z</time>
        <extensions>
          <ns3:TrackPointExtension>
            <ns3:atemp>19.0</ns3:atemp>
          </ns3:TrackPointExtension>
        </extensions>
      </trkpt>
      <trkpt lat="46.7523131333291530609130859375" lon="6.85107529163360595703125">
        <ele>491.600006103515625</ele>
        <time>2013-09-01T15:12:45.000Z</time>
        <extensions>
          <ns3:TrackPointExtension>
            <ns3:atemp>19.0</ns3:atemp>
          </ns3:TrackPointExtension>
        </extensions>
      </trkpt>
      <trkpt lat="46.75232000648975372314453125" lon="6.85112633742392063140869140625">
        <ele>491.79998779296875</ele>
        <time>2013-09-01T15:12:46.000Z</time>
        <extensions>
          <ns3:TrackPointExtension>
            <ns3:atemp>19.0</ns3:atemp>
          </ns3:TrackPointExtension>
        </extensions>
      </trkpt>
      <trkpt lat="46.7523272149264812469482421875" lon="6.85117713175714015960693359375">
        <ele>492</ele>
        <time>2013-09-01T15:12:47.000Z</time>
        <extensions>
          <ns3:TrackPointExtension>
            <ns3:atemp>19.0</ns3:atemp>
          </ns3:TrackPointExtension>
        </extensions>
      </trkpt>
      <trkpt lat="46.75233333371579647064208984375" lon="6.85122775845229625701904296875">
        <ele>492</ele>
        <time>2013-09-01T15:12:48.000Z</time>
        <extensions>
          <ns3:TrackPointExtension>
            <ns3:atemp>19.0</ns3:atemp>
          </ns3:TrackPointExtension>
        </extensions>
      </trkpt>
      <trkpt lat="46.75233869813382625579833984375" lon="6.85127846896648406982421875">
        <ele>492.20001220703125</ele>
        <time>2013-09-01T15:12:49.000Z</time>
        <extensions>
          <ns3:TrackPointExtension>
            <ns3:atemp>19.0</ns3:atemp>
          </ns3:TrackPointExtension>
        </extensions>
      </trkpt>
      <trkpt lat="46.75234682857990264892578125" lon="6.8513287603855133056640625">
        <ele>492.20001220703125</ele>
        <time>2013-09-01T15:12:50.000Z</time>
        <extensions>
          <ns3:TrackPointExtension>
            <ns3:atemp>19.0</ns3:atemp>
          </ns3:TrackPointExtension>
        </extensions>
      </trkpt>
      <trkpt lat="46.7523540370166301727294921875" lon="6.85137913562357425689697265625">
        <ele>492.399993896484375</ele>
        <time>2013-09-01T15:12:51.000Z</time>
        <extensions>
          <ns3:TrackPointExtension>
            <ns3:atemp>19.0</ns3:atemp>
          </ns3:TrackPointExtension>
        </extensions>
      </trkpt>
      <trkpt lat="46.75236199982464313507080078125" lon="6.85142867267131805419921875">
        <ele>492.600006103515625</ele>
        <time>2013-09-01T15:12:52.000Z</time>
        <extensions>
          <ns3:TrackPointExtension>
            <ns3:atemp>19.0</ns3:atemp>
          </ns3:TrackPointExtension>
        </extensions>
      </trkpt>
      <trkpt lat="46.752363927662372589111328125" lon="6.8514767847955226898193359375">
        <ele>492.79998779296875</ele>
        <time>2013-09-01T15:12:53.000Z</time>
        <extensions>
          <ns3:TrackPointExtension>
            <ns3:atemp>19.0</ns3:atemp>
          </ns3:TrackPointExtension>
        </extensions>
      </trkpt>
      <trkpt lat="46.75236484967172145843505859375" lon="6.8515250645577907562255859375">
        <ele>493.399993896484375</ele>
        <time>2013-09-01T15:12:54.000Z</time>
        <extensions>
          <ns3:TrackPointExtension>
            <ns3:atemp>19.0</ns3:atemp>
          </ns3:TrackPointExtension>
        </extensions>
      </trkpt>
      <trkpt lat="46.752368621528148651123046875" lon="6.8515728414058685302734375">
        <ele>493.600006103515625</ele>
        <time>2013-09-01T15:12:55.000Z</time>
        <extensions>
          <ns3:TrackPointExtension>
            <ns3:atemp>19.0</ns3:atemp>
          </ns3:TrackPointExtension>
        </extensions>
      </trkpt>
      <trkpt lat="46.75237289629876613616943359375" lon="6.8516209535300731658935546875">
        <ele>493.79998779296875</ele>
        <time>2013-09-01T15:12:56.000Z</time>
        <extensions>
          <ns3:TrackPointExtension>
            <ns3:atemp>19.0</ns3:atemp>
          </ns3:TrackPointExtension>
        </extensions>
      </trkpt>
      <trkpt lat="46.7523761652410030364990234375" lon="6.85166780836880207061767578125">
        <ele>494</ele>
        <time>2013-09-01T15:12:57.000Z</time>
        <extensions>
          <ns3:TrackPointExtension>
            <ns3:atemp>19.0</ns3:atemp>
          </ns3:TrackPointExtension>
        </extensions>
      </trkpt>
      <trkpt lat="46.7523785121738910675048828125" lon="6.85171575285494327545166015625">
        <ele>494.399993896484375</ele>
        <time>2013-09-01T15:12:58.000Z</time>
        <extensions>
          <ns3:TrackPointExtension>
            <ns3:atemp>19.0</ns3:atemp>
          </ns3:TrackPointExtension>
        </extensions>
      </trkpt>
      <trkpt lat="46.7523785121738910675048828125" lon="6.85176654718816280364990234375">
        <ele>494.399993896484375</ele>
        <time>2013-09-01T15:12:59.000Z</time>
        <extensions>
          <ns3:TrackPointExtension>
            <ns3:atemp>19.0</ns3:atemp>
          </ns3:TrackPointExtension>
        </extensions>
      </trkpt>
      <trkpt lat="46.7523795180022716522216796875" lon="6.8518169224262237548828125">
        <ele>494.399993896484375</ele>
        <time>2013-09-01T15:13:00.000Z</time>
        <extensions>
          <ns3:TrackPointExtension>
            <ns3:atemp>19.0</ns3:atemp>
          </ns3:TrackPointExtension>
        </extensions>
      </trkpt>
      <trkpt lat="46.7523796856403350830078125" lon="6.85186713002622127532958984375">
        <ele>494.399993896484375</ele>
        <time>2013-09-01T15:13:01.000Z</time>
        <extensions>
          <ns3:TrackPointExtension>
            <ns3:atemp>19.0</ns3:atemp>
          </ns3:TrackPointExtension>
        </extensions>
      </trkpt>
      <trkpt lat="46.7523808591067790985107421875" lon="6.85191842727363109588623046875">
        <ele>494.20001220703125</ele>
        <time>2013-09-01T15:13:02.000Z</time>
        <extensions>
          <ns3:TrackPointExtension>
            <ns3:atemp>19.0</ns3:atemp>
          </ns3:TrackPointExtension>
        </extensions>
      </trkpt>
      <trkpt lat="46.75238245166838169097900390625" lon="6.8519686348736286163330078125">
        <ele>494.399993896484375</ele>
        <time>2013-09-01T15:13:03.000Z</time>
        <extensions>
          <ns3:TrackPointExtension>
            <ns3:atemp>19.0</ns3:atemp>
          </ns3:TrackPointExtension>
        </extensions>
      </trkpt>
      <trkpt lat="46.75238379277288913726806640625" lon="6.85202001594007015228271484375">
        <ele>494.600006103515625</ele>
        <time>2013-09-01T15:13:04.000Z</time>
        <extensions>
          <ns3:TrackPointExtension>
            <ns3:atemp>19.0</ns3:atemp>
          </ns3:TrackPointExtension>
        </extensions>
      </trkpt>
      <trkpt lat="46.752383373677730560302734375" lon="6.8520729057490825653076171875">
        <ele>494.79998779296875</ele>
        <time>2013-09-01T15:13:05.000Z</time>
        <extensions>
          <ns3:TrackPointExtension>
            <ns3:atemp>19.0</ns3:atemp>
          </ns3:TrackPointExtension>
        </extensions>
      </trkpt>
      <trkpt lat="46.7523850500583648681640625" lon="6.85212294571101665496826171875">
        <ele>495</ele>
        <time>2013-09-01T15:13:06.000Z</time>
        <extensions>
          <ns3:TrackPointExtension>
            <ns3:atemp>19.0</ns3:atemp>
          </ns3:TrackPointExtension>
        </extensions>
      </trkpt>
      <trkpt lat="46.75238345749676227569580078125" lon="6.852172650396823883056640625">
        <ele>495.20001220703125</ele>
        <time>2013-09-01T15:13:07.000Z</time>
        <extensions>
          <ns3:TrackPointExtension>
            <ns3:atemp>19.0</ns3:atemp>
          </ns3:TrackPointExtension>
        </extensions>
      </trkpt>
      <trkpt lat="46.75238412804901599884033203125" lon="6.8522217683494091033935546875">
        <ele>495.399993896484375</ele>
        <time>2013-09-01T15:13:08.000Z</time>
        <extensions>
          <ns3:TrackPointExtension>
            <ns3:atemp>19.0</ns3:atemp>
          </ns3:TrackPointExtension>
        </extensions>
      </trkpt>
      <trkpt lat="46.75238597206771373748779296875" lon="6.8522727303206920623779296875">
        <ele>495.399993896484375</ele>
        <time>2013-09-01T15:13:09.000Z</time>
        <extensions>
          <ns3:TrackPointExtension>
            <ns3:atemp>19.0</ns3:atemp>
          </ns3:TrackPointExtension>
        </extensions>
      </trkpt>
      <trkpt lat="46.75238815136253833770751953125" lon="6.85232494957745075225830078125">
        <ele>495.399993896484375</ele>
        <time>2013-09-01T15:13:10.000Z</time>
        <extensions>
          <ns3:TrackPointExtension>
            <ns3:atemp>19.0</ns3:atemp>
          </ns3:TrackPointExtension>
        </extensions>
      </trkpt>
      <trkpt lat="46.752391755580902099609375" lon="6.8523753248155117034912109375">
        <ele>495.600006103515625</ele>
        <time>2013-09-01T15:13:11.000Z</time>
        <extensions>
          <ns3:TrackPointExtension>
            <ns3:atemp>19.0</ns3:atemp>
          </ns3:TrackPointExtension>
        </extensions>
      </trkpt>
      <trkpt lat="46.7523946054279804229736328125" lon="6.85242511332035064697265625">
        <ele>495.79998779296875</ele>
        <time>2013-09-01T15:13:12.000Z</time>
        <extensions>
          <ns3:TrackPointExtension>
            <ns3:atemp>19.0</ns3:atemp>
          </ns3:TrackPointExtension>
        </extensions>
      </trkpt>
      <trkpt lat="46.75239770673215389251708984375" lon="6.8524745665490627288818359375">
        <ele>496</ele>
        <time>2013-09-01T15:13:13.000Z</time>
        <extensions>
          <ns3:TrackPointExtension>
            <ns3:atemp>19.0</ns3:atemp>
          </ns3:TrackPointExtension>
        </extensions>
      </trkpt>
      <trkpt lat="46.75239955075085163116455078125" lon="6.8525238521397113800048828125">
        <ele>496.20001220703125</ele>
        <time>2013-09-01T15:13:14.000Z</time>
        <extensions>
          <ns3:TrackPointExtension>
            <ns3:atemp>19.0</ns3:atemp>
          </ns3:TrackPointExtension>
        </extensions>
      </trkpt>
      <trkpt lat="46.75240022130310535430908203125" lon="6.852572970092296600341796875">
        <ele>496.399993896484375</ele>
        <time>2013-09-01T15:13:15.000Z</time>
        <extensions>
          <ns3:TrackPointExtension>
            <ns3:atemp>19.0</ns3:atemp>
          </ns3:TrackPointExtension>
        </extensions>
      </trkpt>
      <trkpt lat="46.752402484416961669921875" lon="6.85262267477810382843017578125">
        <ele>496.600006103515625</ele>
        <time>2013-09-01T15:13:16.000Z</time>
        <extensions>
          <ns3:TrackPointExtension>
            <ns3:atemp>19.0</ns3:atemp>
          </ns3:TrackPointExtension>
        </extensions>
      </trkpt>
      <trkpt lat="46.7524096928536891937255859375" lon="6.85267045162618160247802734375">
        <ele>497</ele>
        <time>2013-09-01T15:13:17.000Z</time>
        <extensions>
          <ns3:TrackPointExtension>
            <ns3:atemp>19.0</ns3:atemp>
          </ns3:TrackPointExtension>
        </extensions>
      </trkpt>
      <trkpt lat="46.752415560185909271240234375" lon="6.85271906666457653045654296875">
        <ele>497</ele>
        <time>2013-09-01T15:13:18.000Z</time>
        <extensions>
          <ns3:TrackPointExtension>
            <ns3:atemp>19.0</ns3:atemp>
          </ns3:TrackPointExtension>
        </extensions>
      </trkpt>
      <trkpt lat="46.75242184661328792572021484375" lon="6.85276717878878116607666015625">
        <ele>497.20001220703125</ele>
        <time>2013-09-01T15:13:19.000Z</time>
        <extensions>
          <ns3:TrackPointExtension>
            <ns3:atemp>19.0</ns3:atemp>
          </ns3:TrackPointExtension>
        </extensions>
      </trkpt>
      <trkpt lat="46.75243106670677661895751953125" lon="6.85281378217041492462158203125">
        <ele>497</ele>
        <time>2013-09-01T15:13:20.000Z</time>
        <extensions>
          <ns3:TrackPointExtension>
            <ns3:atemp>19.0</ns3:atemp>
          </ns3:TrackPointExtension>
        </extensions>
      </trkpt>
      <trkpt lat="46.75243928097188472747802734375" lon="6.85286256484687328338623046875">
        <ele>497.20001220703125</ele>
        <time>2013-09-01T15:13:21.000Z</time>
        <extensions>
          <ns3:TrackPointExtension>
            <ns3:atemp>19.0</ns3:atemp>
          </ns3:TrackPointExtension>
        </extensions>
      </trkpt>
      <trkpt lat="46.75245051272213459014892578125" lon="6.85291235335171222686767578125">
        <ele>497.399993896484375</ele>
        <time>2013-09-01T15:13:22.000Z</time>
        <extensions>
          <ns3:TrackPointExtension>
            <ns3:atemp>19.0</ns3:atemp>
          </ns3:TrackPointExtension>
        </extensions>
      </trkpt>
      <trkpt lat="46.75246073864400386810302734375" lon="6.85296264477074146270751953125">
        <ele>497.600006103515625</ele>
        <time>2013-09-01T15:13:23.000Z</time>
        <extensions>
          <ns3:TrackPointExtension>
            <ns3:atemp>19.0</ns3:atemp>
          </ns3:TrackPointExtension>
        </extensions>
      </trkpt>
      <trkpt lat="46.7524703778326511383056640625" lon="6.85301293618977069854736328125">
        <ele>497.600006103515625</ele>
        <time>2013-09-01T15:13:24.000Z</time>
        <extensions>
          <ns3:TrackPointExtension>
            <ns3:atemp>19.0</ns3:atemp>
          </ns3:TrackPointExtension>
        </extensions>
      </trkpt>
      <trkpt lat="46.7524777539074420928955078125" lon="6.85306339524686336517333984375">
        <ele>497.79998779296875</ele>
        <time>2013-09-01T15:13:25.000Z</time>
        <extensions>
          <ns3:TrackPointExtension>
            <ns3:atemp>19.0</ns3:atemp>
          </ns3:TrackPointExtension>
        </extensions>
      </trkpt>
      <trkpt lat="46.7524869740009307861328125" lon="6.85311201028525829315185546875">
        <ele>497.79998779296875</ele>
        <time>2013-09-01T15:13:26.000Z</time>
        <extensions>
          <ns3:TrackPointExtension>
            <ns3:atemp>19.0</ns3:atemp>
          </ns3:TrackPointExtension>
        </extensions>
      </trkpt>
      <trkpt lat="46.752493679523468017578125" lon="6.85316163115203380584716796875">
        <ele>498.20001220703125</ele>
        <time>2013-09-01T15:13:27.000Z</time>
        <extensions>
          <ns3:TrackPointExtension>
            <ns3:atemp>19.0</ns3:atemp>
          </ns3:TrackPointExtension>
        </extensions>
      </trkpt>
      <trkpt lat="46.75250281579792499542236328125" lon="6.853207647800445556640625">
        <ele>498.399993896484375</ele>
        <time>2013-09-01T15:13:28.000Z</time>
        <extensions>
          <ns3:TrackPointExtension>
            <ns3:atemp>19.0</ns3:atemp>
          </ns3:TrackPointExtension>
        </extensions>
      </trkpt>
      <trkpt lat="46.75251170061528682708740234375" lon="6.8532520718872547149658203125">
        <ele>498.79998779296875</ele>
        <time>2013-09-01T15:13:29.000Z</time>
        <extensions>
          <ns3:TrackPointExtension>
            <ns3:atemp>19.0</ns3:atemp>
          </ns3:TrackPointExtension>
        </extensions>
      </trkpt>
      <trkpt lat="46.75251924432814121246337890625" lon="6.8532980047166347503662109375">
        <ele>499</ele>
        <time>2013-09-01T15:13:30.000Z</time>
        <extensions>
          <ns3:TrackPointExtension>
            <ns3:atemp>19.0</ns3:atemp>
          </ns3:TrackPointExtension>
        </extensions>
      </trkpt>
      <trkpt lat="46.752525866031646728515625" lon="6.853342764079570770263671875">
        <ele>499.20001220703125</ele>
        <time>2013-09-01T15:13:31.000Z</time>
        <extensions>
          <ns3:TrackPointExtension>
            <ns3:atemp>19.0</ns3:atemp>
          </ns3:TrackPointExtension>
        </extensions>
      </trkpt>
      <trkpt lat="46.752533577382564544677734375" lon="6.8533881939947605133056640625">
        <ele>499.600006103515625</ele>
        <time>2013-09-01T15:13:32.000Z</time>
        <extensions>
          <ns3:TrackPointExtension>
            <ns3:atemp>19.0</ns3:atemp>
          </ns3:TrackPointExtension>
        </extensions>
      </trkpt>
      <trkpt lat="46.75254086963832378387451171875" lon="6.85343219898641109466552734375">
        <ele>499.79998779296875</ele>
        <time>2013-09-01T15:13:33.000Z</time>
        <extensions>
          <ns3:TrackPointExtension>
            <ns3:atemp>19.0</ns3:atemp>
          </ns3:TrackPointExtension>
        </extensions>
      </trkpt>
      <trkpt lat="46.75254589878022670745849609375" lon="6.8534750305116176605224609375">
        <ele>500</ele>
        <time>2013-09-01T15:13:34.000Z</time>
        <extensions>
          <ns3:TrackPointExtension>
            <ns3:atemp>19.0</ns3:atemp>
          </ns3:TrackPointExtension>
        </extensions>
      </trkpt>
      <trkpt lat="46.75255260430276393890380859375" lon="6.85351987369358539581298828125">
        <ele>500.20001220703125</ele>
        <time>2013-09-01T15:13:35.000Z</time>
        <extensions>
          <ns3:TrackPointExtension>
            <ns3:atemp>19.0</ns3:atemp>
          </ns3:TrackPointExtension>
        </extensions>
      </trkpt>
      <trkpt lat="46.75256006419658660888671875" lon="6.85356505215167999267578125">
        <ele>500.600006103515625</ele>
        <time>2013-09-01T15:13:36.000Z</time>
        <extensions>
          <ns3:TrackPointExtension>
            <ns3:atemp>19.0</ns3:atemp>
          </ns3:TrackPointExtension>
        </extensions>
      </trkpt>
      <trkpt lat="46.752563081681728363037109375" lon="6.85361207462847232818603515625">
        <ele>500.79998779296875</ele>
        <time>2013-09-01T15:13:37.000Z</time>
        <extensions>
          <ns3:TrackPointExtension>
            <ns3:atemp>19.0</ns3:atemp>
          </ns3:TrackPointExtension>
        </extensions>
      </trkpt>
      <trkpt lat="46.75256651826202869415283203125" lon="6.85365951620042324066162109375">
        <ele>501</ele>
        <time>2013-09-01T15:13:38.000Z</time>
        <extensions>
          <ns3:TrackPointExtension>
            <ns3:atemp>19.0</ns3:atemp>
          </ns3:TrackPointExtension>
        </extensions>
      </trkpt>
      <trkpt lat="46.75257205031812191009521484375" lon="6.85370452702045440673828125">
        <ele>501.20001220703125</ele>
        <time>2013-09-01T15:13:39.000Z</time>
        <extensions>
          <ns3:TrackPointExtension>
            <ns3:atemp>19.0</ns3:atemp>
          </ns3:TrackPointExtension>
        </extensions>
      </trkpt>
      <trkpt lat="46.7525786720216274261474609375" lon="6.85374819673597812652587890625">
        <ele>501.20001220703125</ele>
        <time>2013-09-01T15:13:40.000Z</time>
        <extensions>
          <ns3:TrackPointExtension>
            <ns3:atemp>19.0</ns3:atemp>
          </ns3:TrackPointExtension>
        </extensions>
      </trkpt>
      <trkpt lat="46.7525843717157840728759765625" lon="6.853791363537311553955078125">
        <ele>501.399993896484375</ele>
        <time>2013-09-01T15:13:41.000Z</time>
        <extensions>
          <ns3:TrackPointExtension>
            <ns3:atemp>19.0</ns3:atemp>
          </ns3:TrackPointExtension>
        </extensions>
      </trkpt>
      <trkpt lat="46.75259149633347988128662109375" lon="6.85383486561477184295654296875">
        <ele>501.600006103515625</ele>
        <time>2013-09-01T15:13:42.000Z</time>
        <extensions>
          <ns3:TrackPointExtension>
            <ns3:atemp>19.0</ns3:atemp>
          </ns3:TrackPointExtension>
        </extensions>
      </trkpt>
      <trkpt lat="46.7526021413505077362060546875" lon="6.8538776971399784088134765625">
        <ele>501.79998779296875</ele>
        <time>2013-09-01T15:13:43.000Z</time>
        <extensions>
          <ns3:TrackPointExtension>
            <ns3:atemp>19.0</ns3:atemp>
          </ns3:TrackPointExtension>
        </extensions>
      </trkpt>
      <trkpt lat="46.75261211581528186798095703125" lon="6.85392254032194614410400390625">
        <ele>502</ele>
        <time>2013-09-01T15:13:44.000Z</time>
        <extensions>
          <ns3:TrackPointExtension>
            <ns3:atemp>19.0</ns3:atemp>
          </ns3:TrackPointExtension>
        </extensions>
      </trkpt>
      <trkpt lat="46.75262309610843658447265625" lon="6.853965707123279571533203125">
        <ele>502</ele>
        <time>2013-09-01T15:13:45.000Z</time>
        <extensions>
          <ns3:TrackPointExtension>
            <ns3:atemp>19.0</ns3:atemp>
          </ns3:TrackPointExtension>
        </extensions>
      </trkpt>
      <trkpt lat="46.75263248383998870849609375" lon="6.85400971211493015289306640625">
        <ele>502.20001220703125</ele>
        <time>2013-09-01T15:13:46.000Z</time>
        <extensions>
          <ns3:TrackPointExtension>
            <ns3:atemp>19.0</ns3:atemp>
          </ns3:TrackPointExtension>
        </extensions>
      </trkpt>
      <trkpt lat="46.752638183534145355224609375" lon="6.85405455529689788818359375">
        <ele>502.399993896484375</ele>
        <time>2013-09-01T15:13:47.000Z</time>
        <extensions>
          <ns3:TrackPointExtension>
            <ns3:atemp>19.0</ns3:atemp>
          </ns3:TrackPointExtension>
        </extensions>
      </trkpt>
      <trkpt lat="46.75264664925634860992431640625" lon="6.85410023666918277740478515625">
        <ele>502.600006103515625</ele>
        <time>2013-09-01T15:13:48.000Z</time>
        <extensions>
          <ns3:TrackPointExtension>
            <ns3:atemp>19.0</ns3:atemp>
          </ns3:TrackPointExtension>
        </extensions>
      </trkpt>
      <trkpt lat="46.7526547797024250030517578125" lon="6.85414373874664306640625">
        <ele>502.79998779296875</ele>
        <time>2013-09-01T15:13:49.000Z</time>
        <extensions>
          <ns3:TrackPointExtension>
            <ns3:atemp>19.0</ns3:atemp>
          </ns3:TrackPointExtension>
        </extensions>
      </trkpt>
      <trkpt lat="46.75266475416719913482666015625" lon="6.85418690554797649383544921875">
        <ele>503</ele>
        <time>2013-09-01T15:13:50.000Z</time>
        <extensions>
          <ns3:TrackPointExtension>
            <ns3:atemp>19.0</ns3:atemp>
          </ns3:TrackPointExtension>
        </extensions>
      </trkpt>
      <trkpt lat="46.75267430953681468963623046875" lon="6.85423032380640506744384765625">
        <ele>503.20001220703125</ele>
        <time>2013-09-01T15:13:51.000Z</time>
        <extensions>
          <ns3:TrackPointExtension>
            <ns3:atemp>19.0</ns3:atemp>
          </ns3:TrackPointExtension>
        </extensions>
      </trkpt>
      <trkpt lat="46.752681098878383636474609375" lon="6.854273490607738494873046875">
        <ele>503.399993896484375</ele>
        <time>2013-09-01T15:13:52.000Z</time>
        <extensions>
          <ns3:TrackPointExtension>
            <ns3:atemp>19.0</ns3:atemp>
          </ns3:TrackPointExtension>
        </extensions>
      </trkpt>
      <trkpt lat="46.75268956460058689117431640625" lon="6.8543199263513088226318359375">
        <ele>503.399993896484375</ele>
        <time>2013-09-01T15:13:53.000Z</time>
        <extensions>
          <ns3:TrackPointExtension>
            <ns3:atemp>19.0</ns3:atemp>
          </ns3:TrackPointExtension>
        </extensions>
      </trkpt>
      <trkpt lat="46.7527000419795513153076171875" lon="6.85436510480940341949462890625">
        <ele>503.600006103515625</ele>
        <time>2013-09-01T15:13:54.000Z</time>
        <extensions>
          <ns3:TrackPointExtension>
            <ns3:atemp>19.0</ns3:atemp>
          </ns3:TrackPointExtension>
        </extensions>
      </trkpt>
      <trkpt lat="46.7527095973491668701171875" lon="6.85441128909587860107421875">
        <ele>504</ele>
        <time>2013-09-01T15:13:55.000Z</time>
        <extensions>
          <ns3:TrackPointExtension>
            <ns3:atemp>19.0</ns3:atemp>
          </ns3:TrackPointExtension>
        </extensions>
      </trkpt>
      <trkpt lat="46.75271839834749698638916015625" lon="6.85445764102041721343994140625">
        <ele>504.399993896484375</ele>
        <time>2013-09-01T15:13:56.000Z</time>
        <extensions>
          <ns3:TrackPointExtension>
            <ns3:atemp>19.0</ns3:atemp>
          </ns3:TrackPointExtension>
        </extensions>
      </trkpt>
      <trkpt lat="46.75273063592612743377685546875" lon="6.85450223274528980255126953125">
        <ele>504.600006103515625</ele>
        <time>2013-09-01T15:13:57.000Z</time>
        <extensions>
          <ns3:TrackPointExtension>
            <ns3:atemp>19.0</ns3:atemp>
          </ns3:TrackPointExtension>
        </extensions>
      </trkpt>
      <trkpt lat="46.75274245440959930419921875" lon="6.85454531572759151458740234375">
        <ele>504.79998779296875</ele>
        <time>2013-09-01T15:13:58.000Z</time>
        <extensions>
          <ns3:TrackPointExtension>
            <ns3:atemp>19.0</ns3:atemp>
          </ns3:TrackPointExtension>
        </extensions>
      </trkpt>
      <trkpt lat="46.75275242887437343597412109375" lon="6.85459024272859096527099609375">
        <ele>505</ele>
        <time>2013-09-01T15:13:59.000Z</time>
        <extensions>
          <ns3:TrackPointExtension>
            <ns3:atemp>19.0</ns3:atemp>
          </ns3:TrackPointExtension>
        </extensions>
      </trkpt>
      <trkpt lat="46.7527607269585132598876953125" lon="6.8546359241008758544921875">
        <ele>505.399993896484375</ele>
        <time>2013-09-01T15:14:00.000Z</time>
        <extensions>
          <ns3:TrackPointExtension>
            <ns3:atemp>19.0</ns3:atemp>
          </ns3:TrackPointExtension>
        </extensions>
      </trkpt>
      <trkpt lat="46.75276936031877994537353515625" lon="6.85468059964478015899658203125">
        <ele>505.600006103515625</ele>
        <time>2013-09-01T15:14:01.000Z</time>
        <extensions>
          <ns3:TrackPointExtension>
            <ns3:atemp>19.0</ns3:atemp>
          </ns3:TrackPointExtension>
        </extensions>
      </trkpt>
      <trkpt lat="46.75277623347938060760498046875" lon="6.85472301207482814788818359375">
        <ele>506</ele>
        <time>2013-09-01T15:14:02.000Z</time>
        <extensions>
          <ns3:TrackPointExtension>
            <ns3:atemp>19.0</ns3:atemp>
          </ns3:TrackPointExtension>
        </extensions>
      </trkpt>
      <trkpt lat="46.7527808435261249542236328125" lon="6.85476609505712985992431640625">
        <ele>506.20001220703125</ele>
        <time>2013-09-01T15:14:03.000Z</time>
        <extensions>
          <ns3:TrackPointExtension>
            <ns3:atemp>19.0</ns3:atemp>
          </ns3:TrackPointExtension>
        </extensions>
      </trkpt>
      <trkpt lat="46.75278679467737674713134765625" lon="6.8548087589442729949951171875">
        <ele>506.399993896484375</ele>
        <time>2013-09-01T15:14:04.000Z</time>
        <extensions>
          <ns3:TrackPointExtension>
            <ns3:atemp>19.0</ns3:atemp>
          </ns3:TrackPointExtension>
        </extensions>
      </trkpt>
      <trkpt lat="46.7527976073324680328369140625" lon="6.85485091991722583770751953125">
        <ele>506.399993896484375</ele>
        <time>2013-09-01T15:14:05.000Z</time>
        <extensions>
          <ns3:TrackPointExtension>
            <ns3:atemp>19.0</ns3:atemp>
          </ns3:TrackPointExtension>
        </extensions>
      </trkpt>
      <trkpt lat="46.75280925817787647247314453125" lon="6.854892075061798095703125">
        <ele>506.600006103515625</ele>
        <time>2013-09-01T15:14:06.000Z</time>
        <extensions>
          <ns3:TrackPointExtension>
            <ns3:atemp>19.0</ns3:atemp>
          </ns3:TrackPointExtension>
        </extensions>
      </trkpt>
      <trkpt lat="46.75281981937587261199951171875" lon="6.85493138618767261505126953125">
        <ele>506.79998779296875</ele>
        <time>2013-09-01T15:14:07.000Z</time>
        <extensions>
          <ns3:TrackPointExtension>
            <ns3:atemp>19.0</ns3:atemp>
          </ns3:TrackPointExtension>
        </extensions>
      </trkpt>
      <trkpt lat="46.7528287880122661590576171875" lon="6.85497413389384746551513671875">
        <ele>507</ele>
        <time>2013-09-01T15:14:08.000Z</time>
        <extensions>
          <ns3:TrackPointExtension>
            <ns3:atemp>19.0</ns3:atemp>
          </ns3:TrackPointExtension>
        </extensions>
      </trkpt>
      <trkpt lat="46.75283356569707393646240234375" lon="6.85501654632389545440673828125">
        <ele>507.20001220703125</ele>
        <time>2013-09-01T15:14:09.000Z</time>
        <extensions>
          <ns3:TrackPointExtension>
            <ns3:atemp>19.0</ns3:atemp>
          </ns3:TrackPointExtension>
        </extensions>
      </trkpt>
      <trkpt lat="46.75283859483897686004638671875" lon="6.85505946166813373565673828125">
        <ele>507.399993896484375</ele>
        <time>2013-09-01T15:14:10.000Z</time>
        <extensions>
          <ns3:TrackPointExtension>
            <ns3:atemp>19.0</ns3:atemp>
          </ns3:TrackPointExtension>
        </extensions>
      </trkpt>
      <trkpt lat="46.7528445459902286529541015625" lon="6.85509927570819854736328125">
        <ele>507.79998779296875</ele>
        <time>2013-09-01T15:14:11.000Z</time>
        <extensions>
          <ns3:TrackPointExtension>
            <ns3:atemp>19.0</ns3:atemp>
          </ns3:TrackPointExtension>
        </extensions>
      </trkpt>
      <trkpt lat="46.752853095531463623046875" lon="6.855140514671802520751953125">
        <ele>508.20001220703125</ele>
        <time>2013-09-01T15:14:12.000Z</time>
        <extensions>
          <ns3:TrackPointExtension>
            <ns3:atemp>19.0</ns3:atemp>
          </ns3:TrackPointExtension>
        </extensions>
      </trkpt>
      <trkpt lat="46.75285778939723968505859375" lon="6.85518242418766021728515625">
        <ele>508.399993896484375</ele>
        <time>2013-09-01T15:14:13.000Z</time>
        <extensions>
          <ns3:TrackPointExtension>
            <ns3:atemp>19.0</ns3:atemp>
          </ns3:TrackPointExtension>
        </extensions>
      </trkpt>
      <trkpt lat="46.7528596334159374237060546875" lon="6.85522265732288360595703125">
        <ele>508.600006103515625</ele>
        <time>2013-09-01T15:14:14.000Z</time>
        <extensions>
          <ns3:TrackPointExtension>
            <ns3:atemp>19.0</ns3:atemp>
          </ns3:TrackPointExtension>
        </extensions>
      </trkpt>
      <trkpt lat="46.752859465777873992919921875" lon="6.8552627228200435638427734375">
        <ele>509</ele>
        <time>2013-09-01T15:14:15.000Z</time>
        <extensions>
          <ns3:TrackPointExtension>
            <ns3:atemp>19.0</ns3:atemp>
          </ns3:TrackPointExtension>
        </extensions>
      </trkpt>
      <trkpt lat="46.75286223180592060089111328125" lon="6.85530941002070903778076171875">
        <ele>509.20001220703125</ele>
        <time>2013-09-01T15:14:16.000Z</time>
        <extensions>
          <ns3:TrackPointExtension>
            <ns3:atemp>19.0</ns3:atemp>
          </ns3:TrackPointExtension>
        </extensions>
      </trkpt>
      <trkpt lat="46.75286558456718921661376953125" lon="6.855350397527217864990234375">
        <ele>509.600006103515625</ele>
        <time>2013-09-01T15:14:17.000Z</time>
        <extensions>
          <ns3:TrackPointExtension>
            <ns3:atemp>19.0</ns3:atemp>
          </ns3:TrackPointExtension>
        </extensions>
      </trkpt>
      <trkpt lat="46.75287111662328243255615234375" lon="6.8553877808153629302978515625">
        <ele>510.20001220703125</ele>
        <time>2013-09-01T15:14:18.000Z</time>
        <extensions>
          <ns3:TrackPointExtension>
            <ns3:atemp>19.0</ns3:atemp>
          </ns3:TrackPointExtension>
        </extensions>
      </trkpt>
      <trkpt lat="46.7528758943080902099609375" lon="6.85542709194123744964599609375">
        <ele>510.399993896484375</ele>
        <time>2013-09-01T15:14:19.000Z</time>
        <extensions>
          <ns3:TrackPointExtension>
            <ns3:atemp>19.0</ns3:atemp>
          </ns3:TrackPointExtension>
        </extensions>
      </trkpt>
      <trkpt lat="46.752880252897739410400390625" lon="6.85546514578163623809814453125">
        <ele>510.79998779296875</ele>
        <time>2013-09-01T15:14:20.000Z</time>
        <extensions>
          <ns3:TrackPointExtension>
            <ns3:atemp>19.0</ns3:atemp>
          </ns3:TrackPointExtension>
        </extensions>
      </trkpt>
      <trkpt lat="46.752886287868022918701171875" lon="6.85550470836460590362548828125">
        <ele>511.20001220703125</ele>
        <time>2013-09-01T15:14:21.000Z</time>
        <extensions>
          <ns3:TrackPointExtension>
            <ns3:atemp>19.0</ns3:atemp>
          </ns3:TrackPointExtension>
        </extensions>
      </trkpt>
      <trkpt lat="46.75289391539990901947021484375" lon="6.855541504919528961181640625">
        <ele>511.399993896484375</ele>
        <time>2013-09-01T15:14:22.000Z</time>
        <extensions>
          <ns3:TrackPointExtension>
            <ns3:atemp>19.0</ns3:atemp>
          </ns3:TrackPointExtension>
        </extensions>
      </trkpt>
      <trkpt lat="46.75290145911276340484619140625" lon="6.85557930730283260345458984375">
        <ele>511.600006103515625</ele>
        <time>2013-09-01T15:14:23.000Z</time>
        <extensions>
          <ns3:TrackPointExtension>
            <ns3:atemp>19.0</ns3:atemp>
          </ns3:TrackPointExtension>
        </extensions>
      </trkpt>
      <trkpt lat="46.75290917046368122100830078125" lon="6.85561551712453365325927734375">
        <ele>511.600006103515625</ele>
        <time>2013-09-01T15:14:24.000Z</time>
        <extensions>
          <ns3:TrackPointExtension>
            <ns3:atemp>19.0</ns3:atemp>
          </ns3:TrackPointExtension>
        </extensions>
      </trkpt>
      <trkpt lat="46.7529161274433135986328125" lon="6.8556497991085052490234375">
        <ele>511.79998779296875</ele>
        <time>2013-09-01T15:14:25.000Z</time>
        <extensions>
          <ns3:TrackPointExtension>
            <ns3:atemp>19.0</ns3:atemp>
          </ns3:TrackPointExtension>
        </extensions>
      </trkpt>
      <trkpt lat="46.752921827137470245361328125" lon="6.85568726621568202972412109375">
        <ele>512</ele>
        <time>2013-09-01T15:14:26.000Z</time>
        <extensions>
          <ns3:TrackPointExtension>
            <ns3:atemp>19.0</ns3:atemp>
          </ns3:TrackPointExtension>
        </extensions>
      </trkpt>
      <trkpt lat="46.75292710773646831512451171875" lon="6.85572448186576366424560546875">
        <ele>512.4000244140625</ele>
        <time>2013-09-01T15:14:27.000Z</time>
        <extensions>
          <ns3:TrackPointExtension>
            <ns3:atemp>19.0</ns3:atemp>
          </ns3:TrackPointExtension>
        </extensions>
      </trkpt>
      <trkpt lat="46.75293046049773693084716796875" lon="6.85576152987778186798095703125">
        <ele>512.79998779296875</ele>
        <time>2013-09-01T15:14:28.000Z</time>
        <extensions>
          <ns3:TrackPointExtension>
            <ns3:atemp>19.0</ns3:atemp>
          </ns3:TrackPointExtension>
        </extensions>
      </trkpt>
      <trkpt lat="46.75293548963963985443115234375" lon="6.85580025427043437957763671875">
        <ele>513.20001220703125</ele>
        <time>2013-09-01T15:14:29.000Z</time>
        <extensions>
          <ns3:TrackPointExtension>
            <ns3:atemp>19.0</ns3:atemp>
          </ns3:TrackPointExtension>
        </extensions>
      </trkpt>
      <trkpt lat="46.75293984822928905487060546875" lon="6.8558390624821186065673828125">
        <ele>513.4000244140625</ele>
        <time>2013-09-01T15:14:30.000Z</time>
        <extensions>
          <ns3:TrackPointExtension>
            <ns3:atemp>19.0</ns3:atemp>
          </ns3:TrackPointExtension>
        </extensions>
      </trkpt>
      <trkpt lat="46.75294538028538227081298828125" lon="6.85587803833186626434326171875">
        <ele>513.5999755859375</ele>
        <time>2013-09-01T15:14:31.000Z</time>
        <extensions>
          <ns3:TrackPointExtension>
            <ns3:atemp>19.0</ns3:atemp>
          </ns3:TrackPointExtension>
        </extensions>
      </trkpt>
      <trkpt lat="46.752952001988887786865234375" lon="6.85591659508645534515380859375">
        <ele>513.79998779296875</ele>
        <time>2013-09-01T15:14:32.000Z</time>
        <extensions>
          <ns3:TrackPointExtension>
            <ns3:atemp>19.0</ns3:atemp>
          </ns3:TrackPointExtension>
        </extensions>
      </trkpt>
      <trkpt lat="46.75295895896852016448974609375" lon="6.8559493683278560638427734375">
        <ele>514.20001220703125</ele>
        <time>2013-09-01T15:14:33.000Z</time>
        <extensions>
          <ns3:TrackPointExtension>
            <ns3:atemp>19.0</ns3:atemp>
          </ns3:TrackPointExtension>
        </extensions>
      </trkpt>
      <trkpt lat="46.75296700559556484222412109375" lon="6.855986416339874267578125">
        <ele>514.4000244140625</ele>
        <time>2013-09-01T15:14:34.000Z</time>
        <extensions>
          <ns3:TrackPointExtension>
            <ns3:atemp>19.0</ns3:atemp>
          </ns3:TrackPointExtension>
        </extensions>
      </trkpt>
      <trkpt lat="46.7529732920229434967041015625" lon="6.85602120123803615570068359375">
        <ele>514.79998779296875</ele>
        <time>2013-09-01T15:14:35.000Z</time>
        <extensions>
          <ns3:TrackPointExtension>
            <ns3:atemp>19.0</ns3:atemp>
          </ns3:TrackPointExtension>
        </extensions>
      </trkpt>
      <trkpt lat="46.75297706387937068939208984375" lon="6.8560526333749294281005859375">
        <ele>515</ele>
        <time>2013-09-01T15:14:36.000Z</time>
        <extensions>
          <ns3:TrackPointExtension>
            <ns3:atemp>19.0</ns3:atemp>
          </ns3:TrackPointExtension>
        </extensions>
      </trkpt>
      <trkpt lat="46.75298125483095645904541015625" lon="6.8560848198831081390380859375">
        <ele>515.20001220703125</ele>
        <time>2013-09-01T15:14:37.000Z</time>
        <extensions>
          <ns3:TrackPointExtension>
            <ns3:atemp>19.0</ns3:atemp>
          </ns3:TrackPointExtension>
        </extensions>
      </trkpt>
      <trkpt lat="46.75298427231609821319580078125" lon="6.8561163358390331268310546875">
        <ele>515.5999755859375</ele>
        <time>2013-09-01T15:14:38.000Z</time>
        <extensions>
          <ns3:TrackPointExtension>
            <ns3:atemp>19.0</ns3:atemp>
          </ns3:TrackPointExtension>
        </extensions>
      </trkpt>
      <trkpt lat="46.75298519432544708251953125" lon="6.85614743269979953765869140625">
        <ele>515.79998779296875</ele>
        <time>2013-09-01T15:14:39.000Z</time>
        <extensions>
          <ns3:TrackPointExtension>
            <ns3:atemp>19.0</ns3:atemp>
          </ns3:TrackPointExtension>
        </extensions>
      </trkpt>
      <trkpt lat="46.75298980437219142913818359375" lon="6.8561736680567264556884765625">
        <ele>516</ele>
        <time>2013-09-01T15:14:40.000Z</time>
        <extensions>
          <ns3:TrackPointExtension>
            <ns3:atemp>19.0</ns3:atemp>
          </ns3:TrackPointExtension>
        </extensions>
      </trkpt>
      <trkpt lat="46.752993576228618621826171875" lon="6.85620300471782684326171875">
        <ele>516.4000244140625</ele>
        <time>2013-09-01T15:14:41.000Z</time>
        <extensions>
          <ns3:TrackPointExtension>
            <ns3:atemp>19.0</ns3:atemp>
          </ns3:TrackPointExtension>
        </extensions>
      </trkpt>
      <trkpt lat="46.75299667753279209136962890625" lon="6.85622706077992916107177734375">
        <ele>516.5999755859375</ele>
        <time>2013-09-01T15:14:42.000Z</time>
        <extensions>
          <ns3:TrackPointExtension>
            <ns3:atemp>19.0</ns3:atemp>
          </ns3:TrackPointExtension>
        </extensions>
      </trkpt>
      <trkpt lat="46.7530014552175998687744140625" lon="6.85624935664236545562744140625">
        <ele>516.79998779296875</ele>
        <time>2013-09-01T15:14:43.000Z</time>
        <extensions>
          <ns3:TrackPointExtension>
            <ns3:atemp>19.0</ns3:atemp>
          </ns3:TrackPointExtension>
        </extensions>
      </trkpt>
      <trkpt lat="46.75300707109272480010986328125" lon="6.8562698923051357269287109375">
        <ele>517.4000244140625</ele>
        <time>2013-09-01T15:14:44.000Z</time>
        <extensions>
          <ns3:TrackPointExtension>
            <ns3:atemp>19.0</ns3:atemp>
          </ns3:TrackPointExtension>
        </extensions>
      </trkpt>
      <trkpt lat="46.75301226787269115447998046875" lon="6.856296546757221221923828125">
        <ele>517.79998779296875</ele>
        <time>2013-09-01T15:14:45.000Z</time>
        <extensions>
          <ns3:TrackPointExtension>
            <ns3:atemp>19.0</ns3:atemp>
          </ns3:TrackPointExtension>
        </extensions>
      </trkpt>
      <trkpt lat="46.75301880575716495513916015625" lon="6.85632764361798763275146484375">
        <ele>518</ele>
        <time>2013-09-01T15:14:46.000Z</time>
        <extensions>
          <ns3:TrackPointExtension>
            <ns3:atemp>19.0</ns3:atemp>
          </ns3:TrackPointExtension>
        </extensions>
      </trkpt>
      <trkpt lat="46.75302408635616302490234375" lon="6.85636016540229320526123046875">
        <ele>518.4000244140625</ele>
        <time>2013-09-01T15:14:47.000Z</time>
        <extensions>
          <ns3:TrackPointExtension>
            <ns3:atemp>18.0</ns3:atemp>
          </ns3:TrackPointExtension>
        </extensions>
      </trkpt>
      <trkpt lat="46.75303104333579540252685546875" lon="6.85639352537691593170166015625">
        <ele>518.79998779296875</ele>
        <time>2013-09-01T15:14:48.000Z</time>
        <extensions>
          <ns3:TrackPointExtension>
            <ns3:atemp>18.0</ns3:atemp>
          </ns3:TrackPointExtension>
        </extensions>
      </trkpt>
      <trkpt lat="46.7530356533825397491455078125" lon="6.85642168857157230377197265625">
        <ele>519</ele>
        <time>2013-09-01T15:14:49.000Z</time>
        <extensions>
          <ns3:TrackPointExtension>
            <ns3:atemp>18.0</ns3:atemp>
          </ns3:TrackPointExtension>
        </extensions>
      </trkpt>
      <trkpt lat="46.75303858704864978790283203125" lon="6.85644800774753093719482421875">
        <ele>519.4000244140625</ele>
        <time>2013-09-01T15:14:50.000Z</time>
        <extensions>
          <ns3:TrackPointExtension>
            <ns3:atemp>18.0</ns3:atemp>
          </ns3:TrackPointExtension>
        </extensions>
      </trkpt>
      <trkpt lat="46.75304143689572811126708984375" lon="6.85647449456155300140380859375">
        <ele>519.5999755859375</ele>
        <time>2013-09-01T15:14:51.000Z</time>
        <extensions>
          <ns3:TrackPointExtension>
            <ns3:atemp>18.0</ns3:atemp>
          </ns3:TrackPointExtension>
        </extensions>
      </trkpt>
      <trkpt lat="46.75304361619055271148681640625" lon="6.85650265775620937347412109375">
        <ele>519.79998779296875</ele>
        <time>2013-09-01T15:14:52.000Z</time>
        <extensions>
          <ns3:TrackPointExtension>
            <ns3:atemp>18.0</ns3:atemp>
          </ns3:TrackPointExtension>
        </extensions>
      </trkpt>
      <trkpt lat="46.7530433647334575653076171875" lon="6.85653291642665863037109375">
        <ele>520.20001220703125</ele>
        <time>2013-09-01T15:14:53.000Z</time>
        <extensions>
          <ns3:TrackPointExtension>
            <ns3:atemp>18.0</ns3:atemp>
          </ns3:TrackPointExtension>
        </extensions>
      </trkpt>
      <trkpt lat="46.7530463822185993194580078125" lon="6.85656099580228328704833984375">
        <ele>520.4000244140625</ele>
        <time>2013-09-01T15:14:54.000Z</time>
        <extensions>
          <ns3:TrackPointExtension>
            <ns3:atemp>18.0</ns3:atemp>
          </ns3:TrackPointExtension>
        </extensions>
      </trkpt>
      <trkpt lat="46.75304747186601161956787109375" lon="6.85658865608274936676025390625">
        <ele>520.5999755859375</ele>
        <time>2013-09-01T15:14:55.000Z</time>
        <extensions>
          <ns3:TrackPointExtension>
            <ns3:atemp>18.0</ns3:atemp>
          </ns3:TrackPointExtension>
        </extensions>
      </trkpt>
      <trkpt lat="46.753045879304409027099609375" lon="6.856620423495769500732421875">
        <ele>521</ele>
        <time>2013-09-01T15:14:56.000Z</time>
        <extensions>
          <ns3:TrackPointExtension>
            <ns3:atemp>18.0</ns3:atemp>
          </ns3:TrackPointExtension>
        </extensions>
      </trkpt>
      <trkpt lat="46.75304495729506015777587890625" lon="6.856648586690425872802734375">
        <ele>521.20001220703125</ele>
        <time>2013-09-01T15:14:57.000Z</time>
        <extensions>
          <ns3:TrackPointExtension>
            <ns3:atemp>18.0</ns3:atemp>
          </ns3:TrackPointExtension>
        </extensions>
      </trkpt>
      <trkpt lat="46.75303556956350803375244140625" lon="6.8566839583218097686767578125">
        <ele>521.5999755859375</ele>
        <time>2013-09-01T15:14:58.000Z</time>
        <extensions>
          <ns3:TrackPointExtension>
            <ns3:atemp>18.0</ns3:atemp>
          </ns3:TrackPointExtension>
        </extensions>
      </trkpt>
      <trkpt lat="46.75302852876484394073486328125" lon="6.85671321116387844085693359375">
        <ele>522</ele>
        <time>2013-09-01T15:14:59.000Z</time>
        <extensions>
          <ns3:TrackPointExtension>
            <ns3:atemp>18.0</ns3:atemp>
          </ns3:TrackPointExtension>
        </extensions>
      </trkpt>
      <trkpt lat="46.7530195601284503936767578125" lon="6.8567372672259807586669921875">
        <ele>522.20001220703125</ele>
        <time>2013-09-01T15:15:00.000Z</time>
        <extensions>
          <ns3:TrackPointExtension>
            <ns3:atemp>18.0</ns3:atemp>
          </ns3:TrackPointExtension>
        </extensions>
      </trkpt>
      <trkpt lat="46.75300975330173969268798828125" lon="6.8567738123238086700439453125">
        <ele>522.5999755859375</ele>
        <time>2013-09-01T15:15:01.000Z</time>
        <extensions>
          <ns3:TrackPointExtension>
            <ns3:atemp>18.0</ns3:atemp>
          </ns3:TrackPointExtension>
        </extensions>
      </trkpt>
      <trkpt lat="46.753008328378200531005859375" lon="6.8568120338022708892822265625">
        <ele>522.79998779296875</ele>
        <time>2013-09-01T15:15:02.000Z</time>
        <extensions>
          <ns3:TrackPointExtension>
            <ns3:atemp>18.0</ns3:atemp>
          </ns3:TrackPointExtension>
        </extensions>
      </trkpt>
      <trkpt lat="46.75300925038754940032958984375" lon="6.856847740709781646728515625">
        <ele>523.20001220703125</ele>
        <time>2013-09-01T15:15:03.000Z</time>
        <extensions>
          <ns3:TrackPointExtension>
            <ns3:atemp>18.0</ns3:atemp>
          </ns3:TrackPointExtension>
        </extensions>
      </trkpt>
      <trkpt lat="46.75300723873078823089599609375" lon="6.85688369907438755035400390625">
        <ele>523.4000244140625</ele>
        <time>2013-09-01T15:15:04.000Z</time>
        <extensions>
          <ns3:TrackPointExtension>
            <ns3:atemp>18.0</ns3:atemp>
          </ns3:TrackPointExtension>
        </extensions>
      </trkpt>
      <trkpt lat="46.7530058138072490692138671875" lon="6.85691420920193195343017578125">
        <ele>523.5999755859375</ele>
        <time>2013-09-01T15:15:05.000Z</time>
        <extensions>
          <ns3:TrackPointExtension>
            <ns3:atemp>18.0</ns3:atemp>
          </ns3:TrackPointExtension>
        </extensions>
      </trkpt>
      <trkpt lat="46.75300036557018756866455078125" lon="6.8569372594356536865234375">
        <ele>523.79998779296875</ele>
        <time>2013-09-01T15:15:06.000Z</time>
        <extensions>
          <ns3:TrackPointExtension>
            <ns3:atemp>18.0</ns3:atemp>
          </ns3:TrackPointExtension>
        </extensions>
      </trkpt>
      <trkpt lat="46.75299533642828464508056640625" lon="6.8569625727832317352294921875">
        <ele>524.20001220703125</ele>
        <time>2013-09-01T15:15:07.000Z</time>
        <extensions>
          <ns3:TrackPointExtension>
            <ns3:atemp>18.0</ns3:atemp>
          </ns3:TrackPointExtension>
        </extensions>
      </trkpt>
      <trkpt lat="46.7529944144189357757568359375" lon="6.85698277316987514495849609375">
        <ele>524.79998779296875</ele>
        <time>2013-09-01T15:15:08.000Z</time>
        <extensions>
          <ns3:TrackPointExtension>
            <ns3:atemp>18.0</ns3:atemp>
          </ns3:TrackPointExtension>
        </extensions>
      </trkpt>
      <trkpt lat="46.7529917322099208831787109375" lon="6.85700205154716968536376953125">
        <ele>525.20001220703125</ele>
        <time>2013-09-01T15:15:09.000Z</time>
        <extensions>
          <ns3:TrackPointExtension>
            <ns3:atemp>18.0</ns3:atemp>
          </ns3:TrackPointExtension>
        </extensions>
      </trkpt>
      <trkpt lat="46.7529893852770328521728515625" lon="6.85702049173414707183837890625">
        <ele>525.5999755859375</ele>
        <time>2013-09-01T15:15:10.000Z</time>
        <extensions>
          <ns3:TrackPointExtension>
            <ns3:atemp>18.0</ns3:atemp>
          </ns3:TrackPointExtension>
        </extensions>
      </trkpt>
      <trkpt lat="46.752987205982208251953125" lon="6.85704312287271022796630859375">
        <ele>526</ele>
        <time>2013-09-01T15:15:11.000Z</time>
        <extensions>
          <ns3:TrackPointExtension>
            <ns3:atemp>18.0</ns3:atemp>
          </ns3:TrackPointExtension>
        </extensions>
      </trkpt>
      <trkpt lat="46.7529843561351299285888671875" lon="6.8570658378303050994873046875">
        <ele>526.20001220703125</ele>
        <time>2013-09-01T15:15:12.000Z</time>
        <extensions>
          <ns3:TrackPointExtension>
            <ns3:atemp>18.0</ns3:atemp>
          </ns3:TrackPointExtension>
        </extensions>
      </trkpt>
      <trkpt lat="46.75297957845032215118408203125" lon="6.85708939097821712493896484375">
        <ele>526.5999755859375</ele>
        <time>2013-09-01T15:15:13.000Z</time>
        <extensions>
          <ns3:TrackPointExtension>
            <ns3:atemp>18.0</ns3:atemp>
          </ns3:TrackPointExtension>
        </extensions>
      </trkpt>
      <trkpt lat="46.752976477146148681640625" lon="6.85711118392646312713623046875">
        <ele>527</ele>
        <time>2013-09-01T15:15:14.000Z</time>
        <extensions>
          <ns3:TrackPointExtension>
            <ns3:atemp>18.0</ns3:atemp>
          </ns3:TrackPointExtension>
        </extensions>
      </trkpt>
      <trkpt lat="46.752971112728118896484375" lon="6.85713549144566059112548828125">
        <ele>527.4000244140625</ele>
        <time>2013-09-01T15:15:15.000Z</time>
        <extensions>
          <ns3:TrackPointExtension>
            <ns3:atemp>18.0</ns3:atemp>
          </ns3:TrackPointExtension>
        </extensions>
      </trkpt>
      <trkpt lat="46.7529655806720256805419921875" lon="6.85715979896485805511474609375">
        <ele>527.5999755859375</ele>
        <time>2013-09-01T15:15:16.000Z</time>
        <extensions>
          <ns3:TrackPointExtension>
            <ns3:atemp>18.0</ns3:atemp>
          </ns3:TrackPointExtension>
        </extensions>
      </trkpt>
      <trkpt lat="46.752963401377201080322265625" lon="6.85718092136085033416748046875">
        <ele>528</ele>
        <time>2013-09-01T15:15:17.000Z</time>
        <extensions>
          <ns3:TrackPointExtension>
            <ns3:atemp>18.0</ns3:atemp>
          </ns3:TrackPointExtension>
        </extensions>
      </trkpt>
      <trkpt lat="46.75296164117753505706787109375" lon="6.857200451195240020751953125">
        <ele>528.20001220703125</ele>
        <time>2013-09-01T15:15:18.000Z</time>
        <extensions>
          <ns3:TrackPointExtension>
            <ns3:atemp>18.0</ns3:atemp>
          </ns3:TrackPointExtension>
        </extensions>
      </trkpt>
      <trkpt lat="46.7529622279107570648193359375" lon="6.8572204001247882843017578125">
        <ele>528.5999755859375</ele>
        <time>2013-09-01T15:15:19.000Z</time>
        <extensions>
          <ns3:TrackPointExtension>
            <ns3:atemp>18.0</ns3:atemp>
          </ns3:TrackPointExtension>
        </extensions>
      </trkpt>
      <trkpt lat="46.7529568634927272796630859375" lon="6.85724261216819286346435546875">
        <ele>529</ele>
        <time>2013-09-01T15:15:20.000Z</time>
        <extensions>
          <ns3:TrackPointExtension>
            <ns3:atemp>18.0</ns3:atemp>
          </ns3:TrackPointExtension>
        </extensions>
      </trkpt>
      <trkpt lat="46.75295166671276092529296875" lon="6.85726574622094631195068359375">
        <ele>529.4000244140625</ele>
        <time>2013-09-01T15:15:21.000Z</time>
        <extensions>
          <ns3:TrackPointExtension>
            <ns3:atemp>18.0</ns3:atemp>
          </ns3:TrackPointExtension>
        </extensions>
      </trkpt>
      <trkpt lat="46.752946637570858001708984375" lon="6.85729156248271465301513671875">
        <ele>529.79998779296875</ele>
        <time>2013-09-01T15:15:22.000Z</time>
        <extensions>
          <ns3:TrackPointExtension>
            <ns3:atemp>18.0</ns3:atemp>
          </ns3:TrackPointExtension>
        </extensions>
      </trkpt>
      <trkpt lat="46.7529431171715259552001953125" lon="6.85731704346835613250732421875">
        <ele>530</ele>
        <time>2013-09-01T15:15:23.000Z</time>
        <extensions>
          <ns3:TrackPointExtension>
            <ns3:atemp>18.0</ns3:atemp>
          </ns3:TrackPointExtension>
        </extensions>
      </trkpt>
      <trkpt lat="46.7529429495334625244140625" lon="6.85734755359590053558349609375">
        <ele>530.4000244140625</ele>
        <time>2013-09-01T15:15:24.000Z</time>
        <extensions>
          <ns3:TrackPointExtension>
            <ns3:atemp>18.0</ns3:atemp>
          </ns3:TrackPointExtension>
        </extensions>
      </trkpt>
      <trkpt lat="46.7529367469251155853271484375" lon="6.85737915337085723876953125">
        <ele>530.5999755859375</ele>
        <time>2013-09-01T15:15:25.000Z</time>
        <extensions>
          <ns3:TrackPointExtension>
            <ns3:atemp>18.0</ns3:atemp>
          </ns3:TrackPointExtension>
        </extensions>
      </trkpt>
      <trkpt lat="46.7529287002980709075927734375" lon="6.8574121780693531036376953125">
        <ele>531</ele>
        <time>2013-09-01T15:15:26.000Z</time>
        <extensions>
          <ns3:TrackPointExtension>
            <ns3:atemp>18.0</ns3:atemp>
          </ns3:TrackPointExtension>
        </extensions>
      </trkpt>
      <trkpt lat="46.7529236711561679840087890625" lon="6.8574420176446437835693359375">
        <ele>531.4000244140625</ele>
        <time>2013-09-01T15:15:27.000Z</time>
        <extensions>
          <ns3:TrackPointExtension>
            <ns3:atemp>18.0</ns3:atemp>
          </ns3:TrackPointExtension>
        </extensions>
      </trkpt>
      <trkpt lat="46.75291487015783786773681640625" lon="6.857467330992221832275390625">
        <ele>531.79998779296875</ele>
        <time>2013-09-01T15:15:28.000Z</time>
        <extensions>
          <ns3:TrackPointExtension>
            <ns3:atemp>18.0</ns3:atemp>
          </ns3:TrackPointExtension>
        </extensions>
      </trkpt>
      <trkpt lat="46.752905733883380889892578125" lon="6.8574845977127552032470703125">
        <ele>532.20001220703125</ele>
        <time>2013-09-01T15:15:29.000Z</time>
        <extensions>
          <ns3:TrackPointExtension>
            <ns3:atemp>18.0</ns3:atemp>
          </ns3:TrackPointExtension>
        </extensions>
      </trkpt>
      <trkpt lat="46.752899698913097381591796875" lon="6.85750580392777919769287109375">
        <ele>532.5999755859375</ele>
        <time>2013-09-01T15:15:30.000Z</time>
        <extensions>
          <ns3:TrackPointExtension>
            <ns3:atemp>18.0</ns3:atemp>
          </ns3:TrackPointExtension>
        </extensions>
      </trkpt>
      <trkpt lat="46.75288972444832324981689453125" lon="6.85752877034246921539306640625">
        <ele>533</ele>
        <time>2013-09-01T15:15:31.000Z</time>
        <extensions>
          <ns3:TrackPointExtension>
            <ns3:atemp>18.0</ns3:atemp>
          </ns3:TrackPointExtension>
        </extensions>
      </trkpt>
      <trkpt lat="46.7528824321925640106201171875" lon="6.85755089856684207916259765625">
        <ele>533.5999755859375</ele>
        <time>2013-09-01T15:15:32.000Z</time>
        <extensions>
          <ns3:TrackPointExtension>
            <ns3:atemp>18.0</ns3:atemp>
          </ns3:TrackPointExtension>
        </extensions>
      </trkpt>
      <trkpt lat="46.75287782214581966400146484375" lon="6.8575675785541534423828125">
        <ele>533.79998779296875</ele>
        <time>2013-09-01T15:15:33.000Z</time>
        <extensions>
          <ns3:TrackPointExtension>
            <ns3:atemp>18.0</ns3:atemp>
          </ns3:TrackPointExtension>
        </extensions>
      </trkpt>
      <trkpt lat="46.75287245772778987884521484375" lon="6.85758794657886028289794921875">
        <ele>534.20001220703125</ele>
        <time>2013-09-01T15:15:34.000Z</time>
        <extensions>
          <ns3:TrackPointExtension>
            <ns3:atemp>18.0</ns3:atemp>
          </ns3:TrackPointExtension>
        </extensions>
      </trkpt>
      <trkpt lat="46.75285737030208110809326171875" lon="6.8576026149094104766845703125">
        <ele>534.5999755859375</ele>
        <time>2013-09-01T15:15:35.000Z</time>
        <extensions>
          <ns3:TrackPointExtension>
            <ns3:atemp>18.0</ns3:atemp>
          </ns3:TrackPointExtension>
        </extensions>
      </trkpt>
      <trkpt lat="46.75284043885767459869384765625" lon="6.85761518776416778564453125">
        <ele>534.79998779296875</ele>
        <time>2013-09-01T15:15:36.000Z</time>
        <extensions>
          <ns3:TrackPointExtension>
            <ns3:atemp>18.0</ns3:atemp>
          </ns3:TrackPointExtension>
        </extensions>
      </trkpt>
      <trkpt lat="46.752826273441314697265625" lon="6.8576291017234325408935546875">
        <ele>535.20001220703125</ele>
        <time>2013-09-01T15:15:37.000Z</time>
        <extensions>
          <ns3:TrackPointExtension>
            <ns3:atemp>18.0</ns3:atemp>
          </ns3:TrackPointExtension>
        </extensions>
      </trkpt>
      <trkpt lat="46.75281445495784282684326171875" lon="6.85764293186366558074951171875">
        <ele>535.5999755859375</ele>
        <time>2013-09-01T15:15:38.000Z</time>
        <extensions>
          <ns3:TrackPointExtension>
            <ns3:atemp>18.0</ns3:atemp>
          </ns3:TrackPointExtension>
        </extensions>
      </trkpt>
      <trkpt lat="46.7528019659221172332763671875" lon="6.85765533708035945892333984375">
        <ele>535.79998779296875</ele>
        <time>2013-09-01T15:15:39.000Z</time>
        <extensions>
          <ns3:TrackPointExtension>
            <ns3:atemp>18.0</ns3:atemp>
          </ns3:TrackPointExtension>
        </extensions>
      </trkpt>
      <trkpt lat="46.75279182381927967071533203125" lon="6.8576679937541484832763671875">
        <ele>536</ele>
        <time>2013-09-01T15:15:40.000Z</time>
        <extensions>
          <ns3:TrackPointExtension>
            <ns3:atemp>18.0</ns3:atemp>
          </ns3:TrackPointExtension>
        </extensions>
      </trkpt>
      <trkpt lat="46.75277858041226863861083984375" lon="6.85767947696149349212646484375">
        <ele>536.20001220703125</ele>
        <time>2013-09-01T15:15:41.000Z</time>
        <extensions>
          <ns3:TrackPointExtension>
            <ns3:atemp>18.0</ns3:atemp>
          </ns3:TrackPointExtension>
        </extensions>
      </trkpt>
      <trkpt lat="46.752766259014606475830078125" lon="6.85769070871174335479736328125">
        <ele>536.5999755859375</ele>
        <time>2013-09-01T15:15:42.000Z</time>
        <extensions>
          <ns3:TrackPointExtension>
            <ns3:atemp>18.0</ns3:atemp>
          </ns3:TrackPointExtension>
        </extensions>
      </trkpt>
      <trkpt lat="46.752754859626293182373046875" lon="6.85770143754780292510986328125">
        <ele>536.79998779296875</ele>
        <time>2013-09-01T15:15:43.000Z</time>
        <extensions>
          <ns3:TrackPointExtension>
            <ns3:atemp>18.0</ns3:atemp>
          </ns3:TrackPointExtension>
        </extensions>
      </trkpt>
      <trkpt lat="46.75274354405701160430908203125" lon="6.85771577060222625732421875">
        <ele>537.20001220703125</ele>
        <time>2013-09-01T15:15:44.000Z</time>
        <extensions>
          <ns3:TrackPointExtension>
            <ns3:atemp>18.0</ns3:atemp>
          </ns3:TrackPointExtension>
        </extensions>
      </trkpt>
      <trkpt lat="46.75273063592612743377685546875" lon="6.857731528580188751220703125">
        <ele>537.4000244140625</ele>
        <time>2013-09-01T15:15:45.000Z</time>
        <extensions>
          <ns3:TrackPointExtension>
            <ns3:atemp>18.0</ns3:atemp>
          </ns3:TrackPointExtension>
        </extensions>
      </trkpt>
      <trkpt lat="46.75271722488105297088623046875" lon="6.85774971731007099151611328125">
        <ele>537.5999755859375</ele>
        <time>2013-09-01T15:15:46.000Z</time>
        <extensions>
          <ns3:TrackPointExtension>
            <ns3:atemp>18.0</ns3:atemp>
          </ns3:TrackPointExtension>
        </extensions>
      </trkpt>
      <trkpt lat="46.7527054063975811004638671875" lon="6.85777251608669757843017578125">
        <ele>537.79998779296875</ele>
        <time>2013-09-01T15:15:47.000Z</time>
        <extensions>
          <ns3:TrackPointExtension>
            <ns3:atemp>18.0</ns3:atemp>
          </ns3:TrackPointExtension>
        </extensions>
      </trkpt>
      <trkpt lat="46.75269149243831634521484375" lon="6.85779665596783161163330078125">
        <ele>538.20001220703125</ele>
        <time>2013-09-01T15:15:48.000Z</time>
        <extensions>
          <ns3:TrackPointExtension>
            <ns3:atemp>18.0</ns3:atemp>
          </ns3:TrackPointExtension>
        </extensions>
      </trkpt>
      <trkpt lat="46.75267699174582958221435546875" lon="6.85782146640121936798095703125">
        <ele>538.4000244140625</ele>
        <time>2013-09-01T15:15:49.000Z</time>
        <extensions>
          <ns3:TrackPointExtension>
            <ns3:atemp>18.0</ns3:atemp>
          </ns3:TrackPointExtension>
        </extensions>
      </trkpt>
      <trkpt lat="46.7526638321578502655029296875" lon="6.85784862376749515533447265625">
        <ele>538.5999755859375</ele>
        <time>2013-09-01T15:15:50.000Z</time>
        <extensions>
          <ns3:TrackPointExtension>
            <ns3:atemp>18.0</ns3:atemp>
          </ns3:TrackPointExtension>
        </extensions>
      </trkpt>
      <trkpt lat="46.75265050493180751800537109375" lon="6.85787041671574115753173828125">
        <ele>538.79998779296875</ele>
        <time>2013-09-01T15:15:51.000Z</time>
        <extensions>
          <ns3:TrackPointExtension>
            <ns3:atemp>18.0</ns3:atemp>
          </ns3:TrackPointExtension>
        </extensions>
      </trkpt>
      <trkpt lat="46.75263424403965473175048828125" lon="6.85789388604462146759033203125">
        <ele>538.79998779296875</ele>
        <time>2013-09-01T15:15:52.000Z</time>
        <extensions>
          <ns3:TrackPointExtension>
            <ns3:atemp>18.0</ns3:atemp>
          </ns3:TrackPointExtension>
        </extensions>
      </trkpt>
      <trkpt lat="46.75261882133781909942626953125" lon="6.8579164333641529083251953125">
        <ele>539</ele>
        <time>2013-09-01T15:15:53.000Z</time>
        <extensions>
          <ns3:TrackPointExtension>
            <ns3:atemp>18.0</ns3:atemp>
          </ns3:TrackPointExtension>
        </extensions>
      </trkpt>
      <trkpt lat="46.752605997025966644287109375" lon="6.85793864540755748748779296875">
        <ele>539.20001220703125</ele>
        <time>2013-09-01T15:15:54.000Z</time>
        <extensions>
          <ns3:TrackPointExtension>
            <ns3:atemp>18.0</ns3:atemp>
          </ns3:TrackPointExtension>
        </extensions>
      </trkpt>
      <trkpt lat="46.75258764065802097320556640625" lon="6.85796127654612064361572265625">
        <ele>539.4000244140625</ele>
        <time>2013-09-01T15:15:55.000Z</time>
        <extensions>
          <ns3:TrackPointExtension>
            <ns3:atemp>18.0</ns3:atemp>
          </ns3:TrackPointExtension>
        </extensions>
      </trkpt>
      <trkpt lat="46.75256785936653614044189453125" lon="6.85798642225563526153564453125">
        <ele>539.5999755859375</ele>
        <time>2013-09-01T15:15:56.000Z</time>
        <extensions>
          <ns3:TrackPointExtension>
            <ns3:atemp>18.0</ns3:atemp>
          </ns3:TrackPointExtension>
        </extensions>
      </trkpt>
      <trkpt lat="46.75254791043698787689208984375" lon="6.858011148869991302490234375">
        <ele>539.5999755859375</ele>
        <time>2013-09-01T15:15:57.000Z</time>
        <extensions>
          <ns3:TrackPointExtension>
            <ns3:atemp>18.0</ns3:atemp>
          </ns3:TrackPointExtension>
        </extensions>
      </trkpt>
      <trkpt lat="46.7525267042219638824462890625" lon="6.85803738422691822052001953125">
        <ele>539.5999755859375</ele>
        <time>2013-09-01T15:15:58.000Z</time>
        <extensions>
          <ns3:TrackPointExtension>
            <ns3:atemp>18.0</ns3:atemp>
          </ns3:TrackPointExtension>
        </extensions>
      </trkpt>
      <trkpt lat="46.7525045759975910186767578125" lon="6.85806177556514739990234375">
        <ele>539.79998779296875</ele>
        <time>2013-09-01T15:15:59.000Z</time>
        <extensions>
          <ns3:TrackPointExtension>
            <ns3:atemp>18.0</ns3:atemp>
          </ns3:TrackPointExtension>
        </extensions>
      </trkpt>
      <trkpt lat="46.7524814419448375701904296875" lon="6.85808985494077205657958984375">
        <ele>540</ele>
        <time>2013-09-01T15:16:00.000Z</time>
        <extensions>
          <ns3:TrackPointExtension>
            <ns3:atemp>18.0</ns3:atemp>
          </ns3:TrackPointExtension>
        </extensions>
      </trkpt>
      <trkpt lat="46.75245738588273525238037109375" lon="6.858112402260303497314453125">
        <ele>540.20001220703125</ele>
        <time>2013-09-01T15:16:01.000Z</time>
        <extensions>
          <ns3:TrackPointExtension>
            <ns3:atemp>18.0</ns3:atemp>
          </ns3:TrackPointExtension>
        </extensions>
      </trkpt>
      <trkpt lat="46.752428971230983734130859375" lon="6.85813930816948413848876953125">
        <ele>540.4000244140625</ele>
        <time>2013-09-01T15:16:02.000Z</time>
        <extensions>
          <ns3:TrackPointExtension>
            <ns3:atemp>18.0</ns3:atemp>
          </ns3:TrackPointExtension>
        </extensions>
      </trkpt>
      <trkpt lat="46.75239418633282184600830078125" lon="6.85816445387899875640869140625">
        <ele>540.4000244140625</ele>
        <time>2013-09-01T15:16:03.000Z</time>
        <extensions>
          <ns3:TrackPointExtension>
            <ns3:atemp>18.0</ns3:atemp>
          </ns3:TrackPointExtension>
        </extensions>
      </trkpt>
      <trkpt lat="46.75235194154083728790283203125" lon="6.858170069754123687744140625">
        <ele>540.4000244140625</ele>
        <time>2013-09-01T15:16:04.000Z</time>
        <extensions>
          <ns3:TrackPointExtension>
            <ns3:atemp>18.0</ns3:atemp>
          </ns3:TrackPointExtension>
        </extensions>
      </trkpt>
      <trkpt lat="46.7523131333291530609130859375" lon="6.85815892182290554046630859375">
        <ele>540.20001220703125</ele>
        <time>2013-09-01T15:16:05.000Z</time>
        <extensions>
          <ns3:TrackPointExtension>
            <ns3:atemp>18.0</ns3:atemp>
          </ns3:TrackPointExtension>
        </extensions>
      </trkpt>
      <trkpt lat="46.75228136591613292694091796875" lon="6.85813109390437602996826171875">
        <ele>540.20001220703125</ele>
        <time>2013-09-01T15:16:06.000Z</time>
        <extensions>
          <ns3:TrackPointExtension>
            <ns3:atemp>18.0</ns3:atemp>
          </ns3:TrackPointExtension>
        </extensions>
      </trkpt>
      <trkpt lat="46.75225856713950634002685546875" lon="6.8580894358456134796142578125">
        <ele>540.4000244140625</ele>
        <time>2013-09-01T15:16:07.000Z</time>
        <extensions>
          <ns3:TrackPointExtension>
            <ns3:atemp>18.0</ns3:atemp>
          </ns3:TrackPointExtension>
        </extensions>
      </trkpt>
      <trkpt lat="46.75223140977323055267333984375" lon="6.858047358691692352294921875">
        <ele>540.5999755859375</ele>
        <time>2013-09-01T15:16:08.000Z</time>
        <extensions>
          <ns3:TrackPointExtension>
            <ns3:atemp>18.0</ns3:atemp>
          </ns3:TrackPointExtension>
        </extensions>
      </trkpt>
      <trkpt lat="46.75220735371112823486328125" lon="6.85800838284194469451904296875">
        <ele>540.79998779296875</ele>
        <time>2013-09-01T15:16:09.000Z</time>
        <extensions>
          <ns3:TrackPointExtension>
            <ns3:atemp>18.0</ns3:atemp>
          </ns3:TrackPointExtension>
        </extensions>
      </trkpt>
      <trkpt lat="46.75218514166772365570068359375" lon="6.85796697624027729034423828125">
        <ele>541.20001220703125</ele>
        <time>2013-09-01T15:16:10.000Z</time>
        <extensions>
          <ns3:TrackPointExtension>
            <ns3:atemp>18.0</ns3:atemp>
          </ns3:TrackPointExtension>
        </extensions>
      </trkpt>
      <trkpt lat="46.75216418690979480743408203125" lon="6.8579238094389438629150390625">
        <ele>541.20001220703125</ele>
        <time>2013-09-01T15:16:11.000Z</time>
        <extensions>
          <ns3:TrackPointExtension>
            <ns3:atemp>18.0</ns3:atemp>
          </ns3:TrackPointExtension>
        </extensions>
      </trkpt>
      <trkpt lat="46.75214189104735851287841796875" lon="6.85788416303694248199462890625">
        <ele>541.4000244140625</ele>
        <time>2013-09-01T15:16:12.000Z</time>
        <extensions>
          <ns3:TrackPointExtension>
            <ns3:atemp>18.0</ns3:atemp>
          </ns3:TrackPointExtension>
        </extensions>
      </trkpt>
      <trkpt lat="46.7521203495562076568603515625" lon="6.85784560628235340118408203125">
        <ele>541.5999755859375</ele>
        <time>2013-09-01T15:16:13.000Z</time>
        <extensions>
          <ns3:TrackPointExtension>
            <ns3:atemp>18.0</ns3:atemp>
          </ns3:TrackPointExtension>
        </extensions>
      </trkpt>
      <trkpt lat="46.75210065208375453948974609375" lon="6.85780872590839862823486328125">
        <ele>541.79998779296875</ele>
        <time>2013-09-01T15:16:14.000Z</time>
        <extensions>
          <ns3:TrackPointExtension>
            <ns3:atemp>18.0</ns3:atemp>
          </ns3:TrackPointExtension>
        </extensions>
      </trkpt>
      <trkpt lat="46.752080619335174560546875" lon="6.85777570120990276336669921875">
        <ele>542</ele>
        <time>2013-09-01T15:16:15.000Z</time>
        <extensions>
          <ns3:TrackPointExtension>
            <ns3:atemp>18.0</ns3:atemp>
          </ns3:TrackPointExtension>
        </extensions>
      </trkpt>
      <trkpt lat="46.7520599998533725738525390625" lon="6.85774200595915317535400390625">
        <ele>542.20001220703125</ele>
        <time>2013-09-01T15:16:16.000Z</time>
        <extensions>
          <ns3:TrackPointExtension>
            <ns3:atemp>18.0</ns3:atemp>
          </ns3:TrackPointExtension>
        </extensions>
      </trkpt>
      <trkpt lat="46.7520392127335071563720703125" lon="6.8577115796506404876708984375">
        <ele>542.4000244140625</ele>
        <time>2013-09-01T15:16:17.000Z</time>
        <extensions>
          <ns3:TrackPointExtension>
            <ns3:atemp>18.0</ns3:atemp>
          </ns3:TrackPointExtension>
        </extensions>
      </trkpt>
      <trkpt lat="46.7520194314420223236083984375" lon="6.857678554952144622802734375">
        <ele>542.5999755859375</ele>
        <time>2013-09-01T15:16:18.000Z</time>
        <extensions>
          <ns3:TrackPointExtension>
            <ns3:atemp>18.0</ns3:atemp>
          </ns3:TrackPointExtension>
        </extensions>
      </trkpt>
      <trkpt lat="46.75200107507407665252685546875" lon="6.85764410533010959625244140625">
        <ele>543</ele>
        <time>2013-09-01T15:16:19.000Z</time>
        <extensions>
          <ns3:TrackPointExtension>
            <ns3:atemp>18.0</ns3:atemp>
          </ns3:TrackPointExtension>
        </extensions>
      </trkpt>
      <trkpt lat="46.7519828863441944122314453125" lon="6.85760772787034511566162109375">
        <ele>543.5999755859375</ele>
        <time>2013-09-01T15:16:20.000Z</time>
        <extensions>
          <ns3:TrackPointExtension>
            <ns3:atemp>18.0</ns3:atemp>
          </ns3:TrackPointExtension>
        </extensions>
      </trkpt>
      <trkpt lat="46.75196218304336071014404296875" lon="6.85756950639188289642333984375">
        <ele>543.79998779296875</ele>
        <time>2013-09-01T15:16:21.000Z</time>
        <extensions>
          <ns3:TrackPointExtension>
            <ns3:atemp>18.0</ns3:atemp>
          </ns3:TrackPointExtension>
        </extensions>
      </trkpt>
      <trkpt lat="46.7519433237612247467041015625" lon="6.8575362302362918853759765625">
        <ele>544.20001220703125</ele>
        <time>2013-09-01T15:16:22.000Z</time>
        <extensions>
          <ns3:TrackPointExtension>
            <ns3:atemp>18.0</ns3:atemp>
          </ns3:TrackPointExtension>
        </extensions>
      </trkpt>
      <trkpt lat="46.75192278809845447540283203125" lon="6.85750429518520832061767578125">
        <ele>544.20001220703125</ele>
        <time>2013-09-01T15:16:23.000Z</time>
        <extensions>
          <ns3:TrackPointExtension>
            <ns3:atemp>18.0</ns3:atemp>
          </ns3:TrackPointExtension>
        </extensions>
      </trkpt>
      <trkpt lat="46.75190200097858905792236328125" lon="6.85747034847736358642578125">
        <ele>544.5999755859375</ele>
        <time>2013-09-01T15:16:24.000Z</time>
        <extensions>
          <ns3:TrackPointExtension>
            <ns3:atemp>18.0</ns3:atemp>
          </ns3:TrackPointExtension>
        </extensions>
      </trkpt>
      <trkpt lat="46.7518846504390239715576171875" lon="6.85743891634047031402587890625">
        <ele>544.79998779296875</ele>
        <time>2013-09-01T15:16:25.000Z</time>
        <extensions>
          <ns3:TrackPointExtension>
            <ns3:atemp>18.0</ns3:atemp>
          </ns3:TrackPointExtension>
        </extensions>
      </trkpt>
      <trkpt lat="46.7518652044236660003662109375" lon="6.85740572400391101837158203125">
        <ele>545</ele>
        <time>2013-09-01T15:16:26.000Z</time>
        <extensions>
          <ns3:TrackPointExtension>
            <ns3:atemp>18.0</ns3:atemp>
          </ns3:TrackPointExtension>
        </extensions>
      </trkpt>
      <trkpt lat="46.7518464289605617523193359375" lon="6.85737538151443004608154296875">
        <ele>545.4000244140625</ele>
        <time>2013-09-01T15:16:27.000Z</time>
        <extensions>
          <ns3:TrackPointExtension>
            <ns3:atemp>18.0</ns3:atemp>
          </ns3:TrackPointExtension>
        </extensions>
      </trkpt>
      <trkpt lat="46.7518256418406963348388671875" lon="6.8573434464633464813232421875">
        <ele>545.5999755859375</ele>
        <time>2013-09-01T15:16:28.000Z</time>
        <extensions>
          <ns3:TrackPointExtension>
            <ns3:atemp>18.0</ns3:atemp>
          </ns3:TrackPointExtension>
        </extensions>
      </trkpt>
      <trkpt lat="46.7518068663775920867919921875" lon="6.8573089130222797393798828125">
        <ele>546</ele>
        <time>2013-09-01T15:16:29.000Z</time>
        <extensions>
          <ns3:TrackPointExtension>
            <ns3:atemp>18.0</ns3:atemp>
          </ns3:TrackPointExtension>
        </extensions>
      </trkpt>
      <trkpt lat="46.751787252724170684814453125" lon="6.8572725355625152587890625">
        <ele>546.20001220703125</ele>
        <time>2013-09-01T15:16:30.000Z</time>
        <extensions>
          <ns3:TrackPointExtension>
            <ns3:atemp>18.0</ns3:atemp>
          </ns3:TrackPointExtension>
        </extensions>
      </trkpt>
      <trkpt lat="46.75176939927041530609130859375" lon="6.8572376668453216552734375">
        <ele>546.4000244140625</ele>
        <time>2013-09-01T15:16:31.000Z</time>
        <extensions>
          <ns3:TrackPointExtension>
            <ns3:atemp>18.0</ns3:atemp>
          </ns3:TrackPointExtension>
        </extensions>
      </trkpt>
      <trkpt lat="46.75175028853118419647216796875" lon="6.85720187611877918243408203125">
        <ele>546.5999755859375</ele>
        <time>2013-09-01T15:16:32.000Z</time>
        <extensions>
          <ns3:TrackPointExtension>
            <ns3:atemp>18.0</ns3:atemp>
          </ns3:TrackPointExtension>
        </extensions>
      </trkpt>
      <trkpt lat="46.7517317645251750946044921875" lon="6.857165582478046417236328125">
        <ele>547</ele>
        <time>2013-09-01T15:16:33.000Z</time>
        <extensions>
          <ns3:TrackPointExtension>
            <ns3:atemp>18.0</ns3:atemp>
          </ns3:TrackPointExtension>
        </extensions>
      </trkpt>
      <trkpt lat="46.75171273760497570037841796875" lon="6.8571303784847259521484375">
        <ele>547.20001220703125</ele>
        <time>2013-09-01T15:16:34.000Z</time>
        <extensions>
          <ns3:TrackPointExtension>
            <ns3:atemp>18.0</ns3:atemp>
          </ns3:TrackPointExtension>
        </extensions>
      </trkpt>
      <trkpt lat="46.75169362686574459075927734375" lon="6.857095845043659210205078125">
        <ele>547.20001220703125</ele>
        <time>2013-09-01T15:16:35.000Z</time>
        <extensions>
          <ns3:TrackPointExtension>
            <ns3:atemp>18.0</ns3:atemp>
          </ns3:TrackPointExtension>
        </extensions>
      </trkpt>
      <trkpt lat="46.751675270497798919677734375" lon="6.85706173069775104522705078125">
        <ele>547.5999755859375</ele>
        <time>2013-09-01T15:16:36.000Z</time>
        <extensions>
          <ns3:TrackPointExtension>
            <ns3:atemp>18.0</ns3:atemp>
          </ns3:TrackPointExtension>
        </extensions>
      </trkpt>
      <trkpt lat="46.751657836139202117919921875" lon="6.8570256046950817108154296875">
        <ele>548</ele>
        <time>2013-09-01T15:16:37.000Z</time>
        <extensions>
          <ns3:TrackPointExtension>
            <ns3:atemp>18.0</ns3:atemp>
          </ns3:TrackPointExtension>
        </extensions>
      </trkpt>
      <trkpt lat="46.7516398988664150238037109375" lon="6.85699031688272953033447265625">
        <ele>548.20001220703125</ele>
        <time>2013-09-01T15:16:38.000Z</time>
        <extensions>
          <ns3:TrackPointExtension>
            <ns3:atemp>18.0</ns3:atemp>
          </ns3:TrackPointExtension>
        </extensions>
      </trkpt>
      <trkpt lat="46.75162271596491336822509765625" lon="6.8569560348987579345703125">
        <ele>548.4000244140625</ele>
        <time>2013-09-01T15:16:39.000Z</time>
        <extensions>
          <ns3:TrackPointExtension>
            <ns3:atemp>18.0</ns3:atemp>
          </ns3:TrackPointExtension>
        </extensions>
      </trkpt>
      <trkpt lat="46.7516073770821094512939453125" lon="6.85691756196320056915283203125">
        <ele>548.5999755859375</ele>
        <time>2013-09-01T15:16:40.000Z</time>
        <extensions>
          <ns3:TrackPointExtension>
            <ns3:atemp>18.0</ns3:atemp>
          </ns3:TrackPointExtension>
        </extensions>
      </trkpt>
      <trkpt lat="46.7515909485518932342529296875" lon="6.85687984339892864227294921875">
        <ele>549</ele>
        <time>2013-09-01T15:16:41.000Z</time>
        <extensions>
          <ns3:TrackPointExtension>
            <ns3:atemp>18.0</ns3:atemp>
          </ns3:TrackPointExtension>
        </extensions>
      </trkpt>
      <trkpt lat="46.75156840123236179351806640625" lon="6.85684396885335445404052734375">
        <ele>549.20001220703125</ele>
        <time>2013-09-01T15:16:42.000Z</time>
        <extensions>
          <ns3:TrackPointExtension>
            <ns3:atemp>18.0</ns3:atemp>
          </ns3:TrackPointExtension>
        </extensions>
      </trkpt>
      <trkpt lat="46.75154945813119411468505859375" lon="6.85681194998323917388916015625">
        <ele>549.4000244140625</ele>
        <time>2013-09-01T15:16:43.000Z</time>
        <extensions>
          <ns3:TrackPointExtension>
            <ns3:atemp>18.0</ns3:atemp>
          </ns3:TrackPointExtension>
        </extensions>
      </trkpt>
      <trkpt lat="46.7515294253826141357421875" lon="6.85678160749375820159912109375">
        <ele>550</ele>
        <time>2013-09-01T15:16:44.000Z</time>
        <extensions>
          <ns3:TrackPointExtension>
            <ns3:atemp>18.0</ns3:atemp>
          </ns3:TrackPointExtension>
        </extensions>
      </trkpt>
      <trkpt lat="46.75150989554822444915771484375" lon="6.8567479960620403289794921875">
        <ele>550.20001220703125</ele>
        <time>2013-09-01T15:16:45.000Z</time>
        <extensions>
          <ns3:TrackPointExtension>
            <ns3:atemp>18.0</ns3:atemp>
          </ns3:TrackPointExtension>
        </extensions>
      </trkpt>
      <trkpt lat="46.751491539180278778076171875" lon="6.85671572573482990264892578125">
        <ele>550.4000244140625</ele>
        <time>2013-09-01T15:16:46.000Z</time>
        <extensions>
          <ns3:TrackPointExtension>
            <ns3:atemp>18.0</ns3:atemp>
          </ns3:TrackPointExtension>
        </extensions>
      </trkpt>
      <trkpt lat="46.7514702491462230682373046875" lon="6.85668102465569972991943359375">
        <ele>550.5999755859375</ele>
        <time>2013-09-01T15:16:47.000Z</time>
        <extensions>
          <ns3:TrackPointExtension>
            <ns3:atemp>18.0</ns3:atemp>
          </ns3:TrackPointExtension>
        </extensions>
      </trkpt>
      <trkpt lat="46.75144954584538936614990234375" lon="6.8566475808620452880859375">
        <ele>550.5999755859375</ele>
        <time>2013-09-01T15:16:48.000Z</time>
        <extensions>
          <ns3:TrackPointExtension>
            <ns3:atemp>18.0</ns3:atemp>
          </ns3:TrackPointExtension>
        </extensions>
      </trkpt>
      <trkpt lat="46.751423813402652740478515625" lon="6.85661715455353260040283203125">
        <ele>551</ele>
        <time>2013-09-01T15:16:49.000Z</time>
        <extensions>
          <ns3:TrackPointExtension>
            <ns3:atemp>18.0</ns3:atemp>
          </ns3:TrackPointExtension>
        </extensions>
      </trkpt>
      <trkpt lat="46.75140042789280414581298828125" lon="6.85658530332148075103759765625">
        <ele>551.20001220703125</ele>
        <time>2013-09-01T15:16:50.000Z</time>
        <extensions>
          <ns3:TrackPointExtension>
            <ns3:atemp>18.0</ns3:atemp>
          </ns3:TrackPointExtension>
        </extensions>
      </trkpt>
      <trkpt lat="46.751373521983623504638671875" lon="6.85655345208942890167236328125">
        <ele>551.4000244140625</ele>
        <time>2013-09-01T15:16:51.000Z</time>
        <extensions>
          <ns3:TrackPointExtension>
            <ns3:atemp>18.0</ns3:atemp>
          </ns3:TrackPointExtension>
        </extensions>
      </trkpt>
      <trkpt lat="46.75134611316025257110595703125" lon="6.8565241992473602294921875">
        <ele>551.5999755859375</ele>
        <time>2013-09-01T15:16:52.000Z</time>
        <extensions>
          <ns3:TrackPointExtension>
            <ns3:atemp>18.0</ns3:atemp>
          </ns3:TrackPointExtension>
        </extensions>
      </trkpt>
      <trkpt lat="46.751319207251071929931640625" lon="6.85649477876722812652587890625">
        <ele>551.79998779296875</ele>
        <time>2013-09-01T15:16:53.000Z</time>
        <extensions>
          <ns3:TrackPointExtension>
            <ns3:atemp>18.0</ns3:atemp>
          </ns3:TrackPointExtension>
        </extensions>
      </trkpt>
      <trkpt lat="46.7512933909893035888671875" lon="6.8564599938690662384033203125">
        <ele>552</ele>
        <time>2013-09-01T15:16:54.000Z</time>
        <extensions>
          <ns3:TrackPointExtension>
            <ns3:atemp>18.0</ns3:atemp>
          </ns3:TrackPointExtension>
        </extensions>
      </trkpt>
      <trkpt lat="46.75126589834690093994140625" lon="6.856424622237682342529296875">
        <ele>552</ele>
        <time>2013-09-01T15:16:55.000Z</time>
        <extensions>
          <ns3:TrackPointExtension>
            <ns3:atemp>18.0</ns3:atemp>
          </ns3:TrackPointExtension>
        </extensions>
      </trkpt>
      <trkpt lat="46.7512412555515766143798828125" lon="6.85638430528342723846435546875">
        <ele>552</ele>
        <time>2013-09-01T15:16:56.000Z</time>
        <extensions>
          <ns3:TrackPointExtension>
            <ns3:atemp>18.0</ns3:atemp>
          </ns3:TrackPointExtension>
        </extensions>
      </trkpt>
      <trkpt lat="46.7512134276330471038818359375" lon="6.85634474270045757293701171875">
        <ele>552.20001220703125</ele>
        <time>2013-09-01T15:16:57.000Z</time>
        <extensions>
          <ns3:TrackPointExtension>
            <ns3:atemp>18.0</ns3:atemp>
          </ns3:TrackPointExtension>
        </extensions>
      </trkpt>
      <trkpt lat="46.75118249841034412384033203125" lon="6.85630895197391510009765625">
        <ele>552.4000244140625</ele>
        <time>2013-09-01T15:16:58.000Z</time>
        <extensions>
          <ns3:TrackPointExtension>
            <ns3:atemp>18.0</ns3:atemp>
          </ns3:TrackPointExtension>
        </extensions>
      </trkpt>
      <trkpt lat="46.7511539161205291748046875" lon="6.8562719039618968963623046875">
        <ele>552.5999755859375</ele>
        <time>2013-09-01T15:16:59.000Z</time>
        <extensions>
          <ns3:TrackPointExtension>
            <ns3:atemp>18.0</ns3:atemp>
          </ns3:TrackPointExtension>
        </extensions>
      </trkpt>
      <trkpt lat="46.75112449564039707183837890625" lon="6.85623762197792530059814453125">
        <ele>552.79998779296875</ele>
        <time>2013-09-01T15:17:00.000Z</time>
        <extensions>
          <ns3:TrackPointExtension>
            <ns3:atemp>18.0</ns3:atemp>
          </ns3:TrackPointExtension>
        </extensions>
      </trkpt>
      <trkpt lat="46.75109381787478923797607421875" lon="6.85620392672717571258544921875">
        <ele>553</ele>
        <time>2013-09-01T15:17:01.000Z</time>
        <extensions>
          <ns3:TrackPointExtension>
            <ns3:atemp>18.0</ns3:atemp>
          </ns3:TrackPointExtension>
        </extensions>
      </trkpt>
      <trkpt lat="46.75106263719499111175537109375" lon="6.8561686389148235321044921875">
        <ele>553</ele>
        <time>2013-09-01T15:17:02.000Z</time>
        <extensions>
          <ns3:TrackPointExtension>
            <ns3:atemp>18.0</ns3:atemp>
          </ns3:TrackPointExtension>
        </extensions>
      </trkpt>
      <trkpt lat="46.7510296963155269622802734375" lon="6.85612932778894901275634765625">
        <ele>553.20001220703125</ele>
        <time>2013-09-01T15:17:03.000Z</time>
        <extensions>
          <ns3:TrackPointExtension>
            <ns3:atemp>18.0</ns3:atemp>
          </ns3:TrackPointExtension>
        </extensions>
      </trkpt>
      <trkpt lat="46.75099591724574565887451171875" lon="6.856091357767581939697265625">
        <ele>553.4000244140625</ele>
        <time>2013-09-01T15:17:04.000Z</time>
        <extensions>
          <ns3:TrackPointExtension>
            <ns3:atemp>18.0</ns3:atemp>
          </ns3:TrackPointExtension>
        </extensions>
      </trkpt>
      <trkpt lat="46.7509636469185352325439453125" lon="6.856051795184612274169921875">
        <ele>553.4000244140625</ele>
        <time>2013-09-01T15:17:05.000Z</time>
        <extensions>
          <ns3:TrackPointExtension>
            <ns3:atemp>18.0</ns3:atemp>
          </ns3:TrackPointExtension>
        </extensions>
      </trkpt>
      <trkpt lat="46.750934310257434844970703125" lon="6.8560124002397060394287109375">
        <ele>553.5999755859375</ele>
        <time>2013-09-01T15:17:06.000Z</time>
        <extensions>
          <ns3:TrackPointExtension>
            <ns3:atemp>18.0</ns3:atemp>
          </ns3:TrackPointExtension>
        </extensions>
      </trkpt>
      <trkpt lat="46.750905811786651611328125" lon="6.85597342438995838165283203125">
        <ele>553.79998779296875</ele>
        <time>2013-09-01T15:17:07.000Z</time>
        <extensions>
          <ns3:TrackPointExtension>
            <ns3:atemp>18.0</ns3:atemp>
          </ns3:TrackPointExtension>
        </extensions>
      </trkpt>
      <trkpt lat="46.75087639130651950836181640625" lon="6.85593117959797382354736328125">
        <ele>554.20001220703125</ele>
        <time>2013-09-01T15:17:08.000Z</time>
        <extensions>
          <ns3:TrackPointExtension>
            <ns3:atemp>18.0</ns3:atemp>
          </ns3:TrackPointExtension>
        </extensions>
      </trkpt>
      <trkpt lat="46.750844456255435943603515625" lon="6.8558920361101627349853515625">
        <ele>554.20001220703125</ele>
        <time>2013-09-01T15:17:09.000Z</time>
        <extensions>
          <ns3:TrackPointExtension>
            <ns3:atemp>18.0</ns3:atemp>
          </ns3:TrackPointExtension>
        </extensions>
      </trkpt>
      <trkpt lat="46.7508124373853206634521484375" lon="6.8558504618704319000244140625">
        <ele>554.20001220703125</ele>
        <time>2013-09-01T15:17:10.000Z</time>
        <extensions>
          <ns3:TrackPointExtension>
            <ns3:atemp>18.0</ns3:atemp>
          </ns3:TrackPointExtension>
        </extensions>
      </trkpt>
      <trkpt lat="46.750782094895839691162109375" lon="6.85581098310649394989013671875">
        <ele>554.4000244140625</ele>
        <time>2013-09-01T15:17:11.000Z</time>
        <extensions>
          <ns3:TrackPointExtension>
            <ns3:atemp>18.0</ns3:atemp>
          </ns3:TrackPointExtension>
        </extensions>
      </trkpt>
      <trkpt lat="46.750751920044422149658203125" lon="6.8557699955999851226806640625">
        <ele>554.4000244140625</ele>
        <time>2013-09-01T15:17:12.000Z</time>
        <extensions>
          <ns3:TrackPointExtension>
            <ns3:atemp>18.0</ns3:atemp>
          </ns3:TrackPointExtension>
        </extensions>
      </trkpt>
      <trkpt lat="46.7507202364504337310791015625" lon="6.85573227703571319580078125">
        <ele>554.5999755859375</ele>
        <time>2013-09-01T15:17:13.000Z</time>
        <extensions>
          <ns3:TrackPointExtension>
            <ns3:atemp>18.0</ns3:atemp>
          </ns3:TrackPointExtension>
        </extensions>
      </trkpt>
      <trkpt lat="46.7506893910467624664306640625" lon="6.85569179244339466094970703125">
        <ele>554.5999755859375</ele>
        <time>2013-09-01T15:17:14.000Z</time>
        <extensions>
          <ns3:TrackPointExtension>
            <ns3:atemp>18.0</ns3:atemp>
          </ns3:TrackPointExtension>
        </extensions>
      </trkpt>
      <trkpt lat="46.7506578750908374786376953125" lon="6.85565005056560039520263671875">
        <ele>554.5999755859375</ele>
        <time>2013-09-01T15:17:15.000Z</time>
        <extensions>
          <ns3:TrackPointExtension>
            <ns3:atemp>18.0</ns3:atemp>
          </ns3:TrackPointExtension>
        </extensions>
      </trkpt>
      <trkpt lat="46.7506277002394199371337890625" lon="6.85561132617294788360595703125">
        <ele>554.5999755859375</ele>
        <time>2013-09-01T15:17:16.000Z</time>
        <extensions>
          <ns3:TrackPointExtension>
            <ns3:atemp>18.0</ns3:atemp>
          </ns3:TrackPointExtension>
        </extensions>
      </trkpt>
      <trkpt lat="46.75059811212122440338134765625" lon="6.85557268559932708740234375">
        <ele>554.79998779296875</ele>
        <time>2013-09-01T15:17:17.000Z</time>
        <extensions>
          <ns3:TrackPointExtension>
            <ns3:atemp>18.0</ns3:atemp>
          </ns3:TrackPointExtension>
        </extensions>
      </trkpt>
      <trkpt lat="46.7505705356597900390625" lon="6.85553555376827716827392578125">
        <ele>555</ele>
        <time>2013-09-01T15:17:18.000Z</time>
        <extensions>
          <ns3:TrackPointExtension>
            <ns3:atemp>18.0</ns3:atemp>
          </ns3:TrackPointExtension>
        </extensions>
      </trkpt>
      <trkpt lat="46.75054212100803852081298828125" lon="6.8554954044520854949951171875">
        <ele>555</ele>
        <time>2013-09-01T15:17:19.000Z</time>
        <extensions>
          <ns3:TrackPointExtension>
            <ns3:atemp>18.0</ns3:atemp>
          </ns3:TrackPointExtension>
        </extensions>
      </trkpt>
      <trkpt lat="46.7505140416324138641357421875" lon="6.855453662574291229248046875">
        <ele>555.20001220703125</ele>
        <time>2013-09-01T15:17:20.000Z</time>
        <extensions>
          <ns3:TrackPointExtension>
            <ns3:atemp>18.0</ns3:atemp>
          </ns3:TrackPointExtension>
        </extensions>
      </trkpt>
      <trkpt lat="46.75048612989485263824462890625" lon="6.855411417782306671142578125">
        <ele>555.4000244140625</ele>
        <time>2013-09-01T15:17:21.000Z</time>
        <extensions>
          <ns3:TrackPointExtension>
            <ns3:atemp>18.0</ns3:atemp>
          </ns3:TrackPointExtension>
        </extensions>
      </trkpt>
      <trkpt lat="46.75045779906213283538818359375" lon="6.8553686700761318206787109375">
        <ele>555.5999755859375</ele>
        <time>2013-09-01T15:17:22.000Z</time>
        <extensions>
          <ns3:TrackPointExtension>
            <ns3:atemp>18.0</ns3:atemp>
          </ns3:TrackPointExtension>
        </extensions>
      </trkpt>
      <trkpt lat="46.7504288814961910247802734375" lon="6.8553287722170352935791015625">
        <ele>555.79998779296875</ele>
        <time>2013-09-01T15:17:23.000Z</time>
        <extensions>
          <ns3:TrackPointExtension>
            <ns3:atemp>18.0</ns3:atemp>
          </ns3:TrackPointExtension>
        </extensions>
      </trkpt>
      <trkpt lat="46.75039996393024921417236328125" lon="6.855288036167621612548828125">
        <ele>555.79998779296875</ele>
        <time>2013-09-01T15:17:24.000Z</time>
        <extensions>
          <ns3:TrackPointExtension>
            <ns3:atemp>18.0</ns3:atemp>
          </ns3:TrackPointExtension>
        </extensions>
      </trkpt>
      <trkpt lat="46.7503695376217365264892578125" lon="6.8552489764988422393798828125">
        <ele>555.79998779296875</ele>
        <time>2013-09-01T15:17:25.000Z</time>
        <extensions>
          <ns3:TrackPointExtension>
            <ns3:atemp>18.0</ns3:atemp>
          </ns3:TrackPointExtension>
        </extensions>
      </trkpt>
      <trkpt lat="46.75034187734127044677734375" lon="6.8552114255726337432861328125">
        <ele>556</ele>
        <time>2013-09-01T15:17:26.000Z</time>
        <extensions>
          <ns3:TrackPointExtension>
            <ns3:atemp>18.0</ns3:atemp>
          </ns3:TrackPointExtension>
        </extensions>
      </trkpt>
      <trkpt lat="46.7503135465085506439208984375" lon="6.85517278499901294708251953125">
        <ele>556.20001220703125</ele>
        <time>2013-09-01T15:17:27.000Z</time>
        <extensions>
          <ns3:TrackPointExtension>
            <ns3:atemp>18.0</ns3:atemp>
          </ns3:TrackPointExtension>
        </extensions>
      </trkpt>
      <trkpt lat="46.75028630532324314117431640625" lon="6.85513389296829700469970703125">
        <ele>556.4000244140625</ele>
        <time>2013-09-01T15:17:28.000Z</time>
        <extensions>
          <ns3:TrackPointExtension>
            <ns3:atemp>18.0</ns3:atemp>
          </ns3:TrackPointExtension>
        </extensions>
      </trkpt>
      <trkpt lat="46.75026006996631622314453125" lon="6.85509617440402507781982421875">
        <ele>556.5999755859375</ele>
        <time>2013-09-01T15:17:29.000Z</time>
        <extensions>
          <ns3:TrackPointExtension>
            <ns3:atemp>18.0</ns3:atemp>
          </ns3:TrackPointExtension>
        </extensions>
      </trkpt>
      <trkpt lat="46.75023115240037441253662109375" lon="6.85505627654492855072021484375">
        <ele>556.5999755859375</ele>
        <time>2013-09-01T15:17:30.000Z</time>
        <extensions>
          <ns3:TrackPointExtension>
            <ns3:atemp>18.0</ns3:atemp>
          </ns3:TrackPointExtension>
        </extensions>
      </trkpt>
      <trkpt lat="46.75020449794828891754150390625" lon="6.85501704923808574676513671875">
        <ele>557</ele>
        <time>2013-09-01T15:17:31.000Z</time>
        <extensions>
          <ns3:TrackPointExtension>
            <ns3:atemp>18.0</ns3:atemp>
          </ns3:TrackPointExtension>
        </extensions>
      </trkpt>
      <trkpt lat="46.75017893314361572265625" lon="6.8549784086644649505615234375">
        <ele>557.20001220703125</ele>
        <time>2013-09-01T15:17:32.000Z</time>
        <extensions>
          <ns3:TrackPointExtension>
            <ns3:atemp>18.0</ns3:atemp>
          </ns3:TrackPointExtension>
        </extensions>
      </trkpt>
      <trkpt lat="46.7501495964825153350830078125" lon="6.85493859462440013885498046875">
        <ele>557.4000244140625</ele>
        <time>2013-09-01T15:17:33.000Z</time>
        <extensions>
          <ns3:TrackPointExtension>
            <ns3:atemp>18.0</ns3:atemp>
          </ns3:TrackPointExtension>
        </extensions>
      </trkpt>
      <trkpt lat="46.75011984072625637054443359375" lon="6.85490079224109649658203125">
        <ele>557.4000244140625</ele>
        <time>2013-09-01T15:17:34.000Z</time>
        <extensions>
          <ns3:TrackPointExtension>
            <ns3:atemp>18.0</ns3:atemp>
          </ns3:TrackPointExtension>
        </extensions>
      </trkpt>
      <trkpt lat="46.750088743865489959716796875" lon="6.8548607267439365386962890625">
        <ele>557.4000244140625</ele>
        <time>2013-09-01T15:17:35.000Z</time>
        <extensions>
          <ns3:TrackPointExtension>
            <ns3:atemp>18.0</ns3:atemp>
          </ns3:TrackPointExtension>
        </extensions>
      </trkpt>
      <trkpt lat="46.75005664117634296417236328125" lon="6.85482108034193515777587890625">
        <ele>557.4000244140625</ele>
        <time>2013-09-01T15:17:36.000Z</time>
        <extensions>
          <ns3:TrackPointExtension>
            <ns3:atemp>18.0</ns3:atemp>
          </ns3:TrackPointExtension>
        </extensions>
      </trkpt>
      <trkpt lat="46.75002562813460826873779296875" lon="6.85478017665445804595947265625">
        <ele>557.5999755859375</ele>
        <time>2013-09-01T15:17:37.000Z</time>
        <extensions>
          <ns3:TrackPointExtension>
            <ns3:atemp>18.0</ns3:atemp>
          </ns3:TrackPointExtension>
        </extensions>
      </trkpt>
      <trkpt lat="46.75000048242509365081787109375" lon="6.85473910532891750335693359375">
        <ele>557.79998779296875</ele>
        <time>2013-09-01T15:17:38.000Z</time>
        <extensions>
          <ns3:TrackPointExtension>
            <ns3:atemp>18.0</ns3:atemp>
          </ns3:TrackPointExtension>
        </extensions>
      </trkpt>
      <trkpt lat="46.74997835420072078704833984375" lon="6.8546964414417743682861328125">
        <ele>558</ele>
        <time>2013-09-01T15:17:39.000Z</time>
        <extensions>
          <ns3:TrackPointExtension>
            <ns3:atemp>18.0</ns3:atemp>
          </ns3:TrackPointExtension>
        </extensions>
      </trkpt>
      <trkpt lat="46.7499571479856967926025390625" lon="6.8546493351459503173828125">
        <ele>558.20001220703125</ele>
        <time>2013-09-01T15:17:40.000Z</time>
        <extensions>
          <ns3:TrackPointExtension>
            <ns3:atemp>18.0</ns3:atemp>
          </ns3:TrackPointExtension>
        </extensions>
      </trkpt>
      <trkpt lat="46.74994013272225856781005859375" lon="6.85460650362074375152587890625">
        <ele>558.4000244140625</ele>
        <time>2013-09-01T15:17:41.000Z</time>
        <extensions>
          <ns3:TrackPointExtension>
            <ns3:atemp>18.0</ns3:atemp>
          </ns3:TrackPointExtension>
        </extensions>
      </trkpt>
      <trkpt lat="46.7499279789626598358154296875" lon="6.8545583076775074005126953125">
        <ele>558.5999755859375</ele>
        <time>2013-09-01T15:17:42.000Z</time>
        <extensions>
          <ns3:TrackPointExtension>
            <ns3:atemp>18.0</ns3:atemp>
          </ns3:TrackPointExtension>
        </extensions>
      </trkpt>
      <trkpt lat="46.749917082488536834716796875" lon="6.85451866127550601959228515625">
        <ele>558.5999755859375</ele>
        <time>2013-09-01T15:17:43.000Z</time>
        <extensions>
          <ns3:TrackPointExtension>
            <ns3:atemp>18.0</ns3:atemp>
          </ns3:TrackPointExtension>
        </extensions>
      </trkpt>
      <trkpt lat="46.74990409053862094879150390625" lon="6.8544801883399486541748046875">
        <ele>558.79998779296875</ele>
        <time>2013-09-01T15:17:44.000Z</time>
        <extensions>
          <ns3:TrackPointExtension>
            <ns3:atemp>18.0</ns3:atemp>
          </ns3:TrackPointExtension>
        </extensions>
      </trkpt>
      <trkpt lat="46.749891601502895355224609375" lon="6.8544426374137401580810546875">
        <ele>559.20001220703125</ele>
        <time>2013-09-01T15:17:45.000Z</time>
        <extensions>
          <ns3:TrackPointExtension>
            <ns3:atemp>18.0</ns3:atemp>
          </ns3:TrackPointExtension>
        </extensions>
      </trkpt>
      <trkpt lat="46.749877519905567169189453125" lon="6.8544077686965465545654296875">
        <ele>559.5999755859375</ele>
        <time>2013-09-01T15:17:46.000Z</time>
        <extensions>
          <ns3:TrackPointExtension>
            <ns3:atemp>18.0</ns3:atemp>
          </ns3:TrackPointExtension>
        </extensions>
      </trkpt>
      <trkpt lat="46.7498672939836978912353515625" lon="6.8543730676174163818359375">
        <ele>560</ele>
        <time>2013-09-01T15:17:47.000Z</time>
        <extensions>
          <ns3:TrackPointExtension>
            <ns3:atemp>18.0</ns3:atemp>
          </ns3:TrackPointExtension>
        </extensions>
      </trkpt>
      <trkpt lat="46.749861426651477813720703125" lon="6.85433509759604930877685546875">
        <ele>560.5999755859375</ele>
        <time>2013-09-01T15:17:48.000Z</time>
        <extensions>
          <ns3:TrackPointExtension>
            <ns3:atemp>18.0</ns3:atemp>
          </ns3:TrackPointExtension>
        </extensions>
      </trkpt>
      <trkpt lat="46.7498565651476383209228515625" lon="6.85429729521274566650390625">
        <ele>561</ele>
        <time>2013-09-01T15:17:49.000Z</time>
        <extensions>
          <ns3:TrackPointExtension>
            <ns3:atemp>18.0</ns3:atemp>
          </ns3:TrackPointExtension>
        </extensions>
      </trkpt>
      <trkpt lat="46.74985430203378200531005859375" lon="6.854256726801395416259765625">
        <ele>561.4000244140625</ele>
        <time>2013-09-01T15:17:50.000Z</time>
        <extensions>
          <ns3:TrackPointExtension>
            <ns3:atemp>18.0</ns3:atemp>
          </ns3:TrackPointExtension>
        </extensions>
      </trkpt>
      <trkpt lat="46.749853380024433135986328125" lon="6.85421657748520374298095703125">
        <ele>561.5999755859375</ele>
        <time>2013-09-01T15:17:51.000Z</time>
        <extensions>
          <ns3:TrackPointExtension>
            <ns3:atemp>18.0</ns3:atemp>
          </ns3:TrackPointExtension>
        </extensions>
      </trkpt>
      <trkpt lat="46.7498585768043994903564453125" lon="6.85418103821575641632080078125">
        <ele>562.20001220703125</ele>
        <time>2013-09-01T15:17:52.000Z</time>
        <extensions>
          <ns3:TrackPointExtension>
            <ns3:atemp>18.0</ns3:atemp>
          </ns3:TrackPointExtension>
        </extensions>
      </trkpt>
      <trkpt lat="46.7498605884611606597900390625" lon="6.8541482649743556976318359375">
        <ele>562.5999755859375</ele>
        <time>2013-09-01T15:17:53.000Z</time>
        <extensions>
          <ns3:TrackPointExtension>
            <ns3:atemp>18.0</ns3:atemp>
          </ns3:TrackPointExtension>
        </extensions>
      </trkpt>
      <trkpt lat="46.74986167810857295989990234375" lon="6.85410819947719573974609375">
        <ele>563</ele>
        <time>2013-09-01T15:17:54.000Z</time>
        <extensions>
          <ns3:TrackPointExtension>
            <ns3:atemp>18.0</ns3:atemp>
          </ns3:TrackPointExtension>
        </extensions>
      </trkpt>
      <trkpt lat="46.74986637197434902191162109375" lon="6.85406603850424289703369140625">
        <ele>563.20001220703125</ele>
        <time>2013-09-01T15:17:55.000Z</time>
        <extensions>
          <ns3:TrackPointExtension>
            <ns3:atemp>18.0</ns3:atemp>
          </ns3:TrackPointExtension>
        </extensions>
      </trkpt>
      <trkpt lat="46.74987140111625194549560546875" lon="6.85401842929422855377197265625">
        <ele>563.5999755859375</ele>
        <time>2013-09-01T15:17:56.000Z</time>
        <extensions>
          <ns3:TrackPointExtension>
            <ns3:atemp>18.0</ns3:atemp>
          </ns3:TrackPointExtension>
        </extensions>
      </trkpt>
      <trkpt lat="46.7498773522675037384033203125" lon="6.85397299937903881072998046875">
        <ele>564.20001220703125</ele>
        <time>2013-09-01T15:17:57.000Z</time>
        <extensions>
          <ns3:TrackPointExtension>
            <ns3:atemp>18.0</ns3:atemp>
          </ns3:TrackPointExtension>
        </extensions>
      </trkpt>
      <trkpt lat="46.7498783580958843231201171875" lon="6.85392539016902446746826171875">
        <ele>564.79998779296875</ele>
        <time>2013-09-01T15:17:58.000Z</time>
        <extensions>
          <ns3:TrackPointExtension>
            <ns3:atemp>18.0</ns3:atemp>
          </ns3:TrackPointExtension>
        </extensions>
      </trkpt>
      <trkpt lat="46.74988187849521636962890625" lon="6.85387627221643924713134765625">
        <ele>565.20001220703125</ele>
        <time>2013-09-01T15:17:59.000Z</time>
        <extensions>
          <ns3:TrackPointExtension>
            <ns3:atemp>18.0</ns3:atemp>
          </ns3:TrackPointExtension>
        </extensions>
      </trkpt>
      <trkpt lat="46.74988363869488239288330078125" lon="6.85383067466318607330322265625">
        <ele>565.5999755859375</ele>
        <time>2013-09-01T15:18:00.000Z</time>
        <extensions>
          <ns3:TrackPointExtension>
            <ns3:atemp>18.0</ns3:atemp>
          </ns3:TrackPointExtension>
        </extensions>
      </trkpt>
      <trkpt lat="46.74988095648586750030517578125" lon="6.85378708876669406890869140625">
        <ele>566</ele>
        <time>2013-09-01T15:18:01.000Z</time>
        <extensions>
          <ns3:TrackPointExtension>
            <ns3:atemp>18.0</ns3:atemp>
          </ns3:TrackPointExtension>
        </extensions>
      </trkpt>
      <trkpt lat="46.74987860955297946929931640625" lon="6.8537427484989166259765625">
        <ele>566.20001220703125</ele>
        <time>2013-09-01T15:18:02.000Z</time>
        <extensions>
          <ns3:TrackPointExtension>
            <ns3:atemp>18.0</ns3:atemp>
          </ns3:TrackPointExtension>
        </extensions>
      </trkpt>
      <trkpt lat="46.749880202114582061767578125" lon="6.85369220562279224395751953125">
        <ele>566.4000244140625</ele>
        <time>2013-09-01T15:18:03.000Z</time>
        <extensions>
          <ns3:TrackPointExtension>
            <ns3:atemp>18.0</ns3:atemp>
          </ns3:TrackPointExtension>
        </extensions>
      </trkpt>
      <trkpt lat="46.74988229759037494659423828125" lon="6.85363688506186008453369140625">
        <ele>566.5999755859375</ele>
        <time>2013-09-01T15:18:04.000Z</time>
        <extensions>
          <ns3:TrackPointExtension>
            <ns3:atemp>18.0</ns3:atemp>
          </ns3:TrackPointExtension>
        </extensions>
      </trkpt>
      <trkpt lat="46.74988187849521636962890625" lon="6.85358340851962566375732421875">
        <ele>566.79998779296875</ele>
        <time>2013-09-01T15:18:05.000Z</time>
        <extensions>
          <ns3:TrackPointExtension>
            <ns3:atemp>18.0</ns3:atemp>
          </ns3:TrackPointExtension>
        </extensions>
      </trkpt>
      <trkpt lat="46.749882213771343231201171875" lon="6.85353152453899383544921875">
        <ele>567.20001220703125</ele>
        <time>2013-09-01T15:18:06.000Z</time>
        <extensions>
          <ns3:TrackPointExtension>
            <ns3:atemp>18.0</ns3:atemp>
          </ns3:TrackPointExtension>
        </extensions>
      </trkpt>
      <trkpt lat="46.749882884323596954345703125" lon="6.8534798920154571533203125">
        <ele>567.4000244140625</ele>
        <time>2013-09-01T15:18:07.000Z</time>
        <extensions>
          <ns3:TrackPointExtension>
            <ns3:atemp>18.0</ns3:atemp>
          </ns3:TrackPointExtension>
        </extensions>
      </trkpt>
      <trkpt lat="46.74988590180873870849609375" lon="6.85343018732964992523193359375">
        <ele>567.5999755859375</ele>
        <time>2013-09-01T15:18:08.000Z</time>
        <extensions>
          <ns3:TrackPointExtension>
            <ns3:atemp>18.0</ns3:atemp>
          </ns3:TrackPointExtension>
        </extensions>
      </trkpt>
      <trkpt lat="46.74988464452326297760009765625" lon="6.853384673595428466796875">
        <ele>567.79998779296875</ele>
        <time>2013-09-01T15:18:09.000Z</time>
        <extensions>
          <ns3:TrackPointExtension>
            <ns3:atemp>18.0</ns3:atemp>
          </ns3:TrackPointExtension>
        </extensions>
      </trkpt>
      <trkpt lat="46.74988196231424808502197265625" lon="6.85334502719342708587646484375">
        <ele>568.20001220703125</ele>
        <time>2013-09-01T15:18:10.000Z</time>
        <extensions>
          <ns3:TrackPointExtension>
            <ns3:atemp>18.0</ns3:atemp>
          </ns3:TrackPointExtension>
        </extensions>
      </trkpt>
      <trkpt lat="46.749877519905567169189453125" lon="6.85330362059175968170166015625">
        <ele>568.4000244140625</ele>
        <time>2013-09-01T15:18:11.000Z</time>
        <extensions>
          <ns3:TrackPointExtension>
            <ns3:atemp>18.0</ns3:atemp>
          </ns3:TrackPointExtension>
        </extensions>
      </trkpt>
      <trkpt lat="46.7498709820210933685302734375" lon="6.8532641418278217315673828125">
        <ele>568.5999755859375</ele>
        <time>2013-09-01T15:18:12.000Z</time>
        <extensions>
          <ns3:TrackPointExtension>
            <ns3:atemp>18.0</ns3:atemp>
          </ns3:TrackPointExtension>
        </extensions>
      </trkpt>
      <trkpt lat="46.7498624324798583984375" lon="6.8532232381403446197509765625">
        <ele>568.79998779296875</ele>
        <time>2013-09-01T15:18:13.000Z</time>
        <extensions>
          <ns3:TrackPointExtension>
            <ns3:atemp>18.0</ns3:atemp>
          </ns3:TrackPointExtension>
        </extensions>
      </trkpt>
      <trkpt lat="46.74985639750957489013671875" lon="6.85318510048091411590576171875">
        <ele>569</ele>
        <time>2013-09-01T15:18:14.000Z</time>
        <extensions>
          <ns3:TrackPointExtension>
            <ns3:atemp>18.0</ns3:atemp>
          </ns3:TrackPointExtension>
        </extensions>
      </trkpt>
      <trkpt lat="46.74984659068286418914794921875" lon="6.85314587317407131195068359375">
        <ele>569.20001220703125</ele>
        <time>2013-09-01T15:18:15.000Z</time>
        <extensions>
          <ns3:TrackPointExtension>
            <ns3:atemp>18.0</ns3:atemp>
          </ns3:TrackPointExtension>
        </extensions>
      </trkpt>
      <trkpt lat="46.74983670003712177276611328125" lon="6.85311578214168548583984375">
        <ele>569.4000244140625</ele>
        <time>2013-09-01T15:18:16.000Z</time>
        <extensions>
          <ns3:TrackPointExtension>
            <ns3:atemp>18.0</ns3:atemp>
          </ns3:TrackPointExtension>
        </extensions>
      </trkpt>
      <trkpt lat="46.749821193516254425048828125" lon="6.85308418236672878265380859375">
        <ele>569.5999755859375</ele>
        <time>2013-09-01T15:18:17.000Z</time>
        <extensions>
          <ns3:TrackPointExtension>
            <ns3:atemp>18.0</ns3:atemp>
          </ns3:TrackPointExtension>
        </extensions>
      </trkpt>
      <trkpt lat="46.74980283714830875396728515625" lon="6.8530559353530406951904296875">
        <ele>570</ele>
        <time>2013-09-01T15:18:18.000Z</time>
        <extensions>
          <ns3:TrackPointExtension>
            <ns3:atemp>18.0</ns3:atemp>
          </ns3:TrackPointExtension>
        </extensions>
      </trkpt>
      <trkpt lat="46.749783642590045928955078125" lon="6.85302550904452800750732421875">
        <ele>570.20001220703125</ele>
        <time>2013-09-01T15:18:19.000Z</time>
        <extensions>
          <ns3:TrackPointExtension>
            <ns3:atemp>18.0</ns3:atemp>
          </ns3:TrackPointExtension>
        </extensions>
      </trkpt>
      <trkpt lat="46.7497620172798633575439453125" lon="6.85299432836472988128662109375">
        <ele>570.4000244140625</ele>
        <time>2013-09-01T15:18:20.000Z</time>
        <extensions>
          <ns3:TrackPointExtension>
            <ns3:atemp>18.0</ns3:atemp>
          </ns3:TrackPointExtension>
        </extensions>
      </trkpt>
      <trkpt lat="46.74974483437836170196533203125" lon="6.85296080075204372406005859375">
        <ele>570.5999755859375</ele>
        <time>2013-09-01T15:18:21.000Z</time>
        <extensions>
          <ns3:TrackPointExtension>
            <ns3:atemp>18.0</ns3:atemp>
          </ns3:TrackPointExtension>
        </extensions>
      </trkpt>
      <trkpt lat="46.74972354434430599212646484375" lon="6.85292844660580158233642578125">
        <ele>570.79998779296875</ele>
        <time>2013-09-01T15:18:22.000Z</time>
        <extensions>
          <ns3:TrackPointExtension>
            <ns3:atemp>18.0</ns3:atemp>
          </ns3:TrackPointExtension>
        </extensions>
      </trkpt>
      <trkpt lat="46.7496926151216030120849609375" lon="6.852911598980426788330078125">
        <ele>571</ele>
        <time>2013-09-01T15:18:23.000Z</time>
        <extensions>
          <ns3:TrackPointExtension>
            <ns3:atemp>18.0</ns3:atemp>
          </ns3:TrackPointExtension>
        </extensions>
      </trkpt>
      <trkpt lat="46.749668978154659271240234375" lon="6.85288184322416782379150390625">
        <ele>571.20001220703125</ele>
        <time>2013-09-01T15:18:24.000Z</time>
        <extensions>
          <ns3:TrackPointExtension>
            <ns3:atemp>18.0</ns3:atemp>
          </ns3:TrackPointExtension>
        </extensions>
      </trkpt>
      <trkpt lat="46.74964542500674724578857421875" lon="6.8528534285724163055419921875">
        <ele>571.20001220703125</ele>
        <time>2013-09-01T15:18:25.000Z</time>
        <extensions>
          <ns3:TrackPointExtension>
            <ns3:atemp>18.0</ns3:atemp>
          </ns3:TrackPointExtension>
        </extensions>
      </trkpt>
      <trkpt lat="46.7496225424110889434814453125" lon="6.8528229184448719024658203125">
        <ele>571.4000244140625</ele>
        <time>2013-09-01T15:18:26.000Z</time>
        <extensions>
          <ns3:TrackPointExtension>
            <ns3:atemp>18.0</ns3:atemp>
          </ns3:TrackPointExtension>
        </extensions>
      </trkpt>
      <trkpt lat="46.7496017552912235260009765625" lon="6.8527950905263423919677734375">
        <ele>571.79998779296875</ele>
        <time>2013-09-01T15:18:27.000Z</time>
        <extensions>
          <ns3:TrackPointExtension>
            <ns3:atemp>18.0</ns3:atemp>
          </ns3:TrackPointExtension>
        </extensions>
      </trkpt>
      <trkpt lat="46.74957904033362865447998046875" lon="6.85276298783719539642333984375">
        <ele>572</ele>
        <time>2013-09-01T15:18:28.000Z</time>
        <extensions>
          <ns3:TrackPointExtension>
            <ns3:atemp>18.0</ns3:atemp>
          </ns3:TrackPointExtension>
        </extensions>
      </trkpt>
      <trkpt lat="46.74956001341342926025390625" lon="6.8527288734912872314453125">
        <ele>572.20001220703125</ele>
        <time>2013-09-01T15:18:29.000Z</time>
        <extensions>
          <ns3:TrackPointExtension>
            <ns3:atemp>18.0</ns3:atemp>
          </ns3:TrackPointExtension>
        </extensions>
      </trkpt>
      <trkpt lat="46.7495393939316272735595703125" lon="6.85269777663052082061767578125">
        <ele>572.20001220703125</ele>
        <time>2013-09-01T15:18:30.000Z</time>
        <extensions>
          <ns3:TrackPointExtension>
            <ns3:atemp>18.0</ns3:atemp>
          </ns3:TrackPointExtension>
        </extensions>
      </trkpt>
      <trkpt lat="46.7495177686214447021484375" lon="6.85266341082751750946044921875">
        <ele>572.4000244140625</ele>
        <time>2013-09-01T15:18:31.000Z</time>
        <extensions>
          <ns3:TrackPointExtension>
            <ns3:atemp>18.0</ns3:atemp>
          </ns3:TrackPointExtension>
        </extensions>
      </trkpt>
      <trkpt lat="46.74949320964515209197998046875" lon="6.852628290653228759765625">
        <ele>572.5999755859375</ele>
        <time>2013-09-01T15:18:32.000Z</time>
        <extensions>
          <ns3:TrackPointExtension>
            <ns3:atemp>18.0</ns3:atemp>
          </ns3:TrackPointExtension>
        </extensions>
      </trkpt>
      <trkpt lat="46.7494686506688594818115234375" lon="6.8525949306786060333251953125">
        <ele>572.79998779296875</ele>
        <time>2013-09-01T15:18:33.000Z</time>
        <extensions>
          <ns3:TrackPointExtension>
            <ns3:atemp>18.0</ns3:atemp>
          </ns3:TrackPointExtension>
        </extensions>
      </trkpt>
      <trkpt lat="46.74944124184548854827880859375" lon="6.8525577150285243988037109375">
        <ele>573</ele>
        <time>2013-09-01T15:18:34.000Z</time>
        <extensions>
          <ns3:TrackPointExtension>
            <ns3:atemp>18.0</ns3:atemp>
          </ns3:TrackPointExtension>
        </extensions>
      </trkpt>
      <trkpt lat="46.749412827193737030029296875" lon="6.8525215052068233489990234375">
        <ele>573</ele>
        <time>2013-09-01T15:18:35.000Z</time>
        <extensions>
          <ns3:TrackPointExtension>
            <ns3:atemp>18.0</ns3:atemp>
          </ns3:TrackPointExtension>
        </extensions>
      </trkpt>
      <trkpt lat="46.7493861727416515350341796875" lon="6.85248403809964656829833984375">
        <ele>573.20001220703125</ele>
        <time>2013-09-01T15:18:36.000Z</time>
        <extensions>
          <ns3:TrackPointExtension>
            <ns3:atemp>18.0</ns3:atemp>
          </ns3:TrackPointExtension>
        </extensions>
      </trkpt>
      <trkpt lat="46.74935541115701198577880859375" lon="6.85244145803153514862060546875">
        <ele>573.4000244140625</ele>
        <time>2013-09-01T15:18:37.000Z</time>
        <extensions>
          <ns3:TrackPointExtension>
            <ns3:atemp>18.0</ns3:atemp>
          </ns3:TrackPointExtension>
        </extensions>
      </trkpt>
      <trkpt lat="46.74932406283915042877197265625" lon="6.85240021906793117523193359375">
        <ele>573.5999755859375</ele>
        <time>2013-09-01T15:18:38.000Z</time>
        <extensions>
          <ns3:TrackPointExtension>
            <ns3:atemp>18.0</ns3:atemp>
          </ns3:TrackPointExtension>
        </extensions>
      </trkpt>
      <trkpt lat="46.74929388798773288726806640625" lon="6.852355040609836578369140625">
        <ele>573.79998779296875</ele>
        <time>2013-09-01T15:18:39.000Z</time>
        <extensions>
          <ns3:TrackPointExtension>
            <ns3:atemp>18.0</ns3:atemp>
          </ns3:TrackPointExtension>
        </extensions>
      </trkpt>
      <trkpt lat="46.7492624558508396148681640625" lon="6.8523062579333782196044921875">
        <ele>574</ele>
        <time>2013-09-01T15:18:40.000Z</time>
        <extensions>
          <ns3:TrackPointExtension>
            <ns3:atemp>18.0</ns3:atemp>
          </ns3:TrackPointExtension>
        </extensions>
      </trkpt>
      <trkpt lat="46.74923169426620006561279296875" lon="6.8522579781711101531982421875">
        <ele>574.20001220703125</ele>
        <time>2013-09-01T15:18:41.000Z</time>
        <extensions>
          <ns3:TrackPointExtension>
            <ns3:atemp>18.0</ns3:atemp>
          </ns3:TrackPointExtension>
        </extensions>
      </trkpt>
      <trkpt lat="46.749199926853179931640625" lon="6.85221514664590358734130859375">
        <ele>574.4000244140625</ele>
        <time>2013-09-01T15:18:42.000Z</time>
        <extensions>
          <ns3:TrackPointExtension>
            <ns3:atemp>18.0</ns3:atemp>
          </ns3:TrackPointExtension>
        </extensions>
      </trkpt>
      <trkpt lat="46.74916966818273067474365234375" lon="6.852168627083301544189453125">
        <ele>574.5999755859375</ele>
        <time>2013-09-01T15:18:43.000Z</time>
        <extensions>
          <ns3:TrackPointExtension>
            <ns3:atemp>18.0</ns3:atemp>
          </ns3:TrackPointExtension>
        </extensions>
      </trkpt>
      <trkpt lat="46.7491363920271396636962890625" lon="6.8521231971681118011474609375">
        <ele>574.79998779296875</ele>
        <time>2013-09-01T15:18:44.000Z</time>
        <extensions>
          <ns3:TrackPointExtension>
            <ns3:atemp>18.0</ns3:atemp>
          </ns3:TrackPointExtension>
        </extensions>
      </trkpt>
      <trkpt lat="46.74910579808056354522705078125" lon="6.8520779348909854888916015625">
        <ele>575</ele>
        <time>2013-09-01T15:18:45.000Z</time>
        <extensions>
          <ns3:TrackPointExtension>
            <ns3:atemp>18.0</ns3:atemp>
          </ns3:TrackPointExtension>
        </extensions>
      </trkpt>
      <trkpt lat="46.7490750364959239959716796875" lon="6.85203485190868377685546875">
        <ele>575.20001220703125</ele>
        <time>2013-09-01T15:18:46.000Z</time>
        <extensions>
          <ns3:TrackPointExtension>
            <ns3:atemp>18.0</ns3:atemp>
          </ns3:TrackPointExtension>
        </extensions>
      </trkpt>
      <trkpt lat="46.74904678948223590850830078125" lon="6.8519880808889865875244140625">
        <ele>575.20001220703125</ele>
        <time>2013-09-01T15:18:47.000Z</time>
        <extensions>
          <ns3:TrackPointExtension>
            <ns3:atemp>18.0</ns3:atemp>
          </ns3:TrackPointExtension>
        </extensions>
      </trkpt>
      <trkpt lat="46.749018542468547821044921875" lon="6.85194374062120914459228515625">
        <ele>575.4000244140625</ele>
        <time>2013-09-01T15:18:48.000Z</time>
        <extensions>
          <ns3:TrackPointExtension>
            <ns3:atemp>18.0</ns3:atemp>
          </ns3:TrackPointExtension>
        </extensions>
      </trkpt>
      <trkpt lat="46.7489893734455108642578125" lon="6.8519022502005100250244140625">
        <ele>575.4000244140625</ele>
        <time>2013-09-01T15:18:49.000Z</time>
        <extensions>
          <ns3:TrackPointExtension>
            <ns3:atemp>18.0</ns3:atemp>
          </ns3:TrackPointExtension>
        </extensions>
      </trkpt>
      <trkpt lat="46.748954840004444122314453125" lon="6.8518536351621150970458984375">
        <ele>575.5999755859375</ele>
        <time>2013-09-01T15:18:50.000Z</time>
        <extensions>
          <ns3:TrackPointExtension>
            <ns3:atemp>18.0</ns3:atemp>
          </ns3:TrackPointExtension>
        </extensions>
      </trkpt>
      <trkpt lat="46.74892223440110683441162109375" lon="6.8518056906759738922119140625">
        <ele>575.79998779296875</ele>
        <time>2013-09-01T15:18:51.000Z</time>
        <extensions>
          <ns3:TrackPointExtension>
            <ns3:atemp>18.0</ns3:atemp>
          </ns3:TrackPointExtension>
        </extensions>
      </trkpt>
      <trkpt lat="46.74889147281646728515625" lon="6.85176319442689418792724609375">
        <ele>575.79998779296875</ele>
        <time>2013-09-01T15:18:52.000Z</time>
        <extensions>
          <ns3:TrackPointExtension>
            <ns3:atemp>18.0</ns3:atemp>
          </ns3:TrackPointExtension>
        </extensions>
      </trkpt>
      <trkpt lat="46.7488614656031131744384765625" lon="6.85171701014041900634765625">
        <ele>576</ele>
        <time>2013-09-01T15:18:53.000Z</time>
        <extensions>
          <ns3:TrackPointExtension>
            <ns3:atemp>18.0</ns3:atemp>
          </ns3:TrackPointExtension>
        </extensions>
      </trkpt>
      <trkpt lat="46.74883640371263027191162109375" lon="6.8516752682626247406005859375">
        <ele>576.20001220703125</ele>
        <time>2013-09-01T15:18:54.000Z</time>
        <extensions>
          <ns3:TrackPointExtension>
            <ns3:atemp>18.0</ns3:atemp>
          </ns3:TrackPointExtension>
        </extensions>
      </trkpt>
      <trkpt lat="46.7488074861466884613037109375" lon="6.85164132155478000640869140625">
        <ele>576.4000244140625</ele>
        <time>2013-09-01T15:18:55.000Z</time>
        <extensions>
          <ns3:TrackPointExtension>
            <ns3:atemp>18.0</ns3:atemp>
          </ns3:TrackPointExtension>
        </extensions>
      </trkpt>
      <trkpt lat="46.7487803287804126739501953125" lon="6.85160393826663494110107421875">
        <ele>576.4000244140625</ele>
        <time>2013-09-01T15:18:56.000Z</time>
        <extensions>
          <ns3:TrackPointExtension>
            <ns3:atemp>18.0</ns3:atemp>
          </ns3:TrackPointExtension>
        </extensions>
      </trkpt>
      <trkpt lat="46.74874956719577312469482421875" lon="6.85156680643558502197265625">
        <ele>576.5999755859375</ele>
        <time>2013-09-01T15:18:57.000Z</time>
        <extensions>
          <ns3:TrackPointExtension>
            <ns3:atemp>18.0</ns3:atemp>
          </ns3:TrackPointExtension>
        </extensions>
      </trkpt>
      <trkpt lat="46.74871888943016529083251953125" lon="6.8515264056622982025146484375">
        <ele>576.5999755859375</ele>
        <time>2013-09-01T15:18:58.000Z</time>
        <extensions>
          <ns3:TrackPointExtension>
            <ns3:atemp>18.0</ns3:atemp>
          </ns3:TrackPointExtension>
        </extensions>
      </trkpt>
      <trkpt lat="46.74869231879711151123046875" lon="6.85148634016513824462890625">
        <ele>576.79998779296875</ele>
        <time>2013-09-01T15:18:59.000Z</time>
        <extensions>
          <ns3:TrackPointExtension>
            <ns3:atemp>18.0</ns3:atemp>
          </ns3:TrackPointExtension>
        </extensions>
      </trkpt>
      <trkpt lat="46.74866943620145320892333984375" lon="6.8514442630112171173095703125">
        <ele>577</ele>
        <time>2013-09-01T15:19:00.000Z</time>
        <extensions>
          <ns3:TrackPointExtension>
            <ns3:atemp>18.0</ns3:atemp>
          </ns3:TrackPointExtension>
        </extensions>
      </trkpt>
      <trkpt lat="46.74864479340612888336181640625" lon="6.85140226967632770538330078125">
        <ele>577.20001220703125</ele>
        <time>2013-09-01T15:19:01.000Z</time>
        <extensions>
          <ns3:TrackPointExtension>
            <ns3:atemp>18.0</ns3:atemp>
          </ns3:TrackPointExtension>
        </extensions>
      </trkpt>
      <trkpt lat="46.748620904982089996337890625" lon="6.8513564206659793853759765625">
        <ele>577.4000244140625</ele>
        <time>2013-09-01T15:19:02.000Z</time>
        <extensions>
          <ns3:TrackPointExtension>
            <ns3:atemp>18.0</ns3:atemp>
          </ns3:TrackPointExtension>
        </extensions>
      </trkpt>
      <trkpt lat="46.74859953112900257110595703125" lon="6.85131727717816829681396484375">
        <ele>577.5999755859375</ele>
        <time>2013-09-01T15:19:03.000Z</time>
        <extensions>
          <ns3:TrackPointExtension>
            <ns3:atemp>18.0</ns3:atemp>
          </ns3:TrackPointExtension>
        </extensions>
      </trkpt>
      <trkpt lat="46.748580671846866607666015625" lon="6.85127620585262775421142578125">
        <ele>577.79998779296875</ele>
        <time>2013-09-01T15:19:04.000Z</time>
        <extensions>
          <ns3:TrackPointExtension>
            <ns3:atemp>18.0</ns3:atemp>
          </ns3:TrackPointExtension>
        </extensions>
      </trkpt>
      <trkpt lat="46.74856491386890411376953125" lon="6.85124234296381473541259765625">
        <ele>578</ele>
        <time>2013-09-01T15:19:05.000Z</time>
        <extensions>
          <ns3:TrackPointExtension>
            <ns3:atemp>18.0</ns3:atemp>
          </ns3:TrackPointExtension>
        </extensions>
      </trkpt>
      <trkpt lat="46.74854773096740245819091796875" lon="6.85120177455246448516845703125">
        <ele>578.4000244140625</ele>
        <time>2013-09-01T15:19:06.000Z</time>
        <extensions>
          <ns3:TrackPointExtension>
            <ns3:atemp>18.0</ns3:atemp>
          </ns3:TrackPointExtension>
        </extensions>
      </trkpt>
      <trkpt lat="46.74852560274302959442138671875" lon="6.85115776956081390380859375">
        <ele>578.5999755859375</ele>
        <time>2013-09-01T15:19:07.000Z</time>
        <extensions>
          <ns3:TrackPointExtension>
            <ns3:atemp>18.0</ns3:atemp>
          </ns3:TrackPointExtension>
        </extensions>
      </trkpt>
      <trkpt lat="46.74850917421281337738037109375" lon="6.8511106632649898529052734375">
        <ele>579</ele>
        <time>2013-09-01T15:19:08.000Z</time>
        <extensions>
          <ns3:TrackPointExtension>
            <ns3:atemp>18.0</ns3:atemp>
          </ns3:TrackPointExtension>
        </extensions>
      </trkpt>
      <trkpt lat="46.74850330688059329986572265625" lon="6.8510546721518039703369140625">
        <ele>579.5999755859375</ele>
        <time>2013-09-01T15:19:09.000Z</time>
        <extensions>
          <ns3:TrackPointExtension>
            <ns3:atemp>18.0</ns3:atemp>
          </ns3:TrackPointExtension>
        </extensions>
      </trkpt>
      <trkpt lat="46.74849785864353179931640625" lon="6.8510120920836925506591796875">
        <ele>580</ele>
        <time>2013-09-01T15:19:10.000Z</time>
        <extensions>
          <ns3:TrackPointExtension>
            <ns3:atemp>17.0</ns3:atemp>
          </ns3:TrackPointExtension>
        </extensions>
      </trkpt>
      <trkpt lat="46.7484926618635654449462890625" lon="6.8509641475975513458251953125">
        <ele>580.4000244140625</ele>
        <time>2013-09-01T15:19:11.000Z</time>
        <extensions>
          <ns3:TrackPointExtension>
            <ns3:atemp>17.0</ns3:atemp>
          </ns3:TrackPointExtension>
        </extensions>
      </trkpt>
      <trkpt lat="46.74849509261548519134521484375" lon="6.8509101681411266326904296875">
        <ele>580.5999755859375</ele>
        <time>2013-09-01T15:19:12.000Z</time>
        <extensions>
          <ns3:TrackPointExtension>
            <ns3:atemp>17.0</ns3:atemp>
          </ns3:TrackPointExtension>
        </extensions>
      </trkpt>
      <trkpt lat="46.74849643371999263763427734375" lon="6.85086800716817378997802734375">
        <ele>581</ele>
        <time>2013-09-01T15:19:13.000Z</time>
        <extensions>
          <ns3:TrackPointExtension>
            <ns3:atemp>17.0</ns3:atemp>
          </ns3:TrackPointExtension>
        </extensions>
      </trkpt>
      <trkpt lat="46.7484986968338489532470703125" lon="6.85081981122493743896484375">
        <ele>581</ele>
        <time>2013-09-01T15:19:14.000Z</time>
        <extensions>
          <ns3:TrackPointExtension>
            <ns3:atemp>17.0</ns3:atemp>
          </ns3:TrackPointExtension>
        </extensions>
      </trkpt>
      <trkpt lat="46.7485023848712444305419921875" lon="6.85077144764363765716552734375">
        <ele>581.20001220703125</ele>
        <time>2013-09-01T15:19:15.000Z</time>
        <extensions>
          <ns3:TrackPointExtension>
            <ns3:atemp>17.0</ns3:atemp>
          </ns3:TrackPointExtension>
        </extensions>
      </trkpt>
      <trkpt lat="46.748508252203464508056640625" lon="6.85072165913879871368408203125">
        <ele>581.4000244140625</ele>
        <time>2013-09-01T15:19:16.000Z</time>
        <extensions>
          <ns3:TrackPointExtension>
            <ns3:atemp>17.0</ns3:atemp>
          </ns3:TrackPointExtension>
        </extensions>
      </trkpt>
      <trkpt lat="46.74851001240313053131103515625" lon="6.85067036189138889312744140625">
        <ele>581.5999755859375</ele>
        <time>2013-09-01T15:19:17.000Z</time>
        <extensions>
          <ns3:TrackPointExtension>
            <ns3:atemp>17.0</ns3:atemp>
          </ns3:TrackPointExtension>
        </extensions>
      </trkpt>
      <trkpt lat="46.74850716255605220794677734375" lon="6.85061738826334476470947265625">
        <ele>581.79998779296875</ele>
        <time>2013-09-01T15:19:18.000Z</time>
        <extensions>
          <ns3:TrackPointExtension>
            <ns3:atemp>17.0</ns3:atemp>
          </ns3:TrackPointExtension>
        </extensions>
      </trkpt>
      <trkpt lat="46.74850213341414928436279296875" lon="6.85056634247303009033203125">
        <ele>582</ele>
        <time>2013-09-01T15:19:19.000Z</time>
        <extensions>
          <ns3:TrackPointExtension>
            <ns3:atemp>17.0</ns3:atemp>
          </ns3:TrackPointExtension>
        </extensions>
      </trkpt>
      <trkpt lat="46.74849492497742176055908203125" lon="6.850513704121112823486328125">
        <ele>582.20001220703125</ele>
        <time>2013-09-01T15:19:20.000Z</time>
        <extensions>
          <ns3:TrackPointExtension>
            <ns3:atemp>17.0</ns3:atemp>
          </ns3:TrackPointExtension>
        </extensions>
      </trkpt>
      <trkpt lat="46.74848503433167934417724609375" lon="6.85046307742595672607421875">
        <ele>582.20001220703125</ele>
        <time>2013-09-01T15:19:21.000Z</time>
        <extensions>
          <ns3:TrackPointExtension>
            <ns3:atemp>17.0</ns3:atemp>
          </ns3:TrackPointExtension>
        </extensions>
      </trkpt>
      <trkpt lat="46.74847112037241458892822265625" lon="6.85041538439691066741943359375">
        <ele>582.4000244140625</ele>
        <time>2013-09-01T15:19:22.000Z</time>
        <extensions>
          <ns3:TrackPointExtension>
            <ns3:atemp>17.0</ns3:atemp>
          </ns3:TrackPointExtension>
        </extensions>
      </trkpt>
      <trkpt lat="46.7484537698328495025634765625" lon="6.85036961920559406280517578125">
        <ele>582.5999755859375</ele>
        <time>2013-09-01T15:19:23.000Z</time>
        <extensions>
          <ns3:TrackPointExtension>
            <ns3:atemp>17.0</ns3:atemp>
          </ns3:TrackPointExtension>
        </extensions>
      </trkpt>
      <trkpt lat="46.748433150351047515869140625" lon="6.8503200821578502655029296875">
        <ele>582.79998779296875</ele>
        <time>2013-09-01T15:19:24.000Z</time>
        <extensions>
          <ns3:TrackPointExtension>
            <ns3:atemp>17.0</ns3:atemp>
          </ns3:TrackPointExtension>
        </extensions>
      </trkpt>
      <trkpt lat="46.74840875901281833648681640625" lon="6.85027557425200939178466796875">
        <ele>583</ele>
        <time>2013-09-01T15:19:25.000Z</time>
        <extensions>
          <ns3:TrackPointExtension>
            <ns3:atemp>17.0</ns3:atemp>
          </ns3:TrackPointExtension>
        </extensions>
      </trkpt>
      <trkpt lat="46.7483805119991302490234375" lon="6.8502335809171199798583984375">
        <ele>583.20001220703125</ele>
        <time>2013-09-01T15:19:26.000Z</time>
        <extensions>
          <ns3:TrackPointExtension>
            <ns3:atemp>17.0</ns3:atemp>
          </ns3:TrackPointExtension>
        </extensions>
      </trkpt>
      <trkpt lat="46.7483481578528881072998046875" lon="6.85019007883965969085693359375">
        <ele>583.4000244140625</ele>
        <time>2013-09-01T15:19:27.000Z</time>
        <extensions>
          <ns3:TrackPointExtension>
            <ns3:atemp>17.0</ns3:atemp>
          </ns3:TrackPointExtension>
        </extensions>
      </trkpt>
      <trkpt lat="46.74831521697342395782470703125" lon="6.85013911686837673187255859375">
        <ele>583.20001220703125</ele>
        <time>2013-09-01T15:19:28.000Z</time>
        <extensions>
          <ns3:TrackPointExtension>
            <ns3:atemp>17.0</ns3:atemp>
          </ns3:TrackPointExtension>
        </extensions>
      </trkpt>
      <trkpt lat="46.7482787556946277618408203125" lon="6.8500895798206329345703125">
        <ele>583.4000244140625</ele>
        <time>2013-09-01T15:19:29.000Z</time>
        <extensions>
          <ns3:TrackPointExtension>
            <ns3:atemp>17.0</ns3:atemp>
          </ns3:TrackPointExtension>
        </extensions>
      </trkpt>
      <trkpt lat="46.7482410371303558349609375" lon="6.85004607774317264556884765625">
        <ele>583.4000244140625</ele>
        <time>2013-09-01T15:19:30.000Z</time>
        <extensions>
          <ns3:TrackPointExtension>
            <ns3:atemp>17.0</ns3:atemp>
          </ns3:TrackPointExtension>
        </extensions>
      </trkpt>
      <trkpt lat="46.748205833137035369873046875" lon="6.85000182129442691802978515625">
        <ele>583.5999755859375</ele>
        <time>2013-09-01T15:19:31.000Z</time>
        <extensions>
          <ns3:TrackPointExtension>
            <ns3:atemp>17.0</ns3:atemp>
          </ns3:TrackPointExtension>
        </extensions>
      </trkpt>
      <trkpt lat="46.74816635437309741973876953125" lon="6.84995479881763458251953125">
        <ele>583.5999755859375</ele>
        <time>2013-09-01T15:19:32.000Z</time>
        <extensions>
          <ns3:TrackPointExtension>
            <ns3:atemp>17.0</ns3:atemp>
          </ns3:TrackPointExtension>
        </extensions>
      </trkpt>
      <trkpt lat="46.7481230199337005615234375" lon="6.8499073572456836700439453125">
        <ele>583.4000244140625</ele>
        <time>2013-09-01T15:19:33.000Z</time>
        <extensions>
          <ns3:TrackPointExtension>
            <ns3:atemp>17.0</ns3:atemp>
          </ns3:TrackPointExtension>
        </extensions>
      </trkpt>
      <trkpt lat="46.748083122074604034423828125" lon="6.84986234642565250396728515625">
        <ele>583.5999755859375</ele>
        <time>2013-09-01T15:19:34.000Z</time>
        <extensions>
          <ns3:TrackPointExtension>
            <ns3:atemp>17.0</ns3:atemp>
          </ns3:TrackPointExtension>
        </extensions>
      </trkpt>
      <trkpt lat="46.7480437271296977996826171875" lon="6.84981808997690677642822265625">
        <ele>583.5999755859375</ele>
        <time>2013-09-01T15:19:35.000Z</time>
        <extensions>
          <ns3:TrackPointExtension>
            <ns3:atemp>17.0</ns3:atemp>
          </ns3:TrackPointExtension>
        </extensions>
      </trkpt>
      <trkpt lat="46.7480068467557430267333984375" lon="6.849769055843353271484375">
        <ele>583.79998779296875</ele>
        <time>2013-09-01T15:19:36.000Z</time>
        <extensions>
          <ns3:TrackPointExtension>
            <ns3:atemp>17.0</ns3:atemp>
          </ns3:TrackPointExtension>
        </extensions>
      </trkpt>
      <trkpt lat="46.747967787086963653564453125" lon="6.84972236864268779754638671875">
        <ele>583.79998779296875</ele>
        <time>2013-09-01T15:19:37.000Z</time>
        <extensions>
          <ns3:TrackPointExtension>
            <ns3:atemp>17.0</ns3:atemp>
          </ns3:TrackPointExtension>
        </extensions>
      </trkpt>
      <trkpt lat="46.7479280568659305572509765625" lon="6.84967576526105403900146484375">
        <ele>583.79998779296875</ele>
        <time>2013-09-01T15:19:38.000Z</time>
        <extensions>
          <ns3:TrackPointExtension>
            <ns3:atemp>17.0</ns3:atemp>
          </ns3:TrackPointExtension>
        </extensions>
      </trkpt>
      <trkpt lat="46.74788790754973888397216796875" lon="6.8496247194707393646240234375">
        <ele>584</ele>
        <time>2013-09-01T15:19:39.000Z</time>
        <extensions>
          <ns3:TrackPointExtension>
            <ns3:atemp>17.0</ns3:atemp>
          </ns3:TrackPointExtension>
        </extensions>
      </trkpt>
      <trkpt lat="46.7478492669761180877685546875" lon="6.849578954279422760009765625">
        <ele>584</ele>
        <time>2013-09-01T15:19:40.000Z</time>
        <extensions>
          <ns3:TrackPointExtension>
            <ns3:atemp>17.0</ns3:atemp>
          </ns3:TrackPointExtension>
        </extensions>
      </trkpt>
      <trkpt lat="46.74781045876443386077880859375" lon="6.84953209944069385528564453125">
        <ele>584</ele>
        <time>2013-09-01T15:19:41.000Z</time>
        <extensions>
          <ns3:TrackPointExtension>
            <ns3:atemp>17.0</ns3:atemp>
          </ns3:TrackPointExtension>
        </extensions>
      </trkpt>
      <trkpt lat="46.7477664537727832794189453125" lon="6.84948298148810863494873046875">
        <ele>583.79998779296875</ele>
        <time>2013-09-01T15:19:42.000Z</time>
        <extensions>
          <ns3:TrackPointExtension>
            <ns3:atemp>17.0</ns3:atemp>
          </ns3:TrackPointExtension>
        </extensions>
      </trkpt>
      <trkpt lat="46.7477285675704479217529296875" lon="6.8494386412203311920166015625">
        <ele>583.79998779296875</ele>
        <time>2013-09-01T15:19:43.000Z</time>
        <extensions>
          <ns3:TrackPointExtension>
            <ns3:atemp>17.0</ns3:atemp>
          </ns3:TrackPointExtension>
        </extensions>
      </trkpt>
      <trkpt lat="46.74768917262554168701171875" lon="6.8493950553238391876220703125">
        <ele>584</ele>
        <time>2013-09-01T15:19:44.000Z</time>
        <extensions>
          <ns3:TrackPointExtension>
            <ns3:atemp>17.0</ns3:atemp>
          </ns3:TrackPointExtension>
        </extensions>
      </trkpt>
      <trkpt lat="46.74765036441385746002197265625" lon="6.8493524752557277679443359375">
        <ele>584.4000244140625</ele>
        <time>2013-09-01T15:19:45.000Z</time>
        <extensions>
          <ns3:TrackPointExtension>
            <ns3:atemp>17.0</ns3:atemp>
          </ns3:TrackPointExtension>
        </extensions>
      </trkpt>
      <trkpt lat="46.747607700526714324951171875" lon="6.8493038602173328399658203125">
        <ele>584.4000244140625</ele>
        <time>2013-09-01T15:19:46.000Z</time>
        <extensions>
          <ns3:TrackPointExtension>
            <ns3:atemp>17.0</ns3:atemp>
          </ns3:TrackPointExtension>
        </extensions>
      </trkpt>
      <trkpt lat="46.7475666292011737823486328125" lon="6.84925633482635021209716796875">
        <ele>584.20001220703125</ele>
        <time>2013-09-01T15:19:47.000Z</time>
        <extensions>
          <ns3:TrackPointExtension>
            <ns3:atemp>17.0</ns3:atemp>
          </ns3:TrackPointExtension>
        </extensions>
      </trkpt>
      <trkpt lat="46.74752664752304553985595703125" lon="6.8492083065211772918701171875">
        <ele>584.20001220703125</ele>
        <time>2013-09-01T15:19:48.000Z</time>
        <extensions>
          <ns3:TrackPointExtension>
            <ns3:atemp>17.0</ns3:atemp>
          </ns3:TrackPointExtension>
        </extensions>
      </trkpt>
      <trkpt lat="46.747483648359775543212890625" lon="6.84915876947343349456787109375">
        <ele>584.4000244140625</ele>
        <time>2013-09-01T15:19:49.000Z</time>
        <extensions>
          <ns3:TrackPointExtension>
            <ns3:atemp>17.0</ns3:atemp>
          </ns3:TrackPointExtension>
        </extensions>
      </trkpt>
      <trkpt lat="46.747440397739410400390625" lon="6.8491073884069919586181640625">
        <ele>584.4000244140625</ele>
        <time>2013-09-01T15:19:50.000Z</time>
        <extensions>
          <ns3:TrackPointExtension>
            <ns3:atemp>17.0</ns3:atemp>
          </ns3:TrackPointExtension>
        </extensions>
      </trkpt>
      <trkpt lat="46.7473939619958400726318359375" lon="6.849063299596309661865234375">
        <ele>584.79998779296875</ele>
        <time>2013-09-01T15:19:51.000Z</time>
        <extensions>
          <ns3:TrackPointExtension>
            <ns3:atemp>17.0</ns3:atemp>
          </ns3:TrackPointExtension>
        </extensions>
      </trkpt>
      <trkpt lat="46.7473470233380794525146484375" lon="6.849021725356578826904296875">
        <ele>584.79998779296875</ele>
        <time>2013-09-01T15:19:52.000Z</time>
        <extensions>
          <ns3:TrackPointExtension>
            <ns3:atemp>17.0</ns3:atemp>
          </ns3:TrackPointExtension>
        </extensions>
      </trkpt>
      <trkpt lat="46.74730033613741397857666015625" lon="6.84897637926042079925537109375">
        <ele>585</ele>
        <time>2013-09-01T15:19:53.000Z</time>
        <extensions>
          <ns3:TrackPointExtension>
            <ns3:atemp>17.0</ns3:atemp>
          </ns3:TrackPointExtension>
        </extensions>
      </trkpt>
      <trkpt lat="46.74725222401320934295654296875" lon="6.84894268400967121124267578125">
        <ele>585</ele>
        <time>2013-09-01T15:19:54.000Z</time>
        <extensions>
          <ns3:TrackPointExtension>
            <ns3:atemp>17.0</ns3:atemp>
          </ns3:TrackPointExtension>
        </extensions>
      </trkpt>
      <trkpt lat="46.74720126204192638397216796875" lon="6.84891007840633392333984375">
        <ele>585</ele>
        <time>2013-09-01T15:19:55.000Z</time>
        <extensions>
          <ns3:TrackPointExtension>
            <ns3:atemp>17.0</ns3:atemp>
          </ns3:TrackPointExtension>
        </extensions>
      </trkpt>
      <trkpt lat="46.74714879132807254791259765625" lon="6.84887789189815521240234375">
        <ele>585</ele>
        <time>2013-09-01T15:19:56.000Z</time>
        <extensions>
          <ns3:TrackPointExtension>
            <ns3:atemp>17.0</ns3:atemp>
          </ns3:TrackPointExtension>
        </extensions>
      </trkpt>
      <trkpt lat="46.74709363840520381927490234375" lon="6.84884880669414997100830078125">
        <ele>585</ele>
        <time>2013-09-01T15:19:57.000Z</time>
        <extensions>
          <ns3:TrackPointExtension>
            <ns3:atemp>17.0</ns3:atemp>
          </ns3:TrackPointExtension>
        </extensions>
      </trkpt>
      <trkpt lat="46.747034378349781036376953125" lon="6.848815865814685821533203125">
        <ele>585</ele>
        <time>2013-09-01T15:19:58.000Z</time>
        <extensions>
          <ns3:TrackPointExtension>
            <ns3:atemp>17.0</ns3:atemp>
          </ns3:TrackPointExtension>
        </extensions>
      </trkpt>
      <trkpt lat="46.74696790985763072967529296875" lon="6.848783008754253387451171875">
        <ele>585</ele>
        <time>2013-09-01T15:19:59.000Z</time>
        <extensions>
          <ns3:TrackPointExtension>
            <ns3:atemp>17.0</ns3:atemp>
          </ns3:TrackPointExtension>
        </extensions>
      </trkpt>
      <trkpt lat="46.74690060317516326904296875" lon="6.848749816417694091796875">
        <ele>585</ele>
        <time>2013-09-01T15:20:00.000Z</time>
        <extensions>
          <ns3:TrackPointExtension>
            <ns3:atemp>17.0</ns3:atemp>
          </ns3:TrackPointExtension>
        </extensions>
      </trkpt>
      <trkpt lat="46.74683731980621814727783203125" lon="6.84870581142604351043701171875">
        <ele>584.5999755859375</ele>
        <time>2013-09-01T15:20:01.000Z</time>
        <extensions>
          <ns3:TrackPointExtension>
            <ns3:atemp>17.0</ns3:atemp>
          </ns3:TrackPointExtension>
        </extensions>
      </trkpt>
      <trkpt lat="46.7467792332172393798828125" lon="6.8486380018293857574462890625">
        <ele>584.4000244140625</ele>
        <time>2013-09-01T15:20:02.000Z</time>
        <extensions>
          <ns3:TrackPointExtension>
            <ns3:atemp>17.0</ns3:atemp>
          </ns3:TrackPointExtension>
        </extensions>
      </trkpt>
      <trkpt lat="46.7467217333614826202392578125" lon="6.84856466017663478851318359375">
        <ele>584</ele>
        <time>2013-09-01T15:20:03.000Z</time>
        <extensions>
          <ns3:TrackPointExtension>
            <ns3:atemp>17.0</ns3:atemp>
          </ns3:TrackPointExtension>
        </extensions>
      </trkpt>
      <trkpt lat="46.74666381441056728363037109375" lon="6.84848385863006114959716796875">
        <ele>583.5999755859375</ele>
        <time>2013-09-01T15:20:04.000Z</time>
        <extensions>
          <ns3:TrackPointExtension>
            <ns3:atemp>17.0</ns3:atemp>
          </ns3:TrackPointExtension>
        </extensions>
      </trkpt>
      <trkpt lat="46.74660581164062023162841796875" lon="6.84840045869350433349609375">
        <ele>582.79998779296875</ele>
        <time>2013-09-01T15:20:05.000Z</time>
        <extensions>
          <ns3:TrackPointExtension>
            <ns3:atemp>17.0</ns3:atemp>
          </ns3:TrackPointExtension>
        </extensions>
      </trkpt>
      <trkpt lat="46.74654428847134113311767578125" lon="6.8483208306133747100830078125">
        <ele>582.4000244140625</ele>
        <time>2013-09-01T15:20:06.000Z</time>
        <extensions>
          <ns3:TrackPointExtension>
            <ns3:atemp>17.0</ns3:atemp>
          </ns3:TrackPointExtension>
        </extensions>
      </trkpt>
      <trkpt lat="46.7464796639978885650634765625" lon="6.8482406996190547943115234375">
        <ele>582.20001220703125</ele>
        <time>2013-09-01T15:20:07.000Z</time>
        <extensions>
          <ns3:TrackPointExtension>
            <ns3:atemp>17.0</ns3:atemp>
          </ns3:TrackPointExtension>
        </extensions>
      </trkpt>
      <trkpt lat="46.7464075796306133270263671875" lon="6.84816149063408374786376953125">
        <ele>581.79998779296875</ele>
        <time>2013-09-01T15:20:08.000Z</time>
        <extensions>
          <ns3:TrackPointExtension>
            <ns3:atemp>17.0</ns3:atemp>
          </ns3:TrackPointExtension>
        </extensions>
      </trkpt>
      <trkpt lat="46.74633541144430637359619140625" lon="6.84808370657265186309814453125">
        <ele>581.4000244140625</ele>
        <time>2013-09-01T15:20:09.000Z</time>
        <extensions>
          <ns3:TrackPointExtension>
            <ns3:atemp>17.0</ns3:atemp>
          </ns3:TrackPointExtension>
        </extensions>
      </trkpt>
      <trkpt lat="46.74626198597252368927001953125" lon="6.8480050005018711090087890625">
        <ele>580.79998779296875</ele>
        <time>2013-09-01T15:20:10.000Z</time>
        <extensions>
          <ns3:TrackPointExtension>
            <ns3:atemp>17.0</ns3:atemp>
          </ns3:TrackPointExtension>
        </extensions>
      </trkpt>
      <trkpt lat="46.74618705175817012786865234375" lon="6.84792461805045604705810546875">
        <ele>580.4000244140625</ele>
        <time>2013-09-01T15:20:11.000Z</time>
        <extensions>
          <ns3:TrackPointExtension>
            <ns3:atemp>17.0</ns3:atemp>
          </ns3:TrackPointExtension>
        </extensions>
      </trkpt>
      <trkpt lat="46.746109016239643096923828125" lon="6.8478392064571380615234375">
        <ele>579.79998779296875</ele>
        <time>2013-09-01T15:20:12.000Z</time>
        <extensions>
          <ns3:TrackPointExtension>
            <ns3:atemp>17.0</ns3:atemp>
          </ns3:TrackPointExtension>
        </extensions>
      </trkpt>
      <trkpt lat="46.746035255491733551025390625" lon="6.84775228612124919891357421875">
        <ele>579.20001220703125</ele>
        <time>2013-09-01T15:20:13.000Z</time>
        <extensions>
          <ns3:TrackPointExtension>
            <ns3:atemp>17.0</ns3:atemp>
          </ns3:TrackPointExtension>
        </extensions>
      </trkpt>
      <trkpt lat="46.7459566332399845123291015625" lon="6.84765941463410854339599609375">
        <ele>578.4000244140625</ele>
        <time>2013-09-01T15:20:14.000Z</time>
        <extensions>
          <ns3:TrackPointExtension>
            <ns3:atemp>17.0</ns3:atemp>
          </ns3:TrackPointExtension>
        </extensions>
      </trkpt>
      <trkpt lat="46.74587993882596492767333984375" lon="6.84756453149020671844482421875">
        <ele>578</ele>
        <time>2013-09-01T15:20:15.000Z</time>
        <extensions>
          <ns3:TrackPointExtension>
            <ns3:atemp>17.0</ns3:atemp>
          </ns3:TrackPointExtension>
        </extensions>
      </trkpt>
      <trkpt lat="46.7458081059157848358154296875" lon="6.84746713377535343170166015625">
        <ele>577.5999755859375</ele>
        <time>2013-09-01T15:20:16.000Z</time>
        <extensions>
          <ns3:TrackPointExtension>
            <ns3:atemp>17.0</ns3:atemp>
          </ns3:TrackPointExtension>
        </extensions>
      </trkpt>
      <trkpt lat="46.74573090858757495880126953125" lon="6.8473659642040729522705078125">
        <ele>577.4000244140625</ele>
        <time>2013-09-01T15:20:17.000Z</time>
        <extensions>
          <ns3:TrackPointExtension>
            <ns3:atemp>17.0</ns3:atemp>
          </ns3:TrackPointExtension>
        </extensions>
      </trkpt>
      <trkpt lat="46.74565429799258708953857421875" lon="6.8472660519182682037353515625">
        <ele>576.79998779296875</ele>
        <time>2013-09-01T15:20:18.000Z</time>
        <extensions>
          <ns3:TrackPointExtension>
            <ns3:atemp>17.0</ns3:atemp>
          </ns3:TrackPointExtension>
        </extensions>
      </trkpt>
      <trkpt lat="46.74558070488274097442626953125" lon="6.84716555289924144744873046875">
        <ele>576.4000244140625</ele>
        <time>2013-09-01T15:20:19.000Z</time>
        <extensions>
          <ns3:TrackPointExtension>
            <ns3:atemp>17.0</ns3:atemp>
          </ns3:TrackPointExtension>
        </extensions>
      </trkpt>
      <trkpt lat="46.745507530868053436279296875" lon="6.847068406641483306884765625">
        <ele>575.5999755859375</ele>
        <time>2013-09-01T15:20:20.000Z</time>
        <extensions>
          <ns3:TrackPointExtension>
            <ns3:atemp>17.0</ns3:atemp>
          </ns3:TrackPointExtension>
        </extensions>
      </trkpt>
      <trkpt lat="46.74543754197657108306884765625" lon="6.84697394259274005889892578125">
        <ele>574.5999755859375</ele>
        <time>2013-09-01T15:20:21.000Z</time>
        <extensions>
          <ns3:TrackPointExtension>
            <ns3:atemp>17.0</ns3:atemp>
          </ns3:TrackPointExtension>
        </extensions>
      </trkpt>
      <trkpt lat="46.74536713398993015289306640625" lon="6.846882663667201995849609375">
        <ele>574.4000244140625</ele>
        <time>2013-09-01T15:20:22.000Z</time>
        <extensions>
          <ns3:TrackPointExtension>
            <ns3:atemp>17.0</ns3:atemp>
          </ns3:TrackPointExtension>
        </extensions>
      </trkpt>
      <trkpt lat="46.74530007876455783843994140625" lon="6.8467886187136173248291015625">
        <ele>574.20001220703125</ele>
        <time>2013-09-01T15:20:23.000Z</time>
        <extensions>
          <ns3:TrackPointExtension>
            <ns3:atemp>17.0</ns3:atemp>
          </ns3:TrackPointExtension>
        </extensions>
      </trkpt>
      <trkpt lat="46.745235286653041839599609375" lon="6.846699602901935577392578125">
        <ele>574.20001220703125</ele>
        <time>2013-09-01T15:20:24.000Z</time>
        <extensions>
          <ns3:TrackPointExtension>
            <ns3:atemp>17.0</ns3:atemp>
          </ns3:TrackPointExtension>
        </extensions>
      </trkpt>
      <trkpt lat="46.7451740987598896026611328125" lon="6.84660865925252437591552734375">
        <ele>574</ele>
        <time>2013-09-01T15:20:25.000Z</time>
        <extensions>
          <ns3:TrackPointExtension>
            <ns3:atemp>17.0</ns3:atemp>
          </ns3:TrackPointExtension>
        </extensions>
      </trkpt>
      <trkpt lat="46.74511483870446681976318359375" lon="6.84652291238307952880859375">
        <ele>574</ele>
        <time>2013-09-01T15:20:26.000Z</time>
        <extensions>
          <ns3:TrackPointExtension>
            <ns3:atemp>17.0</ns3:atemp>
          </ns3:TrackPointExtension>
        </extensions>
      </trkpt>
      <trkpt lat="46.74505750648677349090576171875" lon="6.8464375846087932586669921875">
        <ele>573.5999755859375</ele>
        <time>2013-09-01T15:20:27.000Z</time>
        <extensions>
          <ns3:TrackPointExtension>
            <ns3:atemp>17.0</ns3:atemp>
          </ns3:TrackPointExtension>
        </extensions>
      </trkpt>
      <trkpt lat="46.74500419758260250091552734375" lon="6.84635368175804615020751953125">
        <ele>573.4000244140625</ele>
        <time>2013-09-01T15:20:28.000Z</time>
        <extensions>
          <ns3:TrackPointExtension>
            <ns3:atemp>17.0</ns3:atemp>
          </ns3:TrackPointExtension>
        </extensions>
      </trkpt>
      <trkpt lat="46.74495608545839786529541015625" lon="6.84626986272633075714111328125">
        <ele>573.20001220703125</ele>
        <time>2013-09-01T15:20:29.000Z</time>
        <extensions>
          <ns3:TrackPointExtension>
            <ns3:atemp>17.0</ns3:atemp>
          </ns3:TrackPointExtension>
        </extensions>
      </trkpt>
      <trkpt lat="46.74490981735289096832275390625" lon="6.84618788771331310272216796875">
        <ele>573.5999755859375</ele>
        <time>2013-09-01T15:20:30.000Z</time>
        <extensions>
          <ns3:TrackPointExtension>
            <ns3:atemp>17.0</ns3:atemp>
          </ns3:TrackPointExtension>
        </extensions>
      </trkpt>
      <trkpt lat="46.7448632977902889251708984375" lon="6.84610943309962749481201171875">
        <ele>573.5999755859375</ele>
        <time>2013-09-01T15:20:31.000Z</time>
        <extensions>
          <ns3:TrackPointExtension>
            <ns3:atemp>17.0</ns3:atemp>
          </ns3:TrackPointExtension>
        </extensions>
      </trkpt>
      <trkpt lat="46.744817532598972320556640625" lon="6.84603282250463962554931640625">
        <ele>573.5999755859375</ele>
        <time>2013-09-01T15:20:32.000Z</time>
        <extensions>
          <ns3:TrackPointExtension>
            <ns3:atemp>17.0</ns3:atemp>
          </ns3:TrackPointExtension>
        </extensions>
      </trkpt>
      <trkpt lat="46.74477185122668743133544921875" lon="6.8459537811577320098876953125">
        <ele>573.4000244140625</ele>
        <time>2013-09-01T15:20:33.000Z</time>
        <extensions>
          <ns3:TrackPointExtension>
            <ns3:atemp>17.0</ns3:atemp>
          </ns3:TrackPointExtension>
        </extensions>
      </trkpt>
      <trkpt lat="46.7447248287498950958251953125" lon="6.845870129764080047607421875">
        <ele>573.4000244140625</ele>
        <time>2013-09-01T15:20:34.000Z</time>
        <extensions>
          <ns3:TrackPointExtension>
            <ns3:atemp>17.0</ns3:atemp>
          </ns3:TrackPointExtension>
        </extensions>
      </trkpt>
      <trkpt lat="46.7446852661669254302978515625" lon="6.845783293247222900390625">
        <ele>573.5999755859375</ele>
        <time>2013-09-01T15:20:35.000Z</time>
        <extensions>
          <ns3:TrackPointExtension>
            <ns3:atemp>17.0</ns3:atemp>
          </ns3:TrackPointExtension>
        </extensions>
      </trkpt>
      <trkpt lat="46.7446468770503997802734375" lon="6.84569888748228549957275390625">
        <ele>573.4000244140625</ele>
        <time>2013-09-01T15:20:36.000Z</time>
        <extensions>
          <ns3:TrackPointExtension>
            <ns3:atemp>17.0</ns3:atemp>
          </ns3:TrackPointExtension>
        </extensions>
      </trkpt>
      <trkpt lat="46.74461326561868190765380859375" lon="6.84561473317444324493408203125">
        <ele>573.4000244140625</ele>
        <time>2013-09-01T15:20:37.000Z</time>
        <extensions>
          <ns3:TrackPointExtension>
            <ns3:atemp>17.0</ns3:atemp>
          </ns3:TrackPointExtension>
        </extensions>
      </trkpt>
      <trkpt lat="46.7445830069482326507568359375" lon="6.8455303274095058441162109375">
        <ele>573.4000244140625</ele>
        <time>2013-09-01T15:20:38.000Z</time>
        <extensions>
          <ns3:TrackPointExtension>
            <ns3:atemp>17.0</ns3:atemp>
          </ns3:TrackPointExtension>
        </extensions>
      </trkpt>
      <trkpt lat="46.74456263892352581024169921875" lon="6.845440305769443511962890625">
        <ele>573.4000244140625</ele>
        <time>2013-09-01T15:20:39.000Z</time>
        <extensions>
          <ns3:TrackPointExtension>
            <ns3:atemp>17.0</ns3:atemp>
          </ns3:TrackPointExtension>
        </extensions>
      </trkpt>
      <trkpt lat="46.74454386346042156219482421875" lon="6.845358498394489288330078125">
        <ele>573.5999755859375</ele>
        <time>2013-09-01T15:20:40.000Z</time>
        <extensions>
          <ns3:TrackPointExtension>
            <ns3:atemp>17.0</ns3:atemp>
          </ns3:TrackPointExtension>
        </extensions>
      </trkpt>
      <trkpt lat="46.74452307634055614471435546875" lon="6.8452771939337253570556640625">
        <ele>573.79998779296875</ele>
        <time>2013-09-01T15:20:41.000Z</time>
        <extensions>
          <ns3:TrackPointExtension>
            <ns3:atemp>17.0</ns3:atemp>
          </ns3:TrackPointExtension>
        </extensions>
      </trkpt>
      <trkpt lat="46.74449843354523181915283203125" lon="6.8452007509768009185791015625">
        <ele>574</ele>
        <time>2013-09-01T15:20:42.000Z</time>
        <extensions>
          <ns3:TrackPointExtension>
            <ns3:atemp>17.0</ns3:atemp>
          </ns3:TrackPointExtension>
        </extensions>
      </trkpt>
      <trkpt lat="46.74447479657828807830810546875" lon="6.84512506239116191864013671875">
        <ele>574</ele>
        <time>2013-09-01T15:20:43.000Z</time>
        <extensions>
          <ns3:TrackPointExtension>
            <ns3:atemp>17.0</ns3:atemp>
          </ns3:TrackPointExtension>
        </extensions>
      </trkpt>
      <trkpt lat="46.74445283599197864532470703125" lon="6.8450539000332355499267578125">
        <ele>574</ele>
        <time>2013-09-01T15:20:44.000Z</time>
        <extensions>
          <ns3:TrackPointExtension>
            <ns3:atemp>17.0</ns3:atemp>
          </ns3:TrackPointExtension>
        </extensions>
      </trkpt>
      <trkpt lat="46.74442618153989315032958984375" lon="6.84498793445527553558349609375">
        <ele>574</ele>
        <time>2013-09-01T15:20:45.000Z</time>
        <extensions>
          <ns3:TrackPointExtension>
            <ns3:atemp>17.0</ns3:atemp>
          </ns3:TrackPointExtension>
        </extensions>
      </trkpt>
      <trkpt lat="46.7444039694964885711669921875" lon="6.8449221365153789520263671875">
        <ele>574</ele>
        <time>2013-09-01T15:20:46.000Z</time>
        <extensions>
          <ns3:TrackPointExtension>
            <ns3:atemp>17.0</ns3:atemp>
          </ns3:TrackPointExtension>
        </extensions>
      </trkpt>
      <trkpt lat="46.7443813383579254150390625" lon="6.8448550812900066375732421875">
        <ele>574.20001220703125</ele>
        <time>2013-09-01T15:20:47.000Z</time>
        <extensions>
          <ns3:TrackPointExtension>
            <ns3:atemp>17.0</ns3:atemp>
          </ns3:TrackPointExtension>
        </extensions>
      </trkpt>
      <trkpt lat="46.744366586208343505859375" lon="6.84479154646396636962890625">
        <ele>574.4000244140625</ele>
        <time>2013-09-01T15:20:48.000Z</time>
        <extensions>
          <ns3:TrackPointExtension>
            <ns3:atemp>17.0</ns3:atemp>
          </ns3:TrackPointExtension>
        </extensions>
      </trkpt>
      <trkpt lat="46.74434714019298553466796875" lon="6.84472591616213321685791015625">
        <ele>574.5999755859375</ele>
        <time>2013-09-01T15:20:49.000Z</time>
        <extensions>
          <ns3:TrackPointExtension>
            <ns3:atemp>17.0</ns3:atemp>
          </ns3:TrackPointExtension>
        </extensions>
      </trkpt>
      <trkpt lat="46.74432509578764438629150390625" lon="6.84466070495545864105224609375">
        <ele>574.79998779296875</ele>
        <time>2013-09-01T15:20:50.000Z</time>
        <extensions>
          <ns3:TrackPointExtension>
            <ns3:atemp>17.0</ns3:atemp>
          </ns3:TrackPointExtension>
        </extensions>
      </trkpt>
      <trkpt lat="46.74430078826844692230224609375" lon="6.84459633193910121917724609375">
        <ele>575</ele>
        <time>2013-09-01T15:20:51.000Z</time>
        <extensions>
          <ns3:TrackPointExtension>
            <ns3:atemp>17.0</ns3:atemp>
          </ns3:TrackPointExtension>
        </extensions>
      </trkpt>
      <trkpt lat="46.7442738823592662811279296875" lon="6.84452760033309459686279296875">
        <ele>575.20001220703125</ele>
        <time>2013-09-01T15:20:52.000Z</time>
        <extensions>
          <ns3:TrackPointExtension>
            <ns3:atemp>17.0</ns3:atemp>
          </ns3:TrackPointExtension>
        </extensions>
      </trkpt>
      <trkpt lat="46.7442541010677814483642578125" lon="6.84445350430905818939208984375">
        <ele>575.4000244140625</ele>
        <time>2013-09-01T15:20:53.000Z</time>
        <extensions>
          <ns3:TrackPointExtension>
            <ns3:atemp>17.0</ns3:atemp>
          </ns3:TrackPointExtension>
        </extensions>
      </trkpt>
      <trkpt lat="46.7442338168621063232421875" lon="6.8443806655704975128173828125">
        <ele>575.79998779296875</ele>
        <time>2013-09-01T15:20:54.000Z</time>
        <extensions>
          <ns3:TrackPointExtension>
            <ns3:atemp>17.0</ns3:atemp>
          </ns3:TrackPointExtension>
        </extensions>
      </trkpt>
      <trkpt lat="46.74421160481870174407958984375" lon="6.8443121016025543212890625">
        <ele>575.79998779296875</ele>
        <time>2013-09-01T15:20:55.000Z</time>
        <extensions>
          <ns3:TrackPointExtension>
            <ns3:atemp>17.0</ns3:atemp>
          </ns3:TrackPointExtension>
        </extensions>
      </trkpt>
      <trkpt lat="46.74418511800467967987060546875" lon="6.84425217099487781524658203125">
        <ele>575.5999755859375</ele>
        <time>2013-09-01T15:20:56.000Z</time>
        <extensions>
          <ns3:TrackPointExtension>
            <ns3:atemp>17.0</ns3:atemp>
          </ns3:TrackPointExtension>
        </extensions>
      </trkpt>
      <trkpt lat="46.74415645189583301544189453125" lon="6.844195760786533355712890625">
        <ele>575.4000244140625</ele>
        <time>2013-09-01T15:20:57.000Z</time>
        <extensions>
          <ns3:TrackPointExtension>
            <ns3:atemp>17.0</ns3:atemp>
          </ns3:TrackPointExtension>
        </extensions>
      </trkpt>
      <trkpt lat="46.74412719905376434326171875" lon="6.8441429547965526580810546875">
        <ele>575.4000244140625</ele>
        <time>2013-09-01T15:20:58.000Z</time>
        <extensions>
          <ns3:TrackPointExtension>
            <ns3:atemp>17.0</ns3:atemp>
          </ns3:TrackPointExtension>
        </extensions>
      </trkpt>
      <trkpt lat="46.7440924979746341705322265625" lon="6.84409894980490207672119140625">
        <ele>575.5999755859375</ele>
        <time>2013-09-01T15:20:59.000Z</time>
        <extensions>
          <ns3:TrackPointExtension>
            <ns3:atemp>17.0</ns3:atemp>
          </ns3:TrackPointExtension>
        </extensions>
      </trkpt>
      <trkpt lat="46.744059138000011444091796875" lon="6.84405502863228321075439453125">
        <ele>575.5999755859375</ele>
        <time>2013-09-01T15:21:00.000Z</time>
        <extensions>
          <ns3:TrackPointExtension>
            <ns3:atemp>17.0</ns3:atemp>
          </ns3:TrackPointExtension>
        </extensions>
      </trkpt>
      <trkpt lat="46.74402317963540554046630859375" lon="6.844013035297393798828125">
        <ele>575.5999755859375</ele>
        <time>2013-09-01T15:21:01.000Z</time>
        <extensions>
          <ns3:TrackPointExtension>
            <ns3:atemp>17.0</ns3:atemp>
          </ns3:TrackPointExtension>
        </extensions>
      </trkpt>
      <trkpt lat="46.7439778335392475128173828125" lon="6.8439776636660099029541015625">
        <ele>575.5999755859375</ele>
        <time>2013-09-01T15:21:02.000Z</time>
        <extensions>
          <ns3:TrackPointExtension>
            <ns3:atemp>17.0</ns3:atemp>
          </ns3:TrackPointExtension>
        </extensions>
      </trkpt>
      <trkpt lat="46.74393181689083576202392578125" lon="6.84394287876784801483154296875">
        <ele>575.79998779296875</ele>
        <time>2013-09-01T15:21:03.000Z</time>
        <extensions>
          <ns3:TrackPointExtension>
            <ns3:atemp>17.0</ns3:atemp>
          </ns3:TrackPointExtension>
        </extensions>
      </trkpt>
      <trkpt lat="46.7438896559178829193115234375" lon="6.84390985406935214996337890625">
        <ele>575.79998779296875</ele>
        <time>2013-09-01T15:21:04.000Z</time>
        <extensions>
          <ns3:TrackPointExtension>
            <ns3:atemp>17.0</ns3:atemp>
          </ns3:TrackPointExtension>
        </extensions>
      </trkpt>
      <trkpt lat="46.74384447745978832244873046875" lon="6.843869201838970184326171875">
        <ele>575.79998779296875</ele>
        <time>2013-09-01T15:21:05.000Z</time>
        <extensions>
          <ns3:TrackPointExtension>
            <ns3:atemp>17.0</ns3:atemp>
          </ns3:TrackPointExtension>
        </extensions>
      </trkpt>
      <trkpt lat="46.74380022101104259490966796875" lon="6.8438331596553325653076171875">
        <ele>575.79998779296875</ele>
        <time>2013-09-01T15:21:06.000Z</time>
        <extensions>
          <ns3:TrackPointExtension>
            <ns3:atemp>17.0</ns3:atemp>
          </ns3:TrackPointExtension>
        </extensions>
      </trkpt>
      <trkpt lat="46.7437531985342502593994140625" lon="6.84379669837653636932373046875">
        <ele>576.20001220703125</ele>
        <time>2013-09-01T15:21:07.000Z</time>
        <extensions>
          <ns3:TrackPointExtension>
            <ns3:atemp>17.0</ns3:atemp>
          </ns3:TrackPointExtension>
        </extensions>
      </trkpt>
      <trkpt lat="46.7437107861042022705078125" lon="6.84375009499490261077880859375">
        <ele>576.20001220703125</ele>
        <time>2013-09-01T15:21:08.000Z</time>
        <extensions>
          <ns3:TrackPointExtension>
            <ns3:atemp>17.0</ns3:atemp>
          </ns3:TrackPointExtension>
        </extensions>
      </trkpt>
      <trkpt lat="46.74367097206413745880126953125" lon="6.8436925113201141357421875">
        <ele>576.4000244140625</ele>
        <time>2013-09-01T15:21:09.000Z</time>
        <extensions>
          <ns3:TrackPointExtension>
            <ns3:atemp>17.0</ns3:atemp>
          </ns3:TrackPointExtension>
        </extensions>
      </trkpt>
      <trkpt lat="46.74363375641405582427978515625" lon="6.8436329998075962066650390625">
        <ele>576.4000244140625</ele>
        <time>2013-09-01T15:21:10.000Z</time>
        <extensions>
          <ns3:TrackPointExtension>
            <ns3:atemp>17.0</ns3:atemp>
          </ns3:TrackPointExtension>
        </extensions>
      </trkpt>
      <trkpt lat="46.74359721131622791290283203125" lon="6.84356988407671451568603515625">
        <ele>576.4000244140625</ele>
        <time>2013-09-01T15:21:11.000Z</time>
        <extensions>
          <ns3:TrackPointExtension>
            <ns3:atemp>17.0</ns3:atemp>
          </ns3:TrackPointExtension>
        </extensions>
      </trkpt>
      <trkpt lat="46.7435686290264129638671875" lon="6.84350433759391307830810546875">
        <ele>576.4000244140625</ele>
        <time>2013-09-01T15:21:12.000Z</time>
        <extensions>
          <ns3:TrackPointExtension>
            <ns3:atemp>17.0</ns3:atemp>
          </ns3:TrackPointExtension>
        </extensions>
      </trkpt>
      <trkpt lat="46.7435419745743274688720703125" lon="6.843429319560527801513671875">
        <ele>576.5999755859375</ele>
        <time>2013-09-01T15:21:13.000Z</time>
        <extensions>
          <ns3:TrackPointExtension>
            <ns3:atemp>17.0</ns3:atemp>
          </ns3:TrackPointExtension>
        </extensions>
      </trkpt>
      <trkpt lat="46.7435198463499546051025390625" lon="6.8433567322790622711181640625">
        <ele>576.79998779296875</ele>
        <time>2013-09-01T15:21:14.000Z</time>
        <extensions>
          <ns3:TrackPointExtension>
            <ns3:atemp>17.0</ns3:atemp>
          </ns3:TrackPointExtension>
        </extensions>
      </trkpt>
      <trkpt lat="46.74349478445947170257568359375" lon="6.84327987022697925567626953125">
        <ele>576.79998779296875</ele>
        <time>2013-09-01T15:21:15.000Z</time>
        <extensions>
          <ns3:TrackPointExtension>
            <ns3:atemp>17.0</ns3:atemp>
          </ns3:TrackPointExtension>
        </extensions>
      </trkpt>
      <trkpt lat="46.74347148276865482330322265625" lon="6.84319554828107357025146484375">
        <ele>577</ele>
        <time>2013-09-01T15:21:16.000Z</time>
        <extensions>
          <ns3:TrackPointExtension>
            <ns3:atemp>17.0</ns3:atemp>
          </ns3:TrackPointExtension>
        </extensions>
      </trkpt>
      <trkpt lat="46.743449270725250244140625" lon="6.843111813068389892578125">
        <ele>576.79998779296875</ele>
        <time>2013-09-01T15:21:17.000Z</time>
        <extensions>
          <ns3:TrackPointExtension>
            <ns3:atemp>17.0</ns3:atemp>
          </ns3:TrackPointExtension>
        </extensions>
      </trkpt>
      <trkpt lat="46.74343611113727092742919921875" lon="6.84302824549376964569091796875">
        <ele>577.20001220703125</ele>
        <time>2013-09-01T15:21:18.000Z</time>
        <extensions>
          <ns3:TrackPointExtension>
            <ns3:atemp>17.0</ns3:atemp>
          </ns3:TrackPointExtension>
        </extensions>
      </trkpt>
      <trkpt lat="46.74342622049152851104736328125" lon="6.84294576756656169891357421875">
        <ele>577.4000244140625</ele>
        <time>2013-09-01T15:21:19.000Z</time>
        <extensions>
          <ns3:TrackPointExtension>
            <ns3:atemp>17.0</ns3:atemp>
          </ns3:TrackPointExtension>
        </extensions>
      </trkpt>
      <trkpt lat="46.74341482110321521759033203125" lon="6.8428632058203220367431640625">
        <ele>577.4000244140625</ele>
        <time>2013-09-01T15:21:20.000Z</time>
        <extensions>
          <ns3:TrackPointExtension>
            <ns3:atemp>17.0</ns3:atemp>
          </ns3:TrackPointExtension>
        </extensions>
      </trkpt>
      <trkpt lat="46.743404008448123931884765625" lon="6.842779219150543212890625">
        <ele>577.4000244140625</ele>
        <time>2013-09-01T15:21:21.000Z</time>
        <extensions>
          <ns3:TrackPointExtension>
            <ns3:atemp>17.0</ns3:atemp>
          </ns3:TrackPointExtension>
        </extensions>
      </trkpt>
      <trkpt lat="46.74339688383042812347412109375" lon="6.8426965735852718353271484375">
        <ele>577.4000244140625</ele>
        <time>2013-09-01T15:21:22.000Z</time>
        <extensions>
          <ns3:TrackPointExtension>
            <ns3:atemp>17.0</ns3:atemp>
          </ns3:TrackPointExtension>
        </extensions>
      </trkpt>
      <trkpt lat="46.74339227378368377685546875" lon="6.84261518530547618865966796875">
        <ele>577.5999755859375</ele>
        <time>2013-09-01T15:21:23.000Z</time>
        <extensions>
          <ns3:TrackPointExtension>
            <ns3:atemp>17.0</ns3:atemp>
          </ns3:TrackPointExtension>
        </extensions>
      </trkpt>
      <trkpt lat="46.74339654855430126190185546875" lon="6.8425410054624080657958984375">
        <ele>577.5999755859375</ele>
        <time>2013-09-01T15:21:24.000Z</time>
        <extensions>
          <ns3:TrackPointExtension>
            <ns3:atemp>17.0</ns3:atemp>
          </ns3:TrackPointExtension>
        </extensions>
      </trkpt>
      <trkpt lat="46.74340124242007732391357421875" lon="6.8424685858190059661865234375">
        <ele>577.79998779296875</ele>
        <time>2013-09-01T15:21:25.000Z</time>
        <extensions>
          <ns3:TrackPointExtension>
            <ns3:atemp>17.0</ns3:atemp>
          </ns3:TrackPointExtension>
        </extensions>
      </trkpt>
      <trkpt lat="46.74340141005814075469970703125" lon="6.84239557944238185882568359375">
        <ele>578</ele>
        <time>2013-09-01T15:21:26.000Z</time>
        <extensions>
          <ns3:TrackPointExtension>
            <ns3:atemp>17.0</ns3:atemp>
          </ns3:TrackPointExtension>
        </extensions>
      </trkpt>
      <trkpt lat="46.7434058524668216705322265625" lon="6.842334978282451629638671875">
        <ele>578.20001220703125</ele>
        <time>2013-09-01T15:21:27.000Z</time>
        <extensions>
          <ns3:TrackPointExtension>
            <ns3:atemp>17.0</ns3:atemp>
          </ns3:TrackPointExtension>
        </extensions>
      </trkpt>
      <trkpt lat="46.74340928904712200164794921875" lon="6.84227161109447479248046875">
        <ele>578.20001220703125</ele>
        <time>2013-09-01T15:21:28.000Z</time>
        <extensions>
          <ns3:TrackPointExtension>
            <ns3:atemp>17.0</ns3:atemp>
          </ns3:TrackPointExtension>
        </extensions>
      </trkpt>
      <trkpt lat="46.743414402008056640625" lon="6.84221050702035427093505859375">
        <ele>578.4000244140625</ele>
        <time>2013-09-01T15:21:29.000Z</time>
        <extensions>
          <ns3:TrackPointExtension>
            <ns3:atemp>17.0</ns3:atemp>
          </ns3:TrackPointExtension>
        </extensions>
      </trkpt>
      <trkpt lat="46.743421442806720733642578125" lon="6.84214596636593341827392578125">
        <ele>578.5999755859375</ele>
        <time>2013-09-01T15:21:30.000Z</time>
        <extensions>
          <ns3:TrackPointExtension>
            <ns3:atemp>17.0</ns3:atemp>
          </ns3:TrackPointExtension>
        </extensions>
      </trkpt>
      <trkpt lat="46.74342420883476734161376953125" lon="6.84207555837929248809814453125">
        <ele>579</ele>
        <time>2013-09-01T15:21:31.000Z</time>
        <extensions>
          <ns3:TrackPointExtension>
            <ns3:atemp>17.0</ns3:atemp>
          </ns3:TrackPointExtension>
        </extensions>
      </trkpt>
      <trkpt lat="46.7434296570718288421630859375" lon="6.84200967662036418914794921875">
        <ele>579.20001220703125</ele>
        <time>2013-09-01T15:21:32.000Z</time>
        <extensions>
          <ns3:TrackPointExtension>
            <ns3:atemp>17.0</ns3:atemp>
          </ns3:TrackPointExtension>
        </extensions>
      </trkpt>
      <trkpt lat="46.743438877165317535400390625" lon="6.8419482372701168060302734375">
        <ele>579.4000244140625</ele>
        <time>2013-09-01T15:21:33.000Z</time>
        <extensions>
          <ns3:TrackPointExtension>
            <ns3:atemp>17.0</ns3:atemp>
          </ns3:TrackPointExtension>
        </extensions>
      </trkpt>
      <trkpt lat="46.74344751052558422088623046875" lon="6.8418828584253787994384765625">
        <ele>579.5999755859375</ele>
        <time>2013-09-01T15:21:34.000Z</time>
        <extensions>
          <ns3:TrackPointExtension>
            <ns3:atemp>17.0</ns3:atemp>
          </ns3:TrackPointExtension>
        </extensions>
      </trkpt>
      <trkpt lat="46.74345530569553375244140625" lon="6.8418203294277191162109375">
        <ele>579.79998779296875</ele>
        <time>2013-09-01T15:21:35.000Z</time>
        <extensions>
          <ns3:TrackPointExtension>
            <ns3:atemp>17.0</ns3:atemp>
          </ns3:TrackPointExtension>
        </extensions>
      </trkpt>
      <trkpt lat="46.743459664285182952880859375" lon="6.84176224283874034881591796875">
        <ele>579.79998779296875</ele>
        <time>2013-09-01T15:21:36.000Z</time>
        <extensions>
          <ns3:TrackPointExtension>
            <ns3:atemp>17.0</ns3:atemp>
          </ns3:TrackPointExtension>
        </extensions>
      </trkpt>
      <trkpt lat="46.7434693872928619384765625" lon="6.84170407243072986602783203125">
        <ele>580</ele>
        <time>2013-09-01T15:21:37.000Z</time>
        <extensions>
          <ns3:TrackPointExtension>
            <ns3:atemp>17.0</ns3:atemp>
          </ns3:TrackPointExtension>
        </extensions>
      </trkpt>
      <trkpt lat="46.743476092815399169921875" lon="6.8416424654424190521240234375">
        <ele>580</ele>
        <time>2013-09-01T15:21:38.000Z</time>
        <extensions>
          <ns3:TrackPointExtension>
            <ns3:atemp>17.0</ns3:atemp>
          </ns3:TrackPointExtension>
        </extensions>
      </trkpt>
      <trkpt lat="46.74348372034728527069091796875" lon="6.84157616458833217620849609375">
        <ele>580.20001220703125</ele>
        <time>2013-09-01T15:21:39.000Z</time>
        <extensions>
          <ns3:TrackPointExtension>
            <ns3:atemp>17.0</ns3:atemp>
          </ns3:TrackPointExtension>
        </extensions>
      </trkpt>
      <trkpt lat="46.7434908449649810791015625" lon="6.84151682071387767791748046875">
        <ele>580.4000244140625</ele>
        <time>2013-09-01T15:21:40.000Z</time>
        <extensions>
          <ns3:TrackPointExtension>
            <ns3:atemp>17.0</ns3:atemp>
          </ns3:TrackPointExtension>
        </extensions>
      </trkpt>
      <trkpt lat="46.7434950359165668487548828125" lon="6.841456890106201171875">
        <ele>580.5999755859375</ele>
        <time>2013-09-01T15:21:41.000Z</time>
        <extensions>
          <ns3:TrackPointExtension>
            <ns3:atemp>17.0</ns3:atemp>
          </ns3:TrackPointExtension>
        </extensions>
      </trkpt>
      <trkpt lat="46.7435014061629772186279296875" lon="6.84139612130820751190185546875">
        <ele>580.5999755859375</ele>
        <time>2013-09-01T15:21:42.000Z</time>
        <extensions>
          <ns3:TrackPointExtension>
            <ns3:atemp>17.0</ns3:atemp>
          </ns3:TrackPointExtension>
        </extensions>
      </trkpt>
      <trkpt lat="46.743502914905548095703125" lon="6.84133543632924556732177734375">
        <ele>580.5999755859375</ele>
        <time>2013-09-01T15:21:43.000Z</time>
        <extensions>
          <ns3:TrackPointExtension>
            <ns3:atemp>17.0</ns3:atemp>
          </ns3:TrackPointExtension>
        </extensions>
      </trkpt>
      <trkpt lat="46.74350626766681671142578125" lon="6.8412786908447742462158203125">
        <ele>580.79998779296875</ele>
        <time>2013-09-01T15:21:44.000Z</time>
        <extensions>
          <ns3:TrackPointExtension>
            <ns3:atemp>17.0</ns3:atemp>
          </ns3:TrackPointExtension>
        </extensions>
      </trkpt>
      <trkpt lat="46.743513308465480804443359375" lon="6.84121238999068737030029296875">
        <ele>581</ele>
        <time>2013-09-01T15:21:45.000Z</time>
        <extensions>
          <ns3:TrackPointExtension>
            <ns3:atemp>17.0</ns3:atemp>
          </ns3:TrackPointExtension>
        </extensions>
      </trkpt>
      <trkpt lat="46.7435174994170665740966796875" lon="6.84115170501172542572021484375">
        <ele>581.4000244140625</ele>
        <time>2013-09-01T15:21:46.000Z</time>
        <extensions>
          <ns3:TrackPointExtension>
            <ns3:atemp>17.0</ns3:atemp>
          </ns3:TrackPointExtension>
        </extensions>
      </trkpt>
      <trkpt lat="46.74351976253092288970947265625" lon="6.8410882540047168731689453125">
        <ele>581.4000244140625</ele>
        <time>2013-09-01T15:21:47.000Z</time>
        <extensions>
          <ns3:TrackPointExtension>
            <ns3:atemp>17.0</ns3:atemp>
          </ns3:TrackPointExtension>
        </extensions>
      </trkpt>
      <trkpt lat="46.7435176670551300048828125" lon="6.84102949686348438262939453125">
        <ele>581.79998779296875</ele>
        <time>2013-09-01T15:21:48.000Z</time>
        <extensions>
          <ns3:TrackPointExtension>
            <ns3:atemp>17.0</ns3:atemp>
          </ns3:TrackPointExtension>
        </extensions>
      </trkpt>
      <trkpt lat="46.7435148172080516815185546875" lon="6.8409740924835205078125">
        <ele>582</ele>
        <time>2013-09-01T15:21:49.000Z</time>
        <extensions>
          <ns3:TrackPointExtension>
            <ns3:atemp>17.0</ns3:atemp>
          </ns3:TrackPointExtension>
        </extensions>
      </trkpt>
      <trkpt lat="46.74351456575095653533935546875" lon="6.84092103503644466400146484375">
        <ele>582.4000244140625</ele>
        <time>2013-09-01T15:21:50.000Z</time>
        <extensions>
          <ns3:TrackPointExtension>
            <ns3:atemp>17.0</ns3:atemp>
          </ns3:TrackPointExtension>
        </extensions>
      </trkpt>
      <trkpt lat="46.74351121298968791961669921875" lon="6.84086806140840053558349609375">
        <ele>582.79998779296875</ele>
        <time>2013-09-01T15:21:51.000Z</time>
        <extensions>
          <ns3:TrackPointExtension>
            <ns3:atemp>17.0</ns3:atemp>
          </ns3:TrackPointExtension>
        </extensions>
      </trkpt>
      <trkpt lat="46.74350266344845294952392578125" lon="6.84082699008285999298095703125">
        <ele>583.20001220703125</ele>
        <time>2013-09-01T15:21:52.000Z</time>
        <extensions>
          <ns3:TrackPointExtension>
            <ns3:atemp>17.0</ns3:atemp>
          </ns3:TrackPointExtension>
        </extensions>
      </trkpt>
      <trkpt lat="46.7434920184314250946044921875" lon="6.84077938087284564971923828125">
        <ele>583.4000244140625</ele>
        <time>2013-09-01T15:21:53.000Z</time>
        <extensions>
          <ns3:TrackPointExtension>
            <ns3:atemp>17.0</ns3:atemp>
          </ns3:TrackPointExtension>
        </extensions>
      </trkpt>
      <trkpt lat="46.74348019994795322418212890625" lon="6.840728335082530975341796875">
        <ele>583.79998779296875</ele>
        <time>2013-09-01T15:21:54.000Z</time>
        <extensions>
          <ns3:TrackPointExtension>
            <ns3:atemp>17.0</ns3:atemp>
          </ns3:TrackPointExtension>
        </extensions>
      </trkpt>
      <trkpt lat="46.7434675432741641998291015625" lon="6.8406718410551548004150390625">
        <ele>584.20001220703125</ele>
        <time>2013-09-01T15:21:55.000Z</time>
        <extensions>
          <ns3:TrackPointExtension>
            <ns3:atemp>17.0</ns3:atemp>
          </ns3:TrackPointExtension>
        </extensions>
      </trkpt>
      <trkpt lat="46.7434534616768360137939453125" lon="6.840613000094890594482421875">
        <ele>584.4000244140625</ele>
        <time>2013-09-01T15:21:56.000Z</time>
        <extensions>
          <ns3:TrackPointExtension>
            <ns3:atemp>17.0</ns3:atemp>
          </ns3:TrackPointExtension>
        </extensions>
      </trkpt>
      <trkpt lat="46.7434340156614780426025390625" lon="6.84055407531559467315673828125">
        <ele>584.5999755859375</ele>
        <time>2013-09-01T15:21:57.000Z</time>
        <extensions>
          <ns3:TrackPointExtension>
            <ns3:atemp>17.0</ns3:atemp>
          </ns3:TrackPointExtension>
        </extensions>
      </trkpt>
      <trkpt lat="46.7434157431125640869140625" lon="6.8404924683272838592529296875">
        <ele>585</ele>
        <time>2013-09-01T15:21:58.000Z</time>
        <extensions>
          <ns3:TrackPointExtension>
            <ns3:atemp>17.0</ns3:atemp>
          </ns3:TrackPointExtension>
        </extensions>
      </trkpt>
      <trkpt lat="46.74339638091623783111572265625" lon="6.84043354354798793792724609375">
        <ele>585.20001220703125</ele>
        <time>2013-09-01T15:21:59.000Z</time>
        <extensions>
          <ns3:TrackPointExtension>
            <ns3:atemp>17.0</ns3:atemp>
          </ns3:TrackPointExtension>
        </extensions>
      </trkpt>
      <trkpt lat="46.74337592907249927520751953125" lon="6.84036833234131336212158203125">
        <ele>585.20001220703125</ele>
        <time>2013-09-01T15:22:00.000Z</time>
        <extensions>
          <ns3:TrackPointExtension>
            <ns3:atemp>17.0</ns3:atemp>
          </ns3:TrackPointExtension>
        </extensions>
      </trkpt>
      <trkpt lat="46.74335447140038013458251953125" lon="6.84029842726886272430419921875">
        <ele>585.4000244140625</ele>
        <time>2013-09-01T15:22:01.000Z</time>
        <extensions>
          <ns3:TrackPointExtension>
            <ns3:atemp>17.0</ns3:atemp>
          </ns3:TrackPointExtension>
        </extensions>
      </trkpt>
      <trkpt lat="46.74333904869854450225830078125" lon="6.8402316235005855560302734375">
        <ele>585.4000244140625</ele>
        <time>2013-09-01T15:22:02.000Z</time>
        <extensions>
          <ns3:TrackPointExtension>
            <ns3:atemp>16.0</ns3:atemp>
          </ns3:TrackPointExtension>
        </extensions>
      </trkpt>
      <trkpt lat="46.7433300800621509552001953125" lon="6.8401602096855640411376953125">
        <ele>585.5999755859375</ele>
        <time>2013-09-01T15:22:03.000Z</time>
        <extensions>
          <ns3:TrackPointExtension>
            <ns3:atemp>16.0</ns3:atemp>
          </ns3:TrackPointExtension>
        </extensions>
      </trkpt>
      <trkpt lat="46.74332547001540660858154296875" lon="6.8400998599827289581298828125">
        <ele>585.79998779296875</ele>
        <time>2013-09-01T15:22:04.000Z</time>
        <extensions>
          <ns3:TrackPointExtension>
            <ns3:atemp>16.0</ns3:atemp>
          </ns3:TrackPointExtension>
        </extensions>
      </trkpt>
      <trkpt lat="46.74331490881741046905517578125" lon="6.8400385044515132904052734375">
        <ele>585.79998779296875</ele>
        <time>2013-09-01T15:22:05.000Z</time>
        <extensions>
          <ns3:TrackPointExtension>
            <ns3:atemp>16.0</ns3:atemp>
          </ns3:TrackPointExtension>
        </extensions>
      </trkpt>
      <trkpt lat="46.7433071136474609375" lon="6.83998125605285167694091796875">
        <ele>585.79998779296875</ele>
        <time>2013-09-01T15:22:06.000Z</time>
        <extensions>
          <ns3:TrackPointExtension>
            <ns3:atemp>16.0</ns3:atemp>
          </ns3:TrackPointExtension>
        </extensions>
      </trkpt>
      <trkpt lat="46.74330200068652629852294921875" lon="6.8399178050458431243896484375">
        <ele>585.79998779296875</ele>
        <time>2013-09-01T15:22:07.000Z</time>
        <extensions>
          <ns3:TrackPointExtension>
            <ns3:atemp>16.0</ns3:atemp>
          </ns3:TrackPointExtension>
        </extensions>
      </trkpt>
      <trkpt lat="46.7432977259159088134765625" lon="6.83984689414501190185546875">
        <ele>585.79998779296875</ele>
        <time>2013-09-01T15:22:08.000Z</time>
        <extensions>
          <ns3:TrackPointExtension>
            <ns3:atemp>16.0</ns3:atemp>
          </ns3:TrackPointExtension>
        </extensions>
      </trkpt>
      <trkpt lat="46.7432895116508007049560546875" lon="6.8397749774158000946044921875">
        <ele>585.79998779296875</ele>
        <time>2013-09-01T15:22:09.000Z</time>
        <extensions>
          <ns3:TrackPointExtension>
            <ns3:atemp>16.0</ns3:atemp>
          </ns3:TrackPointExtension>
        </extensions>
      </trkpt>
      <trkpt lat="46.7432693950831890106201171875" lon="6.8397035636007785797119140625">
        <ele>586</ele>
        <time>2013-09-01T15:22:10.000Z</time>
        <extensions>
          <ns3:TrackPointExtension>
            <ns3:atemp>16.0</ns3:atemp>
          </ns3:TrackPointExtension>
        </extensions>
      </trkpt>
      <trkpt lat="46.7432516254484653472900390625" lon="6.83963508345186710357666015625">
        <ele>586</ele>
        <time>2013-09-01T15:22:11.000Z</time>
        <extensions>
          <ns3:TrackPointExtension>
            <ns3:atemp>16.0</ns3:atemp>
          </ns3:TrackPointExtension>
        </extensions>
      </trkpt>
      <trkpt lat="46.7432335205376148223876953125" lon="6.83956450782716274261474609375">
        <ele>586</ele>
        <time>2013-09-01T15:22:12.000Z</time>
        <extensions>
          <ns3:TrackPointExtension>
            <ns3:atemp>16.0</ns3:atemp>
          </ns3:TrackPointExtension>
        </extensions>
      </trkpt>
      <trkpt lat="46.7432214505970478057861328125" lon="6.83948823250830173492431640625">
        <ele>586</ele>
        <time>2013-09-01T15:22:13.000Z</time>
        <extensions>
          <ns3:TrackPointExtension>
            <ns3:atemp>16.0</ns3:atemp>
          </ns3:TrackPointExtension>
        </extensions>
      </trkpt>
      <trkpt lat="46.74320996738970279693603515625" lon="6.83940843679010868072509765625">
        <ele>586</ele>
        <time>2013-09-01T15:22:14.000Z</time>
        <extensions>
          <ns3:TrackPointExtension>
            <ns3:atemp>16.0</ns3:atemp>
          </ns3:TrackPointExtension>
        </extensions>
      </trkpt>
      <trkpt lat="46.7431919462978839874267578125" lon="6.83932227082550525665283203125">
        <ele>585.5999755859375</ele>
        <time>2013-09-01T15:22:15.000Z</time>
        <extensions>
          <ns3:TrackPointExtension>
            <ns3:atemp>16.0</ns3:atemp>
          </ns3:TrackPointExtension>
        </extensions>
      </trkpt>
      <trkpt lat="46.74317040480673313140869140625" lon="6.839232333004474639892578125">
        <ele>585.4000244140625</ele>
        <time>2013-09-01T15:22:16.000Z</time>
        <extensions>
          <ns3:TrackPointExtension>
            <ns3:atemp>16.0</ns3:atemp>
          </ns3:TrackPointExtension>
        </extensions>
      </trkpt>
      <trkpt lat="46.74314794130623340606689453125" lon="6.83913937769830226898193359375">
        <ele>585.4000244140625</ele>
        <time>2013-09-01T15:22:17.000Z</time>
        <extensions>
          <ns3:TrackPointExtension>
            <ns3:atemp>16.0</ns3:atemp>
          </ns3:TrackPointExtension>
        </extensions>
      </trkpt>
      <trkpt lat="46.7431195266544818878173828125" lon="6.8390353582799434661865234375">
        <ele>585.20001220703125</ele>
        <time>2013-09-01T15:22:18.000Z</time>
        <extensions>
          <ns3:TrackPointExtension>
            <ns3:atemp>16.0</ns3:atemp>
          </ns3:TrackPointExtension>
        </extensions>
      </trkpt>
      <trkpt lat="46.743103601038455963134765625" lon="6.8389304168522357940673828125">
        <ele>585</ele>
        <time>2013-09-01T15:22:19.000Z</time>
        <extensions>
          <ns3:TrackPointExtension>
            <ns3:atemp>16.0</ns3:atemp>
          </ns3:TrackPointExtension>
        </extensions>
      </trkpt>
      <trkpt lat="46.74308960326015949249267578125" lon="6.838829331099987030029296875">
        <ele>584.5999755859375</ele>
        <time>2013-09-01T15:22:20.000Z</time>
        <extensions>
          <ns3:TrackPointExtension>
            <ns3:atemp>16.0</ns3:atemp>
          </ns3:TrackPointExtension>
        </extensions>
      </trkpt>
      <trkpt lat="46.7430766113102436065673828125" lon="6.83872061781585216522216796875">
        <ele>583.4000244140625</ele>
        <time>2013-09-01T15:22:21.000Z</time>
        <extensions>
          <ns3:TrackPointExtension>
            <ns3:atemp>16.0</ns3:atemp>
          </ns3:TrackPointExtension>
        </extensions>
      </trkpt>
      <trkpt lat="46.7430685646831989288330078125" lon="6.83861400000751018524169921875">
        <ele>582.79998779296875</ele>
        <time>2013-09-01T15:22:22.000Z</time>
        <extensions>
          <ns3:TrackPointExtension>
            <ns3:atemp>16.0</ns3:atemp>
          </ns3:TrackPointExtension>
        </extensions>
      </trkpt>
      <trkpt lat="46.74305926077067852020263671875" lon="6.8384908698499202728271484375">
        <ele>582.4000244140625</ele>
        <time>2013-09-01T15:22:23.000Z</time>
        <extensions>
          <ns3:TrackPointExtension>
            <ns3:atemp>16.0</ns3:atemp>
          </ns3:TrackPointExtension>
        </extensions>
      </trkpt>
      <trkpt lat="46.74304895102977752685546875" lon="6.83836723677814006805419921875">
        <ele>581.79998779296875</ele>
        <time>2013-09-01T15:22:24.000Z</time>
        <extensions>
          <ns3:TrackPointExtension>
            <ns3:atemp>16.0</ns3:atemp>
          </ns3:TrackPointExtension>
        </extensions>
      </trkpt>
      <trkpt lat="46.743038557469844818115234375" lon="6.8382296897470951080322265625">
        <ele>581.4000244140625</ele>
        <time>2013-09-01T15:22:25.000Z</time>
        <extensions>
          <ns3:TrackPointExtension>
            <ns3:atemp>16.0</ns3:atemp>
          </ns3:TrackPointExtension>
        </extensions>
      </trkpt>
      <trkpt lat="46.7430269904434680938720703125" lon="6.838087700307369232177734375">
        <ele>581</ele>
        <time>2013-09-01T15:22:26.000Z</time>
        <extensions>
          <ns3:TrackPointExtension>
            <ns3:atemp>16.0</ns3:atemp>
          </ns3:TrackPointExtension>
        </extensions>
      </trkpt>
      <trkpt lat="46.743019111454486846923828125" lon="6.83793724514544010162353515625">
        <ele>580.5999755859375</ele>
        <time>2013-09-01T15:22:27.000Z</time>
        <extensions>
          <ns3:TrackPointExtension>
            <ns3:atemp>16.0</ns3:atemp>
          </ns3:TrackPointExtension>
        </extensions>
      </trkpt>
      <trkpt lat="46.7430078797042369842529296875" lon="6.83777463622391223907470703125">
        <ele>580</ele>
        <time>2013-09-01T15:22:28.000Z</time>
        <extensions>
          <ns3:TrackPointExtension>
            <ns3:atemp>16.0</ns3:atemp>
          </ns3:TrackPointExtension>
        </extensions>
      </trkpt>
      <trkpt lat="46.7429958097636699676513671875" lon="6.83760800398886203765869140625">
        <ele>579.4000244140625</ele>
        <time>2013-09-01T15:22:29.000Z</time>
        <extensions>
          <ns3:TrackPointExtension>
            <ns3:atemp>16.0</ns3:atemp>
          </ns3:TrackPointExtension>
        </extensions>
      </trkpt>
      <trkpt lat="46.74298885278403759002685546875" lon="6.83743315748870372772216796875">
        <ele>578.79998779296875</ele>
        <time>2013-09-01T15:22:30.000Z</time>
        <extensions>
          <ns3:TrackPointExtension>
            <ns3:atemp>16.0</ns3:atemp>
          </ns3:TrackPointExtension>
        </extensions>
      </trkpt>
      <trkpt lat="46.7429812252521514892578125" lon="6.8372768349945545196533203125">
        <ele>577.79998779296875</ele>
        <time>2013-09-01T15:22:31.000Z</time>
        <extensions>
          <ns3:TrackPointExtension>
            <ns3:atemp>16.0</ns3:atemp>
          </ns3:TrackPointExtension>
        </extensions>
      </trkpt>
      <trkpt lat="46.742974184453487396240234375" lon="6.83713358826935291290283203125">
        <ele>576.5999755859375</ele>
        <time>2013-09-01T15:22:32.000Z</time>
        <extensions>
          <ns3:TrackPointExtension>
            <ns3:atemp>16.0</ns3:atemp>
          </ns3:TrackPointExtension>
        </extensions>
      </trkpt>
      <trkpt lat="46.74296982586383819580078125" lon="6.83700643479824066162109375">
        <ele>575.4000244140625</ele>
        <time>2013-09-01T15:22:33.000Z</time>
        <extensions>
          <ns3:TrackPointExtension>
            <ns3:atemp>16.0</ns3:atemp>
          </ns3:TrackPointExtension>
        </extensions>
      </trkpt>
      <trkpt lat="46.74295633099973201751708984375" lon="6.8369030021131038665771484375">
        <ele>574.20001220703125</ele>
        <time>2013-09-01T15:22:34.000Z</time>
        <extensions>
          <ns3:TrackPointExtension>
            <ns3:atemp>16.0</ns3:atemp>
          </ns3:TrackPointExtension>
        </extensions>
      </trkpt>
      <trkpt lat="46.742936633527278900146484375" lon="6.83682002127170562744140625">
        <ele>573</ele>
        <time>2013-09-01T15:22:35.000Z</time>
        <extensions>
          <ns3:TrackPointExtension>
            <ns3:atemp>16.0</ns3:atemp>
          </ns3:TrackPointExtension>
        </extensions>
      </trkpt>
      <trkpt lat="46.74290989525616168975830078125" lon="6.8367655389010906219482421875">
        <ele>572.20001220703125</ele>
        <time>2013-09-01T15:22:36.000Z</time>
        <extensions>
          <ns3:TrackPointExtension>
            <ns3:atemp>16.0</ns3:atemp>
          </ns3:TrackPointExtension>
        </extensions>
      </trkpt>
      <trkpt lat="46.74286932684481143951416015625" lon="6.83674533851444721221923828125">
        <ele>571.4000244140625</ele>
        <time>2013-09-01T15:22:37.000Z</time>
        <extensions>
          <ns3:TrackPointExtension>
            <ns3:atemp>16.0</ns3:atemp>
          </ns3:TrackPointExtension>
        </extensions>
      </trkpt>
      <trkpt lat="46.742823310196399688720703125" lon="6.8367831408977508544921875">
        <ele>571</ele>
        <time>2013-09-01T15:22:38.000Z</time>
        <extensions>
          <ns3:TrackPointExtension>
            <ns3:atemp>16.0</ns3:atemp>
          </ns3:TrackPointExtension>
        </extensions>
      </trkpt>
      <trkpt lat="46.74278332851827144622802734375" lon="6.8368292413651943206787109375">
        <ele>571</ele>
        <time>2013-09-01T15:22:39.000Z</time>
        <extensions>
          <ns3:TrackPointExtension>
            <ns3:atemp>16.0</ns3:atemp>
          </ns3:TrackPointExtension>
        </extensions>
      </trkpt>
      <trkpt lat="46.74273974262177944183349609375" lon="6.83688011951744556427001953125">
        <ele>571</ele>
        <time>2013-09-01T15:22:40.000Z</time>
        <extensions>
          <ns3:TrackPointExtension>
            <ns3:atemp>16.0</ns3:atemp>
          </ns3:TrackPointExtension>
        </extensions>
      </trkpt>
      <trkpt lat="46.74268794246017932891845703125" lon="6.8369211070239543914794921875">
        <ele>571.20001220703125</ele>
        <time>2013-09-01T15:22:41.000Z</time>
        <extensions>
          <ns3:TrackPointExtension>
            <ns3:atemp>16.0</ns3:atemp>
          </ns3:TrackPointExtension>
        </extensions>
      </trkpt>
      <trkpt lat="46.7426370643079280853271484375" lon="6.83696142397820949554443359375">
        <ele>571.20001220703125</ele>
        <time>2013-09-01T15:22:42.000Z</time>
        <extensions>
          <ns3:TrackPointExtension>
            <ns3:atemp>16.0</ns3:atemp>
          </ns3:TrackPointExtension>
        </extensions>
      </trkpt>
      <trkpt lat="46.742583923041820526123046875" lon="6.836998723447322845458984375">
        <ele>571.4000244140625</ele>
        <time>2013-09-01T15:22:43.000Z</time>
        <extensions>
          <ns3:TrackPointExtension>
            <ns3:atemp>16.0</ns3:atemp>
          </ns3:TrackPointExtension>
        </extensions>
      </trkpt>
      <trkpt lat="46.7425257526338100433349609375" lon="6.83703325688838958740234375">
        <ele>571.4000244140625</ele>
        <time>2013-09-01T15:22:44.000Z</time>
        <extensions>
          <ns3:TrackPointExtension>
            <ns3:atemp>16.0</ns3:atemp>
          </ns3:TrackPointExtension>
        </extensions>
      </trkpt>
      <trkpt lat="46.74246716313064098358154296875" lon="6.83706142008304595947265625">
        <ele>571.5999755859375</ele>
        <time>2013-09-01T15:22:45.000Z</time>
        <extensions>
          <ns3:TrackPointExtension>
            <ns3:atemp>16.0</ns3:atemp>
          </ns3:TrackPointExtension>
        </extensions>
      </trkpt>
      <trkpt lat="46.74240656197071075439453125" lon="6.83709000237286090850830078125">
        <ele>571.4000244140625</ele>
        <time>2013-09-01T15:22:46.000Z</time>
        <extensions>
          <ns3:TrackPointExtension>
            <ns3:atemp>16.0</ns3:atemp>
          </ns3:TrackPointExtension>
        </extensions>
      </trkpt>
      <trkpt lat="46.7423400096595287322998046875" lon="6.8371169082820415496826171875">
        <ele>571.4000244140625</ele>
        <time>2013-09-01T15:22:47.000Z</time>
        <extensions>
          <ns3:TrackPointExtension>
            <ns3:atemp>16.0</ns3:atemp>
          </ns3:TrackPointExtension>
        </extensions>
      </trkpt>
      <trkpt lat="46.74227069132030010223388671875" lon="6.8371433950960636138916015625">
        <ele>571.20001220703125</ele>
        <time>2013-09-01T15:22:48.000Z</time>
        <extensions>
          <ns3:TrackPointExtension>
            <ns3:atemp>16.0</ns3:atemp>
          </ns3:TrackPointExtension>
        </extensions>
      </trkpt>
      <trkpt lat="46.74219978041946887969970703125" lon="6.837165690958499908447265625">
        <ele>571.20001220703125</ele>
        <time>2013-09-01T15:22:49.000Z</time>
        <extensions>
          <ns3:TrackPointExtension>
            <ns3:atemp>16.0</ns3:atemp>
          </ns3:TrackPointExtension>
        </extensions>
      </trkpt>
      <trkpt lat="46.74212920479476451873779296875" lon="6.83719594962894916534423828125">
        <ele>571</ele>
        <time>2013-09-01T15:22:50.000Z</time>
        <extensions>
          <ns3:TrackPointExtension>
            <ns3:atemp>16.0</ns3:atemp>
          </ns3:TrackPointExtension>
        </extensions>
      </trkpt>
      <trkpt lat="46.7420603893697261810302734375" lon="6.8372241966426372528076171875">
        <ele>570.79998779296875</ele>
        <time>2013-09-01T15:22:51.000Z</time>
        <extensions>
          <ns3:TrackPointExtension>
            <ns3:atemp>16.0</ns3:atemp>
          </ns3:TrackPointExtension>
        </extensions>
      </trkpt>
      <trkpt lat="46.7419909872114658355712890625" lon="6.83724791742861270904541015625">
        <ele>570.79998779296875</ele>
        <time>2013-09-01T15:22:52.000Z</time>
        <extensions>
          <ns3:TrackPointExtension>
            <ns3:atemp>16.0</ns3:atemp>
          </ns3:TrackPointExtension>
        </extensions>
      </trkpt>
      <trkpt lat="46.7419212497770786285400390625" lon="6.8372640945017337799072265625">
        <ele>570.5999755859375</ele>
        <time>2013-09-01T15:22:53.000Z</time>
        <extensions>
          <ns3:TrackPointExtension>
            <ns3:atemp>16.0</ns3:atemp>
          </ns3:TrackPointExtension>
        </extensions>
      </trkpt>
      <trkpt lat="46.74184824340045452117919921875" lon="6.83726401068270206451416015625">
        <ele>570.4000244140625</ele>
        <time>2013-09-01T15:22:54.000Z</time>
        <extensions>
          <ns3:TrackPointExtension>
            <ns3:atemp>16.0</ns3:atemp>
          </ns3:TrackPointExtension>
        </extensions>
      </trkpt>
      <trkpt lat="46.74177012406289577484130859375" lon="6.837236769497394561767578125">
        <ele>570.20001220703125</ele>
        <time>2013-09-01T15:22:55.000Z</time>
        <extensions>
          <ns3:TrackPointExtension>
            <ns3:atemp>16.0</ns3:atemp>
          </ns3:TrackPointExtension>
        </extensions>
      </trkpt>
      <trkpt lat="46.74169384874403476715087890625" lon="6.83720215223729610443115234375">
        <ele>569.79998779296875</ele>
        <time>2013-09-01T15:22:56.000Z</time>
        <extensions>
          <ns3:TrackPointExtension>
            <ns3:atemp>16.0</ns3:atemp>
          </ns3:TrackPointExtension>
        </extensions>
      </trkpt>
      <trkpt lat="46.74162880517542362213134765625" lon="6.83715001679956912994384765625">
        <ele>569.5999755859375</ele>
        <time>2013-09-01T15:22:57.000Z</time>
        <extensions>
          <ns3:TrackPointExtension>
            <ns3:atemp>16.0</ns3:atemp>
          </ns3:TrackPointExtension>
        </extensions>
      </trkpt>
      <trkpt lat="46.741580776870250701904296875" lon="6.83708027936518192291259765625">
        <ele>569.4000244140625</ele>
        <time>2013-09-01T15:22:58.000Z</time>
        <extensions>
          <ns3:TrackPointExtension>
            <ns3:atemp>16.0</ns3:atemp>
          </ns3:TrackPointExtension>
        </extensions>
      </trkpt>
      <trkpt lat="46.7415454052388668060302734375" lon="6.83699813671410083770751953125">
        <ele>569.79998779296875</ele>
        <time>2013-09-01T15:22:59.000Z</time>
        <extensions>
          <ns3:TrackPointExtension>
            <ns3:atemp>16.0</ns3:atemp>
          </ns3:TrackPointExtension>
        </extensions>
      </trkpt>
      <trkpt lat="46.741513051092624664306640625" lon="6.83692370541393756866455078125">
        <ele>570</ele>
        <time>2013-09-01T15:23:00.000Z</time>
        <extensions>
          <ns3:TrackPointExtension>
            <ns3:atemp>16.0</ns3:atemp>
          </ns3:TrackPointExtension>
        </extensions>
      </trkpt>
      <trkpt lat="46.74148061312735080718994140625" lon="6.8368533812463283538818359375">
        <ele>570</ele>
        <time>2013-09-01T15:23:01.000Z</time>
        <extensions>
          <ns3:TrackPointExtension>
            <ns3:atemp>16.0</ns3:atemp>
          </ns3:TrackPointExtension>
        </extensions>
      </trkpt>
      <trkpt lat="46.7414604127407073974609375" lon="6.83677685447037220001220703125">
        <ele>570</ele>
        <time>2013-09-01T15:23:02.000Z</time>
        <extensions>
          <ns3:TrackPointExtension>
            <ns3:atemp>16.0</ns3:atemp>
          </ns3:TrackPointExtension>
        </extensions>
      </trkpt>
      <trkpt lat="46.7414381168782711029052734375" lon="6.83670829050242900848388671875">
        <ele>570</ele>
        <time>2013-09-01T15:23:03.000Z</time>
        <extensions>
          <ns3:TrackPointExtension>
            <ns3:atemp>16.0</ns3:atemp>
          </ns3:TrackPointExtension>
        </extensions>
      </trkpt>
      <trkpt lat="46.74141221679747104644775390625" lon="6.836646683514118194580078125">
        <ele>570.20001220703125</ele>
        <time>2013-09-01T15:23:04.000Z</time>
        <extensions>
          <ns3:TrackPointExtension>
            <ns3:atemp>16.0</ns3:atemp>
          </ns3:TrackPointExtension>
        </extensions>
      </trkpt>
      <trkpt lat="46.74138656817376613616943359375" lon="6.83659077621996402740478515625">
        <ele>570.4000244140625</ele>
        <time>2013-09-01T15:23:05.000Z</time>
        <extensions>
          <ns3:TrackPointExtension>
            <ns3:atemp>16.0</ns3:atemp>
          </ns3:TrackPointExtension>
        </extensions>
      </trkpt>
      <trkpt lat="46.74135773442685604095458984375" lon="6.8365435861051082611083984375">
        <ele>570.79998779296875</ele>
        <time>2013-09-01T15:23:06.000Z</time>
        <extensions>
          <ns3:TrackPointExtension>
            <ns3:atemp>16.0</ns3:atemp>
          </ns3:TrackPointExtension>
        </extensions>
      </trkpt>
      <trkpt lat="46.74133409745991230010986328125" lon="6.83648952282965183258056640625">
        <ele>570.79998779296875</ele>
        <time>2013-09-01T15:23:07.000Z</time>
        <extensions>
          <ns3:TrackPointExtension>
            <ns3:atemp>16.0</ns3:atemp>
          </ns3:TrackPointExtension>
        </extensions>
      </trkpt>
      <trkpt lat="46.74130593426525592803955078125" lon="6.8364329449832439422607421875">
        <ele>571</ele>
        <time>2013-09-01T15:23:08.000Z</time>
        <extensions>
          <ns3:TrackPointExtension>
            <ns3:atemp>16.0</ns3:atemp>
          </ns3:TrackPointExtension>
        </extensions>
      </trkpt>
      <trkpt lat="46.74127735197544097900390625" lon="6.8363759480416774749755859375">
        <ele>571.4000244140625</ele>
        <time>2013-09-01T15:23:09.000Z</time>
        <extensions>
          <ns3:TrackPointExtension>
            <ns3:atemp>16.0</ns3:atemp>
          </ns3:TrackPointExtension>
        </extensions>
      </trkpt>
      <trkpt lat="46.74124918878078460693359375" lon="6.8363162688910961151123046875">
        <ele>571.79998779296875</ele>
        <time>2013-09-01T15:23:10.000Z</time>
        <extensions>
          <ns3:TrackPointExtension>
            <ns3:atemp>16.0</ns3:atemp>
          </ns3:TrackPointExtension>
        </extensions>
      </trkpt>
      <trkpt lat="46.7412228696048259735107421875" lon="6.83625675737857818603515625">
        <ele>572</ele>
        <time>2013-09-01T15:23:11.000Z</time>
        <extensions>
          <ns3:TrackPointExtension>
            <ns3:atemp>16.0</ns3:atemp>
          </ns3:TrackPointExtension>
        </extensions>
      </trkpt>
      <trkpt lat="46.741195209324359893798828125" lon="6.83619867078959941864013671875">
        <ele>572.4000244140625</ele>
        <time>2013-09-01T15:23:12.000Z</time>
        <extensions>
          <ns3:TrackPointExtension>
            <ns3:atemp>16.0</ns3:atemp>
          </ns3:TrackPointExtension>
        </extensions>
      </trkpt>
      <trkpt lat="46.74116796813905239105224609375" lon="6.836138069629669189453125">
        <ele>572.20001220703125</ele>
        <time>2013-09-01T15:23:13.000Z</time>
        <extensions>
          <ns3:TrackPointExtension>
            <ns3:atemp>16.0</ns3:atemp>
          </ns3:TrackPointExtension>
        </extensions>
      </trkpt>
      <trkpt lat="46.74114248715341091156005859375" lon="6.83607570827007293701171875">
        <ele>572.4000244140625</ele>
        <time>2013-09-01T15:23:14.000Z</time>
        <extensions>
          <ns3:TrackPointExtension>
            <ns3:atemp>16.0</ns3:atemp>
          </ns3:TrackPointExtension>
        </extensions>
      </trkpt>
      <trkpt lat="46.74112186767160892486572265625" lon="6.83601393364369869232177734375">
        <ele>572.4000244140625</ele>
        <time>2013-09-01T15:23:15.000Z</time>
        <extensions>
          <ns3:TrackPointExtension>
            <ns3:atemp>16.0</ns3:atemp>
          </ns3:TrackPointExtension>
        </extensions>
      </trkpt>
      <trkpt lat="46.7410974763333797454833984375" lon="6.83595140464603900909423828125">
        <ele>572.4000244140625</ele>
        <time>2013-09-01T15:23:16.000Z</time>
        <extensions>
          <ns3:TrackPointExtension>
            <ns3:atemp>16.0</ns3:atemp>
          </ns3:TrackPointExtension>
        </extensions>
      </trkpt>
      <trkpt lat="46.7410770244896411895751953125" lon="6.835891641676425933837890625">
        <ele>572.4000244140625</ele>
        <time>2013-09-01T15:23:17.000Z</time>
        <extensions>
          <ns3:TrackPointExtension>
            <ns3:atemp>16.0</ns3:atemp>
          </ns3:TrackPointExtension>
        </extensions>
      </trkpt>
      <trkpt lat="46.74105782993137836456298828125" lon="6.8358324654400348663330078125">
        <ele>572.5999755859375</ele>
        <time>2013-09-01T15:23:18.000Z</time>
        <extensions>
          <ns3:TrackPointExtension>
            <ns3:atemp>16.0</ns3:atemp>
          </ns3:TrackPointExtension>
        </extensions>
      </trkpt>
      <trkpt lat="46.74103788100183010101318359375" lon="6.83577287010848522186279296875">
        <ele>572.5999755859375</ele>
        <time>2013-09-01T15:23:19.000Z</time>
        <extensions>
          <ns3:TrackPointExtension>
            <ns3:atemp>16.0</ns3:atemp>
          </ns3:TrackPointExtension>
        </extensions>
      </trkpt>
      <trkpt lat="46.74101575277745723724365234375" lon="6.835716627538204193115234375">
        <ele>572.79998779296875</ele>
        <time>2013-09-01T15:23:20.000Z</time>
        <extensions>
          <ns3:TrackPointExtension>
            <ns3:atemp>16.0</ns3:atemp>
          </ns3:TrackPointExtension>
        </extensions>
      </trkpt>
      <trkpt lat="46.7409948818385601043701171875" lon="6.8356631509959697723388671875">
        <ele>573</ele>
        <time>2013-09-01T15:23:21.000Z</time>
        <extensions>
          <ns3:TrackPointExtension>
            <ns3:atemp>16.0</ns3:atemp>
          </ns3:TrackPointExtension>
        </extensions>
      </trkpt>
      <trkpt lat="46.7409677244722843170166015625" lon="6.83561579324305057525634765625">
        <ele>573.4000244140625</ele>
        <time>2013-09-01T15:23:22.000Z</time>
        <extensions>
          <ns3:TrackPointExtension>
            <ns3:atemp>16.0</ns3:atemp>
          </ns3:TrackPointExtension>
        </extensions>
      </trkpt>
      <trkpt lat="46.74094048328697681427001953125" lon="6.83556902222335338592529296875">
        <ele>573.4000244140625</ele>
        <time>2013-09-01T15:23:23.000Z</time>
        <extensions>
          <ns3:TrackPointExtension>
            <ns3:atemp>16.0</ns3:atemp>
          </ns3:TrackPointExtension>
        </extensions>
      </trkpt>
      <trkpt lat="46.74091315828263759613037109375" lon="6.8355183117091655731201171875">
        <ele>573.5999755859375</ele>
        <time>2013-09-01T15:23:24.000Z</time>
        <extensions>
          <ns3:TrackPointExtension>
            <ns3:atemp>16.0</ns3:atemp>
          </ns3:TrackPointExtension>
        </extensions>
      </trkpt>
      <trkpt lat="46.74088315106928348541259765625" lon="6.83547464199364185333251953125">
        <ele>573.79998779296875</ele>
        <time>2013-09-01T15:23:25.000Z</time>
        <extensions>
          <ns3:TrackPointExtension>
            <ns3:atemp>16.0</ns3:atemp>
          </ns3:TrackPointExtension>
        </extensions>
      </trkpt>
      <trkpt lat="46.7408537305891513824462890625" lon="6.835430301725864410400390625">
        <ele>574</ele>
        <time>2013-09-01T15:23:26.000Z</time>
        <extensions>
          <ns3:TrackPointExtension>
            <ns3:atemp>16.0</ns3:atemp>
          </ns3:TrackPointExtension>
        </extensions>
      </trkpt>
      <trkpt lat="46.74081525765359401702880859375" lon="6.8353899009525775909423828125">
        <ele>574</ele>
        <time>2013-09-01T15:23:27.000Z</time>
        <extensions>
          <ns3:TrackPointExtension>
            <ns3:atemp>16.0</ns3:atemp>
          </ns3:TrackPointExtension>
        </extensions>
      </trkpt>
      <trkpt lat="46.7407729290425777435302734375" lon="6.83534841053187847137451171875">
        <ele>573.79998779296875</ele>
        <time>2013-09-01T15:23:28.000Z</time>
        <extensions>
          <ns3:TrackPointExtension>
            <ns3:atemp>16.0</ns3:atemp>
          </ns3:TrackPointExtension>
        </extensions>
      </trkpt>
      <trkpt lat="46.74073286354541778564453125" lon="6.8352971971035003662109375">
        <ele>574</ele>
        <time>2013-09-01T15:23:29.000Z</time>
        <extensions>
          <ns3:TrackPointExtension>
            <ns3:atemp>16.0</ns3:atemp>
          </ns3:TrackPointExtension>
        </extensions>
      </trkpt>
      <trkpt lat="46.7406959831714630126953125" lon="6.8352346681058406829833984375">
        <ele>574.20001220703125</ele>
        <time>2013-09-01T15:23:30.000Z</time>
        <extensions>
          <ns3:TrackPointExtension>
            <ns3:atemp>16.0</ns3:atemp>
          </ns3:TrackPointExtension>
        </extensions>
      </trkpt>
      <trkpt lat="46.74066069535911083221435546875" lon="6.8351723067462444305419921875">
        <ele>574.4000244140625</ele>
        <time>2013-09-01T15:23:31.000Z</time>
        <extensions>
          <ns3:TrackPointExtension>
            <ns3:atemp>16.0</ns3:atemp>
          </ns3:TrackPointExtension>
        </extensions>
      </trkpt>
      <trkpt lat="46.7406304366886615753173828125" lon="6.8351042456924915313720703125">
        <ele>574.20001220703125</ele>
        <time>2013-09-01T15:23:32.000Z</time>
        <extensions>
          <ns3:TrackPointExtension>
            <ns3:atemp>16.0</ns3:atemp>
          </ns3:TrackPointExtension>
        </extensions>
      </trkpt>
      <trkpt lat="46.74060369841754436492919921875" lon="6.83503492735326290130615234375">
        <ele>574.20001220703125</ele>
        <time>2013-09-01T15:23:33.000Z</time>
        <extensions>
          <ns3:TrackPointExtension>
            <ns3:atemp>16.0</ns3:atemp>
          </ns3:TrackPointExtension>
        </extensions>
      </trkpt>
      <trkpt lat="46.7405697517096996307373046875" lon="6.83498212136328220367431640625">
        <ele>574.4000244140625</ele>
        <time>2013-09-01T15:23:34.000Z</time>
        <extensions>
          <ns3:TrackPointExtension>
            <ns3:atemp>16.0</ns3:atemp>
          </ns3:TrackPointExtension>
        </extensions>
      </trkpt>
      <trkpt lat="46.740536056458950042724609375" lon="6.834924705326557159423828125">
        <ele>574.4000244140625</ele>
        <time>2013-09-01T15:23:35.000Z</time>
        <extensions>
          <ns3:TrackPointExtension>
            <ns3:atemp>16.0</ns3:atemp>
          </ns3:TrackPointExtension>
        </extensions>
      </trkpt>
      <trkpt lat="46.74048702232539653778076171875" lon="6.83487902395427227020263671875">
        <ele>574.4000244140625</ele>
        <time>2013-09-01T15:23:36.000Z</time>
        <extensions>
          <ns3:TrackPointExtension>
            <ns3:atemp>16.0</ns3:atemp>
          </ns3:TrackPointExtension>
        </extensions>
      </trkpt>
      <trkpt lat="46.740444190800189971923828125" lon="6.83483024127781391143798828125">
        <ele>574.4000244140625</ele>
        <time>2013-09-01T15:23:37.000Z</time>
        <extensions>
          <ns3:TrackPointExtension>
            <ns3:atemp>16.0</ns3:atemp>
          </ns3:TrackPointExtension>
        </extensions>
      </trkpt>
      <trkpt lat="46.74039423465728759765625" lon="6.8347843922674655914306640625">
        <ele>574.20001220703125</ele>
        <time>2013-09-01T15:23:38.000Z</time>
        <extensions>
          <ns3:TrackPointExtension>
            <ns3:atemp>16.0</ns3:atemp>
          </ns3:TrackPointExtension>
        </extensions>
      </trkpt>
      <trkpt lat="46.7403437756001949310302734375" lon="6.8347392976284027099609375">
        <ele>574</ele>
        <time>2013-09-01T15:23:39.000Z</time>
        <extensions>
          <ns3:TrackPointExtension>
            <ns3:atemp>16.0</ns3:atemp>
          </ns3:TrackPointExtension>
        </extensions>
      </trkpt>
      <trkpt lat="46.74029340036213397979736328125" lon="6.83468288742005825042724609375">
        <ele>574</ele>
        <time>2013-09-01T15:23:40.000Z</time>
        <extensions>
          <ns3:TrackPointExtension>
            <ns3:atemp>16.0</ns3:atemp>
          </ns3:TrackPointExtension>
        </extensions>
      </trkpt>
      <trkpt lat="46.74023975618183612823486328125" lon="6.83462304063141345977783203125">
        <ele>573.79998779296875</ele>
        <time>2013-09-01T15:23:41.000Z</time>
        <extensions>
          <ns3:TrackPointExtension>
            <ns3:atemp>16.0</ns3:atemp>
          </ns3:TrackPointExtension>
        </extensions>
      </trkpt>
      <trkpt lat="46.740188710391521453857421875" lon="6.83457056991755962371826171875">
        <ele>573.79998779296875</ele>
        <time>2013-09-01T15:23:42.000Z</time>
        <extensions>
          <ns3:TrackPointExtension>
            <ns3:atemp>16.0</ns3:atemp>
          </ns3:TrackPointExtension>
        </extensions>
      </trkpt>
      <trkpt lat="46.74013632349669933319091796875" lon="6.8345292471349239349365234375">
        <ele>573.4000244140625</ele>
        <time>2013-09-01T15:23:43.000Z</time>
        <extensions>
          <ns3:TrackPointExtension>
            <ns3:atemp>16.0</ns3:atemp>
          </ns3:TrackPointExtension>
        </extensions>
      </trkpt>
      <trkpt lat="46.74008569680154323577880859375" lon="6.83448004536330699920654296875">
        <ele>573.4000244140625</ele>
        <time>2013-09-01T15:23:44.000Z</time>
        <extensions>
          <ns3:TrackPointExtension>
            <ns3:atemp>16.0</ns3:atemp>
          </ns3:TrackPointExtension>
        </extensions>
      </trkpt>
      <trkpt lat="46.740035153925418853759765625" lon="6.8344256468117237091064453125">
        <ele>573.20001220703125</ele>
        <time>2013-09-01T15:23:45.000Z</time>
        <extensions>
          <ns3:TrackPointExtension>
            <ns3:atemp>16.0</ns3:atemp>
          </ns3:TrackPointExtension>
        </extensions>
      </trkpt>
      <trkpt lat="46.739988215267658233642578125" lon="6.834362782537937164306640625">
        <ele>573.4000244140625</ele>
        <time>2013-09-01T15:23:46.000Z</time>
        <extensions>
          <ns3:TrackPointExtension>
            <ns3:atemp>16.0</ns3:atemp>
          </ns3:TrackPointExtension>
        </extensions>
      </trkpt>
      <trkpt lat="46.739946305751800537109375" lon="6.83429882861673831939697265625">
        <ele>573.4000244140625</ele>
        <time>2013-09-01T15:23:47.000Z</time>
        <extensions>
          <ns3:TrackPointExtension>
            <ns3:atemp>16.0</ns3:atemp>
          </ns3:TrackPointExtension>
        </extensions>
      </trkpt>
      <trkpt lat="46.73989525996148586273193359375" lon="6.834239065647125244140625">
        <ele>573.20001220703125</ele>
        <time>2013-09-01T15:23:48.000Z</time>
        <extensions>
          <ns3:TrackPointExtension>
            <ns3:atemp>16.0</ns3:atemp>
          </ns3:TrackPointExtension>
        </extensions>
      </trkpt>
      <trkpt lat="46.73983055166900157928466796875" lon="6.83420880697667598724365234375">
        <ele>572.5999755859375</ele>
        <time>2013-09-01T15:23:49.000Z</time>
        <extensions>
          <ns3:TrackPointExtension>
            <ns3:atemp>16.0</ns3:atemp>
          </ns3:TrackPointExtension>
        </extensions>
      </trkpt>
      <trkpt lat="46.73977036960422992706298828125" lon="6.83420092798769474029541015625">
        <ele>572.4000244140625</ele>
        <time>2013-09-01T15:23:50.000Z</time>
        <extensions>
          <ns3:TrackPointExtension>
            <ns3:atemp>16.0</ns3:atemp>
          </ns3:TrackPointExtension>
        </extensions>
      </trkpt>
      <trkpt lat="46.739704906940460205078125" lon="6.83421417139470577239990234375">
        <ele>572.20001220703125</ele>
        <time>2013-09-01T15:23:51.000Z</time>
        <extensions>
          <ns3:TrackPointExtension>
            <ns3:atemp>16.0</ns3:atemp>
          </ns3:TrackPointExtension>
        </extensions>
      </trkpt>
      <trkpt lat="46.73964464105665683746337890625" lon="6.8342308513820171356201171875">
        <ele>572.20001220703125</ele>
        <time>2013-09-01T15:23:52.000Z</time>
        <extensions>
          <ns3:TrackPointExtension>
            <ns3:atemp>16.0</ns3:atemp>
          </ns3:TrackPointExtension>
        </extensions>
      </trkpt>
      <trkpt lat="46.7395887337625026702880859375" lon="6.8342653848230838775634765625">
        <ele>572</ele>
        <time>2013-09-01T15:23:53.000Z</time>
        <extensions>
          <ns3:TrackPointExtension>
            <ns3:atemp>16.0</ns3:atemp>
          </ns3:TrackPointExtension>
        </extensions>
      </trkpt>
      <trkpt lat="46.73953928053379058837890625" lon="6.8343042768537998199462890625">
        <ele>572.20001220703125</ele>
        <time>2013-09-01T15:23:54.000Z</time>
        <extensions>
          <ns3:TrackPointExtension>
            <ns3:atemp>16.0</ns3:atemp>
          </ns3:TrackPointExtension>
        </extensions>
      </trkpt>
      <trkpt lat="46.7394968681037425994873046875" lon="6.834348700940608978271484375">
        <ele>572.20001220703125</ele>
        <time>2013-09-01T15:23:55.000Z</time>
        <extensions>
          <ns3:TrackPointExtension>
            <ns3:atemp>16.0</ns3:atemp>
          </ns3:TrackPointExtension>
        </extensions>
      </trkpt>
      <trkpt lat="46.73945956863462924957275390625" lon="6.83439890854060649871826171875">
        <ele>572.4000244140625</ele>
        <time>2013-09-01T15:23:56.000Z</time>
        <extensions>
          <ns3:TrackPointExtension>
            <ns3:atemp>16.0</ns3:atemp>
          </ns3:TrackPointExtension>
        </extensions>
      </trkpt>
      <trkpt lat="46.73942126333713531494140625" lon="6.83445238508284091949462890625">
        <ele>572</ele>
        <time>2013-09-01T15:23:57.000Z</time>
        <extensions>
          <ns3:TrackPointExtension>
            <ns3:atemp>16.0</ns3:atemp>
          </ns3:TrackPointExtension>
        </extensions>
      </trkpt>
      <trkpt lat="46.73938103020191192626953125" lon="6.8345064483582973480224609375">
        <ele>571.5999755859375</ele>
        <time>2013-09-01T15:23:58.000Z</time>
        <extensions>
          <ns3:TrackPointExtension>
            <ns3:atemp>16.0</ns3:atemp>
          </ns3:TrackPointExtension>
        </extensions>
      </trkpt>
      <trkpt lat="46.73934339545667171478271484375" lon="6.834563277661800384521484375">
        <ele>571.20001220703125</ele>
        <time>2013-09-01T15:23:59.000Z</time>
        <extensions>
          <ns3:TrackPointExtension>
            <ns3:atemp>16.0</ns3:atemp>
          </ns3:TrackPointExtension>
        </extensions>
      </trkpt>
      <trkpt lat="46.739306934177875518798828125" lon="6.83463125489652156829833984375">
        <ele>571.20001220703125</ele>
        <time>2013-09-01T15:24:00.000Z</time>
        <extensions>
          <ns3:TrackPointExtension>
            <ns3:atemp>16.0</ns3:atemp>
          </ns3:TrackPointExtension>
        </extensions>
      </trkpt>
      <trkpt lat="46.73927298747003078460693359375" lon="6.83470434509217739105224609375">
        <ele>571</ele>
        <time>2013-09-01T15:24:01.000Z</time>
        <extensions>
          <ns3:TrackPointExtension>
            <ns3:atemp>16.0</ns3:atemp>
          </ns3:TrackPointExtension>
        </extensions>
      </trkpt>
      <trkpt lat="46.73923929221928119659423828125" lon="6.8347780220210552215576171875">
        <ele>571.20001220703125</ele>
        <time>2013-09-01T15:24:02.000Z</time>
        <extensions>
          <ns3:TrackPointExtension>
            <ns3:atemp>16.0</ns3:atemp>
          </ns3:TrackPointExtension>
        </extensions>
      </trkpt>
      <trkpt lat="46.7392159067094326019287109375" lon="6.8348638527095317840576171875">
        <ele>571.4000244140625</ele>
        <time>2013-09-01T15:24:03.000Z</time>
        <extensions>
          <ns3:TrackPointExtension>
            <ns3:atemp>16.0</ns3:atemp>
          </ns3:TrackPointExtension>
        </extensions>
      </trkpt>
      <trkpt lat="46.7391961254179477691650390625" lon="6.83494959957897663116455078125">
        <ele>571.20001220703125</ele>
        <time>2013-09-01T15:24:04.000Z</time>
        <extensions>
          <ns3:TrackPointExtension>
            <ns3:atemp>16.0</ns3:atemp>
          </ns3:TrackPointExtension>
        </extensions>
      </trkpt>
      <trkpt lat="46.73917123116552829742431640625" lon="6.83504062704741954803466796875">
        <ele>570.5999755859375</ele>
        <time>2013-09-01T15:24:05.000Z</time>
        <extensions>
          <ns3:TrackPointExtension>
            <ns3:atemp>16.0</ns3:atemp>
          </ns3:TrackPointExtension>
        </extensions>
      </trkpt>
      <trkpt lat="46.7391444928944110870361328125" lon="6.8351416289806365966796875">
        <ele>570</ele>
        <time>2013-09-01T15:24:06.000Z</time>
        <extensions>
          <ns3:TrackPointExtension>
            <ns3:atemp>16.0</ns3:atemp>
          </ns3:TrackPointExtension>
        </extensions>
      </trkpt>
      <trkpt lat="46.73911473713815212249755859375" lon="6.83525034226477146148681640625">
        <ele>570</ele>
        <time>2013-09-01T15:24:07.000Z</time>
        <extensions>
          <ns3:TrackPointExtension>
            <ns3:atemp>16.0</ns3:atemp>
          </ns3:TrackPointExtension>
        </extensions>
      </trkpt>
      <trkpt lat="46.73908037133514881134033203125" lon="6.83536282740533351898193359375">
        <ele>570</ele>
        <time>2013-09-01T15:24:08.000Z</time>
        <extensions>
          <ns3:TrackPointExtension>
            <ns3:atemp>16.0</ns3:atemp>
          </ns3:TrackPointExtension>
        </extensions>
      </trkpt>
      <trkpt lat="46.73904516734182834625244140625" lon="6.83548017404973506927490234375">
        <ele>569.79998779296875</ele>
        <time>2013-09-01T15:24:09.000Z</time>
        <extensions>
          <ns3:TrackPointExtension>
            <ns3:atemp>16.0</ns3:atemp>
          </ns3:TrackPointExtension>
        </extensions>
      </trkpt>
      <trkpt lat="46.7390033416450023651123046875" lon="6.8355984427034854888916015625">
        <ele>569.5999755859375</ele>
        <time>2013-09-01T15:24:10.000Z</time>
        <extensions>
          <ns3:TrackPointExtension>
            <ns3:atemp>16.0</ns3:atemp>
          </ns3:TrackPointExtension>
        </extensions>
      </trkpt>
      <trkpt lat="46.7389632761478424072265625" lon="6.8357144482433795928955078125">
        <ele>569.20001220703125</ele>
        <time>2013-09-01T15:24:11.000Z</time>
        <extensions>
          <ns3:TrackPointExtension>
            <ns3:atemp>16.0</ns3:atemp>
          </ns3:TrackPointExtension>
        </extensions>
      </trkpt>
      <trkpt lat="46.73892413266003131866455078125" lon="6.835832297801971435546875">
        <ele>569</ele>
        <time>2013-09-01T15:24:12.000Z</time>
        <extensions>
          <ns3:TrackPointExtension>
            <ns3:atemp>16.0</ns3:atemp>
          </ns3:TrackPointExtension>
        </extensions>
      </trkpt>
      <trkpt lat="46.738882474601268768310546875" lon="6.835950314998626708984375">
        <ele>568.20001220703125</ele>
        <time>2013-09-01T15:24:13.000Z</time>
        <extensions>
          <ns3:TrackPointExtension>
            <ns3:atemp>16.0</ns3:atemp>
          </ns3:TrackPointExtension>
        </extensions>
      </trkpt>
      <trkpt lat="46.73883981071412563323974609375" lon="6.83607042767107486724853515625">
        <ele>567.5999755859375</ele>
        <time>2013-09-01T15:24:14.000Z</time>
        <extensions>
          <ns3:TrackPointExtension>
            <ns3:atemp>16.0</ns3:atemp>
          </ns3:TrackPointExtension>
        </extensions>
      </trkpt>
      <trkpt lat="46.7387978173792362213134765625" lon="6.83619230054318904876708984375">
        <ele>567.20001220703125</ele>
        <time>2013-09-01T15:24:15.000Z</time>
        <extensions>
          <ns3:TrackPointExtension>
            <ns3:atemp>16.0</ns3:atemp>
          </ns3:TrackPointExtension>
        </extensions>
      </trkpt>
      <trkpt lat="46.738755404949188232421875" lon="6.836324147880077362060546875">
        <ele>567</ele>
        <time>2013-09-01T15:24:16.000Z</time>
        <extensions>
          <ns3:TrackPointExtension>
            <ns3:atemp>16.0</ns3:atemp>
          </ns3:TrackPointExtension>
        </extensions>
      </trkpt>
      <trkpt lat="46.73871492035686969757080078125" lon="6.83646806515753269195556640625">
        <ele>566.5999755859375</ele>
        <time>2013-09-01T15:24:17.000Z</time>
        <extensions>
          <ns3:TrackPointExtension>
            <ns3:atemp>16.0</ns3:atemp>
          </ns3:TrackPointExtension>
        </extensions>
      </trkpt>
      <trkpt lat="46.73867854289710521697998046875" lon="6.83661608956754207611083984375">
        <ele>566.20001220703125</ele>
        <time>2013-09-01T15:24:18.000Z</time>
        <extensions>
          <ns3:TrackPointExtension>
            <ns3:atemp>16.0</ns3:atemp>
          </ns3:TrackPointExtension>
        </extensions>
      </trkpt>
      <trkpt lat="46.73864903859794139862060546875" lon="6.83677232824265956878662109375">
        <ele>565</ele>
        <time>2013-09-01T15:24:19.000Z</time>
        <extensions>
          <ns3:TrackPointExtension>
            <ns3:atemp>16.0</ns3:atemp>
          </ns3:TrackPointExtension>
        </extensions>
      </trkpt>
      <trkpt lat="46.73862657509744167327880859375" lon="6.836937703192234039306640625">
        <ele>563.5999755859375</ele>
        <time>2013-09-01T15:24:20.000Z</time>
        <extensions>
          <ns3:TrackPointExtension>
            <ns3:atemp>16.0</ns3:atemp>
          </ns3:TrackPointExtension>
        </extensions>
      </trkpt>
      <trkpt lat="46.73860964365303516387939453125" lon="6.8371065147221088409423828125">
        <ele>561.5999755859375</ele>
        <time>2013-09-01T15:24:21.000Z</time>
        <extensions>
          <ns3:TrackPointExtension>
            <ns3:atemp>16.0</ns3:atemp>
          </ns3:TrackPointExtension>
        </extensions>
      </trkpt>
      <trkpt lat="46.73859656788408756256103515625" lon="6.83728228323161602020263671875">
        <ele>560.79998779296875</ele>
        <time>2013-09-01T15:24:22.000Z</time>
        <extensions>
          <ns3:TrackPointExtension>
            <ns3:atemp>16.0</ns3:atemp>
          </ns3:TrackPointExtension>
        </extensions>
      </trkpt>
      <trkpt lat="46.73859086818993091583251953125" lon="6.8374639190733432769775390625">
        <ele>560</ele>
        <time>2013-09-01T15:24:23.000Z</time>
        <extensions>
          <ns3:TrackPointExtension>
            <ns3:atemp>16.0</ns3:atemp>
          </ns3:TrackPointExtension>
        </extensions>
      </trkpt>
      <trkpt lat="46.73858449794352054595947265625" lon="6.83763650245964527130126953125">
        <ele>559</ele>
        <time>2013-09-01T15:24:24.000Z</time>
        <extensions>
          <ns3:TrackPointExtension>
            <ns3:atemp>16.0</ns3:atemp>
          </ns3:TrackPointExtension>
        </extensions>
      </trkpt>
      <trkpt lat="46.73857930116355419158935546875" lon="6.83779793791472911834716796875">
        <ele>557.5999755859375</ele>
        <time>2013-09-01T15:24:25.000Z</time>
        <extensions>
          <ns3:TrackPointExtension>
            <ns3:atemp>16.0</ns3:atemp>
          </ns3:TrackPointExtension>
        </extensions>
      </trkpt>
      <trkpt lat="46.7385637946426868438720703125" lon="6.83794881217181682586669921875">
        <ele>555.79998779296875</ele>
        <time>2013-09-01T15:24:26.000Z</time>
        <extensions>
          <ns3:TrackPointExtension>
            <ns3:atemp>16.0</ns3:atemp>
          </ns3:TrackPointExtension>
        </extensions>
      </trkpt>
      <trkpt lat="46.73852431587874889373779296875" lon="6.83809809386730194091796875">
        <ele>554</ele>
        <time>2013-09-01T15:24:27.000Z</time>
        <extensions>
          <ns3:TrackPointExtension>
            <ns3:atemp>16.0</ns3:atemp>
          </ns3:TrackPointExtension>
        </extensions>
      </trkpt>
      <trkpt lat="46.73845893703401088714599609375" lon="6.83824083767831325531005859375">
        <ele>552.4000244140625</ele>
        <time>2013-09-01T15:24:28.000Z</time>
        <extensions>
          <ns3:TrackPointExtension>
            <ns3:atemp>16.0</ns3:atemp>
          </ns3:TrackPointExtension>
        </extensions>
      </trkpt>
      <trkpt lat="46.7383785545825958251953125" lon="6.83837142772972583770751953125">
        <ele>551.20001220703125</ele>
        <time>2013-09-01T15:24:29.000Z</time>
        <extensions>
          <ns3:TrackPointExtension>
            <ns3:atemp>16.0</ns3:atemp>
          </ns3:TrackPointExtension>
        </extensions>
      </trkpt>
      <trkpt lat="46.7382871918380260467529296875" lon="6.838493384420871734619140625">
        <ele>550.4000244140625</ele>
        <time>2013-09-01T15:24:30.000Z</time>
        <extensions>
          <ns3:TrackPointExtension>
            <ns3:atemp>16.0</ns3:atemp>
          </ns3:TrackPointExtension>
        </extensions>
      </trkpt>
      <trkpt lat="46.73818769864737987518310546875" lon="6.83861265890300273895263671875">
        <ele>549.20001220703125</ele>
        <time>2013-09-01T15:24:31.000Z</time>
        <extensions>
          <ns3:TrackPointExtension>
            <ns3:atemp>16.0</ns3:atemp>
          </ns3:TrackPointExtension>
        </extensions>
      </trkpt>
      <trkpt lat="46.73808158375322818756103515625" lon="6.8387223780155181884765625">
        <ele>548.20001220703125</ele>
        <time>2013-09-01T15:24:32.000Z</time>
        <extensions>
          <ns3:TrackPointExtension>
            <ns3:atemp>16.0</ns3:atemp>
          </ns3:TrackPointExtension>
        </extensions>
      </trkpt>
      <trkpt lat="46.73795920796692371368408203125" lon="6.8388107232749462127685546875">
        <ele>547</ele>
        <time>2013-09-01T15:24:33.000Z</time>
        <extensions>
          <ns3:TrackPointExtension>
            <ns3:atemp>16.0</ns3:atemp>
          </ns3:TrackPointExtension>
        </extensions>
      </trkpt>
      <trkpt lat="46.7378312163054943084716796875" lon="6.83888423256576061248779296875">
        <ele>545.5999755859375</ele>
        <time>2013-09-01T15:24:34.000Z</time>
        <extensions>
          <ns3:TrackPointExtension>
            <ns3:atemp>16.0</ns3:atemp>
          </ns3:TrackPointExtension>
        </extensions>
      </trkpt>
      <trkpt lat="46.73772233538329601287841796875" lon="6.83899655006825923919677734375">
        <ele>544.4000244140625</ele>
        <time>2013-09-01T15:24:35.000Z</time>
        <extensions>
          <ns3:TrackPointExtension>
            <ns3:atemp>16.0</ns3:atemp>
          </ns3:TrackPointExtension>
        </extensions>
      </trkpt>
      <trkpt lat="46.73763968981802463531494140625" lon="6.83914658613502979278564453125">
        <ele>543.20001220703125</ele>
        <time>2013-09-01T15:24:36.000Z</time>
        <extensions>
          <ns3:TrackPointExtension>
            <ns3:atemp>16.0</ns3:atemp>
          </ns3:TrackPointExtension>
        </extensions>
      </trkpt>
      <trkpt lat="46.7375804297626018524169921875" lon="6.83930668048560619354248046875">
        <ele>542.4000244140625</ele>
        <time>2013-09-01T15:24:37.000Z</time>
        <extensions>
          <ns3:TrackPointExtension>
            <ns3:atemp>16.0</ns3:atemp>
          </ns3:TrackPointExtension>
        </extensions>
      </trkpt>
      <trkpt lat="46.7375526018440723419189453125" lon="6.8394760787487030029296875">
        <ele>541.79998779296875</ele>
        <time>2013-09-01T15:24:38.000Z</time>
        <extensions>
          <ns3:TrackPointExtension>
            <ns3:atemp>16.0</ns3:atemp>
          </ns3:TrackPointExtension>
        </extensions>
      </trkpt>
      <trkpt lat="46.73753676004707813262939453125" lon="6.83961689472198486328125">
        <ele>541</ele>
        <time>2013-09-01T15:24:39.000Z</time>
        <extensions>
          <ns3:TrackPointExtension>
            <ns3:atemp>16.0</ns3:atemp>
          </ns3:TrackPointExtension>
        </extensions>
      </trkpt>
      <trkpt lat="46.7375153861939907073974609375" lon="6.83972778730094432830810546875">
        <ele>540.20001220703125</ele>
        <time>2013-09-01T15:24:40.000Z</time>
        <extensions>
          <ns3:TrackPointExtension>
            <ns3:atemp>16.0</ns3:atemp>
          </ns3:TrackPointExtension>
        </extensions>
      </trkpt>
      <trkpt lat="46.7374778352677822113037109375" lon="6.8398071639239788055419921875">
        <ele>539.4000244140625</ele>
        <time>2013-09-01T15:24:41.000Z</time>
        <extensions>
          <ns3:TrackPointExtension>
            <ns3:atemp>16.0</ns3:atemp>
          </ns3:TrackPointExtension>
        </extensions>
      </trkpt>
      <trkpt lat="46.7374298907816410064697265625" lon="6.83985066600143909454345703125">
        <ele>538.4000244140625</ele>
        <time>2013-09-01T15:24:42.000Z</time>
        <extensions>
          <ns3:TrackPointExtension>
            <ns3:atemp>16.0</ns3:atemp>
          </ns3:TrackPointExtension>
        </extensions>
      </trkpt>
      <trkpt lat="46.737389154732227325439453125" lon="6.83985720388591289520263671875">
        <ele>537.4000244140625</ele>
        <time>2013-09-01T15:24:43.000Z</time>
        <extensions>
          <ns3:TrackPointExtension>
            <ns3:atemp>16.0</ns3:atemp>
          </ns3:TrackPointExtension>
        </extensions>
      </trkpt>
      <trkpt lat="46.73735420219600200653076171875" lon="6.839833147823810577392578125">
        <ele>536.79998779296875</ele>
        <time>2013-09-01T15:24:44.000Z</time>
        <extensions>
          <ns3:TrackPointExtension>
            <ns3:atemp>16.0</ns3:atemp>
          </ns3:TrackPointExtension>
        </extensions>
      </trkpt>
      <trkpt lat="46.73731916584074497222900390625" lon="6.83982334099709987640380859375">
        <ele>536.5999755859375</ele>
        <time>2013-09-01T15:24:45.000Z</time>
        <extensions>
          <ns3:TrackPointExtension>
            <ns3:atemp>16.0</ns3:atemp>
          </ns3:TrackPointExtension>
        </extensions>
      </trkpt>
      <trkpt lat="46.73728287220001220703125" lon="6.8398145399987697601318359375">
        <ele>537</ele>
        <time>2013-09-01T15:24:46.000Z</time>
        <extensions>
          <ns3:TrackPointExtension>
            <ns3:atemp>16.0</ns3:atemp>
          </ns3:TrackPointExtension>
        </extensions>
      </trkpt>
      <trkpt lat="46.7372461594641208648681640625" lon="6.83981043286621570587158203125">
        <ele>537.20001220703125</ele>
        <time>2013-09-01T15:24:47.000Z</time>
        <extensions>
          <ns3:TrackPointExtension>
            <ns3:atemp>16.0</ns3:atemp>
          </ns3:TrackPointExtension>
        </extensions>
      </trkpt>
      <trkpt lat="46.73720986582338809967041015625" lon="6.839799620211124420166015625">
        <ele>537.20001220703125</ele>
        <time>2013-09-01T15:24:48.000Z</time>
        <extensions>
          <ns3:TrackPointExtension>
            <ns3:atemp>16.0</ns3:atemp>
          </ns3:TrackPointExtension>
        </extensions>
      </trkpt>
      <trkpt lat="46.73717298544943332672119140625" lon="6.83979148976504802703857421875">
        <ele>537.5999755859375</ele>
        <time>2013-09-01T15:24:49.000Z</time>
        <extensions>
          <ns3:TrackPointExtension>
            <ns3:atemp>16.0</ns3:atemp>
          </ns3:TrackPointExtension>
        </extensions>
      </trkpt>
      <trkpt lat="46.73714079894125461578369140625" lon="6.83978143148124217987060546875">
        <ele>537.79998779296875</ele>
        <time>2013-09-01T15:24:50.000Z</time>
        <extensions>
          <ns3:TrackPointExtension>
            <ns3:atemp>16.0</ns3:atemp>
          </ns3:TrackPointExtension>
        </extensions>
      </trkpt>
      <trkpt lat="46.73711045645177364349365234375" lon="6.83977623470127582550048828125">
        <ele>538</ele>
        <time>2013-09-01T15:24:51.000Z</time>
        <extensions>
          <ns3:TrackPointExtension>
            <ns3:atemp>16.0</ns3:atemp>
          </ns3:TrackPointExtension>
        </extensions>
      </trkpt>
      <trkpt lat="46.7370805330574512481689453125" lon="6.83976701460778713226318359375">
        <ele>538.4000244140625</ele>
        <time>2013-09-01T15:24:52.000Z</time>
        <extensions>
          <ns3:TrackPointExtension>
            <ns3:atemp>16.0</ns3:atemp>
          </ns3:TrackPointExtension>
        </extensions>
      </trkpt>
      <trkpt lat="46.7370419763028621673583984375" lon="6.83975678868591785430908203125">
        <ele>538.5999755859375</ele>
        <time>2013-09-01T15:24:53.000Z</time>
        <extensions>
          <ns3:TrackPointExtension>
            <ns3:atemp>16.0</ns3:atemp>
          </ns3:TrackPointExtension>
        </extensions>
      </trkpt>
      <trkpt lat="46.737004928290843963623046875" lon="6.8397484906017780303955078125">
        <ele>539</ele>
        <time>2013-09-01T15:24:54.000Z</time>
        <extensions>
          <ns3:TrackPointExtension>
            <ns3:atemp>16.0</ns3:atemp>
          </ns3:TrackPointExtension>
        </extensions>
      </trkpt>
      <trkpt lat="46.736966036260128021240234375" lon="6.83974170126020908355712890625">
        <ele>539.4000244140625</ele>
        <time>2013-09-01T15:24:55.000Z</time>
        <extensions>
          <ns3:TrackPointExtension>
            <ns3:atemp>16.0</ns3:atemp>
          </ns3:TrackPointExtension>
        </extensions>
      </trkpt>
      <trkpt lat="46.73692806623876094818115234375" lon="6.83973801322281360626220703125">
        <ele>539.5999755859375</ele>
        <time>2013-09-01T15:24:56.000Z</time>
        <extensions>
          <ns3:TrackPointExtension>
            <ns3:atemp>16.0</ns3:atemp>
          </ns3:TrackPointExtension>
        </extensions>
      </trkpt>
      <trkpt lat="46.7368917725980281829833984375" lon="6.839737258851528167724609375">
        <ele>540</ele>
        <time>2013-09-01T15:24:57.000Z</time>
        <extensions>
          <ns3:TrackPointExtension>
            <ns3:atemp>16.0</ns3:atemp>
          </ns3:TrackPointExtension>
        </extensions>
      </trkpt>
      <trkpt lat="46.7368550598621368408203125" lon="6.83972795493900775909423828125">
        <ele>540.20001220703125</ele>
        <time>2013-09-01T15:24:58.000Z</time>
        <extensions>
          <ns3:TrackPointExtension>
            <ns3:atemp>16.0</ns3:atemp>
          </ns3:TrackPointExtension>
        </extensions>
      </trkpt>
      <trkpt lat="46.7368173412978649139404296875" lon="6.83971873484551906585693359375">
        <ele>540.4000244140625</ele>
        <time>2013-09-01T15:24:59.000Z</time>
        <extensions>
          <ns3:TrackPointExtension>
            <ns3:atemp>16.0</ns3:atemp>
          </ns3:TrackPointExtension>
        </extensions>
      </trkpt>
      <trkpt lat="46.73677920363843441009521484375" lon="6.83971144258975982666015625">
        <ele>540.5999755859375</ele>
        <time>2013-09-01T15:25:00.000Z</time>
        <extensions>
          <ns3:TrackPointExtension>
            <ns3:atemp>16.0</ns3:atemp>
          </ns3:TrackPointExtension>
        </extensions>
      </trkpt>
      <trkpt lat="46.73674031160771846771240234375" lon="6.839707754552364349365234375">
        <ele>540.79998779296875</ele>
        <time>2013-09-01T15:25:01.000Z</time>
        <extensions>
          <ns3:TrackPointExtension>
            <ns3:atemp>16.0</ns3:atemp>
          </ns3:TrackPointExtension>
        </extensions>
      </trkpt>
      <trkpt lat="46.73670024611055850982666015625" lon="6.83969710953533649444580078125">
        <ele>541</ele>
        <time>2013-09-01T15:25:02.000Z</time>
        <extensions>
          <ns3:TrackPointExtension>
            <ns3:atemp>16.0</ns3:atemp>
          </ns3:TrackPointExtension>
        </extensions>
      </trkpt>
      <trkpt lat="46.73665992915630340576171875" lon="6.83968889527022838592529296875">
        <ele>541.20001220703125</ele>
        <time>2013-09-01T15:25:03.000Z</time>
        <extensions>
          <ns3:TrackPointExtension>
            <ns3:atemp>16.0</ns3:atemp>
          </ns3:TrackPointExtension>
        </extensions>
      </trkpt>
      <trkpt lat="46.736618690192699432373046875" lon="6.83967850171029567718505859375">
        <ele>541.4000244140625</ele>
        <time>2013-09-01T15:25:04.000Z</time>
        <extensions>
          <ns3:TrackPointExtension>
            <ns3:atemp>16.0</ns3:atemp>
          </ns3:TrackPointExtension>
        </extensions>
      </trkpt>
      <trkpt lat="46.73657787032425403594970703125" lon="6.83966961689293384552001953125">
        <ele>541.5999755859375</ele>
        <time>2013-09-01T15:25:05.000Z</time>
        <extensions>
          <ns3:TrackPointExtension>
            <ns3:atemp>16.0</ns3:atemp>
          </ns3:TrackPointExtension>
        </extensions>
      </trkpt>
      <trkpt lat="46.7365363799035549163818359375" lon="6.8396613188087940216064453125">
        <ele>541.79998779296875</ele>
        <time>2013-09-01T15:25:06.000Z</time>
        <extensions>
          <ns3:TrackPointExtension>
            <ns3:atemp>16.0</ns3:atemp>
          </ns3:TrackPointExtension>
        </extensions>
      </trkpt>
      <trkpt lat="46.73649455420672893524169921875" lon="6.8396515958011150360107421875">
        <ele>542</ele>
        <time>2013-09-01T15:25:07.000Z</time>
        <extensions>
          <ns3:TrackPointExtension>
            <ns3:atemp>16.0</ns3:atemp>
          </ns3:TrackPointExtension>
        </extensions>
      </trkpt>
      <trkpt lat="46.73645230941474437713623046875" lon="6.83962427079677581787109375">
        <ele>542.20001220703125</ele>
        <time>2013-09-01T15:25:08.000Z</time>
        <extensions>
          <ns3:TrackPointExtension>
            <ns3:atemp>16.0</ns3:atemp>
          </ns3:TrackPointExtension>
        </extensions>
      </trkpt>
      <trkpt lat="46.7364116571843624114990234375" lon="6.83960222639143466949462890625">
        <ele>542.5999755859375</ele>
        <time>2013-09-01T15:25:09.000Z</time>
        <extensions>
          <ns3:TrackPointExtension>
            <ns3:atemp>16.0</ns3:atemp>
          </ns3:TrackPointExtension>
        </extensions>
      </trkpt>
      <trkpt lat="46.73637033440172672271728515625" lon="6.83957523666322231292724609375">
        <ele>542.79998779296875</ele>
        <time>2013-09-01T15:25:10.000Z</time>
        <extensions>
          <ns3:TrackPointExtension>
            <ns3:atemp>16.0</ns3:atemp>
          </ns3:TrackPointExtension>
        </extensions>
      </trkpt>
      <trkpt lat="46.73632909543812274932861328125" lon="6.83954757638275623321533203125">
        <ele>542.79998779296875</ele>
        <time>2013-09-01T15:25:11.000Z</time>
        <extensions>
          <ns3:TrackPointExtension>
            <ns3:atemp>16.0</ns3:atemp>
          </ns3:TrackPointExtension>
        </extensions>
      </trkpt>
      <trkpt lat="46.73628869466483592987060546875" lon="6.83952410705387592315673828125">
        <ele>542.79998779296875</ele>
        <time>2013-09-01T15:25:12.000Z</time>
        <extensions>
          <ns3:TrackPointExtension>
            <ns3:atemp>16.0</ns3:atemp>
          </ns3:TrackPointExtension>
        </extensions>
      </trkpt>
      <trkpt lat="46.73624762333929538726806640625" lon="6.8394950218498706817626953125">
        <ele>542.79998779296875</ele>
        <time>2013-09-01T15:25:13.000Z</time>
        <extensions>
          <ns3:TrackPointExtension>
            <ns3:atemp>16.0</ns3:atemp>
          </ns3:TrackPointExtension>
        </extensions>
      </trkpt>
      <trkpt lat="46.73620269633829593658447265625" lon="6.8394695408642292022705078125">
        <ele>543.20001220703125</ele>
        <time>2013-09-01T15:25:14.000Z</time>
        <extensions>
          <ns3:TrackPointExtension>
            <ns3:atemp>16.0</ns3:atemp>
          </ns3:TrackPointExtension>
        </extensions>
      </trkpt>
      <trkpt lat="46.736160032451152801513671875" lon="6.83944464661180973052978515625">
        <ele>543.20001220703125</ele>
        <time>2013-09-01T15:25:15.000Z</time>
        <extensions>
          <ns3:TrackPointExtension>
            <ns3:atemp>16.0</ns3:atemp>
          </ns3:TrackPointExtension>
        </extensions>
      </trkpt>
      <trkpt lat="46.73611904494464397430419921875" lon="6.83941715396940708160400390625">
        <ele>543.4000244140625</ele>
        <time>2013-09-01T15:25:16.000Z</time>
        <extensions>
          <ns3:TrackPointExtension>
            <ns3:atemp>16.0</ns3:atemp>
          </ns3:TrackPointExtension>
        </extensions>
      </trkpt>
      <trkpt lat="46.7360760457813739776611328125" lon="6.83938982896506786346435546875">
        <ele>543.4000244140625</ele>
        <time>2013-09-01T15:25:17.000Z</time>
        <extensions>
          <ns3:TrackPointExtension>
            <ns3:atemp>16.0</ns3:atemp>
          </ns3:TrackPointExtension>
        </extensions>
      </trkpt>
      <trkpt lat="46.7360291071236133575439453125" lon="6.83936317451298236846923828125">
        <ele>543.5999755859375</ele>
        <time>2013-09-01T15:25:18.000Z</time>
        <extensions>
          <ns3:TrackPointExtension>
            <ns3:atemp>16.0</ns3:atemp>
          </ns3:TrackPointExtension>
        </extensions>
      </trkpt>
      <trkpt lat="46.73598409630358219146728515625" lon="6.839332245290279388427734375">
        <ele>543.5999755859375</ele>
        <time>2013-09-01T15:25:19.000Z</time>
        <extensions>
          <ns3:TrackPointExtension>
            <ns3:atemp>16.0</ns3:atemp>
          </ns3:TrackPointExtension>
        </extensions>
      </trkpt>
      <trkpt lat="46.735942102968692779541015625" lon="6.83930181898176670074462890625">
        <ele>543.5999755859375</ele>
        <time>2013-09-01T15:25:20.000Z</time>
        <extensions>
          <ns3:TrackPointExtension>
            <ns3:atemp>16.0</ns3:atemp>
          </ns3:TrackPointExtension>
        </extensions>
      </trkpt>
      <trkpt lat="46.73589818179607391357421875" lon="6.8392750807106494903564453125">
        <ele>543.79998779296875</ele>
        <time>2013-09-01T15:25:21.000Z</time>
        <extensions>
          <ns3:TrackPointExtension>
            <ns3:atemp>16.0</ns3:atemp>
          </ns3:TrackPointExtension>
        </extensions>
      </trkpt>
      <trkpt lat="46.73585350625216960906982421875" lon="6.83924901299178600311279296875">
        <ele>544</ele>
        <time>2013-09-01T15:25:22.000Z</time>
        <extensions>
          <ns3:TrackPointExtension>
            <ns3:atemp>16.0</ns3:atemp>
          </ns3:TrackPointExtension>
        </extensions>
      </trkpt>
      <trkpt lat="46.735810339450836181640625" lon="6.8392174132168292999267578125">
        <ele>543.79998779296875</ele>
        <time>2013-09-01T15:25:23.000Z</time>
        <extensions>
          <ns3:TrackPointExtension>
            <ns3:atemp>16.0</ns3:atemp>
          </ns3:TrackPointExtension>
        </extensions>
      </trkpt>
      <trkpt lat="46.73575828783214092254638671875" lon="6.83918531052768230438232421875">
        <ele>543.79998779296875</ele>
        <time>2013-09-01T15:25:24.000Z</time>
        <extensions>
          <ns3:TrackPointExtension>
            <ns3:atemp>16.0</ns3:atemp>
          </ns3:TrackPointExtension>
        </extensions>
      </trkpt>
      <trkpt lat="46.7357151210308074951171875" lon="6.83915697969496250152587890625">
        <ele>543.5999755859375</ele>
        <time>2013-09-01T15:25:25.000Z</time>
        <extensions>
          <ns3:TrackPointExtension>
            <ns3:atemp>16.0</ns3:atemp>
          </ns3:TrackPointExtension>
        </extensions>
      </trkpt>
      <trkpt lat="46.7356700263917446136474609375" lon="6.83912261389195919036865234375">
        <ele>543.79998779296875</ele>
        <time>2013-09-01T15:25:26.000Z</time>
        <extensions>
          <ns3:TrackPointExtension>
            <ns3:atemp>16.0</ns3:atemp>
          </ns3:TrackPointExtension>
        </extensions>
      </trkpt>
      <trkpt lat="46.735625602304935455322265625" lon="6.83909428305923938751220703125">
        <ele>543.79998779296875</ele>
        <time>2013-09-01T15:25:27.000Z</time>
        <extensions>
          <ns3:TrackPointExtension>
            <ns3:atemp>16.0</ns3:atemp>
          </ns3:TrackPointExtension>
        </extensions>
      </trkpt>
      <trkpt lat="46.73557841219007968902587890625" lon="6.83907047845423221588134765625">
        <ele>544</ele>
        <time>2013-09-01T15:25:28.000Z</time>
        <extensions>
          <ns3:TrackPointExtension>
            <ns3:atemp>16.0</ns3:atemp>
          </ns3:TrackPointExtension>
        </extensions>
      </trkpt>
      <trkpt lat="46.73552795313298702239990234375" lon="6.83904365636408329010009765625">
        <ele>544</ele>
        <time>2013-09-01T15:25:29.000Z</time>
        <extensions>
          <ns3:TrackPointExtension>
            <ns3:atemp>16.0</ns3:atemp>
          </ns3:TrackPointExtension>
        </extensions>
      </trkpt>
      <trkpt lat="46.7354772426187992095947265625" lon="6.83901867829263210296630859375">
        <ele>544</ele>
        <time>2013-09-01T15:25:30.000Z</time>
        <extensions>
          <ns3:TrackPointExtension>
            <ns3:atemp>16.0</ns3:atemp>
          </ns3:TrackPointExtension>
        </extensions>
      </trkpt>
      <trkpt lat="46.73542384989559650421142578125" lon="6.83898967690765857696533203125">
        <ele>544.20001220703125</ele>
        <time>2013-09-01T15:25:31.000Z</time>
        <extensions>
          <ns3:TrackPointExtension>
            <ns3:atemp>16.0</ns3:atemp>
          </ns3:TrackPointExtension>
        </extensions>
      </trkpt>
      <trkpt lat="46.73536970280110836029052734375" lon="6.83895916678011417388916015625">
        <ele>544.5999755859375</ele>
        <time>2013-09-01T15:25:32.000Z</time>
        <extensions>
          <ns3:TrackPointExtension>
            <ns3:atemp>16.0</ns3:atemp>
          </ns3:TrackPointExtension>
        </extensions>
      </trkpt>
      <trkpt lat="46.7353203333914279937744140625" lon="6.83892823755741119384765625">
        <ele>544.5999755859375</ele>
        <time>2013-09-01T15:25:33.000Z</time>
        <extensions>
          <ns3:TrackPointExtension>
            <ns3:atemp>16.0</ns3:atemp>
          </ns3:TrackPointExtension>
        </extensions>
      </trkpt>
      <trkpt lat="46.7352717183530330657958984375" lon="6.8388995714485645294189453125">
        <ele>544.5999755859375</ele>
        <time>2013-09-01T15:25:34.000Z</time>
        <extensions>
          <ns3:TrackPointExtension>
            <ns3:atemp>16.0</ns3:atemp>
          </ns3:TrackPointExtension>
        </extensions>
      </trkpt>
      <trkpt lat="46.73522536642849445343017578125" lon="6.8388714082539081573486328125">
        <ele>544.5999755859375</ele>
        <time>2013-09-01T15:25:35.000Z</time>
        <extensions>
          <ns3:TrackPointExtension>
            <ns3:atemp>16.0</ns3:atemp>
          </ns3:TrackPointExtension>
        </extensions>
      </trkpt>
      <trkpt lat="46.735134422779083251953125" lon="6.838818602263927459716796875">
        <ele>544.79998779296875</ele>
        <time>2013-09-01T15:25:37.000Z</time>
        <extensions>
          <ns3:TrackPointExtension>
            <ns3:atemp>16.0</ns3:atemp>
          </ns3:TrackPointExtension>
        </extensions>
      </trkpt>
      <trkpt lat="46.73508019186556339263916015625" lon="6.83878633193671703338623046875">
        <ele>544.79998779296875</ele>
        <time>2013-09-01T15:25:38.000Z</time>
        <extensions>
          <ns3:TrackPointExtension>
            <ns3:atemp>16.0</ns3:atemp>
          </ns3:TrackPointExtension>
        </extensions>
      </trkpt>
      <trkpt lat="46.73502520658075809478759765625" lon="6.838756240904331207275390625">
        <ele>544.79998779296875</ele>
        <time>2013-09-01T15:25:39.000Z</time>
        <extensions>
          <ns3:TrackPointExtension>
            <ns3:atemp>16.0</ns3:atemp>
          </ns3:TrackPointExtension>
        </extensions>
      </trkpt>
      <trkpt lat="46.73497055657207965850830078125" lon="6.83872195892035961151123046875">
        <ele>544.79998779296875</ele>
        <time>2013-09-01T15:25:40.000Z</time>
        <extensions>
          <ns3:TrackPointExtension>
            <ns3:atemp>16.0</ns3:atemp>
          </ns3:TrackPointExtension>
        </extensions>
      </trkpt>
      <trkpt lat="46.7349136434495449066162109375" lon="6.83868859894573688507080078125">
        <ele>544.79998779296875</ele>
        <time>2013-09-01T15:25:41.000Z</time>
        <extensions>
          <ns3:TrackPointExtension>
            <ns3:atemp>16.0</ns3:atemp>
          </ns3:TrackPointExtension>
        </extensions>
      </trkpt>
      <trkpt lat="46.734855137765407562255859375" lon="6.83865440078079700469970703125">
        <ele>544.79998779296875</ele>
        <time>2013-09-01T15:25:42.000Z</time>
        <extensions>
          <ns3:TrackPointExtension>
            <ns3:atemp>16.0</ns3:atemp>
          </ns3:TrackPointExtension>
        </extensions>
      </trkpt>
      <trkpt lat="46.7347989790141582489013671875" lon="6.83861307799816131591796875">
        <ele>545</ele>
        <time>2013-09-01T15:25:43.000Z</time>
        <extensions>
          <ns3:TrackPointExtension>
            <ns3:atemp>16.0</ns3:atemp>
          </ns3:TrackPointExtension>
        </extensions>
      </trkpt>
      <trkpt lat="46.73473955132067203521728515625" lon="6.83858047239482402801513671875">
        <ele>545.20001220703125</ele>
        <time>2013-09-01T15:25:44.000Z</time>
        <extensions>
          <ns3:TrackPointExtension>
            <ns3:atemp>16.0</ns3:atemp>
          </ns3:TrackPointExtension>
        </extensions>
      </trkpt>
      <trkpt lat="46.734683811664581298828125" lon="6.8385368026793003082275390625">
        <ele>545.20001220703125</ele>
        <time>2013-09-01T15:25:45.000Z</time>
        <extensions>
          <ns3:TrackPointExtension>
            <ns3:atemp>16.0</ns3:atemp>
          </ns3:TrackPointExtension>
        </extensions>
      </trkpt>
      <trkpt lat="46.73462555743753910064697265625" lon="6.83848374523222446441650390625">
        <ele>545.4000244140625</ele>
        <time>2013-09-01T15:25:46.000Z</time>
        <extensions>
          <ns3:TrackPointExtension>
            <ns3:atemp>16.0</ns3:atemp>
          </ns3:TrackPointExtension>
        </extensions>
      </trkpt>
      <trkpt lat="46.73457073979079723358154296875" lon="6.83842674829065799713134765625">
        <ele>545.20001220703125</ele>
        <time>2013-09-01T15:25:47.000Z</time>
        <extensions>
          <ns3:TrackPointExtension>
            <ns3:atemp>16.0</ns3:atemp>
          </ns3:TrackPointExtension>
        </extensions>
      </trkpt>
      <trkpt lat="46.73451575450599193572998046875" lon="6.83835986070334911346435546875">
        <ele>545</ele>
        <time>2013-09-01T15:25:48.000Z</time>
        <extensions>
          <ns3:TrackPointExtension>
            <ns3:atemp>16.0</ns3:atemp>
          </ns3:TrackPointExtension>
        </extensions>
      </trkpt>
      <trkpt lat="46.734458170831203460693359375" lon="6.83830487541854381561279296875">
        <ele>544.79998779296875</ele>
        <time>2013-09-01T15:25:49.000Z</time>
        <extensions>
          <ns3:TrackPointExtension>
            <ns3:atemp>16.0</ns3:atemp>
          </ns3:TrackPointExtension>
        </extensions>
      </trkpt>
      <trkpt lat="46.73440377227962017059326171875" lon="6.83824201114475727081298828125">
        <ele>544.5999755859375</ele>
        <time>2013-09-01T15:25:50.000Z</time>
        <extensions>
          <ns3:TrackPointExtension>
            <ns3:atemp>16.0</ns3:atemp>
          </ns3:TrackPointExtension>
        </extensions>
      </trkpt>
      <trkpt lat="46.73434744589030742645263671875" lon="6.8381740339100360870361328125">
        <ele>544.5999755859375</ele>
        <time>2013-09-01T15:25:51.000Z</time>
        <extensions>
          <ns3:TrackPointExtension>
            <ns3:atemp>16.0</ns3:atemp>
          </ns3:TrackPointExtension>
        </extensions>
      </trkpt>
      <trkpt lat="46.7342890240252017974853515625" lon="6.83811058290302753448486328125">
        <ele>544.20001220703125</ele>
        <time>2013-09-01T15:25:52.000Z</time>
        <extensions>
          <ns3:TrackPointExtension>
            <ns3:atemp>16.0</ns3:atemp>
          </ns3:TrackPointExtension>
        </extensions>
      </trkpt>
      <trkpt lat="46.73422942869365215301513671875" lon="6.8380451202392578125">
        <ele>544.20001220703125</ele>
        <time>2013-09-01T15:25:53.000Z</time>
        <extensions>
          <ns3:TrackPointExtension>
            <ns3:atemp>16.0</ns3:atemp>
          </ns3:TrackPointExtension>
        </extensions>
      </trkpt>
      <trkpt lat="46.734167151153087615966796875" lon="6.8379809148609638214111328125">
        <ele>544.20001220703125</ele>
        <time>2013-09-01T15:25:54.000Z</time>
        <extensions>
          <ns3:TrackPointExtension>
            <ns3:atemp>16.0</ns3:atemp>
          </ns3:TrackPointExtension>
        </extensions>
      </trkpt>
      <trkpt lat="46.734108142554759979248046875" lon="6.837918721139430999755859375">
        <ele>544.20001220703125</ele>
        <time>2013-09-01T15:25:55.000Z</time>
        <extensions>
          <ns3:TrackPointExtension>
            <ns3:atemp>16.0</ns3:atemp>
          </ns3:TrackPointExtension>
        </extensions>
      </trkpt>
      <trkpt lat="46.7340519838035106658935546875" lon="6.83785133063793182373046875">
        <ele>544.20001220703125</ele>
        <time>2013-09-01T15:25:56.000Z</time>
        <extensions>
          <ns3:TrackPointExtension>
            <ns3:atemp>16.0</ns3:atemp>
          </ns3:TrackPointExtension>
        </extensions>
      </trkpt>
      <trkpt lat="46.733998842537403106689453125" lon="6.837793998420238494873046875">
        <ele>544.4000244140625</ele>
        <time>2013-09-01T15:25:57.000Z</time>
        <extensions>
          <ns3:TrackPointExtension>
            <ns3:atemp>16.0</ns3:atemp>
          </ns3:TrackPointExtension>
        </extensions>
      </trkpt>
      <trkpt lat="46.73394477926194667816162109375" lon="6.837739013135433197021484375">
        <ele>544.4000244140625</ele>
        <time>2013-09-01T15:25:58.000Z</time>
        <extensions>
          <ns3:TrackPointExtension>
            <ns3:atemp>16.0</ns3:atemp>
          </ns3:TrackPointExtension>
        </extensions>
      </trkpt>
      <trkpt lat="46.7338940687477588653564453125" lon="6.83768570423126220703125">
        <ele>544.5999755859375</ele>
        <time>2013-09-01T15:25:59.000Z</time>
        <extensions>
          <ns3:TrackPointExtension>
            <ns3:atemp>16.0</ns3:atemp>
          </ns3:TrackPointExtension>
        </extensions>
      </trkpt>
      <trkpt lat="46.733843944966793060302734375" lon="6.837633736431598663330078125">
        <ele>544.4000244140625</ele>
        <time>2013-09-01T15:26:00.000Z</time>
        <extensions>
          <ns3:TrackPointExtension>
            <ns3:atemp>16.0</ns3:atemp>
          </ns3:TrackPointExtension>
        </extensions>
      </trkpt>
      <trkpt lat="46.73379600048065185546875" lon="6.8375812657177448272705078125">
        <ele>544.4000244140625</ele>
        <time>2013-09-01T15:26:01.000Z</time>
        <extensions>
          <ns3:TrackPointExtension>
            <ns3:atemp>16.0</ns3:atemp>
          </ns3:TrackPointExtension>
        </extensions>
      </trkpt>
      <trkpt lat="46.73375098966062068939208984375" lon="6.837533153593540191650390625">
        <ele>544</ele>
        <time>2013-09-01T15:26:02.000Z</time>
        <extensions>
          <ns3:TrackPointExtension>
            <ns3:atemp>16.0</ns3:atemp>
          </ns3:TrackPointExtension>
        </extensions>
      </trkpt>
      <trkpt lat="46.73370807431638240814208984375" lon="6.837486885488033294677734375">
        <ele>543.79998779296875</ele>
        <time>2013-09-01T15:26:03.000Z</time>
        <extensions>
          <ns3:TrackPointExtension>
            <ns3:atemp>16.0</ns3:atemp>
          </ns3:TrackPointExtension>
        </extensions>
      </trkpt>
      <trkpt lat="46.7336630634963512420654296875" lon="6.837447322905063629150390625">
        <ele>543.79998779296875</ele>
        <time>2013-09-01T15:26:04.000Z</time>
        <extensions>
          <ns3:TrackPointExtension>
            <ns3:atemp>16.0</ns3:atemp>
          </ns3:TrackPointExtension>
        </extensions>
      </trkpt>
      <trkpt lat="46.73361989669501781463623046875" lon="6.83740784414112567901611328125">
        <ele>544</ele>
        <time>2013-09-01T15:26:05.000Z</time>
        <extensions>
          <ns3:TrackPointExtension>
            <ns3:atemp>16.0</ns3:atemp>
          </ns3:TrackPointExtension>
        </extensions>
      </trkpt>
      <trkpt lat="46.73357865773141384124755859375" lon="6.83736710809171199798583984375">
        <ele>544.20001220703125</ele>
        <time>2013-09-01T15:26:06.000Z</time>
        <extensions>
          <ns3:TrackPointExtension>
            <ns3:atemp>16.0</ns3:atemp>
          </ns3:TrackPointExtension>
        </extensions>
      </trkpt>
      <trkpt lat="46.7335369996726512908935546875" lon="6.83732695877552032470703125">
        <ele>544.4000244140625</ele>
        <time>2013-09-01T15:26:07.000Z</time>
        <extensions>
          <ns3:TrackPointExtension>
            <ns3:atemp>16.0</ns3:atemp>
          </ns3:TrackPointExtension>
        </extensions>
      </trkpt>
      <trkpt lat="46.73350028693675994873046875" lon="6.83729066513478755950927734375">
        <ele>544.5999755859375</ele>
        <time>2013-09-01T15:26:08.000Z</time>
        <extensions>
          <ns3:TrackPointExtension>
            <ns3:atemp>16.0</ns3:atemp>
          </ns3:TrackPointExtension>
        </extensions>
      </trkpt>
      <trkpt lat="46.733457706868648529052734375" lon="6.8372667767107486724853515625">
        <ele>544.79998779296875</ele>
        <time>2013-09-01T15:26:09.000Z</time>
        <extensions>
          <ns3:TrackPointExtension>
            <ns3:atemp>16.0</ns3:atemp>
          </ns3:TrackPointExtension>
        </extensions>
      </trkpt>
      <trkpt lat="46.7334102652966976165771484375" lon="6.83727306313812732696533203125">
        <ele>545</ele>
        <time>2013-09-01T15:26:10.000Z</time>
        <extensions>
          <ns3:TrackPointExtension>
            <ns3:atemp>16.0</ns3:atemp>
          </ns3:TrackPointExtension>
        </extensions>
      </trkpt>
      <trkpt lat="46.7333633266389369964599609375" lon="6.83730793185532093048095703125">
        <ele>545</ele>
        <time>2013-09-01T15:26:11.000Z</time>
        <extensions>
          <ns3:TrackPointExtension>
            <ns3:atemp>16.0</ns3:atemp>
          </ns3:TrackPointExtension>
        </extensions>
      </trkpt>
      <trkpt lat="46.7333153821527957916259765625" lon="6.83734028600156307220458984375">
        <ele>545.20001220703125</ele>
        <time>2013-09-01T15:26:12.000Z</time>
        <extensions>
          <ns3:TrackPointExtension>
            <ns3:atemp>16.0</ns3:atemp>
          </ns3:TrackPointExtension>
        </extensions>
      </trkpt>
      <trkpt lat="46.733280010521411895751953125" lon="6.83738730847835540771484375">
        <ele>545.4000244140625</ele>
        <time>2013-09-01T15:26:13.000Z</time>
        <extensions>
          <ns3:TrackPointExtension>
            <ns3:atemp>16.0</ns3:atemp>
          </ns3:TrackPointExtension>
        </extensions>
      </trkpt>
      <trkpt lat="46.73326500691473484039306640625" lon="6.837468780577182769775390625">
        <ele>545.5999755859375</ele>
        <time>2013-09-01T15:26:14.000Z</time>
        <extensions>
          <ns3:TrackPointExtension>
            <ns3:atemp>16.0</ns3:atemp>
          </ns3:TrackPointExtension>
        </extensions>
      </trkpt>
      <trkpt lat="46.73325830139219760894775390625" lon="6.83754614554345607757568359375">
        <ele>545.79998779296875</ele>
        <time>2013-09-01T15:26:15.000Z</time>
        <extensions>
          <ns3:TrackPointExtension>
            <ns3:atemp>16.0</ns3:atemp>
          </ns3:TrackPointExtension>
        </extensions>
      </trkpt>
      <trkpt lat="46.73325427807867527008056640625" lon="6.8376241810619831085205078125">
        <ele>546</ele>
        <time>2013-09-01T15:26:16.000Z</time>
        <extensions>
          <ns3:TrackPointExtension>
            <ns3:atemp>16.0</ns3:atemp>
          </ns3:TrackPointExtension>
        </extensions>
      </trkpt>
      <trkpt lat="46.73324723728001117706298828125" lon="6.837704814970493316650390625">
        <ele>546.4000244140625</ele>
        <time>2013-09-01T15:26:17.000Z</time>
        <extensions>
          <ns3:TrackPointExtension>
            <ns3:atemp>16.0</ns3:atemp>
          </ns3:TrackPointExtension>
        </extensions>
      </trkpt>
      <trkpt lat="46.73323952592909336090087890625" lon="6.83778016828000545501708984375">
        <ele>546.4000244140625</ele>
        <time>2013-09-01T15:26:18.000Z</time>
        <extensions>
          <ns3:TrackPointExtension>
            <ns3:atemp>16.0</ns3:atemp>
          </ns3:TrackPointExtension>
        </extensions>
      </trkpt>
      <trkpt lat="46.73323684372007846832275390625" lon="6.837859041988849639892578125">
        <ele>546.5999755859375</ele>
        <time>2013-09-01T15:26:19.000Z</time>
        <extensions>
          <ns3:TrackPointExtension>
            <ns3:atemp>16.0</ns3:atemp>
          </ns3:TrackPointExtension>
        </extensions>
      </trkpt>
      <trkpt lat="46.7332359217107295989990234375" lon="6.83793456293642520904541015625">
        <ele>546.5999755859375</ele>
        <time>2013-09-01T15:26:20.000Z</time>
        <extensions>
          <ns3:TrackPointExtension>
            <ns3:atemp>16.0</ns3:atemp>
          </ns3:TrackPointExtension>
        </extensions>
      </trkpt>
      <trkpt lat="46.73323533497750759124755859375" lon="6.83800681494176387786865234375">
        <ele>546.79998779296875</ele>
        <time>2013-09-01T15:26:21.000Z</time>
        <extensions>
          <ns3:TrackPointExtension>
            <ns3:atemp>16.0</ns3:atemp>
          </ns3:TrackPointExtension>
        </extensions>
      </trkpt>
      <trkpt lat="46.7332349158823490142822265625" lon="6.83807034976780414581298828125">
        <ele>547</ele>
        <time>2013-09-01T15:26:22.000Z</time>
        <extensions>
          <ns3:TrackPointExtension>
            <ns3:atemp>16.0</ns3:atemp>
          </ns3:TrackPointExtension>
        </extensions>
      </trkpt>
      <trkpt lat="46.7332406155765056610107421875" lon="6.838131956756114959716796875">
        <ele>547.4000244140625</ele>
        <time>2013-09-01T15:26:23.000Z</time>
        <extensions>
          <ns3:TrackPointExtension>
            <ns3:atemp>16.0</ns3:atemp>
          </ns3:TrackPointExtension>
        </extensions>
      </trkpt>
      <trkpt lat="46.73324740491807460784912109375" lon="6.83819490484893321990966796875">
        <ele>547.79998779296875</ele>
        <time>2013-09-01T15:26:24.000Z</time>
        <extensions>
          <ns3:TrackPointExtension>
            <ns3:atemp>16.0</ns3:atemp>
          </ns3:TrackPointExtension>
        </extensions>
      </trkpt>
      <trkpt lat="46.733256876468658447265625" lon="6.83825760148465633392333984375">
        <ele>548</ele>
        <time>2013-09-01T15:26:25.000Z</time>
        <extensions>
          <ns3:TrackPointExtension>
            <ns3:atemp>16.0</ns3:atemp>
          </ns3:TrackPointExtension>
        </extensions>
      </trkpt>
      <trkpt lat="46.73327188007533550262451171875" lon="6.83831275440752506256103515625">
        <ele>548.4000244140625</ele>
        <time>2013-09-01T15:26:26.000Z</time>
        <extensions>
          <ns3:TrackPointExtension>
            <ns3:atemp>16.0</ns3:atemp>
          </ns3:TrackPointExtension>
        </extensions>
      </trkpt>
      <trkpt lat="46.73329300247132778167724609375" lon="6.83836505748331546783447265625">
        <ele>548.5999755859375</ele>
        <time>2013-09-01T15:26:27.000Z</time>
        <extensions>
          <ns3:TrackPointExtension>
            <ns3:atemp>16.0</ns3:atemp>
          </ns3:TrackPointExtension>
        </extensions>
      </trkpt>
      <trkpt lat="46.7333214171230792999267578125" lon="6.83841451071202754974365234375">
        <ele>548.79998779296875</ele>
        <time>2013-09-01T15:26:28.000Z</time>
        <extensions>
          <ns3:TrackPointExtension>
            <ns3:atemp>16.0</ns3:atemp>
          </ns3:TrackPointExtension>
        </extensions>
      </trkpt>
      <trkpt lat="46.73334144987165927886962890625" lon="6.83846614323556423187255859375">
        <ele>549</ele>
        <time>2013-09-01T15:26:29.000Z</time>
        <extensions>
          <ns3:TrackPointExtension>
            <ns3:atemp>16.0</ns3:atemp>
          </ns3:TrackPointExtension>
        </extensions>
      </trkpt>
      <trkpt lat="46.73335603438317775726318359375" lon="6.83851911686360836029052734375">
        <ele>549.20001220703125</ele>
        <time>2013-09-01T15:26:30.000Z</time>
        <extensions>
          <ns3:TrackPointExtension>
            <ns3:atemp>16.0</ns3:atemp>
          </ns3:TrackPointExtension>
        </extensions>
      </trkpt>
      <trkpt lat="46.73337019979953765869140625" lon="6.83857552707195281982421875">
        <ele>549.4000244140625</ele>
        <time>2013-09-01T15:26:31.000Z</time>
        <extensions>
          <ns3:TrackPointExtension>
            <ns3:atemp>16.0</ns3:atemp>
          </ns3:TrackPointExtension>
        </extensions>
      </trkpt>
      <trkpt lat="46.7333888076245784759521484375" lon="6.83862439356744289398193359375">
        <ele>549.4000244140625</ele>
        <time>2013-09-01T15:26:32.000Z</time>
        <extensions>
          <ns3:TrackPointExtension>
            <ns3:atemp>16.0</ns3:atemp>
          </ns3:TrackPointExtension>
        </extensions>
      </trkpt>
      <trkpt lat="46.733409427106380462646484375" lon="6.83867149986326694488525390625">
        <ele>549.4000244140625</ele>
        <time>2013-09-01T15:26:33.000Z</time>
        <extensions>
          <ns3:TrackPointExtension>
            <ns3:atemp>16.0</ns3:atemp>
          </ns3:TrackPointExtension>
        </extensions>
      </trkpt>
      <trkpt lat="46.73343264497816562652587890625" lon="6.83871592395007610321044921875">
        <ele>549.5999755859375</ele>
        <time>2013-09-01T15:26:34.000Z</time>
        <extensions>
          <ns3:TrackPointExtension>
            <ns3:atemp>16.0</ns3:atemp>
          </ns3:TrackPointExtension>
        </extensions>
      </trkpt>
      <trkpt lat="46.7334575392305850982666015625" lon="6.83876034803688526153564453125">
        <ele>549.5999755859375</ele>
        <time>2013-09-01T15:26:35.000Z</time>
        <extensions>
          <ns3:TrackPointExtension>
            <ns3:atemp>16.0</ns3:atemp>
          </ns3:TrackPointExtension>
        </extensions>
      </trkpt>
      <trkpt lat="46.7334806732833385467529296875" lon="6.8388087116181850433349609375">
        <ele>549.79998779296875</ele>
        <time>2013-09-01T15:26:36.000Z</time>
        <extensions>
          <ns3:TrackPointExtension>
            <ns3:atemp>16.0</ns3:atemp>
          </ns3:TrackPointExtension>
        </extensions>
      </trkpt>
      <trkpt lat="46.733502633869647979736328125" lon="6.83885841630399227142333984375">
        <ele>550</ele>
        <time>2013-09-01T15:26:37.000Z</time>
        <extensions>
          <ns3:TrackPointExtension>
            <ns3:atemp>16.0</ns3:atemp>
          </ns3:TrackPointExtension>
        </extensions>
      </trkpt>
      <trkpt lat="46.7335245944559574127197265625" lon="6.8389062769711017608642578125">
        <ele>550.4000244140625</ele>
        <time>2013-09-01T15:26:38.000Z</time>
        <extensions>
          <ns3:TrackPointExtension>
            <ns3:atemp>16.0</ns3:atemp>
          </ns3:TrackPointExtension>
        </extensions>
      </trkpt>
      <trkpt lat="46.733548901975154876708984375" lon="6.83895246125757694244384765625">
        <ele>550.5999755859375</ele>
        <time>2013-09-01T15:26:39.000Z</time>
        <extensions>
          <ns3:TrackPointExtension>
            <ns3:atemp>16.0</ns3:atemp>
          </ns3:TrackPointExtension>
        </extensions>
      </trkpt>
      <trkpt lat="46.733579076826572418212890625" lon="6.83900124393403530120849609375">
        <ele>550.79998779296875</ele>
        <time>2013-09-01T15:26:40.000Z</time>
        <extensions>
          <ns3:TrackPointExtension>
            <ns3:atemp>16.0</ns3:atemp>
          </ns3:TrackPointExtension>
        </extensions>
      </trkpt>
      <trkpt lat="46.73360489308834075927734375" lon="6.839049942791461944580078125">
        <ele>550.79998779296875</ele>
        <time>2013-09-01T15:26:41.000Z</time>
        <extensions>
          <ns3:TrackPointExtension>
            <ns3:atemp>16.0</ns3:atemp>
          </ns3:TrackPointExtension>
        </extensions>
      </trkpt>
      <trkpt lat="46.73363079316914081573486328125" lon="6.83909864164888858795166015625">
        <ele>551</ele>
        <time>2013-09-01T15:26:42.000Z</time>
        <extensions>
          <ns3:TrackPointExtension>
            <ns3:atemp>16.0</ns3:atemp>
          </ns3:TrackPointExtension>
        </extensions>
      </trkpt>
      <trkpt lat="46.73365426249802112579345703125" lon="6.83914658613502979278564453125">
        <ele>551</ele>
        <time>2013-09-01T15:26:43.000Z</time>
        <extensions>
          <ns3:TrackPointExtension>
            <ns3:atemp>16.0</ns3:atemp>
          </ns3:TrackPointExtension>
        </extensions>
      </trkpt>
      <trkpt lat="46.73367538489401340484619140625" lon="6.83919704519212245941162109375">
        <ele>551.4000244140625</ele>
        <time>2013-09-01T15:26:44.000Z</time>
        <extensions>
          <ns3:TrackPointExtension>
            <ns3:atemp>16.0</ns3:atemp>
          </ns3:TrackPointExtension>
        </extensions>
      </trkpt>
      <trkpt lat="46.73369617201387882232666015625" lon="6.83924716897308826446533203125">
        <ele>551.79998779296875</ele>
        <time>2013-09-01T15:26:45.000Z</time>
        <extensions>
          <ns3:TrackPointExtension>
            <ns3:atemp>16.0</ns3:atemp>
          </ns3:TrackPointExtension>
        </extensions>
      </trkpt>
      <trkpt lat="46.73371612094342708587646484375" lon="6.839297376573085784912109375">
        <ele>552</ele>
        <time>2013-09-01T15:26:46.000Z</time>
        <extensions>
          <ns3:TrackPointExtension>
            <ns3:atemp>16.0</ns3:atemp>
          </ns3:TrackPointExtension>
        </extensions>
      </trkpt>
      <trkpt lat="46.7337344773113727569580078125" lon="6.8393505178391933441162109375">
        <ele>552.20001220703125</ele>
        <time>2013-09-01T15:26:47.000Z</time>
        <extensions>
          <ns3:TrackPointExtension>
            <ns3:atemp>16.0</ns3:atemp>
          </ns3:TrackPointExtension>
        </extensions>
      </trkpt>
      <trkpt lat="46.73375132493674755096435546875" lon="6.839404664933681488037109375">
        <ele>552.4000244140625</ele>
        <time>2013-09-01T15:26:48.000Z</time>
        <extensions>
          <ns3:TrackPointExtension>
            <ns3:atemp>16.0</ns3:atemp>
          </ns3:TrackPointExtension>
        </extensions>
      </trkpt>
      <trkpt lat="46.7337669990956783294677734375" lon="6.839458979666233062744140625">
        <ele>552.5999755859375</ele>
        <time>2013-09-01T15:26:49.000Z</time>
        <extensions>
          <ns3:TrackPointExtension>
            <ns3:atemp>16.0</ns3:atemp>
          </ns3:TrackPointExtension>
        </extensions>
      </trkpt>
      <trkpt lat="46.73378401435911655426025390625" lon="6.83951036073267459869384765625">
        <ele>552.79998779296875</ele>
        <time>2013-09-01T15:26:50.000Z</time>
        <extensions>
          <ns3:TrackPointExtension>
            <ns3:atemp>16.0</ns3:atemp>
          </ns3:TrackPointExtension>
        </extensions>
      </trkpt>
      <trkpt lat="46.7337998561561107635498046875" lon="6.83956668712198734283447265625">
        <ele>553</ele>
        <time>2013-09-01T15:26:51.000Z</time>
        <extensions>
          <ns3:TrackPointExtension>
            <ns3:atemp>16.0</ns3:atemp>
          </ns3:TrackPointExtension>
        </extensions>
      </trkpt>
      <trkpt lat="46.7338146083056926727294921875" lon="6.839621923863887786865234375">
        <ele>553</ele>
        <time>2013-09-01T15:26:52.000Z</time>
        <extensions>
          <ns3:TrackPointExtension>
            <ns3:atemp>16.0</ns3:atemp>
          </ns3:TrackPointExtension>
        </extensions>
      </trkpt>
      <trkpt lat="46.73382910899817943572998046875" lon="6.839675568044185638427734375">
        <ele>553.20001220703125</ele>
        <time>2013-09-01T15:26:53.000Z</time>
        <extensions>
          <ns3:TrackPointExtension>
            <ns3:atemp>16.0</ns3:atemp>
          </ns3:TrackPointExtension>
        </extensions>
      </trkpt>
      <trkpt lat="46.73384302295744419097900390625" lon="6.83972963131964206695556640625">
        <ele>553.20001220703125</ele>
        <time>2013-09-01T15:26:54.000Z</time>
        <extensions>
          <ns3:TrackPointExtension>
            <ns3:atemp>16.0</ns3:atemp>
          </ns3:TrackPointExtension>
        </extensions>
      </trkpt>
      <trkpt lat="46.7338548414409160614013671875" lon="6.839783191680908203125">
        <ele>553.4000244140625</ele>
        <time>2013-09-01T15:26:55.000Z</time>
        <extensions>
          <ns3:TrackPointExtension>
            <ns3:atemp>16.0</ns3:atemp>
          </ns3:TrackPointExtension>
        </extensions>
      </trkpt>
      <trkpt lat="46.73386448062956333160400390625" lon="6.83983608148992061614990234375">
        <ele>553.5999755859375</ele>
        <time>2013-09-01T15:26:56.000Z</time>
        <extensions>
          <ns3:TrackPointExtension>
            <ns3:atemp>16.0</ns3:atemp>
          </ns3:TrackPointExtension>
        </extensions>
      </trkpt>
      <trkpt lat="46.7338803224265575408935546875" lon="6.8398849479854106903076171875">
        <ele>553.5999755859375</ele>
        <time>2013-09-01T15:26:57.000Z</time>
        <extensions>
          <ns3:TrackPointExtension>
            <ns3:atemp>16.0</ns3:atemp>
          </ns3:TrackPointExtension>
        </extensions>
      </trkpt>
      <trkpt lat="46.733892224729061126708984375" lon="6.83993875980377197265625">
        <ele>553.79998779296875</ele>
        <time>2013-09-01T15:26:58.000Z</time>
        <extensions>
          <ns3:TrackPointExtension>
            <ns3:atemp>16.0</ns3:atemp>
          </ns3:TrackPointExtension>
        </extensions>
      </trkpt>
      <trkpt lat="46.73390102572739124298095703125" lon="6.83999014087021350860595703125">
        <ele>554</ele>
        <time>2013-09-01T15:26:59.000Z</time>
        <extensions>
          <ns3:TrackPointExtension>
            <ns3:atemp>16.0</ns3:atemp>
          </ns3:TrackPointExtension>
        </extensions>
      </trkpt>
      <trkpt lat="46.73391158692538738250732421875" lon="6.8400395102798938751220703125">
        <ele>554.20001220703125</ele>
        <time>2013-09-01T15:27:00.000Z</time>
        <extensions>
          <ns3:TrackPointExtension>
            <ns3:atemp>16.0</ns3:atemp>
          </ns3:TrackPointExtension>
        </extensions>
      </trkpt>
      <trkpt lat="46.73392298631370067596435546875" lon="6.84008887968957424163818359375">
        <ele>554.20001220703125</ele>
        <time>2013-09-01T15:27:01.000Z</time>
        <extensions>
          <ns3:TrackPointExtension>
            <ns3:atemp>16.0</ns3:atemp>
          </ns3:TrackPointExtension>
        </extensions>
      </trkpt>
      <trkpt lat="46.73393723554909229278564453125" lon="6.84014193713665008544921875">
        <ele>554.5999755859375</ele>
        <time>2013-09-01T15:27:02.000Z</time>
        <extensions>
          <ns3:TrackPointExtension>
            <ns3:atemp>16.0</ns3:atemp>
          </ns3:TrackPointExtension>
        </extensions>
      </trkpt>
      <trkpt lat="46.733951903879642486572265625" lon="6.84018979780375957489013671875">
        <ele>554.5999755859375</ele>
        <time>2013-09-01T15:27:03.000Z</time>
        <extensions>
          <ns3:TrackPointExtension>
            <ns3:atemp>16.0</ns3:atemp>
          </ns3:TrackPointExtension>
        </extensions>
      </trkpt>
      <trkpt lat="46.73396305181086063385009765625" lon="6.8402396701276302337646484375">
        <ele>554.79998779296875</ele>
        <time>2013-09-01T15:27:04.000Z</time>
        <extensions>
          <ns3:TrackPointExtension>
            <ns3:atemp>16.0</ns3:atemp>
          </ns3:TrackPointExtension>
        </extensions>
      </trkpt>
      <trkpt lat="46.73396975733339786529541015625" lon="6.8402913026511669158935546875">
        <ele>555</ele>
        <time>2013-09-01T15:27:05.000Z</time>
        <extensions>
          <ns3:TrackPointExtension>
            <ns3:atemp>16.0</ns3:atemp>
          </ns3:TrackPointExtension>
        </extensions>
      </trkpt>
      <trkpt lat="46.73397964797914028167724609375" lon="6.84034620411694049835205078125">
        <ele>555.20001220703125</ele>
        <time>2013-09-01T15:27:06.000Z</time>
        <extensions>
          <ns3:TrackPointExtension>
            <ns3:atemp>16.0</ns3:atemp>
          </ns3:TrackPointExtension>
        </extensions>
      </trkpt>
      <trkpt lat="46.7339902929961681365966796875" lon="6.84040336869657039642333984375">
        <ele>555.20001220703125</ele>
        <time>2013-09-01T15:27:07.000Z</time>
        <extensions>
          <ns3:TrackPointExtension>
            <ns3:atemp>16.0</ns3:atemp>
          </ns3:TrackPointExtension>
        </extensions>
      </trkpt>
      <trkpt lat="46.734002865850925445556640625" lon="6.840462125837802886962890625">
        <ele>555.4000244140625</ele>
        <time>2013-09-01T15:27:08.000Z</time>
        <extensions>
          <ns3:TrackPointExtension>
            <ns3:atemp>16.0</ns3:atemp>
          </ns3:TrackPointExtension>
        </extensions>
      </trkpt>
      <trkpt lat="46.7340144328773021697998046875" lon="6.8405223079025745391845703125">
        <ele>555.5999755859375</ele>
        <time>2013-09-01T15:27:09.000Z</time>
        <extensions>
          <ns3:TrackPointExtension>
            <ns3:atemp>16.0</ns3:atemp>
          </ns3:TrackPointExtension>
        </extensions>
      </trkpt>
      <trkpt lat="46.73402599990367889404296875" lon="6.84058257378637790679931640625">
        <ele>555.79998779296875</ele>
        <time>2013-09-01T15:27:10.000Z</time>
        <extensions>
          <ns3:TrackPointExtension>
            <ns3:atemp>16.0</ns3:atemp>
          </ns3:TrackPointExtension>
        </extensions>
      </trkpt>
      <trkpt lat="46.734027676284313201904296875" lon="6.8406379781663417816162109375">
        <ele>556</ele>
        <time>2013-09-01T15:27:11.000Z</time>
        <extensions>
          <ns3:TrackPointExtension>
            <ns3:atemp>16.0</ns3:atemp>
          </ns3:TrackPointExtension>
        </extensions>
      </trkpt>
      <trkpt lat="46.73403195105493068695068359375" lon="6.84069841168820858001708984375">
        <ele>556</ele>
        <time>2013-09-01T15:27:12.000Z</time>
        <extensions>
          <ns3:TrackPointExtension>
            <ns3:atemp>16.0</ns3:atemp>
          </ns3:TrackPointExtension>
        </extensions>
      </trkpt>
      <trkpt lat="46.73403681255877017974853515625" lon="6.8407637067139148712158203125">
        <ele>556</ele>
        <time>2013-09-01T15:27:13.000Z</time>
        <extensions>
          <ns3:TrackPointExtension>
            <ns3:atemp>16.0</ns3:atemp>
          </ns3:TrackPointExtension>
        </extensions>
      </trkpt>
      <trkpt lat="46.73405189998447895050048828125" lon="6.84083654545247554779052734375">
        <ele>556</ele>
        <time>2013-09-01T15:27:14.000Z</time>
        <extensions>
          <ns3:TrackPointExtension>
            <ns3:atemp>16.0</ns3:atemp>
          </ns3:TrackPointExtension>
        </extensions>
      </trkpt>
      <trkpt lat="46.73406413756310939788818359375" lon="6.84090795926749706268310546875">
        <ele>556</ele>
        <time>2013-09-01T15:27:15.000Z</time>
        <extensions>
          <ns3:TrackPointExtension>
            <ns3:atemp>16.0</ns3:atemp>
          </ns3:TrackPointExtension>
        </extensions>
      </trkpt>
      <trkpt lat="46.73408375121653079986572265625" lon="6.84098456986248493194580078125">
        <ele>556</ele>
        <time>2013-09-01T15:27:16.000Z</time>
        <extensions>
          <ns3:TrackPointExtension>
            <ns3:atemp>16.0</ns3:atemp>
          </ns3:TrackPointExtension>
        </extensions>
      </trkpt>
      <trkpt lat="46.7341052927076816558837890625" lon="6.8410621024668216705322265625">
        <ele>556</ele>
        <time>2013-09-01T15:27:17.000Z</time>
        <extensions>
          <ns3:TrackPointExtension>
            <ns3:atemp>16.0</ns3:atemp>
          </ns3:TrackPointExtension>
        </extensions>
      </trkpt>
      <trkpt lat="46.7341334559023380279541015625" lon="6.841130666434764862060546875">
        <ele>556</ele>
        <time>2013-09-01T15:27:18.000Z</time>
        <extensions>
          <ns3:TrackPointExtension>
            <ns3:atemp>16.0</ns3:atemp>
          </ns3:TrackPointExtension>
        </extensions>
      </trkpt>
      <trkpt lat="46.73416488803923130035400390625" lon="6.8411958776414394378662109375">
        <ele>556</ele>
        <time>2013-09-01T15:27:19.000Z</time>
        <extensions>
          <ns3:TrackPointExtension>
            <ns3:atemp>16.0</ns3:atemp>
          </ns3:TrackPointExtension>
        </extensions>
      </trkpt>
      <trkpt lat="46.73419338651001453399658203125" lon="6.84126569889485836029052734375">
        <ele>556</ele>
        <time>2013-09-01T15:27:20.000Z</time>
        <extensions>
          <ns3:TrackPointExtension>
            <ns3:atemp>16.0</ns3:atemp>
          </ns3:TrackPointExtension>
        </extensions>
      </trkpt>
      <trkpt lat="46.73422171734273433685302734375" lon="6.84133292175829410552978515625">
        <ele>556.20001220703125</ele>
        <time>2013-09-01T15:27:21.000Z</time>
        <extensions>
          <ns3:TrackPointExtension>
            <ns3:atemp>16.0</ns3:atemp>
          </ns3:TrackPointExtension>
        </extensions>
      </trkpt>
      <trkpt lat="46.73425306566059589385986328125" lon="6.841396875679492950439453125">
        <ele>556.20001220703125</ele>
        <time>2013-09-01T15:27:22.000Z</time>
        <extensions>
          <ns3:TrackPointExtension>
            <ns3:atemp>16.0</ns3:atemp>
          </ns3:TrackPointExtension>
        </extensions>
      </trkpt>
      <trkpt lat="46.73428206704556941986083984375" lon="6.84146024286746978759765625">
        <ele>556.20001220703125</ele>
        <time>2013-09-01T15:27:23.000Z</time>
        <extensions>
          <ns3:TrackPointExtension>
            <ns3:atemp>16.0</ns3:atemp>
          </ns3:TrackPointExtension>
        </extensions>
      </trkpt>
      <trkpt lat="46.7343155108392238616943359375" lon="6.8415279686450958251953125">
        <ele>556.20001220703125</ele>
        <time>2013-09-01T15:27:24.000Z</time>
        <extensions>
          <ns3:TrackPointExtension>
            <ns3:atemp>16.0</ns3:atemp>
          </ns3:TrackPointExtension>
        </extensions>
      </trkpt>
      <trkpt lat="46.734358258545398712158203125" lon="6.84158672578632831573486328125">
        <ele>556.4000244140625</ele>
        <time>2013-09-01T15:27:25.000Z</time>
        <extensions>
          <ns3:TrackPointExtension>
            <ns3:atemp>16.0</ns3:atemp>
          </ns3:TrackPointExtension>
        </extensions>
      </trkpt>
      <trkpt lat="46.73439639620482921600341796875" lon="6.8416531942784786224365234375">
        <ele>556.4000244140625</ele>
        <time>2013-09-01T15:27:26.000Z</time>
        <extensions>
          <ns3:TrackPointExtension>
            <ns3:atemp>16.0</ns3:atemp>
          </ns3:TrackPointExtension>
        </extensions>
      </trkpt>
      <trkpt lat="46.73443771898746490478515625" lon="6.84171999804675579071044921875">
        <ele>556.5999755859375</ele>
        <time>2013-09-01T15:27:27.000Z</time>
        <extensions>
          <ns3:TrackPointExtension>
            <ns3:atemp>16.0</ns3:atemp>
          </ns3:TrackPointExtension>
        </extensions>
      </trkpt>
      <trkpt lat="46.734476946294307708740234375" lon="6.84178018011152744293212890625">
        <ele>556.5999755859375</ele>
        <time>2013-09-01T15:27:28.000Z</time>
        <extensions>
          <ns3:TrackPointExtension>
            <ns3:atemp>16.0</ns3:atemp>
          </ns3:TrackPointExtension>
        </extensions>
      </trkpt>
      <trkpt lat="46.7345206998288631439208984375" lon="6.8418386019766330718994140625">
        <ele>556.5999755859375</ele>
        <time>2013-09-01T15:27:29.000Z</time>
        <extensions>
          <ns3:TrackPointExtension>
            <ns3:atemp>16.0</ns3:atemp>
          </ns3:TrackPointExtension>
        </extensions>
      </trkpt>
      <trkpt lat="46.7345662973821163177490234375" lon="6.841899119317531585693359375">
        <ele>556.5999755859375</ele>
        <time>2013-09-01T15:27:30.000Z</time>
        <extensions>
          <ns3:TrackPointExtension>
            <ns3:atemp>16.0</ns3:atemp>
          </ns3:TrackPointExtension>
        </extensions>
      </trkpt>
      <trkpt lat="46.73461348749697208404541015625" lon="6.84195871464908123016357421875">
        <ele>556.79998779296875</ele>
        <time>2013-09-01T15:27:31.000Z</time>
        <extensions>
          <ns3:TrackPointExtension>
            <ns3:atemp>16.0</ns3:atemp>
          </ns3:TrackPointExtension>
        </extensions>
      </trkpt>
      <trkpt lat="46.7346541397273540496826171875" lon="6.84202191419899463653564453125">
        <ele>556.79998779296875</ele>
        <time>2013-09-01T15:27:32.000Z</time>
        <extensions>
          <ns3:TrackPointExtension>
            <ns3:atemp>16.0</ns3:atemp>
          </ns3:TrackPointExtension>
        </extensions>
      </trkpt>
      <trkpt lat="46.73469244502484798431396484375" lon="6.84208611957728862762451171875">
        <ele>557</ele>
        <time>2013-09-01T15:27:33.000Z</time>
        <extensions>
          <ns3:TrackPointExtension>
            <ns3:atemp>16.0</ns3:atemp>
          </ns3:TrackPointExtension>
        </extensions>
      </trkpt>
      <trkpt lat="46.73472748138010501861572265625" lon="6.84214764274656772613525390625">
        <ele>557.20001220703125</ele>
        <time>2013-09-01T15:27:34.000Z</time>
        <extensions>
          <ns3:TrackPointExtension>
            <ns3:atemp>16.0</ns3:atemp>
          </ns3:TrackPointExtension>
        </extensions>
      </trkpt>
      <trkpt lat="46.73475413583219051361083984375" lon="6.84222056530416011810302734375">
        <ele>557</ele>
        <time>2013-09-01T15:27:35.000Z</time>
        <extensions>
          <ns3:TrackPointExtension>
            <ns3:atemp>16.0</ns3:atemp>
          </ns3:TrackPointExtension>
        </extensions>
      </trkpt>
      <trkpt lat="46.73478682525455951690673828125" lon="6.8422855250537395477294921875">
        <ele>557</ele>
        <time>2013-09-01T15:27:36.000Z</time>
        <extensions>
          <ns3:TrackPointExtension>
            <ns3:atemp>16.0</ns3:atemp>
          </ns3:TrackPointExtension>
        </extensions>
      </trkpt>
      <trkpt lat="46.73481649719178676605224609375" lon="6.84235182590782642364501953125">
        <ele>557</ele>
        <time>2013-09-01T15:27:37.000Z</time>
        <extensions>
          <ns3:TrackPointExtension>
            <ns3:atemp>16.0</ns3:atemp>
          </ns3:TrackPointExtension>
        </extensions>
      </trkpt>
      <trkpt lat="46.73484248109161853790283203125" lon="6.84242290444672107696533203125">
        <ele>557</ele>
        <time>2013-09-01T15:27:38.000Z</time>
        <extensions>
          <ns3:TrackPointExtension>
            <ns3:atemp>16.0</ns3:atemp>
          </ns3:TrackPointExtension>
        </extensions>
      </trkpt>
      <trkpt lat="46.73486930318176746368408203125" lon="6.84250286780297756195068359375">
        <ele>557</ele>
        <time>2013-09-01T15:27:39.000Z</time>
        <extensions>
          <ns3:TrackPointExtension>
            <ns3:atemp>16.0</ns3:atemp>
          </ns3:TrackPointExtension>
        </extensions>
      </trkpt>
      <trkpt lat="46.7348928563296794891357421875" lon="6.842589117586612701416015625">
        <ele>556.79998779296875</ele>
        <time>2013-09-01T15:27:40.000Z</time>
        <extensions>
          <ns3:TrackPointExtension>
            <ns3:atemp>16.0</ns3:atemp>
          </ns3:TrackPointExtension>
        </extensions>
      </trkpt>
      <trkpt lat="46.73491523601114749908447265625" lon="6.84266849420964717864990234375">
        <ele>556.5999755859375</ele>
        <time>2013-09-01T15:27:41.000Z</time>
        <extensions>
          <ns3:TrackPointExtension>
            <ns3:atemp>16.0</ns3:atemp>
          </ns3:TrackPointExtension>
        </extensions>
      </trkpt>
      <trkpt lat="46.7349441535770893096923828125" lon="6.8427582643926143646240234375">
        <ele>556.5999755859375</ele>
        <time>2013-09-01T15:27:42.000Z</time>
        <extensions>
          <ns3:TrackPointExtension>
            <ns3:atemp>16.0</ns3:atemp>
          </ns3:TrackPointExtension>
        </extensions>
      </trkpt>
      <trkpt lat="46.73497642390429973602294921875" lon="6.84284023940563201904296875">
        <ele>556.5999755859375</ele>
        <time>2013-09-01T15:27:43.000Z</time>
        <extensions>
          <ns3:TrackPointExtension>
            <ns3:atemp>16.0</ns3:atemp>
          </ns3:TrackPointExtension>
        </extensions>
      </trkpt>
      <trkpt lat="46.7350081913173198699951171875" lon="6.84292347170412540435791015625">
        <ele>556.4000244140625</ele>
        <time>2013-09-01T15:27:44.000Z</time>
        <extensions>
          <ns3:TrackPointExtension>
            <ns3:atemp>16.0</ns3:atemp>
          </ns3:TrackPointExtension>
        </extensions>
      </trkpt>
      <trkpt lat="46.735040880739688873291015625" lon="6.84300662018358707427978515625">
        <ele>556.4000244140625</ele>
        <time>2013-09-01T15:27:45.000Z</time>
        <extensions>
          <ns3:TrackPointExtension>
            <ns3:atemp>16.0</ns3:atemp>
          </ns3:TrackPointExtension>
        </extensions>
      </trkpt>
      <trkpt lat="46.73507608473300933837890625" lon="6.8430888466536998748779296875">
        <ele>556.4000244140625</ele>
        <time>2013-09-01T15:27:46.000Z</time>
        <extensions>
          <ns3:TrackPointExtension>
            <ns3:atemp>16.0</ns3:atemp>
          </ns3:TrackPointExtension>
        </extensions>
      </trkpt>
      <trkpt lat="46.7351141385734081268310546875" lon="6.8431709893047809600830078125">
        <ele>556.5999755859375</ele>
        <time>2013-09-01T15:27:47.000Z</time>
        <extensions>
          <ns3:TrackPointExtension>
            <ns3:atemp>16.0</ns3:atemp>
          </ns3:TrackPointExtension>
        </extensions>
      </trkpt>
      <trkpt lat="46.73515059985220432281494140625" lon="6.84326092712581157684326171875">
        <ele>556.4000244140625</ele>
        <time>2013-09-01T15:27:48.000Z</time>
        <extensions>
          <ns3:TrackPointExtension>
            <ns3:atemp>16.0</ns3:atemp>
          </ns3:TrackPointExtension>
        </extensions>
      </trkpt>
      <trkpt lat="46.73518513329327106475830078125" lon="6.84334860183298587799072265625">
        <ele>556.4000244140625</ele>
        <time>2013-09-01T15:27:49.000Z</time>
        <extensions>
          <ns3:TrackPointExtension>
            <ns3:atemp>16.0</ns3:atemp>
          </ns3:TrackPointExtension>
        </extensions>
      </trkpt>
      <trkpt lat="46.73521421849727630615234375" lon="6.84343644417822360992431640625">
        <ele>556.4000244140625</ele>
        <time>2013-09-01T15:27:50.000Z</time>
        <extensions>
          <ns3:TrackPointExtension>
            <ns3:atemp>16.0</ns3:atemp>
          </ns3:TrackPointExtension>
        </extensions>
      </trkpt>
      <trkpt lat="46.73524112440645694732666015625" lon="6.84352227486670017242431640625">
        <ele>556.5999755859375</ele>
        <time>2013-09-01T15:27:51.000Z</time>
        <extensions>
          <ns3:TrackPointExtension>
            <ns3:atemp>16.0</ns3:atemp>
          </ns3:TrackPointExtension>
        </extensions>
      </trkpt>
      <trkpt lat="46.73526610247790813446044921875" lon="6.84360659681260585784912109375">
        <ele>556.5999755859375</ele>
        <time>2013-09-01T15:27:52.000Z</time>
        <extensions>
          <ns3:TrackPointExtension>
            <ns3:atemp>16.0</ns3:atemp>
          </ns3:TrackPointExtension>
        </extensions>
      </trkpt>
      <trkpt lat="46.73528538085520267486572265625" lon="6.843694187700748443603515625">
        <ele>556.4000244140625</ele>
        <time>2013-09-01T15:27:53.000Z</time>
        <extensions>
          <ns3:TrackPointExtension>
            <ns3:atemp>16.0</ns3:atemp>
          </ns3:TrackPointExtension>
        </extensions>
      </trkpt>
      <trkpt lat="46.7353059165179729461669921875" lon="6.84378244914114475250244140625">
        <ele>556.5999755859375</ele>
        <time>2013-09-01T15:27:54.000Z</time>
        <extensions>
          <ns3:TrackPointExtension>
            <ns3:atemp>16.0</ns3:atemp>
          </ns3:TrackPointExtension>
        </extensions>
      </trkpt>
      <trkpt lat="46.735324859619140625" lon="6.8438690342009067535400390625">
        <ele>556.4000244140625</ele>
        <time>2013-09-01T15:27:55.000Z</time>
        <extensions>
          <ns3:TrackPointExtension>
            <ns3:atemp>16.0</ns3:atemp>
          </ns3:TrackPointExtension>
        </extensions>
      </trkpt>
      <trkpt lat="46.73534204252064228057861328125" lon="6.84395628981292247772216796875">
        <ele>556.5999755859375</ele>
        <time>2013-09-01T15:27:56.000Z</time>
        <extensions>
          <ns3:TrackPointExtension>
            <ns3:atemp>16.0</ns3:atemp>
          </ns3:TrackPointExtension>
        </extensions>
      </trkpt>
      <trkpt lat="46.735351346433162689208984375" lon="6.84404631145298480987548828125">
        <ele>556.5999755859375</ele>
        <time>2013-09-01T15:27:57.000Z</time>
        <extensions>
          <ns3:TrackPointExtension>
            <ns3:atemp>16.0</ns3:atemp>
          </ns3:TrackPointExtension>
        </extensions>
      </trkpt>
      <trkpt lat="46.73535444773733615875244140625" lon="6.84413440525531768798828125">
        <ele>556.79998779296875</ele>
        <time>2013-09-01T15:27:58.000Z</time>
        <extensions>
          <ns3:TrackPointExtension>
            <ns3:atemp>16.0</ns3:atemp>
          </ns3:TrackPointExtension>
        </extensions>
      </trkpt>
      <trkpt lat="46.73535981215536594390869140625" lon="6.844213195145130157470703125">
        <ele>556.79998779296875</ele>
        <time>2013-09-01T15:27:59.000Z</time>
        <extensions>
          <ns3:TrackPointExtension>
            <ns3:atemp>16.0</ns3:atemp>
          </ns3:TrackPointExtension>
        </extensions>
      </trkpt>
      <trkpt lat="46.735366769134998321533203125" lon="6.84429173357784748077392578125">
        <ele>557</ele>
        <time>2013-09-01T15:28:00.000Z</time>
        <extensions>
          <ns3:TrackPointExtension>
            <ns3:atemp>16.0</ns3:atemp>
          </ns3:TrackPointExtension>
        </extensions>
      </trkpt>
      <trkpt lat="46.7353852093219757080078125" lon="6.8443736247718334197998046875">
        <ele>557</ele>
        <time>2013-09-01T15:28:01.000Z</time>
        <extensions>
          <ns3:TrackPointExtension>
            <ns3:atemp>16.0</ns3:atemp>
          </ns3:TrackPointExtension>
        </extensions>
      </trkpt>
      <trkpt lat="46.73540993593633174896240234375" lon="6.844456605613231658935546875">
        <ele>557</ele>
        <time>2013-09-01T15:28:02.000Z</time>
        <extensions>
          <ns3:TrackPointExtension>
            <ns3:atemp>16.0</ns3:atemp>
          </ns3:TrackPointExtension>
        </extensions>
      </trkpt>
      <trkpt lat="46.73543323762714862823486328125" lon="6.8445422686636447906494140625">
        <ele>556.79998779296875</ele>
        <time>2013-09-01T15:28:03.000Z</time>
        <extensions>
          <ns3:TrackPointExtension>
            <ns3:atemp>16.0</ns3:atemp>
          </ns3:TrackPointExtension>
        </extensions>
      </trkpt>
      <trkpt lat="46.7354577966034412384033203125" lon="6.8446287699043750762939453125">
        <ele>556.79998779296875</ele>
        <time>2013-09-01T15:28:04.000Z</time>
        <extensions>
          <ns3:TrackPointExtension>
            <ns3:atemp>16.0</ns3:atemp>
          </ns3:TrackPointExtension>
        </extensions>
      </trkpt>
      <trkpt lat="46.735482104122638702392578125" lon="6.8447152711451053619384765625">
        <ele>556.79998779296875</ele>
        <time>2013-09-01T15:28:05.000Z</time>
        <extensions>
          <ns3:TrackPointExtension>
            <ns3:atemp>16.0</ns3:atemp>
          </ns3:TrackPointExtension>
        </extensions>
      </trkpt>
      <trkpt lat="46.73550649546086788177490234375" lon="6.8447987549006938934326171875">
        <ele>556.79998779296875</ele>
        <time>2013-09-01T15:28:06.000Z</time>
        <extensions>
          <ns3:TrackPointExtension>
            <ns3:atemp>16.0</ns3:atemp>
          </ns3:TrackPointExtension>
        </extensions>
      </trkpt>
      <trkpt lat="46.7355322279036045074462890625" lon="6.8448835797607898712158203125">
        <ele>556.79998779296875</ele>
        <time>2013-09-01T15:28:07.000Z</time>
        <extensions>
          <ns3:TrackPointExtension>
            <ns3:atemp>16.0</ns3:atemp>
          </ns3:TrackPointExtension>
        </extensions>
      </trkpt>
      <trkpt lat="46.7355563677847385406494140625" lon="6.844967566430568695068359375">
        <ele>556.5999755859375</ele>
        <time>2013-09-01T15:28:08.000Z</time>
        <extensions>
          <ns3:TrackPointExtension>
            <ns3:atemp>16.0</ns3:atemp>
          </ns3:TrackPointExtension>
        </extensions>
      </trkpt>
      <trkpt lat="46.7355691082775592803955078125" lon="6.8450589291751384735107421875">
        <ele>556.5999755859375</ele>
        <time>2013-09-01T15:28:09.000Z</time>
        <extensions>
          <ns3:TrackPointExtension>
            <ns3:atemp>16.0</ns3:atemp>
          </ns3:TrackPointExtension>
        </extensions>
      </trkpt>
      <trkpt lat="46.73557070083916187286376953125" lon="6.8451404012739658355712890625">
        <ele>556.5999755859375</ele>
        <time>2013-09-01T15:28:10.000Z</time>
        <extensions>
          <ns3:TrackPointExtension>
            <ns3:atemp>16.0</ns3:atemp>
          </ns3:TrackPointExtension>
        </extensions>
      </trkpt>
      <trkpt lat="46.73555351793766021728515625" lon="6.8452248908579349517822265625">
        <ele>556.4000244140625</ele>
        <time>2013-09-01T15:28:11.000Z</time>
        <extensions>
          <ns3:TrackPointExtension>
            <ns3:atemp>16.0</ns3:atemp>
          </ns3:TrackPointExtension>
        </extensions>
      </trkpt>
      <trkpt lat="46.7355166375637054443359375" lon="6.84530644677579402923583984375">
        <ele>556.4000244140625</ele>
        <time>2013-09-01T15:28:12.000Z</time>
        <extensions>
          <ns3:TrackPointExtension>
            <ns3:atemp>16.0</ns3:atemp>
          </ns3:TrackPointExtension>
        </extensions>
      </trkpt>
      <trkpt lat="46.73547531478106975555419921875" lon="6.84538071043789386749267578125">
        <ele>556.4000244140625</ele>
        <time>2013-09-01T15:28:13.000Z</time>
        <extensions>
          <ns3:TrackPointExtension>
            <ns3:atemp>16.0</ns3:atemp>
          </ns3:TrackPointExtension>
        </extensions>
      </trkpt>
      <trkpt lat="46.7354376800358295440673828125" lon="6.845466457307338714599609375">
        <ele>556.4000244140625</ele>
        <time>2013-09-01T15:28:14.000Z</time>
        <extensions>
          <ns3:TrackPointExtension>
            <ns3:atemp>16.0</ns3:atemp>
          </ns3:TrackPointExtension>
        </extensions>
      </trkpt>
      <trkpt lat="46.7353987880051136016845703125" lon="6.8455561436712741851806640625">
        <ele>556.20001220703125</ele>
        <time>2013-09-01T15:28:15.000Z</time>
        <extensions>
          <ns3:TrackPointExtension>
            <ns3:atemp>16.0</ns3:atemp>
          </ns3:TrackPointExtension>
        </extensions>
      </trkpt>
      <trkpt lat="46.73536400310695171356201171875" lon="6.84565119445323944091796875">
        <ele>556</ele>
        <time>2013-09-01T15:28:16.000Z</time>
        <extensions>
          <ns3:TrackPointExtension>
            <ns3:atemp>16.0</ns3:atemp>
          </ns3:TrackPointExtension>
        </extensions>
      </trkpt>
      <trkpt lat="46.73533399589359760284423828125" lon="6.845759488642215728759765625">
        <ele>556</ele>
        <time>2013-09-01T15:28:17.000Z</time>
        <extensions>
          <ns3:TrackPointExtension>
            <ns3:atemp>16.0</ns3:atemp>
          </ns3:TrackPointExtension>
        </extensions>
      </trkpt>
      <trkpt lat="46.73531421460211277008056640625" lon="6.845872141420841217041015625">
        <ele>555.79998779296875</ele>
        <time>2013-09-01T15:28:18.000Z</time>
        <extensions>
          <ns3:TrackPointExtension>
            <ns3:atemp>16.0</ns3:atemp>
          </ns3:TrackPointExtension>
        </extensions>
      </trkpt>
      <trkpt lat="46.7352940142154693603515625" lon="6.8459879793226718902587890625">
        <ele>555.5999755859375</ele>
        <time>2013-09-01T15:28:19.000Z</time>
        <extensions>
          <ns3:TrackPointExtension>
            <ns3:atemp>16.0</ns3:atemp>
          </ns3:TrackPointExtension>
        </extensions>
      </trkpt>
      <trkpt lat="46.735269539058208465576171875" lon="6.8461132049560546875">
        <ele>555.20001220703125</ele>
        <time>2013-09-01T15:28:20.000Z</time>
        <extensions>
          <ns3:TrackPointExtension>
            <ns3:atemp>16.0</ns3:atemp>
          </ns3:TrackPointExtension>
        </extensions>
      </trkpt>
      <trkpt lat="46.73523995094001293182373046875" lon="6.84623901732265949249267578125">
        <ele>554</ele>
        <time>2013-09-01T15:28:21.000Z</time>
        <extensions>
          <ns3:TrackPointExtension>
            <ns3:atemp>16.0</ns3:atemp>
          </ns3:TrackPointExtension>
        </extensions>
      </trkpt>
      <trkpt lat="46.73521279357373714447021484375" lon="6.846355609595775604248046875">
        <ele>553.5999755859375</ele>
        <time>2013-09-01T15:28:22.000Z</time>
        <extensions>
          <ns3:TrackPointExtension>
            <ns3:atemp>16.0</ns3:atemp>
          </ns3:TrackPointExtension>
        </extensions>
      </trkpt>
      <trkpt lat="46.7351858876645565032958984375" lon="6.846470944583415985107421875">
        <ele>553.4000244140625</ele>
        <time>2013-09-01T15:28:23.000Z</time>
        <extensions>
          <ns3:TrackPointExtension>
            <ns3:atemp>16.0</ns3:atemp>
          </ns3:TrackPointExtension>
        </extensions>
      </trkpt>
      <trkpt lat="46.7351526953279972076416015625" lon="6.8465857766568660736083984375">
        <ele>553.4000244140625</ele>
        <time>2013-09-01T15:28:24.000Z</time>
        <extensions>
          <ns3:TrackPointExtension>
            <ns3:atemp>16.0</ns3:atemp>
          </ns3:TrackPointExtension>
        </extensions>
      </trkpt>
      <trkpt lat="46.73511472530663013458251953125" lon="6.84669532813131809234619140625">
        <ele>553.5999755859375</ele>
        <time>2013-09-01T15:28:25.000Z</time>
        <extensions>
          <ns3:TrackPointExtension>
            <ns3:atemp>16.0</ns3:atemp>
          </ns3:TrackPointExtension>
        </extensions>
      </trkpt>
      <trkpt lat="46.73507231287658214569091796875" lon="6.8468003533780574798583984375">
        <ele>554</ele>
        <time>2013-09-01T15:28:26.000Z</time>
        <extensions>
          <ns3:TrackPointExtension>
            <ns3:atemp>16.0</ns3:atemp>
          </ns3:TrackPointExtension>
        </extensions>
      </trkpt>
      <trkpt lat="46.73501816578209400177001953125" lon="6.84689917601644992828369140625">
        <ele>553.79998779296875</ele>
        <time>2013-09-01T15:28:27.000Z</time>
        <extensions>
          <ns3:TrackPointExtension>
            <ns3:atemp>16.0</ns3:atemp>
          </ns3:TrackPointExtension>
        </extensions>
      </trkpt>
      <trkpt lat="46.7349525354802608489990234375" lon="6.84698827564716339111328125">
        <ele>553</ele>
        <time>2013-09-01T15:28:28.000Z</time>
        <extensions>
          <ns3:TrackPointExtension>
            <ns3:atemp>16.0</ns3:atemp>
          </ns3:TrackPointExtension>
        </extensions>
      </trkpt>
      <trkpt lat="46.73487466759979724884033203125" lon="6.8470638804137706756591796875">
        <ele>552</ele>
        <time>2013-09-01T15:28:29.000Z</time>
        <extensions>
          <ns3:TrackPointExtension>
            <ns3:atemp>16.0</ns3:atemp>
          </ns3:TrackPointExtension>
        </extensions>
      </trkpt>
      <trkpt lat="46.7347902618348598480224609375" lon="6.847142837941646575927734375">
        <ele>550.79998779296875</ele>
        <time>2013-09-01T15:28:30.000Z</time>
        <extensions>
          <ns3:TrackPointExtension>
            <ns3:atemp>16.0</ns3:atemp>
          </ns3:TrackPointExtension>
        </extensions>
      </trkpt>
      <trkpt lat="46.7347061075270175933837890625" lon="6.84722003526985645294189453125">
        <ele>549.79998779296875</ele>
        <time>2013-09-01T15:28:31.000Z</time>
        <extensions>
          <ns3:TrackPointExtension>
            <ns3:atemp>16.0</ns3:atemp>
          </ns3:TrackPointExtension>
        </extensions>
      </trkpt>
      <trkpt lat="46.7346206121146678924560546875" lon="6.84730737470090389251708984375">
        <ele>548.79998779296875</ele>
        <time>2013-09-01T15:28:32.000Z</time>
        <extensions>
          <ns3:TrackPointExtension>
            <ns3:atemp>16.0</ns3:atemp>
          </ns3:TrackPointExtension>
        </extensions>
      </trkpt>
      <trkpt lat="46.73453151248395442962646484375" lon="6.84739571996033191680908203125">
        <ele>548.20001220703125</ele>
        <time>2013-09-01T15:28:33.000Z</time>
        <extensions>
          <ns3:TrackPointExtension>
            <ns3:atemp>16.0</ns3:atemp>
          </ns3:TrackPointExtension>
        </extensions>
      </trkpt>
      <trkpt lat="46.7344412393867969512939453125" lon="6.84748020954430103302001953125">
        <ele>547.4000244140625</ele>
        <time>2013-09-01T15:28:34.000Z</time>
        <extensions>
          <ns3:TrackPointExtension>
            <ns3:atemp>16.0</ns3:atemp>
          </ns3:TrackPointExtension>
        </extensions>
      </trkpt>
      <trkpt lat="46.73435247503221035003662109375" lon="6.84757241047918796539306640625">
        <ele>546.4000244140625</ele>
        <time>2013-09-01T15:28:35.000Z</time>
        <extensions>
          <ns3:TrackPointExtension>
            <ns3:atemp>16.0</ns3:atemp>
          </ns3:TrackPointExtension>
        </extensions>
      </trkpt>
      <trkpt lat="46.73426580615341663360595703125" lon="6.84766042046248912811279296875">
        <ele>545.4000244140625</ele>
        <time>2013-09-01T15:28:36.000Z</time>
        <extensions>
          <ns3:TrackPointExtension>
            <ns3:atemp>16.0</ns3:atemp>
          </ns3:TrackPointExtension>
        </extensions>
      </trkpt>
      <trkpt lat="46.73417913727462291717529296875" lon="6.84774725697934627532958984375">
        <ele>544.20001220703125</ele>
        <time>2013-09-01T15:28:37.000Z</time>
        <extensions>
          <ns3:TrackPointExtension>
            <ns3:atemp>16.0</ns3:atemp>
          </ns3:TrackPointExtension>
        </extensions>
      </trkpt>
      <trkpt lat="46.7340969108045101165771484375" lon="6.84782738797366619110107421875">
        <ele>543.4000244140625</ele>
        <time>2013-09-01T15:28:38.000Z</time>
        <extensions>
          <ns3:TrackPointExtension>
            <ns3:atemp>16.0</ns3:atemp>
          </ns3:TrackPointExtension>
        </extensions>
      </trkpt>
      <trkpt lat="46.734027676284313201904296875" lon="6.84790198691189289093017578125">
        <ele>542</ele>
        <time>2013-09-01T15:28:39.000Z</time>
        <extensions>
          <ns3:TrackPointExtension>
            <ns3:atemp>16.0</ns3:atemp>
          </ns3:TrackPointExtension>
        </extensions>
      </trkpt>
      <trkpt lat="46.7339731939136981964111328125" lon="6.84797826223075389862060546875">
        <ele>541</ele>
        <time>2013-09-01T15:28:40.000Z</time>
        <extensions>
          <ns3:TrackPointExtension>
            <ns3:atemp>16.0</ns3:atemp>
          </ns3:TrackPointExtension>
        </extensions>
      </trkpt>
      <trkpt lat="46.73393069766461849212646484375" lon="6.84806124307215213775634765625">
        <ele>540</ele>
        <time>2013-09-01T15:28:41.000Z</time>
        <extensions>
          <ns3:TrackPointExtension>
            <ns3:atemp>16.0</ns3:atemp>
          </ns3:TrackPointExtension>
        </extensions>
      </trkpt>
      <trkpt lat="46.7339061386883258819580078125" lon="6.84816149063408374786376953125">
        <ele>539.20001220703125</ele>
        <time>2013-09-01T15:28:42.000Z</time>
        <extensions>
          <ns3:TrackPointExtension>
            <ns3:atemp>16.0</ns3:atemp>
          </ns3:TrackPointExtension>
        </extensions>
      </trkpt>
      <trkpt lat="46.7338920570909976959228515625" lon="6.84825654141604900360107421875">
        <ele>538.4000244140625</ele>
        <time>2013-09-01T15:28:43.000Z</time>
        <extensions>
          <ns3:TrackPointExtension>
            <ns3:atemp>16.0</ns3:atemp>
          </ns3:TrackPointExtension>
        </extensions>
      </trkpt>
      <trkpt lat="46.73385375179350376129150390625" lon="6.84835075400769710540771484375">
        <ele>537.79998779296875</ele>
        <time>2013-09-01T15:28:44.000Z</time>
        <extensions>
          <ns3:TrackPointExtension>
            <ns3:atemp>16.0</ns3:atemp>
          </ns3:TrackPointExtension>
        </extensions>
      </trkpt>
      <trkpt lat="46.7338080704212188720703125" lon="6.8484522588551044464111328125">
        <ele>536.5999755859375</ele>
        <time>2013-09-01T15:28:45.000Z</time>
        <extensions>
          <ns3:TrackPointExtension>
            <ns3:atemp>16.0</ns3:atemp>
          </ns3:TrackPointExtension>
        </extensions>
      </trkpt>
      <trkpt lat="46.73375501297414302825927734375" lon="6.84856298379600048065185546875">
        <ele>536</ele>
        <time>2013-09-01T15:28:46.000Z</time>
        <extensions>
          <ns3:TrackPointExtension>
            <ns3:atemp>16.0</ns3:atemp>
          </ns3:TrackPointExtension>
        </extensions>
      </trkpt>
      <trkpt lat="46.7337016202509403228759765625" lon="6.84867429547011852264404296875">
        <ele>535.4000244140625</ele>
        <time>2013-09-01T15:28:47.000Z</time>
        <extensions>
          <ns3:TrackPointExtension>
            <ns3:atemp>16.0</ns3:atemp>
          </ns3:TrackPointExtension>
        </extensions>
      </trkpt>
      <trkpt lat="46.733649484813213348388671875" lon="6.8487882055342197418212890625">
        <ele>535</ele>
        <time>2013-09-01T15:28:48.000Z</time>
        <extensions>
          <ns3:TrackPointExtension>
            <ns3:atemp>16.0</ns3:atemp>
          </ns3:TrackPointExtension>
        </extensions>
      </trkpt>
      <trkpt lat="46.733597852289676666259765625" lon="6.848899684846401214599609375">
        <ele>535</ele>
        <time>2013-09-01T15:28:49.000Z</time>
        <extensions>
          <ns3:TrackPointExtension>
            <ns3:atemp>16.0</ns3:atemp>
          </ns3:TrackPointExtension>
        </extensions>
      </trkpt>
      <trkpt lat="46.73354714177548885345458984375" lon="6.849008314311504364013671875">
        <ele>535.20001220703125</ele>
        <time>2013-09-01T15:28:50.000Z</time>
        <extensions>
          <ns3:TrackPointExtension>
            <ns3:atemp>16.0</ns3:atemp>
          </ns3:TrackPointExtension>
        </extensions>
      </trkpt>
      <trkpt lat="46.733495257794857025146484375" lon="6.84911401011049747467041015625">
        <ele>534.79998779296875</ele>
        <time>2013-09-01T15:28:51.000Z</time>
        <extensions>
          <ns3:TrackPointExtension>
            <ns3:atemp>16.0</ns3:atemp>
          </ns3:TrackPointExtension>
        </extensions>
      </trkpt>
      <trkpt lat="46.7334451340138912200927734375" lon="6.84921559877693653106689453125">
        <ele>534.20001220703125</ele>
        <time>2013-09-01T15:28:52.000Z</time>
        <extensions>
          <ns3:TrackPointExtension>
            <ns3:atemp>16.0</ns3:atemp>
          </ns3:TrackPointExtension>
        </extensions>
      </trkpt>
      <trkpt lat="46.733398698270320892333984375" lon="6.84931551106274127960205078125">
        <ele>533.5999755859375</ele>
        <time>2013-09-01T15:28:53.000Z</time>
        <extensions>
          <ns3:TrackPointExtension>
            <ns3:atemp>16.0</ns3:atemp>
          </ns3:TrackPointExtension>
        </extensions>
      </trkpt>
      <trkpt lat="46.73335636965930461883544921875" lon="6.8494136631488800048828125">
        <ele>533.5999755859375</ele>
        <time>2013-09-01T15:28:54.000Z</time>
        <extensions>
          <ns3:TrackPointExtension>
            <ns3:atemp>16.0</ns3:atemp>
          </ns3:TrackPointExtension>
        </extensions>
      </trkpt>
      <trkpt lat="46.7333100177347660064697265625" lon="6.8495077081024646759033203125">
        <ele>533.4000244140625</ele>
        <time>2013-09-01T15:28:55.000Z</time>
        <extensions>
          <ns3:TrackPointExtension>
            <ns3:atemp>16.0</ns3:atemp>
          </ns3:TrackPointExtension>
        </extensions>
      </trkpt>
      <trkpt lat="46.73326752148568630218505859375" lon="6.84959932230412960052490234375">
        <ele>533.20001220703125</ele>
        <time>2013-09-01T15:28:56.000Z</time>
        <extensions>
          <ns3:TrackPointExtension>
            <ns3:atemp>16.0</ns3:atemp>
          </ns3:TrackPointExtension>
        </extensions>
      </trkpt>
      <trkpt lat="46.7332282103598117828369140625" lon="6.8496914394199848175048828125">
        <ele>533</ele>
        <time>2013-09-01T15:28:57.000Z</time>
        <extensions>
          <ns3:TrackPointExtension>
            <ns3:atemp>16.0</ns3:atemp>
          </ns3:TrackPointExtension>
        </extensions>
      </trkpt>
      <trkpt lat="46.73318671993911266326904296875" lon="6.8497802875936031341552734375">
        <ele>533</ele>
        <time>2013-09-01T15:28:58.000Z</time>
        <extensions>
          <ns3:TrackPointExtension>
            <ns3:atemp>16.0</ns3:atemp>
          </ns3:TrackPointExtension>
        </extensions>
      </trkpt>
      <trkpt lat="46.73314757645130157470703125" lon="6.8498677946627140045166015625">
        <ele>532.79998779296875</ele>
        <time>2013-09-01T15:28:59.000Z</time>
        <extensions>
          <ns3:TrackPointExtension>
            <ns3:atemp>16.0</ns3:atemp>
          </ns3:TrackPointExtension>
        </extensions>
      </trkpt>
      <trkpt lat="46.7331044934689998626708984375" lon="6.84995806775987148284912109375">
        <ele>532.5999755859375</ele>
        <time>2013-09-01T15:29:00.000Z</time>
        <extensions>
          <ns3:TrackPointExtension>
            <ns3:atemp>16.0</ns3:atemp>
          </ns3:TrackPointExtension>
        </extensions>
      </trkpt>
      <trkpt lat="46.7330602370202541351318359375" lon="6.8500515259802341461181640625">
        <ele>532.5999755859375</ele>
        <time>2013-09-01T15:29:01.000Z</time>
        <extensions>
          <ns3:TrackPointExtension>
            <ns3:atemp>16.0</ns3:atemp>
          </ns3:TrackPointExtension>
        </extensions>
      </trkpt>
      <trkpt lat="46.73301338218152523040771484375" lon="6.8501494266092777252197265625">
        <ele>532.4000244140625</ele>
        <time>2013-09-01T15:29:02.000Z</time>
        <extensions>
          <ns3:TrackPointExtension>
            <ns3:atemp>16.0</ns3:atemp>
          </ns3:TrackPointExtension>
        </extensions>
      </trkpt>
      <trkpt lat="46.73296342603862285614013671875" lon="6.85025126673281192779541015625">
        <ele>532</ele>
        <time>2013-09-01T15:29:03.000Z</time>
        <extensions>
          <ns3:TrackPointExtension>
            <ns3:atemp>16.0</ns3:atemp>
          </ns3:TrackPointExtension>
        </extensions>
      </trkpt>
      <trkpt lat="46.73291246406733989715576171875" lon="6.85036182403564453125">
        <ele>531.4000244140625</ele>
        <time>2013-09-01T15:29:04.000Z</time>
        <extensions>
          <ns3:TrackPointExtension>
            <ns3:atemp>16.0</ns3:atemp>
          </ns3:TrackPointExtension>
        </extensions>
      </trkpt>
      <trkpt lat="46.73285898752510547637939453125" lon="6.85048160143196582794189453125">
        <ele>530.5999755859375</ele>
        <time>2013-09-01T15:29:05.000Z</time>
        <extensions>
          <ns3:TrackPointExtension>
            <ns3:atemp>16.0</ns3:atemp>
          </ns3:TrackPointExtension>
        </extensions>
      </trkpt>
      <trkpt lat="46.732800900936126708984375" lon="6.85061453841626644134521484375">
        <ele>529.79998779296875</ele>
        <time>2013-09-01T15:29:06.000Z</time>
        <extensions>
          <ns3:TrackPointExtension>
            <ns3:atemp>16.0</ns3:atemp>
          </ns3:TrackPointExtension>
        </extensions>
      </trkpt>
      <trkpt lat="46.7327363602817058563232421875" lon="6.85075820423662662506103515625">
        <ele>529.20001220703125</ele>
        <time>2013-09-01T15:29:07.000Z</time>
        <extensions>
          <ns3:TrackPointExtension>
            <ns3:atemp>16.0</ns3:atemp>
          </ns3:TrackPointExtension>
        </extensions>
      </trkpt>
      <trkpt lat="46.73266880214214324951171875" lon="6.850895918905735015869140625">
        <ele>528.4000244140625</ele>
        <time>2013-09-01T15:29:08.000Z</time>
        <extensions>
          <ns3:TrackPointExtension>
            <ns3:atemp>16.0</ns3:atemp>
          </ns3:TrackPointExtension>
        </extensions>
      </trkpt>
      <trkpt lat="46.73260685987770557403564453125" lon="6.8510312028229236602783203125">
        <ele>526</ele>
        <time>2013-09-01T15:29:09.000Z</time>
        <extensions>
          <ns3:TrackPointExtension>
            <ns3:atemp>16.0</ns3:atemp>
          </ns3:TrackPointExtension>
        </extensions>
      </trkpt>
      <trkpt lat="46.73255539499223232269287109375" lon="6.85114913620054721832275390625">
        <ele>524.20001220703125</ele>
        <time>2013-09-01T15:29:10.000Z</time>
        <extensions>
          <ns3:TrackPointExtension>
            <ns3:atemp>16.0</ns3:atemp>
          </ns3:TrackPointExtension>
        </extensions>
      </trkpt>
      <trkpt lat="46.7325080372393131256103515625" lon="6.85124334879219532012939453125">
        <ele>522.4000244140625</ele>
        <time>2013-09-01T15:29:11.000Z</time>
        <extensions>
          <ns3:TrackPointExtension>
            <ns3:atemp>16.0</ns3:atemp>
          </ns3:TrackPointExtension>
        </extensions>
      </trkpt>
      <trkpt lat="46.7324741743505001068115234375" lon="6.85132632963359355926513671875">
        <ele>520.79998779296875</ele>
        <time>2013-09-01T15:29:12.000Z</time>
        <extensions>
          <ns3:TrackPointExtension>
            <ns3:atemp>16.0</ns3:atemp>
          </ns3:TrackPointExtension>
        </extensions>
      </trkpt>
      <trkpt lat="46.7324714921414852142333984375" lon="6.8514201231300830841064453125">
        <ele>519.4000244140625</ele>
        <time>2013-09-01T15:29:13.000Z</time>
        <extensions>
          <ns3:TrackPointExtension>
            <ns3:atemp>16.0</ns3:atemp>
          </ns3:TrackPointExtension>
        </extensions>
      </trkpt>
      <trkpt lat="46.73249118961393833160400390625" lon="6.8515227176249027252197265625">
        <ele>518.5999755859375</ele>
        <time>2013-09-01T15:29:14.000Z</time>
        <extensions>
          <ns3:TrackPointExtension>
            <ns3:atemp>16.0</ns3:atemp>
          </ns3:TrackPointExtension>
        </extensions>
      </trkpt>
      <trkpt lat="46.73252924345433712005615234375" lon="6.85162019915878772735595703125">
        <ele>518.20001220703125</ele>
        <time>2013-09-01T15:29:15.000Z</time>
        <extensions>
          <ns3:TrackPointExtension>
            <ns3:atemp>16.0</ns3:atemp>
          </ns3:TrackPointExtension>
        </extensions>
      </trkpt>
      <trkpt lat="46.73256847076117992401123046875" lon="6.85170385055243968963623046875">
        <ele>517.79998779296875</ele>
        <time>2013-09-01T15:29:16.000Z</time>
        <extensions>
          <ns3:TrackPointExtension>
            <ns3:atemp>16.0</ns3:atemp>
          </ns3:TrackPointExtension>
        </extensions>
      </trkpt>
      <trkpt lat="46.73260820098221302032470703125" lon="6.851773001253604888916015625">
        <ele>517.4000244140625</ele>
        <time>2013-09-01T15:29:17.000Z</time>
        <extensions>
          <ns3:TrackPointExtension>
            <ns3:atemp>16.0</ns3:atemp>
          </ns3:TrackPointExtension>
        </extensions>
      </trkpt>
      <trkpt lat="46.73263234086334705352783203125" lon="6.85181801207363605499267578125">
        <ele>517</ele>
        <time>2013-09-01T15:29:18.000Z</time>
        <extensions>
          <ns3:TrackPointExtension>
            <ns3:atemp>16.0</ns3:atemp>
          </ns3:TrackPointExtension>
        </extensions>
      </trkpt>
      <trkpt lat="46.7326491884887218475341796875" lon="6.85184751637279987335205078125">
        <ele>516.79998779296875</ele>
        <time>2013-09-01T15:29:19.000Z</time>
        <extensions>
          <ns3:TrackPointExtension>
            <ns3:atemp>16.0</ns3:atemp>
          </ns3:TrackPointExtension>
        </extensions>
      </trkpt>
      <trkpt lat="46.7326652817428112030029296875" lon="6.85187165625393390655517578125">
        <ele>517</ele>
        <time>2013-09-01T15:29:20.000Z</time>
        <extensions>
          <ns3:TrackPointExtension>
            <ns3:atemp>16.0</ns3:atemp>
          </ns3:TrackPointExtension>
        </extensions>
      </trkpt>
      <trkpt lat="46.73268246464431285858154296875" lon="6.85189445503056049346923828125">
        <ele>517</ele>
        <time>2013-09-01T15:29:21.000Z</time>
        <extensions>
          <ns3:TrackPointExtension>
            <ns3:atemp>16.0</ns3:atemp>
          </ns3:TrackPointExtension>
        </extensions>
      </trkpt>
      <trkpt lat="46.732697300612926483154296875" lon="6.85192228294909000396728515625">
        <ele>517</ele>
        <time>2013-09-01T15:29:22.000Z</time>
        <extensions>
          <ns3:TrackPointExtension>
            <ns3:atemp>16.0</ns3:atemp>
          </ns3:TrackPointExtension>
        </extensions>
      </trkpt>
      <trkpt lat="46.7327061854302883148193359375" lon="6.8519488535821437835693359375">
        <ele>517.20001220703125</ele>
        <time>2013-09-01T15:29:23.000Z</time>
        <extensions>
          <ns3:TrackPointExtension>
            <ns3:atemp>16.0</ns3:atemp>
          </ns3:TrackPointExtension>
        </extensions>
      </trkpt>
      <trkpt lat="46.7327118851244449615478515625" lon="6.85197274200618267059326171875">
        <ele>517.4000244140625</ele>
        <time>2013-09-01T15:29:24.000Z</time>
        <extensions>
          <ns3:TrackPointExtension>
            <ns3:atemp>16.0</ns3:atemp>
          </ns3:TrackPointExtension>
        </extensions>
      </trkpt>
      <trkpt lat="46.73271297477185726165771484375" lon="6.8519993126392364501953125">
        <ele>517.79998779296875</ele>
        <time>2013-09-01T15:29:25.000Z</time>
        <extensions>
          <ns3:TrackPointExtension>
            <ns3:atemp>16.0</ns3:atemp>
          </ns3:TrackPointExtension>
        </extensions>
      </trkpt>
      <trkpt lat="46.73271196894347667694091796875" lon="6.852029152214527130126953125">
        <ele>518.20001220703125</ele>
        <time>2013-09-01T15:29:26.000Z</time>
        <extensions>
          <ns3:TrackPointExtension>
            <ns3:atemp>16.0</ns3:atemp>
          </ns3:TrackPointExtension>
        </extensions>
      </trkpt>
      <trkpt lat="46.7327102087438106536865234375" lon="6.85206125490367412567138671875">
        <ele>518.4000244140625</ele>
        <time>2013-09-01T15:29:27.000Z</time>
        <extensions>
          <ns3:TrackPointExtension>
            <ns3:atemp>16.0</ns3:atemp>
          </ns3:TrackPointExtension>
        </extensions>
      </trkpt>
      <trkpt lat="46.7327021621167659759521484375" lon="6.852094195783138275146484375">
        <ele>518.4000244140625</ele>
        <time>2013-09-01T15:29:28.000Z</time>
        <extensions>
          <ns3:TrackPointExtension>
            <ns3:atemp>16.0</ns3:atemp>
          </ns3:TrackPointExtension>
        </extensions>
      </trkpt>
      <trkpt lat="46.7326877452433109283447265625" lon="6.8521238677203655242919921875">
        <ele>518.4000244140625</ele>
        <time>2013-09-01T15:29:29.000Z</time>
        <extensions>
          <ns3:TrackPointExtension>
            <ns3:atemp>16.0</ns3:atemp>
          </ns3:TrackPointExtension>
        </extensions>
      </trkpt>
      <trkpt lat="46.732673831284046173095703125" lon="6.85215395875275135040283203125">
        <ele>518.79998779296875</ele>
        <time>2013-09-01T15:29:30.000Z</time>
        <extensions>
          <ns3:TrackPointExtension>
            <ns3:atemp>16.0</ns3:atemp>
          </ns3:TrackPointExtension>
        </extensions>
      </trkpt>
      <trkpt lat="46.732651032507419586181640625" lon="6.8521828763186931610107421875">
        <ele>519</ele>
        <time>2013-09-01T15:29:31.000Z</time>
        <extensions>
          <ns3:TrackPointExtension>
            <ns3:atemp>16.0</ns3:atemp>
          </ns3:TrackPointExtension>
        </extensions>
      </trkpt>
      <trkpt lat="46.73263250850141048431396484375" lon="6.85220919549465179443359375">
        <ele>519.4000244140625</ele>
        <time>2013-09-01T15:29:32.000Z</time>
        <extensions>
          <ns3:TrackPointExtension>
            <ns3:atemp>16.0</ns3:atemp>
          </ns3:TrackPointExtension>
        </extensions>
      </trkpt>
      <trkpt lat="46.732612140476703643798828125" lon="6.85223509557545185089111328125">
        <ele>520.20001220703125</ele>
        <time>2013-09-01T15:29:33.000Z</time>
        <extensions>
          <ns3:TrackPointExtension>
            <ns3:atemp>16.0</ns3:atemp>
          </ns3:TrackPointExtension>
        </extensions>
      </trkpt>
      <trkpt lat="46.73259227536618709564208984375" lon="6.85225613415241241455078125">
        <ele>520.5999755859375</ele>
        <time>2013-09-01T15:29:34.000Z</time>
        <extensions>
          <ns3:TrackPointExtension>
            <ns3:atemp>16.0</ns3:atemp>
          </ns3:TrackPointExtension>
        </extensions>
      </trkpt>
      <trkpt lat="46.73257232643663883209228515625" lon="6.852275915443897247314453125">
        <ele>520.79998779296875</ele>
        <time>2013-09-01T15:29:35.000Z</time>
        <extensions>
          <ns3:TrackPointExtension>
            <ns3:atemp>16.0</ns3:atemp>
          </ns3:TrackPointExtension>
        </extensions>
      </trkpt>
      <trkpt lat="46.73254818655550479888916015625" lon="6.8522958643734455108642578125">
        <ele>521</ele>
        <time>2013-09-01T15:29:36.000Z</time>
        <extensions>
          <ns3:TrackPointExtension>
            <ns3:atemp>16.0</ns3:atemp>
          </ns3:TrackPointExtension>
        </extensions>
      </trkpt>
      <trkpt lat="46.7325258068740367889404296875" lon="6.8523166514933109283447265625">
        <ele>521.4000244140625</ele>
        <time>2013-09-01T15:29:37.000Z</time>
        <extensions>
          <ns3:TrackPointExtension>
            <ns3:atemp>16.0</ns3:atemp>
          </ns3:TrackPointExtension>
        </extensions>
      </trkpt>
      <trkpt lat="46.73250694759190082550048828125" lon="6.85234271921217441558837890625">
        <ele>521.79998779296875</ele>
        <time>2013-09-01T15:29:38.000Z</time>
        <extensions>
          <ns3:TrackPointExtension>
            <ns3:atemp>16.0</ns3:atemp>
          </ns3:TrackPointExtension>
        </extensions>
      </trkpt>
      <trkpt lat="46.7324882559478282928466796875" lon="6.852363087236881256103515625">
        <ele>522.20001220703125</ele>
        <time>2013-09-01T15:29:39.000Z</time>
        <extensions>
          <ns3:TrackPointExtension>
            <ns3:atemp>16.0</ns3:atemp>
          </ns3:TrackPointExtension>
        </extensions>
      </trkpt>
      <trkpt lat="46.73246939666569232940673828125" lon="6.85239317826926708221435546875">
        <ele>522.4000244140625</ele>
        <time>2013-09-01T15:29:40.000Z</time>
        <extensions>
          <ns3:TrackPointExtension>
            <ns3:atemp>16.0</ns3:atemp>
          </ns3:TrackPointExtension>
        </extensions>
      </trkpt>
      <trkpt lat="46.73245145939290523529052734375" lon="6.85242385603487491607666015625">
        <ele>522.5999755859375</ele>
        <time>2013-09-01T15:29:41.000Z</time>
        <extensions>
          <ns3:TrackPointExtension>
            <ns3:atemp>16.0</ns3:atemp>
          </ns3:TrackPointExtension>
        </extensions>
      </trkpt>
      <trkpt lat="46.73242949880659580230712890625" lon="6.85244925320148468017578125">
        <ele>523</ele>
        <time>2013-09-01T15:29:42.000Z</time>
        <extensions>
          <ns3:TrackPointExtension>
            <ns3:atemp>16.0</ns3:atemp>
          </ns3:TrackPointExtension>
        </extensions>
      </trkpt>
      <trkpt lat="46.7324098013341426849365234375" lon="6.85248009860515594482421875">
        <ele>523</ele>
        <time>2013-09-01T15:29:43.000Z</time>
        <extensions>
          <ns3:TrackPointExtension>
            <ns3:atemp>16.0</ns3:atemp>
          </ns3:TrackPointExtension>
        </extensions>
      </trkpt>
      <trkpt lat="46.7323849909007549285888671875" lon="6.852510608732700347900390625">
        <ele>523</ele>
        <time>2013-09-01T15:29:44.000Z</time>
        <extensions>
          <ns3:TrackPointExtension>
            <ns3:atemp>16.0</ns3:atemp>
          </ns3:TrackPointExtension>
        </extensions>
      </trkpt>
      <trkpt lat="46.7323569953441619873046875" lon="6.85254086740314960479736328125">
        <ele>523</ele>
        <time>2013-09-01T15:29:45.000Z</time>
        <extensions>
          <ns3:TrackPointExtension>
            <ns3:atemp>16.0</ns3:atemp>
          </ns3:TrackPointExtension>
        </extensions>
      </trkpt>
      <trkpt lat="46.7323310114443302154541015625" lon="6.85257908888161182403564453125">
        <ele>523</ele>
        <time>2013-09-01T15:29:46.000Z</time>
        <extensions>
          <ns3:TrackPointExtension>
            <ns3:atemp>16.0</ns3:atemp>
          </ns3:TrackPointExtension>
        </extensions>
      </trkpt>
      <trkpt lat="46.73230192624032497406005859375" lon="6.85261580161750316619873046875">
        <ele>523</ele>
        <time>2013-09-01T15:29:47.000Z</time>
        <extensions>
          <ns3:TrackPointExtension>
            <ns3:atemp>16.0</ns3:atemp>
          </ns3:TrackPointExtension>
        </extensions>
      </trkpt>
      <trkpt lat="46.7322740145027637481689453125" lon="6.8526552803814411163330078125">
        <ele>523.20001220703125</ele>
        <time>2013-09-01T15:29:48.000Z</time>
        <extensions>
          <ns3:TrackPointExtension>
            <ns3:atemp>16.0</ns3:atemp>
          </ns3:TrackPointExtension>
        </extensions>
      </trkpt>
      <trkpt lat="46.7322492040693759918212890625" lon="6.85270062647759914398193359375">
        <ele>523</ele>
        <time>2013-09-01T15:29:49.000Z</time>
        <extensions>
          <ns3:TrackPointExtension>
            <ns3:atemp>16.0</ns3:atemp>
          </ns3:TrackPointExtension>
        </extensions>
      </trkpt>
      <trkpt lat="46.73222883604466915130615234375" lon="6.85274873860180377960205078125">
        <ele>523</ele>
        <time>2013-09-01T15:29:50.000Z</time>
        <extensions>
          <ns3:TrackPointExtension>
            <ns3:atemp>16.0</ns3:atemp>
          </ns3:TrackPointExtension>
        </extensions>
      </trkpt>
      <trkpt lat="46.732223220169544219970703125" lon="6.85280808247625827789306640625">
        <ele>522.79998779296875</ele>
        <time>2013-09-01T15:29:51.000Z</time>
        <extensions>
          <ns3:TrackPointExtension>
            <ns3:atemp>16.0</ns3:atemp>
          </ns3:TrackPointExtension>
        </extensions>
      </trkpt>
      <trkpt lat="46.73222682438790798187255859375" lon="6.85286206193268299102783203125">
        <ele>523</ele>
        <time>2013-09-01T15:29:52.000Z</time>
        <extensions>
          <ns3:TrackPointExtension>
            <ns3:atemp>16.0</ns3:atemp>
          </ns3:TrackPointExtension>
        </extensions>
      </trkpt>
      <trkpt lat="46.73223822377622127532958984375" lon="6.85291050933301448822021484375">
        <ele>523.20001220703125</ele>
        <time>2013-09-01T15:29:53.000Z</time>
        <extensions>
          <ns3:TrackPointExtension>
            <ns3:atemp>16.0</ns3:atemp>
          </ns3:TrackPointExtension>
        </extensions>
      </trkpt>
      <trkpt lat="46.73225197009742259979248046875" lon="6.85295677743852138519287109375">
        <ele>523.5999755859375</ele>
        <time>2013-09-01T15:29:54.000Z</time>
        <extensions>
          <ns3:TrackPointExtension>
            <ns3:atemp>16.0</ns3:atemp>
          </ns3:TrackPointExtension>
        </extensions>
      </trkpt>
      <trkpt lat="46.73226856626570224761962890625" lon="6.8529997766017913818359375">
        <ele>523.79998779296875</ele>
        <time>2013-09-01T15:29:55.000Z</time>
        <extensions>
          <ns3:TrackPointExtension>
            <ns3:atemp>16.0</ns3:atemp>
          </ns3:TrackPointExtension>
        </extensions>
      </trkpt>
      <trkpt lat="46.73228415660560131072998046875" lon="6.8530465476214885711669921875">
        <ele>524</ele>
        <time>2013-09-01T15:29:56.000Z</time>
        <extensions>
          <ns3:TrackPointExtension>
            <ns3:atemp>16.0</ns3:atemp>
          </ns3:TrackPointExtension>
        </extensions>
      </trkpt>
      <trkpt lat="46.732307039201259613037109375" lon="6.85308518819510936737060546875">
        <ele>524.79998779296875</ele>
        <time>2013-09-01T15:29:57.000Z</time>
        <extensions>
          <ns3:TrackPointExtension>
            <ns3:atemp>16.0</ns3:atemp>
          </ns3:TrackPointExtension>
        </extensions>
      </trkpt>
      <trkpt lat="46.73232908360660076141357421875" lon="6.853124834597110748291015625">
        <ele>525</ele>
        <time>2013-09-01T15:29:58.000Z</time>
        <extensions>
          <ns3:TrackPointExtension>
            <ns3:atemp>16.0</ns3:atemp>
          </ns3:TrackPointExtension>
        </extensions>
      </trkpt>
      <trkpt lat="46.73235054127871990203857421875" lon="6.85316548682749271392822265625">
        <ele>525</ele>
        <time>2013-09-01T15:29:59.000Z</time>
        <extensions>
          <ns3:TrackPointExtension>
            <ns3:atemp>16.0</ns3:atemp>
          </ns3:TrackPointExtension>
        </extensions>
      </trkpt>
      <trkpt lat="46.732370741665363311767578125" lon="6.853206641972064971923828125">
        <ele>525</ele>
        <time>2013-09-01T15:30:00.000Z</time>
        <extensions>
          <ns3:TrackPointExtension>
            <ns3:atemp>16.0</ns3:atemp>
          </ns3:TrackPointExtension>
        </extensions>
      </trkpt>
      <trkpt lat="46.732391528785228729248046875" lon="6.85324260033667087554931640625">
        <ele>525.20001220703125</ele>
        <time>2013-09-01T15:30:01.000Z</time>
        <extensions>
          <ns3:TrackPointExtension>
            <ns3:atemp>16.0</ns3:atemp>
          </ns3:TrackPointExtension>
        </extensions>
      </trkpt>
      <trkpt lat="46.73241122625768184661865234375" lon="6.8532795645296573638916015625">
        <ele>525.4000244140625</ele>
        <time>2013-09-01T15:30:02.000Z</time>
        <extensions>
          <ns3:TrackPointExtension>
            <ns3:atemp>16.0</ns3:atemp>
          </ns3:TrackPointExtension>
        </extensions>
      </trkpt>
      <trkpt lat="46.73243503086268901824951171875" lon="6.85331803746521472930908203125">
        <ele>525.5999755859375</ele>
        <time>2013-09-01T15:30:03.000Z</time>
        <extensions>
          <ns3:TrackPointExtension>
            <ns3:atemp>16.0</ns3:atemp>
          </ns3:TrackPointExtension>
        </extensions>
      </trkpt>
      <trkpt lat="46.7324564047157764434814453125" lon="6.8533576838672161102294921875">
        <ele>525.5999755859375</ele>
        <time>2013-09-01T15:30:04.000Z</time>
        <extensions>
          <ns3:TrackPointExtension>
            <ns3:atemp>16.0</ns3:atemp>
          </ns3:TrackPointExtension>
        </extensions>
      </trkpt>
      <trkpt lat="46.73247660510241985321044921875" lon="6.85340185649693012237548828125">
        <ele>525.79998779296875</ele>
        <time>2013-09-01T15:30:05.000Z</time>
        <extensions>
          <ns3:TrackPointExtension>
            <ns3:atemp>16.0</ns3:atemp>
          </ns3:TrackPointExtension>
        </extensions>
      </trkpt>
      <trkpt lat="46.73249906860291957855224609375" lon="6.8534428440034389495849609375">
        <ele>526</ele>
        <time>2013-09-01T15:30:06.000Z</time>
        <extensions>
          <ns3:TrackPointExtension>
            <ns3:atemp>16.0</ns3:atemp>
          </ns3:TrackPointExtension>
        </extensions>
      </trkpt>
      <trkpt lat="46.732521615922451019287109375" lon="6.85348433442413806915283203125">
        <ele>526.20001220703125</ele>
        <time>2013-09-01T15:30:07.000Z</time>
        <extensions>
          <ns3:TrackPointExtension>
            <ns3:atemp>16.0</ns3:atemp>
          </ns3:TrackPointExtension>
        </extensions>
      </trkpt>
      <trkpt lat="46.73254366032779216766357421875" lon="6.85352490283548831939697265625">
        <ele>526.4000244140625</ele>
        <time>2013-09-01T15:30:08.000Z</time>
        <extensions>
          <ns3:TrackPointExtension>
            <ns3:atemp>16.0</ns3:atemp>
          </ns3:TrackPointExtension>
        </extensions>
      </trkpt>
      <trkpt lat="46.73256260342895984649658203125" lon="6.85357016511261463165283203125">
        <ele>526.5999755859375</ele>
        <time>2013-09-01T15:30:09.000Z</time>
        <extensions>
          <ns3:TrackPointExtension>
            <ns3:atemp>16.0</ns3:atemp>
          </ns3:TrackPointExtension>
        </extensions>
      </trkpt>
      <trkpt lat="46.7325831390917301177978515625" lon="6.85361710377037525177001953125">
        <ele>526.79998779296875</ele>
        <time>2013-09-01T15:30:10.000Z</time>
        <extensions>
          <ns3:TrackPointExtension>
            <ns3:atemp>16.0</ns3:atemp>
          </ns3:TrackPointExtension>
        </extensions>
      </trkpt>
      <trkpt lat="46.7326086200773715972900390625" lon="6.85365515761077404022216796875">
        <ele>526.79998779296875</ele>
        <time>2013-09-01T15:30:11.000Z</time>
        <extensions>
          <ns3:TrackPointExtension>
            <ns3:atemp>16.0</ns3:atemp>
          </ns3:TrackPointExtension>
        </extensions>
      </trkpt>
      <trkpt lat="46.732632927596569061279296875" lon="6.85369589366018772125244140625">
        <ele>526.79998779296875</ele>
        <time>2013-09-01T15:30:12.000Z</time>
        <extensions>
          <ns3:TrackPointExtension>
            <ns3:atemp>16.0</ns3:atemp>
          </ns3:TrackPointExtension>
        </extensions>
      </trkpt>
      <trkpt lat="46.732658408582210540771484375" lon="6.85373344458639621734619140625">
        <ele>526.5999755859375</ele>
        <time>2013-09-01T15:30:13.000Z</time>
        <extensions>
          <ns3:TrackPointExtension>
            <ns3:atemp>16.0</ns3:atemp>
          </ns3:TrackPointExtension>
        </extensions>
      </trkpt>
      <trkpt lat="46.7326880805194377899169921875" lon="6.8537660501897335052490234375">
        <ele>526.4000244140625</ele>
        <time>2013-09-01T15:30:14.000Z</time>
        <extensions>
          <ns3:TrackPointExtension>
            <ns3:atemp>16.0</ns3:atemp>
          </ns3:TrackPointExtension>
        </extensions>
      </trkpt>
      <trkpt lat="46.732718758285045623779296875" lon="6.85380184091627597808837890625">
        <ele>526.4000244140625</ele>
        <time>2013-09-01T15:30:15.000Z</time>
        <extensions>
          <ns3:TrackPointExtension>
            <ns3:atemp>16.0</ns3:atemp>
          </ns3:TrackPointExtension>
        </extensions>
      </trkpt>
      <trkpt lat="46.73274616710841655731201171875" lon="6.853833608329296112060546875">
        <ele>526.79998779296875</ele>
        <time>2013-09-01T15:30:16.000Z</time>
        <extensions>
          <ns3:TrackPointExtension>
            <ns3:atemp>16.0</ns3:atemp>
          </ns3:TrackPointExtension>
        </extensions>
      </trkpt>
      <trkpt lat="46.73277751542627811431884765625" lon="6.85386411845684051513671875">
        <ele>527</ele>
        <time>2013-09-01T15:30:17.000Z</time>
        <extensions>
          <ns3:TrackPointExtension>
            <ns3:atemp>16.0</ns3:atemp>
          </ns3:TrackPointExtension>
        </extensions>
      </trkpt>
      <trkpt lat="46.73281355760991573333740234375" lon="6.853885911405086517333984375">
        <ele>527.20001220703125</ele>
        <time>2013-09-01T15:30:18.000Z</time>
        <extensions>
          <ns3:TrackPointExtension>
            <ns3:atemp>16.0</ns3:atemp>
          </ns3:TrackPointExtension>
        </extensions>
      </trkpt>
      <trkpt lat="46.73284943215548992156982421875" lon="6.85389697551727294921875">
        <ele>527.4000244140625</ele>
        <time>2013-09-01T15:30:19.000Z</time>
        <extensions>
          <ns3:TrackPointExtension>
            <ns3:atemp>16.0</ns3:atemp>
          </ns3:TrackPointExtension>
        </extensions>
      </trkpt>
      <trkpt lat="46.73288446851074695587158203125" lon="6.8539025075733661651611328125">
        <ele>527.5999755859375</ele>
        <time>2013-09-01T15:30:20.000Z</time>
        <extensions>
          <ns3:TrackPointExtension>
            <ns3:atemp>16.0</ns3:atemp>
          </ns3:TrackPointExtension>
        </extensions>
      </trkpt>
      <trkpt lat="46.7329237796366214752197265625" lon="6.85390292666852474212646484375">
        <ele>527.79998779296875</ele>
        <time>2013-09-01T15:30:21.000Z</time>
        <extensions>
          <ns3:TrackPointExtension>
            <ns3:atemp>16.0</ns3:atemp>
          </ns3:TrackPointExtension>
        </extensions>
      </trkpt>
      <trkpt lat="46.73296459950506687164306640625" lon="6.85389387421309947967529296875">
        <ele>527.79998779296875</ele>
        <time>2013-09-01T15:30:22.000Z</time>
        <extensions>
          <ns3:TrackPointExtension>
            <ns3:atemp>16.0</ns3:atemp>
          </ns3:TrackPointExtension>
        </extensions>
      </trkpt>
      <trkpt lat="46.73300617374479770660400390625" lon="6.853885240852832794189453125">
        <ele>528</ele>
        <time>2013-09-01T15:30:23.000Z</time>
        <extensions>
          <ns3:TrackPointExtension>
            <ns3:atemp>16.0</ns3:atemp>
          </ns3:TrackPointExtension>
        </extensions>
      </trkpt>
      <trkpt lat="46.733047328889369964599609375" lon="6.85388155281543731689453125">
        <ele>528.20001220703125</ele>
        <time>2013-09-01T15:30:24.000Z</time>
        <extensions>
          <ns3:TrackPointExtension>
            <ns3:atemp>16.0</ns3:atemp>
          </ns3:TrackPointExtension>
        </extensions>
      </trkpt>
      <trkpt lat="46.73308613710105419158935546875" lon="6.85388582758605480194091796875">
        <ele>528.20001220703125</ele>
        <time>2013-09-01T15:30:25.000Z</time>
        <extensions>
          <ns3:TrackPointExtension>
            <ns3:atemp>16.0</ns3:atemp>
          </ns3:TrackPointExtension>
        </extensions>
      </trkpt>
      <trkpt lat="46.7331256158649921417236328125" lon="6.85389672406017780303955078125">
        <ele>528.4000244140625</ele>
        <time>2013-09-01T15:30:26.000Z</time>
        <extensions>
          <ns3:TrackPointExtension>
            <ns3:atemp>16.0</ns3:atemp>
          </ns3:TrackPointExtension>
        </extensions>
      </trkpt>
      <trkpt lat="46.73316392116248607635498046875" lon="6.8539011664688587188720703125">
        <ele>528.5999755859375</ele>
        <time>2013-09-01T15:30:27.000Z</time>
        <extensions>
          <ns3:TrackPointExtension>
            <ns3:atemp>16.0</ns3:atemp>
          </ns3:TrackPointExtension>
        </extensions>
      </trkpt>
      <trkpt lat="46.73320130445063114166259765625" lon="6.8538956344127655029296875">
        <ele>528.79998779296875</ele>
        <time>2013-09-01T15:30:28.000Z</time>
        <extensions>
          <ns3:TrackPointExtension>
            <ns3:atemp>16.0</ns3:atemp>
          </ns3:TrackPointExtension>
        </extensions>
      </trkpt>
      <trkpt lat="46.73324036411941051483154296875" lon="6.853893287479877471923828125">
        <ele>528.79998779296875</ele>
        <time>2013-09-01T15:30:29.000Z</time>
        <extensions>
          <ns3:TrackPointExtension>
            <ns3:atemp>16.0</ns3:atemp>
          </ns3:TrackPointExtension>
        </extensions>
      </trkpt>
      <trkpt lat="46.733278334140777587890625" lon="6.853895299136638641357421875">
        <ele>529.20001220703125</ele>
        <time>2013-09-01T15:30:30.000Z</time>
        <extensions>
          <ns3:TrackPointExtension>
            <ns3:atemp>16.0</ns3:atemp>
          </ns3:TrackPointExtension>
        </extensions>
      </trkpt>
      <trkpt lat="46.7333153821527957916259765625" lon="6.85389789752662181854248046875">
        <ele>529.4000244140625</ele>
        <time>2013-09-01T15:30:31.000Z</time>
        <extensions>
          <ns3:TrackPointExtension>
            <ns3:atemp>16.0</ns3:atemp>
          </ns3:TrackPointExtension>
        </extensions>
      </trkpt>
      <trkpt lat="46.73335134051740169525146484375" lon="6.8539063632488250732421875">
        <ele>529.5999755859375</ele>
        <time>2013-09-01T15:30:32.000Z</time>
        <extensions>
          <ns3:TrackPointExtension>
            <ns3:atemp>16.0</ns3:atemp>
          </ns3:TrackPointExtension>
        </extensions>
      </trkpt>
      <trkpt lat="46.73338889144361019134521484375" lon="6.853913404047489166259765625">
        <ele>530</ele>
        <time>2013-09-01T15:30:33.000Z</time>
        <extensions>
          <ns3:TrackPointExtension>
            <ns3:atemp>16.0</ns3:atemp>
          </ns3:TrackPointExtension>
        </extensions>
      </trkpt>
      <trkpt lat="46.7334256879985332489013671875" lon="6.85392019338905811309814453125">
        <ele>530.20001220703125</ele>
        <time>2013-09-01T15:30:34.000Z</time>
        <extensions>
          <ns3:TrackPointExtension>
            <ns3:atemp>16.0</ns3:atemp>
          </ns3:TrackPointExtension>
        </extensions>
      </trkpt>
      <trkpt lat="46.7334602214395999908447265625" lon="6.8539232946932315826416015625">
        <ele>530.4000244140625</ele>
        <time>2013-09-01T15:30:35.000Z</time>
        <extensions>
          <ns3:TrackPointExtension>
            <ns3:atemp>16.0</ns3:atemp>
          </ns3:TrackPointExtension>
        </extensions>
      </trkpt>
      <trkpt lat="46.7334944196045398712158203125" lon="6.85393259860575199127197265625">
        <ele>530.5999755859375</ele>
        <time>2013-09-01T15:30:36.000Z</time>
        <extensions>
          <ns3:TrackPointExtension>
            <ns3:atemp>16.0</ns3:atemp>
          </ns3:TrackPointExtension>
        </extensions>
      </trkpt>
      <trkpt lat="46.73352777957916259765625" lon="6.8539464287459850311279296875">
        <ele>530.79998779296875</ele>
        <time>2013-09-01T15:30:37.000Z</time>
        <extensions>
          <ns3:TrackPointExtension>
            <ns3:atemp>16.0</ns3:atemp>
          </ns3:TrackPointExtension>
        </extensions>
      </trkpt>
      <trkpt lat="46.73356021754443645477294921875" lon="6.8539578281342983245849609375">
        <ele>531.20001220703125</ele>
        <time>2013-09-01T15:30:38.000Z</time>
        <extensions>
          <ns3:TrackPointExtension>
            <ns3:atemp>16.0</ns3:atemp>
          </ns3:TrackPointExtension>
        </extensions>
      </trkpt>
      <trkpt lat="46.7335956729948520660400390625" lon="6.853969059884548187255859375">
        <ele>531</ele>
        <time>2013-09-01T15:30:39.000Z</time>
        <extensions>
          <ns3:TrackPointExtension>
            <ns3:atemp>16.0</ns3:atemp>
          </ns3:TrackPointExtension>
        </extensions>
      </trkpt>
      <trkpt lat="46.73363037407398223876953125" lon="6.853980459272861480712890625">
        <ele>531.4000244140625</ele>
        <time>2013-09-01T15:30:40.000Z</time>
        <extensions>
          <ns3:TrackPointExtension>
            <ns3:atemp>16.0</ns3:atemp>
          </ns3:TrackPointExtension>
        </extensions>
      </trkpt>
      <trkpt lat="46.7336630634963512420654296875" lon="6.85398456640541553497314453125">
        <ele>531.4000244140625</ele>
        <time>2013-09-01T15:30:41.000Z</time>
        <extensions>
          <ns3:TrackPointExtension>
            <ns3:atemp>16.0</ns3:atemp>
          </ns3:TrackPointExtension>
        </extensions>
      </trkpt>
      <trkpt lat="46.73369332216680049896240234375" lon="6.853979118168354034423828125">
        <ele>531.5999755859375</ele>
        <time>2013-09-01T15:30:42.000Z</time>
        <extensions>
          <ns3:TrackPointExtension>
            <ns3:atemp>16.0</ns3:atemp>
          </ns3:TrackPointExtension>
        </extensions>
      </trkpt>
      <trkpt lat="46.73371947370469570159912109375" lon="6.85397132299840450286865234375">
        <ele>532</ele>
        <time>2013-09-01T15:30:43.000Z</time>
        <extensions>
          <ns3:TrackPointExtension>
            <ns3:atemp>16.0</ns3:atemp>
          </ns3:TrackPointExtension>
        </extensions>
      </trkpt>
      <trkpt lat="46.73374629579484462738037109375" lon="6.85395807959139347076416015625">
        <ele>532.20001220703125</ele>
        <time>2013-09-01T15:30:44.000Z</time>
        <extensions>
          <ns3:TrackPointExtension>
            <ns3:atemp>16.0</ns3:atemp>
          </ns3:TrackPointExtension>
        </extensions>
      </trkpt>
      <trkpt lat="46.73378334380686283111572265625" lon="6.85395271517336368560791015625">
        <ele>532</ele>
        <time>2013-09-01T15:30:45.000Z</time>
        <extensions>
          <ns3:TrackPointExtension>
            <ns3:atemp>16.0</ns3:atemp>
          </ns3:TrackPointExtension>
        </extensions>
      </trkpt>
      <trkpt lat="46.7338206432759761810302734375" lon="6.85394600965082645416259765625">
        <ele>532</ele>
        <time>2013-09-01T15:30:46.000Z</time>
        <extensions>
          <ns3:TrackPointExtension>
            <ns3:atemp>16.0</ns3:atemp>
          </ns3:TrackPointExtension>
        </extensions>
      </trkpt>
      <trkpt lat="46.73385777510702610015869140625" lon="6.85394366271793842315673828125">
        <ele>532.20001220703125</ele>
        <time>2013-09-01T15:30:47.000Z</time>
        <extensions>
          <ns3:TrackPointExtension>
            <ns3:atemp>16.0</ns3:atemp>
          </ns3:TrackPointExtension>
        </extensions>
      </trkpt>
      <trkpt lat="46.73389323055744171142578125" lon="6.85394315980374813079833984375">
        <ele>532.5999755859375</ele>
        <time>2013-09-01T15:30:48.000Z</time>
        <extensions>
          <ns3:TrackPointExtension>
            <ns3:atemp>16.0</ns3:atemp>
          </ns3:TrackPointExtension>
        </extensions>
      </trkpt>
      <trkpt lat="46.73393103294074535369873046875" lon="6.85394651256501674652099609375">
        <ele>532.5999755859375</ele>
        <time>2013-09-01T15:30:49.000Z</time>
        <extensions>
          <ns3:TrackPointExtension>
            <ns3:atemp>16.0</ns3:atemp>
          </ns3:TrackPointExtension>
        </extensions>
      </trkpt>
      <trkpt lat="46.733967997133731842041015625" lon="6.85394668020308017730712890625">
        <ele>532.5999755859375</ele>
        <time>2013-09-01T15:30:50.000Z</time>
        <extensions>
          <ns3:TrackPointExtension>
            <ns3:atemp>16.0</ns3:atemp>
          </ns3:TrackPointExtension>
        </extensions>
      </trkpt>
      <trkpt lat="46.73400378786027431488037109375" lon="6.8539497815072536468505859375">
        <ele>532.5999755859375</ele>
        <time>2013-09-01T15:30:51.000Z</time>
        <extensions>
          <ns3:TrackPointExtension>
            <ns3:atemp>16.0</ns3:atemp>
          </ns3:TrackPointExtension>
        </extensions>
      </trkpt>
      <trkpt lat="46.73403748311102390289306640625" lon="6.85395690612494945526123046875">
        <ele>532.5999755859375</ele>
        <time>2013-09-01T15:30:52.000Z</time>
        <extensions>
          <ns3:TrackPointExtension>
            <ns3:atemp>16.0</ns3:atemp>
          </ns3:TrackPointExtension>
        </extensions>
      </trkpt>
      <trkpt lat="46.7340704239904880523681640625" lon="6.85397299937903881072998046875">
        <ele>532.5999755859375</ele>
        <time>2013-09-01T15:30:53.000Z</time>
        <extensions>
          <ns3:TrackPointExtension>
            <ns3:atemp>16.0</ns3:atemp>
          </ns3:TrackPointExtension>
        </extensions>
      </trkpt>
      <trkpt lat="46.7341012693941593170166015625" lon="6.8539963848888874053955078125">
        <ele>532.79998779296875</ele>
        <time>2013-09-01T15:30:54.000Z</time>
        <extensions>
          <ns3:TrackPointExtension>
            <ns3:atemp>16.0</ns3:atemp>
          </ns3:TrackPointExtension>
        </extensions>
      </trkpt>
      <trkpt lat="46.73413194715976715087890625" lon="6.85402446426451206207275390625">
        <ele>533</ele>
        <time>2013-09-01T15:30:55.000Z</time>
        <extensions>
          <ns3:TrackPointExtension>
            <ns3:atemp>16.0</ns3:atemp>
          </ns3:TrackPointExtension>
        </extensions>
      </trkpt>
      <trkpt lat="46.73416187055408954620361328125" lon="6.8540530465543270111083984375">
        <ele>533.20001220703125</ele>
        <time>2013-09-01T15:30:56.000Z</time>
        <extensions>
          <ns3:TrackPointExtension>
            <ns3:atemp>16.0</ns3:atemp>
          </ns3:TrackPointExtension>
        </extensions>
      </trkpt>
      <trkpt lat="46.73419296741485595703125" lon="6.85408414341509342193603515625">
        <ele>533.4000244140625</ele>
        <time>2013-09-01T15:30:57.000Z</time>
        <extensions>
          <ns3:TrackPointExtension>
            <ns3:atemp>16.0</ns3:atemp>
          </ns3:TrackPointExtension>
        </extensions>
      </trkpt>
      <trkpt lat="46.73422272317111492156982421875" lon="6.85411130078136920928955078125">
        <ele>533.4000244140625</ele>
        <time>2013-09-01T15:30:58.000Z</time>
        <extensions>
          <ns3:TrackPointExtension>
            <ns3:atemp>16.0</ns3:atemp>
          </ns3:TrackPointExtension>
        </extensions>
      </trkpt>
      <trkpt lat="46.7342506349086761474609375" lon="6.854135692119598388671875">
        <ele>533.5999755859375</ele>
        <time>2013-09-01T15:30:59.000Z</time>
        <extensions>
          <ns3:TrackPointExtension>
            <ns3:atemp>16.0</ns3:atemp>
          </ns3:TrackPointExtension>
        </extensions>
      </trkpt>
      <trkpt lat="46.7342789657413959503173828125" lon="6.8541640229523181915283203125">
        <ele>533.79998779296875</ele>
        <time>2013-09-01T15:31:00.000Z</time>
        <extensions>
          <ns3:TrackPointExtension>
            <ns3:atemp>16.0</ns3:atemp>
          </ns3:TrackPointExtension>
        </extensions>
      </trkpt>
      <trkpt lat="46.7343054525554180145263671875" lon="6.8541908450424671173095703125">
        <ele>534</ele>
        <time>2013-09-01T15:31:01.000Z</time>
        <extensions>
          <ns3:TrackPointExtension>
            <ns3:atemp>16.0</ns3:atemp>
          </ns3:TrackPointExtension>
        </extensions>
      </trkpt>
      <trkpt lat="46.73433219082653522491455078125" lon="6.85421423055231571197509765625">
        <ele>534</ele>
        <time>2013-09-01T15:31:02.000Z</time>
        <extensions>
          <ns3:TrackPointExtension>
            <ns3:atemp>16.0</ns3:atemp>
          </ns3:TrackPointExtension>
        </extensions>
      </trkpt>
      <trkpt lat="46.73435934819281101226806640625" lon="6.85423602350056171417236328125">
        <ele>534</ele>
        <time>2013-09-01T15:31:03.000Z</time>
        <extensions>
          <ns3:TrackPointExtension>
            <ns3:atemp>16.0</ns3:atemp>
          </ns3:TrackPointExtension>
        </extensions>
      </trkpt>
      <trkpt lat="46.73438432626426219940185546875" lon="6.8542629294097423553466796875">
        <ele>534.20001220703125</ele>
        <time>2013-09-01T15:31:04.000Z</time>
        <extensions>
          <ns3:TrackPointExtension>
            <ns3:atemp>16.0</ns3:atemp>
          </ns3:TrackPointExtension>
        </extensions>
      </trkpt>
      <trkpt lat="46.73441316001117229461669921875" lon="6.85428715310990810394287109375">
        <ele>534.20001220703125</ele>
        <time>2013-09-01T15:31:05.000Z</time>
        <extensions>
          <ns3:TrackPointExtension>
            <ns3:atemp>16.0</ns3:atemp>
          </ns3:TrackPointExtension>
        </extensions>
      </trkpt>
      <trkpt lat="46.7344415746629238128662109375" lon="6.8543125502765178680419921875">
        <ele>534.20001220703125</ele>
        <time>2013-09-01T15:31:06.000Z</time>
        <extensions>
          <ns3:TrackPointExtension>
            <ns3:atemp>16.0</ns3:atemp>
          </ns3:TrackPointExtension>
        </extensions>
      </trkpt>
      <trkpt lat="46.73446680419147014617919921875" lon="6.8543380312621593475341796875">
        <ele>534.20001220703125</ele>
        <time>2013-09-01T15:31:07.000Z</time>
        <extensions>
          <ns3:TrackPointExtension>
            <ns3:atemp>16.0</ns3:atemp>
          </ns3:TrackPointExtension>
        </extensions>
      </trkpt>
      <trkpt lat="46.73449245281517505645751953125" lon="6.85436678119003772735595703125">
        <ele>534.4000244140625</ele>
        <time>2013-09-01T15:31:08.000Z</time>
        <extensions>
          <ns3:TrackPointExtension>
            <ns3:atemp>16.0</ns3:atemp>
          </ns3:TrackPointExtension>
        </extensions>
      </trkpt>
      <trkpt lat="46.73451910726726055145263671875" lon="6.8543930165469646453857421875">
        <ele>534.79998779296875</ele>
        <time>2013-09-01T15:31:09.000Z</time>
        <extensions>
          <ns3:TrackPointExtension>
            <ns3:atemp>16.0</ns3:atemp>
          </ns3:TrackPointExtension>
        </extensions>
      </trkpt>
      <trkpt lat="46.73454626463353633880615234375" lon="6.8544186651706695556640625">
        <ele>534.79998779296875</ele>
        <time>2013-09-01T15:31:10.000Z</time>
        <extensions>
          <ns3:TrackPointExtension>
            <ns3:atemp>16.0</ns3:atemp>
          </ns3:TrackPointExtension>
        </extensions>
      </trkpt>
      <trkpt lat="46.734573505818843841552734375" lon="6.8544436432421207427978515625">
        <ele>535</ele>
        <time>2013-09-01T15:31:11.000Z</time>
        <extensions>
          <ns3:TrackPointExtension>
            <ns3:atemp>16.0</ns3:atemp>
          </ns3:TrackPointExtension>
        </extensions>
      </trkpt>
      <trkpt lat="46.7345994897186756134033203125" lon="6.854468286037445068359375">
        <ele>535.20001220703125</ele>
        <time>2013-09-01T15:31:12.000Z</time>
        <extensions>
          <ns3:TrackPointExtension>
            <ns3:atemp>16.0</ns3:atemp>
          </ns3:TrackPointExtension>
        </extensions>
      </trkpt>
      <trkpt lat="46.7346276529133319854736328125" lon="6.854487396776676177978515625">
        <ele>535.20001220703125</ele>
        <time>2013-09-01T15:31:13.000Z</time>
        <extensions>
          <ns3:TrackPointExtension>
            <ns3:atemp>16.0</ns3:atemp>
          </ns3:TrackPointExtension>
        </extensions>
      </trkpt>
      <trkpt lat="46.73465623520314693450927734375" lon="6.854509525001049041748046875">
        <ele>535.20001220703125</ele>
        <time>2013-09-01T15:31:14.000Z</time>
        <extensions>
          <ns3:TrackPointExtension>
            <ns3:atemp>16.0</ns3:atemp>
          </ns3:TrackPointExtension>
        </extensions>
      </trkpt>
      <trkpt lat="46.73468138091266155242919921875" lon="6.85453592799603939056396484375">
        <ele>535.20001220703125</ele>
        <time>2013-09-01T15:31:15.000Z</time>
        <extensions>
          <ns3:TrackPointExtension>
            <ns3:atemp>17.0</ns3:atemp>
          </ns3:TrackPointExtension>
        </extensions>
      </trkpt>
      <trkpt lat="46.73471021465957164764404296875" lon="6.85455453582108020782470703125">
        <ele>535.4000244140625</ele>
        <time>2013-09-01T15:31:16.000Z</time>
        <extensions>
          <ns3:TrackPointExtension>
            <ns3:atemp>17.0</ns3:atemp>
          </ns3:TrackPointExtension>
        </extensions>
      </trkpt>
      <trkpt lat="46.73473435454070568084716796875" lon="6.8545693717896938323974609375">
        <ele>535.5999755859375</ele>
        <time>2013-09-01T15:31:17.000Z</time>
        <extensions>
          <ns3:TrackPointExtension>
            <ns3:atemp>17.0</ns3:atemp>
          </ns3:TrackPointExtension>
        </extensions>
      </trkpt>
      <trkpt lat="46.73476360738277435302734375" lon="6.85457834042608737945556640625">
        <ele>535.79998779296875</ele>
        <time>2013-09-01T15:31:18.000Z</time>
        <extensions>
          <ns3:TrackPointExtension>
            <ns3:atemp>17.0</ns3:atemp>
          </ns3:TrackPointExtension>
        </extensions>
      </trkpt>
      <trkpt lat="46.73479671590030193328857421875" lon="6.85458655469119548797607421875">
        <ele>536</ele>
        <time>2013-09-01T15:31:19.000Z</time>
        <extensions>
          <ns3:TrackPointExtension>
            <ns3:atemp>17.0</ns3:atemp>
          </ns3:TrackPointExtension>
        </extensions>
      </trkpt>
      <trkpt lat="46.73483141697943210601806640625" lon="6.8545931763947010040283203125">
        <ele>536.4000244140625</ele>
        <time>2013-09-01T15:31:20.000Z</time>
        <extensions>
          <ns3:TrackPointExtension>
            <ns3:atemp>17.0</ns3:atemp>
          </ns3:TrackPointExtension>
        </extensions>
      </trkpt>
      <trkpt lat="46.73486310057342052459716796875" lon="6.85460365377366542816162109375">
        <ele>536.79998779296875</ele>
        <time>2013-09-01T15:31:21.000Z</time>
        <extensions>
          <ns3:TrackPointExtension>
            <ns3:atemp>17.0</ns3:atemp>
          </ns3:TrackPointExtension>
        </extensions>
      </trkpt>
      <trkpt lat="46.73489377833902835845947265625" lon="6.8546210043132305145263671875">
        <ele>537.4000244140625</ele>
        <time>2013-09-01T15:31:22.000Z</time>
        <extensions>
          <ns3:TrackPointExtension>
            <ns3:atemp>17.0</ns3:atemp>
          </ns3:TrackPointExtension>
        </extensions>
      </trkpt>
      <trkpt lat="46.7349216900765895843505859375" lon="6.85463584028184413909912109375">
        <ele>538</ele>
        <time>2013-09-01T15:31:23.000Z</time>
        <extensions>
          <ns3:TrackPointExtension>
            <ns3:atemp>17.0</ns3:atemp>
          </ns3:TrackPointExtension>
        </extensions>
      </trkpt>
      <trkpt lat="46.734953038394451141357421875" lon="6.8546495027840137481689453125">
        <ele>538.4000244140625</ele>
        <time>2013-09-01T15:31:24.000Z</time>
        <extensions>
          <ns3:TrackPointExtension>
            <ns3:atemp>17.0</ns3:atemp>
          </ns3:TrackPointExtension>
        </extensions>
      </trkpt>
      <trkpt lat="46.7349806986749172210693359375" lon="6.85465746559202671051025390625">
        <ele>538.79998779296875</ele>
        <time>2013-09-01T15:31:25.000Z</time>
        <extensions>
          <ns3:TrackPointExtension>
            <ns3:atemp>17.0</ns3:atemp>
          </ns3:TrackPointExtension>
        </extensions>
      </trkpt>
      <trkpt lat="46.73501028679311275482177734375" lon="6.85466752387583255767822265625">
        <ele>538.79998779296875</ele>
        <time>2013-09-01T15:31:26.000Z</time>
        <extensions>
          <ns3:TrackPointExtension>
            <ns3:atemp>17.0</ns3:atemp>
          </ns3:TrackPointExtension>
        </extensions>
      </trkpt>
      <trkpt lat="46.73504046164453029632568359375" lon="6.85467657633125782012939453125">
        <ele>539</ele>
        <time>2013-09-01T15:31:27.000Z</time>
        <extensions>
          <ns3:TrackPointExtension>
            <ns3:atemp>17.0</ns3:atemp>
          </ns3:TrackPointExtension>
        </extensions>
      </trkpt>
      <trkpt lat="46.7350675351917743682861328125" lon="6.854687221348285675048828125">
        <ele>539.4000244140625</ele>
        <time>2013-09-01T15:31:28.000Z</time>
        <extensions>
          <ns3:TrackPointExtension>
            <ns3:atemp>17.0</ns3:atemp>
          </ns3:TrackPointExtension>
        </extensions>
      </trkpt>
      <trkpt lat="46.7350955307483673095703125" lon="6.8547044880688190460205078125">
        <ele>539.5999755859375</ele>
        <time>2013-09-01T15:31:29.000Z</time>
        <extensions>
          <ns3:TrackPointExtension>
            <ns3:atemp>17.0</ns3:atemp>
          </ns3:TrackPointExtension>
        </extensions>
      </trkpt>
      <trkpt lat="46.73512143082916736602783203125" lon="6.8547259457409381866455078125">
        <ele>539.79998779296875</ele>
        <time>2013-09-01T15:31:30.000Z</time>
        <extensions>
          <ns3:TrackPointExtension>
            <ns3:atemp>17.0</ns3:atemp>
          </ns3:TrackPointExtension>
        </extensions>
      </trkpt>
      <trkpt lat="46.73515009693801403045654296875" lon="6.85473944060504436492919921875">
        <ele>539.79998779296875</ele>
        <time>2013-09-01T15:31:31.000Z</time>
        <extensions>
          <ns3:TrackPointExtension>
            <ns3:atemp>17.0</ns3:atemp>
          </ns3:TrackPointExtension>
        </extensions>
      </trkpt>
      <trkpt lat="46.7351811937987804412841796875" lon="6.85475352220237255096435546875">
        <ele>539.79998779296875</ele>
        <time>2013-09-01T15:31:32.000Z</time>
        <extensions>
          <ns3:TrackPointExtension>
            <ns3:atemp>17.0</ns3:atemp>
          </ns3:TrackPointExtension>
        </extensions>
      </trkpt>
      <trkpt lat="46.73520776443183422088623046875" lon="6.85477430932223796844482421875">
        <ele>539.79998779296875</ele>
        <time>2013-09-01T15:31:33.000Z</time>
        <extensions>
          <ns3:TrackPointExtension>
            <ns3:atemp>17.0</ns3:atemp>
          </ns3:TrackPointExtension>
        </extensions>
      </trkpt>
      <trkpt lat="46.73523559235036373138427734375" lon="6.8547968566417694091796875">
        <ele>539.79998779296875</ele>
        <time>2013-09-01T15:31:34.000Z</time>
        <extensions>
          <ns3:TrackPointExtension>
            <ns3:atemp>17.0</ns3:atemp>
          </ns3:TrackPointExtension>
        </extensions>
      </trkpt>
      <trkpt lat="46.7352643422782421112060546875" lon="6.85481630265712738037109375">
        <ele>539.5999755859375</ele>
        <time>2013-09-01T15:31:35.000Z</time>
        <extensions>
          <ns3:TrackPointExtension>
            <ns3:atemp>17.0</ns3:atemp>
          </ns3:TrackPointExtension>
        </extensions>
      </trkpt>
      <trkpt lat="46.7352935113012790679931640625" lon="6.85483868233859539031982421875">
        <ele>539.4000244140625</ele>
        <time>2013-09-01T15:31:36.000Z</time>
        <extensions>
          <ns3:TrackPointExtension>
            <ns3:atemp>17.0</ns3:atemp>
          </ns3:TrackPointExtension>
        </extensions>
      </trkpt>
      <trkpt lat="46.735321171581745147705078125" lon="6.8548593856394290924072265625">
        <ele>539</ele>
        <time>2013-09-01T15:31:37.000Z</time>
        <extensions>
          <ns3:TrackPointExtension>
            <ns3:atemp>17.0</ns3:atemp>
          </ns3:TrackPointExtension>
        </extensions>
      </trkpt>
      <trkpt lat="46.73534673638641834259033203125" lon="6.8548858724534511566162109375">
        <ele>539</ele>
        <time>2013-09-01T15:31:38.000Z</time>
        <extensions>
          <ns3:TrackPointExtension>
            <ns3:atemp>17.0</ns3:atemp>
          </ns3:TrackPointExtension>
        </extensions>
      </trkpt>
      <trkpt lat="46.73537439666688442230224609375" lon="6.85490992851555347442626953125">
        <ele>539.4000244140625</ele>
        <time>2013-09-01T15:31:39.000Z</time>
        <extensions>
          <ns3:TrackPointExtension>
            <ns3:atemp>17.0</ns3:atemp>
          </ns3:TrackPointExtension>
        </extensions>
      </trkpt>
      <trkpt lat="46.73540440388023853302001953125" lon="6.85493155382573604583740234375">
        <ele>539.5999755859375</ele>
        <time>2013-09-01T15:31:40.000Z</time>
        <extensions>
          <ns3:TrackPointExtension>
            <ns3:atemp>17.0</ns3:atemp>
          </ns3:TrackPointExtension>
        </extensions>
      </trkpt>
      <trkpt lat="46.73543952405452728271484375" lon="6.85495041310787200927734375">
        <ele>539.5999755859375</ele>
        <time>2013-09-01T15:31:41.000Z</time>
        <extensions>
          <ns3:TrackPointExtension>
            <ns3:atemp>17.0</ns3:atemp>
          </ns3:TrackPointExtension>
        </extensions>
      </trkpt>
      <trkpt lat="46.73546927981078624725341796875" lon="6.8549712002277374267578125">
        <ele>539.4000244140625</ele>
        <time>2013-09-01T15:31:42.000Z</time>
        <extensions>
          <ns3:TrackPointExtension>
            <ns3:atemp>17.0</ns3:atemp>
          </ns3:TrackPointExtension>
        </extensions>
      </trkpt>
      <trkpt lat="46.73550163395702838897705078125" lon="6.85498570092022418975830078125">
        <ele>539.20001220703125</ele>
        <time>2013-09-01T15:31:43.000Z</time>
        <extensions>
          <ns3:TrackPointExtension>
            <ns3:atemp>17.0</ns3:atemp>
          </ns3:TrackPointExtension>
        </extensions>
      </trkpt>
      <trkpt lat="46.7355380952358245849609375" lon="6.855004727840423583984375">
        <ele>539.4000244140625</ele>
        <time>2013-09-01T15:31:44.000Z</time>
        <extensions>
          <ns3:TrackPointExtension>
            <ns3:atemp>17.0</ns3:atemp>
          </ns3:TrackPointExtension>
        </extensions>
      </trkpt>
      <trkpt lat="46.7355702817440032958984375" lon="6.8550276942551136016845703125">
        <ele>539.79998779296875</ele>
        <time>2013-09-01T15:31:45.000Z</time>
        <extensions>
          <ns3:TrackPointExtension>
            <ns3:atemp>17.0</ns3:atemp>
          </ns3:TrackPointExtension>
        </extensions>
      </trkpt>
      <trkpt lat="46.73560003750026226043701171875" lon="6.8550504930317401885986328125">
        <ele>540.20001220703125</ele>
        <time>2013-09-01T15:31:46.000Z</time>
        <extensions>
          <ns3:TrackPointExtension>
            <ns3:atemp>17.0</ns3:atemp>
          </ns3:TrackPointExtension>
        </extensions>
      </trkpt>
      <trkpt lat="46.7356294579803943634033203125" lon="6.85506750829517841339111328125">
        <ele>540.20001220703125</ele>
        <time>2013-09-01T15:31:47.000Z</time>
        <extensions>
          <ns3:TrackPointExtension>
            <ns3:atemp>17.0</ns3:atemp>
          </ns3:TrackPointExtension>
        </extensions>
      </trkpt>
      <trkpt lat="46.73566281795501708984375" lon="6.8550830148160457611083984375">
        <ele>540.4000244140625</ele>
        <time>2013-09-01T15:31:48.000Z</time>
        <extensions>
          <ns3:TrackPointExtension>
            <ns3:atemp>17.0</ns3:atemp>
          </ns3:TrackPointExtension>
        </extensions>
      </trkpt>
      <trkpt lat="46.7356948368251323699951171875" lon="6.85509801842272281646728515625">
        <ele>540.4000244140625</ele>
        <time>2013-09-01T15:31:49.000Z</time>
        <extensions>
          <ns3:TrackPointExtension>
            <ns3:atemp>17.0</ns3:atemp>
          </ns3:TrackPointExtension>
        </extensions>
      </trkpt>
      <trkpt lat="46.73572920262813568115234375" lon="6.855116374790668487548828125">
        <ele>540.79998779296875</ele>
        <time>2013-09-01T15:31:50.000Z</time>
        <extensions>
          <ns3:TrackPointExtension>
            <ns3:atemp>17.0</ns3:atemp>
          </ns3:TrackPointExtension>
        </extensions>
      </trkpt>
      <trkpt lat="46.73576314933598041534423828125" lon="6.85513657517731189727783203125">
        <ele>541</ele>
        <time>2013-09-01T15:31:51.000Z</time>
        <extensions>
          <ns3:TrackPointExtension>
            <ns3:atemp>17.0</ns3:atemp>
          </ns3:TrackPointExtension>
        </extensions>
      </trkpt>
      <trkpt lat="46.73579734750092029571533203125" lon="6.85514898039400577545166015625">
        <ele>541.4000244140625</ele>
        <time>2013-09-01T15:31:52.000Z</time>
        <extensions>
          <ns3:TrackPointExtension>
            <ns3:atemp>17.0</ns3:atemp>
          </ns3:TrackPointExtension>
        </extensions>
      </trkpt>
      <trkpt lat="46.7358331382274627685546875" lon="6.85516037978231906890869140625">
        <ele>541.4000244140625</ele>
        <time>2013-09-01T15:31:53.000Z</time>
        <extensions>
          <ns3:TrackPointExtension>
            <ns3:atemp>17.0</ns3:atemp>
          </ns3:TrackPointExtension>
        </extensions>
      </trkpt>
      <trkpt lat="46.7358654923737049102783203125" lon="6.85517496429383754730224609375">
        <ele>541.4000244140625</ele>
        <time>2013-09-01T15:31:54.000Z</time>
        <extensions>
          <ns3:TrackPointExtension>
            <ns3:atemp>17.0</ns3:atemp>
          </ns3:TrackPointExtension>
        </extensions>
      </trkpt>
      <trkpt lat="46.73590111546218395233154296875" lon="6.85518569312989711761474609375">
        <ele>541.5999755859375</ele>
        <time>2013-09-01T15:31:55.000Z</time>
        <extensions>
          <ns3:TrackPointExtension>
            <ns3:atemp>17.0</ns3:atemp>
          </ns3:TrackPointExtension>
        </extensions>
      </trkpt>
      <trkpt lat="46.73594051040709018707275390625" lon="6.8551976792514324188232421875">
        <ele>541.5999755859375</ele>
        <time>2013-09-01T15:31:56.000Z</time>
        <extensions>
          <ns3:TrackPointExtension>
            <ns3:atemp>17.0</ns3:atemp>
          </ns3:TrackPointExtension>
        </extensions>
      </trkpt>
      <trkpt lat="46.73597638495266437530517578125" lon="6.85521268285810947418212890625">
        <ele>541.79998779296875</ele>
        <time>2013-09-01T15:31:57.000Z</time>
        <extensions>
          <ns3:TrackPointExtension>
            <ns3:atemp>17.0</ns3:atemp>
          </ns3:TrackPointExtension>
        </extensions>
      </trkpt>
      <trkpt lat="46.7360074818134307861328125" lon="6.855227015912532806396484375">
        <ele>542</ele>
        <time>2013-09-01T15:31:58.000Z</time>
        <extensions>
          <ns3:TrackPointExtension>
            <ns3:atemp>17.0</ns3:atemp>
          </ns3:TrackPointExtension>
        </extensions>
      </trkpt>
      <trkpt lat="46.73603363335132598876953125" lon="6.8552426062524318695068359375">
        <ele>542</ele>
        <time>2013-09-01T15:31:59.000Z</time>
        <extensions>
          <ns3:TrackPointExtension>
            <ns3:atemp>17.0</ns3:atemp>
          </ns3:TrackPointExtension>
        </extensions>
      </trkpt>
      <trkpt lat="46.73606405965983867645263671875" lon="6.8552627228200435638427734375">
        <ele>542</ele>
        <time>2013-09-01T15:32:00.000Z</time>
        <extensions>
          <ns3:TrackPointExtension>
            <ns3:atemp>17.0</ns3:atemp>
          </ns3:TrackPointExtension>
        </extensions>
      </trkpt>
      <trkpt lat="46.73609959892928600311279296875" lon="6.85528141446411609649658203125">
        <ele>542</ele>
        <time>2013-09-01T15:32:01.000Z</time>
        <extensions>
          <ns3:TrackPointExtension>
            <ns3:atemp>17.0</ns3:atemp>
          </ns3:TrackPointExtension>
        </extensions>
      </trkpt>
      <trkpt lat="46.7361347191035747528076171875" lon="6.855308823287487030029296875">
        <ele>541.79998779296875</ele>
        <time>2013-09-01T15:32:02.000Z</time>
        <extensions>
          <ns3:TrackPointExtension>
            <ns3:atemp>17.0</ns3:atemp>
          </ns3:TrackPointExtension>
        </extensions>
      </trkpt>
      <trkpt lat="46.7361684143543243408203125" lon="6.8553405068814754486083984375">
        <ele>541.79998779296875</ele>
        <time>2013-09-01T15:32:03.000Z</time>
        <extensions>
          <ns3:TrackPointExtension>
            <ns3:atemp>17.0</ns3:atemp>
          </ns3:TrackPointExtension>
        </extensions>
      </trkpt>
      <trkpt lat="46.73619716428220272064208984375" lon="6.8553643114864826202392578125">
        <ele>542</ele>
        <time>2013-09-01T15:32:04.000Z</time>
        <extensions>
          <ns3:TrackPointExtension>
            <ns3:atemp>17.0</ns3:atemp>
          </ns3:TrackPointExtension>
        </extensions>
      </trkpt>
      <trkpt lat="46.7362316139042377471923828125" lon="6.85538493096828460693359375">
        <ele>542.4000244140625</ele>
        <time>2013-09-01T15:32:05.000Z</time>
        <extensions>
          <ns3:TrackPointExtension>
            <ns3:atemp>17.0</ns3:atemp>
          </ns3:TrackPointExtension>
        </extensions>
      </trkpt>
      <trkpt lat="46.73626162111759185791015625" lon="6.85541041195392608642578125">
        <ele>542.20001220703125</ele>
        <time>2013-09-01T15:32:06.000Z</time>
        <extensions>
          <ns3:TrackPointExtension>
            <ns3:atemp>17.0</ns3:atemp>
          </ns3:TrackPointExtension>
        </extensions>
      </trkpt>
      <trkpt lat="46.73629623837769031524658203125" lon="6.855430863797664642333984375">
        <ele>542</ele>
        <time>2013-09-01T15:32:07.000Z</time>
        <extensions>
          <ns3:TrackPointExtension>
            <ns3:atemp>17.0</ns3:atemp>
          </ns3:TrackPointExtension>
        </extensions>
      </trkpt>
      <trkpt lat="46.736330352723598480224609375" lon="6.85545408166944980621337890625">
        <ele>541.79998779296875</ele>
        <time>2013-09-01T15:32:08.000Z</time>
        <extensions>
          <ns3:TrackPointExtension>
            <ns3:atemp>17.0</ns3:atemp>
          </ns3:TrackPointExtension>
        </extensions>
      </trkpt>
      <trkpt lat="46.73636019229888916015625" lon="6.85548308305442333221435546875">
        <ele>541.79998779296875</ele>
        <time>2013-09-01T15:32:09.000Z</time>
        <extensions>
          <ns3:TrackPointExtension>
            <ns3:atemp>17.0</ns3:atemp>
          </ns3:TrackPointExtension>
        </extensions>
      </trkpt>
      <trkpt lat="46.736393384635448455810546875" lon="6.8555081449449062347412109375">
        <ele>542</ele>
        <time>2013-09-01T15:32:10.000Z</time>
        <extensions>
          <ns3:TrackPointExtension>
            <ns3:atemp>17.0</ns3:atemp>
          </ns3:TrackPointExtension>
        </extensions>
      </trkpt>
      <trkpt lat="46.7364270798861980438232421875" lon="6.85553806833922863006591796875">
        <ele>542</ele>
        <time>2013-09-01T15:32:11.000Z</time>
        <extensions>
          <ns3:TrackPointExtension>
            <ns3:atemp>17.0</ns3:atemp>
          </ns3:TrackPointExtension>
        </extensions>
      </trkpt>
      <trkpt lat="46.73645784147083759307861328125" lon="6.85556891374289989471435546875">
        <ele>542.20001220703125</ele>
        <time>2013-09-01T15:32:12.000Z</time>
        <extensions>
          <ns3:TrackPointExtension>
            <ns3:atemp>17.0</ns3:atemp>
          </ns3:TrackPointExtension>
        </extensions>
      </trkpt>
      <trkpt lat="46.73648902215063571929931640625" lon="6.85559908859431743621826171875">
        <ele>542.5999755859375</ele>
        <time>2013-09-01T15:32:13.000Z</time>
        <extensions>
          <ns3:TrackPointExtension>
            <ns3:atemp>17.0</ns3:atemp>
          </ns3:TrackPointExtension>
        </extensions>
      </trkpt>
      <trkpt lat="46.73652238212525844573974609375" lon="6.8556296825408935546875">
        <ele>543</ele>
        <time>2013-09-01T15:32:14.000Z</time>
        <extensions>
          <ns3:TrackPointExtension>
            <ns3:atemp>17.0</ns3:atemp>
          </ns3:TrackPointExtension>
        </extensions>
      </trkpt>
      <trkpt lat="46.7365554906427860260009765625" lon="6.8556637130677700042724609375">
        <ele>543.20001220703125</ele>
        <time>2013-09-01T15:32:15.000Z</time>
        <extensions>
          <ns3:TrackPointExtension>
            <ns3:atemp>17.0</ns3:atemp>
          </ns3:TrackPointExtension>
        </extensions>
      </trkpt>
      <trkpt lat="46.7365895211696624755859375" lon="6.8556927144527435302734375">
        <ele>543.20001220703125</ele>
        <time>2013-09-01T15:32:16.000Z</time>
        <extensions>
          <ns3:TrackPointExtension>
            <ns3:atemp>17.0</ns3:atemp>
          </ns3:TrackPointExtension>
        </extensions>
      </trkpt>
      <trkpt lat="46.73662296496331691741943359375" lon="6.85572666116058826446533203125">
        <ele>543.20001220703125</ele>
        <time>2013-09-01T15:32:17.000Z</time>
        <extensions>
          <ns3:TrackPointExtension>
            <ns3:atemp>17.0</ns3:atemp>
          </ns3:TrackPointExtension>
        </extensions>
      </trkpt>
      <trkpt lat="46.73665992915630340576171875" lon="6.8557649664580821990966796875">
        <ele>543.20001220703125</ele>
        <time>2013-09-01T15:32:18.000Z</time>
        <extensions>
          <ns3:TrackPointExtension>
            <ns3:atemp>17.0</ns3:atemp>
          </ns3:TrackPointExtension>
        </extensions>
      </trkpt>
      <trkpt lat="46.73669622279703617095947265625" lon="6.85579874552786350250244140625">
        <ele>543.4000244140625</ele>
        <time>2013-09-01T15:32:19.000Z</time>
        <extensions>
          <ns3:TrackPointExtension>
            <ns3:atemp>17.0</ns3:atemp>
          </ns3:TrackPointExtension>
        </extensions>
      </trkpt>
      <trkpt lat="46.73672941513359546661376953125" lon="6.85583931393921375274658203125">
        <ele>543.5999755859375</ele>
        <time>2013-09-01T15:32:20.000Z</time>
        <extensions>
          <ns3:TrackPointExtension>
            <ns3:atemp>17.0</ns3:atemp>
          </ns3:TrackPointExtension>
        </extensions>
      </trkpt>
      <trkpt lat="46.7367623560130596160888671875" lon="6.85587820596992969512939453125">
        <ele>543.79998779296875</ele>
        <time>2013-09-01T15:32:21.000Z</time>
        <extensions>
          <ns3:TrackPointExtension>
            <ns3:atemp>17.0</ns3:atemp>
          </ns3:TrackPointExtension>
        </extensions>
      </trkpt>
      <trkpt lat="46.7367965541779994964599609375" lon="6.85591575689613819122314453125">
        <ele>543.4000244140625</ele>
        <time>2013-09-01T15:32:22.000Z</time>
        <extensions>
          <ns3:TrackPointExtension>
            <ns3:atemp>17.0</ns3:atemp>
          </ns3:TrackPointExtension>
        </extensions>
      </trkpt>
      <trkpt lat="46.73683485947549343109130859375" lon="6.8559486977756023406982421875">
        <ele>543.20001220703125</ele>
        <time>2013-09-01T15:32:23.000Z</time>
        <extensions>
          <ns3:TrackPointExtension>
            <ns3:atemp>17.0</ns3:atemp>
          </ns3:TrackPointExtension>
        </extensions>
      </trkpt>
      <trkpt lat="46.7368786968290805816650390625" lon="6.85597057454288005828857421875">
        <ele>543</ele>
        <time>2013-09-01T15:32:24.000Z</time>
        <extensions>
          <ns3:TrackPointExtension>
            <ns3:atemp>17.0</ns3:atemp>
          </ns3:TrackPointExtension>
        </extensions>
      </trkpt>
      <trkpt lat="46.73692588694393634796142578125" lon="6.8559808842837810516357421875">
        <ele>543</ele>
        <time>2013-09-01T15:32:25.000Z</time>
        <extensions>
          <ns3:TrackPointExtension>
            <ns3:atemp>17.0</ns3:atemp>
          </ns3:TrackPointExtension>
        </extensions>
      </trkpt>
      <trkpt lat="46.7369712330400943756103515625" lon="6.85597074218094348907470703125">
        <ele>543</ele>
        <time>2013-09-01T15:32:26.000Z</time>
        <extensions>
          <ns3:TrackPointExtension>
            <ns3:atemp>17.0</ns3:atemp>
          </ns3:TrackPointExtension>
        </extensions>
      </trkpt>
      <trkpt lat="46.7370087839663028717041015625" lon="6.85594526119530200958251953125">
        <ele>543</ele>
        <time>2013-09-01T15:32:27.000Z</time>
        <extensions>
          <ns3:TrackPointExtension>
            <ns3:atemp>17.0</ns3:atemp>
          </ns3:TrackPointExtension>
        </extensions>
      </trkpt>
      <trkpt lat="46.737051196396350860595703125" lon="6.85594744049012660980224609375">
        <ele>543.20001220703125</ele>
        <time>2013-09-01T15:32:28.000Z</time>
        <extensions>
          <ns3:TrackPointExtension>
            <ns3:atemp>17.0</ns3:atemp>
          </ns3:TrackPointExtension>
        </extensions>
      </trkpt>
      <trkpt lat="46.7370872385799884796142578125" lon="6.85597895644605159759521484375">
        <ele>543.79998779296875</ele>
        <time>2013-09-01T15:32:29.000Z</time>
        <extensions>
          <ns3:TrackPointExtension>
            <ns3:atemp>17.0</ns3:atemp>
          </ns3:TrackPointExtension>
        </extensions>
      </trkpt>
      <trkpt lat="46.73711749725043773651123046875" lon="6.8560294993221759796142578125">
        <ele>544</ele>
        <time>2013-09-01T15:32:30.000Z</time>
        <extensions>
          <ns3:TrackPointExtension>
            <ns3:atemp>17.0</ns3:atemp>
          </ns3:TrackPointExtension>
        </extensions>
      </trkpt>
      <trkpt lat="46.737149097025394439697265625" lon="6.856076605618000030517578125">
        <ele>544.4000244140625</ele>
        <time>2013-09-01T15:32:31.000Z</time>
        <extensions>
          <ns3:TrackPointExtension>
            <ns3:atemp>17.0</ns3:atemp>
          </ns3:TrackPointExtension>
        </extensions>
      </trkpt>
      <trkpt lat="46.73718187026679515838623046875" lon="6.85611994005739688873291015625">
        <ele>544.20001220703125</ele>
        <time>2013-09-01T15:32:32.000Z</time>
        <extensions>
          <ns3:TrackPointExtension>
            <ns3:atemp>17.0</ns3:atemp>
          </ns3:TrackPointExtension>
        </extensions>
      </trkpt>
      <trkpt lat="46.737207435071468353271484375" lon="6.856167130172252655029296875">
        <ele>544.20001220703125</ele>
        <time>2013-09-01T15:32:33.000Z</time>
        <extensions>
          <ns3:TrackPointExtension>
            <ns3:atemp>17.0</ns3:atemp>
          </ns3:TrackPointExtension>
        </extensions>
      </trkpt>
      <trkpt lat="46.73723350279033184051513671875" lon="6.85621297918260097503662109375">
        <ele>544.20001220703125</ele>
        <time>2013-09-01T15:32:34.000Z</time>
        <extensions>
          <ns3:TrackPointExtension>
            <ns3:atemp>17.0</ns3:atemp>
          </ns3:TrackPointExtension>
        </extensions>
      </trkpt>
      <trkpt lat="46.7372619174420833587646484375" lon="6.85625941492617130279541015625">
        <ele>544</ele>
        <time>2013-09-01T15:32:35.000Z</time>
        <extensions>
          <ns3:TrackPointExtension>
            <ns3:atemp>17.0</ns3:atemp>
          </ns3:TrackPointExtension>
        </extensions>
      </trkpt>
      <trkpt lat="46.73729100264608860015869140625" lon="6.85630702413618564605712890625">
        <ele>543.79998779296875</ele>
        <time>2013-09-01T15:32:36.000Z</time>
        <extensions>
          <ns3:TrackPointExtension>
            <ns3:atemp>17.0</ns3:atemp>
          </ns3:TrackPointExtension>
        </extensions>
      </trkpt>
      <trkpt lat="46.737320087850093841552734375" lon="6.8563537113368511199951171875">
        <ele>543.79998779296875</ele>
        <time>2013-09-01T15:32:37.000Z</time>
        <extensions>
          <ns3:TrackPointExtension>
            <ns3:atemp>17.0</ns3:atemp>
          </ns3:TrackPointExtension>
        </extensions>
      </trkpt>
      <trkpt lat="46.737349927425384521484375" lon="6.85639746487140655517578125">
        <ele>543.79998779296875</ele>
        <time>2013-09-01T15:32:38.000Z</time>
        <extensions>
          <ns3:TrackPointExtension>
            <ns3:atemp>17.0</ns3:atemp>
          </ns3:TrackPointExtension>
        </extensions>
      </trkpt>
      <trkpt lat="46.737375073134899139404296875" lon="6.8564442358911037445068359375">
        <ele>543.5999755859375</ele>
        <time>2013-09-01T15:32:39.000Z</time>
        <extensions>
          <ns3:TrackPointExtension>
            <ns3:atemp>17.0</ns3:atemp>
          </ns3:TrackPointExtension>
        </extensions>
      </trkpt>
      <trkpt lat="46.73740281723439693450927734375" lon="6.85648865997791290283203125">
        <ele>543.4000244140625</ele>
        <time>2013-09-01T15:32:40.000Z</time>
        <extensions>
          <ns3:TrackPointExtension>
            <ns3:atemp>17.0</ns3:atemp>
          </ns3:TrackPointExtension>
        </extensions>
      </trkpt>
      <trkpt lat="46.73743500374257564544677734375" lon="6.8565270490944385528564453125">
        <ele>543</ele>
        <time>2013-09-01T15:32:41.000Z</time>
        <extensions>
          <ns3:TrackPointExtension>
            <ns3:atemp>17.0</ns3:atemp>
          </ns3:TrackPointExtension>
        </extensions>
      </trkpt>
      <trkpt lat="46.73747263848781585693359375" lon="6.8565545417368412017822265625">
        <ele>543</ele>
        <time>2013-09-01T15:32:42.000Z</time>
        <extensions>
          <ns3:TrackPointExtension>
            <ns3:atemp>17.0</ns3:atemp>
          </ns3:TrackPointExtension>
        </extensions>
      </trkpt>
      <trkpt lat="46.73750759102404117584228515625" lon="6.8565609119832515716552734375">
        <ele>543</ele>
        <time>2013-09-01T15:32:43.000Z</time>
        <extensions>
          <ns3:TrackPointExtension>
            <ns3:atemp>17.0</ns3:atemp>
          </ns3:TrackPointExtension>
        </extensions>
      </trkpt>
      <trkpt lat="46.73753977753221988677978515625" lon="6.856537945568561553955078125">
        <ele>543</ele>
        <time>2013-09-01T15:32:44.000Z</time>
        <extensions>
          <ns3:TrackPointExtension>
            <ns3:atemp>17.0</ns3:atemp>
          </ns3:TrackPointExtension>
        </extensions>
      </trkpt>
      <trkpt lat="46.73756928183138370513916015625" lon="6.85649930499494075775146484375">
        <ele>542.79998779296875</ele>
        <time>2013-09-01T15:32:45.000Z</time>
        <extensions>
          <ns3:TrackPointExtension>
            <ns3:atemp>17.0</ns3:atemp>
          </ns3:TrackPointExtension>
        </extensions>
      </trkpt>
      <trkpt lat="46.73760113306343555450439453125" lon="6.85645781457424163818359375">
        <ele>542.79998779296875</ele>
        <time>2013-09-01T15:32:46.000Z</time>
        <extensions>
          <ns3:TrackPointExtension>
            <ns3:atemp>17.0</ns3:atemp>
          </ns3:TrackPointExtension>
        </extensions>
      </trkpt>
      <trkpt lat="46.73762845806777477264404296875" lon="6.85639922507107257843017578125">
        <ele>543</ele>
        <time>2013-09-01T15:32:47.000Z</time>
        <extensions>
          <ns3:TrackPointExtension>
            <ns3:atemp>17.0</ns3:atemp>
          </ns3:TrackPointExtension>
        </extensions>
      </trkpt>
      <trkpt lat="46.73765762709081172943115234375" lon="6.85635320842266082763671875">
        <ele>543.4000244140625</ele>
        <time>2013-09-01T15:32:48.000Z</time>
        <extensions>
          <ns3:TrackPointExtension>
            <ns3:atemp>17.0</ns3:atemp>
          </ns3:TrackPointExtension>
        </extensions>
      </trkpt>
      <trkpt lat="46.73768830485641956329345703125" lon="6.8563158251345157623291015625">
        <ele>543.79998779296875</ele>
        <time>2013-09-01T15:32:49.000Z</time>
        <extensions>
          <ns3:TrackPointExtension>
            <ns3:atemp>17.0</ns3:atemp>
          </ns3:TrackPointExtension>
        </extensions>
      </trkpt>
      <trkpt lat="46.73771269619464874267578125" lon="6.85628204606473445892333984375">
        <ele>544.20001220703125</ele>
        <time>2013-09-01T15:32:50.000Z</time>
        <extensions>
          <ns3:TrackPointExtension>
            <ns3:atemp>17.0</ns3:atemp>
          </ns3:TrackPointExtension>
        </extensions>
      </trkpt>
      <trkpt lat="46.73773440532386302947998046875" lon="6.856249608099460601806640625">
        <ele>544.4000244140625</ele>
        <time>2013-09-01T15:32:51.000Z</time>
        <extensions>
          <ns3:TrackPointExtension>
            <ns3:atemp>17.0</ns3:atemp>
          </ns3:TrackPointExtension>
        </extensions>
      </trkpt>
      <trkpt lat="46.73775569535791873931884765625" lon="6.856214739382266998291015625">
        <ele>544.5999755859375</ele>
        <time>2013-09-01T15:32:52.000Z</time>
        <extensions>
          <ns3:TrackPointExtension>
            <ns3:atemp>17.0</ns3:atemp>
          </ns3:TrackPointExtension>
        </extensions>
      </trkpt>
      <trkpt lat="46.7377799190580844879150390625" lon="6.85618288815021514892578125">
        <ele>545</ele>
        <time>2013-09-01T15:32:53.000Z</time>
        <extensions>
          <ns3:TrackPointExtension>
            <ns3:atemp>17.0</ns3:atemp>
          </ns3:TrackPointExtension>
        </extensions>
      </trkpt>
      <trkpt lat="46.73780330456793308258056640625" lon="6.85615447349846363067626953125">
        <ele>545.20001220703125</ele>
        <time>2013-09-01T15:32:54.000Z</time>
        <extensions>
          <ns3:TrackPointExtension>
            <ns3:atemp>17.0</ns3:atemp>
          </ns3:TrackPointExtension>
        </extensions>
      </trkpt>
      <trkpt lat="46.73782669007778167724609375" lon="6.85612631030380725860595703125">
        <ele>545.4000244140625</ele>
        <time>2013-09-01T15:32:55.000Z</time>
        <extensions>
          <ns3:TrackPointExtension>
            <ns3:atemp>17.0</ns3:atemp>
          </ns3:TrackPointExtension>
        </extensions>
      </trkpt>
      <trkpt lat="46.73784990794956684112548828125" lon="6.8560952134430408477783203125">
        <ele>545.5999755859375</ele>
        <time>2013-09-01T15:32:56.000Z</time>
        <extensions>
          <ns3:TrackPointExtension>
            <ns3:atemp>17.0</ns3:atemp>
          </ns3:TrackPointExtension>
        </extensions>
      </trkpt>
      <trkpt lat="46.73787153325974941253662109375" lon="6.85606478713452816009521484375">
        <ele>546</ele>
        <time>2013-09-01T15:32:57.000Z</time>
        <extensions>
          <ns3:TrackPointExtension>
            <ns3:atemp>17.0</ns3:atemp>
          </ns3:TrackPointExtension>
        </extensions>
      </trkpt>
      <trkpt lat="46.73789064399898052215576171875" lon="6.85602757148444652557373046875">
        <ele>546.4000244140625</ele>
        <time>2013-09-01T15:32:58.000Z</time>
        <extensions>
          <ns3:TrackPointExtension>
            <ns3:atemp>17.0</ns3:atemp>
          </ns3:TrackPointExtension>
        </extensions>
      </trkpt>
      <trkpt lat="46.7379145324230194091796875" lon="6.855996809899806976318359375">
        <ele>546.5999755859375</ele>
        <time>2013-09-01T15:32:59.000Z</time>
        <extensions>
          <ns3:TrackPointExtension>
            <ns3:atemp>17.0</ns3:atemp>
          </ns3:TrackPointExtension>
        </extensions>
      </trkpt>
      <trkpt lat="46.73793490044772624969482421875" lon="6.85596001334488391876220703125">
        <ele>546.79998779296875</ele>
        <time>2013-09-01T15:33:00.000Z</time>
        <extensions>
          <ns3:TrackPointExtension>
            <ns3:atemp>17.0</ns3:atemp>
          </ns3:TrackPointExtension>
        </extensions>
      </trkpt>
      <trkpt lat="46.73795367591083049774169921875" lon="6.8559233844280242919921875">
        <ele>547</ele>
        <time>2013-09-01T15:33:01.000Z</time>
        <extensions>
          <ns3:TrackPointExtension>
            <ns3:atemp>17.0</ns3:atemp>
          </ns3:TrackPointExtension>
        </extensions>
      </trkpt>
      <trkpt lat="46.7379790730774402618408203125" lon="6.8558893539011478424072265625">
        <ele>547.20001220703125</ele>
        <time>2013-09-01T15:33:02.000Z</time>
        <extensions>
          <ns3:TrackPointExtension>
            <ns3:atemp>17.0</ns3:atemp>
          </ns3:TrackPointExtension>
        </extensions>
      </trkpt>
      <trkpt lat="46.7380042187869548797607421875" lon="6.855852641165256500244140625">
        <ele>547.4000244140625</ele>
        <time>2013-09-01T15:33:03.000Z</time>
        <extensions>
          <ns3:TrackPointExtension>
            <ns3:atemp>17.0</ns3:atemp>
          </ns3:TrackPointExtension>
        </extensions>
      </trkpt>
      <trkpt lat="46.7380283586680889129638671875" lon="6.8558176048099994659423828125">
        <ele>547.5999755859375</ele>
        <time>2013-09-01T15:33:04.000Z</time>
        <extensions>
          <ns3:TrackPointExtension>
            <ns3:atemp>17.0</ns3:atemp>
          </ns3:TrackPointExtension>
        </extensions>
      </trkpt>
      <trkpt lat="46.738055013120174407958984375" lon="6.85578416101634502410888671875">
        <ele>547.5999755859375</ele>
        <time>2013-09-01T15:33:05.000Z</time>
        <extensions>
          <ns3:TrackPointExtension>
            <ns3:atemp>17.0</ns3:atemp>
          </ns3:TrackPointExtension>
        </extensions>
      </trkpt>
      <trkpt lat="46.738079823553562164306640625" lon="6.8557485379278659820556640625">
        <ele>547.79998779296875</ele>
        <time>2013-09-01T15:33:06.000Z</time>
        <extensions>
          <ns3:TrackPointExtension>
            <ns3:atemp>17.0</ns3:atemp>
          </ns3:TrackPointExtension>
        </extensions>
      </trkpt>
      <trkpt lat="46.738105975091457366943359375" lon="6.855713836848735809326171875">
        <ele>547.79998779296875</ele>
        <time>2013-09-01T15:33:07.000Z</time>
        <extensions>
          <ns3:TrackPointExtension>
            <ns3:atemp>17.0</ns3:atemp>
          </ns3:TrackPointExtension>
        </extensions>
      </trkpt>
      <trkpt lat="46.7381346412003040313720703125" lon="6.8556761182844638824462890625">
        <ele>548.20001220703125</ele>
        <time>2013-09-01T15:33:08.000Z</time>
        <extensions>
          <ns3:TrackPointExtension>
            <ns3:atemp>17.0</ns3:atemp>
          </ns3:TrackPointExtension>
        </extensions>
      </trkpt>
      <trkpt lat="46.7381621338427066802978515625" lon="6.8556363880634307861328125">
        <ele>548.5999755859375</ele>
        <time>2013-09-01T15:33:09.000Z</time>
        <extensions>
          <ns3:TrackPointExtension>
            <ns3:atemp>17.0</ns3:atemp>
          </ns3:TrackPointExtension>
        </extensions>
      </trkpt>
      <trkpt lat="46.73819281160831451416015625" lon="6.85559875331819057464599609375">
        <ele>548.5999755859375</ele>
        <time>2013-09-01T15:33:10.000Z</time>
        <extensions>
          <ns3:TrackPointExtension>
            <ns3:atemp>17.0</ns3:atemp>
          </ns3:TrackPointExtension>
        </extensions>
      </trkpt>
      <trkpt lat="46.73821820877492427825927734375" lon="6.8555505573749542236328125">
        <ele>548.79998779296875</ele>
        <time>2013-09-01T15:33:11.000Z</time>
        <extensions>
          <ns3:TrackPointExtension>
            <ns3:atemp>17.0</ns3:atemp>
          </ns3:TrackPointExtension>
        </extensions>
      </trkpt>
      <trkpt lat="46.7382550053298473358154296875" lon="6.85550202615559101104736328125">
        <ele>549</ele>
        <time>2013-09-01T15:33:12.000Z</time>
        <extensions>
          <ns3:TrackPointExtension>
            <ns3:atemp>17.0</ns3:atemp>
          </ns3:TrackPointExtension>
        </extensions>
      </trkpt>
      <trkpt lat="46.73829113133251667022705078125" lon="6.85545441694557666778564453125">
        <ele>549.5999755859375</ele>
        <time>2013-09-01T15:33:13.000Z</time>
        <extensions>
          <ns3:TrackPointExtension>
            <ns3:atemp>17.0</ns3:atemp>
          </ns3:TrackPointExtension>
        </extensions>
      </trkpt>
      <trkpt lat="46.7383213900029659271240234375" lon="6.85541083104908466339111328125">
        <ele>549.5999755859375</ele>
        <time>2013-09-01T15:33:14.000Z</time>
        <extensions>
          <ns3:TrackPointExtension>
            <ns3:atemp>17.0</ns3:atemp>
          </ns3:TrackPointExtension>
        </extensions>
      </trkpt>
      <trkpt lat="46.73835433088243007659912109375" lon="6.855369172990322113037109375">
        <ele>549.5999755859375</ele>
        <time>2013-09-01T15:33:15.000Z</time>
        <extensions>
          <ns3:TrackPointExtension>
            <ns3:atemp>17.0</ns3:atemp>
          </ns3:TrackPointExtension>
        </extensions>
      </trkpt>
      <trkpt lat="46.73838634975254535675048828125" lon="6.85532768256962299346923828125">
        <ele>549.4000244140625</ele>
        <time>2013-09-01T15:33:16.000Z</time>
        <extensions>
          <ns3:TrackPointExtension>
            <ns3:atemp>17.0</ns3:atemp>
          </ns3:TrackPointExtension>
        </extensions>
      </trkpt>
      <trkpt lat="46.7384172789752483367919921875" lon="6.855286695063114166259765625">
        <ele>549.4000244140625</ele>
        <time>2013-09-01T15:33:17.000Z</time>
        <extensions>
          <ns3:TrackPointExtension>
            <ns3:atemp>17.0</ns3:atemp>
          </ns3:TrackPointExtension>
        </extensions>
      </trkpt>
      <trkpt lat="46.7384501360356807708740234375" lon="6.8552426062524318695068359375">
        <ele>549.4000244140625</ele>
        <time>2013-09-01T15:33:18.000Z</time>
        <extensions>
          <ns3:TrackPointExtension>
            <ns3:atemp>17.0</ns3:atemp>
          </ns3:TrackPointExtension>
        </extensions>
      </trkpt>
      <trkpt lat="46.738485507667064666748046875" lon="6.8551916442811489105224609375">
        <ele>549.5999755859375</ele>
        <time>2013-09-01T15:33:19.000Z</time>
        <extensions>
          <ns3:TrackPointExtension>
            <ns3:atemp>17.0</ns3:atemp>
          </ns3:TrackPointExtension>
        </extensions>
      </trkpt>
      <trkpt lat="46.73852196894586086273193359375" lon="6.85513238422572612762451171875">
        <ele>549.4000244140625</ele>
        <time>2013-09-01T15:33:20.000Z</time>
        <extensions>
          <ns3:TrackPointExtension>
            <ns3:atemp>17.0</ns3:atemp>
          </ns3:TrackPointExtension>
        </extensions>
      </trkpt>
      <trkpt lat="46.73856270499527454376220703125" lon="6.855070777237415313720703125">
        <ele>549</ele>
        <time>2013-09-01T15:33:21.000Z</time>
        <extensions>
          <ns3:TrackPointExtension>
            <ns3:atemp>17.0</ns3:atemp>
          </ns3:TrackPointExtension>
        </extensions>
      </trkpt>
      <trkpt lat="46.738610230386257171630859375" lon="6.85500045306980609893798828125">
        <ele>548.20001220703125</ele>
        <time>2013-09-01T15:33:22.000Z</time>
        <extensions>
          <ns3:TrackPointExtension>
            <ns3:atemp>17.0</ns3:atemp>
          </ns3:TrackPointExtension>
        </extensions>
      </trkpt>
      <trkpt lat="46.73866890370845794677734375" lon="6.85492803342640399932861328125">
        <ele>548</ele>
        <time>2013-09-01T15:33:23.000Z</time>
        <extensions>
          <ns3:TrackPointExtension>
            <ns3:atemp>17.0</ns3:atemp>
          </ns3:TrackPointExtension>
        </extensions>
      </trkpt>
      <trkpt lat="46.7387290857732295989990234375" lon="6.85484555549919605255126953125">
        <ele>547.5999755859375</ele>
        <time>2013-09-01T15:33:24.000Z</time>
        <extensions>
          <ns3:TrackPointExtension>
            <ns3:atemp>17.0</ns3:atemp>
          </ns3:TrackPointExtension>
        </extensions>
      </trkpt>
      <trkpt lat="46.738788597285747528076171875" lon="6.85474899597465991973876953125">
        <ele>547.20001220703125</ele>
        <time>2013-09-01T15:33:25.000Z</time>
        <extensions>
          <ns3:TrackPointExtension>
            <ns3:atemp>17.0</ns3:atemp>
          </ns3:TrackPointExtension>
        </extensions>
      </trkpt>
      <trkpt lat="46.738844253122806549072265625" lon="6.85465981252491474151611328125">
        <ele>546</ele>
        <time>2013-09-01T15:33:26.000Z</time>
        <extensions>
          <ns3:TrackPointExtension>
            <ns3:atemp>17.0</ns3:atemp>
          </ns3:TrackPointExtension>
        </extensions>
      </trkpt>
      <trkpt lat="46.7389007471501827239990234375" lon="6.85459007509052753448486328125">
        <ele>545.20001220703125</ele>
        <time>2013-09-01T15:33:27.000Z</time>
        <extensions>
          <ns3:TrackPointExtension>
            <ns3:atemp>17.0</ns3:atemp>
          </ns3:TrackPointExtension>
        </extensions>
      </trkpt>
      <trkpt lat="46.73896436579525470733642578125" lon="6.85456140898168087005615234375">
        <ele>543.79998779296875</ele>
        <time>2013-09-01T15:33:28.000Z</time>
        <extensions>
          <ns3:TrackPointExtension>
            <ns3:atemp>17.0</ns3:atemp>
          </ns3:TrackPointExtension>
        </extensions>
      </trkpt>
      <trkpt lat="46.73901935108006000518798828125" lon="6.85459099709987640380859375">
        <ele>542.5999755859375</ele>
        <time>2013-09-01T15:33:29.000Z</time>
        <extensions>
          <ns3:TrackPointExtension>
            <ns3:atemp>17.0</ns3:atemp>
          </ns3:TrackPointExtension>
        </extensions>
      </trkpt>
      <trkpt lat="46.739048101007938385009765625" lon="6.85467171482741832733154296875">
        <ele>541.5999755859375</ele>
        <time>2013-09-01T15:33:30.000Z</time>
        <extensions>
          <ns3:TrackPointExtension>
            <ns3:atemp>17.0</ns3:atemp>
          </ns3:TrackPointExtension>
        </extensions>
      </trkpt>
      <trkpt lat="46.73906846903264522552490234375" lon="6.85474581085145473480224609375">
        <ele>541.4000244140625</ele>
        <time>2013-09-01T15:33:31.000Z</time>
        <extensions>
          <ns3:TrackPointExtension>
            <ns3:atemp>17.0</ns3:atemp>
          </ns3:TrackPointExtension>
        </extensions>
      </trkpt>
      <trkpt lat="46.7390915192663669586181640625" lon="6.85481655411422252655029296875">
        <ele>541.5999755859375</ele>
        <time>2013-09-01T15:33:32.000Z</time>
        <extensions>
          <ns3:TrackPointExtension>
            <ns3:atemp>17.0</ns3:atemp>
          </ns3:TrackPointExtension>
        </extensions>
      </trkpt>
      <trkpt lat="46.7391186766326427459716796875" lon="6.85488796792924404144287109375">
        <ele>541.79998779296875</ele>
        <time>2013-09-01T15:33:33.000Z</time>
        <extensions>
          <ns3:TrackPointExtension>
            <ns3:atemp>17.0</ns3:atemp>
          </ns3:TrackPointExtension>
        </extensions>
      </trkpt>
      <trkpt lat="46.739146672189235687255859375" lon="6.8549579568207263946533203125">
        <ele>542.20001220703125</ele>
        <time>2013-09-01T15:33:34.000Z</time>
        <extensions>
          <ns3:TrackPointExtension>
            <ns3:atemp>17.0</ns3:atemp>
          </ns3:TrackPointExtension>
        </extensions>
      </trkpt>
      <trkpt lat="46.73917626030743122100830078125" lon="6.85502677224576473236083984375">
        <ele>542.20001220703125</ele>
        <time>2013-09-01T15:33:35.000Z</time>
        <extensions>
          <ns3:TrackPointExtension>
            <ns3:atemp>17.0</ns3:atemp>
          </ns3:TrackPointExtension>
        </extensions>
      </trkpt>
      <trkpt lat="46.739207692444324493408203125" lon="6.855096928775310516357421875">
        <ele>542</ele>
        <time>2013-09-01T15:33:36.000Z</time>
        <extensions>
          <ns3:TrackPointExtension>
            <ns3:atemp>17.0</ns3:atemp>
          </ns3:TrackPointExtension>
        </extensions>
      </trkpt>
      <trkpt lat="46.73924021422863006591796875" lon="6.855171360075473785400390625">
        <ele>541.5999755859375</ele>
        <time>2013-09-01T15:33:37.000Z</time>
        <extensions>
          <ns3:TrackPointExtension>
            <ns3:atemp>17.0</ns3:atemp>
          </ns3:TrackPointExtension>
        </extensions>
      </trkpt>
      <trkpt lat="46.739272736012935638427734375" lon="6.855248473584651947021484375">
        <ele>541.79998779296875</ele>
        <time>2013-09-01T15:33:38.000Z</time>
        <extensions>
          <ns3:TrackPointExtension>
            <ns3:atemp>17.0</ns3:atemp>
          </ns3:TrackPointExtension>
        </extensions>
      </trkpt>
      <trkpt lat="46.7393017373979091644287109375" lon="6.85532734729349613189697265625">
        <ele>542</ele>
        <time>2013-09-01T15:33:39.000Z</time>
        <extensions>
          <ns3:TrackPointExtension>
            <ns3:atemp>17.0</ns3:atemp>
          </ns3:TrackPointExtension>
        </extensions>
      </trkpt>
      <trkpt lat="46.73933400772511959075927734375" lon="6.8554057180881500244140625">
        <ele>542.4000244140625</ele>
        <time>2013-09-01T15:33:40.000Z</time>
        <extensions>
          <ns3:TrackPointExtension>
            <ns3:atemp>17.0</ns3:atemp>
          </ns3:TrackPointExtension>
        </extensions>
      </trkpt>
      <trkpt lat="46.739364601671695709228515625" lon="6.85548710636794567108154296875">
        <ele>542.20001220703125</ele>
        <time>2013-09-01T15:33:41.000Z</time>
        <extensions>
          <ns3:TrackPointExtension>
            <ns3:atemp>17.0</ns3:atemp>
          </ns3:TrackPointExtension>
        </extensions>
      </trkpt>
      <trkpt lat="46.739399470388889312744140625" lon="6.855567991733551025390625">
        <ele>542.4000244140625</ele>
        <time>2013-09-01T15:33:42.000Z</time>
        <extensions>
          <ns3:TrackPointExtension>
            <ns3:atemp>17.0</ns3:atemp>
          </ns3:TrackPointExtension>
        </extensions>
      </trkpt>
      <trkpt lat="46.7394345067441463470458984375" lon="6.855650134384632110595703125">
        <ele>542.20001220703125</ele>
        <time>2013-09-01T15:33:43.000Z</time>
        <extensions>
          <ns3:TrackPointExtension>
            <ns3:atemp>17.0</ns3:atemp>
          </ns3:TrackPointExtension>
        </extensions>
      </trkpt>
      <trkpt lat="46.739472560584545135498046875" lon="6.85573655180633068084716796875">
        <ele>541.79998779296875</ele>
        <time>2013-09-01T15:33:44.000Z</time>
        <extensions>
          <ns3:TrackPointExtension>
            <ns3:atemp>17.0</ns3:atemp>
          </ns3:TrackPointExtension>
        </extensions>
      </trkpt>
      <trkpt lat="46.7395126260817050933837890625" lon="6.85582422651350498199462890625">
        <ele>541.5999755859375</ele>
        <time>2013-09-01T15:33:45.000Z</time>
        <extensions>
          <ns3:TrackPointExtension>
            <ns3:atemp>17.0</ns3:atemp>
          </ns3:TrackPointExtension>
        </extensions>
      </trkpt>
      <trkpt lat="46.73955847509205341339111328125" lon="6.85591408051550388336181640625">
        <ele>541.4000244140625</ele>
        <time>2013-09-01T15:33:46.000Z</time>
        <extensions>
          <ns3:TrackPointExtension>
            <ns3:atemp>17.0</ns3:atemp>
          </ns3:TrackPointExtension>
        </extensions>
      </trkpt>
      <trkpt lat="46.7396038211882114410400390625" lon="6.85600695200264453887939453125">
        <ele>541.20001220703125</ele>
        <time>2013-09-01T15:33:47.000Z</time>
        <extensions>
          <ns3:TrackPointExtension>
            <ns3:atemp>17.0</ns3:atemp>
          </ns3:TrackPointExtension>
        </extensions>
      </trkpt>
      <trkpt lat="46.73964614979922771453857421875" lon="6.8561057746410369873046875">
        <ele>540.79998779296875</ele>
        <time>2013-09-01T15:33:48.000Z</time>
        <extensions>
          <ns3:TrackPointExtension>
            <ns3:atemp>17.0</ns3:atemp>
          </ns3:TrackPointExtension>
        </extensions>
      </trkpt>
      <trkpt lat="46.739688813686370849609375" lon="6.85620971024036407470703125">
        <ele>540.4000244140625</ele>
        <time>2013-09-01T15:33:49.000Z</time>
        <extensions>
          <ns3:TrackPointExtension>
            <ns3:atemp>17.0</ns3:atemp>
          </ns3:TrackPointExtension>
        </extensions>
      </trkpt>
      <trkpt lat="46.7397322319447994232177734375" lon="6.85631305910646915435791015625">
        <ele>540</ele>
        <time>2013-09-01T15:33:50.000Z</time>
        <extensions>
          <ns3:TrackPointExtension>
            <ns3:atemp>17.0</ns3:atemp>
          </ns3:TrackPointExtension>
        </extensions>
      </trkpt>
      <trkpt lat="46.73977288417518138885498046875" lon="6.856418587267398834228515625">
        <ele>539.79998779296875</ele>
        <time>2013-09-01T15:33:51.000Z</time>
        <extensions>
          <ns3:TrackPointExtension>
            <ns3:atemp>17.0</ns3:atemp>
          </ns3:TrackPointExtension>
        </extensions>
      </trkpt>
      <trkpt lat="46.73981496132910251617431640625" lon="6.8565236963331699371337890625">
        <ele>539.5999755859375</ele>
        <time>2013-09-01T15:33:52.000Z</time>
        <extensions>
          <ns3:TrackPointExtension>
            <ns3:atemp>17.0</ns3:atemp>
          </ns3:TrackPointExtension>
        </extensions>
      </trkpt>
      <trkpt lat="46.73985846340656280517578125" lon="6.856627799570560455322265625">
        <ele>539.20001220703125</ele>
        <time>2013-09-01T15:33:53.000Z</time>
        <extensions>
          <ns3:TrackPointExtension>
            <ns3:atemp>17.0</ns3:atemp>
          </ns3:TrackPointExtension>
        </extensions>
      </trkpt>
      <trkpt lat="46.739903725683689117431640625" lon="6.85673332773149013519287109375">
        <ele>538.4000244140625</ele>
        <time>2013-09-01T15:33:54.000Z</time>
        <extensions>
          <ns3:TrackPointExtension>
            <ns3:atemp>17.0</ns3:atemp>
          </ns3:TrackPointExtension>
        </extensions>
      </trkpt>
      <trkpt lat="46.73994923941791057586669921875" lon="6.85683793388307094573974609375">
        <ele>538</ele>
        <time>2013-09-01T15:33:55.000Z</time>
        <extensions>
          <ns3:TrackPointExtension>
            <ns3:atemp>17.0</ns3:atemp>
          </ns3:TrackPointExtension>
        </extensions>
      </trkpt>
      <trkpt lat="46.73999299295246601104736328125" lon="6.85694019310176372528076171875">
        <ele>537.5999755859375</ele>
        <time>2013-09-01T15:33:56.000Z</time>
        <extensions>
          <ns3:TrackPointExtension>
            <ns3:atemp>17.0</ns3:atemp>
          </ns3:TrackPointExtension>
        </extensions>
      </trkpt>
      <trkpt lat="46.74003892578184604644775390625" lon="6.85704010538756847381591796875">
        <ele>537.4000244140625</ele>
        <time>2013-09-01T15:33:57.000Z</time>
        <extensions>
          <ns3:TrackPointExtension>
            <ns3:atemp>17.0</ns3:atemp>
          </ns3:TrackPointExtension>
        </extensions>
      </trkpt>
      <trkpt lat="46.74008670262992382049560546875" lon="6.8571429513394832611083984375">
        <ele>536.79998779296875</ele>
        <time>2013-09-01T15:33:58.000Z</time>
        <extensions>
          <ns3:TrackPointExtension>
            <ns3:atemp>17.0</ns3:atemp>
          </ns3:TrackPointExtension>
        </extensions>
      </trkpt>
      <trkpt lat="46.74013682641088962554931640625" lon="6.85725166462361812591552734375">
        <ele>536.4000244140625</ele>
        <time>2013-09-01T15:33:59.000Z</time>
        <extensions>
          <ns3:TrackPointExtension>
            <ns3:atemp>17.0</ns3:atemp>
          </ns3:TrackPointExtension>
        </extensions>
      </trkpt>
      <trkpt lat="46.74018812365829944610595703125" lon="6.85736113227903842926025390625">
        <ele>536</ele>
        <time>2013-09-01T15:34:00.000Z</time>
        <extensions>
          <ns3:TrackPointExtension>
            <ns3:atemp>17.0</ns3:atemp>
          </ns3:TrackPointExtension>
        </extensions>
      </trkpt>
      <trkpt lat="46.7402398400008678436279296875" lon="6.857472360134124755859375">
        <ele>535.5999755859375</ele>
        <time>2013-09-01T15:34:01.000Z</time>
        <extensions>
          <ns3:TrackPointExtension>
            <ns3:atemp>17.0</ns3:atemp>
          </ns3:TrackPointExtension>
        </extensions>
      </trkpt>
      <trkpt lat="46.74029390327632427215576171875" lon="6.85758107341825962066650390625">
        <ele>535.5999755859375</ele>
        <time>2013-09-01T15:34:02.000Z</time>
        <extensions>
          <ns3:TrackPointExtension>
            <ns3:atemp>17.0</ns3:atemp>
          </ns3:TrackPointExtension>
        </extensions>
      </trkpt>
      <trkpt lat="46.74035760574042797088623046875" lon="6.85768282972276210784912109375">
        <ele>535.4000244140625</ele>
        <time>2013-09-01T15:34:03.000Z</time>
        <extensions>
          <ns3:TrackPointExtension>
            <ns3:atemp>17.0</ns3:atemp>
          </ns3:TrackPointExtension>
        </extensions>
      </trkpt>
      <trkpt lat="46.7404269240796566009521484375" lon="6.857780478894710540771484375">
        <ele>535.4000244140625</ele>
        <time>2013-09-01T15:34:04.000Z</time>
        <extensions>
          <ns3:TrackPointExtension>
            <ns3:atemp>17.0</ns3:atemp>
          </ns3:TrackPointExtension>
        </extensions>
      </trkpt>
      <trkpt lat="46.7405050434172153472900390625" lon="6.857867650687694549560546875">
        <ele>535</ele>
        <time>2013-09-01T15:34:05.000Z</time>
        <extensions>
          <ns3:TrackPointExtension>
            <ns3:atemp>17.0</ns3:atemp>
          </ns3:TrackPointExtension>
        </extensions>
      </trkpt>
      <trkpt lat="46.74058827571570873260498046875" lon="6.85795742087066173553466796875">
        <ele>534.5999755859375</ele>
        <time>2013-09-01T15:34:06.000Z</time>
        <extensions>
          <ns3:TrackPointExtension>
            <ns3:atemp>18.0</ns3:atemp>
          </ns3:TrackPointExtension>
        </extensions>
      </trkpt>
      <trkpt lat="46.74066941253840923309326171875" lon="6.8580545671284198760986328125">
        <ele>533.79998779296875</ele>
        <time>2013-09-01T15:34:07.000Z</time>
        <extensions>
          <ns3:TrackPointExtension>
            <ns3:atemp>18.0</ns3:atemp>
          </ns3:TrackPointExtension>
        </extensions>
      </trkpt>
      <trkpt lat="46.74075423739850521087646484375" lon="6.85815238393843173980712890625">
        <ele>533</ele>
        <time>2013-09-01T15:34:08.000Z</time>
        <extensions>
          <ns3:TrackPointExtension>
            <ns3:atemp>18.0</ns3:atemp>
          </ns3:TrackPointExtension>
        </extensions>
      </trkpt>
      <trkpt lat="46.74084342084825038909912109375" lon="6.8582490272819995880126953125">
        <ele>531.79998779296875</ele>
        <time>2013-09-01T15:34:09.000Z</time>
        <extensions>
          <ns3:TrackPointExtension>
            <ns3:atemp>18.0</ns3:atemp>
          </ns3:TrackPointExtension>
        </extensions>
      </trkpt>
      <trkpt lat="46.74094065092504024505615234375" lon="6.8583331815898418426513671875">
        <ele>531</ele>
        <time>2013-09-01T15:34:10.000Z</time>
        <extensions>
          <ns3:TrackPointExtension>
            <ns3:atemp>18.0</ns3:atemp>
          </ns3:TrackPointExtension>
        </extensions>
      </trkpt>
      <trkpt lat="46.74104995094239711761474609375" lon="6.85839244164526462554931640625">
        <ele>530</ele>
        <time>2013-09-01T15:34:11.000Z</time>
        <extensions>
          <ns3:TrackPointExtension>
            <ns3:atemp>18.0</ns3:atemp>
          </ns3:TrackPointExtension>
        </extensions>
      </trkpt>
      <trkpt lat="46.7411648668348789215087890625" lon="6.85844390653073787689208984375">
        <ele>529</ele>
        <time>2013-09-01T15:34:12.000Z</time>
        <extensions>
          <ns3:TrackPointExtension>
            <ns3:atemp>18.0</ns3:atemp>
          </ns3:TrackPointExtension>
        </extensions>
      </trkpt>
      <trkpt lat="46.741287410259246826171875" lon="6.85848128981888294219970703125">
        <ele>527.79998779296875</ele>
        <time>2013-09-01T15:34:13.000Z</time>
        <extensions>
          <ns3:TrackPointExtension>
            <ns3:atemp>18.0</ns3:atemp>
          </ns3:TrackPointExtension>
        </extensions>
      </trkpt>
      <trkpt lat="46.74141305498778820037841796875" lon="6.8584924377501010894775390625">
        <ele>527</ele>
        <time>2013-09-01T15:34:14.000Z</time>
        <extensions>
          <ns3:TrackPointExtension>
            <ns3:atemp>18.0</ns3:atemp>
          </ns3:TrackPointExtension>
        </extensions>
      </trkpt>
      <trkpt lat="46.74153761006891727447509765625" lon="6.85848958790302276611328125">
        <ele>525.79998779296875</ele>
        <time>2013-09-01T15:34:15.000Z</time>
        <extensions>
          <ns3:TrackPointExtension>
            <ns3:atemp>18.0</ns3:atemp>
          </ns3:TrackPointExtension>
        </extensions>
      </trkpt>
      <trkpt lat="46.74165998585522174835205078125" lon="6.85850945301353931427001953125">
        <ele>524.5999755859375</ele>
        <time>2013-09-01T15:34:16.000Z</time>
        <extensions>
          <ns3:TrackPointExtension>
            <ns3:atemp>18.0</ns3:atemp>
          </ns3:TrackPointExtension>
        </extensions>
      </trkpt>
      <trkpt lat="46.74177548848092555999755859375" lon="6.858571060001850128173828125">
        <ele>523.20001220703125</ele>
        <time>2013-09-01T15:34:17.000Z</time>
        <extensions>
          <ns3:TrackPointExtension>
            <ns3:atemp>18.0</ns3:atemp>
          </ns3:TrackPointExtension>
        </extensions>
      </trkpt>
      <trkpt lat="46.741872467100620269775390625" lon="6.858676336705684661865234375">
        <ele>521.79998779296875</ele>
        <time>2013-09-01T15:34:18.000Z</time>
        <extensions>
          <ns3:TrackPointExtension>
            <ns3:atemp>18.0</ns3:atemp>
          </ns3:TrackPointExtension>
        </extensions>
      </trkpt>
      <trkpt lat="46.7419460602104663848876953125" lon="6.85881572775542736053466796875">
        <ele>520.4000244140625</ele>
        <time>2013-09-01T15:34:19.000Z</time>
        <extensions>
          <ns3:TrackPointExtension>
            <ns3:atemp>18.0</ns3:atemp>
          </ns3:TrackPointExtension>
        </extensions>
      </trkpt>
      <trkpt lat="46.7420033924281597137451171875" lon="6.8589594773948192596435546875">
        <ele>519.20001220703125</ele>
        <time>2013-09-01T15:34:20.000Z</time>
        <extensions>
          <ns3:TrackPointExtension>
            <ns3:atemp>18.0</ns3:atemp>
          </ns3:TrackPointExtension>
        </extensions>
      </trkpt>
      <trkpt lat="46.74206349067389965057373046875" lon="6.859091408550739288330078125">
        <ele>518.5999755859375</ele>
        <time>2013-09-01T15:34:21.000Z</time>
        <extensions>
          <ns3:TrackPointExtension>
            <ns3:atemp>18.0</ns3:atemp>
          </ns3:TrackPointExtension>
        </extensions>
      </trkpt>
      <trkpt lat="46.7421304620802402496337890625" lon="6.8592075817286968231201171875">
        <ele>517.79998779296875</ele>
        <time>2013-09-01T15:34:22.000Z</time>
        <extensions>
          <ns3:TrackPointExtension>
            <ns3:atemp>18.0</ns3:atemp>
          </ns3:TrackPointExtension>
        </extensions>
      </trkpt>
      <trkpt lat="46.74219408072531223297119140625" lon="6.859324090182781219482421875">
        <ele>517.20001220703125</ele>
        <time>2013-09-01T15:34:23.000Z</time>
        <extensions>
          <ns3:TrackPointExtension>
            <ns3:atemp>18.0</ns3:atemp>
          </ns3:TrackPointExtension>
        </extensions>
      </trkpt>
      <trkpt lat="46.7422531731426715850830078125" lon="6.85944101773202419281005859375">
        <ele>516.79998779296875</ele>
        <time>2013-09-01T15:34:24.000Z</time>
        <extensions>
          <ns3:TrackPointExtension>
            <ns3:atemp>18.0</ns3:atemp>
          </ns3:TrackPointExtension>
        </extensions>
      </trkpt>
      <trkpt lat="46.7423128522932529449462890625" lon="6.8595512397587299346923828125">
        <ele>516.20001220703125</ele>
        <time>2013-09-01T15:34:25.000Z</time>
        <extensions>
          <ns3:TrackPointExtension>
            <ns3:atemp>18.0</ns3:atemp>
          </ns3:TrackPointExtension>
        </extensions>
      </trkpt>
      <trkpt lat="46.74237160943448543548583984375" lon="6.85966397635638713836669921875">
        <ele>515.5999755859375</ele>
        <time>2013-09-01T15:34:26.000Z</time>
        <extensions>
          <ns3:TrackPointExtension>
            <ns3:atemp>18.0</ns3:atemp>
          </ns3:TrackPointExtension>
        </extensions>
      </trkpt>
      <trkpt lat="46.74242810346186161041259765625" lon="6.8597768805921077728271484375">
        <ele>514.79998779296875</ele>
        <time>2013-09-01T15:34:27.000Z</time>
        <extensions>
          <ns3:TrackPointExtension>
            <ns3:atemp>18.0</ns3:atemp>
          </ns3:TrackPointExtension>
        </extensions>
      </trkpt>
      <trkpt lat="46.742486692965030670166015625" lon="6.85988701879978179931640625">
        <ele>514.4000244140625</ele>
        <time>2013-09-01T15:34:28.000Z</time>
        <extensions>
          <ns3:TrackPointExtension>
            <ns3:atemp>18.0</ns3:atemp>
          </ns3:TrackPointExtension>
        </extensions>
      </trkpt>
      <trkpt lat="46.74254603683948516845703125" lon="6.85999698936939239501953125">
        <ele>514</ele>
        <time>2013-09-01T15:34:29.000Z</time>
        <extensions>
          <ns3:TrackPointExtension>
            <ns3:atemp>18.0</ns3:atemp>
          </ns3:TrackPointExtension>
        </extensions>
      </trkpt>
      <trkpt lat="46.7426057159900665283203125" lon="6.86010285280644893646240234375">
        <ele>513.5999755859375</ele>
        <time>2013-09-01T15:34:30.000Z</time>
        <extensions>
          <ns3:TrackPointExtension>
            <ns3:atemp>18.0</ns3:atemp>
          </ns3:TrackPointExtension>
        </extensions>
      </trkpt>
      <trkpt lat="46.74266313202679157257080078125" lon="6.86020544730126857757568359375">
        <ele>513.4000244140625</ele>
        <time>2013-09-01T15:34:31.000Z</time>
        <extensions>
          <ns3:TrackPointExtension>
            <ns3:atemp>18.0</ns3:atemp>
          </ns3:TrackPointExtension>
        </extensions>
      </trkpt>
      <trkpt lat="46.7427195422351360321044921875" lon="6.8603056110441684722900390625">
        <ele>513.20001220703125</ele>
        <time>2013-09-01T15:34:32.000Z</time>
        <extensions>
          <ns3:TrackPointExtension>
            <ns3:atemp>18.0</ns3:atemp>
          </ns3:TrackPointExtension>
        </extensions>
      </trkpt>
      <trkpt lat="46.7427772097289562225341796875" lon="6.86039856635034084320068359375">
        <ele>513</ele>
        <time>2013-09-01T15:34:33.000Z</time>
        <extensions>
          <ns3:TrackPointExtension>
            <ns3:atemp>18.0</ns3:atemp>
          </ns3:TrackPointExtension>
        </extensions>
      </trkpt>
      <trkpt lat="46.7428332008421421051025390625" lon="6.8604890070855617523193359375">
        <ele>512.79998779296875</ele>
        <time>2013-09-01T15:34:34.000Z</time>
        <extensions>
          <ns3:TrackPointExtension>
            <ns3:atemp>18.0</ns3:atemp>
          </ns3:TrackPointExtension>
        </extensions>
      </trkpt>
      <trkpt lat="46.74289179034531116485595703125" lon="6.86057609505951404571533203125">
        <ele>512.79998779296875</ele>
        <time>2013-09-01T15:34:35.000Z</time>
        <extensions>
          <ns3:TrackPointExtension>
            <ns3:atemp>18.0</ns3:atemp>
          </ns3:TrackPointExtension>
        </extensions>
      </trkpt>
      <trkpt lat="46.74296169541776180267333984375" lon="6.86064365319907665252685546875">
        <ele>512.5999755859375</ele>
        <time>2013-09-01T15:34:36.000Z</time>
        <extensions>
          <ns3:TrackPointExtension>
            <ns3:atemp>18.0</ns3:atemp>
          </ns3:TrackPointExtension>
        </extensions>
      </trkpt>
      <trkpt lat="46.74303696490824222564697265625" lon="6.86068975366652011871337890625">
        <ele>512.5999755859375</ele>
        <time>2013-09-01T15:34:37.000Z</time>
        <extensions>
          <ns3:TrackPointExtension>
            <ns3:atemp>18.0</ns3:atemp>
          </ns3:TrackPointExtension>
        </extensions>
      </trkpt>
      <trkpt lat="46.74311977811157703399658203125" lon="6.86070400290191173553466796875">
        <ele>512.4000244140625</ele>
        <time>2013-09-01T15:34:38.000Z</time>
        <extensions>
          <ns3:TrackPointExtension>
            <ns3:atemp>18.0</ns3:atemp>
          </ns3:TrackPointExtension>
        </extensions>
      </trkpt>
      <trkpt lat="46.7432033456861972808837890625" lon="6.860700063407421112060546875">
        <ele>512</ele>
        <time>2013-09-01T15:34:39.000Z</time>
        <extensions>
          <ns3:TrackPointExtension>
            <ns3:atemp>18.0</ns3:atemp>
          </ns3:TrackPointExtension>
        </extensions>
      </trkpt>
      <trkpt lat="46.74328406341373920440673828125" lon="6.8606707267463207244873046875">
        <ele>511.399993896484375</ele>
        <time>2013-09-01T15:34:40.000Z</time>
        <extensions>
          <ns3:TrackPointExtension>
            <ns3:atemp>18.0</ns3:atemp>
          </ns3:TrackPointExtension>
        </extensions>
      </trkpt>
      <trkpt lat="46.74336352385580539703369140625" lon="6.8606331758201122283935546875">
        <ele>511</ele>
        <time>2013-09-01T15:34:41.000Z</time>
        <extensions>
          <ns3:TrackPointExtension>
            <ns3:atemp>18.0</ns3:atemp>
          </ns3:TrackPointExtension>
        </extensions>
      </trkpt>
      <trkpt lat="46.74344591796398162841796875" lon="6.86059872619807720184326171875">
        <ele>510.600006103515625</ele>
        <time>2013-09-01T15:34:42.000Z</time>
        <extensions>
          <ns3:TrackPointExtension>
            <ns3:atemp>18.0</ns3:atemp>
          </ns3:TrackPointExtension>
        </extensions>
      </trkpt>
      <trkpt lat="46.7435228638350963592529296875" lon="6.8605681322515010833740234375">
        <ele>510.399993896484375</ele>
        <time>2013-09-01T15:34:43.000Z</time>
        <extensions>
          <ns3:TrackPointExtension>
            <ns3:atemp>18.0</ns3:atemp>
          </ns3:TrackPointExtension>
        </extensions>
      </trkpt>
      <trkpt lat="46.74359553493559360504150390625" lon="6.86054223217070102691650390625">
        <ele>509.79998779296875</ele>
        <time>2013-09-01T15:34:44.000Z</time>
        <extensions>
          <ns3:TrackPointExtension>
            <ns3:atemp>18.0</ns3:atemp>
          </ns3:TrackPointExtension>
        </extensions>
      </trkpt>
      <trkpt lat="46.7436583153903484344482421875" lon="6.86050392687320709228515625">
        <ele>509.20001220703125</ele>
        <time>2013-09-01T15:34:45.000Z</time>
        <extensions>
          <ns3:TrackPointExtension>
            <ns3:atemp>18.0</ns3:atemp>
          </ns3:TrackPointExtension>
        </extensions>
      </trkpt>
      <trkpt lat="46.7437081038951873779296875" lon="6.860455982387065887451171875">
        <ele>507.399993896484375</ele>
        <time>2013-09-01T15:34:46.000Z</time>
        <extensions>
          <ns3:TrackPointExtension>
            <ns3:atemp>18.0</ns3:atemp>
          </ns3:TrackPointExtension>
        </extensions>
      </trkpt>
      <trkpt lat="46.74374406225979328155517578125" lon="6.86039890162646770477294921875">
        <ele>506.399993896484375</ele>
        <time>2013-09-01T15:34:47.000Z</time>
        <extensions>
          <ns3:TrackPointExtension>
            <ns3:atemp>18.0</ns3:atemp>
          </ns3:TrackPointExtension>
        </extensions>
      </trkpt>
      <trkpt lat="46.74376535229384899139404296875" lon="6.86034056358039379119873046875">
        <ele>505.79998779296875</ele>
        <time>2013-09-01T15:34:48.000Z</time>
        <extensions>
          <ns3:TrackPointExtension>
            <ns3:atemp>18.0</ns3:atemp>
          </ns3:TrackPointExtension>
        </extensions>
      </trkpt>
      <trkpt lat="46.7437810264527797698974609375" lon="6.86029295437037944793701171875">
        <ele>505.399993896484375</ele>
        <time>2013-09-01T15:34:49.000Z</time>
        <extensions>
          <ns3:TrackPointExtension>
            <ns3:atemp>18.0</ns3:atemp>
          </ns3:TrackPointExtension>
        </extensions>
      </trkpt>
      <trkpt lat="46.74380206502974033355712890625" lon="6.86024534516036510467529296875">
        <ele>505.399993896484375</ele>
        <time>2013-09-01T15:34:50.000Z</time>
        <extensions>
          <ns3:TrackPointExtension>
            <ns3:atemp>18.0</ns3:atemp>
          </ns3:TrackPointExtension>
        </extensions>
      </trkpt>
      <trkpt lat="46.7438249476253986358642578125" lon="6.86019605956971645355224609375">
        <ele>505.600006103515625</ele>
        <time>2013-09-01T15:34:51.000Z</time>
        <extensions>
          <ns3:TrackPointExtension>
            <ns3:atemp>18.0</ns3:atemp>
          </ns3:TrackPointExtension>
        </extensions>
      </trkpt>
      <trkpt lat="46.7438467405736446380615234375" lon="6.8601443432271480560302734375">
        <ele>505.79998779296875</ele>
        <time>2013-09-01T15:34:52.000Z</time>
        <extensions>
          <ns3:TrackPointExtension>
            <ns3:atemp>18.0</ns3:atemp>
          </ns3:TrackPointExtension>
        </extensions>
      </trkpt>
      <trkpt lat="46.743881441652774810791015625" lon="6.8600950576364994049072265625">
        <ele>506</ele>
        <time>2013-09-01T15:34:53.000Z</time>
        <extensions>
          <ns3:TrackPointExtension>
            <ns3:atemp>18.0</ns3:atemp>
          </ns3:TrackPointExtension>
        </extensions>
      </trkpt>
      <trkpt lat="46.74390591681003570556640625" lon="6.8600432574748992919921875">
        <ele>505.79998779296875</ele>
        <time>2013-09-01T15:34:54.000Z</time>
        <extensions>
          <ns3:TrackPointExtension>
            <ns3:atemp>18.0</ns3:atemp>
          </ns3:TrackPointExtension>
        </extensions>
      </trkpt>
      <trkpt lat="46.7439560405910015106201171875" lon="6.8600459396839141845703125">
        <ele>505.399993896484375</ele>
        <time>2013-09-01T15:34:55.000Z</time>
        <extensions>
          <ns3:TrackPointExtension>
            <ns3:atemp>18.0</ns3:atemp>
          </ns3:TrackPointExtension>
        </extensions>
      </trkpt>
      <trkpt lat="46.7440013028681278228759765625" lon="6.86008357442915439605712890625">
        <ele>505.20001220703125</ele>
        <time>2013-09-01T15:34:56.000Z</time>
        <extensions>
          <ns3:TrackPointExtension>
            <ns3:atemp>18.0</ns3:atemp>
          </ns3:TrackPointExtension>
        </extensions>
      </trkpt>
      <trkpt lat="46.7440388537943363189697265625" lon="6.8601433373987674713134765625">
        <ele>505</ele>
        <time>2013-09-01T15:34:57.000Z</time>
        <extensions>
          <ns3:TrackPointExtension>
            <ns3:atemp>18.0</ns3:atemp>
          </ns3:TrackPointExtension>
        </extensions>
      </trkpt>
      <trkpt lat="46.74406190402805805206298828125" lon="6.86022204346954822540283203125">
        <ele>504.79998779296875</ele>
        <time>2013-09-01T15:34:58.000Z</time>
        <extensions>
          <ns3:TrackPointExtension>
            <ns3:atemp>18.0</ns3:atemp>
          </ns3:TrackPointExtension>
        </extensions>
      </trkpt>
      <trkpt lat="46.74409073777496814727783203125" lon="6.86030284501612186431884765625">
        <ele>504.79998779296875</ele>
        <time>2013-09-01T15:34:59.000Z</time>
        <extensions>
          <ns3:TrackPointExtension>
            <ns3:atemp>18.0</ns3:atemp>
          </ns3:TrackPointExtension>
        </extensions>
      </trkpt>
      <trkpt lat="46.74412258900701999664306640625" lon="6.8603864125907421112060546875">
        <ele>504.79998779296875</ele>
        <time>2013-09-01T15:35:00.000Z</time>
        <extensions>
          <ns3:TrackPointExtension>
            <ns3:atemp>18.0</ns3:atemp>
          </ns3:TrackPointExtension>
        </extensions>
      </trkpt>
      <trkpt lat="46.7441615648567676544189453125" lon="6.8604685552418231964111328125">
        <ele>504.79998779296875</ele>
        <time>2013-09-01T15:35:01.000Z</time>
        <extensions>
          <ns3:TrackPointExtension>
            <ns3:atemp>18.0</ns3:atemp>
          </ns3:TrackPointExtension>
        </extensions>
      </trkpt>
      <trkpt lat="46.74420858733355998992919921875" lon="6.860560588538646697998046875">
        <ele>504.600006103515625</ele>
        <time>2013-09-01T15:35:02.000Z</time>
        <extensions>
          <ns3:TrackPointExtension>
            <ns3:atemp>18.0</ns3:atemp>
          </ns3:TrackPointExtension>
        </extensions>
      </trkpt>
      <trkpt lat="46.74425401724874973297119140625" lon="6.86064532957971096038818359375">
        <ele>504.79998779296875</ele>
        <time>2013-09-01T15:35:03.000Z</time>
        <extensions>
          <ns3:TrackPointExtension>
            <ns3:atemp>18.0</ns3:atemp>
          </ns3:TrackPointExtension>
        </extensions>
      </trkpt>
      <trkpt lat="46.74429911188781261444091796875" lon="6.86072059907019138336181640625">
        <ele>505</ele>
        <time>2013-09-01T15:35:04.000Z</time>
        <extensions>
          <ns3:TrackPointExtension>
            <ns3:atemp>18.0</ns3:atemp>
          </ns3:TrackPointExtension>
        </extensions>
      </trkpt>
      <trkpt lat="46.7443456314504146575927734375" lon="6.86079687438905239105224609375">
        <ele>505</ele>
        <time>2013-09-01T15:35:05.000Z</time>
        <extensions>
          <ns3:TrackPointExtension>
            <ns3:atemp>18.0</ns3:atemp>
          </ns3:TrackPointExtension>
        </extensions>
      </trkpt>
      <trkpt lat="46.7443908937275409698486328125" lon="6.86086828820407390594482421875">
        <ele>505</ele>
        <time>2013-09-01T15:35:06.000Z</time>
        <extensions>
          <ns3:TrackPointExtension>
            <ns3:atemp>18.0</ns3:atemp>
          </ns3:TrackPointExtension>
        </extensions>
      </trkpt>
      <trkpt lat="46.74444638192653656005859375" lon="6.86093232594430446624755859375">
        <ele>505</ele>
        <time>2013-09-01T15:35:07.000Z</time>
        <extensions>
          <ns3:TrackPointExtension>
            <ns3:atemp>18.0</ns3:atemp>
          </ns3:TrackPointExtension>
        </extensions>
      </trkpt>
      <trkpt lat="46.74450379796326160430908203125" lon="6.8609900772571563720703125">
        <ele>505</ele>
        <time>2013-09-01T15:35:08.000Z</time>
        <extensions>
          <ns3:TrackPointExtension>
            <ns3:atemp>18.0</ns3:atemp>
          </ns3:TrackPointExtension>
        </extensions>
      </trkpt>
      <trkpt lat="46.74455702304840087890625" lon="6.861047409474849700927734375">
        <ele>505</ele>
        <time>2013-09-01T15:35:09.000Z</time>
        <extensions>
          <ns3:TrackPointExtension>
            <ns3:atemp>18.0</ns3:atemp>
          </ns3:TrackPointExtension>
        </extensions>
      </trkpt>
      <trkpt lat="46.74460438080132007598876953125" lon="6.8611069209873676300048828125">
        <ele>504.600006103515625</ele>
        <time>2013-09-01T15:35:10.000Z</time>
        <extensions>
          <ns3:TrackPointExtension>
            <ns3:atemp>18.0</ns3:atemp>
          </ns3:TrackPointExtension>
        </extensions>
      </trkpt>
      <trkpt lat="46.74463992007076740264892578125" lon="6.86116718687117099761962890625">
        <ele>503.79998779296875</ele>
        <time>2013-09-01T15:35:11.000Z</time>
        <extensions>
          <ns3:TrackPointExtension>
            <ns3:atemp>18.0</ns3:atemp>
          </ns3:TrackPointExtension>
        </extensions>
      </trkpt>
      <trkpt lat="46.744657941162586212158203125" lon="6.86123424209654331207275390625">
        <ele>503</ele>
        <time>2013-09-01T15:35:12.000Z</time>
        <extensions>
          <ns3:TrackPointExtension>
            <ns3:atemp>18.0</ns3:atemp>
          </ns3:TrackPointExtension>
        </extensions>
      </trkpt>
      <trkpt lat="46.744658946990966796875" lon="6.8612985312938690185546875">
        <ele>502.600006103515625</ele>
        <time>2013-09-01T15:35:13.000Z</time>
        <extensions>
          <ns3:TrackPointExtension>
            <ns3:atemp>18.0</ns3:atemp>
          </ns3:TrackPointExtension>
        </extensions>
      </trkpt>
      <trkpt lat="46.744658611714839935302734375" lon="6.8613664247095584869384765625">
        <ele>502.399993896484375</ele>
        <time>2013-09-01T15:35:14.000Z</time>
        <extensions>
          <ns3:TrackPointExtension>
            <ns3:atemp>18.0</ns3:atemp>
          </ns3:TrackPointExtension>
        </extensions>
      </trkpt>
      <trkpt lat="46.74465701915323734283447265625" lon="6.8614478968083858489990234375">
        <ele>502</ele>
        <time>2013-09-01T15:35:15.000Z</time>
        <extensions>
          <ns3:TrackPointExtension>
            <ns3:atemp>18.0</ns3:atemp>
          </ns3:TrackPointExtension>
        </extensions>
      </trkpt>
      <trkpt lat="46.7446329630911350250244140625" lon="6.8615411035716533660888671875">
        <ele>501.600006103515625</ele>
        <time>2013-09-01T15:35:16.000Z</time>
        <extensions>
          <ns3:TrackPointExtension>
            <ns3:atemp>18.0</ns3:atemp>
          </ns3:TrackPointExtension>
        </extensions>
      </trkpt>
      <trkpt lat="46.744601614773273468017578125" lon="6.86164495535194873809814453125">
        <ele>501.20001220703125</ele>
        <time>2013-09-01T15:35:17.000Z</time>
        <extensions>
          <ns3:TrackPointExtension>
            <ns3:atemp>18.0</ns3:atemp>
          </ns3:TrackPointExtension>
        </extensions>
      </trkpt>
      <trkpt lat="46.7445471324026584625244140625" lon="6.8617426045238971710205078125">
        <ele>501.20001220703125</ele>
        <time>2013-09-01T15:35:18.000Z</time>
        <extensions>
          <ns3:TrackPointExtension>
            <ns3:atemp>18.0</ns3:atemp>
          </ns3:TrackPointExtension>
        </extensions>
      </trkpt>
      <trkpt lat="46.74448871053755283355712890625" lon="6.86184293590486049652099609375">
        <ele>501</ele>
        <time>2013-09-01T15:35:19.000Z</time>
        <extensions>
          <ns3:TrackPointExtension>
            <ns3:atemp>18.0</ns3:atemp>
          </ns3:TrackPointExtension>
        </extensions>
      </trkpt>
      <trkpt lat="46.744425930082798004150390625" lon="6.8619601987302303314208984375">
        <ele>500.600006103515625</ele>
        <time>2013-09-01T15:35:20.000Z</time>
        <extensions>
          <ns3:TrackPointExtension>
            <ns3:atemp>18.0</ns3:atemp>
          </ns3:TrackPointExtension>
        </extensions>
      </trkpt>
      <trkpt lat="46.7443598806858062744140625" lon="6.86208349652588367462158203125">
        <ele>499.79998779296875</ele>
        <time>2013-09-01T15:35:21.000Z</time>
        <extensions>
          <ns3:TrackPointExtension>
            <ns3:atemp>18.0</ns3:atemp>
          </ns3:TrackPointExtension>
        </extensions>
      </trkpt>
      <trkpt lat="46.744311265647411346435546875" lon="6.86223219148814678192138671875">
        <ele>498.399993896484375</ele>
        <time>2013-09-01T15:35:22.000Z</time>
        <extensions>
          <ns3:TrackPointExtension>
            <ns3:atemp>18.0</ns3:atemp>
          </ns3:TrackPointExtension>
        </extensions>
      </trkpt>
      <trkpt lat="46.744270026683807373046875" lon="6.8623843230307102203369140625">
        <ele>497.600006103515625</ele>
        <time>2013-09-01T15:35:23.000Z</time>
        <extensions>
          <ns3:TrackPointExtension>
            <ns3:atemp>18.0</ns3:atemp>
          </ns3:TrackPointExtension>
        </extensions>
      </trkpt>
      <trkpt lat="46.7442423664033412933349609375" lon="6.8625403940677642822265625">
        <ele>496.79998779296875</ele>
        <time>2013-09-01T15:35:24.000Z</time>
        <extensions>
          <ns3:TrackPointExtension>
            <ns3:atemp>18.0</ns3:atemp>
          </ns3:TrackPointExtension>
        </extensions>
      </trkpt>
      <trkpt lat="46.7442204058170318603515625" lon="6.862670481204986572265625">
        <ele>496</ele>
        <time>2013-09-01T15:35:25.000Z</time>
        <extensions>
          <ns3:TrackPointExtension>
            <ns3:atemp>18.0</ns3:atemp>
          </ns3:TrackPointExtension>
        </extensions>
      </trkpt>
      <trkpt lat="46.74418696202337741851806640625" lon="6.86278246343135833740234375">
        <ele>494.79998779296875</ele>
        <time>2013-09-01T15:35:26.000Z</time>
        <extensions>
          <ns3:TrackPointExtension>
            <ns3:atemp>18.0</ns3:atemp>
          </ns3:TrackPointExtension>
        </extensions>
      </trkpt>
      <trkpt lat="46.74415511079132556915283203125" lon="6.8628738261759281158447265625">
        <ele>493.399993896484375</ele>
        <time>2013-09-01T15:35:27.000Z</time>
        <extensions>
          <ns3:TrackPointExtension>
            <ns3:atemp>18.0</ns3:atemp>
          </ns3:TrackPointExtension>
        </extensions>
      </trkpt>
      <trkpt lat="46.744129545986652374267578125" lon="6.86297197826206684112548828125">
        <ele>492.20001220703125</ele>
        <time>2013-09-01T15:35:28.000Z</time>
        <extensions>
          <ns3:TrackPointExtension>
            <ns3:atemp>18.0</ns3:atemp>
          </ns3:TrackPointExtension>
        </extensions>
      </trkpt>
      <trkpt lat="46.7441149614751338958740234375" lon="6.8630749918520450592041015625">
        <ele>491.20001220703125</ele>
        <time>2013-09-01T15:35:29.000Z</time>
        <extensions>
          <ns3:TrackPointExtension>
            <ns3:atemp>18.0</ns3:atemp>
          </ns3:TrackPointExtension>
        </extensions>
      </trkpt>
      <trkpt lat="46.744103729724884033203125" lon="6.86317934654653072357177734375">
        <ele>490</ele>
        <time>2013-09-01T15:35:30.000Z</time>
        <extensions>
          <ns3:TrackPointExtension>
            <ns3:atemp>18.0</ns3:atemp>
          </ns3:TrackPointExtension>
        </extensions>
      </trkpt>
      <trkpt lat="46.7440931685268878936767578125" lon="6.86327456496655941009521484375">
        <ele>489</ele>
        <time>2013-09-01T15:35:31.000Z</time>
        <extensions>
          <ns3:TrackPointExtension>
            <ns3:atemp>18.0</ns3:atemp>
          </ns3:TrackPointExtension>
        </extensions>
      </trkpt>
      <trkpt lat="46.74411018379032611846923828125" lon="6.8633747287094593048095703125">
        <ele>487.79998779296875</ele>
        <time>2013-09-01T15:35:32.000Z</time>
        <extensions>
          <ns3:TrackPointExtension>
            <ns3:atemp>18.0</ns3:atemp>
          </ns3:TrackPointExtension>
        </extensions>
      </trkpt>
      <trkpt lat="46.74415913410484790802001953125" lon="6.86348847113549709320068359375">
        <ele>486.79998779296875</ele>
        <time>2013-09-01T15:35:33.000Z</time>
        <extensions>
          <ns3:TrackPointExtension>
            <ns3:atemp>18.0</ns3:atemp>
          </ns3:TrackPointExtension>
        </extensions>
      </trkpt>
      <trkpt lat="46.74422333948314189910888671875" lon="6.86359508894383907318115234375">
        <ele>485.399993896484375</ele>
        <time>2013-09-01T15:35:34.000Z</time>
        <extensions>
          <ns3:TrackPointExtension>
            <ns3:atemp>18.0</ns3:atemp>
          </ns3:TrackPointExtension>
        </extensions>
      </trkpt>
      <trkpt lat="46.74429751932621002197265625" lon="6.863682679831981658935546875">
        <ele>484.20001220703125</ele>
        <time>2013-09-01T15:35:35.000Z</time>
        <extensions>
          <ns3:TrackPointExtension>
            <ns3:atemp>18.0</ns3:atemp>
          </ns3:TrackPointExtension>
        </extensions>
      </trkpt>
      <trkpt lat="46.744377315044403076171875" lon="6.86375585384666919708251953125">
        <ele>483.79998779296875</ele>
        <time>2013-09-01T15:35:36.000Z</time>
        <extensions>
          <ns3:TrackPointExtension>
            <ns3:atemp>18.0</ns3:atemp>
          </ns3:TrackPointExtension>
        </extensions>
      </trkpt>
      <trkpt lat="46.74444512464106082916259765625" lon="6.8638079054653644561767578125">
        <ele>482.79998779296875</ele>
        <time>2013-09-01T15:35:37.000Z</time>
        <extensions>
          <ns3:TrackPointExtension>
            <ns3:atemp>18.0</ns3:atemp>
          </ns3:TrackPointExtension>
        </extensions>
      </trkpt>
      <trkpt lat="46.7445213161408901214599609375" lon="6.86384721659123897552490234375">
        <ele>482.600006103515625</ele>
        <time>2013-09-01T15:35:38.000Z</time>
        <extensions>
          <ns3:TrackPointExtension>
            <ns3:atemp>18.0</ns3:atemp>
          </ns3:TrackPointExtension>
        </extensions>
      </trkpt>
      <trkpt lat="46.74456708133220672607421875" lon="6.8638706021010875701904296875">
        <ele>481.79998779296875</ele>
        <time>2013-09-01T15:35:39.000Z</time>
        <extensions>
          <ns3:TrackPointExtension>
            <ns3:atemp>18.0</ns3:atemp>
          </ns3:TrackPointExtension>
        </extensions>
      </trkpt>
      <trkpt lat="46.7445954121649265289306640625" lon="6.86390723101794719696044921875">
        <ele>481.20001220703125</ele>
        <time>2013-09-01T15:35:40.000Z</time>
        <extensions>
          <ns3:TrackPointExtension>
            <ns3:atemp>18.0</ns3:atemp>
          </ns3:TrackPointExtension>
        </extensions>
      </trkpt>
      <trkpt lat="46.744639165699481964111328125" lon="6.86394595541059970855712890625">
        <ele>480.79998779296875</ele>
        <time>2013-09-01T15:35:41.000Z</time>
        <extensions>
          <ns3:TrackPointExtension>
            <ns3:atemp>18.0</ns3:atemp>
          </ns3:TrackPointExtension>
        </extensions>
      </trkpt>
      <trkpt lat="46.74468585290014743804931640625" lon="6.8639995157718658447265625">
        <ele>480.600006103515625</ele>
        <time>2013-09-01T15:35:42.000Z</time>
        <extensions>
          <ns3:TrackPointExtension>
            <ns3:atemp>18.0</ns3:atemp>
          </ns3:TrackPointExtension>
        </extensions>
      </trkpt>
      <trkpt lat="46.74473413266241550445556640625" lon="6.86407051049172878265380859375">
        <ele>480.20001220703125</ele>
        <time>2013-09-01T15:35:43.000Z</time>
        <extensions>
          <ns3:TrackPointExtension>
            <ns3:atemp>18.0</ns3:atemp>
          </ns3:TrackPointExtension>
        </extensions>
      </trkpt>
      <trkpt lat="46.74478492699563503265380859375" lon="6.86412164010107517242431640625">
        <ele>479.600006103515625</ele>
        <time>2013-09-01T15:35:44.000Z</time>
        <extensions>
          <ns3:TrackPointExtension>
            <ns3:atemp>18.0</ns3:atemp>
          </ns3:TrackPointExtension>
        </extensions>
      </trkpt>
      <trkpt lat="46.7448448576033115386962890625" lon="6.8641636334359645843505859375">
        <ele>479</ele>
        <time>2013-09-01T15:35:45.000Z</time>
        <extensions>
          <ns3:TrackPointExtension>
            <ns3:atemp>18.0</ns3:atemp>
          </ns3:TrackPointExtension>
        </extensions>
      </trkpt>
      <trkpt lat="46.74490679986774921417236328125" lon="6.864199005067348480224609375">
        <ele>478.399993896484375</ele>
        <time>2013-09-01T15:35:46.000Z</time>
        <extensions>
          <ns3:TrackPointExtension>
            <ns3:atemp>18.0</ns3:atemp>
          </ns3:TrackPointExtension>
        </extensions>
      </trkpt>
      <trkpt lat="46.744966395199298858642578125" lon="6.86423948965966701507568359375">
        <ele>478.20001220703125</ele>
        <time>2013-09-01T15:35:47.000Z</time>
        <extensions>
          <ns3:TrackPointExtension>
            <ns3:atemp>18.0</ns3:atemp>
          </ns3:TrackPointExtension>
        </extensions>
      </trkpt>
      <trkpt lat="46.74502766691148281097412109375" lon="6.864274106919765472412109375">
        <ele>477.399993896484375</ele>
        <time>2013-09-01T15:35:48.000Z</time>
        <extensions>
          <ns3:TrackPointExtension>
            <ns3:atemp>18.0</ns3:atemp>
          </ns3:TrackPointExtension>
        </extensions>
      </trkpt>
      <trkpt lat="46.74508634023368358612060546875" lon="6.86429330147802829742431640625">
        <ele>476.399993896484375</ele>
        <time>2013-09-01T15:35:49.000Z</time>
        <extensions>
          <ns3:TrackPointExtension>
            <ns3:atemp>18.0</ns3:atemp>
          </ns3:TrackPointExtension>
        </extensions>
      </trkpt>
      <trkpt lat="46.7451419122517108917236328125" lon="6.864306293427944183349609375">
        <ele>474.79998779296875</ele>
        <time>2013-09-01T15:35:50.000Z</time>
        <extensions>
          <ns3:TrackPointExtension>
            <ns3:atemp>18.0</ns3:atemp>
          </ns3:TrackPointExtension>
        </extensions>
      </trkpt>
      <trkpt lat="46.74519999884068965911865234375" lon="6.86434040777385234832763671875">
        <ele>473.20001220703125</ele>
        <time>2013-09-01T15:35:51.000Z</time>
        <extensions>
          <ns3:TrackPointExtension>
            <ns3:atemp>18.0</ns3:atemp>
          </ns3:TrackPointExtension>
        </extensions>
      </trkpt>
      <trkpt lat="46.74525850452482700347900390625" lon="6.8643782101571559906005859375">
        <ele>471.600006103515625</ele>
        <time>2013-09-01T15:35:52.000Z</time>
        <extensions>
          <ns3:TrackPointExtension>
            <ns3:atemp>18.0</ns3:atemp>
          </ns3:TrackPointExtension>
        </extensions>
      </trkpt>
      <trkpt lat="46.745315082371234893798828125" lon="6.86441802419722080230712890625">
        <ele>469.79998779296875</ele>
        <time>2013-09-01T15:35:53.000Z</time>
        <extensions>
          <ns3:TrackPointExtension>
            <ns3:atemp>18.0</ns3:atemp>
          </ns3:TrackPointExtension>
        </extensions>
      </trkpt>
      <trkpt lat="46.74537635408341884613037109375" lon="6.86446244828402996063232421875">
        <ele>468.399993896484375</ele>
        <time>2013-09-01T15:35:54.000Z</time>
        <extensions>
          <ns3:TrackPointExtension>
            <ns3:atemp>18.0</ns3:atemp>
          </ns3:TrackPointExtension>
        </extensions>
      </trkpt>
      <trkpt lat="46.74543636851012706756591796875" lon="6.86451173387467861175537109375">
        <ele>466.399993896484375</ele>
        <time>2013-09-01T15:35:55.000Z</time>
        <extensions>
          <ns3:TrackPointExtension>
            <ns3:atemp>18.0</ns3:atemp>
          </ns3:TrackPointExtension>
        </extensions>
      </trkpt>
      <trkpt lat="46.74550057388842105865478515625" lon="6.86456973664462566375732421875">
        <ele>464.79998779296875</ele>
        <time>2013-09-01T15:35:56.000Z</time>
        <extensions>
          <ns3:TrackPointExtension>
            <ns3:atemp>18.0</ns3:atemp>
          </ns3:TrackPointExtension>
        </extensions>
      </trkpt>
      <trkpt lat="46.745555140078067779541015625" lon="6.86462514102458953857421875">
        <ele>463</ele>
        <time>2013-09-01T15:35:57.000Z</time>
        <extensions>
          <ns3:TrackPointExtension>
            <ns3:atemp>18.0</ns3:atemp>
          </ns3:TrackPointExtension>
        </extensions>
      </trkpt>
      <trkpt lat="46.74560844898223876953125" lon="6.8646806292235851287841796875">
        <ele>460</ele>
        <time>2013-09-01T15:35:58.000Z</time>
        <extensions>
          <ns3:TrackPointExtension>
            <ns3:atemp>18.0</ns3:atemp>
          </ns3:TrackPointExtension>
        </extensions>
      </trkpt>
      <trkpt lat="46.7456555552780628204345703125" lon="6.864748857915401458740234375">
        <ele>458.399993896484375</ele>
        <time>2013-09-01T15:35:59.000Z</time>
        <extensions>
          <ns3:TrackPointExtension>
            <ns3:atemp>18.0</ns3:atemp>
          </ns3:TrackPointExtension>
        </extensions>
      </trkpt>
      <trkpt lat="46.7456983029842376708984375" lon="6.86484617181122303009033203125">
        <ele>457</ele>
        <time>2013-09-01T15:36:00.000Z</time>
        <extensions>
          <ns3:TrackPointExtension>
            <ns3:atemp>18.0</ns3:atemp>
          </ns3:TrackPointExtension>
        </extensions>
      </trkpt>
      <trkpt lat="46.74573116004467010498046875" lon="6.86493082903325557708740234375">
        <ele>456</ele>
        <time>2013-09-01T15:36:01.000Z</time>
        <extensions>
          <ns3:TrackPointExtension>
            <ns3:atemp>18.0</ns3:atemp>
          </ns3:TrackPointExtension>
        </extensions>
      </trkpt>
      <trkpt lat="46.74576007761061191558837890625" lon="6.8649786897003650665283203125">
        <ele>455</ele>
        <time>2013-09-01T15:36:02.000Z</time>
        <extensions>
          <ns3:TrackPointExtension>
            <ns3:atemp>18.0</ns3:atemp>
          </ns3:TrackPointExtension>
        </extensions>
      </trkpt>
      <trkpt lat="46.74577700905501842498779296875" lon="6.86501649208366870880126953125">
        <ele>453.79998779296875</ele>
        <time>2013-09-01T15:36:03.000Z</time>
        <extensions>
          <ns3:TrackPointExtension>
            <ns3:atemp>18.0</ns3:atemp>
          </ns3:TrackPointExtension>
        </extensions>
      </trkpt>
      <trkpt lat="46.7457752488553524017333984375" lon="6.86506904661655426025390625">
        <ele>452.79998779296875</ele>
        <time>2013-09-01T15:36:04.000Z</time>
        <extensions>
          <ns3:TrackPointExtension>
            <ns3:atemp>18.0</ns3:atemp>
          </ns3:TrackPointExtension>
        </extensions>
      </trkpt>
      <trkpt lat="46.74574649892747402191162109375" lon="6.86509788036346435546875">
        <ele>452</ele>
        <time>2013-09-01T15:36:05.000Z</time>
        <extensions>
          <ns3:TrackPointExtension>
            <ns3:atemp>18.0</ns3:atemp>
          </ns3:TrackPointExtension>
        </extensions>
      </trkpt>
      <trkpt lat="46.74571481533348560333251953125" lon="6.86512176878750324249267578125">
        <ele>451.20001220703125</ele>
        <time>2013-09-01T15:36:06.000Z</time>
        <extensions>
          <ns3:TrackPointExtension>
            <ns3:atemp>18.0</ns3:atemp>
          </ns3:TrackPointExtension>
        </extensions>
      </trkpt>
      <trkpt lat="46.74567860551178455352783203125" lon="6.86514607630670070648193359375">
        <ele>450.399993896484375</ele>
        <time>2013-09-01T15:36:07.000Z</time>
        <extensions>
          <ns3:TrackPointExtension>
            <ns3:atemp>18.0</ns3:atemp>
          </ns3:TrackPointExtension>
        </extensions>
      </trkpt>
      <trkpt lat="46.74564256332814693450927734375" lon="6.86515948735177516937255859375">
        <ele>449.399993896484375</ele>
        <time>2013-09-01T15:36:08.000Z</time>
        <extensions>
          <ns3:TrackPointExtension>
            <ns3:atemp>18.0</ns3:atemp>
          </ns3:TrackPointExtension>
        </extensions>
      </trkpt>
      <trkpt lat="46.74560920335352420806884765625" lon="6.8651610799133777618408203125">
        <ele>448.399993896484375</ele>
        <time>2013-09-01T15:36:09.000Z</time>
        <extensions>
          <ns3:TrackPointExtension>
            <ns3:atemp>18.0</ns3:atemp>
          </ns3:TrackPointExtension>
        </extensions>
      </trkpt>
      <trkpt lat="46.74558757804334163665771484375" lon="6.86515848152339458465576171875">
        <ele>447.600006103515625</ele>
        <time>2013-09-01T15:36:10.000Z</time>
        <extensions>
          <ns3:TrackPointExtension>
            <ns3:atemp>18.0</ns3:atemp>
          </ns3:TrackPointExtension>
        </extensions>
      </trkpt>
      <trkpt lat="46.74556612037122249603271484375" lon="6.86516418121755123138427734375">
        <ele>447</ele>
        <time>2013-09-01T15:36:11.000Z</time>
        <extensions>
          <ns3:TrackPointExtension>
            <ns3:atemp>18.0</ns3:atemp>
          </ns3:TrackPointExtension>
        </extensions>
      </trkpt>
      <trkpt lat="46.7455494403839111328125" lon="6.8651466630399227142333984375">
        <ele>446.399993896484375</ele>
        <time>2013-09-01T15:36:12.000Z</time>
        <extensions>
          <ns3:TrackPointExtension>
            <ns3:atemp>18.0</ns3:atemp>
          </ns3:TrackPointExtension>
        </extensions>
      </trkpt>
      <trkpt lat="46.7455204389989376068115234375" lon="6.86514859087765216827392578125">
        <ele>445.79998779296875</ele>
        <time>2013-09-01T15:36:13.000Z</time>
        <extensions>
          <ns3:TrackPointExtension>
            <ns3:atemp>18.0</ns3:atemp>
          </ns3:TrackPointExtension>
        </extensions>
      </trkpt>
      <trkpt lat="46.74548707902431488037109375" lon="6.8651436455547809600830078125">
        <ele>444.600006103515625</ele>
        <time>2013-09-01T15:36:14.000Z</time>
        <extensions>
          <ns3:TrackPointExtension>
            <ns3:atemp>18.0</ns3:atemp>
          </ns3:TrackPointExtension>
        </extensions>
      </trkpt>
      <trkpt lat="46.74545547924935817718505859375" lon="6.8651560507714748382568359375">
        <ele>443.399993896484375</ele>
        <time>2013-09-01T15:36:15.000Z</time>
        <extensions>
          <ns3:TrackPointExtension>
            <ns3:atemp>18.0</ns3:atemp>
          </ns3:TrackPointExtension>
        </extensions>
      </trkpt>
      <trkpt lat="46.74542496912181377410888671875" lon="6.86517625115811824798583984375">
        <ele>442.20001220703125</ele>
        <time>2013-09-01T15:36:16.000Z</time>
        <extensions>
          <ns3:TrackPointExtension>
            <ns3:atemp>18.0</ns3:atemp>
          </ns3:TrackPointExtension>
        </extensions>
      </trkpt>
      <trkpt lat="46.7454077862203121185302734375" lon="6.8651815317571163177490234375">
        <ele>441.399993896484375</ele>
        <time>2013-09-01T15:36:17.000Z</time>
        <extensions>
          <ns3:TrackPointExtension>
            <ns3:atemp>18.0</ns3:atemp>
          </ns3:TrackPointExtension>
        </extensions>
      </trkpt>
      <trkpt lat="46.7453906871378421783447265625" lon="6.86518915928900241851806640625">
        <ele>440.79998779296875</ele>
        <time>2013-09-01T15:36:18.000Z</time>
        <extensions>
          <ns3:TrackPointExtension>
            <ns3:atemp>18.0</ns3:atemp>
          </ns3:TrackPointExtension>
        </extensions>
      </trkpt>
      <trkpt lat="46.745377443730831146240234375" lon="6.86519200913608074188232421875">
        <ele>440.20001220703125</ele>
        <time>2013-09-01T15:36:19.000Z</time>
        <extensions>
          <ns3:TrackPointExtension>
            <ns3:atemp>18.0</ns3:atemp>
          </ns3:TrackPointExtension>
        </extensions>
      </trkpt>
      <trkpt lat="46.74536361359059810638427734375" lon="6.8651962839066982269287109375">
        <ele>439.600006103515625</ele>
        <time>2013-09-01T15:36:20.000Z</time>
        <extensions>
          <ns3:TrackPointExtension>
            <ns3:atemp>18.0</ns3:atemp>
          </ns3:TrackPointExtension>
        </extensions>
      </trkpt>
      <trkpt lat="46.74535338766872882843017578125" lon="6.865202821791172027587890625">
        <ele>439.20001220703125</ele>
        <time>2013-09-01T15:36:21.000Z</time>
        <extensions>
          <ns3:TrackPointExtension>
            <ns3:atemp>18.0</ns3:atemp>
          </ns3:TrackPointExtension>
        </extensions>
      </trkpt>
      <trkpt lat="46.745345592498779296875" lon="6.86521380208432674407958984375">
        <ele>438.79998779296875</ele>
        <time>2013-09-01T15:36:22.000Z</time>
        <extensions>
          <ns3:TrackPointExtension>
            <ns3:atemp>18.0</ns3:atemp>
          </ns3:TrackPointExtension>
        </extensions>
      </trkpt>
      <trkpt lat="46.74533913843333721160888671875" lon="6.86522603966295719146728515625">
        <ele>438.399993896484375</ele>
        <time>2013-09-01T15:36:23.000Z</time>
        <extensions>
          <ns3:TrackPointExtension>
            <ns3:atemp>18.0</ns3:atemp>
          </ns3:TrackPointExtension>
        </extensions>
      </trkpt>
      <trkpt lat="46.74534584395587444305419921875" lon="6.86521329917013645172119140625">
        <ele>438.20001220703125</ele>
        <time>2013-09-01T15:36:24.000Z</time>
        <extensions>
          <ns3:TrackPointExtension>
            <ns3:atemp>18.0</ns3:atemp>
          </ns3:TrackPointExtension>
        </extensions>
      </trkpt>
      <trkpt lat="46.7453383840620517730712890625" lon="6.865233667194843292236328125">
        <ele>438.20001220703125</ele>
        <time>2013-09-01T15:36:25.000Z</time>
        <extensions>
          <ns3:TrackPointExtension>
            <ns3:atemp>18.0</ns3:atemp>
          </ns3:TrackPointExtension>
        </extensions>
      </trkpt>
      <trkpt lat="46.74533687531948089599609375" lon="6.8652402050793170928955078125">
        <ele>438.20001220703125</ele>
        <time>2013-09-01T15:36:26.000Z</time>
        <extensions>
          <ns3:TrackPointExtension>
            <ns3:atemp>18.0</ns3:atemp>
          </ns3:TrackPointExtension>
        </extensions>
      </trkpt>
      <trkpt lat="46.7453387193381786346435546875" lon="6.865245401859283447265625">
        <ele>438.20001220703125</ele>
        <time>2013-09-01T15:36:27.000Z</time>
        <extensions>
          <ns3:TrackPointExtension>
            <ns3:atemp>18.0</ns3:atemp>
          </ns3:TrackPointExtension>
        </extensions>
      </trkpt>
      <trkpt lat="46.7453387193381786346435546875" lon="6.865245401859283447265625">
        <ele>438.20001220703125</ele>
        <time>2013-09-01T15:36:28.000Z</time>
        <extensions>
          <ns3:TrackPointExtension>
            <ns3:atemp>18.0</ns3:atemp>
          </ns3:TrackPointExtension>
        </extensions>
      </trkpt>
      <trkpt lat="46.7453387193381786346435546875" lon="6.865245401859283447265625">
        <ele>438.20001220703125</ele>
        <time>2013-09-01T15:36:29.000Z</time>
        <extensions>
          <ns3:TrackPointExtension>
            <ns3:atemp>18.0</ns3:atemp>
          </ns3:TrackPointExtension>
        </extensions>
      </trkpt>
      <trkpt lat="46.7453564889729022979736328125" lon="6.8652589805424213409423828125">
        <ele>438</ele>
        <time>2013-09-01T15:36:30.000Z</time>
        <extensions>
          <ns3:TrackPointExtension>
            <ns3:atemp>18.0</ns3:atemp>
          </ns3:TrackPointExtension>
        </extensions>
      </trkpt>
      <trkpt lat="46.74536998383700847625732421875" lon="6.86527934856712818145751953125">
        <ele>437.79998779296875</ele>
        <time>2013-09-01T15:36:31.000Z</time>
        <extensions>
          <ns3:TrackPointExtension>
            <ns3:atemp>18.0</ns3:atemp>
          </ns3:TrackPointExtension>
        </extensions>
      </trkpt>
      <trkpt lat="46.74540267325937747955322265625" lon="6.86529225669801235198974609375">
        <ele>437.600006103515625</ele>
        <time>2013-09-01T15:36:32.000Z</time>
        <extensions>
          <ns3:TrackPointExtension>
            <ns3:atemp>18.0</ns3:atemp>
          </ns3:TrackPointExtension>
        </extensions>
      </trkpt>
      <trkpt lat="46.74544072709977626800537109375" lon="6.8653129599988460540771484375">
        <ele>437.399993896484375</ele>
        <time>2013-09-01T15:36:33.000Z</time>
        <extensions>
          <ns3:TrackPointExtension>
            <ns3:atemp>18.0</ns3:atemp>
          </ns3:TrackPointExtension>
        </extensions>
      </trkpt>
      <trkpt lat="46.7454890906810760498046875" lon="6.86533617787063121795654296875">
        <ele>437.399993896484375</ele>
        <time>2013-09-01T15:36:34.000Z</time>
        <extensions>
          <ns3:TrackPointExtension>
            <ns3:atemp>18.0</ns3:atemp>
          </ns3:TrackPointExtension>
        </extensions>
      </trkpt>
      <trkpt lat="46.74554080702364444732666015625" lon="6.86536031775176525115966796875">
        <ele>436.79998779296875</ele>
        <time>2013-09-01T15:36:35.000Z</time>
        <extensions>
          <ns3:TrackPointExtension>
            <ns3:atemp>18.0</ns3:atemp>
          </ns3:TrackPointExtension>
        </extensions>
      </trkpt>
      <trkpt lat="46.74558808095753192901611328125" lon="6.8653890676796436309814453125">
        <ele>436.20001220703125</ele>
        <time>2013-09-01T15:36:36.000Z</time>
        <extensions>
          <ns3:TrackPointExtension>
            <ns3:atemp>18.0</ns3:atemp>
          </ns3:TrackPointExtension>
        </extensions>
      </trkpt>
      <trkpt lat="46.74563485197722911834716796875" lon="6.86541966162621974945068359375">
        <ele>435.20001220703125</ele>
        <time>2013-09-01T15:36:37.000Z</time>
        <extensions>
          <ns3:TrackPointExtension>
            <ns3:atemp>18.0</ns3:atemp>
          </ns3:TrackPointExtension>
        </extensions>
      </trkpt>
      <trkpt lat="46.74567659385502338409423828125" lon="6.8654557876288890838623046875">
        <ele>434</ele>
        <time>2013-09-01T15:36:38.000Z</time>
        <extensions>
          <ns3:TrackPointExtension>
            <ns3:atemp>18.0</ns3:atemp>
          </ns3:TrackPointExtension>
        </extensions>
      </trkpt>
      <trkpt lat="46.74571163021028041839599609375" lon="6.865493170917034149169921875">
        <ele>432.600006103515625</ele>
        <time>2013-09-01T15:36:39.000Z</time>
        <extensions>
          <ns3:TrackPointExtension>
            <ns3:atemp>18.0</ns3:atemp>
          </ns3:TrackPointExtension>
        </extensions>
      </trkpt>
      <trkpt lat="46.745745241641998291015625" lon="6.86553047038614749908447265625">
        <ele>431.600006103515625</ele>
        <time>2013-09-01T15:36:40.000Z</time>
        <extensions>
          <ns3:TrackPointExtension>
            <ns3:atemp>18.0</ns3:atemp>
          </ns3:TrackPointExtension>
        </extensions>
      </trkpt>
      <trkpt lat="46.74578505568206310272216796875" lon="6.86555092222988605499267578125">
        <ele>430.600006103515625</ele>
        <time>2013-09-01T15:36:41.000Z</time>
        <extensions>
          <ns3:TrackPointExtension>
            <ns3:atemp>18.0</ns3:atemp>
          </ns3:TrackPointExtension>
        </extensions>
      </trkpt>
      <trkpt lat="46.74582730047404766082763671875" lon="6.86556232161819934844970703125">
        <ele>429.600006103515625</ele>
        <time>2013-09-01T15:36:42.000Z</time>
        <extensions>
          <ns3:TrackPointExtension>
            <ns3:atemp>18.0</ns3:atemp>
          </ns3:TrackPointExtension>
        </extensions>
      </trkpt>
      <trkpt lat="46.74587205983698368072509765625" lon="6.86555922031402587890625">
        <ele>428.20001220703125</ele>
        <time>2013-09-01T15:36:43.000Z</time>
        <extensions>
          <ns3:TrackPointExtension>
            <ns3:atemp>18.0</ns3:atemp>
          </ns3:TrackPointExtension>
        </extensions>
      </trkpt>
      <trkpt lat="46.74591983668506145477294921875" lon="6.865585707128047943115234375">
        <ele>426.600006103515625</ele>
        <time>2013-09-01T15:36:44.000Z</time>
        <extensions>
          <ns3:TrackPointExtension>
            <ns3:atemp>18.0</ns3:atemp>
          </ns3:TrackPointExtension>
        </extensions>
      </trkpt>
      <trkpt lat="46.74595286138355731964111328125" lon="6.86561889946460723876953125">
        <ele>425.20001220703125</ele>
        <time>2013-09-01T15:36:45.000Z</time>
        <extensions>
          <ns3:TrackPointExtension>
            <ns3:atemp>18.0</ns3:atemp>
          </ns3:TrackPointExtension>
        </extensions>
      </trkpt>
      <trkpt lat="46.745973564684391021728515625" lon="6.86567581258714199066162109375">
        <ele>422.399993896484375</ele>
        <time>2013-09-01T15:36:46.000Z</time>
        <extensions>
          <ns3:TrackPointExtension>
            <ns3:atemp>17.0</ns3:atemp>
          </ns3:TrackPointExtension>
        </extensions>
      </trkpt>
      <trkpt lat="46.7459797672927379608154296875" lon="6.8657283671200275421142578125">
        <ele>420.79998779296875</ele>
        <time>2013-09-01T15:36:47.000Z</time>
        <extensions>
          <ns3:TrackPointExtension>
            <ns3:atemp>17.0</ns3:atemp>
          </ns3:TrackPointExtension>
        </extensions>
      </trkpt>
      <trkpt lat="46.74597247503697872161865234375" lon="6.86578452587127685546875">
        <ele>418.79998779296875</ele>
        <time>2013-09-01T15:36:48.000Z</time>
        <extensions>
          <ns3:TrackPointExtension>
            <ns3:atemp>17.0</ns3:atemp>
          </ns3:TrackPointExtension>
        </extensions>
      </trkpt>
      <trkpt lat="46.74596191383898258209228515625" lon="6.86584780924022197723388671875">
        <ele>417.600006103515625</ele>
        <time>2013-09-01T15:36:49.000Z</time>
        <extensions>
          <ns3:TrackPointExtension>
            <ns3:atemp>17.0</ns3:atemp>
          </ns3:TrackPointExtension>
        </extensions>
      </trkpt>
      <trkpt lat="46.7459509335458278656005859375" lon="6.86591126024723052978515625">
        <ele>416.20001220703125</ele>
        <time>2013-09-01T15:36:50.000Z</time>
        <extensions>
          <ns3:TrackPointExtension>
            <ns3:atemp>17.0</ns3:atemp>
          </ns3:TrackPointExtension>
        </extensions>
      </trkpt>
      <trkpt lat="46.7459324933588504791259765625" lon="6.865967921912670135498046875">
        <ele>414.79998779296875</ele>
        <time>2013-09-01T15:36:51.000Z</time>
        <extensions>
          <ns3:TrackPointExtension>
            <ns3:atemp>17.0</ns3:atemp>
          </ns3:TrackPointExtension>
        </extensions>
      </trkpt>
      <trkpt lat="46.74591313116252422332763671875" lon="6.86602265574038028717041015625">
        <ele>413.20001220703125</ele>
        <time>2013-09-01T15:36:52.000Z</time>
        <extensions>
          <ns3:TrackPointExtension>
            <ns3:atemp>17.0</ns3:atemp>
          </ns3:TrackPointExtension>
        </extensions>
      </trkpt>
      <trkpt lat="46.745902486145496368408203125" lon="6.86607596464455127716064453125">
        <ele>412</ele>
        <time>2013-09-01T15:36:53.000Z</time>
        <extensions>
          <ns3:TrackPointExtension>
            <ns3:atemp>17.0</ns3:atemp>
          </ns3:TrackPointExtension>
        </extensions>
      </trkpt>
      <trkpt lat="46.74589418806135654449462890625" lon="6.8661266751587390899658203125">
        <ele>411</ele>
        <time>2013-09-01T15:36:54.000Z</time>
        <extensions>
          <ns3:TrackPointExtension>
            <ns3:atemp>17.0</ns3:atemp>
          </ns3:TrackPointExtension>
        </extensions>
      </trkpt>
      <trkpt lat="46.74588915891945362091064453125" lon="6.86618057079613208770751953125">
        <ele>409.600006103515625</ele>
        <time>2013-09-01T15:36:55.000Z</time>
        <extensions>
          <ns3:TrackPointExtension>
            <ns3:atemp>17.0</ns3:atemp>
          </ns3:TrackPointExtension>
        </extensions>
      </trkpt>
      <trkpt lat="46.74587591551244258880615234375" lon="6.86624092049896717071533203125">
        <ele>408.399993896484375</ele>
        <time>2013-09-01T15:36:56.000Z</time>
        <extensions>
          <ns3:TrackPointExtension>
            <ns3:atemp>17.0</ns3:atemp>
          </ns3:TrackPointExtension>
        </extensions>
      </trkpt>
      <trkpt lat="46.745843477547168731689453125" lon="6.8663315288722515106201171875">
        <ele>406.79998779296875</ele>
        <time>2013-09-01T15:36:57.000Z</time>
        <extensions>
          <ns3:TrackPointExtension>
            <ns3:atemp>17.0</ns3:atemp>
          </ns3:TrackPointExtension>
        </extensions>
      </trkpt>
      <trkpt lat="46.74581087194383144378662109375" lon="6.8664042837917804718017578125">
        <ele>405</ele>
        <time>2013-09-01T15:36:58.000Z</time>
        <extensions>
          <ns3:TrackPointExtension>
            <ns3:atemp>17.0</ns3:atemp>
          </ns3:TrackPointExtension>
        </extensions>
      </trkpt>
      <trkpt lat="46.74581690691411495208740234375" lon="6.8664671480655670166015625">
        <ele>403.399993896484375</ele>
        <time>2013-09-01T15:36:59.000Z</time>
        <extensions>
          <ns3:TrackPointExtension>
            <ns3:atemp>17.0</ns3:atemp>
          </ns3:TrackPointExtension>
        </extensions>
      </trkpt>
      <trkpt lat="46.74581455998122692108154296875" lon="6.86652473174035549163818359375">
        <ele>402.20001220703125</ele>
        <time>2013-09-01T15:37:00.000Z</time>
        <extensions>
          <ns3:TrackPointExtension>
            <ns3:atemp>17.0</ns3:atemp>
          </ns3:TrackPointExtension>
        </extensions>
      </trkpt>
      <trkpt lat="46.74584959633648395538330078125" lon="6.86659228987991809844970703125">
        <ele>401.20001220703125</ele>
        <time>2013-09-01T15:37:01.000Z</time>
        <extensions>
          <ns3:TrackPointExtension>
            <ns3:atemp>17.0</ns3:atemp>
          </ns3:TrackPointExtension>
        </extensions>
      </trkpt>
      <trkpt lat="46.7458775080740451812744140625" lon="6.866650879383087158203125">
        <ele>400</ele>
        <time>2013-09-01T15:37:02.000Z</time>
        <extensions>
          <ns3:TrackPointExtension>
            <ns3:atemp>17.0</ns3:atemp>
          </ns3:TrackPointExtension>
        </extensions>
      </trkpt>
      <trkpt lat="46.7459048330783843994140625" lon="6.86671315692365169525146484375">
        <ele>398.600006103515625</ele>
        <time>2013-09-01T15:37:03.000Z</time>
        <extensions>
          <ns3:TrackPointExtension>
            <ns3:atemp>17.0</ns3:atemp>
          </ns3:TrackPointExtension>
        </extensions>
      </trkpt>
      <trkpt lat="46.74593098461627960205078125" lon="6.8667854927480220794677734375">
        <ele>397</ele>
        <time>2013-09-01T15:37:04.000Z</time>
        <extensions>
          <ns3:TrackPointExtension>
            <ns3:atemp>17.0</ns3:atemp>
          </ns3:TrackPointExtension>
        </extensions>
      </trkpt>
      <trkpt lat="46.7459576390683650970458984375" lon="6.8668612651526927947998046875">
        <ele>395.600006103515625</ele>
        <time>2013-09-01T15:37:05.000Z</time>
        <extensions>
          <ns3:TrackPointExtension>
            <ns3:atemp>17.0</ns3:atemp>
          </ns3:TrackPointExtension>
        </extensions>
      </trkpt>
      <trkpt lat="46.745976917445659637451171875" lon="6.86693645082414150238037109375">
        <ele>393.79998779296875</ele>
        <time>2013-09-01T15:37:06.000Z</time>
        <extensions>
          <ns3:TrackPointExtension>
            <ns3:atemp>17.0</ns3:atemp>
          </ns3:TrackPointExtension>
        </extensions>
      </trkpt>
      <trkpt lat="46.7459834553301334381103515625" lon="6.86700233258306980133056640625">
        <ele>392.399993896484375</ele>
        <time>2013-09-01T15:37:07.000Z</time>
        <extensions>
          <ns3:TrackPointExtension>
            <ns3:atemp>17.0</ns3:atemp>
          </ns3:TrackPointExtension>
        </extensions>
      </trkpt>
      <trkpt lat="46.745976246893405914306640625" lon="6.86706595122814178466796875">
        <ele>390.79998779296875</ele>
        <time>2013-09-01T15:37:08.000Z</time>
        <extensions>
          <ns3:TrackPointExtension>
            <ns3:atemp>17.0</ns3:atemp>
          </ns3:TrackPointExtension>
        </extensions>
      </trkpt>
      <trkpt lat="46.7459613271057605743408203125" lon="6.8671261332929134368896484375">
        <ele>389.79998779296875</ele>
        <time>2013-09-01T15:37:09.000Z</time>
        <extensions>
          <ns3:TrackPointExtension>
            <ns3:atemp>17.0</ns3:atemp>
          </ns3:TrackPointExtension>
        </extensions>
      </trkpt>
      <trkpt lat="46.74594196490943431854248046875" lon="6.86719578690826892852783203125">
        <ele>388</ele>
        <time>2013-09-01T15:37:10.000Z</time>
        <extensions>
          <ns3:TrackPointExtension>
            <ns3:atemp>17.0</ns3:atemp>
          </ns3:TrackPointExtension>
        </extensions>
      </trkpt>
      <trkpt lat="46.745917238295078277587890625" lon="6.8672843836247920989990234375">
        <ele>387</ele>
        <time>2013-09-01T15:37:11.000Z</time>
        <extensions>
          <ns3:TrackPointExtension>
            <ns3:atemp>17.0</ns3:atemp>
          </ns3:TrackPointExtension>
        </extensions>
      </trkpt>
      <trkpt lat="46.74589351750910282135009765625" lon="6.867370717227458953857421875">
        <ele>385.20001220703125</ele>
        <time>2013-09-01T15:37:12.000Z</time>
        <extensions>
          <ns3:TrackPointExtension>
            <ns3:atemp>17.0</ns3:atemp>
          </ns3:TrackPointExtension>
        </extensions>
      </trkpt>
      <trkpt lat="46.7458922602236270904541015625" lon="6.86748865060508251190185546875">
        <ele>383.79998779296875</ele>
        <time>2013-09-01T15:37:13.000Z</time>
        <extensions>
          <ns3:TrackPointExtension>
            <ns3:atemp>17.0</ns3:atemp>
          </ns3:TrackPointExtension>
        </extensions>
      </trkpt>
      <trkpt lat="46.74588647671043872833251953125" lon="6.8675958551466464996337890625">
        <ele>382.20001220703125</ele>
        <time>2013-09-01T15:37:14.000Z</time>
        <extensions>
          <ns3:TrackPointExtension>
            <ns3:atemp>17.0</ns3:atemp>
          </ns3:TrackPointExtension>
        </extensions>
      </trkpt>
      <trkpt lat="46.74588211812078952789306640625" lon="6.86770699918270111083984375">
        <ele>380.79998779296875</ele>
        <time>2013-09-01T15:37:15.000Z</time>
        <extensions>
          <ns3:TrackPointExtension>
            <ns3:atemp>17.0</ns3:atemp>
          </ns3:TrackPointExtension>
        </extensions>
      </trkpt>
      <trkpt lat="46.74587222747504711151123046875" lon="6.8678137846291065216064453125">
        <ele>379.20001220703125</ele>
        <time>2013-09-01T15:37:16.000Z</time>
        <extensions>
          <ns3:TrackPointExtension>
            <ns3:atemp>17.0</ns3:atemp>
          </ns3:TrackPointExtension>
        </extensions>
      </trkpt>
      <trkpt lat="46.74585864879190921783447265625" lon="6.86790875159204006195068359375">
        <ele>377.79998779296875</ele>
        <time>2013-09-01T15:37:17.000Z</time>
        <extensions>
          <ns3:TrackPointExtension>
            <ns3:atemp>17.0</ns3:atemp>
          </ns3:TrackPointExtension>
        </extensions>
      </trkpt>
      <trkpt lat="46.74584540538489818572998046875" lon="6.86799240298569202423095703125">
        <ele>376.20001220703125</ele>
        <time>2013-09-01T15:37:18.000Z</time>
        <extensions>
          <ns3:TrackPointExtension>
            <ns3:atemp>17.0</ns3:atemp>
          </ns3:TrackPointExtension>
        </extensions>
      </trkpt>
      <trkpt lat="46.74582143314182758331298828125" lon="6.8680504895746707916259765625">
        <ele>374.79998779296875</ele>
        <time>2013-09-01T15:37:19.000Z</time>
        <extensions>
          <ns3:TrackPointExtension>
            <ns3:atemp>17.0</ns3:atemp>
          </ns3:TrackPointExtension>
        </extensions>
      </trkpt>
      <trkpt lat="46.74580483697354793548583984375" lon="6.86809868551790714263916015625">
        <ele>373.399993896484375</ele>
        <time>2013-09-01T15:37:20.000Z</time>
        <extensions>
          <ns3:TrackPointExtension>
            <ns3:atemp>17.0</ns3:atemp>
          </ns3:TrackPointExtension>
        </extensions>
      </trkpt>
      <trkpt lat="46.74580148421227931976318359375" lon="6.86815090477466583251953125">
        <ele>372.600006103515625</ele>
        <time>2013-09-01T15:37:21.000Z</time>
        <extensions>
          <ns3:TrackPointExtension>
            <ns3:atemp>17.0</ns3:atemp>
          </ns3:TrackPointExtension>
        </extensions>
      </trkpt>
      <trkpt lat="46.745809279382228851318359375" lon="6.868200860917568206787109375">
        <ele>372.20001220703125</ele>
        <time>2013-09-01T15:37:22.000Z</time>
        <extensions>
          <ns3:TrackPointExtension>
            <ns3:atemp>17.0</ns3:atemp>
          </ns3:TrackPointExtension>
        </extensions>
      </trkpt>
      <trkpt lat="46.74583576619625091552734375" lon="6.86824419535696506500244140625">
        <ele>372.20001220703125</ele>
        <time>2013-09-01T15:37:23.000Z</time>
        <extensions>
          <ns3:TrackPointExtension>
            <ns3:atemp>17.0</ns3:atemp>
          </ns3:TrackPointExtension>
        </extensions>
      </trkpt>
      <trkpt lat="46.74587390385568141937255859375" lon="6.8682818301022052764892578125">
        <ele>372.399993896484375</ele>
        <time>2013-09-01T15:37:24.000Z</time>
        <extensions>
          <ns3:TrackPointExtension>
            <ns3:atemp>17.0</ns3:atemp>
          </ns3:TrackPointExtension>
        </extensions>
      </trkpt>
      <trkpt lat="46.74590977840125560760498046875" lon="6.86831560917198657989501953125">
        <ele>372.20001220703125</ele>
        <time>2013-09-01T15:37:25.000Z</time>
        <extensions>
          <ns3:TrackPointExtension>
            <ns3:atemp>17.0</ns3:atemp>
          </ns3:TrackPointExtension>
        </extensions>
      </trkpt>
      <trkpt lat="46.7459579743444919586181640625" lon="6.8683462031185626983642578125">
        <ele>372.399993896484375</ele>
        <time>2013-09-01T15:37:26.000Z</time>
        <extensions>
          <ns3:TrackPointExtension>
            <ns3:atemp>17.0</ns3:atemp>
          </ns3:TrackPointExtension>
        </extensions>
      </trkpt>
      <trkpt lat="46.7460040748119354248046875" lon="6.86839104630053043365478515625">
        <ele>372.600006103515625</ele>
        <time>2013-09-01T15:37:27.000Z</time>
        <extensions>
          <ns3:TrackPointExtension>
            <ns3:atemp>17.0</ns3:atemp>
          </ns3:TrackPointExtension>
        </extensions>
      </trkpt>
      <trkpt lat="46.74606400541961193084716796875" lon="6.8684464506804943084716796875">
        <ele>372.79998779296875</ele>
        <time>2013-09-01T15:37:28.000Z</time>
        <extensions>
          <ns3:TrackPointExtension>
            <ns3:atemp>17.0</ns3:atemp>
          </ns3:TrackPointExtension>
        </extensions>
      </trkpt>
      <trkpt lat="46.746120750904083251953125" lon="6.868494562804698944091796875">
        <ele>372.600006103515625</ele>
        <time>2013-09-01T15:37:29.000Z</time>
        <extensions>
          <ns3:TrackPointExtension>
            <ns3:atemp>17.0</ns3:atemp>
          </ns3:TrackPointExtension>
        </extensions>
      </trkpt>
      <trkpt lat="46.7461772449314594268798828125" lon="6.8685430102050304412841796875">
        <ele>372.600006103515625</ele>
        <time>2013-09-01T15:37:30.000Z</time>
        <extensions>
          <ns3:TrackPointExtension>
            <ns3:atemp>17.0</ns3:atemp>
          </ns3:TrackPointExtension>
        </extensions>
      </trkpt>
      <trkpt lat="46.74623407423496246337890625" lon="6.8685919605195522308349609375">
        <ele>372.79998779296875</ele>
        <time>2013-09-01T15:37:31.000Z</time>
        <extensions>
          <ns3:TrackPointExtension>
            <ns3:atemp>17.0</ns3:atemp>
          </ns3:TrackPointExtension>
        </extensions>
      </trkpt>
      <trkpt lat="46.74629199318587779998779296875" lon="6.86863764189183712005615234375">
        <ele>372.79998779296875</ele>
        <time>2013-09-01T15:37:32.000Z</time>
        <extensions>
          <ns3:TrackPointExtension>
            <ns3:atemp>17.0</ns3:atemp>
          </ns3:TrackPointExtension>
        </extensions>
      </trkpt>
      <trkpt lat="46.74635049887001514434814453125" lon="6.86866798438131809234619140625">
        <ele>372.600006103515625</ele>
        <time>2013-09-01T15:37:33.000Z</time>
        <extensions>
          <ns3:TrackPointExtension>
            <ns3:atemp>17.0</ns3:atemp>
          </ns3:TrackPointExtension>
        </extensions>
      </trkpt>
      <trkpt lat="46.74640481360256671905517578125" lon="6.86870478093624114990234375">
        <ele>372</ele>
        <time>2013-09-01T15:37:34.000Z</time>
        <extensions>
          <ns3:TrackPointExtension>
            <ns3:atemp>17.0</ns3:atemp>
          </ns3:TrackPointExtension>
        </extensions>
      </trkpt>
      <trkpt lat="46.74644471146166324615478515625" lon="6.86875632964074611663818359375">
        <ele>371.79998779296875</ele>
        <time>2013-09-01T15:37:35.000Z</time>
        <extensions>
          <ns3:TrackPointExtension>
            <ns3:atemp>17.0</ns3:atemp>
          </ns3:TrackPointExtension>
        </extensions>
      </trkpt>
      <trkpt lat="46.746464408934116363525390625" lon="6.86882791109383106231689453125">
        <ele>371.20001220703125</ele>
        <time>2013-09-01T15:37:36.000Z</time>
        <extensions>
          <ns3:TrackPointExtension>
            <ns3:atemp>17.0</ns3:atemp>
          </ns3:TrackPointExtension>
        </extensions>
      </trkpt>
      <trkpt lat="46.746474467217922210693359375" lon="6.8689186871051788330078125">
        <ele>370.79998779296875</ele>
        <time>2013-09-01T15:37:37.000Z</time>
        <extensions>
          <ns3:TrackPointExtension>
            <ns3:atemp>17.0</ns3:atemp>
          </ns3:TrackPointExtension>
        </extensions>
      </trkpt>
      <trkpt lat="46.7464967630803585052490234375" lon="6.869000159204006195068359375">
        <ele>370.600006103515625</ele>
        <time>2013-09-01T15:37:38.000Z</time>
        <extensions>
          <ns3:TrackPointExtension>
            <ns3:atemp>17.0</ns3:atemp>
          </ns3:TrackPointExtension>
        </extensions>
      </trkpt>
      <trkpt lat="46.74653121270239353179931640625" lon="6.8690688908100128173828125">
        <ele>370.600006103515625</ele>
        <time>2013-09-01T15:37:39.000Z</time>
        <extensions>
          <ns3:TrackPointExtension>
            <ns3:atemp>17.0</ns3:atemp>
          </ns3:TrackPointExtension>
        </extensions>
      </trkpt>
      <trkpt lat="46.7465641535818576812744140625" lon="6.86913368292152881622314453125">
        <ele>370.399993896484375</ele>
        <time>2013-09-01T15:37:40.000Z</time>
        <extensions>
          <ns3:TrackPointExtension>
            <ns3:atemp>17.0</ns3:atemp>
          </ns3:TrackPointExtension>
        </extensions>
      </trkpt>
      <trkpt lat="46.7465913109481334686279296875" lon="6.86919964849948883056640625">
        <ele>370.20001220703125</ele>
        <time>2013-09-01T15:37:41.000Z</time>
        <extensions>
          <ns3:TrackPointExtension>
            <ns3:atemp>17.0</ns3:atemp>
          </ns3:TrackPointExtension>
        </extensions>
      </trkpt>
      <trkpt lat="46.746563650667667388916015625" lon="6.86926946975290775299072265625">
        <ele>370</ele>
        <time>2013-09-01T15:37:42.000Z</time>
        <extensions>
          <ns3:TrackPointExtension>
            <ns3:atemp>17.0</ns3:atemp>
          </ns3:TrackPointExtension>
        </extensions>
      </trkpt>
      <trkpt lat="46.74654428847134113311767578125" lon="6.86933484859764575958251953125">
        <ele>369.79998779296875</ele>
        <time>2013-09-01T15:37:43.000Z</time>
        <extensions>
          <ns3:TrackPointExtension>
            <ns3:atemp>17.0</ns3:atemp>
          </ns3:TrackPointExtension>
        </extensions>
      </trkpt>
      <trkpt lat="46.7465232498943805694580078125" lon="6.86939117498695850372314453125">
        <ele>369.600006103515625</ele>
        <time>2013-09-01T15:37:44.000Z</time>
        <extensions>
          <ns3:TrackPointExtension>
            <ns3:atemp>17.0</ns3:atemp>
          </ns3:TrackPointExtension>
        </extensions>
      </trkpt>
      <trkpt lat="46.7465007863938808441162109375" lon="6.86943308450281620025634765625">
        <ele>369.600006103515625</ele>
        <time>2013-09-01T15:37:45.000Z</time>
        <extensions>
          <ns3:TrackPointExtension>
            <ns3:atemp>17.0</ns3:atemp>
          </ns3:TrackPointExtension>
        </extensions>
      </trkpt>
      <trkpt lat="46.74646164290606975555419921875" lon="6.86945353634655475616455078125">
        <ele>369.600006103515625</ele>
        <time>2013-09-01T15:37:46.000Z</time>
        <extensions>
          <ns3:TrackPointExtension>
            <ns3:atemp>17.0</ns3:atemp>
          </ns3:TrackPointExtension>
        </extensions>
      </trkpt>
      <trkpt lat="46.74640439450740814208984375" lon="6.8694609962403774261474609375">
        <ele>369.600006103515625</ele>
        <time>2013-09-01T15:37:47.000Z</time>
        <extensions>
          <ns3:TrackPointExtension>
            <ns3:atemp>17.0</ns3:atemp>
          </ns3:TrackPointExtension>
        </extensions>
      </trkpt>
      <trkpt lat="46.7463338188827037811279296875" lon="6.8694827891886234283447265625">
        <ele>369.79998779296875</ele>
        <time>2013-09-01T15:37:48.000Z</time>
        <extensions>
          <ns3:TrackPointExtension>
            <ns3:atemp>17.0</ns3:atemp>
          </ns3:TrackPointExtension>
        </extensions>
      </trkpt>
      <trkpt lat="46.7462664283812046051025390625" lon="6.869525201618671417236328125">
        <ele>369.79998779296875</ele>
        <time>2013-09-01T15:37:49.000Z</time>
        <extensions>
          <ns3:TrackPointExtension>
            <ns3:atemp>17.0</ns3:atemp>
          </ns3:TrackPointExtension>
        </extensions>
      </trkpt>
      <trkpt lat="46.74621471203863620758056640625" lon="6.86958932317793369293212890625">
        <ele>369.79998779296875</ele>
        <time>2013-09-01T15:37:50.000Z</time>
        <extensions>
          <ns3:TrackPointExtension>
            <ns3:atemp>17.0</ns3:atemp>
          </ns3:TrackPointExtension>
        </extensions>
      </trkpt>
      <trkpt lat="46.746169030666351318359375" lon="6.8696614913642406463623046875">
        <ele>369.79998779296875</ele>
        <time>2013-09-01T15:37:51.000Z</time>
        <extensions>
          <ns3:TrackPointExtension>
            <ns3:atemp>17.0</ns3:atemp>
          </ns3:TrackPointExtension>
        </extensions>
      </trkpt>
      <trkpt lat="46.74611815251410007476806640625" lon="6.86973164789378643035888671875">
        <ele>370</ele>
        <time>2013-09-01T15:37:52.000Z</time>
        <extensions>
          <ns3:TrackPointExtension>
            <ns3:atemp>17.0</ns3:atemp>
          </ns3:TrackPointExtension>
        </extensions>
      </trkpt>
      <trkpt lat="46.746068112552165985107421875" lon="6.869803480803966522216796875">
        <ele>370.20001220703125</ele>
        <time>2013-09-01T15:37:53.000Z</time>
        <extensions>
          <ns3:TrackPointExtension>
            <ns3:atemp>17.0</ns3:atemp>
          </ns3:TrackPointExtension>
        </extensions>
      </trkpt>
      <trkpt lat="46.74601840786635875701904296875" lon="6.86987363733351230621337890625">
        <ele>370</ele>
        <time>2013-09-01T15:37:54.000Z</time>
        <extensions>
          <ns3:TrackPointExtension>
            <ns3:atemp>17.0</ns3:atemp>
          </ns3:TrackPointExtension>
        </extensions>
      </trkpt>
      <trkpt lat="46.7459730617702007293701171875" lon="6.86994555406272411346435546875">
        <ele>370</ele>
        <time>2013-09-01T15:37:55.000Z</time>
        <extensions>
          <ns3:TrackPointExtension>
            <ns3:atemp>17.0</ns3:atemp>
          </ns3:TrackPointExtension>
        </extensions>
      </trkpt>
      <trkpt lat="46.7459113709628582000732421875" lon="6.8700061552226543426513671875">
        <ele>369.79998779296875</ele>
        <time>2013-09-01T15:37:56.000Z</time>
        <extensions>
          <ns3:TrackPointExtension>
            <ns3:atemp>17.0</ns3:atemp>
          </ns3:TrackPointExtension>
        </extensions>
      </trkpt>
      <trkpt lat="46.7458597384393215179443359375" lon="6.8700755573809146881103515625">
        <ele>369.79998779296875</ele>
        <time>2013-09-01T15:37:57.000Z</time>
        <extensions>
          <ns3:TrackPointExtension>
            <ns3:atemp>17.0</ns3:atemp>
          </ns3:TrackPointExtension>
        </extensions>
      </trkpt>
      <trkpt lat="46.74581036902964115142822265625" lon="6.8701499886810779571533203125">
        <ele>369.399993896484375</ele>
        <time>2013-09-01T15:37:58.000Z</time>
        <extensions>
          <ns3:TrackPointExtension>
            <ns3:atemp>17.0</ns3:atemp>
          </ns3:TrackPointExtension>
        </extensions>
      </trkpt>
      <trkpt lat="46.745767034590244293212890625" lon="6.87023305334150791168212890625">
        <ele>369.399993896484375</ele>
        <time>2013-09-01T15:37:59.000Z</time>
        <extensions>
          <ns3:TrackPointExtension>
            <ns3:atemp>17.0</ns3:atemp>
          </ns3:TrackPointExtension>
        </extensions>
      </trkpt>
      <trkpt lat="46.74572370015084743499755859375" lon="6.8703223206102848052978515625">
        <ele>369.600006103515625</ele>
        <time>2013-09-01T15:38:00.000Z</time>
        <extensions>
          <ns3:TrackPointExtension>
            <ns3:atemp>17.0</ns3:atemp>
          </ns3:TrackPointExtension>
        </extensions>
      </trkpt>
      <trkpt lat="46.7456823773682117462158203125" lon="6.8704141862690448760986328125">
        <ele>369.79998779296875</ele>
        <time>2013-09-01T15:38:01.000Z</time>
        <extensions>
          <ns3:TrackPointExtension>
            <ns3:atemp>17.0</ns3:atemp>
          </ns3:TrackPointExtension>
        </extensions>
      </trkpt>
      <trkpt lat="46.7456411384046077728271484375" lon="6.8705073930323123931884765625">
        <ele>369.79998779296875</ele>
        <time>2013-09-01T15:38:02.000Z</time>
        <extensions>
          <ns3:TrackPointExtension>
            <ns3:atemp>17.0</ns3:atemp>
          </ns3:TrackPointExtension>
        </extensions>
      </trkpt>
      <trkpt lat="46.74560132436454296112060546875" lon="6.87060487456619739532470703125">
        <ele>369.79998779296875</ele>
        <time>2013-09-01T15:38:03.000Z</time>
        <extensions>
          <ns3:TrackPointExtension>
            <ns3:atemp>17.0</ns3:atemp>
          </ns3:TrackPointExtension>
        </extensions>
      </trkpt>
      <trkpt lat="46.74556218087673187255859375" lon="6.87070461921393871307373046875">
        <ele>369.600006103515625</ele>
        <time>2013-09-01T15:38:04.000Z</time>
        <extensions>
          <ns3:TrackPointExtension>
            <ns3:atemp>17.0</ns3:atemp>
          </ns3:TrackPointExtension>
        </extensions>
      </trkpt>
      <trkpt lat="46.74552261829376220703125" lon="6.8708034418523311614990234375">
        <ele>369.399993896484375</ele>
        <time>2013-09-01T15:38:05.000Z</time>
        <extensions>
          <ns3:TrackPointExtension>
            <ns3:atemp>17.0</ns3:atemp>
          </ns3:TrackPointExtension>
        </extensions>
      </trkpt>
      <trkpt lat="46.7454864084720611572265625" lon="6.87090377323329448699951171875">
        <ele>369.399993896484375</ele>
        <time>2013-09-01T15:38:06.000Z</time>
        <extensions>
          <ns3:TrackPointExtension>
            <ns3:atemp>17.0</ns3:atemp>
          </ns3:TrackPointExtension>
        </extensions>
      </trkpt>
      <trkpt lat="46.74545162357389926910400390625" lon="6.871005780994892120361328125">
        <ele>369.399993896484375</ele>
        <time>2013-09-01T15:38:07.000Z</time>
        <extensions>
          <ns3:TrackPointExtension>
            <ns3:atemp>17.0</ns3:atemp>
          </ns3:TrackPointExtension>
        </extensions>
      </trkpt>
      <trkpt lat="46.745421029627323150634765625" lon="6.8711095489561557769775390625">
        <ele>369.399993896484375</ele>
        <time>2013-09-01T15:38:08.000Z</time>
        <extensions>
          <ns3:TrackPointExtension>
            <ns3:atemp>17.0</ns3:atemp>
          </ns3:TrackPointExtension>
        </extensions>
      </trkpt>
      <trkpt lat="46.74539462663233280181884765625" lon="6.8712151609361171722412109375">
        <ele>369.20001220703125</ele>
        <time>2013-09-01T15:38:09.000Z</time>
        <extensions>
          <ns3:TrackPointExtension>
            <ns3:atemp>17.0</ns3:atemp>
          </ns3:TrackPointExtension>
        </extensions>
      </trkpt>
      <trkpt lat="46.74536730162799358367919921875" lon="6.8713197670876979827880859375">
        <ele>369.20001220703125</ele>
        <time>2013-09-01T15:38:10.000Z</time>
        <extensions>
          <ns3:TrackPointExtension>
            <ns3:atemp>17.0</ns3:atemp>
          </ns3:TrackPointExtension>
        </extensions>
      </trkpt>
      <trkpt lat="46.745339892804622650146484375" lon="6.8714237026870250701904296875">
        <ele>369.20001220703125</ele>
        <time>2013-09-01T15:38:11.000Z</time>
        <extensions>
          <ns3:TrackPointExtension>
            <ns3:atemp>17.0</ns3:atemp>
          </ns3:TrackPointExtension>
        </extensions>
      </trkpt>
      <trkpt lat="46.74530862830579280853271484375" lon="6.8715273030102252960205078125">
        <ele>369.600006103515625</ele>
        <time>2013-09-01T15:38:12.000Z</time>
        <extensions>
          <ns3:TrackPointExtension>
            <ns3:atemp>17.0</ns3:atemp>
          </ns3:TrackPointExtension>
        </extensions>
      </trkpt>
      <trkpt lat="46.74527392722666263580322265625" lon="6.87162830494344234466552734375">
        <ele>369.79998779296875</ele>
        <time>2013-09-01T15:38:13.000Z</time>
        <extensions>
          <ns3:TrackPointExtension>
            <ns3:atemp>17.0</ns3:atemp>
          </ns3:TrackPointExtension>
        </extensions>
      </trkpt>
      <trkpt lat="46.745235957205295562744140625" lon="6.871727965772151947021484375">
        <ele>369.79998779296875</ele>
        <time>2013-09-01T15:38:14.000Z</time>
        <extensions>
          <ns3:TrackPointExtension>
            <ns3:atemp>17.0</ns3:atemp>
          </ns3:TrackPointExtension>
        </extensions>
      </trkpt>
      <trkpt lat="46.745193712413311004638671875" lon="6.87182444147765636444091796875">
        <ele>369.600006103515625</ele>
        <time>2013-09-01T15:38:15.000Z</time>
        <extensions>
          <ns3:TrackPointExtension>
            <ns3:atemp>17.0</ns3:atemp>
          </ns3:TrackPointExtension>
        </extensions>
      </trkpt>
      <trkpt lat="46.74514886923134326934814453125" lon="6.8719185702502727508544921875">
        <ele>369.20001220703125</ele>
        <time>2013-09-01T15:38:16.000Z</time>
        <extensions>
          <ns3:TrackPointExtension>
            <ns3:atemp>17.0</ns3:atemp>
          </ns3:TrackPointExtension>
        </extensions>
      </trkpt>
      <trkpt lat="46.7451028525829315185546875" lon="6.87201051972806453704833984375">
        <ele>369.20001220703125</ele>
        <time>2013-09-01T15:38:17.000Z</time>
        <extensions>
          <ns3:TrackPointExtension>
            <ns3:atemp>17.0</ns3:atemp>
          </ns3:TrackPointExtension>
        </extensions>
      </trkpt>
      <trkpt lat="46.745058260858058929443359375" lon="6.8721023015677928924560546875">
        <ele>369</ele>
        <time>2013-09-01T15:38:18.000Z</time>
        <extensions>
          <ns3:TrackPointExtension>
            <ns3:atemp>17.0</ns3:atemp>
          </ns3:TrackPointExtension>
        </extensions>
      </trkpt>
      <trkpt lat="46.7450138367712497711181640625" lon="6.87219223938882350921630859375">
        <ele>369</ele>
        <time>2013-09-01T15:38:19.000Z</time>
        <extensions>
          <ns3:TrackPointExtension>
            <ns3:atemp>17.0</ns3:atemp>
          </ns3:TrackPointExtension>
        </extensions>
      </trkpt>
      <trkpt lat="46.7449695803225040435791015625" lon="6.87228175811469554901123046875">
        <ele>368.79998779296875</ele>
        <time>2013-09-01T15:38:20.000Z</time>
        <extensions>
          <ns3:TrackPointExtension>
            <ns3:atemp>17.0</ns3:atemp>
          </ns3:TrackPointExtension>
        </extensions>
      </trkpt>
      <trkpt lat="46.74492540769279003143310546875" lon="6.87237211503088474273681640625">
        <ele>368.79998779296875</ele>
        <time>2013-09-01T15:38:21.000Z</time>
        <extensions>
          <ns3:TrackPointExtension>
            <ns3:atemp>17.0</ns3:atemp>
          </ns3:TrackPointExtension>
        </extensions>
      </trkpt>
      <trkpt lat="46.74488198943436145782470703125" lon="6.872464902698993682861328125">
        <ele>368.399993896484375</ele>
        <time>2013-09-01T15:38:22.000Z</time>
        <extensions>
          <ns3:TrackPointExtension>
            <ns3:atemp>17.0</ns3:atemp>
          </ns3:TrackPointExtension>
        </extensions>
      </trkpt>
      <trkpt lat="46.74484209157526493072509765625" lon="6.87256154604256153106689453125">
        <ele>368</ele>
        <time>2013-09-01T15:38:23.000Z</time>
        <extensions>
          <ns3:TrackPointExtension>
            <ns3:atemp>17.0</ns3:atemp>
          </ns3:TrackPointExtension>
        </extensions>
      </trkpt>
      <trkpt lat="46.74480311572551727294921875" lon="6.87265911139547824859619140625">
        <ele>367.79998779296875</ele>
        <time>2013-09-01T15:38:24.000Z</time>
        <extensions>
          <ns3:TrackPointExtension>
            <ns3:atemp>17.0</ns3:atemp>
          </ns3:TrackPointExtension>
        </extensions>
      </trkpt>
      <trkpt lat="46.74476380459964275360107421875" lon="6.87275952659547328948974609375">
        <ele>368</ele>
        <time>2013-09-01T15:38:25.000Z</time>
        <extensions>
          <ns3:TrackPointExtension>
            <ns3:atemp>17.0</ns3:atemp>
          </ns3:TrackPointExtension>
        </extensions>
      </trkpt>
      <trkpt lat="46.7447254993021488189697265625" lon="6.872859857976436614990234375">
        <ele>367.79998779296875</ele>
        <time>2013-09-01T15:38:26.000Z</time>
        <extensions>
          <ns3:TrackPointExtension>
            <ns3:atemp>17.0</ns3:atemp>
          </ns3:TrackPointExtension>
        </extensions>
      </trkpt>
      <trkpt lat="46.7446899600327014923095703125" lon="6.87296236865222454071044921875">
        <ele>367.600006103515625</ele>
        <time>2013-09-01T15:38:27.000Z</time>
        <extensions>
          <ns3:TrackPointExtension>
            <ns3:atemp>17.0</ns3:atemp>
          </ns3:TrackPointExtension>
        </extensions>
      </trkpt>
      <trkpt lat="46.74465701915323734283447265625" lon="6.873067058622837066650390625">
        <ele>367.20001220703125</ele>
        <time>2013-09-01T15:38:28.000Z</time>
        <extensions>
          <ns3:TrackPointExtension>
            <ns3:atemp>17.0</ns3:atemp>
          </ns3:TrackPointExtension>
        </extensions>
      </trkpt>
      <trkpt lat="46.74462608993053436279296875" lon="6.87317325733602046966552734375">
        <ele>367</ele>
        <time>2013-09-01T15:38:29.000Z</time>
        <extensions>
          <ns3:TrackPointExtension>
            <ns3:atemp>17.0</ns3:atemp>
          </ns3:TrackPointExtension>
        </extensions>
      </trkpt>
      <trkpt lat="46.74459851346909999847412109375" lon="6.87327886931598186492919921875">
        <ele>366.79998779296875</ele>
        <time>2013-09-01T15:38:30.000Z</time>
        <extensions>
          <ns3:TrackPointExtension>
            <ns3:atemp>17.0</ns3:atemp>
          </ns3:TrackPointExtension>
        </extensions>
      </trkpt>
      <trkpt lat="46.7445739544928073883056640625" lon="6.87338565476238727569580078125">
        <ele>366.79998779296875</ele>
        <time>2013-09-01T15:38:31.000Z</time>
        <extensions>
          <ns3:TrackPointExtension>
            <ns3:atemp>17.0</ns3:atemp>
          </ns3:TrackPointExtension>
        </extensions>
      </trkpt>
      <trkpt lat="46.74454973079264163970947265625" lon="6.87349294312298297882080078125">
        <ele>366.79998779296875</ele>
        <time>2013-09-01T15:38:32.000Z</time>
        <extensions>
          <ns3:TrackPointExtension>
            <ns3:atemp>17.0</ns3:atemp>
          </ns3:TrackPointExtension>
        </extensions>
      </trkpt>
      <trkpt lat="46.74452743493020534515380859375" lon="6.8736006505787372589111328125">
        <ele>366.79998779296875</ele>
        <time>2013-09-01T15:38:33.000Z</time>
        <extensions>
          <ns3:TrackPointExtension>
            <ns3:atemp>17.0</ns3:atemp>
          </ns3:TrackPointExtension>
        </extensions>
      </trkpt>
      <trkpt lat="46.74450882710516452789306640625" lon="6.87370777130126953125">
        <ele>366.20001220703125</ele>
        <time>2013-09-01T15:38:34.000Z</time>
        <extensions>
          <ns3:TrackPointExtension>
            <ns3:atemp>17.0</ns3:atemp>
          </ns3:TrackPointExtension>
        </extensions>
      </trkpt>
      <trkpt lat="46.74449332058429718017578125" lon="6.87381313182413578033447265625">
        <ele>366</ele>
        <time>2013-09-01T15:38:35.000Z</time>
        <extensions>
          <ns3:TrackPointExtension>
            <ns3:atemp>17.0</ns3:atemp>
          </ns3:TrackPointExtension>
        </extensions>
      </trkpt>
      <trkpt lat="46.7444824241101741790771484375" lon="6.87391589395701885223388671875">
        <ele>366.399993896484375</ele>
        <time>2013-09-01T15:38:36.000Z</time>
        <extensions>
          <ns3:TrackPointExtension>
            <ns3:atemp>17.0</ns3:atemp>
          </ns3:TrackPointExtension>
        </extensions>
      </trkpt>
      <trkpt lat="46.7444653250277042388916015625" lon="6.8740147165954113006591796875">
        <ele>366.399993896484375</ele>
        <time>2013-09-01T15:38:37.000Z</time>
        <extensions>
          <ns3:TrackPointExtension>
            <ns3:atemp>17.0</ns3:atemp>
          </ns3:TrackPointExtension>
        </extensions>
      </trkpt>
      <trkpt lat="46.74443162977695465087890625" lon="6.87409928999841213226318359375">
        <ele>366.399993896484375</ele>
        <time>2013-09-01T15:38:38.000Z</time>
        <extensions>
          <ns3:TrackPointExtension>
            <ns3:atemp>17.0</ns3:atemp>
          </ns3:TrackPointExtension>
        </extensions>
      </trkpt>
      <trkpt lat="46.74438628368079662322998046875" lon="6.87415645457804203033447265625">
        <ele>365.600006103515625</ele>
        <time>2013-09-01T15:38:39.000Z</time>
        <extensions>
          <ns3:TrackPointExtension>
            <ns3:atemp>17.0</ns3:atemp>
          </ns3:TrackPointExtension>
        </extensions>
      </trkpt>
      <trkpt lat="46.74433632753789424896240234375" lon="6.87417858280241489410400390625">
        <ele>364.600006103515625</ele>
        <time>2013-09-01T15:38:40.000Z</time>
        <extensions>
          <ns3:TrackPointExtension>
            <ns3:atemp>17.0</ns3:atemp>
          </ns3:TrackPointExtension>
        </extensions>
      </trkpt>
      <trkpt lat="46.7442685179412364959716796875" lon="6.87416349537670612335205078125">
        <ele>363.79998779296875</ele>
        <time>2013-09-01T15:38:41.000Z</time>
        <extensions>
          <ns3:TrackPointExtension>
            <ns3:atemp>17.0</ns3:atemp>
          </ns3:TrackPointExtension>
        </extensions>
      </trkpt>
      <trkpt lat="46.74418930895626544952392578125" lon="6.87412493862211704254150390625">
        <ele>363.600006103515625</ele>
        <time>2013-09-01T15:38:42.000Z</time>
        <extensions>
          <ns3:TrackPointExtension>
            <ns3:atemp>17.0</ns3:atemp>
          </ns3:TrackPointExtension>
        </extensions>
      </trkpt>
      <trkpt lat="46.7441072501242160797119140625" lon="6.87408604659140110015869140625">
        <ele>363.399993896484375</ele>
        <time>2013-09-01T15:38:43.000Z</time>
        <extensions>
          <ns3:TrackPointExtension>
            <ns3:atemp>17.0</ns3:atemp>
          </ns3:TrackPointExtension>
        </extensions>
      </trkpt>
      <trkpt lat="46.74402368254959583282470703125" lon="6.87405235134065151214599609375">
        <ele>363.20001220703125</ele>
        <time>2013-09-01T15:38:44.000Z</time>
        <extensions>
          <ns3:TrackPointExtension>
            <ns3:atemp>17.0</ns3:atemp>
          </ns3:TrackPointExtension>
        </extensions>
      </trkpt>
      <trkpt lat="46.74393952824175357818603515625" lon="6.874019913375377655029296875">
        <ele>363</ele>
        <time>2013-09-01T15:38:45.000Z</time>
        <extensions>
          <ns3:TrackPointExtension>
            <ns3:atemp>17.0</ns3:atemp>
          </ns3:TrackPointExtension>
        </extensions>
      </trkpt>
      <trkpt lat="46.74385487101972103118896484375" lon="6.8739848770201206207275390625">
        <ele>362.79998779296875</ele>
        <time>2013-09-01T15:38:46.000Z</time>
        <extensions>
          <ns3:TrackPointExtension>
            <ns3:atemp>17.0</ns3:atemp>
          </ns3:TrackPointExtension>
        </extensions>
      </trkpt>
      <trkpt lat="46.7437706328928470611572265625" lon="6.8739483319222927093505859375">
        <ele>363</ele>
        <time>2013-09-01T15:38:47.000Z</time>
        <extensions>
          <ns3:TrackPointExtension>
            <ns3:atemp>17.0</ns3:atemp>
          </ns3:TrackPointExtension>
        </extensions>
      </trkpt>
      <trkpt lat="46.7436861433088779449462890625" lon="6.87391187064349651336669921875">
        <ele>363.20001220703125</ele>
        <time>2013-09-01T15:38:48.000Z</time>
        <extensions>
          <ns3:TrackPointExtension>
            <ns3:atemp>17.0</ns3:atemp>
          </ns3:TrackPointExtension>
        </extensions>
      </trkpt>
      <trkpt lat="46.743600480258464813232421875" lon="6.87387784011662006378173828125">
        <ele>363</ele>
        <time>2013-09-01T15:38:49.000Z</time>
        <extensions>
          <ns3:TrackPointExtension>
            <ns3:atemp>17.0</ns3:atemp>
          </ns3:TrackPointExtension>
        </extensions>
      </trkpt>
      <trkpt lat="46.74351590685546398162841796875" lon="6.87384464778006076812744140625">
        <ele>362.600006103515625</ele>
        <time>2013-09-01T15:38:50.000Z</time>
        <extensions>
          <ns3:TrackPointExtension>
            <ns3:atemp>17.0</ns3:atemp>
          </ns3:TrackPointExtension>
        </extensions>
      </trkpt>
      <trkpt lat="46.74343074671924114227294921875" lon="6.8738110363483428955078125">
        <ele>362.600006103515625</ele>
        <time>2013-09-01T15:38:51.000Z</time>
        <extensions>
          <ns3:TrackPointExtension>
            <ns3:atemp>17.0</ns3:atemp>
          </ns3:TrackPointExtension>
        </extensions>
      </trkpt>
      <trkpt lat="46.74334642477333545684814453125" lon="6.873776502907276153564453125">
        <ele>362.399993896484375</ele>
        <time>2013-09-01T15:38:52.000Z</time>
        <extensions>
          <ns3:TrackPointExtension>
            <ns3:atemp>17.0</ns3:atemp>
          </ns3:TrackPointExtension>
        </extensions>
      </trkpt>
      <trkpt lat="46.74326377920806407928466796875" lon="6.8737421371042728424072265625">
        <ele>362.399993896484375</ele>
        <time>2013-09-01T15:38:53.000Z</time>
        <extensions>
          <ns3:TrackPointExtension>
            <ns3:atemp>17.0</ns3:atemp>
          </ns3:TrackPointExtension>
        </extensions>
      </trkpt>
      <trkpt lat="46.7431828938424587249755859375" lon="6.8737102858722209930419921875">
        <ele>362.600006103515625</ele>
        <time>2013-09-01T15:38:54.000Z</time>
        <extensions>
          <ns3:TrackPointExtension>
            <ns3:atemp>17.0</ns3:atemp>
          </ns3:TrackPointExtension>
        </extensions>
      </trkpt>
      <trkpt lat="46.74310351721942424774169921875" lon="6.87367969192564487457275390625">
        <ele>362.600006103515625</ele>
        <time>2013-09-01T15:38:55.000Z</time>
        <extensions>
          <ns3:TrackPointExtension>
            <ns3:atemp>17.0</ns3:atemp>
          </ns3:TrackPointExtension>
        </extensions>
      </trkpt>
      <trkpt lat="46.74302623607218265533447265625" lon="6.8736475892364978790283203125">
        <ele>362.79998779296875</ele>
        <time>2013-09-01T15:38:56.000Z</time>
        <extensions>
          <ns3:TrackPointExtension>
            <ns3:atemp>17.0</ns3:atemp>
          </ns3:TrackPointExtension>
        </extensions>
      </trkpt>
      <trkpt lat="46.7429517209529876708984375" lon="6.87360559590160846710205078125">
        <ele>363</ele>
        <time>2013-09-01T15:38:57.000Z</time>
        <extensions>
          <ns3:TrackPointExtension>
            <ns3:atemp>18.0</ns3:atemp>
          </ns3:TrackPointExtension>
        </extensions>
      </trkpt>
      <trkpt lat="46.74288374371826648712158203125" lon="6.8735493533313274383544921875">
        <ele>363.20001220703125</ele>
        <time>2013-09-01T15:38:58.000Z</time>
        <extensions>
          <ns3:TrackPointExtension>
            <ns3:atemp>18.0</ns3:atemp>
          </ns3:TrackPointExtension>
        </extensions>
      </trkpt>
      <trkpt lat="46.74282188527286052703857421875" lon="6.8734811246395111083984375">
        <ele>363.20001220703125</ele>
        <time>2013-09-01T15:38:59.000Z</time>
        <extensions>
          <ns3:TrackPointExtension>
            <ns3:atemp>18.0</ns3:atemp>
          </ns3:TrackPointExtension>
        </extensions>
      </trkpt>
      <trkpt lat="46.7427631281316280364990234375" lon="6.873409710824489593505859375">
        <ele>363.20001220703125</ele>
        <time>2013-09-01T15:39:00.000Z</time>
        <extensions>
          <ns3:TrackPointExtension>
            <ns3:atemp>18.0</ns3:atemp>
          </ns3:TrackPointExtension>
        </extensions>
      </trkpt>
      <trkpt lat="46.74270688556134700775146484375" lon="6.87333754263818264007568359375">
        <ele>363</ele>
        <time>2013-09-01T15:39:01.000Z</time>
        <extensions>
          <ns3:TrackPointExtension>
            <ns3:atemp>18.0</ns3:atemp>
          </ns3:TrackPointExtension>
        </extensions>
      </trkpt>
      <trkpt lat="46.74265525303781032562255859375" lon="6.873261518776416778564453125">
        <ele>362.79998779296875</ele>
        <time>2013-09-01T15:39:02.000Z</time>
        <extensions>
          <ns3:TrackPointExtension>
            <ns3:atemp>18.0</ns3:atemp>
          </ns3:TrackPointExtension>
        </extensions>
      </trkpt>
      <trkpt lat="46.74260579980909824371337890625" lon="6.8731869198381900787353515625">
        <ele>362.600006103515625</ele>
        <time>2013-09-01T15:39:03.000Z</time>
        <extensions>
          <ns3:TrackPointExtension>
            <ns3:atemp>18.0</ns3:atemp>
          </ns3:TrackPointExtension>
        </extensions>
      </trkpt>
      <trkpt lat="46.742555089294910430908203125" lon="6.87311508692800998687744140625">
        <ele>362.600006103515625</ele>
        <time>2013-09-01T15:39:04.000Z</time>
        <extensions>
          <ns3:TrackPointExtension>
            <ns3:atemp>18.0</ns3:atemp>
          </ns3:TrackPointExtension>
        </extensions>
      </trkpt>
      <trkpt lat="46.74250312149524688720703125" lon="6.87304384075105190277099609375">
        <ele>362.399993896484375</ele>
        <time>2013-09-01T15:39:05.000Z</time>
        <extensions>
          <ns3:TrackPointExtension>
            <ns3:atemp>18.0</ns3:atemp>
          </ns3:TrackPointExtension>
        </extensions>
      </trkpt>
      <trkpt lat="46.74245459027588367462158203125" lon="6.87297175638377666473388671875">
        <ele>362.20001220703125</ele>
        <time>2013-09-01T15:39:06.000Z</time>
        <extensions>
          <ns3:TrackPointExtension>
            <ns3:atemp>18.0</ns3:atemp>
          </ns3:TrackPointExtension>
        </extensions>
      </trkpt>
      <trkpt lat="46.74240614287555217742919921875" lon="6.87291375361382961273193359375">
        <ele>361.79998779296875</ele>
        <time>2013-09-01T15:39:07.000Z</time>
        <extensions>
          <ns3:TrackPointExtension>
            <ns3:atemp>18.0</ns3:atemp>
          </ns3:TrackPointExtension>
        </extensions>
      </trkpt>
      <trkpt lat="46.7423581145703792572021484375" lon="6.8728955648839473724365234375">
        <ele>361.600006103515625</ele>
        <time>2013-09-01T15:39:08.000Z</time>
        <extensions>
          <ns3:TrackPointExtension>
            <ns3:atemp>18.0</ns3:atemp>
          </ns3:TrackPointExtension>
        </extensions>
      </trkpt>
      <trkpt lat="46.742317713797092437744140625" lon="6.87291777692735195159912109375">
        <ele>361.399993896484375</ele>
        <time>2013-09-01T15:39:09.000Z</time>
        <extensions>
          <ns3:TrackPointExtension>
            <ns3:atemp>18.0</ns3:atemp>
          </ns3:TrackPointExtension>
        </extensions>
      </trkpt>
      <trkpt lat="46.74228544346988201141357421875" lon="6.8729622848331928253173828125">
        <ele>361.79998779296875</ele>
        <time>2013-09-01T15:39:10.000Z</time>
        <extensions>
          <ns3:TrackPointExtension>
            <ns3:atemp>18.0</ns3:atemp>
          </ns3:TrackPointExtension>
        </extensions>
      </trkpt>
      <trkpt lat="46.7422543466091156005859375" lon="6.87301735393702983856201171875">
        <ele>361.79998779296875</ele>
        <time>2013-09-01T15:39:11.000Z</time>
        <extensions>
          <ns3:TrackPointExtension>
            <ns3:atemp>18.0</ns3:atemp>
          </ns3:TrackPointExtension>
        </extensions>
      </trkpt>
      <trkpt lat="46.74222291447222232818603515625" lon="6.87308080494403839111328125">
        <ele>361.79998779296875</ele>
        <time>2013-09-01T15:39:12.000Z</time>
        <extensions>
          <ns3:TrackPointExtension>
            <ns3:atemp>18.0</ns3:atemp>
          </ns3:TrackPointExtension>
        </extensions>
      </trkpt>
      <trkpt lat="46.74219290725886821746826171875" lon="6.87314786016941070556640625">
        <ele>362</ele>
        <time>2013-09-01T15:39:13.000Z</time>
        <extensions>
          <ns3:TrackPointExtension>
            <ns3:atemp>18.0</ns3:atemp>
          </ns3:TrackPointExtension>
        </extensions>
      </trkpt>
      <trkpt lat="46.74216105602681636810302734375" lon="6.8732157535851001739501953125">
        <ele>362.399993896484375</ele>
        <time>2013-09-01T15:39:14.000Z</time>
        <extensions>
          <ns3:TrackPointExtension>
            <ns3:atemp>18.0</ns3:atemp>
          </ns3:TrackPointExtension>
        </extensions>
      </trkpt>
      <trkpt lat="46.742125935852527618408203125" lon="6.873285658657550811767578125">
        <ele>362.600006103515625</ele>
        <time>2013-09-01T15:39:15.000Z</time>
        <extensions>
          <ns3:TrackPointExtension>
            <ns3:atemp>18.0</ns3:atemp>
          </ns3:TrackPointExtension>
        </extensions>
      </trkpt>
      <trkpt lat="46.7420915700495243072509765625" lon="6.8733582459390163421630859375">
        <ele>362.600006103515625</ele>
        <time>2013-09-01T15:39:16.000Z</time>
        <extensions>
          <ns3:TrackPointExtension>
            <ns3:atemp>18.0</ns3:atemp>
          </ns3:TrackPointExtension>
        </extensions>
      </trkpt>
      <trkpt lat="46.7420620657503604888916015625" lon="6.87343544326722621917724609375">
        <ele>362.600006103515625</ele>
        <time>2013-09-01T15:39:17.000Z</time>
        <extensions>
          <ns3:TrackPointExtension>
            <ns3:atemp>18.0</ns3:atemp>
          </ns3:TrackPointExtension>
        </extensions>
      </trkpt>
      <trkpt lat="46.74203515984117984771728515625" lon="6.8735104613006114959716796875">
        <ele>362.600006103515625</ele>
        <time>2013-09-01T15:39:18.000Z</time>
        <extensions>
          <ns3:TrackPointExtension>
            <ns3:atemp>18.0</ns3:atemp>
          </ns3:TrackPointExtension>
        </extensions>
      </trkpt>
      <trkpt lat="46.7420067451894283294677734375" lon="6.873579360544681549072265625">
        <ele>362.79998779296875</ele>
        <time>2013-09-01T15:39:19.000Z</time>
        <extensions>
          <ns3:TrackPointExtension>
            <ns3:atemp>18.0</ns3:atemp>
          </ns3:TrackPointExtension>
        </extensions>
      </trkpt>
      <trkpt lat="46.7419728823006153106689453125" lon="6.873640380799770355224609375">
        <ele>362.79998779296875</ele>
        <time>2013-09-01T15:39:20.000Z</time>
        <extensions>
          <ns3:TrackPointExtension>
            <ns3:atemp>18.0</ns3:atemp>
          </ns3:TrackPointExtension>
        </extensions>
      </trkpt>
      <trkpt lat="46.74192384816706180572509765625" lon="6.87368723563849925994873046875">
        <ele>362.600006103515625</ele>
        <time>2013-09-01T15:39:21.000Z</time>
        <extensions>
          <ns3:TrackPointExtension>
            <ns3:atemp>18.0</ns3:atemp>
          </ns3:TrackPointExtension>
        </extensions>
      </trkpt>
      <trkpt lat="46.741869114339351654052734375" lon="6.8737206794321537017822265625">
        <ele>362.600006103515625</ele>
        <time>2013-09-01T15:39:22.000Z</time>
        <extensions>
          <ns3:TrackPointExtension>
            <ns3:atemp>18.0</ns3:atemp>
          </ns3:TrackPointExtension>
        </extensions>
      </trkpt>
      <trkpt lat="46.74181790091097354888916015625" lon="6.87373031862080097198486328125">
        <ele>362.600006103515625</ele>
        <time>2013-09-01T15:39:23.000Z</time>
        <extensions>
          <ns3:TrackPointExtension>
            <ns3:atemp>18.0</ns3:atemp>
          </ns3:TrackPointExtension>
        </extensions>
      </trkpt>
      <trkpt lat="46.7417670227587223052978515625" lon="6.8737153150141239166259765625">
        <ele>362.79998779296875</ele>
        <time>2013-09-01T15:39:24.000Z</time>
        <extensions>
          <ns3:TrackPointExtension>
            <ns3:atemp>18.0</ns3:atemp>
          </ns3:TrackPointExtension>
        </extensions>
      </trkpt>
      <trkpt lat="46.74171388149261474609375" lon="6.8736757524311542510986328125">
        <ele>362.79998779296875</ele>
        <time>2013-09-01T15:39:25.000Z</time>
        <extensions>
          <ns3:TrackPointExtension>
            <ns3:atemp>18.0</ns3:atemp>
          </ns3:TrackPointExtension>
        </extensions>
      </trkpt>
      <trkpt lat="46.74165931530296802520751953125" lon="6.8736345134675502777099609375">
        <ele>363</ele>
        <time>2013-09-01T15:39:26.000Z</time>
        <extensions>
          <ns3:TrackPointExtension>
            <ns3:atemp>18.0</ns3:atemp>
          </ns3:TrackPointExtension>
        </extensions>
      </trkpt>
      <trkpt lat="46.74160533584654331207275390625" lon="6.87358715571463108062744140625">
        <ele>363</ele>
        <time>2013-09-01T15:39:27.000Z</time>
        <extensions>
          <ns3:TrackPointExtension>
            <ns3:atemp>18.0</ns3:atemp>
          </ns3:TrackPointExtension>
        </extensions>
      </trkpt>
      <trkpt lat="46.74155638553202152252197265625" lon="6.8735329248011112213134765625">
        <ele>363.20001220703125</ele>
        <time>2013-09-01T15:39:28.000Z</time>
        <extensions>
          <ns3:TrackPointExtension>
            <ns3:atemp>18.0</ns3:atemp>
          </ns3:TrackPointExtension>
        </extensions>
      </trkpt>
      <trkpt lat="46.74151129089295864105224609375" lon="6.873476095497608184814453125">
        <ele>363.20001220703125</ele>
        <time>2013-09-01T15:39:29.000Z</time>
        <extensions>
          <ns3:TrackPointExtension>
            <ns3:atemp>18.0</ns3:atemp>
          </ns3:TrackPointExtension>
        </extensions>
      </trkpt>
      <trkpt lat="46.74146787263453006744384765625" lon="6.873416416347026824951171875">
        <ele>363.20001220703125</ele>
        <time>2013-09-01T15:39:30.000Z</time>
        <extensions>
          <ns3:TrackPointExtension>
            <ns3:atemp>18.0</ns3:atemp>
          </ns3:TrackPointExtension>
        </extensions>
      </trkpt>
      <trkpt lat="46.741421855986118316650390625" lon="6.87336771748960018157958984375">
        <ele>363</ele>
        <time>2013-09-01T15:39:31.000Z</time>
        <extensions>
          <ns3:TrackPointExtension>
            <ns3:atemp>18.0</ns3:atemp>
          </ns3:TrackPointExtension>
        </extensions>
      </trkpt>
      <trkpt lat="46.74137483350932598114013671875" lon="6.87333033420145511627197265625">
        <ele>363.20001220703125</ele>
        <time>2013-09-01T15:39:32.000Z</time>
        <extensions>
          <ns3:TrackPointExtension>
            <ns3:atemp>18.0</ns3:atemp>
          </ns3:TrackPointExtension>
        </extensions>
      </trkpt>
      <trkpt lat="46.7413289844989776611328125" lon="6.8733103014528751373291015625">
        <ele>363.20001220703125</ele>
        <time>2013-09-01T15:39:33.000Z</time>
        <extensions>
          <ns3:TrackPointExtension>
            <ns3:atemp>18.0</ns3:atemp>
          </ns3:TrackPointExtension>
        </extensions>
      </trkpt>
      <trkpt lat="46.74127760343253612518310546875" lon="6.8732972256839275360107421875">
        <ele>363.399993896484375</ele>
        <time>2013-09-01T15:39:34.000Z</time>
        <extensions>
          <ns3:TrackPointExtension>
            <ns3:atemp>18.0</ns3:atemp>
          </ns3:TrackPointExtension>
        </extensions>
      </trkpt>
      <trkpt lat="46.74122747965157032012939453125" lon="6.87329093925654888153076171875">
        <ele>363.399993896484375</ele>
        <time>2013-09-01T15:39:35.000Z</time>
        <extensions>
          <ns3:TrackPointExtension>
            <ns3:atemp>18.0</ns3:atemp>
          </ns3:TrackPointExtension>
        </extensions>
      </trkpt>
      <trkpt lat="46.74117811024188995361328125" lon="6.87329093925654888153076171875">
        <ele>363.399993896484375</ele>
        <time>2013-09-01T15:39:36.000Z</time>
        <extensions>
          <ns3:TrackPointExtension>
            <ns3:atemp>18.0</ns3:atemp>
          </ns3:TrackPointExtension>
        </extensions>
      </trkpt>
      <trkpt lat="46.741128824651241302490234375" lon="6.87328775413334369659423828125">
        <ele>363.20001220703125</ele>
        <time>2013-09-01T15:39:37.000Z</time>
        <extensions>
          <ns3:TrackPointExtension>
            <ns3:atemp>18.0</ns3:atemp>
          </ns3:TrackPointExtension>
        </extensions>
      </trkpt>
      <trkpt lat="46.74107744358479976654052734375" lon="6.87328062951564788818359375">
        <ele>363.399993896484375</ele>
        <time>2013-09-01T15:39:38.000Z</time>
        <extensions>
          <ns3:TrackPointExtension>
            <ns3:atemp>18.0</ns3:atemp>
          </ns3:TrackPointExtension>
        </extensions>
      </trkpt>
      <trkpt lat="46.74102933146059513092041015625" lon="6.8732558190822601318359375">
        <ele>363.399993896484375</ele>
        <time>2013-09-01T15:39:39.000Z</time>
        <extensions>
          <ns3:TrackPointExtension>
            <ns3:atemp>18.0</ns3:atemp>
          </ns3:TrackPointExtension>
        </extensions>
      </trkpt>
      <trkpt lat="46.7409864999353885650634765625" lon="6.87322002835571765899658203125">
        <ele>363.399993896484375</ele>
        <time>2013-09-01T15:39:40.000Z</time>
        <extensions>
          <ns3:TrackPointExtension>
            <ns3:atemp>18.0</ns3:atemp>
          </ns3:TrackPointExtension>
        </extensions>
      </trkpt>
      <trkpt lat="46.74094769172370433807373046875" lon="6.87317208386957645416259765625">
        <ele>363.600006103515625</ele>
        <time>2013-09-01T15:39:41.000Z</time>
        <extensions>
          <ns3:TrackPointExtension>
            <ns3:atemp>18.0</ns3:atemp>
          </ns3:TrackPointExtension>
        </extensions>
      </trkpt>
      <trkpt lat="46.74091232009232044219970703125" lon="6.87312179245054721832275390625">
        <ele>363.600006103515625</ele>
        <time>2013-09-01T15:39:42.000Z</time>
        <extensions>
          <ns3:TrackPointExtension>
            <ns3:atemp>18.0</ns3:atemp>
          </ns3:TrackPointExtension>
        </extensions>
      </trkpt>
      <trkpt lat="46.74087426625192165374755859375" lon="6.87306202948093414306640625">
        <ele>363.399993896484375</ele>
        <time>2013-09-01T15:39:43.000Z</time>
        <extensions>
          <ns3:TrackPointExtension>
            <ns3:atemp>18.0</ns3:atemp>
          </ns3:TrackPointExtension>
        </extensions>
      </trkpt>
      <trkpt lat="46.74083788879215717315673828125" lon="6.8729995004832744598388671875">
        <ele>363.399993896484375</ele>
        <time>2013-09-01T15:39:44.000Z</time>
        <extensions>
          <ns3:TrackPointExtension>
            <ns3:atemp>18.0</ns3:atemp>
          </ns3:TrackPointExtension>
        </extensions>
      </trkpt>
      <trkpt lat="46.7408000864088535308837890625" lon="6.87293286435306072235107421875">
        <ele>363.600006103515625</ele>
        <time>2013-09-01T15:39:45.000Z</time>
        <extensions>
          <ns3:TrackPointExtension>
            <ns3:atemp>18.0</ns3:atemp>
          </ns3:TrackPointExtension>
        </extensions>
      </trkpt>
      <trkpt lat="46.74076479859650135040283203125" lon="6.8728643842041492462158203125">
        <ele>363.600006103515625</ele>
        <time>2013-09-01T15:39:46.000Z</time>
        <extensions>
          <ns3:TrackPointExtension>
            <ns3:atemp>18.0</ns3:atemp>
          </ns3:TrackPointExtension>
        </extensions>
      </trkpt>
      <trkpt lat="46.74072205089032649993896484375" lon="6.8728078901767730712890625">
        <ele>363.600006103515625</ele>
        <time>2013-09-01T15:39:47.000Z</time>
        <extensions>
          <ns3:TrackPointExtension>
            <ns3:atemp>18.0</ns3:atemp>
          </ns3:TrackPointExtension>
        </extensions>
      </trkpt>
      <trkpt lat="46.74066555686295032501220703125" lon="6.8727607838809490203857421875">
        <ele>363.600006103515625</ele>
        <time>2013-09-01T15:39:48.000Z</time>
        <extensions>
          <ns3:TrackPointExtension>
            <ns3:atemp>18.0</ns3:atemp>
          </ns3:TrackPointExtension>
        </extensions>
      </trkpt>
      <trkpt lat="46.74061006866395473480224609375" lon="6.87272365204989910125732421875">
        <ele>363.600006103515625</ele>
        <time>2013-09-01T15:39:49.000Z</time>
        <extensions>
          <ns3:TrackPointExtension>
            <ns3:atemp>18.0</ns3:atemp>
          </ns3:TrackPointExtension>
        </extensions>
      </trkpt>
      <trkpt lat="46.74055759795010089874267578125" lon="6.87267243862152099609375">
        <ele>364</ele>
        <time>2013-09-01T15:39:50.000Z</time>
        <extensions>
          <ns3:TrackPointExtension>
            <ns3:atemp>18.0</ns3:atemp>
          </ns3:TrackPointExtension>
        </extensions>
      </trkpt>
      <trkpt lat="46.740513928234577178955078125" lon="6.8726186268031597137451171875">
        <ele>364</ele>
        <time>2013-09-01T15:39:51.000Z</time>
        <extensions>
          <ns3:TrackPointExtension>
            <ns3:atemp>18.0</ns3:atemp>
          </ns3:TrackPointExtension>
        </extensions>
      </trkpt>
      <trkpt lat="46.74047361128032207489013671875" lon="6.8725686706602573394775390625">
        <ele>364.20001220703125</ele>
        <time>2013-09-01T15:39:52.000Z</time>
        <extensions>
          <ns3:TrackPointExtension>
            <ns3:atemp>18.0</ns3:atemp>
          </ns3:TrackPointExtension>
        </extensions>
      </trkpt>
      <trkpt lat="46.7404379881918430328369140625" lon="6.87251829542219638824462890625">
        <ele>364.20001220703125</ele>
        <time>2013-09-01T15:39:53.000Z</time>
        <extensions>
          <ns3:TrackPointExtension>
            <ns3:atemp>18.0</ns3:atemp>
          </ns3:TrackPointExtension>
        </extensions>
      </trkpt>
      <trkpt lat="46.74040202982723712921142578125" lon="6.87246716581284999847412109375">
        <ele>364.399993896484375</ele>
        <time>2013-09-01T15:39:54.000Z</time>
        <extensions>
          <ns3:TrackPointExtension>
            <ns3:atemp>18.0</ns3:atemp>
          </ns3:TrackPointExtension>
        </extensions>
      </trkpt>
      <trkpt lat="46.7403665743768215179443359375" lon="6.87241494655609130859375">
        <ele>364.600006103515625</ele>
        <time>2013-09-01T15:39:55.000Z</time>
        <extensions>
          <ns3:TrackPointExtension>
            <ns3:atemp>18.0</ns3:atemp>
          </ns3:TrackPointExtension>
        </extensions>
      </trkpt>
      <trkpt lat="46.74032826907932758331298828125" lon="6.8723611347377300262451171875">
        <ele>364.600006103515625</ele>
        <time>2013-09-01T15:39:56.000Z</time>
        <extensions>
          <ns3:TrackPointExtension>
            <ns3:atemp>18.0</ns3:atemp>
          </ns3:TrackPointExtension>
        </extensions>
      </trkpt>
      <trkpt lat="46.74029122106730937957763671875" lon="6.87229936011135578155517578125">
        <ele>364.600006103515625</ele>
        <time>2013-09-01T15:39:57.000Z</time>
        <extensions>
          <ns3:TrackPointExtension>
            <ns3:atemp>18.0</ns3:atemp>
          </ns3:TrackPointExtension>
        </extensions>
      </trkpt>
      <trkpt lat="46.7402659915387630462646484375" lon="6.8722330592572689056396484375">
        <ele>364.600006103515625</ele>
        <time>2013-09-01T15:39:58.000Z</time>
        <extensions>
          <ns3:TrackPointExtension>
            <ns3:atemp>18.0</ns3:atemp>
          </ns3:TrackPointExtension>
        </extensions>
      </trkpt>
      <trkpt lat="46.7402482219040393829345703125" lon="6.872165165841579437255859375">
        <ele>364.399993896484375</ele>
        <time>2013-09-01T15:39:59.000Z</time>
        <extensions>
          <ns3:TrackPointExtension>
            <ns3:atemp>18.0</ns3:atemp>
          </ns3:TrackPointExtension>
        </extensions>
      </trkpt>
      <trkpt lat="46.7402287758886814117431640625" lon="6.87210422940552234649658203125">
        <ele>364.600006103515625</ele>
        <time>2013-09-01T15:40:00.000Z</time>
        <extensions>
          <ns3:TrackPointExtension>
            <ns3:atemp>18.0</ns3:atemp>
          </ns3:TrackPointExtension>
        </extensions>
      </trkpt>
      <trkpt lat="46.74019717611372470855712890625" lon="6.8720516748726367950439453125">
        <ele>364.600006103515625</ele>
        <time>2013-09-01T15:40:01.000Z</time>
        <extensions>
          <ns3:TrackPointExtension>
            <ns3:atemp>18.0</ns3:atemp>
          </ns3:TrackPointExtension>
        </extensions>
      </trkpt>
      <trkpt lat="46.74016146920621395111083984375" lon="6.87200800515711307525634765625">
        <ele>364.600006103515625</ele>
        <time>2013-09-01T15:40:02.000Z</time>
        <extensions>
          <ns3:TrackPointExtension>
            <ns3:atemp>18.0</ns3:atemp>
          </ns3:TrackPointExtension>
        </extensions>
      </trkpt>
      <trkpt lat="46.74012509174644947052001953125" lon="6.871966682374477386474609375">
        <ele>364.399993896484375</ele>
        <time>2013-09-01T15:40:03.000Z</time>
        <extensions>
          <ns3:TrackPointExtension>
            <ns3:atemp>18.0</ns3:atemp>
          </ns3:TrackPointExtension>
        </extensions>
      </trkpt>
      <trkpt lat="46.74008779227733612060546875" lon="6.8719202466309070587158203125">
        <ele>364.399993896484375</ele>
        <time>2013-09-01T15:40:04.000Z</time>
        <extensions>
          <ns3:TrackPointExtension>
            <ns3:atemp>18.0</ns3:atemp>
          </ns3:TrackPointExtension>
        </extensions>
      </trkpt>
      <trkpt lat="46.74004998989403247833251953125" lon="6.87186769209802150726318359375">
        <ele>364.399993896484375</ele>
        <time>2013-09-01T15:40:05.000Z</time>
        <extensions>
          <ns3:TrackPointExtension>
            <ns3:atemp>18.0</ns3:atemp>
          </ns3:TrackPointExtension>
        </extensions>
      </trkpt>
      <trkpt lat="46.7400118522346019744873046875" lon="6.87181346118450164794921875">
        <ele>364.20001220703125</ele>
        <time>2013-09-01T15:40:06.000Z</time>
        <extensions>
          <ns3:TrackPointExtension>
            <ns3:atemp>18.0</ns3:atemp>
          </ns3:TrackPointExtension>
        </extensions>
      </trkpt>
      <trkpt lat="46.7399744689464569091796875" lon="6.87176384031772613525390625">
        <ele>364.20001220703125</ele>
        <time>2013-09-01T15:40:07.000Z</time>
        <extensions>
          <ns3:TrackPointExtension>
            <ns3:atemp>18.0</ns3:atemp>
          </ns3:TrackPointExtension>
        </extensions>
      </trkpt>
      <trkpt lat="46.73993499018251895904541015625" lon="6.87171329744160175323486328125">
        <ele>364</ele>
        <time>2013-09-01T15:40:08.000Z</time>
        <extensions>
          <ns3:TrackPointExtension>
            <ns3:atemp>18.0</ns3:atemp>
          </ns3:TrackPointExtension>
        </extensions>
      </trkpt>
      <trkpt lat="46.7398911528289318084716796875" lon="6.8716587312519550323486328125">
        <ele>364</ele>
        <time>2013-09-01T15:40:09.000Z</time>
        <extensions>
          <ns3:TrackPointExtension>
            <ns3:atemp>18.0</ns3:atemp>
          </ns3:TrackPointExtension>
        </extensions>
      </trkpt>
      <trkpt lat="46.739841364324092864990234375" lon="6.8716007284820079803466796875">
        <ele>363.79998779296875</ele>
        <time>2013-09-01T15:40:10.000Z</time>
        <extensions>
          <ns3:TrackPointExtension>
            <ns3:atemp>18.0</ns3:atemp>
          </ns3:TrackPointExtension>
        </extensions>
      </trkpt>
      <trkpt lat="46.73979065380990505218505859375" lon="6.871544905006885528564453125">
        <ele>363.79998779296875</ele>
        <time>2013-09-01T15:40:11.000Z</time>
        <extensions>
          <ns3:TrackPointExtension>
            <ns3:atemp>18.0</ns3:atemp>
          </ns3:TrackPointExtension>
        </extensions>
      </trkpt>
      <trkpt lat="46.73974069766700267791748046875" lon="6.871487908065319061279296875">
        <ele>363.600006103515625</ele>
        <time>2013-09-01T15:40:12.000Z</time>
        <extensions>
          <ns3:TrackPointExtension>
            <ns3:atemp>18.0</ns3:atemp>
          </ns3:TrackPointExtension>
        </extensions>
      </trkpt>
      <trkpt lat="46.7396909929811954498291015625" lon="6.871435940265655517578125">
        <ele>363.600006103515625</ele>
        <time>2013-09-01T15:40:13.000Z</time>
        <extensions>
          <ns3:TrackPointExtension>
            <ns3:atemp>18.0</ns3:atemp>
          </ns3:TrackPointExtension>
        </extensions>
      </trkpt>
      <trkpt lat="46.7396391928195953369140625" lon="6.87139025889337062835693359375">
        <ele>363.600006103515625</ele>
        <time>2013-09-01T15:40:14.000Z</time>
        <extensions>
          <ns3:TrackPointExtension>
            <ns3:atemp>18.0</ns3:atemp>
          </ns3:TrackPointExtension>
        </extensions>
      </trkpt>
      <trkpt lat="46.7395816929638385772705078125" lon="6.87135756947100162506103515625">
        <ele>363.399993896484375</ele>
        <time>2013-09-01T15:40:15.000Z</time>
        <extensions>
          <ns3:TrackPointExtension>
            <ns3:atemp>18.0</ns3:atemp>
          </ns3:TrackPointExtension>
        </extensions>
      </trkpt>
      <trkpt lat="46.73952360637485980987548828125" lon="6.871328316628932952880859375">
        <ele>363.399993896484375</ele>
        <time>2013-09-01T15:40:16.000Z</time>
        <extensions>
          <ns3:TrackPointExtension>
            <ns3:atemp>18.0</ns3:atemp>
          </ns3:TrackPointExtension>
        </extensions>
      </trkpt>
      <trkpt lat="46.73946426250040531158447265625" lon="6.87129981815814971923828125">
        <ele>363.20001220703125</ele>
        <time>2013-09-01T15:40:17.000Z</time>
        <extensions>
          <ns3:TrackPointExtension>
            <ns3:atemp>18.0</ns3:atemp>
          </ns3:TrackPointExtension>
        </extensions>
      </trkpt>
      <trkpt lat="46.7394053377211093902587890625" lon="6.87127307988703250885009765625">
        <ele>363.399993896484375</ele>
        <time>2013-09-01T15:40:18.000Z</time>
        <extensions>
          <ns3:TrackPointExtension>
            <ns3:atemp>18.0</ns3:atemp>
          </ns3:TrackPointExtension>
        </extensions>
      </trkpt>
      <trkpt lat="46.73934540711343288421630859375" lon="6.87124642543494701385498046875">
        <ele>363.399993896484375</ele>
        <time>2013-09-01T15:40:19.000Z</time>
        <extensions>
          <ns3:TrackPointExtension>
            <ns3:atemp>18.0</ns3:atemp>
          </ns3:TrackPointExtension>
        </extensions>
      </trkpt>
      <trkpt lat="46.73928556032478809356689453125" lon="6.8712222017347812652587890625">
        <ele>363.600006103515625</ele>
        <time>2013-09-01T15:40:20.000Z</time>
        <extensions>
          <ns3:TrackPointExtension>
            <ns3:atemp>18.0</ns3:atemp>
          </ns3:TrackPointExtension>
        </extensions>
      </trkpt>
      <trkpt lat="46.73922940157353878021240234375" lon="6.87120258808135986328125">
        <ele>363.600006103515625</ele>
        <time>2013-09-01T15:40:21.000Z</time>
        <extensions>
          <ns3:TrackPointExtension>
            <ns3:atemp>18.0</ns3:atemp>
          </ns3:TrackPointExtension>
        </extensions>
      </trkpt>
      <trkpt lat="46.73918816260993480682373046875" lon="6.871170736849308013916015625">
        <ele>363.600006103515625</ele>
        <time>2013-09-01T15:40:22.000Z</time>
        <extensions>
          <ns3:TrackPointExtension>
            <ns3:atemp>18.0</ns3:atemp>
          </ns3:TrackPointExtension>
        </extensions>
      </trkpt>
      <trkpt lat="46.73915748484432697296142578125" lon="6.87112404964864253997802734375">
        <ele>363.79998779296875</ele>
        <time>2013-09-01T15:40:23.000Z</time>
        <extensions>
          <ns3:TrackPointExtension>
            <ns3:atemp>18.0</ns3:atemp>
          </ns3:TrackPointExtension>
        </extensions>
      </trkpt>
      <trkpt lat="46.73913083039224147796630859375" lon="6.87107224948704242706298828125">
        <ele>364</ele>
        <time>2013-09-01T15:40:24.000Z</time>
        <extensions>
          <ns3:TrackPointExtension>
            <ns3:atemp>18.0</ns3:atemp>
          </ns3:TrackPointExtension>
        </extensions>
      </trkpt>
      <trkpt lat="46.7391009069979190826416015625" lon="6.8710260652005672454833984375">
        <ele>364</ele>
        <time>2013-09-01T15:40:25.000Z</time>
        <extensions>
          <ns3:TrackPointExtension>
            <ns3:atemp>18.0</ns3:atemp>
          </ns3:TrackPointExtension>
        </extensions>
      </trkpt>
      <trkpt lat="46.73905304633080959320068359375" lon="6.8709871731698513031005859375">
        <ele>363.79998779296875</ele>
        <time>2013-09-01T15:40:26.000Z</time>
        <extensions>
          <ns3:TrackPointExtension>
            <ns3:atemp>18.0</ns3:atemp>
          </ns3:TrackPointExtension>
        </extensions>
      </trkpt>
      <trkpt lat="46.73901080153882503509521484375" lon="6.8709543161094188690185546875">
        <ele>363.79998779296875</ele>
        <time>2013-09-01T15:40:27.000Z</time>
        <extensions>
          <ns3:TrackPointExtension>
            <ns3:atemp>18.0</ns3:atemp>
          </ns3:TrackPointExtension>
        </extensions>
      </trkpt>
      <trkpt lat="46.738962940871715545654296875" lon="6.87091668136417865753173828125">
        <ele>363.79998779296875</ele>
        <time>2013-09-01T15:40:28.000Z</time>
        <extensions>
          <ns3:TrackPointExtension>
            <ns3:atemp>18.0</ns3:atemp>
          </ns3:TrackPointExtension>
        </extensions>
      </trkpt>
      <trkpt lat="46.738908290863037109375" lon="6.87087996862828731536865234375">
        <ele>363.79998779296875</ele>
        <time>2013-09-01T15:40:29.000Z</time>
        <extensions>
          <ns3:TrackPointExtension>
            <ns3:atemp>18.0</ns3:atemp>
          </ns3:TrackPointExtension>
        </extensions>
      </trkpt>
      <trkpt lat="46.73885355703532695770263671875" lon="6.87083386816084384918212890625">
        <ele>364</ele>
        <time>2013-09-01T15:40:30.000Z</time>
        <extensions>
          <ns3:TrackPointExtension>
            <ns3:atemp>18.0</ns3:atemp>
          </ns3:TrackPointExtension>
        </extensions>
      </trkpt>
      <trkpt lat="46.73880829475820064544677734375" lon="6.8707782961428165435791015625">
        <ele>364</ele>
        <time>2013-09-01T15:40:31.000Z</time>
        <extensions>
          <ns3:TrackPointExtension>
            <ns3:atemp>18.0</ns3:atemp>
          </ns3:TrackPointExtension>
        </extensions>
      </trkpt>
      <trkpt lat="46.73876521177589893341064453125" lon="6.8707253225147724151611328125">
        <ele>363.79998779296875</ele>
        <time>2013-09-01T15:40:32.000Z</time>
        <extensions>
          <ns3:TrackPointExtension>
            <ns3:atemp>18.0</ns3:atemp>
          </ns3:TrackPointExtension>
        </extensions>
      </trkpt>
      <trkpt lat="46.7387133277952671051025390625" lon="6.8706736899912357330322265625">
        <ele>364</ele>
        <time>2013-09-01T15:40:33.000Z</time>
        <extensions>
          <ns3:TrackPointExtension>
            <ns3:atemp>18.0</ns3:atemp>
          </ns3:TrackPointExtension>
        </extensions>
      </trkpt>
      <trkpt lat="46.738664209842681884765625" lon="6.87062230892479419708251953125">
        <ele>364</ele>
        <time>2013-09-01T15:40:34.000Z</time>
        <extensions>
          <ns3:TrackPointExtension>
            <ns3:atemp>18.0</ns3:atemp>
          </ns3:TrackPointExtension>
        </extensions>
      </trkpt>
      <trkpt lat="46.7386241443455219268798828125" lon="6.87056279741227626800537109375">
        <ele>364</ele>
        <time>2013-09-01T15:40:35.000Z</time>
        <extensions>
          <ns3:TrackPointExtension>
            <ns3:atemp>18.0</ns3:atemp>
          </ns3:TrackPointExtension>
        </extensions>
      </trkpt>
      <trkpt lat="46.7385808937251567840576171875" lon="6.870507895946502685546875">
        <ele>364.20001220703125</ele>
        <time>2013-09-01T15:40:36.000Z</time>
        <extensions>
          <ns3:TrackPointExtension>
            <ns3:atemp>18.0</ns3:atemp>
          </ns3:TrackPointExtension>
        </extensions>
      </trkpt>
      <trkpt lat="46.73853370361030101776123046875" lon="6.870459280908107757568359375">
        <ele>364</ele>
        <time>2013-09-01T15:40:37.000Z</time>
        <extensions>
          <ns3:TrackPointExtension>
            <ns3:atemp>18.0</ns3:atemp>
          </ns3:TrackPointExtension>
        </extensions>
      </trkpt>
      <trkpt lat="46.73849330283701419830322265625" lon="6.8704058043658733367919921875">
        <ele>363.79998779296875</ele>
        <time>2013-09-01T15:40:38.000Z</time>
        <extensions>
          <ns3:TrackPointExtension>
            <ns3:atemp>18.0</ns3:atemp>
          </ns3:TrackPointExtension>
        </extensions>
      </trkpt>
      <trkpt lat="46.73845759592950344085693359375" lon="6.87034721486270427703857421875">
        <ele>363.79998779296875</ele>
        <time>2013-09-01T15:40:39.000Z</time>
        <extensions>
          <ns3:TrackPointExtension>
            <ns3:atemp>18.0</ns3:atemp>
          </ns3:TrackPointExtension>
        </extensions>
      </trkpt>
      <trkpt lat="46.738414429128170013427734375" lon="6.87029742635786533355712890625">
        <ele>364</ele>
        <time>2013-09-01T15:40:40.000Z</time>
        <extensions>
          <ns3:TrackPointExtension>
            <ns3:atemp>18.0</ns3:atemp>
          </ns3:TrackPointExtension>
        </extensions>
      </trkpt>
      <trkpt lat="46.73836288042366504669189453125" lon="6.87025777995586395263671875">
        <ele>364</ele>
        <time>2013-09-01T15:40:41.000Z</time>
        <extensions>
          <ns3:TrackPointExtension>
            <ns3:atemp>18.0</ns3:atemp>
          </ns3:TrackPointExtension>
        </extensions>
      </trkpt>
      <trkpt lat="46.7383114993572235107421875" lon="6.87021511606872081756591796875">
        <ele>363.79998779296875</ele>
        <time>2013-09-01T15:40:42.000Z</time>
        <extensions>
          <ns3:TrackPointExtension>
            <ns3:atemp>18.0</ns3:atemp>
          </ns3:TrackPointExtension>
        </extensions>
      </trkpt>
      <trkpt lat="46.73826296813786029815673828125" lon="6.8701677583158016204833984375">
        <ele>363.79998779296875</ele>
        <time>2013-09-01T15:40:43.000Z</time>
        <extensions>
          <ns3:TrackPointExtension>
            <ns3:atemp>18.0</ns3:atemp>
          </ns3:TrackPointExtension>
        </extensions>
      </trkpt>
      <trkpt lat="46.73821602948009967803955078125" lon="6.8701174668967723846435546875">
        <ele>363.79998779296875</ele>
        <time>2013-09-01T15:40:44.000Z</time>
        <extensions>
          <ns3:TrackPointExtension>
            <ns3:atemp>18.0</ns3:atemp>
          </ns3:TrackPointExtension>
        </extensions>
      </trkpt>
      <trkpt lat="46.7381681688129901885986328125" lon="6.870069019496440887451171875">
        <ele>363.79998779296875</ele>
        <time>2013-09-01T15:40:45.000Z</time>
        <extensions>
          <ns3:TrackPointExtension>
            <ns3:atemp>18.0</ns3:atemp>
          </ns3:TrackPointExtension>
        </extensions>
      </trkpt>
      <trkpt lat="46.73812332563102245330810546875" lon="6.8700209073722362518310546875">
        <ele>363.79998779296875</ele>
        <time>2013-09-01T15:40:46.000Z</time>
        <extensions>
          <ns3:TrackPointExtension>
            <ns3:atemp>18.0</ns3:atemp>
          </ns3:TrackPointExtension>
        </extensions>
      </trkpt>
      <trkpt lat="46.738082505762577056884765625" lon="6.86997036449611186981201171875">
        <ele>363.79998779296875</ele>
        <time>2013-09-01T15:40:47.000Z</time>
        <extensions>
          <ns3:TrackPointExtension>
            <ns3:atemp>18.0</ns3:atemp>
          </ns3:TrackPointExtension>
        </extensions>
      </trkpt>
      <trkpt lat="46.73803967423737049102783203125" lon="6.8699230067431926727294921875">
        <ele>363.79998779296875</ele>
        <time>2013-09-01T15:40:48.000Z</time>
        <extensions>
          <ns3:TrackPointExtension>
            <ns3:atemp>18.0</ns3:atemp>
          </ns3:TrackPointExtension>
        </extensions>
      </trkpt>
      <trkpt lat="46.73799701035022735595703125" lon="6.86988369561731815338134765625">
        <ele>364</ele>
        <time>2013-09-01T15:40:49.000Z</time>
        <extensions>
          <ns3:TrackPointExtension>
            <ns3:atemp>18.0</ns3:atemp>
          </ns3:TrackPointExtension>
        </extensions>
      </trkpt>
      <trkpt lat="46.73795183189213275909423828125" lon="6.86985008418560028076171875">
        <ele>363.79998779296875</ele>
        <time>2013-09-01T15:40:50.000Z</time>
        <extensions>
          <ns3:TrackPointExtension>
            <ns3:atemp>18.0</ns3:atemp>
          </ns3:TrackPointExtension>
        </extensions>
      </trkpt>
      <trkpt lat="46.73790556378662586212158203125" lon="6.8698177300393581390380859375">
        <ele>364</ele>
        <time>2013-09-01T15:40:51.000Z</time>
        <extensions>
          <ns3:TrackPointExtension>
            <ns3:atemp>18.0</ns3:atemp>
          </ns3:TrackPointExtension>
        </extensions>
      </trkpt>
      <trkpt lat="46.7378664202988147735595703125" lon="6.8697865493595600128173828125">
        <ele>364</ele>
        <time>2013-09-01T15:40:52.000Z</time>
        <extensions>
          <ns3:TrackPointExtension>
            <ns3:atemp>18.0</ns3:atemp>
          </ns3:TrackPointExtension>
        </extensions>
      </trkpt>
      <trkpt lat="46.73783062957227230072021484375" lon="6.8697523511946201324462890625">
        <ele>364.20001220703125</ele>
        <time>2013-09-01T15:40:53.000Z</time>
        <extensions>
          <ns3:TrackPointExtension>
            <ns3:atemp>18.0</ns3:atemp>
          </ns3:TrackPointExtension>
        </extensions>
      </trkpt>
      <trkpt lat="46.7377938330173492431640625" lon="6.86971421353518962860107421875">
        <ele>364.399993896484375</ele>
        <time>2013-09-01T15:40:54.000Z</time>
        <extensions>
          <ns3:TrackPointExtension>
            <ns3:atemp>18.0</ns3:atemp>
          </ns3:TrackPointExtension>
        </extensions>
      </trkpt>
      <trkpt lat="46.73775569535791873931884765625" lon="6.86967632733285427093505859375">
        <ele>364.399993896484375</ele>
        <time>2013-09-01T15:40:55.000Z</time>
        <extensions>
          <ns3:TrackPointExtension>
            <ns3:atemp>18.0</ns3:atemp>
          </ns3:TrackPointExtension>
        </extensions>
      </trkpt>
      <trkpt lat="46.737709343433380126953125" lon="6.8696373514831066131591796875">
        <ele>364.399993896484375</ele>
        <time>2013-09-01T15:40:56.000Z</time>
        <extensions>
          <ns3:TrackPointExtension>
            <ns3:atemp>17.0</ns3:atemp>
          </ns3:TrackPointExtension>
        </extensions>
      </trkpt>
      <trkpt lat="46.73765796236693859100341796875" lon="6.8696021474897861480712890625">
        <ele>364.399993896484375</ele>
        <time>2013-09-01T15:40:57.000Z</time>
        <extensions>
          <ns3:TrackPointExtension>
            <ns3:atemp>17.0</ns3:atemp>
          </ns3:TrackPointExtension>
        </extensions>
      </trkpt>
      <trkpt lat="46.73760431818664073944091796875" lon="6.86956736259162425994873046875">
        <ele>364.399993896484375</ele>
        <time>2013-09-01T15:40:58.000Z</time>
        <extensions>
          <ns3:TrackPointExtension>
            <ns3:atemp>17.0</ns3:atemp>
          </ns3:TrackPointExtension>
        </extensions>
      </trkpt>
      <trkpt lat="46.73755017109215259552001953125" lon="6.869531907141208648681640625">
        <ele>364.399993896484375</ele>
        <time>2013-09-01T15:40:59.000Z</time>
        <extensions>
          <ns3:TrackPointExtension>
            <ns3:atemp>17.0</ns3:atemp>
          </ns3:TrackPointExtension>
        </extensions>
      </trkpt>
      <trkpt lat="46.73749954439699649810791015625" lon="6.86949125491082668304443359375">
        <ele>364.600006103515625</ele>
        <time>2013-09-01T15:41:00.000Z</time>
        <extensions>
          <ns3:TrackPointExtension>
            <ns3:atemp>17.0</ns3:atemp>
          </ns3:TrackPointExtension>
        </extensions>
      </trkpt>
      <trkpt lat="46.7374540306627750396728515625" lon="6.86944649554789066314697265625">
        <ele>364.600006103515625</ele>
        <time>2013-09-01T15:41:01.000Z</time>
        <extensions>
          <ns3:TrackPointExtension>
            <ns3:atemp>17.0</ns3:atemp>
          </ns3:TrackPointExtension>
        </extensions>
      </trkpt>
      <trkpt lat="46.73741404898464679718017578125" lon="6.86939687468111515045166015625">
        <ele>364.600006103515625</ele>
        <time>2013-09-01T15:41:02.000Z</time>
        <extensions>
          <ns3:TrackPointExtension>
            <ns3:atemp>17.0</ns3:atemp>
          </ns3:TrackPointExtension>
        </extensions>
      </trkpt>
      <trkpt lat="46.7373728938400745391845703125" lon="6.86934105120599269866943359375">
        <ele>364.399993896484375</ele>
        <time>2013-09-01T15:41:03.000Z</time>
        <extensions>
          <ns3:TrackPointExtension>
            <ns3:atemp>17.0</ns3:atemp>
          </ns3:TrackPointExtension>
        </extensions>
      </trkpt>
      <trkpt lat="46.73732905648648738861083984375" lon="6.8692876584827899932861328125">
        <ele>364.600006103515625</ele>
        <time>2013-09-01T15:41:04.000Z</time>
        <extensions>
          <ns3:TrackPointExtension>
            <ns3:atemp>17.0</ns3:atemp>
          </ns3:TrackPointExtension>
        </extensions>
      </trkpt>
      <trkpt lat="46.73728161491453647613525390625" lon="6.86923929490149021148681640625">
        <ele>364.600006103515625</ele>
        <time>2013-09-01T15:41:05.000Z</time>
        <extensions>
          <ns3:TrackPointExtension>
            <ns3:atemp>17.0</ns3:atemp>
          </ns3:TrackPointExtension>
        </extensions>
      </trkpt>
      <trkpt lat="46.73722495324909687042236328125" lon="6.86919369734823703765869140625">
        <ele>364.600006103515625</ele>
        <time>2013-09-01T15:41:06.000Z</time>
        <extensions>
          <ns3:TrackPointExtension>
            <ns3:atemp>17.0</ns3:atemp>
          </ns3:TrackPointExtension>
        </extensions>
      </trkpt>
      <trkpt lat="46.7371633462607860565185546875" lon="6.86915279366075992584228515625">
        <ele>364.600006103515625</ele>
        <time>2013-09-01T15:41:07.000Z</time>
        <extensions>
          <ns3:TrackPointExtension>
            <ns3:atemp>17.0</ns3:atemp>
          </ns3:TrackPointExtension>
        </extensions>
      </trkpt>
      <trkpt lat="46.737104840576648712158203125" lon="6.86911239288747310638427734375">
        <ele>364.600006103515625</ele>
        <time>2013-09-01T15:41:08.000Z</time>
        <extensions>
          <ns3:TrackPointExtension>
            <ns3:atemp>17.0</ns3:atemp>
          </ns3:TrackPointExtension>
        </extensions>
      </trkpt>
      <trkpt lat="46.73706133849918842315673828125" lon="6.86906159855425357818603515625">
        <ele>364.79998779296875</ele>
        <time>2013-09-01T15:41:09.000Z</time>
        <extensions>
          <ns3:TrackPointExtension>
            <ns3:atemp>17.0</ns3:atemp>
          </ns3:TrackPointExtension>
        </extensions>
      </trkpt>
      <trkpt lat="46.73703082837164402008056640625" lon="6.86898934654891490936279296875">
        <ele>364.600006103515625</ele>
        <time>2013-09-01T15:41:10.000Z</time>
        <extensions>
          <ns3:TrackPointExtension>
            <ns3:atemp>17.0</ns3:atemp>
          </ns3:TrackPointExtension>
        </extensions>
      </trkpt>
      <trkpt lat="46.73700853250920772552490234375" lon="6.868904940783977508544921875">
        <ele>364.600006103515625</ele>
        <time>2013-09-01T15:41:11.000Z</time>
        <extensions>
          <ns3:TrackPointExtension>
            <ns3:atemp>17.0</ns3:atemp>
          </ns3:TrackPointExtension>
        </extensions>
      </trkpt>
      <trkpt lat="46.73698405735194683074951171875" lon="6.86882288195192813873291015625">
        <ele>364.399993896484375</ele>
        <time>2013-09-01T15:41:12.000Z</time>
        <extensions>
          <ns3:TrackPointExtension>
            <ns3:atemp>17.0</ns3:atemp>
          </ns3:TrackPointExtension>
        </extensions>
      </trkpt>
      <trkpt lat="46.73695497214794158935546875" lon="6.86875574290752410888671875">
        <ele>364.399993896484375</ele>
        <time>2013-09-01T15:41:13.000Z</time>
        <extensions>
          <ns3:TrackPointExtension>
            <ns3:atemp>17.0</ns3:atemp>
          </ns3:TrackPointExtension>
        </extensions>
      </trkpt>
      <trkpt lat="46.7369105480611324310302734375" lon="6.8687005899846553802490234375">
        <ele>364.20001220703125</ele>
        <time>2013-09-01T15:41:14.000Z</time>
        <extensions>
          <ns3:TrackPointExtension>
            <ns3:atemp>17.0</ns3:atemp>
          </ns3:TrackPointExtension>
        </extensions>
      </trkpt>
      <trkpt lat="46.73685380257666110992431640625" lon="6.86865574680268764495849609375">
        <ele>364.20001220703125</ele>
        <time>2013-09-01T15:41:15.000Z</time>
        <extensions>
          <ns3:TrackPointExtension>
            <ns3:atemp>17.0</ns3:atemp>
          </ns3:TrackPointExtension>
        </extensions>
      </trkpt>
      <trkpt lat="46.73679294995963573455810546875" lon="6.868628002703189849853515625">
        <ele>364</ele>
        <time>2013-09-01T15:41:16.000Z</time>
        <extensions>
          <ns3:TrackPointExtension>
            <ns3:atemp>17.0</ns3:atemp>
          </ns3:TrackPointExtension>
        </extensions>
      </trkpt>
      <trkpt lat="46.73673662357032299041748046875" lon="6.86861366964876651763916015625">
        <ele>364.20001220703125</ele>
        <time>2013-09-01T15:41:17.000Z</time>
        <extensions>
          <ns3:TrackPointExtension>
            <ns3:atemp>17.0</ns3:atemp>
          </ns3:TrackPointExtension>
        </extensions>
      </trkpt>
      <trkpt lat="46.7366671375930309295654296875" lon="6.86859154142439365386962890625">
        <ele>364.20001220703125</ele>
        <time>2013-09-01T15:41:18.000Z</time>
        <extensions>
          <ns3:TrackPointExtension>
            <ns3:atemp>17.0</ns3:atemp>
          </ns3:TrackPointExtension>
        </extensions>
      </trkpt>
      <trkpt lat="46.73660226166248321533203125" lon="6.86856002546846866607666015625">
        <ele>364.20001220703125</ele>
        <time>2013-09-01T15:41:19.000Z</time>
        <extensions>
          <ns3:TrackPointExtension>
            <ns3:atemp>17.0</ns3:atemp>
          </ns3:TrackPointExtension>
        </extensions>
      </trkpt>
      <trkpt lat="46.73654769547283649444580078125" lon="6.86851476319134235382080078125">
        <ele>364</ele>
        <time>2013-09-01T15:41:20.000Z</time>
        <extensions>
          <ns3:TrackPointExtension>
            <ns3:atemp>17.0</ns3:atemp>
          </ns3:TrackPointExtension>
        </extensions>
      </trkpt>
      <trkpt lat="46.7364937998354434967041015625" lon="6.86846463941037654876708984375">
        <ele>364</ele>
        <time>2013-09-01T15:41:21.000Z</time>
        <extensions>
          <ns3:TrackPointExtension>
            <ns3:atemp>17.0</ns3:atemp>
          </ns3:TrackPointExtension>
        </extensions>
      </trkpt>
      <trkpt lat="46.73644158057868480682373046875" lon="6.868416778743267059326171875">
        <ele>364</ele>
        <time>2013-09-01T15:41:22.000Z</time>
        <extensions>
          <ns3:TrackPointExtension>
            <ns3:atemp>17.0</ns3:atemp>
          </ns3:TrackPointExtension>
        </extensions>
      </trkpt>
      <trkpt lat="46.7363888584077358245849609375" lon="6.86837025918066501617431640625">
        <ele>364</ele>
        <time>2013-09-01T15:41:23.000Z</time>
        <extensions>
          <ns3:TrackPointExtension>
            <ns3:atemp>17.0</ns3:atemp>
          </ns3:TrackPointExtension>
        </extensions>
      </trkpt>
      <trkpt lat="46.73633378930389881134033203125" lon="6.8683287687599658966064453125">
        <ele>364</ele>
        <time>2013-09-01T15:41:24.000Z</time>
        <extensions>
          <ns3:TrackPointExtension>
            <ns3:atemp>17.0</ns3:atemp>
          </ns3:TrackPointExtension>
        </extensions>
      </trkpt>
      <trkpt lat="46.73627712763845920562744140625" lon="6.868305467069149017333984375">
        <ele>363.79998779296875</ele>
        <time>2013-09-01T15:41:25.000Z</time>
        <extensions>
          <ns3:TrackPointExtension>
            <ns3:atemp>17.0</ns3:atemp>
          </ns3:TrackPointExtension>
        </extensions>
      </trkpt>
      <trkpt lat="46.73622197471559047698974609375" lon="6.8683006055653095245361328125">
        <ele>363.600006103515625</ele>
        <time>2013-09-01T15:41:26.000Z</time>
        <extensions>
          <ns3:TrackPointExtension>
            <ns3:atemp>17.0</ns3:atemp>
          </ns3:TrackPointExtension>
        </extensions>
      </trkpt>
      <trkpt lat="46.7361702583730220794677734375" lon="6.86830655671656131744384765625">
        <ele>363.79998779296875</ele>
        <time>2013-09-01T15:41:27.000Z</time>
        <extensions>
          <ns3:TrackPointExtension>
            <ns3:atemp>17.0</ns3:atemp>
          </ns3:TrackPointExtension>
        </extensions>
      </trkpt>
      <trkpt lat="46.7361228168010711669921875" lon="6.86831594444811344146728515625">
        <ele>364.20001220703125</ele>
        <time>2013-09-01T15:41:28.000Z</time>
        <extensions>
          <ns3:TrackPointExtension>
            <ns3:atemp>17.0</ns3:atemp>
          </ns3:TrackPointExtension>
        </extensions>
      </trkpt>
      <trkpt lat="46.73608065582811832427978515625" lon="6.86833337880671024322509765625">
        <ele>364.399993896484375</ele>
        <time>2013-09-01T15:41:29.000Z</time>
        <extensions>
          <ns3:TrackPointExtension>
            <ns3:atemp>17.0</ns3:atemp>
          </ns3:TrackPointExtension>
        </extensions>
      </trkpt>
      <trkpt lat="46.73604092560708522796630859375" lon="6.8683492206037044525146484375">
        <ele>364.600006103515625</ele>
        <time>2013-09-01T15:41:30.000Z</time>
        <extensions>
          <ns3:TrackPointExtension>
            <ns3:atemp>17.0</ns3:atemp>
          </ns3:TrackPointExtension>
        </extensions>
      </trkpt>
      <trkpt lat="46.7359982617199420928955078125" lon="6.86835072934627532958984375">
        <ele>364.79998779296875</ele>
        <time>2013-09-01T15:41:31.000Z</time>
        <extensions>
          <ns3:TrackPointExtension>
            <ns3:atemp>17.0</ns3:atemp>
          </ns3:TrackPointExtension>
        </extensions>
      </trkpt>
      <trkpt lat="46.73594956286251544952392578125" lon="6.8683539144694805145263671875">
        <ele>365</ele>
        <time>2013-09-01T15:41:32.000Z</time>
        <extensions>
          <ns3:TrackPointExtension>
            <ns3:atemp>17.0</ns3:atemp>
          </ns3:TrackPointExtension>
        </extensions>
      </trkpt>
      <trkpt lat="46.73590262420475482940673828125" lon="6.868365816771984100341796875">
        <ele>365</ele>
        <time>2013-09-01T15:41:33.000Z</time>
        <extensions>
          <ns3:TrackPointExtension>
            <ns3:atemp>17.0</ns3:atemp>
          </ns3:TrackPointExtension>
        </extensions>
      </trkpt>
      <trkpt lat="46.73586104996502399444580078125" lon="6.86835433356463909149169921875">
        <ele>365</ele>
        <time>2013-09-01T15:41:34.000Z</time>
        <extensions>
          <ns3:TrackPointExtension>
            <ns3:atemp>17.0</ns3:atemp>
          </ns3:TrackPointExtension>
        </extensions>
      </trkpt>
      <trkpt lat="46.73582450486719608306884765625" lon="6.86831996776163578033447265625">
        <ele>365</ele>
        <time>2013-09-01T15:41:35.000Z</time>
        <extensions>
          <ns3:TrackPointExtension>
            <ns3:atemp>17.0</ns3:atemp>
          </ns3:TrackPointExtension>
        </extensions>
      </trkpt>
      <trkpt lat="46.73578393645584583282470703125" lon="6.86828677542507648468017578125">
        <ele>365.20001220703125</ele>
        <time>2013-09-01T15:41:36.000Z</time>
        <extensions>
          <ns3:TrackPointExtension>
            <ns3:atemp>17.0</ns3:atemp>
          </ns3:TrackPointExtension>
        </extensions>
      </trkpt>
      <trkpt lat="46.73573548905551433563232421875" lon="6.868260204792022705078125">
        <ele>365.20001220703125</ele>
        <time>2013-09-01T15:41:37.000Z</time>
        <extensions>
          <ns3:TrackPointExtension>
            <ns3:atemp>17.0</ns3:atemp>
          </ns3:TrackPointExtension>
        </extensions>
      </trkpt>
      <trkpt lat="46.73568972386419773101806640625" lon="6.8682244978845119476318359375">
        <ele>365</ele>
        <time>2013-09-01T15:41:38.000Z</time>
        <extensions>
          <ns3:TrackPointExtension>
            <ns3:atemp>17.0</ns3:atemp>
          </ns3:TrackPointExtension>
        </extensions>
      </trkpt>
      <trkpt lat="46.735648401081562042236328125" lon="6.86818619258701801300048828125">
        <ele>365.20001220703125</ele>
        <time>2013-09-01T15:41:39.000Z</time>
        <extensions>
          <ns3:TrackPointExtension>
            <ns3:atemp>17.0</ns3:atemp>
          </ns3:TrackPointExtension>
        </extensions>
      </trkpt>
      <trkpt lat="46.73560992814600467681884765625" lon="6.86814612708985805511474609375">
        <ele>365.20001220703125</ele>
        <time>2013-09-01T15:41:40.000Z</time>
        <extensions>
          <ns3:TrackPointExtension>
            <ns3:atemp>17.0</ns3:atemp>
          </ns3:TrackPointExtension>
        </extensions>
      </trkpt>
      <trkpt lat="46.73556785099208354949951171875" lon="6.86810958199203014373779296875">
        <ele>365.20001220703125</ele>
        <time>2013-09-01T15:41:41.000Z</time>
        <extensions>
          <ns3:TrackPointExtension>
            <ns3:atemp>17.0</ns3:atemp>
          </ns3:TrackPointExtension>
        </extensions>
      </trkpt>
      <trkpt lat="46.7355231754481792449951171875" lon="6.86807488091289997100830078125">
        <ele>365.20001220703125</ele>
        <time>2013-09-01T15:41:42.000Z</time>
        <extensions>
          <ns3:TrackPointExtension>
            <ns3:atemp>17.0</ns3:atemp>
          </ns3:TrackPointExtension>
        </extensions>
      </trkpt>
      <trkpt lat="46.735477745532989501953125" lon="6.86804017983376979827880859375">
        <ele>365.20001220703125</ele>
        <time>2013-09-01T15:41:43.000Z</time>
        <extensions>
          <ns3:TrackPointExtension>
            <ns3:atemp>17.0</ns3:atemp>
          </ns3:TrackPointExtension>
        </extensions>
      </trkpt>
      <trkpt lat="46.73543206416070461273193359375" lon="6.86800648458302021026611328125">
        <ele>365.20001220703125</ele>
        <time>2013-09-01T15:41:44.000Z</time>
        <extensions>
          <ns3:TrackPointExtension>
            <ns3:atemp>17.0</ns3:atemp>
          </ns3:TrackPointExtension>
        </extensions>
      </trkpt>
      <trkpt lat="46.73538814298808574676513671875" lon="6.8679659999907016754150390625">
        <ele>365.20001220703125</ele>
        <time>2013-09-01T15:41:45.000Z</time>
        <extensions>
          <ns3:TrackPointExtension>
            <ns3:atemp>17.0</ns3:atemp>
          </ns3:TrackPointExtension>
        </extensions>
      </trkpt>
      <trkpt lat="46.73534388653934001922607421875" lon="6.86791562475264072418212890625">
        <ele>365.20001220703125</ele>
        <time>2013-09-01T15:41:46.000Z</time>
        <extensions>
          <ns3:TrackPointExtension>
            <ns3:atemp>17.0</ns3:atemp>
          </ns3:TrackPointExtension>
        </extensions>
      </trkpt>
      <trkpt lat="46.7352945171296596527099609375" lon="6.86786164529621601104736328125">
        <ele>365</ele>
        <time>2013-09-01T15:41:47.000Z</time>
        <extensions>
          <ns3:TrackPointExtension>
            <ns3:atemp>17.0</ns3:atemp>
          </ns3:TrackPointExtension>
        </extensions>
      </trkpt>
      <trkpt lat="46.7352469079196453094482421875" lon="6.86781085096299648284912109375">
        <ele>365</ele>
        <time>2013-09-01T15:41:48.000Z</time>
        <extensions>
          <ns3:TrackPointExtension>
            <ns3:atemp>17.0</ns3:atemp>
          </ns3:TrackPointExtension>
        </extensions>
      </trkpt>
      <trkpt lat="46.7352081835269927978515625" lon="6.86775737442076206207275390625">
        <ele>364.79998779296875</ele>
        <time>2013-09-01T15:41:49.000Z</time>
        <extensions>
          <ns3:TrackPointExtension>
            <ns3:atemp>17.0</ns3:atemp>
          </ns3:TrackPointExtension>
        </extensions>
      </trkpt>
      <trkpt lat="46.735170967876911163330078125" lon="6.867716051638126373291015625">
        <ele>364.79998779296875</ele>
        <time>2013-09-01T15:41:50.000Z</time>
        <extensions>
          <ns3:TrackPointExtension>
            <ns3:atemp>17.0</ns3:atemp>
          </ns3:TrackPointExtension>
        </extensions>
      </trkpt>
      <trkpt lat="46.735133416950702667236328125" lon="6.86768822371959686279296875">
        <ele>364.600006103515625</ele>
        <time>2013-09-01T15:41:51.000Z</time>
        <extensions>
          <ns3:TrackPointExtension>
            <ns3:atemp>17.0</ns3:atemp>
          </ns3:TrackPointExtension>
        </extensions>
      </trkpt>
      <trkpt lat="46.7351010628044605255126953125" lon="6.86766148544847965240478515625">
        <ele>364.600006103515625</ele>
        <time>2013-09-01T15:41:52.000Z</time>
        <extensions>
          <ns3:TrackPointExtension>
            <ns3:atemp>17.0</ns3:atemp>
          </ns3:TrackPointExtension>
        </extensions>
      </trkpt>
      <trkpt lat="46.73506711609661579132080078125" lon="6.8676196597516536712646484375">
        <ele>364.79998779296875</ele>
        <time>2013-09-01T15:41:53.000Z</time>
        <extensions>
          <ns3:TrackPointExtension>
            <ns3:atemp>17.0</ns3:atemp>
          </ns3:TrackPointExtension>
        </extensions>
      </trkpt>
      <trkpt lat="46.73503291793167591094970703125" lon="6.867573894560337066650390625">
        <ele>364.79998779296875</ele>
        <time>2013-09-01T15:41:54.000Z</time>
        <extensions>
          <ns3:TrackPointExtension>
            <ns3:atemp>17.0</ns3:atemp>
          </ns3:TrackPointExtension>
        </extensions>
      </trkpt>
      <trkpt lat="46.73500140197575092315673828125" lon="6.86752192676067352294921875">
        <ele>365</ele>
        <time>2013-09-01T15:41:55.000Z</time>
        <extensions>
          <ns3:TrackPointExtension>
            <ns3:atemp>17.0</ns3:atemp>
          </ns3:TrackPointExtension>
        </extensions>
      </trkpt>
      <trkpt lat="46.7349679581820964813232421875" lon="6.86747364699840545654296875">
        <ele>365</ele>
        <time>2013-09-01T15:41:56.000Z</time>
        <extensions>
          <ns3:TrackPointExtension>
            <ns3:atemp>17.0</ns3:atemp>
          </ns3:TrackPointExtension>
        </extensions>
      </trkpt>
      <trkpt lat="46.73493518494069576263427734375" lon="6.86742746271193027496337890625">
        <ele>365.20001220703125</ele>
        <time>2013-09-01T15:41:57.000Z</time>
        <extensions>
          <ns3:TrackPointExtension>
            <ns3:atemp>17.0</ns3:atemp>
          </ns3:TrackPointExtension>
        </extensions>
      </trkpt>
      <trkpt lat="46.7349022440612316131591796875" lon="6.8673846311867237091064453125">
        <ele>365.399993896484375</ele>
        <time>2013-09-01T15:41:58.000Z</time>
        <extensions>
          <ns3:TrackPointExtension>
            <ns3:atemp>17.0</ns3:atemp>
          </ns3:TrackPointExtension>
        </extensions>
      </trkpt>
      <trkpt lat="46.73486016690731048583984375" lon="6.8673415482044219970703125">
        <ele>365.399993896484375</ele>
        <time>2013-09-01T15:41:59.000Z</time>
        <extensions>
          <ns3:TrackPointExtension>
            <ns3:atemp>17.0</ns3:atemp>
          </ns3:TrackPointExtension>
        </extensions>
      </trkpt>
      <trkpt lat="46.73481993377208709716796875" lon="6.8672967888414859771728515625">
        <ele>365.20001220703125</ele>
        <time>2013-09-01T15:42:00.000Z</time>
        <extensions>
          <ns3:TrackPointExtension>
            <ns3:atemp>17.0</ns3:atemp>
          </ns3:TrackPointExtension>
        </extensions>
      </trkpt>
      <trkpt lat="46.73477970063686370849609375" lon="6.86725278384983539581298828125">
        <ele>365.399993896484375</ele>
        <time>2013-09-01T15:42:01.000Z</time>
        <extensions>
          <ns3:TrackPointExtension>
            <ns3:atemp>17.0</ns3:atemp>
          </ns3:TrackPointExtension>
        </extensions>
      </trkpt>
      <trkpt lat="46.73472982831299304962158203125" lon="6.867209114134311676025390625">
        <ele>365.20001220703125</ele>
        <time>2013-09-01T15:42:02.000Z</time>
        <extensions>
          <ns3:TrackPointExtension>
            <ns3:atemp>17.0</ns3:atemp>
          </ns3:TrackPointExtension>
        </extensions>
      </trkpt>
      <trkpt lat="46.73468104563653469085693359375" lon="6.86715714633464813232421875">
        <ele>365.399993896484375</ele>
        <time>2013-09-01T15:42:03.000Z</time>
        <extensions>
          <ns3:TrackPointExtension>
            <ns3:atemp>17.0</ns3:atemp>
          </ns3:TrackPointExtension>
        </extensions>
      </trkpt>
      <trkpt lat="46.734632514417171478271484375" lon="6.867112554609775543212890625">
        <ele>365.600006103515625</ele>
        <time>2013-09-01T15:42:04.000Z</time>
        <extensions>
          <ns3:TrackPointExtension>
            <ns3:atemp>17.0</ns3:atemp>
          </ns3:TrackPointExtension>
        </extensions>
      </trkpt>
      <trkpt lat="46.73458348028361797332763671875" lon="6.86707123182713985443115234375">
        <ele>365.600006103515625</ele>
        <time>2013-09-01T15:42:05.000Z</time>
        <extensions>
          <ns3:TrackPointExtension>
            <ns3:atemp>17.0</ns3:atemp>
          </ns3:TrackPointExtension>
        </extensions>
      </trkpt>
      <trkpt lat="46.73453637398779392242431640625" lon="6.86702680774033069610595703125">
        <ele>365.600006103515625</ele>
        <time>2013-09-01T15:42:06.000Z</time>
        <extensions>
          <ns3:TrackPointExtension>
            <ns3:atemp>17.0</ns3:atemp>
          </ns3:TrackPointExtension>
        </extensions>
      </trkpt>
      <trkpt lat="46.73449278809130191802978515625" lon="6.86697333119809627532958984375">
        <ele>365.399993896484375</ele>
        <time>2013-09-01T15:42:07.000Z</time>
        <extensions>
          <ns3:TrackPointExtension>
            <ns3:atemp>17.0</ns3:atemp>
          </ns3:TrackPointExtension>
        </extensions>
      </trkpt>
      <trkpt lat="46.734454818069934844970703125" lon="6.86691482551395893096923828125">
        <ele>365.399993896484375</ele>
        <time>2013-09-01T15:42:08.000Z</time>
        <extensions>
          <ns3:TrackPointExtension>
            <ns3:atemp>17.0</ns3:atemp>
          </ns3:TrackPointExtension>
        </extensions>
      </trkpt>
      <trkpt lat="46.73441668041050434112548828125" lon="6.86685967259109020233154296875">
        <ele>365.600006103515625</ele>
        <time>2013-09-01T15:42:09.000Z</time>
        <extensions>
          <ns3:TrackPointExtension>
            <ns3:atemp>17.0</ns3:atemp>
          </ns3:TrackPointExtension>
        </extensions>
      </trkpt>
      <trkpt lat="46.7343805544078350067138671875" lon="6.8668106384575366973876953125">
        <ele>365.600006103515625</ele>
        <time>2013-09-01T15:42:10.000Z</time>
        <extensions>
          <ns3:TrackPointExtension>
            <ns3:atemp>17.0</ns3:atemp>
          </ns3:TrackPointExtension>
        </extensions>
      </trkpt>
      <trkpt lat="46.73433721996843814849853515625" lon="6.8667586706578731536865234375">
        <ele>365.399993896484375</ele>
        <time>2013-09-01T15:42:11.000Z</time>
        <extensions>
          <ns3:TrackPointExtension>
            <ns3:atemp>17.0</ns3:atemp>
          </ns3:TrackPointExtension>
        </extensions>
      </trkpt>
      <trkpt lat="46.73428826965391635894775390625" lon="6.86671164818108081817626953125">
        <ele>365.399993896484375</ele>
        <time>2013-09-01T15:42:12.000Z</time>
        <extensions>
          <ns3:TrackPointExtension>
            <ns3:atemp>17.0</ns3:atemp>
          </ns3:TrackPointExtension>
        </extensions>
      </trkpt>
      <trkpt lat="46.73423596657812595367431640625" lon="6.86668029986321926116943359375">
        <ele>365.600006103515625</ele>
        <time>2013-09-01T15:42:13.000Z</time>
        <extensions>
          <ns3:TrackPointExtension>
            <ns3:atemp>17.0</ns3:atemp>
          </ns3:TrackPointExtension>
        </extensions>
      </trkpt>
      <trkpt lat="46.73417964018881320953369140625" lon="6.86665548942983150482177734375">
        <ele>365.600006103515625</ele>
        <time>2013-09-01T15:42:14.000Z</time>
        <extensions>
          <ns3:TrackPointExtension>
            <ns3:atemp>17.0</ns3:atemp>
          </ns3:TrackPointExtension>
        </extensions>
      </trkpt>
      <trkpt lat="46.734123565256595611572265625" lon="6.8666393123567104339599609375">
        <ele>365.600006103515625</ele>
        <time>2013-09-01T15:42:15.000Z</time>
        <extensions>
          <ns3:TrackPointExtension>
            <ns3:atemp>17.0</ns3:atemp>
          </ns3:TrackPointExtension>
        </extensions>
      </trkpt>
      <trkpt lat="46.73407369293272495269775390625" lon="6.86661458574235439300537109375">
        <ele>365.600006103515625</ele>
        <time>2013-09-01T15:42:16.000Z</time>
        <extensions>
          <ns3:TrackPointExtension>
            <ns3:atemp>17.0</ns3:atemp>
          </ns3:TrackPointExtension>
        </extensions>
      </trkpt>
      <trkpt lat="46.73403496854007244110107421875" lon="6.86658181250095367431640625">
        <ele>365.600006103515625</ele>
        <time>2013-09-01T15:42:17.000Z</time>
        <extensions>
          <ns3:TrackPointExtension>
            <ns3:atemp>17.0</ns3:atemp>
          </ns3:TrackPointExtension>
        </extensions>
      </trkpt>
      <trkpt lat="46.73399322666227817535400390625" lon="6.86654367484152317047119140625">
        <ele>365.600006103515625</ele>
        <time>2013-09-01T15:42:18.000Z</time>
        <extensions>
          <ns3:TrackPointExtension>
            <ns3:atemp>17.0</ns3:atemp>
          </ns3:TrackPointExtension>
        </extensions>
      </trkpt>
      <trkpt lat="46.73395349644124507904052734375" lon="6.8664998374879360198974609375">
        <ele>365.600006103515625</ele>
        <time>2013-09-01T15:42:19.000Z</time>
        <extensions>
          <ns3:TrackPointExtension>
            <ns3:atemp>17.0</ns3:atemp>
          </ns3:TrackPointExtension>
        </extensions>
      </trkpt>
      <trkpt lat="46.7339126765727996826171875" lon="6.8664606101810932159423828125">
        <ele>365.399993896484375</ele>
        <time>2013-09-01T15:42:20.000Z</time>
        <extensions>
          <ns3:TrackPointExtension>
            <ns3:atemp>17.0</ns3:atemp>
          </ns3:TrackPointExtension>
        </extensions>
      </trkpt>
      <trkpt lat="46.73386640846729278564453125" lon="6.86643202789127826690673828125">
        <ele>365.600006103515625</ele>
        <time>2013-09-01T15:42:21.000Z</time>
        <extensions>
          <ns3:TrackPointExtension>
            <ns3:atemp>17.0</ns3:atemp>
          </ns3:TrackPointExtension>
        </extensions>
      </trkpt>
      <trkpt lat="46.73381687141954898834228515625" lon="6.8664022721350193023681640625">
        <ele>365.600006103515625</ele>
        <time>2013-09-01T15:42:22.000Z</time>
        <extensions>
          <ns3:TrackPointExtension>
            <ns3:atemp>17.0</ns3:atemp>
          </ns3:TrackPointExtension>
        </extensions>
      </trkpt>
      <trkpt lat="46.73376842401921749114990234375" lon="6.86636748723685741424560546875">
        <ele>365.600006103515625</ele>
        <time>2013-09-01T15:42:23.000Z</time>
        <extensions>
          <ns3:TrackPointExtension>
            <ns3:atemp>17.0</ns3:atemp>
          </ns3:TrackPointExtension>
        </extensions>
      </trkpt>
      <trkpt lat="46.73371712677180767059326171875" lon="6.86632700264453887939453125">
        <ele>365.600006103515625</ele>
        <time>2013-09-01T15:42:24.000Z</time>
        <extensions>
          <ns3:TrackPointExtension>
            <ns3:atemp>17.0</ns3:atemp>
          </ns3:TrackPointExtension>
        </extensions>
      </trkpt>
      <trkpt lat="46.73366147093474864959716796875" lon="6.86628450639545917510986328125">
        <ele>365.600006103515625</ele>
        <time>2013-09-01T15:42:25.000Z</time>
        <extensions>
          <ns3:TrackPointExtension>
            <ns3:atemp>17.0</ns3:atemp>
          </ns3:TrackPointExtension>
        </extensions>
      </trkpt>
      <trkpt lat="46.73360665328800678253173828125" lon="6.86624578200280666351318359375">
        <ele>365.79998779296875</ele>
        <time>2013-09-01T15:42:26.000Z</time>
        <extensions>
          <ns3:TrackPointExtension>
            <ns3:atemp>17.0</ns3:atemp>
          </ns3:TrackPointExtension>
        </extensions>
      </trkpt>
      <trkpt lat="46.733553595840930938720703125" lon="6.86620588414371013641357421875">
        <ele>365.79998779296875</ele>
        <time>2013-09-01T15:42:27.000Z</time>
        <extensions>
          <ns3:TrackPointExtension>
            <ns3:atemp>17.0</ns3:atemp>
          </ns3:TrackPointExtension>
        </extensions>
      </trkpt>
      <trkpt lat="46.73349970020353794097900390625" lon="6.86616204679012298583984375">
        <ele>366</ele>
        <time>2013-09-01T15:42:28.000Z</time>
        <extensions>
          <ns3:TrackPointExtension>
            <ns3:atemp>17.0</ns3:atemp>
          </ns3:TrackPointExtension>
        </extensions>
      </trkpt>
      <trkpt lat="46.733446307480335235595703125" lon="6.86611913144588470458984375">
        <ele>366</ele>
        <time>2013-09-01T15:42:29.000Z</time>
        <extensions>
          <ns3:TrackPointExtension>
            <ns3:atemp>17.0</ns3:atemp>
          </ns3:TrackPointExtension>
        </extensions>
      </trkpt>
      <trkpt lat="46.73339861445128917694091796875" lon="6.8660649843513965606689453125">
        <ele>366</ele>
        <time>2013-09-01T15:42:30.000Z</time>
        <extensions>
          <ns3:TrackPointExtension>
            <ns3:atemp>17.0</ns3:atemp>
          </ns3:TrackPointExtension>
        </extensions>
      </trkpt>
      <trkpt lat="46.73336894251406192779541015625" lon="6.86599709093570709228515625">
        <ele>365.79998779296875</ele>
        <time>2013-09-01T15:42:31.000Z</time>
        <extensions>
          <ns3:TrackPointExtension>
            <ns3:atemp>17.0</ns3:atemp>
          </ns3:TrackPointExtension>
        </extensions>
      </trkpt>
      <trkpt lat="46.73334144987165927886962890625" lon="6.8659251742064952850341796875">
        <ele>366</ele>
        <time>2013-09-01T15:42:32.000Z</time>
        <extensions>
          <ns3:TrackPointExtension>
            <ns3:atemp>17.0</ns3:atemp>
          </ns3:TrackPointExtension>
        </extensions>
      </trkpt>
      <trkpt lat="46.73330440185964107513427734375" lon="6.8658715300261974334716796875">
        <ele>366</ele>
        <time>2013-09-01T15:42:33.000Z</time>
        <extensions>
          <ns3:TrackPointExtension>
            <ns3:atemp>17.0</ns3:atemp>
          </ns3:TrackPointExtension>
        </extensions>
      </trkpt>
      <trkpt lat="46.7332620732486248016357421875" lon="6.86582584865391254425048828125">
        <ele>366</ele>
        <time>2013-09-01T15:42:34.000Z</time>
        <extensions>
          <ns3:TrackPointExtension>
            <ns3:atemp>17.0</ns3:atemp>
          </ns3:TrackPointExtension>
        </extensions>
      </trkpt>
      <trkpt lat="46.73321739770472049713134765625" lon="6.86578276567161083221435546875">
        <ele>366</ele>
        <time>2013-09-01T15:42:35.000Z</time>
        <extensions>
          <ns3:TrackPointExtension>
            <ns3:atemp>17.0</ns3:atemp>
          </ns3:TrackPointExtension>
        </extensions>
      </trkpt>
      <trkpt lat="46.7331675253808498382568359375" lon="6.86574454419314861297607421875">
        <ele>366.20001220703125</ele>
        <time>2013-09-01T15:42:36.000Z</time>
        <extensions>
          <ns3:TrackPointExtension>
            <ns3:atemp>17.0</ns3:atemp>
          </ns3:TrackPointExtension>
        </extensions>
      </trkpt>
      <trkpt lat="46.7331152223050594329833984375" lon="6.86569827608764171600341796875">
        <ele>366</ele>
        <time>2013-09-01T15:42:37.000Z</time>
        <extensions>
          <ns3:TrackPointExtension>
            <ns3:atemp>17.0</ns3:atemp>
          </ns3:TrackPointExtension>
        </extensions>
      </trkpt>
      <trkpt lat="46.733063757419586181640625" lon="6.8656422011554241180419921875">
        <ele>366</ele>
        <time>2013-09-01T15:42:38.000Z</time>
        <extensions>
          <ns3:TrackPointExtension>
            <ns3:atemp>17.0</ns3:atemp>
          </ns3:TrackPointExtension>
        </extensions>
      </trkpt>
      <trkpt lat="46.7330176569521427154541015625" lon="6.86557824723422527313232421875">
        <ele>366</ele>
        <time>2013-09-01T15:42:39.000Z</time>
        <extensions>
          <ns3:TrackPointExtension>
            <ns3:atemp>17.0</ns3:atemp>
          </ns3:TrackPointExtension>
        </extensions>
      </trkpt>
      <trkpt lat="46.7329780943691730499267578125" lon="6.8655117787420749664306640625">
        <ele>366</ele>
        <time>2013-09-01T15:42:40.000Z</time>
        <extensions>
          <ns3:TrackPointExtension>
            <ns3:atemp>17.0</ns3:atemp>
          </ns3:TrackPointExtension>
        </extensions>
      </trkpt>
      <trkpt lat="46.73293777741491794586181640625" lon="6.86544899828732013702392578125">
        <ele>366.20001220703125</ele>
        <time>2013-09-01T15:42:41.000Z</time>
        <extensions>
          <ns3:TrackPointExtension>
            <ns3:atemp>17.0</ns3:atemp>
          </ns3:TrackPointExtension>
        </extensions>
      </trkpt>
      <trkpt lat="46.7328969575464725494384765625" lon="6.86538713984191417694091796875">
        <ele>366.20001220703125</ele>
        <time>2013-09-01T15:42:42.000Z</time>
        <extensions>
          <ns3:TrackPointExtension>
            <ns3:atemp>17.0</ns3:atemp>
          </ns3:TrackPointExtension>
        </extensions>
      </trkpt>
      <trkpt lat="46.7328543774783611297607421875" lon="6.865324191749095916748046875">
        <ele>366.20001220703125</ele>
        <time>2013-09-01T15:42:43.000Z</time>
        <extensions>
          <ns3:TrackPointExtension>
            <ns3:atemp>17.0</ns3:atemp>
          </ns3:TrackPointExtension>
        </extensions>
      </trkpt>
      <trkpt lat="46.732811629772186279296875" lon="6.86526350677013397216796875">
        <ele>366</ele>
        <time>2013-09-01T15:42:44.000Z</time>
        <extensions>
          <ns3:TrackPointExtension>
            <ns3:atemp>17.0</ns3:atemp>
          </ns3:TrackPointExtension>
        </extensions>
      </trkpt>
      <trkpt lat="46.732769049704074859619140625" lon="6.86520240269601345062255859375">
        <ele>366</ele>
        <time>2013-09-01T15:42:45.000Z</time>
        <extensions>
          <ns3:TrackPointExtension>
            <ns3:atemp>17.0</ns3:atemp>
          </ns3:TrackPointExtension>
        </extensions>
      </trkpt>
      <trkpt lat="46.73272789455950260162353515625" lon="6.86513870023190975189208984375">
        <ele>366.399993896484375</ele>
        <time>2013-09-01T15:42:46.000Z</time>
        <extensions>
          <ns3:TrackPointExtension>
            <ns3:atemp>17.0</ns3:atemp>
          </ns3:TrackPointExtension>
        </extensions>
      </trkpt>
      <trkpt lat="46.73268967308104038238525390625" lon="6.8650749139487743377685546875">
        <ele>366.20001220703125</ele>
        <time>2013-09-01T15:42:47.000Z</time>
        <extensions>
          <ns3:TrackPointExtension>
            <ns3:atemp>17.0</ns3:atemp>
          </ns3:TrackPointExtension>
        </extensions>
      </trkpt>
      <trkpt lat="46.73265581019222736358642578125" lon="6.86501196585595607757568359375">
        <ele>366.399993896484375</ele>
        <time>2013-09-01T15:42:48.000Z</time>
        <extensions>
          <ns3:TrackPointExtension>
            <ns3:atemp>17.0</ns3:atemp>
          </ns3:TrackPointExtension>
        </extensions>
      </trkpt>
      <trkpt lat="46.73262077383697032928466796875" lon="6.86495044268667697906494140625">
        <ele>366.600006103515625</ele>
        <time>2013-09-01T15:42:49.000Z</time>
        <extensions>
          <ns3:TrackPointExtension>
            <ns3:atemp>17.0</ns3:atemp>
          </ns3:TrackPointExtension>
        </extensions>
      </trkpt>
      <trkpt lat="46.7325861565768718719482421875" lon="6.86489042825996875762939453125">
        <ele>366.79998779296875</ele>
        <time>2013-09-01T15:42:50.000Z</time>
        <extensions>
          <ns3:TrackPointExtension>
            <ns3:atemp>17.0</ns3:atemp>
          </ns3:TrackPointExtension>
        </extensions>
      </trkpt>
      <trkpt lat="46.73255271278321743011474609375" lon="6.86483569443225860595703125">
        <ele>367</ele>
        <time>2013-09-01T15:42:51.000Z</time>
        <extensions>
          <ns3:TrackPointExtension>
            <ns3:atemp>17.0</ns3:atemp>
          </ns3:TrackPointExtension>
        </extensions>
      </trkpt>
      <trkpt lat="46.732516251504421234130859375" lon="6.8647862412035465240478515625">
        <ele>366.79998779296875</ele>
        <time>2013-09-01T15:42:52.000Z</time>
        <extensions>
          <ns3:TrackPointExtension>
            <ns3:atemp>17.0</ns3:atemp>
          </ns3:TrackPointExtension>
        </extensions>
      </trkpt>
      <trkpt lat="46.73247727565467357635498046875" lon="6.8647356145083904266357421875">
        <ele>366.79998779296875</ele>
        <time>2013-09-01T15:42:53.000Z</time>
        <extensions>
          <ns3:TrackPointExtension>
            <ns3:atemp>17.0</ns3:atemp>
          </ns3:TrackPointExtension>
        </extensions>
      </trkpt>
      <trkpt lat="46.73242916353046894073486328125" lon="6.86468373052775859832763671875">
        <ele>366.79998779296875</ele>
        <time>2013-09-01T15:42:54.000Z</time>
        <extensions>
          <ns3:TrackPointExtension>
            <ns3:atemp>17.0</ns3:atemp>
          </ns3:TrackPointExtension>
        </extensions>
      </trkpt>
      <trkpt lat="46.7323833145201206207275390625" lon="6.86463209800422191619873046875">
        <ele>366.79998779296875</ele>
        <time>2013-09-01T15:42:55.000Z</time>
        <extensions>
          <ns3:TrackPointExtension>
            <ns3:atemp>17.0</ns3:atemp>
          </ns3:TrackPointExtension>
        </extensions>
      </trkpt>
      <trkpt lat="46.732339560985565185546875" lon="6.86458230949938297271728515625">
        <ele>366.79998779296875</ele>
        <time>2013-09-01T15:42:56.000Z</time>
        <extensions>
          <ns3:TrackPointExtension>
            <ns3:atemp>17.0</ns3:atemp>
          </ns3:TrackPointExtension>
        </extensions>
      </trkpt>
      <trkpt lat="46.7322958074510097503662109375" lon="6.864532269537448883056640625">
        <ele>366.79998779296875</ele>
        <time>2013-09-01T15:42:57.000Z</time>
        <extensions>
          <ns3:TrackPointExtension>
            <ns3:atemp>17.0</ns3:atemp>
          </ns3:TrackPointExtension>
        </extensions>
      </trkpt>
      <trkpt lat="46.73225481994450092315673828125" lon="6.86447619460523128509521484375">
        <ele>366.79998779296875</ele>
        <time>2013-09-01T15:42:58.000Z</time>
        <extensions>
          <ns3:TrackPointExtension>
            <ns3:atemp>17.0</ns3:atemp>
          </ns3:TrackPointExtension>
        </extensions>
      </trkpt>
      <trkpt lat="46.73221626318991184234619140625" lon="6.8644174374639987945556640625">
        <ele>366.79998779296875</ele>
        <time>2013-09-01T15:42:59.000Z</time>
        <extensions>
          <ns3:TrackPointExtension>
            <ns3:atemp>17.0</ns3:atemp>
          </ns3:TrackPointExtension>
        </extensions>
      </trkpt>
      <trkpt lat="46.7321771197021007537841796875" lon="6.8643574230372905731201171875">
        <ele>366.79998779296875</ele>
        <time>2013-09-01T15:43:00.000Z</time>
        <extensions>
          <ns3:TrackPointExtension>
            <ns3:atemp>17.0</ns3:atemp>
          </ns3:TrackPointExtension>
        </extensions>
      </trkpt>
      <trkpt lat="46.73213646747171878814697265625" lon="6.8642964027822017669677734375">
        <ele>367</ele>
        <time>2013-09-01T15:43:01.000Z</time>
        <extensions>
          <ns3:TrackPointExtension>
            <ns3:atemp>17.0</ns3:atemp>
          </ns3:TrackPointExtension>
        </extensions>
      </trkpt>
      <trkpt lat="46.73209455795586109161376953125" lon="6.86423563398420810699462890625">
        <ele>367</ele>
        <time>2013-09-01T15:43:02.000Z</time>
        <extensions>
          <ns3:TrackPointExtension>
            <ns3:atemp>17.0</ns3:atemp>
          </ns3:TrackPointExtension>
        </extensions>
      </trkpt>
      <trkpt lat="46.7320473678410053253173828125" lon="6.86417461372911930084228515625">
        <ele>367</ele>
        <time>2013-09-01T15:43:03.000Z</time>
        <extensions>
          <ns3:TrackPointExtension>
            <ns3:atemp>17.0</ns3:atemp>
          </ns3:TrackPointExtension>
        </extensions>
      </trkpt>
      <trkpt lat="46.73199716024100780487060546875" lon="6.86411929316818714141845703125">
        <ele>366.79998779296875</ele>
        <time>2013-09-01T15:43:04.000Z</time>
        <extensions>
          <ns3:TrackPointExtension>
            <ns3:atemp>17.0</ns3:atemp>
          </ns3:TrackPointExtension>
        </extensions>
      </trkpt>
      <trkpt lat="46.731946952641010284423828125" lon="6.86406279914081096649169921875">
        <ele>366.79998779296875</ele>
        <time>2013-09-01T15:43:05.000Z</time>
        <extensions>
          <ns3:TrackPointExtension>
            <ns3:atemp>17.0</ns3:atemp>
          </ns3:TrackPointExtension>
        </extensions>
      </trkpt>
      <trkpt lat="46.73189791850745677947998046875" lon="6.86400094069540500640869140625">
        <ele>366.79998779296875</ele>
        <time>2013-09-01T15:43:06.000Z</time>
        <extensions>
          <ns3:TrackPointExtension>
            <ns3:atemp>17.0</ns3:atemp>
          </ns3:TrackPointExtension>
        </extensions>
      </trkpt>
      <trkpt lat="46.73185081221163272857666015625" lon="6.8639376573264598846435546875">
        <ele>367</ele>
        <time>2013-09-01T15:43:07.000Z</time>
        <extensions>
          <ns3:TrackPointExtension>
            <ns3:atemp>17.0</ns3:atemp>
          </ns3:TrackPointExtension>
        </extensions>
      </trkpt>
      <trkpt lat="46.73180571757256984710693359375" lon="6.8638719432055950164794921875">
        <ele>367</ele>
        <time>2013-09-01T15:43:08.000Z</time>
        <extensions>
          <ns3:TrackPointExtension>
            <ns3:atemp>17.0</ns3:atemp>
          </ns3:TrackPointExtension>
        </extensions>
      </trkpt>
      <trkpt lat="46.7317630536854267120361328125" lon="6.8638025410473346710205078125">
        <ele>367</ele>
        <time>2013-09-01T15:43:09.000Z</time>
        <extensions>
          <ns3:TrackPointExtension>
            <ns3:atemp>17.0</ns3:atemp>
          </ns3:TrackPointExtension>
        </extensions>
      </trkpt>
      <trkpt lat="46.73172290436923503875732421875" lon="6.8637334741652011871337890625">
        <ele>367.20001220703125</ele>
        <time>2013-09-01T15:43:10.000Z</time>
        <extensions>
          <ns3:TrackPointExtension>
            <ns3:atemp>17.0</ns3:atemp>
          </ns3:TrackPointExtension>
        </extensions>
      </trkpt>
      <trkpt lat="46.7316822521388530731201171875" lon="6.863665245473384857177734375">
        <ele>367.20001220703125</ele>
        <time>2013-09-01T15:43:11.000Z</time>
        <extensions>
          <ns3:TrackPointExtension>
            <ns3:atemp>17.0</ns3:atemp>
          </ns3:TrackPointExtension>
        </extensions>
      </trkpt>
      <trkpt lat="46.7316467128694057464599609375" lon="6.86359676532447338104248046875">
        <ele>367.399993896484375</ele>
        <time>2013-09-01T15:43:12.000Z</time>
        <extensions>
          <ns3:TrackPointExtension>
            <ns3:atemp>17.0</ns3:atemp>
          </ns3:TrackPointExtension>
        </extensions>
      </trkpt>
      <trkpt lat="46.73160991631448268890380859375" lon="6.86353172175586223602294921875">
        <ele>367.399993896484375</ele>
        <time>2013-09-01T15:43:13.000Z</time>
        <extensions>
          <ns3:TrackPointExtension>
            <ns3:atemp>17.0</ns3:atemp>
          </ns3:TrackPointExtension>
        </extensions>
      </trkpt>
      <trkpt lat="46.7315684258937835693359375" lon="6.863473467528820037841796875">
        <ele>367.399993896484375</ele>
        <time>2013-09-01T15:43:14.000Z</time>
        <extensions>
          <ns3:TrackPointExtension>
            <ns3:atemp>17.0</ns3:atemp>
          </ns3:TrackPointExtension>
        </extensions>
      </trkpt>
      <trkpt lat="46.731519140303134918212890625" lon="6.86341839842498302459716796875">
        <ele>367.399993896484375</ele>
        <time>2013-09-01T15:43:15.000Z</time>
        <extensions>
          <ns3:TrackPointExtension>
            <ns3:atemp>17.0</ns3:atemp>
          </ns3:TrackPointExtension>
        </extensions>
      </trkpt>
      <trkpt lat="46.7314693517982959747314453125" lon="6.8633646704256534576416015625">
        <ele>367.20001220703125</ele>
        <time>2013-09-01T15:43:16.000Z</time>
        <extensions>
          <ns3:TrackPointExtension>
            <ns3:atemp>17.0</ns3:atemp>
          </ns3:TrackPointExtension>
        </extensions>
      </trkpt>
      <trkpt lat="46.73142266459763050079345703125" lon="6.86330742202699184417724609375">
        <ele>367.399993896484375</ele>
        <time>2013-09-01T15:43:17.000Z</time>
        <extensions>
          <ns3:TrackPointExtension>
            <ns3:atemp>17.0</ns3:atemp>
          </ns3:TrackPointExtension>
        </extensions>
      </trkpt>
      <trkpt lat="46.731379665434360504150390625" lon="6.8632506765425205230712890625">
        <ele>367.399993896484375</ele>
        <time>2013-09-01T15:43:18.000Z</time>
        <extensions>
          <ns3:TrackPointExtension>
            <ns3:atemp>17.0</ns3:atemp>
          </ns3:TrackPointExtension>
        </extensions>
      </trkpt>
      <trkpt lat="46.731334738433361053466796875" lon="6.863195858895778656005859375">
        <ele>367.399993896484375</ele>
        <time>2013-09-01T15:43:19.000Z</time>
        <extensions>
          <ns3:TrackPointExtension>
            <ns3:atemp>17.0</ns3:atemp>
          </ns3:TrackPointExtension>
        </extensions>
      </trkpt>
      <trkpt lat="46.73129073344171047210693359375" lon="6.86313693411648273468017578125">
        <ele>367.20001220703125</ele>
        <time>2013-09-01T15:43:20.000Z</time>
        <extensions>
          <ns3:TrackPointExtension>
            <ns3:atemp>17.0</ns3:atemp>
          </ns3:TrackPointExtension>
        </extensions>
      </trkpt>
      <trkpt lat="46.731246896088123321533203125" lon="6.863077841699123382568359375">
        <ele>367.20001220703125</ele>
        <time>2013-09-01T15:43:21.000Z</time>
        <extensions>
          <ns3:TrackPointExtension>
            <ns3:atemp>17.0</ns3:atemp>
          </ns3:TrackPointExtension>
        </extensions>
      </trkpt>
      <trkpt lat="46.73120255582034587860107421875" lon="6.863018833100795745849609375">
        <ele>367.399993896484375</ele>
        <time>2013-09-01T15:43:22.000Z</time>
        <extensions>
          <ns3:TrackPointExtension>
            <ns3:atemp>17.0</ns3:atemp>
          </ns3:TrackPointExtension>
        </extensions>
      </trkpt>
      <trkpt lat="46.731159053742885589599609375" lon="6.862958483397960662841796875">
        <ele>367.399993896484375</ele>
        <time>2013-09-01T15:43:23.000Z</time>
        <extensions>
          <ns3:TrackPointExtension>
            <ns3:atemp>17.0</ns3:atemp>
          </ns3:TrackPointExtension>
        </extensions>
      </trkpt>
      <trkpt lat="46.7311179824173450469970703125" lon="6.862898804247379302978515625">
        <ele>367.79998779296875</ele>
        <time>2013-09-01T15:43:24.000Z</time>
        <extensions>
          <ns3:TrackPointExtension>
            <ns3:atemp>17.0</ns3:atemp>
          </ns3:TrackPointExtension>
        </extensions>
      </trkpt>
      <trkpt lat="46.731079928576946258544921875" lon="6.8628389574587345123291015625">
        <ele>368</ele>
        <time>2013-09-01T15:43:25.000Z</time>
        <extensions>
          <ns3:TrackPointExtension>
            <ns3:atemp>17.0</ns3:atemp>
          </ns3:TrackPointExtension>
        </extensions>
      </trkpt>
      <trkpt lat="46.7310425452888011932373046875" lon="6.86277885921299457550048828125">
        <ele>368.20001220703125</ele>
        <time>2013-09-01T15:43:26.000Z</time>
        <extensions>
          <ns3:TrackPointExtension>
            <ns3:atemp>17.0</ns3:atemp>
          </ns3:TrackPointExtension>
        </extensions>
      </trkpt>
      <trkpt lat="46.731004826724529266357421875" lon="6.86271800659596920013427734375">
        <ele>367.79998779296875</ele>
        <time>2013-09-01T15:43:27.000Z</time>
        <extensions>
          <ns3:TrackPointExtension>
            <ns3:atemp>17.0</ns3:atemp>
          </ns3:TrackPointExtension>
        </extensions>
      </trkpt>
      <trkpt lat="46.73096853308379650115966796875" lon="6.86266042292118072509765625">
        <ele>368</ele>
        <time>2013-09-01T15:43:28.000Z</time>
        <extensions>
          <ns3:TrackPointExtension>
            <ns3:atemp>17.0</ns3:atemp>
          </ns3:TrackPointExtension>
        </extensions>
      </trkpt>
      <trkpt lat="46.730933077633380889892578125" lon="6.862600743770599365234375">
        <ele>368</ele>
        <time>2013-09-01T15:43:29.000Z</time>
        <extensions>
          <ns3:TrackPointExtension>
            <ns3:atemp>17.0</ns3:atemp>
          </ns3:TrackPointExtension>
        </extensions>
      </trkpt>
      <trkpt lat="46.73089795745909214019775390625" lon="6.86254198662936687469482421875">
        <ele>368</ele>
        <time>2013-09-01T15:43:30.000Z</time>
        <extensions>
          <ns3:TrackPointExtension>
            <ns3:atemp>17.0</ns3:atemp>
          </ns3:TrackPointExtension>
        </extensions>
      </trkpt>
      <trkpt lat="46.73086141236126422882080078125" lon="6.862482726573944091796875">
        <ele>368</ele>
        <time>2013-09-01T15:43:31.000Z</time>
        <extensions>
          <ns3:TrackPointExtension>
            <ns3:atemp>17.0</ns3:atemp>
          </ns3:TrackPointExtension>
        </extensions>
      </trkpt>
      <trkpt lat="46.73083056695759296417236328125" lon="6.8624277412891387939453125">
        <ele>367.79998779296875</ele>
        <time>2013-09-01T15:43:32.000Z</time>
        <extensions>
          <ns3:TrackPointExtension>
            <ns3:atemp>17.0</ns3:atemp>
          </ns3:TrackPointExtension>
        </extensions>
      </trkpt>
      <trkpt lat="46.7307991348206996917724609375" lon="6.86237602494657039642333984375">
        <ele>367.79998779296875</ele>
        <time>2013-09-01T15:43:33.000Z</time>
        <extensions>
          <ns3:TrackPointExtension>
            <ns3:atemp>17.0</ns3:atemp>
          </ns3:TrackPointExtension>
        </extensions>
      </trkpt>
      <trkpt lat="46.73076904378831386566162109375" lon="6.86232388950884342193603515625">
        <ele>367.79998779296875</ele>
        <time>2013-09-01T15:43:34.000Z</time>
        <extensions>
          <ns3:TrackPointExtension>
            <ns3:atemp>17.0</ns3:atemp>
          </ns3:TrackPointExtension>
        </extensions>
      </trkpt>
      <trkpt lat="46.730737276375293731689453125" lon="6.86227242462337017059326171875">
        <ele>367.600006103515625</ele>
        <time>2013-09-01T15:43:35.000Z</time>
        <extensions>
          <ns3:TrackPointExtension>
            <ns3:atemp>17.0</ns3:atemp>
          </ns3:TrackPointExtension>
        </extensions>
      </trkpt>
      <trkpt lat="46.73069201409816741943359375" lon="6.8622180260717868804931640625">
        <ele>367.399993896484375</ele>
        <time>2013-09-01T15:43:36.000Z</time>
        <extensions>
          <ns3:TrackPointExtension>
            <ns3:atemp>17.0</ns3:atemp>
          </ns3:TrackPointExtension>
        </extensions>
      </trkpt>
      <trkpt lat="46.730647422373294830322265625" lon="6.86216027475893497467041015625">
        <ele>367.399993896484375</ele>
        <time>2013-09-01T15:43:37.000Z</time>
        <extensions>
          <ns3:TrackPointExtension>
            <ns3:atemp>17.0</ns3:atemp>
          </ns3:TrackPointExtension>
        </extensions>
      </trkpt>
      <trkpt lat="46.73061129637062549591064453125" lon="6.86209003441035747528076171875">
        <ele>367.20001220703125</ele>
        <time>2013-09-01T15:43:38.000Z</time>
        <extensions>
          <ns3:TrackPointExtension>
            <ns3:atemp>17.0</ns3:atemp>
          </ns3:TrackPointExtension>
        </extensions>
      </trkpt>
      <trkpt lat="46.73058397136628627777099609375" lon="6.8620218895375728607177734375">
        <ele>367.20001220703125</ele>
        <time>2013-09-01T15:43:39.000Z</time>
        <extensions>
          <ns3:TrackPointExtension>
            <ns3:atemp>17.0</ns3:atemp>
          </ns3:TrackPointExtension>
        </extensions>
      </trkpt>
      <trkpt lat="46.7305610887706279754638671875" lon="6.86195894144475460052490234375">
        <ele>367</ele>
        <time>2013-09-01T15:43:40.000Z</time>
        <extensions>
          <ns3:TrackPointExtension>
            <ns3:atemp>17.0</ns3:atemp>
          </ns3:TrackPointExtension>
        </extensions>
      </trkpt>
      <trkpt lat="46.730542480945587158203125" lon="6.86190797947347164154052734375">
        <ele>367</ele>
        <time>2013-09-01T15:43:41.000Z</time>
        <extensions>
          <ns3:TrackPointExtension>
            <ns3:atemp>17.0</ns3:atemp>
          </ns3:TrackPointExtension>
        </extensions>
      </trkpt>
      <trkpt lat="46.7305250465869903564453125" lon="6.8618639744818210601806640625">
        <ele>366.79998779296875</ele>
        <time>2013-09-01T15:43:42.000Z</time>
        <extensions>
          <ns3:TrackPointExtension>
            <ns3:atemp>17.0</ns3:atemp>
          </ns3:TrackPointExtension>
        </extensions>
      </trkpt>
      <trkpt lat="46.73050652258098125457763671875" lon="6.86182231642305850982666015625">
        <ele>366.79998779296875</ele>
        <time>2013-09-01T15:43:43.000Z</time>
        <extensions>
          <ns3:TrackPointExtension>
            <ns3:atemp>17.0</ns3:atemp>
          </ns3:TrackPointExtension>
        </extensions>
      </trkpt>
      <trkpt lat="46.7304910160601139068603515625" lon="6.86178267002105712890625">
        <ele>366.600006103515625</ele>
        <time>2013-09-01T15:43:44.000Z</time>
        <extensions>
          <ns3:TrackPointExtension>
            <ns3:atemp>17.0</ns3:atemp>
          </ns3:TrackPointExtension>
        </extensions>
      </trkpt>
      <trkpt lat="46.73047500662505626678466796875" lon="6.8617499805986881256103515625">
        <ele>366.20001220703125</ele>
        <time>2013-09-01T15:43:45.000Z</time>
        <extensions>
          <ns3:TrackPointExtension>
            <ns3:atemp>17.0</ns3:atemp>
          </ns3:TrackPointExtension>
        </extensions>
      </trkpt>
      <trkpt lat="46.73046000301837921142578125" lon="6.8617218174040317535400390625">
        <ele>366</ele>
        <time>2013-09-01T15:43:46.000Z</time>
        <extensions>
          <ns3:TrackPointExtension>
            <ns3:atemp>17.0</ns3:atemp>
          </ns3:TrackPointExtension>
        </extensions>
      </trkpt>
      <trkpt lat="46.73043896444141864776611328125" lon="6.8616980127990245819091796875">
        <ele>365.79998779296875</ele>
        <time>2013-09-01T15:43:47.000Z</time>
        <extensions>
          <ns3:TrackPointExtension>
            <ns3:atemp>17.0</ns3:atemp>
          </ns3:TrackPointExtension>
        </extensions>
      </trkpt>
      <trkpt lat="46.730416752398014068603515625" lon="6.86167948879301548004150390625">
        <ele>365.79998779296875</ele>
        <time>2013-09-01T15:43:48.000Z</time>
        <extensions>
          <ns3:TrackPointExtension>
            <ns3:atemp>17.0</ns3:atemp>
          </ns3:TrackPointExtension>
        </extensions>
      </trkpt>
      <trkpt lat="46.7303957976400852203369140625" lon="6.861660964787006378173828125">
        <ele>366</ele>
        <time>2013-09-01T15:43:49.000Z</time>
        <extensions>
          <ns3:TrackPointExtension>
            <ns3:atemp>17.0</ns3:atemp>
          </ns3:TrackPointExtension>
        </extensions>
      </trkpt>
      <trkpt lat="46.73037375323474407196044921875" lon="6.86164109967648983001708984375">
        <ele>366.20001220703125</ele>
        <time>2013-09-01T15:43:50.000Z</time>
        <extensions>
          <ns3:TrackPointExtension>
            <ns3:atemp>17.0</ns3:atemp>
          </ns3:TrackPointExtension>
        </extensions>
      </trkpt>
      <trkpt lat="46.73035698942840099334716796875" lon="6.86161595396697521209716796875">
        <ele>366.20001220703125</ele>
        <time>2013-09-01T15:43:51.000Z</time>
        <extensions>
          <ns3:TrackPointExtension>
            <ns3:atemp>17.0</ns3:atemp>
          </ns3:TrackPointExtension>
        </extensions>
      </trkpt>
      <trkpt lat="46.7303424887359142303466796875" lon="6.86158494092524051666259765625">
        <ele>366.20001220703125</ele>
        <time>2013-09-01T15:43:52.000Z</time>
        <extensions>
          <ns3:TrackPointExtension>
            <ns3:atemp>17.0</ns3:atemp>
          </ns3:TrackPointExtension>
        </extensions>
      </trkpt>
      <trkpt lat="46.7303257249295711517333984375" lon="6.86155292205512523651123046875">
        <ele>366.399993896484375</ele>
        <time>2013-09-01T15:43:53.000Z</time>
        <extensions>
          <ns3:TrackPointExtension>
            <ns3:atemp>17.0</ns3:atemp>
          </ns3:TrackPointExtension>
        </extensions>
      </trkpt>
      <trkpt lat="46.7303012497723102569580078125" lon="6.86151939444243907928466796875">
        <ele>366.399993896484375</ele>
        <time>2013-09-01T15:43:54.000Z</time>
        <extensions>
          <ns3:TrackPointExtension>
            <ns3:atemp>17.0</ns3:atemp>
          </ns3:TrackPointExtension>
        </extensions>
      </trkpt>
      <trkpt lat="46.7302311770617961883544921875" lon="6.86147312633693218231201171875">
        <ele>366.399993896484375</ele>
        <time>2013-09-01T15:43:55.000Z</time>
        <extensions>
          <ns3:TrackPointExtension>
            <ns3:atemp>17.0</ns3:atemp>
          </ns3:TrackPointExtension>
        </extensions>
      </trkpt>
      <trkpt lat="46.7301852442324161529541015625" lon="6.86143808998167514801025390625">
        <ele>366.600006103515625</ele>
        <time>2013-09-01T15:43:56.000Z</time>
        <extensions>
          <ns3:TrackPointExtension>
            <ns3:atemp>17.0</ns3:atemp>
          </ns3:TrackPointExtension>
        </extensions>
      </trkpt>
      <trkpt lat="46.73014693893492221832275390625" lon="6.86139500699937343597412109375">
        <ele>366.79998779296875</ele>
        <time>2013-09-01T15:43:57.000Z</time>
        <extensions>
          <ns3:TrackPointExtension>
            <ns3:atemp>17.0</ns3:atemp>
          </ns3:TrackPointExtension>
        </extensions>
      </trkpt>
      <trkpt lat="46.73011600971221923828125" lon="6.8613540194928646087646484375">
        <ele>367.399993896484375</ele>
        <time>2013-09-01T15:43:58.000Z</time>
        <extensions>
          <ns3:TrackPointExtension>
            <ns3:atemp>17.0</ns3:atemp>
          </ns3:TrackPointExtension>
        </extensions>
      </trkpt>
      <trkpt lat="46.73009430058300495147705078125" lon="6.86131940223276615142822265625">
        <ele>367.600006103515625</ele>
        <time>2013-09-01T15:43:59.000Z</time>
        <extensions>
          <ns3:TrackPointExtension>
            <ns3:atemp>17.0</ns3:atemp>
          </ns3:TrackPointExtension>
        </extensions>
      </trkpt>
      <trkpt lat="46.73004015348851680755615234375" lon="6.86126542277634143829345703125">
        <ele>367.600006103515625</ele>
        <time>2013-09-01T15:44:00.000Z</time>
        <extensions>
          <ns3:TrackPointExtension>
            <ns3:atemp>17.0</ns3:atemp>
          </ns3:TrackPointExtension>
        </extensions>
      </trkpt>
      <trkpt lat="46.73001207411289215087890625" lon="6.861235834658145904541015625">
        <ele>367.399993896484375</ele>
        <time>2013-09-01T15:44:01.000Z</time>
        <extensions>
          <ns3:TrackPointExtension>
            <ns3:atemp>17.0</ns3:atemp>
          </ns3:TrackPointExtension>
        </extensions>
      </trkpt>
      <trkpt lat="46.7299622856080532073974609375" lon="6.86122016049921512603759765625">
        <ele>367</ele>
        <time>2013-09-01T15:44:02.000Z</time>
        <extensions>
          <ns3:TrackPointExtension>
            <ns3:atemp>17.0</ns3:atemp>
          </ns3:TrackPointExtension>
        </extensions>
      </trkpt>
      <trkpt lat="46.7299193702638149261474609375" lon="6.8612296320497989654541015625">
        <ele>366.600006103515625</ele>
        <time>2013-09-01T15:44:03.000Z</time>
        <extensions>
          <ns3:TrackPointExtension>
            <ns3:atemp>17.0</ns3:atemp>
          </ns3:TrackPointExtension>
        </extensions>
      </trkpt>
      <trkpt lat="46.72987385652959346771240234375" lon="6.86124664731323719024658203125">
        <ele>366</ele>
        <time>2013-09-01T15:44:04.000Z</time>
        <extensions>
          <ns3:TrackPointExtension>
            <ns3:atemp>17.0</ns3:atemp>
          </ns3:TrackPointExtension>
        </extensions>
      </trkpt>
      <trkpt lat="46.7298311926424503326416015625" lon="6.86126299202442169189453125">
        <ele>365.79998779296875</ele>
        <time>2013-09-01T15:44:05.000Z</time>
        <extensions>
          <ns3:TrackPointExtension>
            <ns3:atemp>17.0</ns3:atemp>
          </ns3:TrackPointExtension>
        </extensions>
      </trkpt>
      <trkpt lat="46.72979456372559070587158203125" lon="6.861273385584354400634765625">
        <ele>365.399993896484375</ele>
        <time>2013-09-01T15:44:06.000Z</time>
        <extensions>
          <ns3:TrackPointExtension>
            <ns3:atemp>17.0</ns3:atemp>
          </ns3:TrackPointExtension>
        </extensions>
      </trkpt>
      <trkpt lat="46.72976237721741199493408203125" lon="6.8612909875810146331787109375">
        <ele>365</ele>
        <time>2013-09-01T15:44:07.000Z</time>
        <extensions>
          <ns3:TrackPointExtension>
            <ns3:atemp>17.0</ns3:atemp>
          </ns3:TrackPointExtension>
        </extensions>
      </trkpt>
      <trkpt lat="46.72973337583243846893310546875" lon="6.8613043986260890960693359375">
        <ele>364.600006103515625</ele>
        <time>2013-09-01T15:44:08.000Z</time>
        <extensions>
          <ns3:TrackPointExtension>
            <ns3:atemp>17.0</ns3:atemp>
          </ns3:TrackPointExtension>
        </extensions>
      </trkpt>
      <trkpt lat="46.72970538027584552764892578125" lon="6.8613119423389434814453125">
        <ele>364.399993896484375</ele>
        <time>2013-09-01T15:44:09.000Z</time>
        <extensions>
          <ns3:TrackPointExtension>
            <ns3:atemp>17.0</ns3:atemp>
          </ns3:TrackPointExtension>
        </extensions>
      </trkpt>
      <trkpt lat="46.7296682484447956085205078125" lon="6.86130817048251628875732421875">
        <ele>364.20001220703125</ele>
        <time>2013-09-01T15:44:10.000Z</time>
        <extensions>
          <ns3:TrackPointExtension>
            <ns3:atemp>17.0</ns3:atemp>
          </ns3:TrackPointExtension>
        </extensions>
      </trkpt>
      <trkpt lat="46.7296246625483036041259765625" lon="6.861288808286190032958984375">
        <ele>364.399993896484375</ele>
        <time>2013-09-01T15:44:11.000Z</time>
        <extensions>
          <ns3:TrackPointExtension>
            <ns3:atemp>17.0</ns3:atemp>
          </ns3:TrackPointExtension>
        </extensions>
      </trkpt>
      <trkpt lat="46.72957831062376499176025390625" lon="6.86126592569053173065185546875">
        <ele>364.600006103515625</ele>
        <time>2013-09-01T15:44:12.000Z</time>
        <extensions>
          <ns3:TrackPointExtension>
            <ns3:atemp>17.0</ns3:atemp>
          </ns3:TrackPointExtension>
        </extensions>
      </trkpt>
      <trkpt lat="46.72952919267117977142333984375" lon="6.8612440489232540130615234375">
        <ele>364.79998779296875</ele>
        <time>2013-09-01T15:44:13.000Z</time>
        <extensions>
          <ns3:TrackPointExtension>
            <ns3:atemp>17.0</ns3:atemp>
          </ns3:TrackPointExtension>
        </extensions>
      </trkpt>
      <trkpt lat="46.72948409803211688995361328125" lon="6.86122267507016658782958984375">
        <ele>365</ele>
        <time>2013-09-01T15:44:14.000Z</time>
        <extensions>
          <ns3:TrackPointExtension>
            <ns3:atemp>17.0</ns3:atemp>
          </ns3:TrackPointExtension>
        </extensions>
      </trkpt>
      <trkpt lat="46.72944151796400547027587890625" lon="6.8611944280564785003662109375">
        <ele>365</ele>
        <time>2013-09-01T15:44:15.000Z</time>
        <extensions>
          <ns3:TrackPointExtension>
            <ns3:atemp>17.0</ns3:atemp>
          </ns3:TrackPointExtension>
        </extensions>
      </trkpt>
      <trkpt lat="46.729405224323272705078125" lon="6.86115561984479427337646484375">
        <ele>365</ele>
        <time>2013-09-01T15:44:16.000Z</time>
        <extensions>
          <ns3:TrackPointExtension>
            <ns3:atemp>17.0</ns3:atemp>
          </ns3:TrackPointExtension>
        </extensions>
      </trkpt>
      <trkpt lat="46.72937639057636260986328125" lon="6.8611022271215915679931640625">
        <ele>365.20001220703125</ele>
        <time>2013-09-01T15:44:17.000Z</time>
        <extensions>
          <ns3:TrackPointExtension>
            <ns3:atemp>17.0</ns3:atemp>
          </ns3:TrackPointExtension>
        </extensions>
      </trkpt>
      <trkpt lat="46.72934931702911853790283203125" lon="6.86104598455131053924560546875">
        <ele>365.20001220703125</ele>
        <time>2013-09-01T15:44:18.000Z</time>
        <extensions>
          <ns3:TrackPointExtension>
            <ns3:atemp>17.0</ns3:atemp>
          </ns3:TrackPointExtension>
        </extensions>
      </trkpt>
      <trkpt lat="46.72931964509189128875732421875" lon="6.86098982580006122589111328125">
        <ele>365.20001220703125</ele>
        <time>2013-09-01T15:44:19.000Z</time>
        <extensions>
          <ns3:TrackPointExtension>
            <ns3:atemp>17.0</ns3:atemp>
          </ns3:TrackPointExtension>
        </extensions>
      </trkpt>
      <trkpt lat="46.72928745858371257781982421875" lon="6.8609332479536533355712890625">
        <ele>365</ele>
        <time>2013-09-01T15:44:20.000Z</time>
        <extensions>
          <ns3:TrackPointExtension>
            <ns3:atemp>17.0</ns3:atemp>
          </ns3:TrackPointExtension>
        </extensions>
      </trkpt>
      <trkpt lat="46.72925191931426525115966796875" lon="6.86088555492460727691650390625">
        <ele>365.20001220703125</ele>
        <time>2013-09-01T15:44:21.000Z</time>
        <extensions>
          <ns3:TrackPointExtension>
            <ns3:atemp>17.0</ns3:atemp>
          </ns3:TrackPointExtension>
        </extensions>
      </trkpt>
      <trkpt lat="46.72921453602612018585205078125" lon="6.860848926007747650146484375">
        <ele>365.399993896484375</ele>
        <time>2013-09-01T15:44:22.000Z</time>
        <extensions>
          <ns3:TrackPointExtension>
            <ns3:atemp>17.0</ns3:atemp>
          </ns3:TrackPointExtension>
        </extensions>
      </trkpt>
      <trkpt lat="46.7291747219860553741455078125" lon="6.86082570813596248626708984375">
        <ele>365.399993896484375</ele>
        <time>2013-09-01T15:44:23.000Z</time>
        <extensions>
          <ns3:TrackPointExtension>
            <ns3:atemp>17.0</ns3:atemp>
          </ns3:TrackPointExtension>
        </extensions>
      </trkpt>
      <trkpt lat="46.72913356684148311614990234375" lon="6.86081011779606342315673828125">
        <ele>365.399993896484375</ele>
        <time>2013-09-01T15:44:24.000Z</time>
        <extensions>
          <ns3:TrackPointExtension>
            <ns3:atemp>17.0</ns3:atemp>
          </ns3:TrackPointExtension>
        </extensions>
      </trkpt>
      <trkpt lat="46.7290954291820526123046875" lon="6.860793940722942352294921875">
        <ele>365.600006103515625</ele>
        <time>2013-09-01T15:44:25.000Z</time>
        <extensions>
          <ns3:TrackPointExtension>
            <ns3:atemp>17.0</ns3:atemp>
          </ns3:TrackPointExtension>
        </extensions>
      </trkpt>
      <trkpt lat="46.72905980609357357025146484375" lon="6.8607763387262821197509765625">
        <ele>365.79998779296875</ele>
        <time>2013-09-01T15:44:26.000Z</time>
        <extensions>
          <ns3:TrackPointExtension>
            <ns3:atemp>17.0</ns3:atemp>
          </ns3:TrackPointExtension>
        </extensions>
      </trkpt>
      <trkpt lat="46.72902476973831653594970703125" lon="6.86075865291059017181396484375">
        <ele>366.20001220703125</ele>
        <time>2013-09-01T15:44:27.000Z</time>
        <extensions>
          <ns3:TrackPointExtension>
            <ns3:atemp>17.0</ns3:atemp>
          </ns3:TrackPointExtension>
        </extensions>
      </trkpt>
      <trkpt lat="46.7289906553924083709716796875" lon="6.8607511930167675018310546875">
        <ele>366</ele>
        <time>2013-09-01T15:44:28.000Z</time>
        <extensions>
          <ns3:TrackPointExtension>
            <ns3:atemp>17.0</ns3:atemp>
          </ns3:TrackPointExtension>
        </extensions>
      </trkpt>
      <trkpt lat="46.72895872034132480621337890625" lon="6.8607488460838794708251953125">
        <ele>366.20001220703125</ele>
        <time>2013-09-01T15:44:29.000Z</time>
        <extensions>
          <ns3:TrackPointExtension>
            <ns3:atemp>17.0</ns3:atemp>
          </ns3:TrackPointExtension>
        </extensions>
      </trkpt>
      <trkpt lat="46.72892720438539981842041015625" lon="6.86075010336935520172119140625">
        <ele>366.600006103515625</ele>
        <time>2013-09-01T15:44:30.000Z</time>
        <extensions>
          <ns3:TrackPointExtension>
            <ns3:atemp>17.0</ns3:atemp>
          </ns3:TrackPointExtension>
        </extensions>
      </trkpt>
      <trkpt lat="46.72889753244817256927490234375" lon="6.860759072005748748779296875">
        <ele>366.79998779296875</ele>
        <time>2013-09-01T15:44:31.000Z</time>
        <extensions>
          <ns3:TrackPointExtension>
            <ns3:atemp>17.0</ns3:atemp>
          </ns3:TrackPointExtension>
        </extensions>
      </trkpt>
      <trkpt lat="46.72887221910059452056884765625" lon="6.860770471394062042236328125">
        <ele>367.20001220703125</ele>
        <time>2013-09-01T15:44:32.000Z</time>
        <extensions>
          <ns3:TrackPointExtension>
            <ns3:atemp>17.0</ns3:atemp>
          </ns3:TrackPointExtension>
        </extensions>
      </trkpt>
      <trkpt lat="46.7288498394191265106201171875" lon="6.8607709743082523345947265625">
        <ele>367.399993896484375</ele>
        <time>2013-09-01T15:44:33.000Z</time>
        <extensions>
          <ns3:TrackPointExtension>
            <ns3:atemp>17.0</ns3:atemp>
          </ns3:TrackPointExtension>
        </extensions>
      </trkpt>
      <trkpt lat="46.72882846556603908538818359375" lon="6.86075898818671703338623046875">
        <ele>367.600006103515625</ele>
        <time>2013-09-01T15:44:34.000Z</time>
        <extensions>
          <ns3:TrackPointExtension>
            <ns3:atemp>17.0</ns3:atemp>
          </ns3:TrackPointExtension>
        </extensions>
      </trkpt>
      <trkpt lat="46.72880549915134906768798828125" lon="6.860734261572360992431640625">
        <ele>367.79998779296875</ele>
        <time>2013-09-01T15:44:35.000Z</time>
        <extensions>
          <ns3:TrackPointExtension>
            <ns3:atemp>17.0</ns3:atemp>
          </ns3:TrackPointExtension>
        </extensions>
      </trkpt>
      <trkpt lat="46.72877398319542407989501953125" lon="6.8607072718441486358642578125">
        <ele>367.79998779296875</ele>
        <time>2013-09-01T15:44:36.000Z</time>
        <extensions>
          <ns3:TrackPointExtension>
            <ns3:atemp>17.0</ns3:atemp>
          </ns3:TrackPointExtension>
        </extensions>
      </trkpt>
      <trkpt lat="46.7287371866405010223388671875" lon="6.860682964324951171875">
        <ele>368</ele>
        <time>2013-09-01T15:44:37.000Z</time>
        <extensions>
          <ns3:TrackPointExtension>
            <ns3:atemp>17.0</ns3:atemp>
          </ns3:TrackPointExtension>
        </extensions>
      </trkpt>
      <trkpt lat="46.72869703732430934906005859375" lon="6.86065572313964366912841796875">
        <ele>368</ele>
        <time>2013-09-01T15:44:38.000Z</time>
        <extensions>
          <ns3:TrackPointExtension>
            <ns3:atemp>17.0</ns3:atemp>
          </ns3:TrackPointExtension>
        </extensions>
      </trkpt>
      <trkpt lat="46.7286537028849124908447265625" lon="6.860624961555004119873046875">
        <ele>368.20001220703125</ele>
        <time>2013-09-01T15:44:39.000Z</time>
        <extensions>
          <ns3:TrackPointExtension>
            <ns3:atemp>17.0</ns3:atemp>
          </ns3:TrackPointExtension>
        </extensions>
      </trkpt>
      <trkpt lat="46.72860802151262760162353515625" lon="6.86058749444782733917236328125">
        <ele>368.20001220703125</ele>
        <time>2013-09-01T15:44:40.000Z</time>
        <extensions>
          <ns3:TrackPointExtension>
            <ns3:atemp>17.0</ns3:atemp>
          </ns3:TrackPointExtension>
        </extensions>
      </trkpt>
      <trkpt lat="46.72857332043349742889404296875" lon="6.86054675839841365814208984375">
        <ele>368.20001220703125</ele>
        <time>2013-09-01T15:44:41.000Z</time>
        <extensions>
          <ns3:TrackPointExtension>
            <ns3:atemp>17.0</ns3:atemp>
          </ns3:TrackPointExtension>
        </extensions>
      </trkpt>
      <trkpt lat="46.72853627242147922515869140625" lon="6.86050317250192165374755859375">
        <ele>368.399993896484375</ele>
        <time>2013-09-01T15:44:42.000Z</time>
        <extensions>
          <ns3:TrackPointExtension>
            <ns3:atemp>17.0</ns3:atemp>
          </ns3:TrackPointExtension>
        </extensions>
      </trkpt>
      <trkpt lat="46.72849771566689014434814453125" lon="6.86046444810926914215087890625">
        <ele>368.399993896484375</ele>
        <time>2013-09-01T15:44:43.000Z</time>
        <extensions>
          <ns3:TrackPointExtension>
            <ns3:atemp>17.0</ns3:atemp>
          </ns3:TrackPointExtension>
        </extensions>
      </trkpt>
      <trkpt lat="46.7284542135894298553466796875" lon="6.86043024994432926177978515625">
        <ele>368.399993896484375</ele>
        <time>2013-09-01T15:44:44.000Z</time>
        <extensions>
          <ns3:TrackPointExtension>
            <ns3:atemp>17.0</ns3:atemp>
          </ns3:TrackPointExtension>
        </extensions>
      </trkpt>
      <trkpt lat="46.72841020859777927398681640625" lon="6.86039621941745281219482421875">
        <ele>368.399993896484375</ele>
        <time>2013-09-01T15:44:45.000Z</time>
        <extensions>
          <ns3:TrackPointExtension>
            <ns3:atemp>17.0</ns3:atemp>
          </ns3:TrackPointExtension>
        </extensions>
      </trkpt>
      <trkpt lat="46.72836293466389179229736328125" lon="6.86036151833832263946533203125">
        <ele>368.20001220703125</ele>
        <time>2013-09-01T15:44:46.000Z</time>
        <extensions>
          <ns3:TrackPointExtension>
            <ns3:atemp>17.0</ns3:atemp>
          </ns3:TrackPointExtension>
        </extensions>
      </trkpt>
      <trkpt lat="46.728317253291606903076171875" lon="6.86032413505017757415771484375">
        <ele>368.20001220703125</ele>
        <time>2013-09-01T15:44:47.000Z</time>
        <extensions>
          <ns3:TrackPointExtension>
            <ns3:atemp>17.0</ns3:atemp>
          </ns3:TrackPointExtension>
        </extensions>
      </trkpt>
      <trkpt lat="46.72827308066189289093017578125" lon="6.86028205789625644683837890625">
        <ele>368.399993896484375</ele>
        <time>2013-09-01T15:44:48.000Z</time>
        <extensions>
          <ns3:TrackPointExtension>
            <ns3:atemp>17.0</ns3:atemp>
          </ns3:TrackPointExtension>
        </extensions>
      </trkpt>
      <trkpt lat="46.72822572290897369384765625" lon="6.86024165712296962738037109375">
        <ele>368.399993896484375</ele>
        <time>2013-09-01T15:44:49.000Z</time>
        <extensions>
          <ns3:TrackPointExtension>
            <ns3:atemp>17.0</ns3:atemp>
          </ns3:TrackPointExtension>
        </extensions>
      </trkpt>
      <trkpt lat="46.7281819693744182586669921875" lon="6.8602006696164608001708984375">
        <ele>368.399993896484375</ele>
        <time>2013-09-01T15:44:50.000Z</time>
        <extensions>
          <ns3:TrackPointExtension>
            <ns3:atemp>17.0</ns3:atemp>
          </ns3:TrackPointExtension>
        </extensions>
      </trkpt>
      <trkpt lat="46.728142239153385162353515625" lon="6.86015163548290729522705078125">
        <ele>368.399993896484375</ele>
        <time>2013-09-01T15:44:51.000Z</time>
        <extensions>
          <ns3:TrackPointExtension>
            <ns3:atemp>17.0</ns3:atemp>
          </ns3:TrackPointExtension>
        </extensions>
      </trkpt>
      <trkpt lat="46.7281159199774265289306640625" lon="6.86009757220745086669921875">
        <ele>368.399993896484375</ele>
        <time>2013-09-01T15:44:52.000Z</time>
        <extensions>
          <ns3:TrackPointExtension>
            <ns3:atemp>17.0</ns3:atemp>
          </ns3:TrackPointExtension>
        </extensions>
      </trkpt>
      <trkpt lat="46.72809169627726078033447265625" lon="6.860039234161376953125">
        <ele>368.600006103515625</ele>
        <time>2013-09-01T15:44:53.000Z</time>
        <extensions>
          <ns3:TrackPointExtension>
            <ns3:atemp>17.0</ns3:atemp>
          </ns3:TrackPointExtension>
        </extensions>
      </trkpt>
      <trkpt lat="46.7280726693570613861083984375" lon="6.85997695662081241607666015625">
        <ele>368.399993896484375</ele>
        <time>2013-09-01T15:44:54.000Z</time>
        <extensions>
          <ns3:TrackPointExtension>
            <ns3:atemp>17.0</ns3:atemp>
          </ns3:TrackPointExtension>
        </extensions>
      </trkpt>
      <trkpt lat="46.72805850394070148468017578125" lon="6.8599069677293300628662109375">
        <ele>367.600006103515625</ele>
        <time>2013-09-01T15:44:55.000Z</time>
        <extensions>
          <ns3:TrackPointExtension>
            <ns3:atemp>17.0</ns3:atemp>
          </ns3:TrackPointExtension>
        </extensions>
      </trkpt>
      <trkpt lat="46.72803067602217197418212890625" lon="6.85984435491263866424560546875">
        <ele>366.79998779296875</ele>
        <time>2013-09-01T15:44:56.000Z</time>
        <extensions>
          <ns3:TrackPointExtension>
            <ns3:atemp>17.0</ns3:atemp>
          </ns3:TrackPointExtension>
        </extensions>
      </trkpt>
      <trkpt lat="46.7279952205717563629150390625" lon="6.8597859330475330352783203125">
        <ele>366.20001220703125</ele>
        <time>2013-09-01T15:44:57.000Z</time>
        <extensions>
          <ns3:TrackPointExtension>
            <ns3:atemp>17.0</ns3:atemp>
          </ns3:TrackPointExtension>
        </extensions>
      </trkpt>
      <trkpt lat="46.72795942984521389007568359375" lon="6.85972918756306171417236328125">
        <ele>366</ele>
        <time>2013-09-01T15:44:58.000Z</time>
        <extensions>
          <ns3:TrackPointExtension>
            <ns3:atemp>17.0</ns3:atemp>
          </ns3:TrackPointExtension>
        </extensions>
      </trkpt>
      <trkpt lat="46.72792070545256137847900390625" lon="6.85968074016273021697998046875">
        <ele>366.20001220703125</ele>
        <time>2013-09-01T15:44:59.000Z</time>
        <extensions>
          <ns3:TrackPointExtension>
            <ns3:atemp>17.0</ns3:atemp>
          </ns3:TrackPointExtension>
        </extensions>
      </trkpt>
      <trkpt lat="46.72786974348127841949462890625" lon="6.85963866300880908966064453125">
        <ele>366.20001220703125</ele>
        <time>2013-09-01T15:45:00.000Z</time>
        <extensions>
          <ns3:TrackPointExtension>
            <ns3:atemp>17.0</ns3:atemp>
          </ns3:TrackPointExtension>
        </extensions>
      </trkpt>
      <trkpt lat="46.727811992168426513671875" lon="6.8595993518829345703125">
        <ele>366.20001220703125</ele>
        <time>2013-09-01T15:45:01.000Z</time>
        <extensions>
          <ns3:TrackPointExtension>
            <ns3:atemp>17.0</ns3:atemp>
          </ns3:TrackPointExtension>
        </extensions>
      </trkpt>
      <trkpt lat="46.7277538217604160308837890625" lon="6.85956054367125034332275390625">
        <ele>366.20001220703125</ele>
        <time>2013-09-01T15:45:02.000Z</time>
        <extensions>
          <ns3:TrackPointExtension>
            <ns3:atemp>17.0</ns3:atemp>
          </ns3:TrackPointExtension>
        </extensions>
      </trkpt>
      <trkpt lat="46.72770327888429164886474609375" lon="6.85951461084187030792236328125">
        <ele>366</ele>
        <time>2013-09-01T15:45:03.000Z</time>
        <extensions>
          <ns3:TrackPointExtension>
            <ns3:atemp>17.0</ns3:atemp>
          </ns3:TrackPointExtension>
        </extensions>
      </trkpt>
      <trkpt lat="46.7276542447507381439208984375" lon="6.8594664148986339569091796875">
        <ele>366.20001220703125</ele>
        <time>2013-09-01T15:45:04.000Z</time>
        <extensions>
          <ns3:TrackPointExtension>
            <ns3:atemp>17.0</ns3:atemp>
          </ns3:TrackPointExtension>
        </extensions>
      </trkpt>
      <trkpt lat="46.72760303132236003875732421875" lon="6.85942525975406169891357421875">
        <ele>366</ele>
        <time>2013-09-01T15:45:05.000Z</time>
        <extensions>
          <ns3:TrackPointExtension>
            <ns3:atemp>17.0</ns3:atemp>
          </ns3:TrackPointExtension>
        </extensions>
      </trkpt>
      <trkpt lat="46.7275531589984893798828125" lon="6.85938988812267780303955078125">
        <ele>366</ele>
        <time>2013-09-01T15:45:06.000Z</time>
        <extensions>
          <ns3:TrackPointExtension>
            <ns3:atemp>17.0</ns3:atemp>
          </ns3:TrackPointExtension>
        </extensions>
      </trkpt>
      <trkpt lat="46.7274949885904788970947265625" lon="6.85934395529329776763916015625">
        <ele>366</ele>
        <time>2013-09-01T15:45:07.000Z</time>
        <extensions>
          <ns3:TrackPointExtension>
            <ns3:atemp>17.0</ns3:atemp>
          </ns3:TrackPointExtension>
        </extensions>
      </trkpt>
      <trkpt lat="46.72743849456310272216796875" lon="6.85929718427360057830810546875">
        <ele>366.20001220703125</ele>
        <time>2013-09-01T15:45:08.000Z</time>
        <extensions>
          <ns3:TrackPointExtension>
            <ns3:atemp>17.0</ns3:atemp>
          </ns3:TrackPointExtension>
        </extensions>
      </trkpt>
      <trkpt lat="46.7273900471627712249755859375" lon="6.85925141908228397369384765625">
        <ele>366.399993896484375</ele>
        <time>2013-09-01T15:45:09.000Z</time>
        <extensions>
          <ns3:TrackPointExtension>
            <ns3:atemp>17.0</ns3:atemp>
          </ns3:TrackPointExtension>
        </extensions>
      </trkpt>
      <trkpt lat="46.72734084539115428924560546875" lon="6.85920917429029941558837890625">
        <ele>366.600006103515625</ele>
        <time>2013-09-01T15:45:10.000Z</time>
        <extensions>
          <ns3:TrackPointExtension>
            <ns3:atemp>16.0</ns3:atemp>
          </ns3:TrackPointExtension>
        </extensions>
      </trkpt>
      <trkpt lat="46.72728703357279300689697265625" lon="6.85917698778212070465087890625">
        <ele>366.399993896484375</ele>
        <time>2013-09-01T15:45:11.000Z</time>
        <extensions>
          <ns3:TrackPointExtension>
            <ns3:atemp>16.0</ns3:atemp>
          </ns3:TrackPointExtension>
        </extensions>
      </trkpt>
      <trkpt lat="46.72722567804157733917236328125" lon="6.85915452428162097930908203125">
        <ele>366.20001220703125</ele>
        <time>2013-09-01T15:45:12.000Z</time>
        <extensions>
          <ns3:TrackPointExtension>
            <ns3:atemp>16.0</ns3:atemp>
          </ns3:TrackPointExtension>
        </extensions>
      </trkpt>
      <trkpt lat="46.7271664179861545562744140625" lon="6.8591210804879665374755859375">
        <ele>365.79998779296875</ele>
        <time>2013-09-01T15:45:13.000Z</time>
        <extensions>
          <ns3:TrackPointExtension>
            <ns3:atemp>16.0</ns3:atemp>
          </ns3:TrackPointExtension>
        </extensions>
      </trkpt>
      <trkpt lat="46.72711218707263469696044921875" lon="6.8590805120766162872314453125">
        <ele>366</ele>
        <time>2013-09-01T15:45:14.000Z</time>
        <extensions>
          <ns3:TrackPointExtension>
            <ns3:atemp>16.0</ns3:atemp>
          </ns3:TrackPointExtension>
        </extensions>
      </trkpt>
      <trkpt lat="46.727060973644256591796875" lon="6.859043799340724945068359375">
        <ele>366</ele>
        <time>2013-09-01T15:45:15.000Z</time>
        <extensions>
          <ns3:TrackPointExtension>
            <ns3:atemp>16.0</ns3:atemp>
          </ns3:TrackPointExtension>
        </extensions>
      </trkpt>
      <trkpt lat="46.72700841911137104034423828125" lon="6.85900733806192874908447265625">
        <ele>366.20001220703125</ele>
        <time>2013-09-01T15:45:16.000Z</time>
        <extensions>
          <ns3:TrackPointExtension>
            <ns3:atemp>16.0</ns3:atemp>
          </ns3:TrackPointExtension>
        </extensions>
      </trkpt>
      <trkpt lat="46.7269572056829929351806640625" lon="6.8589678592979907989501953125">
        <ele>366</ele>
        <time>2013-09-01T15:45:17.000Z</time>
        <extensions>
          <ns3:TrackPointExtension>
            <ns3:atemp>16.0</ns3:atemp>
          </ns3:TrackPointExtension>
        </extensions>
      </trkpt>
      <trkpt lat="46.72691269777715206146240234375" lon="6.85893123038113117218017578125">
        <ele>366</ele>
        <time>2013-09-01T15:45:18.000Z</time>
        <extensions>
          <ns3:TrackPointExtension>
            <ns3:atemp>16.0</ns3:atemp>
          </ns3:TrackPointExtension>
        </extensions>
      </trkpt>
      <trkpt lat="46.72686793841421604156494140625" lon="6.8588981218636035919189453125">
        <ele>365.79998779296875</ele>
        <time>2013-09-01T15:45:19.000Z</time>
        <extensions>
          <ns3:TrackPointExtension>
            <ns3:atemp>16.0</ns3:atemp>
          </ns3:TrackPointExtension>
        </extensions>
      </trkpt>
      <trkpt lat="46.72681898809969425201416015625" lon="6.8588699586689472198486328125">
        <ele>366</ele>
        <time>2013-09-01T15:45:20.000Z</time>
        <extensions>
          <ns3:TrackPointExtension>
            <ns3:atemp>16.0</ns3:atemp>
          </ns3:TrackPointExtension>
        </extensions>
      </trkpt>
      <trkpt lat="46.72676928341388702392578125" lon="6.85884053818881511688232421875">
        <ele>366.20001220703125</ele>
        <time>2013-09-01T15:45:21.000Z</time>
        <extensions>
          <ns3:TrackPointExtension>
            <ns3:atemp>16.0</ns3:atemp>
          </ns3:TrackPointExtension>
        </extensions>
      </trkpt>
      <trkpt lat="46.72672058455646038055419921875" lon="6.85880650766193866729736328125">
        <ele>366.20001220703125</ele>
        <time>2013-09-01T15:45:22.000Z</time>
        <extensions>
          <ns3:TrackPointExtension>
            <ns3:atemp>16.0</ns3:atemp>
          </ns3:TrackPointExtension>
        </extensions>
      </trkpt>
      <trkpt lat="46.72667297534644603729248046875" lon="6.85876845382153987884521484375">
        <ele>366.20001220703125</ele>
        <time>2013-09-01T15:45:23.000Z</time>
        <extensions>
          <ns3:TrackPointExtension>
            <ns3:atemp>16.0</ns3:atemp>
          </ns3:TrackPointExtension>
        </extensions>
      </trkpt>
      <trkpt lat="46.72662402503192424774169921875" lon="6.8587294779717922210693359375">
        <ele>366.20001220703125</ele>
        <time>2013-09-01T15:45:24.000Z</time>
        <extensions>
          <ns3:TrackPointExtension>
            <ns3:atemp>16.0</ns3:atemp>
          </ns3:TrackPointExtension>
        </extensions>
      </trkpt>
      <trkpt lat="46.7265776731073856353759765625" lon="6.8586832098662853240966796875">
        <ele>366.20001220703125</ele>
        <time>2013-09-01T15:45:25.000Z</time>
        <extensions>
          <ns3:TrackPointExtension>
            <ns3:atemp>16.0</ns3:atemp>
          </ns3:TrackPointExtension>
        </extensions>
      </trkpt>
      <trkpt lat="46.72653299756348133087158203125" lon="6.85863199643790721893310546875">
        <ele>366.20001220703125</ele>
        <time>2013-09-01T15:45:26.000Z</time>
        <extensions>
          <ns3:TrackPointExtension>
            <ns3:atemp>16.0</ns3:atemp>
          </ns3:TrackPointExtension>
        </extensions>
      </trkpt>
      <trkpt lat="46.7264874838292598724365234375" lon="6.8585792742669582366943359375">
        <ele>366.399993896484375</ele>
        <time>2013-09-01T15:45:27.000Z</time>
        <extensions>
          <ns3:TrackPointExtension>
            <ns3:atemp>16.0</ns3:atemp>
          </ns3:TrackPointExtension>
        </extensions>
      </trkpt>
      <trkpt lat="46.72644264064729213714599609375" lon="6.85852571390569210052490234375">
        <ele>366.399993896484375</ele>
        <time>2013-09-01T15:45:28.000Z</time>
        <extensions>
          <ns3:TrackPointExtension>
            <ns3:atemp>16.0</ns3:atemp>
          </ns3:TrackPointExtension>
        </extensions>
      </trkpt>
      <trkpt lat="46.72639804892241954803466796875" lon="6.85847156681120395660400390625">
        <ele>366.399993896484375</ele>
        <time>2013-09-01T15:45:29.000Z</time>
        <extensions>
          <ns3:TrackPointExtension>
            <ns3:atemp>16.0</ns3:atemp>
          </ns3:TrackPointExtension>
        </extensions>
      </trkpt>
      <trkpt lat="46.72635546885430812835693359375" lon="6.8584166653454303741455078125">
        <ele>366.20001220703125</ele>
        <time>2013-09-01T15:45:30.000Z</time>
        <extensions>
          <ns3:TrackPointExtension>
            <ns3:atemp>16.0</ns3:atemp>
          </ns3:TrackPointExtension>
        </extensions>
      </trkpt>
      <trkpt lat="46.7263091169297695159912109375" lon="6.8583663739264011383056640625">
        <ele>366.20001220703125</ele>
        <time>2013-09-01T15:45:31.000Z</time>
        <extensions>
          <ns3:TrackPointExtension>
            <ns3:atemp>16.0</ns3:atemp>
          </ns3:TrackPointExtension>
        </extensions>
      </trkpt>
      <trkpt lat="46.7262578196823596954345703125" lon="6.858322620391845703125">
        <ele>366.20001220703125</ele>
        <time>2013-09-01T15:45:32.000Z</time>
        <extensions>
          <ns3:TrackPointExtension>
            <ns3:atemp>16.0</ns3:atemp>
          </ns3:TrackPointExtension>
        </extensions>
      </trkpt>
      <trkpt lat="46.72620870172977447509765625" lon="6.858295463025569915771484375">
        <ele>366.399993896484375</ele>
        <time>2013-09-01T15:45:33.000Z</time>
        <extensions>
          <ns3:TrackPointExtension>
            <ns3:atemp>16.0</ns3:atemp>
          </ns3:TrackPointExtension>
        </extensions>
      </trkpt>
      <trkpt lat="46.72616955824196338653564453125" lon="6.8582869134843349456787109375">
        <ele>366.79998779296875</ele>
        <time>2013-09-01T15:45:34.000Z</time>
        <extensions>
          <ns3:TrackPointExtension>
            <ns3:atemp>16.0</ns3:atemp>
          </ns3:TrackPointExtension>
        </extensions>
      </trkpt>
      <trkpt lat="46.72613653354346752166748046875" lon="6.85828582383692264556884765625">
        <ele>366.79998779296875</ele>
        <time>2013-09-01T15:45:35.000Z</time>
        <extensions>
          <ns3:TrackPointExtension>
            <ns3:atemp>16.0</ns3:atemp>
          </ns3:TrackPointExtension>
        </extensions>
      </trkpt>
      <trkpt lat="46.7261066101491451263427734375" lon="6.85828716494143009185791015625">
        <ele>367.399993896484375</ele>
        <time>2013-09-01T15:45:36.000Z</time>
        <extensions>
          <ns3:TrackPointExtension>
            <ns3:atemp>16.0</ns3:atemp>
          </ns3:TrackPointExtension>
        </extensions>
      </trkpt>
      <trkpt lat="46.726076602935791015625" lon="6.8582865782082080841064453125">
        <ele>367.600006103515625</ele>
        <time>2013-09-01T15:45:37.000Z</time>
        <extensions>
          <ns3:TrackPointExtension>
            <ns3:atemp>16.0</ns3:atemp>
          </ns3:TrackPointExtension>
        </extensions>
      </trkpt>
      <trkpt lat="46.726045422255992889404296875" lon="6.85828708112239837646484375">
        <ele>368</ele>
        <time>2013-09-01T15:45:38.000Z</time>
        <extensions>
          <ns3:TrackPointExtension>
            <ns3:atemp>16.0</ns3:atemp>
          </ns3:TrackPointExtension>
        </extensions>
      </trkpt>
      <trkpt lat="46.726015247404575347900390625" lon="6.858284063637256622314453125">
        <ele>368.20001220703125</ele>
        <time>2013-09-01T15:45:39.000Z</time>
        <extensions>
          <ns3:TrackPointExtension>
            <ns3:atemp>16.0</ns3:atemp>
          </ns3:TrackPointExtension>
        </extensions>
      </trkpt>
      <trkpt lat="46.72598549164831638336181640625" lon="6.8582805432379245758056640625">
        <ele>368.399993896484375</ele>
        <time>2013-09-01T15:45:40.000Z</time>
        <extensions>
          <ns3:TrackPointExtension>
            <ns3:atemp>16.0</ns3:atemp>
          </ns3:TrackPointExtension>
        </extensions>
      </trkpt>
      <trkpt lat="46.72595791518688201904296875" lon="6.85827945359051227569580078125">
        <ele>368.600006103515625</ele>
        <time>2013-09-01T15:45:41.000Z</time>
        <extensions>
          <ns3:TrackPointExtension>
            <ns3:atemp>16.0</ns3:atemp>
          </ns3:TrackPointExtension>
        </extensions>
      </trkpt>
      <trkpt lat="46.725930757820606231689453125" lon="6.85827174223959445953369140625">
        <ele>368.600006103515625</ele>
        <time>2013-09-01T15:45:42.000Z</time>
        <extensions>
          <ns3:TrackPointExtension>
            <ns3:atemp>16.0</ns3:atemp>
          </ns3:TrackPointExtension>
        </extensions>
      </trkpt>
      <trkpt lat="46.72590670175850391387939453125" lon="6.858253218233585357666015625">
        <ele>368.600006103515625</ele>
        <time>2013-09-01T15:45:43.000Z</time>
        <extensions>
          <ns3:TrackPointExtension>
            <ns3:atemp>16.0</ns3:atemp>
          </ns3:TrackPointExtension>
        </extensions>
      </trkpt>
      <trkpt lat="46.7258816398680210113525390625" lon="6.85823201201856136322021484375">
        <ele>368.399993896484375</ele>
        <time>2013-09-01T15:45:44.000Z</time>
        <extensions>
          <ns3:TrackPointExtension>
            <ns3:atemp>16.0</ns3:atemp>
          </ns3:TrackPointExtension>
        </extensions>
      </trkpt>
      <trkpt lat="46.72585322521626949310302734375" lon="6.85821139253675937652587890625">
        <ele>368.20001220703125</ele>
        <time>2013-09-01T15:45:45.000Z</time>
        <extensions>
          <ns3:TrackPointExtension>
            <ns3:atemp>16.0</ns3:atemp>
          </ns3:TrackPointExtension>
        </extensions>
      </trkpt>
      <trkpt lat="46.72582439146935939788818359375" lon="6.85818850994110107421875">
        <ele>368.399993896484375</ele>
        <time>2013-09-01T15:45:46.000Z</time>
        <extensions>
          <ns3:TrackPointExtension>
            <ns3:atemp>16.0</ns3:atemp>
          </ns3:TrackPointExtension>
        </extensions>
      </trkpt>
      <trkpt lat="46.72579907812178134918212890625" lon="6.8581605143845081329345703125">
        <ele>368.399993896484375</ele>
        <time>2013-09-01T15:45:47.000Z</time>
        <extensions>
          <ns3:TrackPointExtension>
            <ns3:atemp>16.0</ns3:atemp>
          </ns3:TrackPointExtension>
        </extensions>
      </trkpt>
      <trkpt lat="46.7257783748209476470947265625" lon="6.85812572948634624481201171875">
        <ele>368.79998779296875</ele>
        <time>2013-09-01T15:45:48.000Z</time>
        <extensions>
          <ns3:TrackPointExtension>
            <ns3:atemp>16.0</ns3:atemp>
          </ns3:TrackPointExtension>
        </extensions>
      </trkpt>
      <trkpt lat="46.72575582750141620635986328125" lon="6.8580924533307552337646484375">
        <ele>368.79998779296875</ele>
        <time>2013-09-01T15:45:49.000Z</time>
        <extensions>
          <ns3:TrackPointExtension>
            <ns3:atemp>16.0</ns3:atemp>
          </ns3:TrackPointExtension>
        </extensions>
      </trkpt>
      <trkpt lat="46.72572313807904720306396484375" lon="6.8580713309347629547119140625">
        <ele>368.79998779296875</ele>
        <time>2013-09-01T15:45:50.000Z</time>
        <extensions>
          <ns3:TrackPointExtension>
            <ns3:atemp>16.0</ns3:atemp>
          </ns3:TrackPointExtension>
        </extensions>
      </trkpt>
      <trkpt lat="46.7256895266473293304443359375" lon="6.85806504450738430023193359375">
        <ele>368.79998779296875</ele>
        <time>2013-09-01T15:45:51.000Z</time>
        <extensions>
          <ns3:TrackPointExtension>
            <ns3:atemp>16.0</ns3:atemp>
          </ns3:TrackPointExtension>
        </extensions>
      </trkpt>
      <trkpt lat="46.7256595194339752197265625" lon="6.858075521886348724365234375">
        <ele>368.79998779296875</ele>
        <time>2013-09-01T15:45:52.000Z</time>
        <extensions>
          <ns3:TrackPointExtension>
            <ns3:atemp>16.0</ns3:atemp>
          </ns3:TrackPointExtension>
        </extensions>
      </trkpt>
      <trkpt lat="46.7256305180490016937255859375" lon="6.85808683745563030242919921875">
        <ele>368.79998779296875</ele>
        <time>2013-09-01T15:45:53.000Z</time>
        <extensions>
          <ns3:TrackPointExtension>
            <ns3:atemp>16.0</ns3:atemp>
          </ns3:TrackPointExtension>
        </extensions>
      </trkpt>
      <trkpt lat="46.7255959846079349517822265625" lon="6.8580803833901882171630859375">
        <ele>368.600006103515625</ele>
        <time>2013-09-01T15:45:54.000Z</time>
        <extensions>
          <ns3:TrackPointExtension>
            <ns3:atemp>16.0</ns3:atemp>
          </ns3:TrackPointExtension>
        </extensions>
      </trkpt>
      <trkpt lat="46.7255611158907413482666015625" lon="6.85805481858551502227783203125">
        <ele>368</ele>
        <time>2013-09-01T15:45:55.000Z</time>
        <extensions>
          <ns3:TrackPointExtension>
            <ns3:atemp>16.0</ns3:atemp>
          </ns3:TrackPointExtension>
        </extensions>
      </trkpt>
      <trkpt lat="46.72554351389408111572265625" lon="6.85802414081990718841552734375">
        <ele>367.600006103515625</ele>
        <time>2013-09-01T15:45:56.000Z</time>
        <extensions>
          <ns3:TrackPointExtension>
            <ns3:atemp>16.0</ns3:atemp>
          </ns3:TrackPointExtension>
        </extensions>
      </trkpt>
      <trkpt lat="46.72554661519825458526611328125" lon="6.85803067870438098907470703125">
        <ele>367.79998779296875</ele>
        <time>2013-09-01T15:45:57.000Z</time>
        <extensions>
          <ns3:TrackPointExtension>
            <ns3:atemp>16.0</ns3:atemp>
          </ns3:TrackPointExtension>
        </extensions>
      </trkpt>
      <trkpt lat="46.7255349643528461456298828125" lon="6.8580123223364353179931640625">
        <ele>368.399993896484375</ele>
        <time>2013-09-01T15:45:58.000Z</time>
        <extensions>
          <ns3:TrackPointExtension>
            <ns3:atemp>16.0</ns3:atemp>
          </ns3:TrackPointExtension>
        </extensions>
      </trkpt>
      <trkpt lat="46.7255349643528461456298828125" lon="6.8580123223364353179931640625">
        <ele>368.600006103515625</ele>
        <time>2013-09-01T15:45:59.000Z</time>
        <extensions>
          <ns3:TrackPointExtension>
            <ns3:atemp>16.0</ns3:atemp>
          </ns3:TrackPointExtension>
        </extensions>
      </trkpt>
      <trkpt lat="46.72552733682096004486083984375" lon="6.85800050385296344757080078125">
        <ele>368.79998779296875</ele>
        <time>2013-09-01T15:46:00.000Z</time>
        <extensions>
          <ns3:TrackPointExtension>
            <ns3:atemp>16.0</ns3:atemp>
          </ns3:TrackPointExtension>
        </extensions>
      </trkpt>
      <trkpt lat="46.7255188710987567901611328125" lon="6.85799069702625274658203125">
        <ele>369</ele>
        <time>2013-09-01T15:46:01.000Z</time>
        <extensions>
          <ns3:TrackPointExtension>
            <ns3:atemp>16.0</ns3:atemp>
          </ns3:TrackPointExtension>
        </extensions>
      </trkpt>
      <trkpt lat="46.72550805844366550445556640625" lon="6.8579828180372714996337890625">
        <ele>369.20001220703125</ele>
        <time>2013-09-01T15:46:02.000Z</time>
        <extensions>
          <ns3:TrackPointExtension>
            <ns3:atemp>16.0</ns3:atemp>
          </ns3:TrackPointExtension>
        </extensions>
      </trkpt>
      <trkpt lat="46.7254977487027645111083984375" lon="6.85797317884862422943115234375">
        <ele>369.399993896484375</ele>
        <time>2013-09-01T15:46:03.000Z</time>
        <extensions>
          <ns3:TrackPointExtension>
            <ns3:atemp>16.0</ns3:atemp>
          </ns3:TrackPointExtension>
        </extensions>
      </trkpt>
      <trkpt lat="46.72548827715218067169189453125" lon="6.85796345584094524383544921875">
        <ele>369.79998779296875</ele>
        <time>2013-09-01T15:46:04.000Z</time>
        <extensions>
          <ns3:TrackPointExtension>
            <ns3:atemp>16.0</ns3:atemp>
          </ns3:TrackPointExtension>
        </extensions>
      </trkpt>
      <trkpt lat="46.72548190690577030181884765625" lon="6.8579556606709957122802734375">
        <ele>370</ele>
        <time>2013-09-01T15:46:05.000Z</time>
        <extensions>
          <ns3:TrackPointExtension>
            <ns3:atemp>17.0</ns3:atemp>
          </ns3:TrackPointExtension>
        </extensions>
      </trkpt>
      <trkpt lat="46.72547134570777416229248046875" lon="6.857946775853633880615234375">
        <ele>370.20001220703125</ele>
        <time>2013-09-01T15:46:06.000Z</time>
        <extensions>
          <ns3:TrackPointExtension>
            <ns3:atemp>17.0</ns3:atemp>
          </ns3:TrackPointExtension>
        </extensions>
      </trkpt>
      <trkpt lat="46.725461371243000030517578125" lon="6.85793747194111347198486328125">
        <ele>370.399993896484375</ele>
        <time>2013-09-01T15:46:07.000Z</time>
        <extensions>
          <ns3:TrackPointExtension>
            <ns3:atemp>17.0</ns3:atemp>
          </ns3:TrackPointExtension>
        </extensions>
      </trkpt>
      <trkpt lat="46.7254543304443359375" lon="6.85792992822825908660888671875">
        <ele>370.600006103515625</ele>
        <time>2013-09-01T15:46:08.000Z</time>
        <extensions>
          <ns3:TrackPointExtension>
            <ns3:atemp>17.0</ns3:atemp>
          </ns3:TrackPointExtension>
        </extensions>
      </trkpt>
      <trkpt lat="46.7254484631121158599853515625" lon="6.85792355798184871673583984375">
        <ele>370.79998779296875</ele>
        <time>2013-09-01T15:46:09.000Z</time>
        <extensions>
          <ns3:TrackPointExtension>
            <ns3:atemp>17.0</ns3:atemp>
          </ns3:TrackPointExtension>
        </extensions>
      </trkpt>
      <trkpt lat="46.72544050030410289764404296875" lon="6.85791467316448688507080078125">
        <ele>370.79998779296875</ele>
        <time>2013-09-01T15:46:10.000Z</time>
        <extensions>
          <ns3:TrackPointExtension>
            <ns3:atemp>17.0</ns3:atemp>
          </ns3:TrackPointExtension>
        </extensions>
      </trkpt>
      <trkpt lat="46.72543086111545562744140625" lon="6.85790411196649074554443359375">
        <ele>370.79998779296875</ele>
        <time>2013-09-01T15:46:11.000Z</time>
        <extensions>
          <ns3:TrackPointExtension>
            <ns3:atemp>17.0</ns3:atemp>
          </ns3:TrackPointExtension>
        </extensions>
      </trkpt>
      <trkpt lat="46.72542256303131580352783203125" lon="6.85789371840655803680419921875">
        <ele>370.600006103515625</ele>
        <time>2013-09-01T15:46:12.000Z</time>
        <extensions>
          <ns3:TrackPointExtension>
            <ns3:atemp>17.0</ns3:atemp>
          </ns3:TrackPointExtension>
        </extensions>
      </trkpt>
      <trkpt lat="46.72541082836687564849853515625" lon="6.85788533650338649749755859375">
        <ele>370.600006103515625</ele>
        <time>2013-09-01T15:46:13.000Z</time>
        <extensions>
          <ns3:TrackPointExtension>
            <ns3:atemp>17.0</ns3:atemp>
          </ns3:TrackPointExtension>
        </extensions>
      </trkpt>
      <trkpt lat="46.7253931425511837005615234375" lon="6.8578760325908660888671875">
        <ele>370.79998779296875</ele>
        <time>2013-09-01T15:46:14.000Z</time>
        <extensions>
          <ns3:TrackPointExtension>
            <ns3:atemp>17.0</ns3:atemp>
          </ns3:TrackPointExtension>
        </extensions>
      </trkpt>
      <trkpt lat="46.725376211106777191162109375" lon="6.85786538757383823394775390625">
        <ele>370.79998779296875</ele>
        <time>2013-09-01T15:46:15.000Z</time>
        <extensions>
          <ns3:TrackPointExtension>
            <ns3:atemp>17.0</ns3:atemp>
          </ns3:TrackPointExtension>
        </extensions>
      </trkpt>
      <trkpt lat="46.72536372207105159759521484375" lon="6.8578570894896984100341796875">
        <ele>370.20001220703125</ele>
        <time>2013-09-01T15:46:16.000Z</time>
        <extensions>
          <ns3:TrackPointExtension>
            <ns3:atemp>17.0</ns3:atemp>
          </ns3:TrackPointExtension>
        </extensions>
      </trkpt>
      <trkpt lat="46.7253565974533557891845703125" lon="6.85784694738686084747314453125">
        <ele>369.79998779296875</ele>
        <time>2013-09-01T15:46:17.000Z</time>
        <extensions>
          <ns3:TrackPointExtension>
            <ns3:atemp>17.0</ns3:atemp>
          </ns3:TrackPointExtension>
        </extensions>
      </trkpt>
      <trkpt lat="46.72534628771245479583740234375" lon="6.85783504508435726165771484375">
        <ele>369.600006103515625</ele>
        <time>2013-09-01T15:46:18.000Z</time>
        <extensions>
          <ns3:TrackPointExtension>
            <ns3:atemp>17.0</ns3:atemp>
          </ns3:TrackPointExtension>
        </extensions>
      </trkpt>
      <trkpt lat="46.72533220611512660980224609375" lon="6.85782096348702907562255859375">
        <ele>369.600006103515625</ele>
        <time>2013-09-01T15:46:19.000Z</time>
        <extensions>
          <ns3:TrackPointExtension>
            <ns3:atemp>17.0</ns3:atemp>
          </ns3:TrackPointExtension>
        </extensions>
      </trkpt>
      <trkpt lat="46.725312508642673492431640625" lon="6.8577997572720050811767578125">
        <ele>369.600006103515625</ele>
        <time>2013-09-01T15:46:20.000Z</time>
        <extensions>
          <ns3:TrackPointExtension>
            <ns3:atemp>17.0</ns3:atemp>
          </ns3:TrackPointExtension>
        </extensions>
      </trkpt>
      <trkpt lat="46.7252885363996028900146484375" lon="6.85776949860155582427978515625">
        <ele>369.600006103515625</ele>
        <time>2013-09-01T15:46:21.000Z</time>
        <extensions>
          <ns3:TrackPointExtension>
            <ns3:atemp>17.0</ns3:atemp>
          </ns3:TrackPointExtension>
        </extensions>
      </trkpt>
      <trkpt lat="46.72525827772915363311767578125" lon="6.85773831792175769805908203125">
        <ele>369.79998779296875</ele>
        <time>2013-09-01T15:46:22.000Z</time>
        <extensions>
          <ns3:TrackPointExtension>
            <ns3:atemp>17.0</ns3:atemp>
          </ns3:TrackPointExtension>
        </extensions>
      </trkpt>
      <trkpt lat="46.7252250015735626220703125" lon="6.8577042035758495330810546875">
        <ele>369.600006103515625</ele>
        <time>2013-09-01T15:46:23.000Z</time>
        <extensions>
          <ns3:TrackPointExtension>
            <ns3:atemp>17.0</ns3:atemp>
          </ns3:TrackPointExtension>
        </extensions>
      </trkpt>
      <trkpt lat="46.72518946230411529541015625" lon="6.857669167220592498779296875">
        <ele>369.600006103515625</ele>
        <time>2013-09-01T15:46:24.000Z</time>
        <extensions>
          <ns3:TrackPointExtension>
            <ns3:atemp>17.0</ns3:atemp>
          </ns3:TrackPointExtension>
        </extensions>
      </trkpt>
      <trkpt lat="46.72515417449176311492919921875" lon="6.8576280958950519561767578125">
        <ele>369.399993896484375</ele>
        <time>2013-09-01T15:46:25.000Z</time>
        <extensions>
          <ns3:TrackPointExtension>
            <ns3:atemp>17.0</ns3:atemp>
          </ns3:TrackPointExtension>
        </extensions>
      </trkpt>
      <trkpt lat="46.7251185514032840728759765625" lon="6.8575845099985599517822265625">
        <ele>369.399993896484375</ele>
        <time>2013-09-01T15:46:26.000Z</time>
        <extensions>
          <ns3:TrackPointExtension>
            <ns3:atemp>17.0</ns3:atemp>
          </ns3:TrackPointExtension>
        </extensions>
      </trkpt>
      <trkpt lat="46.72508242540061473846435546875" lon="6.85754519887268543243408203125">
        <ele>369.399993896484375</ele>
        <time>2013-09-01T15:46:27.000Z</time>
        <extensions>
          <ns3:TrackPointExtension>
            <ns3:atemp>17.0</ns3:atemp>
          </ns3:TrackPointExtension>
        </extensions>
      </trkpt>
      <trkpt lat="46.72504403628408908843994140625" lon="6.8575070612132549285888671875">
        <ele>369.399993896484375</ele>
        <time>2013-09-01T15:46:28.000Z</time>
        <extensions>
          <ns3:TrackPointExtension>
            <ns3:atemp>17.0</ns3:atemp>
          </ns3:TrackPointExtension>
        </extensions>
      </trkpt>
      <trkpt lat="46.72500246204435825347900390625" lon="6.85747546143829822540283203125">
        <ele>369.399993896484375</ele>
        <time>2013-09-01T15:46:29.000Z</time>
        <extensions>
          <ns3:TrackPointExtension>
            <ns3:atemp>17.0</ns3:atemp>
          </ns3:TrackPointExtension>
        </extensions>
      </trkpt>
      <trkpt lat="46.7249576188623905181884765625" lon="6.8574500642716884613037109375">
        <ele>369.399993896484375</ele>
        <time>2013-09-01T15:46:30.000Z</time>
        <extensions>
          <ns3:TrackPointExtension>
            <ns3:atemp>17.0</ns3:atemp>
          </ns3:TrackPointExtension>
        </extensions>
      </trkpt>
      <trkpt lat="46.72491160221397876739501953125" lon="6.8574165366590023040771484375">
        <ele>369.399993896484375</ele>
        <time>2013-09-01T15:46:31.000Z</time>
        <extensions>
          <ns3:TrackPointExtension>
            <ns3:atemp>17.0</ns3:atemp>
          </ns3:TrackPointExtension>
        </extensions>
      </trkpt>
      <trkpt lat="46.72486625611782073974609375" lon="6.8573756329715251922607421875">
        <ele>369.600006103515625</ele>
        <time>2013-09-01T15:46:32.000Z</time>
        <extensions>
          <ns3:TrackPointExtension>
            <ns3:atemp>17.0</ns3:atemp>
          </ns3:TrackPointExtension>
        </extensions>
      </trkpt>
      <trkpt lat="46.7248208262026309967041015625" lon="6.85733296908438205718994140625">
        <ele>369.79998779296875</ele>
        <time>2013-09-01T15:46:33.000Z</time>
        <extensions>
          <ns3:TrackPointExtension>
            <ns3:atemp>17.0</ns3:atemp>
          </ns3:TrackPointExtension>
        </extensions>
      </trkpt>
      <trkpt lat="46.72477514483034610748291015625" lon="6.857288293540477752685546875">
        <ele>369.79998779296875</ele>
        <time>2013-09-01T15:46:34.000Z</time>
        <extensions>
          <ns3:TrackPointExtension>
            <ns3:atemp>17.0</ns3:atemp>
          </ns3:TrackPointExtension>
        </extensions>
      </trkpt>
      <trkpt lat="46.724727787077426910400390625" lon="6.85724361799657344818115234375">
        <ele>370.20001220703125</ele>
        <time>2013-09-01T15:46:35.000Z</time>
        <extensions>
          <ns3:TrackPointExtension>
            <ns3:atemp>17.0</ns3:atemp>
          </ns3:TrackPointExtension>
        </extensions>
      </trkpt>
      <trkpt lat="46.7246783338487148284912109375" lon="6.85719952918589115142822265625">
        <ele>370.20001220703125</ele>
        <time>2013-09-01T15:46:36.000Z</time>
        <extensions>
          <ns3:TrackPointExtension>
            <ns3:atemp>17.0</ns3:atemp>
          </ns3:TrackPointExtension>
        </extensions>
      </trkpt>
      <trkpt lat="46.72462913207709789276123046875" lon="6.857153512537479400634765625">
        <ele>370.399993896484375</ele>
        <time>2013-09-01T15:46:37.000Z</time>
        <extensions>
          <ns3:TrackPointExtension>
            <ns3:atemp>17.0</ns3:atemp>
          </ns3:TrackPointExtension>
        </extensions>
      </trkpt>
      <trkpt lat="46.72458034940063953399658203125" lon="6.8571064062416553497314453125">
        <ele>370</ele>
        <time>2013-09-01T15:46:38.000Z</time>
        <extensions>
          <ns3:TrackPointExtension>
            <ns3:atemp>17.0</ns3:atemp>
          </ns3:TrackPointExtension>
        </extensions>
      </trkpt>
      <trkpt lat="46.724528633058071136474609375" lon="6.85706173069775104522705078125">
        <ele>369.79998779296875</ele>
        <time>2013-09-01T15:46:39.000Z</time>
        <extensions>
          <ns3:TrackPointExtension>
            <ns3:atemp>17.0</ns3:atemp>
          </ns3:TrackPointExtension>
        </extensions>
      </trkpt>
      <trkpt lat="46.724475324153900146484375" lon="6.857016049325466156005859375">
        <ele>369.600006103515625</ele>
        <time>2013-09-01T15:46:40.000Z</time>
        <extensions>
          <ns3:TrackPointExtension>
            <ns3:atemp>17.0</ns3:atemp>
          </ns3:TrackPointExtension>
        </extensions>
      </trkpt>
      <trkpt lat="46.72442260198295116424560546875" lon="6.8569712899625301361083984375">
        <ele>369.79998779296875</ele>
        <time>2013-09-01T15:46:41.000Z</time>
        <extensions>
          <ns3:TrackPointExtension>
            <ns3:atemp>17.0</ns3:atemp>
          </ns3:TrackPointExtension>
        </extensions>
      </trkpt>
      <trkpt lat="46.72436811961233615875244140625" lon="6.85692586004734039306640625">
        <ele>369.79998779296875</ele>
        <time>2013-09-01T15:46:42.000Z</time>
        <extensions>
          <ns3:TrackPointExtension>
            <ns3:atemp>17.0</ns3:atemp>
          </ns3:TrackPointExtension>
        </extensions>
      </trkpt>
      <trkpt lat="46.7243128828704357147216796875" lon="6.85688118450343608856201171875">
        <ele>369.79998779296875</ele>
        <time>2013-09-01T15:46:43.000Z</time>
        <extensions>
          <ns3:TrackPointExtension>
            <ns3:atemp>17.0</ns3:atemp>
          </ns3:TrackPointExtension>
        </extensions>
      </trkpt>
      <trkpt lat="46.7242575623095035552978515625" lon="6.85683659277856349945068359375">
        <ele>369.600006103515625</ele>
        <time>2013-09-01T15:46:44.000Z</time>
        <extensions>
          <ns3:TrackPointExtension>
            <ns3:atemp>17.0</ns3:atemp>
          </ns3:TrackPointExtension>
        </extensions>
      </trkpt>
      <trkpt lat="46.72420316375792026519775390625" lon="6.85679040849208831787109375">
        <ele>369.600006103515625</ele>
        <time>2013-09-01T15:46:45.000Z</time>
        <extensions>
          <ns3:TrackPointExtension>
            <ns3:atemp>17.0</ns3:atemp>
          </ns3:TrackPointExtension>
        </extensions>
      </trkpt>
      <trkpt lat="46.724147759377956390380859375" lon="6.85674087144434452056884765625">
        <ele>369.79998779296875</ele>
        <time>2013-09-01T15:46:46.000Z</time>
        <extensions>
          <ns3:TrackPointExtension>
            <ns3:atemp>17.0</ns3:atemp>
          </ns3:TrackPointExtension>
        </extensions>
      </trkpt>
      <trkpt lat="46.72409377992153167724609375" lon="6.85669125057756900787353515625">
        <ele>370</ele>
        <time>2013-09-01T15:46:47.000Z</time>
        <extensions>
          <ns3:TrackPointExtension>
            <ns3:atemp>17.0</ns3:atemp>
          </ns3:TrackPointExtension>
        </extensions>
      </trkpt>
      <trkpt lat="46.72403887845575809478759765625" lon="6.85664196498692035675048828125">
        <ele>370</ele>
        <time>2013-09-01T15:46:48.000Z</time>
        <extensions>
          <ns3:TrackPointExtension>
            <ns3:atemp>17.0</ns3:atemp>
          </ns3:TrackPointExtension>
        </extensions>
      </trkpt>
      <trkpt lat="46.72398070804774761199951171875" lon="6.85659192502498626708984375">
        <ele>370</ele>
        <time>2013-09-01T15:46:49.000Z</time>
        <extensions>
          <ns3:TrackPointExtension>
            <ns3:atemp>17.0</ns3:atemp>
          </ns3:TrackPointExtension>
        </extensions>
      </trkpt>
      <trkpt lat="46.72392211854457855224609375" lon="6.85654188506305217742919921875">
        <ele>370</ele>
        <time>2013-09-01T15:46:50.000Z</time>
        <extensions>
          <ns3:TrackPointExtension>
            <ns3:atemp>17.0</ns3:atemp>
          </ns3:TrackPointExtension>
        </extensions>
      </trkpt>
      <trkpt lat="46.723862774670124053955078125" lon="6.8564911745488643646240234375">
        <ele>370.399993896484375</ele>
        <time>2013-09-01T15:46:51.000Z</time>
        <extensions>
          <ns3:TrackPointExtension>
            <ns3:atemp>17.0</ns3:atemp>
          </ns3:TrackPointExtension>
        </extensions>
      </trkpt>
      <trkpt lat="46.72380317933857440948486328125" lon="6.8564395420253276824951171875">
        <ele>370.399993896484375</ele>
        <time>2013-09-01T15:46:52.000Z</time>
        <extensions>
          <ns3:TrackPointExtension>
            <ns3:atemp>17.0</ns3:atemp>
          </ns3:TrackPointExtension>
        </extensions>
      </trkpt>
      <trkpt lat="46.72374115325510501861572265625" lon="6.8563869036734104156494140625">
        <ele>370.600006103515625</ele>
        <time>2013-09-01T15:46:53.000Z</time>
        <extensions>
          <ns3:TrackPointExtension>
            <ns3:atemp>17.0</ns3:atemp>
          </ns3:TrackPointExtension>
        </extensions>
      </trkpt>
      <trkpt lat="46.7236788757145404815673828125" lon="6.85633652843534946441650390625">
        <ele>370.600006103515625</ele>
        <time>2013-09-01T15:46:54.000Z</time>
        <extensions>
          <ns3:TrackPointExtension>
            <ns3:atemp>17.0</ns3:atemp>
          </ns3:TrackPointExtension>
        </extensions>
      </trkpt>
      <trkpt lat="46.7236161790788173675537109375" lon="6.8562846444547176361083984375">
        <ele>370.600006103515625</ele>
        <time>2013-09-01T15:46:55.000Z</time>
        <extensions>
          <ns3:TrackPointExtension>
            <ns3:atemp>17.0</ns3:atemp>
          </ns3:TrackPointExtension>
        </extensions>
      </trkpt>
      <trkpt lat="46.723552979528903961181640625" lon="6.856231503188610076904296875">
        <ele>370.600006103515625</ele>
        <time>2013-09-01T15:46:56.000Z</time>
        <extensions>
          <ns3:TrackPointExtension>
            <ns3:atemp>17.0</ns3:atemp>
          </ns3:TrackPointExtension>
        </extensions>
      </trkpt>
      <trkpt lat="46.72348885796964168548583984375" lon="6.85617693699896335601806640625">
        <ele>370.79998779296875</ele>
        <time>2013-09-01T15:46:57.000Z</time>
        <extensions>
          <ns3:TrackPointExtension>
            <ns3:atemp>17.0</ns3:atemp>
          </ns3:TrackPointExtension>
        </extensions>
      </trkpt>
      <trkpt lat="46.72342565841972827911376953125" lon="6.856122873723506927490234375">
        <ele>371</ele>
        <time>2013-09-01T15:46:58.000Z</time>
        <extensions>
          <ns3:TrackPointExtension>
            <ns3:atemp>17.0</ns3:atemp>
          </ns3:TrackPointExtension>
        </extensions>
      </trkpt>
      <trkpt lat="46.72336245886981487274169921875" lon="6.8560700677335262298583984375">
        <ele>371</ele>
        <time>2013-09-01T15:46:59.000Z</time>
        <extensions>
          <ns3:TrackPointExtension>
            <ns3:atemp>17.0</ns3:atemp>
          </ns3:TrackPointExtension>
        </extensions>
      </trkpt>
      <trkpt lat="46.7232993431389331817626953125" lon="6.85601868666708469390869140625">
        <ele>371.20001220703125</ele>
        <time>2013-09-01T15:47:00.000Z</time>
        <extensions>
          <ns3:TrackPointExtension>
            <ns3:atemp>17.0</ns3:atemp>
          </ns3:TrackPointExtension>
        </extensions>
      </trkpt>
      <trkpt lat="46.7232359759509563446044921875" lon="6.8559668026864528656005859375">
        <ele>371</ele>
        <time>2013-09-01T15:47:01.000Z</time>
        <extensions>
          <ns3:TrackPointExtension>
            <ns3:atemp>17.0</ns3:atemp>
          </ns3:TrackPointExtension>
        </extensions>
      </trkpt>
      <trkpt lat="46.72317244112491607666015625" lon="6.85591374523937702178955078125">
        <ele>371</ele>
        <time>2013-09-01T15:47:02.000Z</time>
        <extensions>
          <ns3:TrackPointExtension>
            <ns3:atemp>17.0</ns3:atemp>
          </ns3:TrackPointExtension>
        </extensions>
      </trkpt>
      <trkpt lat="46.7231092415750026702880859375" lon="6.85586077161133289337158203125">
        <ele>370.79998779296875</ele>
        <time>2013-09-01T15:47:03.000Z</time>
        <extensions>
          <ns3:TrackPointExtension>
            <ns3:atemp>17.0</ns3:atemp>
          </ns3:TrackPointExtension>
        </extensions>
      </trkpt>
      <trkpt lat="46.723046712577342987060546875" lon="6.85580880381166934967041015625">
        <ele>370.600006103515625</ele>
        <time>2013-09-01T15:47:04.000Z</time>
        <extensions>
          <ns3:TrackPointExtension>
            <ns3:atemp>17.0</ns3:atemp>
          </ns3:TrackPointExtension>
        </extensions>
      </trkpt>
      <trkpt lat="46.72298409976065158843994140625" lon="6.8557570874691009521484375">
        <ele>370.79998779296875</ele>
        <time>2013-09-01T15:47:05.000Z</time>
        <extensions>
          <ns3:TrackPointExtension>
            <ns3:atemp>17.0</ns3:atemp>
          </ns3:TrackPointExtension>
        </extensions>
      </trkpt>
      <trkpt lat="46.72292173840105533599853515625" lon="6.85570671223104000091552734375">
        <ele>371</ele>
        <time>2013-09-01T15:47:06.000Z</time>
        <extensions>
          <ns3:TrackPointExtension>
            <ns3:atemp>17.0</ns3:atemp>
          </ns3:TrackPointExtension>
        </extensions>
      </trkpt>
      <trkpt lat="46.7228587903082370758056640625" lon="6.8556563369929790496826171875">
        <ele>371.399993896484375</ele>
        <time>2013-09-01T15:47:07.000Z</time>
        <extensions>
          <ns3:TrackPointExtension>
            <ns3:atemp>17.0</ns3:atemp>
          </ns3:TrackPointExtension>
        </extensions>
      </trkpt>
      <trkpt lat="46.722797937691211700439453125" lon="6.855605207383632659912109375">
        <ele>371.20001220703125</ele>
        <time>2013-09-01T15:47:08.000Z</time>
        <extensions>
          <ns3:TrackPointExtension>
            <ns3:atemp>17.0</ns3:atemp>
          </ns3:TrackPointExtension>
        </extensions>
      </trkpt>
      <trkpt lat="46.72273616306483745574951171875" lon="6.85555315576493740081787109375">
        <ele>371</ele>
        <time>2013-09-01T15:47:09.000Z</time>
        <extensions>
          <ns3:TrackPointExtension>
            <ns3:atemp>17.0</ns3:atemp>
          </ns3:TrackPointExtension>
        </extensions>
      </trkpt>
      <trkpt lat="46.722675226628780364990234375" lon="6.855499930679798126220703125">
        <ele>370.79998779296875</ele>
        <time>2013-09-01T15:47:10.000Z</time>
        <extensions>
          <ns3:TrackPointExtension>
            <ns3:atemp>17.0</ns3:atemp>
          </ns3:TrackPointExtension>
        </extensions>
      </trkpt>
      <trkpt lat="46.72261454164981842041015625" lon="6.8554474599659442901611328125">
        <ele>371.399993896484375</ele>
        <time>2013-09-01T15:47:11.000Z</time>
        <extensions>
          <ns3:TrackPointExtension>
            <ns3:atemp>17.0</ns3:atemp>
          </ns3:TrackPointExtension>
        </extensions>
      </trkpt>
      <trkpt lat="46.72255285084247589111328125" lon="6.85539641417562961578369140625">
        <ele>371.600006103515625</ele>
        <time>2013-09-01T15:47:12.000Z</time>
        <extensions>
          <ns3:TrackPointExtension>
            <ns3:atemp>17.0</ns3:atemp>
          </ns3:TrackPointExtension>
        </extensions>
      </trkpt>
      <trkpt lat="46.72249208204448223114013671875" lon="6.8553448654711246490478515625">
        <ele>371.600006103515625</ele>
        <time>2013-09-01T15:47:13.000Z</time>
        <extensions>
          <ns3:TrackPointExtension>
            <ns3:atemp>17.0</ns3:atemp>
          </ns3:TrackPointExtension>
        </extensions>
      </trkpt>
      <trkpt lat="46.7224316485226154327392578125" lon="6.85529239475727081298828125">
        <ele>371</ele>
        <time>2013-09-01T15:47:14.000Z</time>
        <extensions>
          <ns3:TrackPointExtension>
            <ns3:atemp>17.0</ns3:atemp>
          </ns3:TrackPointExtension>
        </extensions>
      </trkpt>
      <trkpt lat="46.722370795905590057373046875" lon="6.8552409298717975616455078125">
        <ele>371</ele>
        <time>2013-09-01T15:47:15.000Z</time>
        <extensions>
          <ns3:TrackPointExtension>
            <ns3:atemp>17.0</ns3:atemp>
          </ns3:TrackPointExtension>
        </extensions>
      </trkpt>
      <trkpt lat="46.72231002710759639739990234375" lon="6.85519189573824405670166015625">
        <ele>371</ele>
        <time>2013-09-01T15:47:16.000Z</time>
        <extensions>
          <ns3:TrackPointExtension>
            <ns3:atemp>17.0</ns3:atemp>
          </ns3:TrackPointExtension>
        </extensions>
      </trkpt>
      <trkpt lat="46.72225034795701503753662109375" lon="6.85514152050018310546875">
        <ele>371.600006103515625</ele>
        <time>2013-09-01T15:47:17.000Z</time>
        <extensions>
          <ns3:TrackPointExtension>
            <ns3:atemp>17.0</ns3:atemp>
          </ns3:TrackPointExtension>
        </extensions>
      </trkpt>
      <trkpt lat="46.7221902497112751007080078125" lon="6.85509215109050273895263671875">
        <ele>371.79998779296875</ele>
        <time>2013-09-01T15:47:18.000Z</time>
        <extensions>
          <ns3:TrackPointExtension>
            <ns3:atemp>17.0</ns3:atemp>
          </ns3:TrackPointExtension>
        </extensions>
      </trkpt>
      <trkpt lat="46.7221315763890743255615234375" lon="6.855044625699520111083984375">
        <ele>372</ele>
        <time>2013-09-01T15:47:19.000Z</time>
        <extensions>
          <ns3:TrackPointExtension>
            <ns3:atemp>17.0</ns3:atemp>
          </ns3:TrackPointExtension>
        </extensions>
      </trkpt>
      <trkpt lat="46.7220722325146198272705078125" lon="6.85499710030853748321533203125">
        <ele>371.79998779296875</ele>
        <time>2013-09-01T15:47:20.000Z</time>
        <extensions>
          <ns3:TrackPointExtension>
            <ns3:atemp>17.0</ns3:atemp>
          </ns3:TrackPointExtension>
        </extensions>
      </trkpt>
      <trkpt lat="46.722012721002101898193359375" lon="6.85494840145111083984375">
        <ele>371.600006103515625</ele>
        <time>2013-09-01T15:47:21.000Z</time>
        <extensions>
          <ns3:TrackPointExtension>
            <ns3:atemp>17.0</ns3:atemp>
          </ns3:TrackPointExtension>
        </extensions>
      </trkpt>
      <trkpt lat="46.721954047679901123046875" lon="6.8548982776701450347900390625">
        <ele>371.600006103515625</ele>
        <time>2013-09-01T15:47:22.000Z</time>
        <extensions>
          <ns3:TrackPointExtension>
            <ns3:atemp>17.0</ns3:atemp>
          </ns3:TrackPointExtension>
        </extensions>
      </trkpt>
      <trkpt lat="46.7218968831002712249755859375" lon="6.8548493273556232452392578125">
        <ele>371.20001220703125</ele>
        <time>2013-09-01T15:47:23.000Z</time>
        <extensions>
          <ns3:TrackPointExtension>
            <ns3:atemp>17.0</ns3:atemp>
          </ns3:TrackPointExtension>
        </extensions>
      </trkpt>
      <trkpt lat="46.721839718520641326904296875" lon="6.85479878447949886322021484375">
        <ele>371.20001220703125</ele>
        <time>2013-09-01T15:47:24.000Z</time>
        <extensions>
          <ns3:TrackPointExtension>
            <ns3:atemp>17.0</ns3:atemp>
          </ns3:TrackPointExtension>
        </extensions>
      </trkpt>
      <trkpt lat="46.72178439795970916748046875" lon="6.8547460623085498809814453125">
        <ele>371</ele>
        <time>2013-09-01T15:47:25.000Z</time>
        <extensions>
          <ns3:TrackPointExtension>
            <ns3:atemp>17.0</ns3:atemp>
          </ns3:TrackPointExtension>
        </extensions>
      </trkpt>
      <trkpt lat="46.7217279039323329925537109375" lon="6.85469350777566432952880859375">
        <ele>371.399993896484375</ele>
        <time>2013-09-01T15:47:26.000Z</time>
        <extensions>
          <ns3:TrackPointExtension>
            <ns3:atemp>17.0</ns3:atemp>
          </ns3:TrackPointExtension>
        </extensions>
      </trkpt>
      <trkpt lat="46.7216725833714008331298828125" lon="6.8546391092240810394287109375">
        <ele>371.600006103515625</ele>
        <time>2013-09-01T15:47:27.000Z</time>
        <extensions>
          <ns3:TrackPointExtension>
            <ns3:atemp>17.0</ns3:atemp>
          </ns3:TrackPointExtension>
        </extensions>
      </trkpt>
      <trkpt lat="46.7216179333627223968505859375" lon="6.854583956301212310791015625">
        <ele>371.600006103515625</ele>
        <time>2013-09-01T15:47:28.000Z</time>
        <extensions>
          <ns3:TrackPointExtension>
            <ns3:atemp>17.0</ns3:atemp>
          </ns3:TrackPointExtension>
        </extensions>
      </trkpt>
      <trkpt lat="46.7215592600405216217041015625" lon="6.8545381911098957061767578125">
        <ele>371.600006103515625</ele>
        <time>2013-09-01T15:47:29.000Z</time>
        <extensions>
          <ns3:TrackPointExtension>
            <ns3:atemp>17.0</ns3:atemp>
          </ns3:TrackPointExtension>
        </extensions>
      </trkpt>
      <trkpt lat="46.721499077975749969482421875" lon="6.85449200682342052459716796875">
        <ele>371.600006103515625</ele>
        <time>2013-09-01T15:47:30.000Z</time>
        <extensions>
          <ns3:TrackPointExtension>
            <ns3:atemp>17.0</ns3:atemp>
          </ns3:TrackPointExtension>
        </extensions>
      </trkpt>
      <trkpt lat="46.72143965028226375579833984375" lon="6.8544433079659938812255859375">
        <ele>372.20001220703125</ele>
        <time>2013-09-01T15:47:31.000Z</time>
        <extensions>
          <ns3:TrackPointExtension>
            <ns3:atemp>17.0</ns3:atemp>
          </ns3:TrackPointExtension>
        </extensions>
      </trkpt>
      <trkpt lat="46.72137997113168239593505859375" lon="6.85439477674663066864013671875">
        <ele>372.20001220703125</ele>
        <time>2013-09-01T15:47:32.000Z</time>
        <extensions>
          <ns3:TrackPointExtension>
            <ns3:atemp>17.0</ns3:atemp>
          </ns3:TrackPointExtension>
        </extensions>
      </trkpt>
      <trkpt lat="46.72131895087659358978271484375" lon="6.8543440662324428558349609375">
        <ele>372.20001220703125</ele>
        <time>2013-09-01T15:47:33.000Z</time>
        <extensions>
          <ns3:TrackPointExtension>
            <ns3:atemp>17.0</ns3:atemp>
          </ns3:TrackPointExtension>
        </extensions>
      </trkpt>
      <trkpt lat="46.72125793062150478363037109375" lon="6.8542900867760181427001953125">
        <ele>372</ele>
        <time>2013-09-01T15:47:34.000Z</time>
        <extensions>
          <ns3:TrackPointExtension>
            <ns3:atemp>17.0</ns3:atemp>
          </ns3:TrackPointExtension>
        </extensions>
      </trkpt>
      <trkpt lat="46.72119322232902050018310546875" lon="6.85423652641475200653076171875">
        <ele>372</ele>
        <time>2013-09-01T15:47:35.000Z</time>
        <extensions>
          <ns3:TrackPointExtension>
            <ns3:atemp>17.0</ns3:atemp>
          </ns3:TrackPointExtension>
        </extensions>
      </trkpt>
      <trkpt lat="46.72113069333136081695556640625" lon="6.85418137349188327789306640625">
        <ele>372</ele>
        <time>2013-09-01T15:47:36.000Z</time>
        <extensions>
          <ns3:TrackPointExtension>
            <ns3:atemp>17.0</ns3:atemp>
          </ns3:TrackPointExtension>
        </extensions>
      </trkpt>
      <trkpt lat="46.721068918704986572265625" lon="6.854125969111919403076171875">
        <ele>371.79998779296875</ele>
        <time>2013-09-01T15:47:37.000Z</time>
        <extensions>
          <ns3:TrackPointExtension>
            <ns3:atemp>17.0</ns3:atemp>
          </ns3:TrackPointExtension>
        </extensions>
      </trkpt>
      <trkpt lat="46.7210058867931365966796875" lon="6.85406955890357494354248046875">
        <ele>371.79998779296875</ele>
        <time>2013-09-01T15:47:38.000Z</time>
        <extensions>
          <ns3:TrackPointExtension>
            <ns3:atemp>17.0</ns3:atemp>
          </ns3:TrackPointExtension>
        </extensions>
      </trkpt>
      <trkpt lat="46.72094210051000118255615234375" lon="6.85401021502912044525146484375">
        <ele>372</ele>
        <time>2013-09-01T15:47:39.000Z</time>
        <extensions>
          <ns3:TrackPointExtension>
            <ns3:atemp>17.0</ns3:atemp>
          </ns3:TrackPointExtension>
        </extensions>
      </trkpt>
      <trkpt lat="46.72087755985558032989501953125" lon="6.85394994914531707763671875">
        <ele>372.20001220703125</ele>
        <time>2013-09-01T15:47:40.000Z</time>
        <extensions>
          <ns3:TrackPointExtension>
            <ns3:atemp>17.0</ns3:atemp>
          </ns3:TrackPointExtension>
        </extensions>
      </trkpt>
      <trkpt lat="46.72081285156309604644775390625" lon="6.853888928890228271484375">
        <ele>372.600006103515625</ele>
        <time>2013-09-01T15:47:41.000Z</time>
        <extensions>
          <ns3:TrackPointExtension>
            <ns3:atemp>17.0</ns3:atemp>
          </ns3:TrackPointExtension>
        </extensions>
      </trkpt>
      <trkpt lat="46.72074772417545318603515625" lon="6.8538324348628520965576171875">
        <ele>372.600006103515625</ele>
        <time>2013-09-01T15:47:42.000Z</time>
        <extensions>
          <ns3:TrackPointExtension>
            <ns3:atemp>17.0</ns3:atemp>
          </ns3:TrackPointExtension>
        </extensions>
      </trkpt>
      <trkpt lat="46.72068242914974689483642578125" lon="6.853778623044490814208984375">
        <ele>372.600006103515625</ele>
        <time>2013-09-01T15:47:43.000Z</time>
        <extensions>
          <ns3:TrackPointExtension>
            <ns3:atemp>17.0</ns3:atemp>
          </ns3:TrackPointExtension>
        </extensions>
      </trkpt>
      <trkpt lat="46.72061855904757976531982421875" lon="6.8537234701216220855712890625">
        <ele>372.600006103515625</ele>
        <time>2013-09-01T15:47:44.000Z</time>
        <extensions>
          <ns3:TrackPointExtension>
            <ns3:atemp>17.0</ns3:atemp>
          </ns3:TrackPointExtension>
        </extensions>
      </trkpt>
      <trkpt lat="46.72055351547896862030029296875" lon="6.853668987751007080078125">
        <ele>373</ele>
        <time>2013-09-01T15:47:45.000Z</time>
        <extensions>
          <ns3:TrackPointExtension>
            <ns3:atemp>17.0</ns3:atemp>
          </ns3:TrackPointExtension>
        </extensions>
      </trkpt>
      <trkpt lat="46.72048763372004032135009765625" lon="6.853615008294582366943359375">
        <ele>373.20001220703125</ele>
        <time>2013-09-01T15:47:46.000Z</time>
        <extensions>
          <ns3:TrackPointExtension>
            <ns3:atemp>17.0</ns3:atemp>
          </ns3:TrackPointExtension>
        </extensions>
      </trkpt>
      <trkpt lat="46.7204216681420803070068359375" lon="6.85356195084750652313232421875">
        <ele>373.20001220703125</ele>
        <time>2013-09-01T15:47:47.000Z</time>
        <extensions>
          <ns3:TrackPointExtension>
            <ns3:atemp>17.0</ns3:atemp>
          </ns3:TrackPointExtension>
        </extensions>
      </trkpt>
      <trkpt lat="46.7203566245734691619873046875" lon="6.85350629501044750213623046875">
        <ele>373</ele>
        <time>2013-09-01T15:47:48.000Z</time>
        <extensions>
          <ns3:TrackPointExtension>
            <ns3:atemp>17.0</ns3:atemp>
          </ns3:TrackPointExtension>
        </extensions>
      </trkpt>
      <trkpt lat="46.72029049135744571685791015625" lon="6.8534522317349910736083984375">
        <ele>372.79998779296875</ele>
        <time>2013-09-01T15:47:49.000Z</time>
        <extensions>
          <ns3:TrackPointExtension>
            <ns3:atemp>17.0</ns3:atemp>
          </ns3:TrackPointExtension>
        </extensions>
      </trkpt>
      <trkpt lat="46.72022645361721515655517578125" lon="6.85339682735502719879150390625">
        <ele>372.79998779296875</ele>
        <time>2013-09-01T15:47:50.000Z</time>
        <extensions>
          <ns3:TrackPointExtension>
            <ns3:atemp>17.0</ns3:atemp>
          </ns3:TrackPointExtension>
        </extensions>
      </trkpt>
      <trkpt lat="46.72016258351504802703857421875" lon="6.8533429317176342010498046875">
        <ele>372.79998779296875</ele>
        <time>2013-09-01T15:47:51.000Z</time>
        <extensions>
          <ns3:TrackPointExtension>
            <ns3:atemp>17.0</ns3:atemp>
          </ns3:TrackPointExtension>
        </extensions>
      </trkpt>
      <trkpt lat="46.7200981266796588897705078125" lon="6.85328903608024120330810546875">
        <ele>373.20001220703125</ele>
        <time>2013-09-01T15:47:52.000Z</time>
        <extensions>
          <ns3:TrackPointExtension>
            <ns3:atemp>17.0</ns3:atemp>
          </ns3:TrackPointExtension>
        </extensions>
      </trkpt>
      <trkpt lat="46.72003350220620632171630859375" lon="6.8532363139092922210693359375">
        <ele>373.20001220703125</ele>
        <time>2013-09-01T15:47:53.000Z</time>
        <extensions>
          <ns3:TrackPointExtension>
            <ns3:atemp>17.0</ns3:atemp>
          </ns3:TrackPointExtension>
        </extensions>
      </trkpt>
      <trkpt lat="46.71997030265629291534423828125" lon="6.853180490434169769287109375">
        <ele>373.20001220703125</ele>
        <time>2013-09-01T15:47:54.000Z</time>
        <extensions>
          <ns3:TrackPointExtension>
            <ns3:atemp>17.0</ns3:atemp>
          </ns3:TrackPointExtension>
        </extensions>
      </trkpt>
      <trkpt lat="46.71990810893476009368896484375" lon="6.853122822940349578857421875">
        <ele>373</ele>
        <time>2013-09-01T15:47:55.000Z</time>
        <extensions>
          <ns3:TrackPointExtension>
            <ns3:atemp>17.0</ns3:atemp>
          </ns3:TrackPointExtension>
        </extensions>
      </trkpt>
      <trkpt lat="46.71984541229903697967529296875" lon="6.8530690111219882965087890625">
        <ele>372.79998779296875</ele>
        <time>2013-09-01T15:47:56.000Z</time>
        <extensions>
          <ns3:TrackPointExtension>
            <ns3:atemp>17.0</ns3:atemp>
          </ns3:TrackPointExtension>
        </extensions>
      </trkpt>
      <trkpt lat="46.7197802849113941192626953125" lon="6.85301645658910274505615234375">
        <ele>372.79998779296875</ele>
        <time>2013-09-01T15:47:57.000Z</time>
        <extensions>
          <ns3:TrackPointExtension>
            <ns3:atemp>17.0</ns3:atemp>
          </ns3:TrackPointExtension>
        </extensions>
      </trkpt>
      <trkpt lat="46.719714738428592681884765625" lon="6.852963902056217193603515625">
        <ele>372.79998779296875</ele>
        <time>2013-09-01T15:47:58.000Z</time>
        <extensions>
          <ns3:TrackPointExtension>
            <ns3:atemp>17.0</ns3:atemp>
          </ns3:TrackPointExtension>
        </extensions>
      </trkpt>
      <trkpt lat="46.7196495272219181060791015625" lon="6.85291235335171222686767578125">
        <ele>372.79998779296875</ele>
        <time>2013-09-01T15:47:59.000Z</time>
        <extensions>
          <ns3:TrackPointExtension>
            <ns3:atemp>17.0</ns3:atemp>
          </ns3:TrackPointExtension>
        </extensions>
      </trkpt>
      <trkpt lat="46.71958406455814838409423828125" lon="6.85286273248493671417236328125">
        <ele>372.600006103515625</ele>
        <time>2013-09-01T15:48:00.000Z</time>
        <extensions>
          <ns3:TrackPointExtension>
            <ns3:atemp>17.0</ns3:atemp>
          </ns3:TrackPointExtension>
        </extensions>
      </trkpt>
      <trkpt lat="46.71951885335147380828857421875" lon="6.8528111837804317474365234375">
        <ele>372.600006103515625</ele>
        <time>2013-09-01T15:48:01.000Z</time>
        <extensions>
          <ns3:TrackPointExtension>
            <ns3:atemp>17.0</ns3:atemp>
          </ns3:TrackPointExtension>
        </extensions>
      </trkpt>
      <trkpt lat="46.719453223049640655517578125" lon="6.85275846160948276519775390625">
        <ele>372.79998779296875</ele>
        <time>2013-09-01T15:48:02.000Z</time>
        <extensions>
          <ns3:TrackPointExtension>
            <ns3:atemp>17.0</ns3:atemp>
          </ns3:TrackPointExtension>
        </extensions>
      </trkpt>
      <trkpt lat="46.719387508928775787353515625" lon="6.85270548798143863677978515625">
        <ele>373</ele>
        <time>2013-09-01T15:48:03.000Z</time>
        <extensions>
          <ns3:TrackPointExtension>
            <ns3:atemp>17.0</ns3:atemp>
          </ns3:TrackPointExtension>
        </extensions>
      </trkpt>
      <trkpt lat="46.7193192802369594573974609375" lon="6.85265637002885341644287109375">
        <ele>373</ele>
        <time>2013-09-01T15:48:04.000Z</time>
        <extensions>
          <ns3:TrackPointExtension>
            <ns3:atemp>17.0</ns3:atemp>
          </ns3:TrackPointExtension>
        </extensions>
      </trkpt>
      <trkpt lat="46.71925214119255542755126953125" lon="6.85260557569563388824462890625">
        <ele>373</ele>
        <time>2013-09-01T15:48:05.000Z</time>
        <extensions>
          <ns3:TrackPointExtension>
            <ns3:atemp>17.0</ns3:atemp>
          </ns3:TrackPointExtension>
        </extensions>
      </trkpt>
      <trkpt lat="46.71918508596718311309814453125" lon="6.85255142860114574432373046875">
        <ele>373</ele>
        <time>2013-09-01T15:48:06.000Z</time>
        <extensions>
          <ns3:TrackPointExtension>
            <ns3:atemp>17.0</ns3:atemp>
          </ns3:TrackPointExtension>
        </extensions>
      </trkpt>
      <trkpt lat="46.7191157676279544830322265625" lon="6.85249929316341876983642578125">
        <ele>373</ele>
        <time>2013-09-01T15:48:07.000Z</time>
        <extensions>
          <ns3:TrackPointExtension>
            <ns3:atemp>17.0</ns3:atemp>
          </ns3:TrackPointExtension>
        </extensions>
      </trkpt>
      <trkpt lat="46.71904577873647212982177734375" lon="6.85244858264923095703125">
        <ele>373.20001220703125</ele>
        <time>2013-09-01T15:48:08.000Z</time>
        <extensions>
          <ns3:TrackPointExtension>
            <ns3:atemp>17.0</ns3:atemp>
          </ns3:TrackPointExtension>
        </extensions>
      </trkpt>
      <trkpt lat="46.71897587366402149200439453125" lon="6.8524008058011531829833984375">
        <ele>373.20001220703125</ele>
        <time>2013-09-01T15:48:09.000Z</time>
        <extensions>
          <ns3:TrackPointExtension>
            <ns3:atemp>17.0</ns3:atemp>
          </ns3:TrackPointExtension>
        </extensions>
      </trkpt>
      <trkpt lat="46.71890580095350742340087890625" lon="6.85235135257244110107421875">
        <ele>373.20001220703125</ele>
        <time>2013-09-01T15:48:10.000Z</time>
        <extensions>
          <ns3:TrackPointExtension>
            <ns3:atemp>17.0</ns3:atemp>
          </ns3:TrackPointExtension>
        </extensions>
      </trkpt>
      <trkpt lat="46.71883706934750080108642578125" lon="6.8523035757243633270263671875">
        <ele>373.399993896484375</ele>
        <time>2013-09-01T15:48:11.000Z</time>
        <extensions>
          <ns3:TrackPointExtension>
            <ns3:atemp>17.0</ns3:atemp>
          </ns3:TrackPointExtension>
        </extensions>
      </trkpt>
      <trkpt lat="46.71876825392246246337890625" lon="6.85225437395274639129638671875">
        <ele>373.399993896484375</ele>
        <time>2013-09-01T15:48:12.000Z</time>
        <extensions>
          <ns3:TrackPointExtension>
            <ns3:atemp>17.0</ns3:atemp>
          </ns3:TrackPointExtension>
        </extensions>
      </trkpt>
      <trkpt lat="46.71869910322129726409912109375" lon="6.85220508836209774017333984375">
        <ele>373.20001220703125</ele>
        <time>2013-09-01T15:48:13.000Z</time>
        <extensions>
          <ns3:TrackPointExtension>
            <ns3:atemp>17.0</ns3:atemp>
          </ns3:TrackPointExtension>
        </extensions>
      </trkpt>
      <trkpt lat="46.7186299525201320648193359375" lon="6.85215529985725879669189453125">
        <ele>373.20001220703125</ele>
        <time>2013-09-01T15:48:14.000Z</time>
        <extensions>
          <ns3:TrackPointExtension>
            <ns3:atemp>17.0</ns3:atemp>
          </ns3:TrackPointExtension>
        </extensions>
      </trkpt>
      <trkpt lat="46.71856147237122058868408203125" lon="6.85210584662854671478271484375">
        <ele>373.20001220703125</ele>
        <time>2013-09-01T15:48:15.000Z</time>
        <extensions>
          <ns3:TrackPointExtension>
            <ns3:atemp>17.0</ns3:atemp>
          </ns3:TrackPointExtension>
        </extensions>
      </trkpt>
      <trkpt lat="46.71849408186972141265869140625" lon="6.85205589048564434051513671875">
        <ele>373.399993896484375</ele>
        <time>2013-09-01T15:48:16.000Z</time>
        <extensions>
          <ns3:TrackPointExtension>
            <ns3:atemp>17.0</ns3:atemp>
          </ns3:TrackPointExtension>
        </extensions>
      </trkpt>
      <trkpt lat="46.71842702664434909820556640625" lon="6.852011047303676605224609375">
        <ele>373.399993896484375</ele>
        <time>2013-09-01T15:48:17.000Z</time>
        <extensions>
          <ns3:TrackPointExtension>
            <ns3:atemp>17.0</ns3:atemp>
          </ns3:TrackPointExtension>
        </extensions>
      </trkpt>
      <trkpt lat="46.7183587141335010528564453125" lon="6.85196570120751857757568359375">
        <ele>373.20001220703125</ele>
        <time>2013-09-01T15:48:18.000Z</time>
        <extensions>
          <ns3:TrackPointExtension>
            <ns3:atemp>17.0</ns3:atemp>
          </ns3:TrackPointExtension>
        </extensions>
      </trkpt>
      <trkpt lat="46.71829123981297016143798828125" lon="6.85191859491169452667236328125">
        <ele>373.20001220703125</ele>
        <time>2013-09-01T15:48:19.000Z</time>
        <extensions>
          <ns3:TrackPointExtension>
            <ns3:atemp>17.0</ns3:atemp>
          </ns3:TrackPointExtension>
        </extensions>
      </trkpt>
      <trkpt lat="46.71822368167340755462646484375" lon="6.85186997987329959869384765625">
        <ele>373</ele>
        <time>2013-09-01T15:48:20.000Z</time>
        <extensions>
          <ns3:TrackPointExtension>
            <ns3:atemp>17.0</ns3:atemp>
          </ns3:TrackPointExtension>
        </extensions>
      </trkpt>
      <trkpt lat="46.71815847046673297882080078125" lon="6.85182019136846065521240234375">
        <ele>373</ele>
        <time>2013-09-01T15:48:21.000Z</time>
        <extensions>
          <ns3:TrackPointExtension>
            <ns3:atemp>17.0</ns3:atemp>
          </ns3:TrackPointExtension>
        </extensions>
      </trkpt>
      <trkpt lat="46.71809325926005840301513671875" lon="6.85177174396812915802001953125">
        <ele>373.399993896484375</ele>
        <time>2013-09-01T15:48:22.000Z</time>
        <extensions>
          <ns3:TrackPointExtension>
            <ns3:atemp>17.0</ns3:atemp>
          </ns3:TrackPointExtension>
        </extensions>
      </trkpt>
      <trkpt lat="46.7180271260440349578857421875" lon="6.8517245538532733917236328125">
        <ele>373.399993896484375</ele>
        <time>2013-09-01T15:48:23.000Z</time>
        <extensions>
          <ns3:TrackPointExtension>
            <ns3:atemp>17.0</ns3:atemp>
          </ns3:TrackPointExtension>
        </extensions>
      </trkpt>
      <trkpt lat="46.71796048991382122039794921875" lon="6.85167987830936908721923828125">
        <ele>373.600006103515625</ele>
        <time>2013-09-01T15:48:24.000Z</time>
        <extensions>
          <ns3:TrackPointExtension>
            <ns3:atemp>17.0</ns3:atemp>
          </ns3:TrackPointExtension>
        </extensions>
      </trkpt>
      <trkpt lat="46.71789251267910003662109375" lon="6.8516372144222259521484375">
        <ele>373.79998779296875</ele>
        <time>2013-09-01T15:48:25.000Z</time>
        <extensions>
          <ns3:TrackPointExtension>
            <ns3:atemp>17.0</ns3:atemp>
          </ns3:TrackPointExtension>
        </extensions>
      </trkpt>
      <trkpt lat="46.7178232781589031219482421875" lon="6.85159605927765369415283203125">
        <ele>374</ele>
        <time>2013-09-01T15:48:26.000Z</time>
        <extensions>
          <ns3:TrackPointExtension>
            <ns3:atemp>17.0</ns3:atemp>
          </ns3:TrackPointExtension>
        </extensions>
      </trkpt>
      <trkpt lat="46.7177548818290233612060546875" lon="6.851549707353115081787109375">
        <ele>374.20001220703125</ele>
        <time>2013-09-01T15:48:27.000Z</time>
        <extensions>
          <ns3:TrackPointExtension>
            <ns3:atemp>17.0</ns3:atemp>
          </ns3:TrackPointExtension>
        </extensions>
      </trkpt>
      <trkpt lat="46.71768573112785816192626953125" lon="6.85150620527565479278564453125">
        <ele>374.399993896484375</ele>
        <time>2013-09-01T15:48:28.000Z</time>
        <extensions>
          <ns3:TrackPointExtension>
            <ns3:atemp>17.0</ns3:atemp>
          </ns3:TrackPointExtension>
        </extensions>
      </trkpt>
      <trkpt lat="46.7176187597215175628662109375" lon="6.8514583446085453033447265625">
        <ele>374.399993896484375</ele>
        <time>2013-09-01T15:48:29.000Z</time>
        <extensions>
          <ns3:TrackPointExtension>
            <ns3:atemp>17.0</ns3:atemp>
          </ns3:TrackPointExtension>
        </extensions>
      </trkpt>
      <trkpt lat="46.71755254268646240234375" lon="6.85140914283692836761474609375">
        <ele>374.600006103515625</ele>
        <time>2013-09-01T15:48:30.000Z</time>
        <extensions>
          <ns3:TrackPointExtension>
            <ns3:atemp>17.0</ns3:atemp>
          </ns3:TrackPointExtension>
        </extensions>
      </trkpt>
      <trkpt lat="46.71748724766075611114501953125" lon="6.85136069543659687042236328125">
        <ele>374.79998779296875</ele>
        <time>2013-09-01T15:48:31.000Z</time>
        <extensions>
          <ns3:TrackPointExtension>
            <ns3:atemp>17.0</ns3:atemp>
          </ns3:TrackPointExtension>
        </extensions>
      </trkpt>
      <trkpt lat="46.7174212820827960968017578125" lon="6.85131291858851909637451171875">
        <ele>374.79998779296875</ele>
        <time>2013-09-01T15:48:32.000Z</time>
        <extensions>
          <ns3:TrackPointExtension>
            <ns3:atemp>17.0</ns3:atemp>
          </ns3:TrackPointExtension>
        </extensions>
      </trkpt>
      <trkpt lat="46.71735514886677265167236328125" lon="6.85126346535980701446533203125">
        <ele>374.600006103515625</ele>
        <time>2013-09-01T15:48:33.000Z</time>
        <extensions>
          <ns3:TrackPointExtension>
            <ns3:atemp>17.0</ns3:atemp>
          </ns3:TrackPointExtension>
        </extensions>
      </trkpt>
      <trkpt lat="46.717289350926876068115234375" lon="6.85121350921690464019775390625">
        <ele>374.600006103515625</ele>
        <time>2013-09-01T15:48:34.000Z</time>
        <extensions>
          <ns3:TrackPointExtension>
            <ns3:atemp>17.0</ns3:atemp>
          </ns3:TrackPointExtension>
        </extensions>
      </trkpt>
      <trkpt lat="46.71722305007278919219970703125" lon="6.85116606764495372772216796875">
        <ele>374.600006103515625</ele>
        <time>2013-09-01T15:48:35.000Z</time>
        <extensions>
          <ns3:TrackPointExtension>
            <ns3:atemp>17.0</ns3:atemp>
          </ns3:TrackPointExtension>
        </extensions>
      </trkpt>
      <trkpt lat="46.71715549193322658538818359375" lon="6.85112290084362030029296875">
        <ele>374.79998779296875</ele>
        <time>2013-09-01T15:48:36.000Z</time>
        <extensions>
          <ns3:TrackPointExtension>
            <ns3:atemp>17.0</ns3:atemp>
          </ns3:TrackPointExtension>
        </extensions>
      </trkpt>
      <trkpt lat="46.71708784997463226318359375" lon="6.85108191333711147308349609375">
        <ele>374.79998779296875</ele>
        <time>2013-09-01T15:48:37.000Z</time>
        <extensions>
          <ns3:TrackPointExtension>
            <ns3:atemp>17.0</ns3:atemp>
          </ns3:TrackPointExtension>
        </extensions>
      </trkpt>
      <trkpt lat="46.71702071093022823333740234375" lon="6.851038746535778045654296875">
        <ele>374.600006103515625</ele>
        <time>2013-09-01T15:48:38.000Z</time>
        <extensions>
          <ns3:TrackPointExtension>
            <ns3:atemp>17.0</ns3:atemp>
          </ns3:TrackPointExtension>
        </extensions>
      </trkpt>
      <trkpt lat="46.71695332042872905731201171875" lon="6.85099457390606403350830078125">
        <ele>374.600006103515625</ele>
        <time>2013-09-01T15:48:39.000Z</time>
        <extensions>
          <ns3:TrackPointExtension>
            <ns3:atemp>17.0</ns3:atemp>
          </ns3:TrackPointExtension>
        </extensions>
      </trkpt>
      <trkpt lat="46.7168871872127056121826171875" lon="6.85094662941992282867431640625">
        <ele>374.399993896484375</ele>
        <time>2013-09-01T15:48:40.000Z</time>
        <extensions>
          <ns3:TrackPointExtension>
            <ns3:atemp>17.0</ns3:atemp>
          </ns3:TrackPointExtension>
        </extensions>
      </trkpt>
      <trkpt lat="46.716821976006031036376953125" lon="6.85089801438152790069580078125">
        <ele>374.399993896484375</ele>
        <time>2013-09-01T15:48:41.000Z</time>
        <extensions>
          <ns3:TrackPointExtension>
            <ns3:atemp>17.0</ns3:atemp>
          </ns3:TrackPointExtension>
        </extensions>
      </trkpt>
      <trkpt lat="46.71675668098032474517822265625" lon="6.850849650800228118896484375">
        <ele>374.20001220703125</ele>
        <time>2013-09-01T15:48:42.000Z</time>
        <extensions>
          <ns3:TrackPointExtension>
            <ns3:atemp>17.0</ns3:atemp>
          </ns3:TrackPointExtension>
        </extensions>
      </trkpt>
      <trkpt lat="46.71669088304042816162109375" lon="6.8508018739521503448486328125">
        <ele>374.20001220703125</ele>
        <time>2013-09-01T15:48:43.000Z</time>
        <extensions>
          <ns3:TrackPointExtension>
            <ns3:atemp>17.0</ns3:atemp>
          </ns3:TrackPointExtension>
        </extensions>
      </trkpt>
      <trkpt lat="46.71662525273859500885009765625" lon="6.85075267218053340911865234375">
        <ele>374.399993896484375</ele>
        <time>2013-09-01T15:48:44.000Z</time>
        <extensions>
          <ns3:TrackPointExtension>
            <ns3:atemp>17.0</ns3:atemp>
          </ns3:TrackPointExtension>
        </extensions>
      </trkpt>
      <trkpt lat="46.7165587842464447021484375" lon="6.85070472769439220428466796875">
        <ele>374.399993896484375</ele>
        <time>2013-09-01T15:48:45.000Z</time>
        <extensions>
          <ns3:TrackPointExtension>
            <ns3:atemp>17.0</ns3:atemp>
          </ns3:TrackPointExtension>
        </extensions>
      </trkpt>
      <trkpt lat="46.71649147756397724151611328125" lon="6.85065762139856815338134765625">
        <ele>374.20001220703125</ele>
        <time>2013-09-01T15:48:46.000Z</time>
        <extensions>
          <ns3:TrackPointExtension>
            <ns3:atemp>17.0</ns3:atemp>
          </ns3:TrackPointExtension>
        </extensions>
      </trkpt>
      <trkpt lat="46.716422997415065765380859375" lon="6.85061135329306125640869140625">
        <ele>374.20001220703125</ele>
        <time>2013-09-01T15:48:47.000Z</time>
        <extensions>
          <ns3:TrackPointExtension>
            <ns3:atemp>17.0</ns3:atemp>
          </ns3:TrackPointExtension>
        </extensions>
      </trkpt>
      <trkpt lat="46.71635367907583713531494140625" lon="6.85056542046368122100830078125">
        <ele>374.399993896484375</ele>
        <time>2013-09-01T15:48:48.000Z</time>
        <extensions>
          <ns3:TrackPointExtension>
            <ns3:atemp>17.0</ns3:atemp>
          </ns3:TrackPointExtension>
        </extensions>
      </trkpt>
      <trkpt lat="46.71628410927951335906982421875" lon="6.85051529668271541595458984375">
        <ele>374.600006103515625</ele>
        <time>2013-09-01T15:48:49.000Z</time>
        <extensions>
          <ns3:TrackPointExtension>
            <ns3:atemp>17.0</ns3:atemp>
          </ns3:TrackPointExtension>
        </extensions>
      </trkpt>
      <trkpt lat="46.716214120388031005859375" lon="6.85046819038689136505126953125">
        <ele>374.600006103515625</ele>
        <time>2013-09-01T15:48:50.000Z</time>
        <extensions>
          <ns3:TrackPointExtension>
            <ns3:atemp>17.0</ns3:atemp>
          </ns3:TrackPointExtension>
        </extensions>
      </trkpt>
      <trkpt lat="46.71614446677267551422119140625" lon="6.850421167910099029541015625">
        <ele>374.79998779296875</ele>
        <time>2013-09-01T15:48:51.000Z</time>
        <extensions>
          <ns3:TrackPointExtension>
            <ns3:atemp>17.0</ns3:atemp>
          </ns3:TrackPointExtension>
        </extensions>
      </trkpt>
      <trkpt lat="46.71607539989054203033447265625" lon="6.8503750674426555633544921875">
        <ele>375</ele>
        <time>2013-09-01T15:48:52.000Z</time>
        <extensions>
          <ns3:TrackPointExtension>
            <ns3:atemp>17.0</ns3:atemp>
          </ns3:TrackPointExtension>
        </extensions>
      </trkpt>
      <trkpt lat="46.71600650064647197723388671875" lon="6.8503257818520069122314453125">
        <ele>375</ele>
        <time>2013-09-01T15:48:53.000Z</time>
        <extensions>
          <ns3:TrackPointExtension>
            <ns3:atemp>17.0</ns3:atemp>
          </ns3:TrackPointExtension>
        </extensions>
      </trkpt>
      <trkpt lat="46.71593810431659221649169921875" lon="6.85027599334716796875">
        <ele>374.79998779296875</ele>
        <time>2013-09-01T15:48:54.000Z</time>
        <extensions>
          <ns3:TrackPointExtension>
            <ns3:atemp>17.0</ns3:atemp>
          </ns3:TrackPointExtension>
        </extensions>
      </trkpt>
      <trkpt lat="46.71587004326283931732177734375" lon="6.850225031375885009765625">
        <ele>374.79998779296875</ele>
        <time>2013-09-01T15:48:55.000Z</time>
        <extensions>
          <ns3:TrackPointExtension>
            <ns3:atemp>17.0</ns3:atemp>
          </ns3:TrackPointExtension>
        </extensions>
      </trkpt>
      <trkpt lat="46.71580214984714984893798828125" lon="6.85017717070877552032470703125">
        <ele>375</ele>
        <time>2013-09-01T15:48:56.000Z</time>
        <extensions>
          <ns3:TrackPointExtension>
            <ns3:atemp>17.0</ns3:atemp>
          </ns3:TrackPointExtension>
        </extensions>
      </trkpt>
      <trkpt lat="46.715732999145984649658203125" lon="6.8501296453177928924560546875">
        <ele>375.20001220703125</ele>
        <time>2013-09-01T15:48:57.000Z</time>
        <extensions>
          <ns3:TrackPointExtension>
            <ns3:atemp>17.0</ns3:atemp>
          </ns3:TrackPointExtension>
        </extensions>
      </trkpt>
      <trkpt lat="46.71566401608288288116455078125" lon="6.8500837124884128570556640625">
        <ele>375.20001220703125</ele>
        <time>2013-09-01T15:48:58.000Z</time>
        <extensions>
          <ns3:TrackPointExtension>
            <ns3:atemp>17.0</ns3:atemp>
          </ns3:TrackPointExtension>
        </extensions>
      </trkpt>
      <trkpt lat="46.7155945301055908203125" lon="6.85004121623933315277099609375">
        <ele>375.20001220703125</ele>
        <time>2013-09-01T15:48:59.000Z</time>
        <extensions>
          <ns3:TrackPointExtension>
            <ns3:atemp>17.0</ns3:atemp>
          </ns3:TrackPointExtension>
        </extensions>
      </trkpt>
      <trkpt lat="46.7155242897570133209228515625" lon="6.8499957025051116943359375">
        <ele>375.20001220703125</ele>
        <time>2013-09-01T15:49:00.000Z</time>
        <extensions>
          <ns3:TrackPointExtension>
            <ns3:atemp>17.0</ns3:atemp>
          </ns3:TrackPointExtension>
        </extensions>
      </trkpt>
      <trkpt lat="46.71545430086553096771240234375" lon="6.84994683600962162017822265625">
        <ele>375.20001220703125</ele>
        <time>2013-09-01T15:49:01.000Z</time>
        <extensions>
          <ns3:TrackPointExtension>
            <ns3:atemp>17.0</ns3:atemp>
          </ns3:TrackPointExtension>
        </extensions>
      </trkpt>
      <trkpt lat="46.71538640744984149932861328125" lon="6.8498966284096240997314453125">
        <ele>375.20001220703125</ele>
        <time>2013-09-01T15:49:02.000Z</time>
        <extensions>
          <ns3:TrackPointExtension>
            <ns3:atemp>17.0</ns3:atemp>
          </ns3:TrackPointExtension>
        </extensions>
      </trkpt>
      <trkpt lat="46.715318597853183746337890625" lon="6.84984625317156314849853515625">
        <ele>375.20001220703125</ele>
        <time>2013-09-01T15:49:03.000Z</time>
        <extensions>
          <ns3:TrackPointExtension>
            <ns3:atemp>17.0</ns3:atemp>
          </ns3:TrackPointExtension>
        </extensions>
      </trkpt>
      <trkpt lat="46.71525229699909687042236328125" lon="6.84979679994285106658935546875">
        <ele>375.399993896484375</ele>
        <time>2013-09-01T15:49:04.000Z</time>
        <extensions>
          <ns3:TrackPointExtension>
            <ns3:atemp>17.0</ns3:atemp>
          </ns3:TrackPointExtension>
        </extensions>
      </trkpt>
      <trkpt lat="46.71518540941178798675537109375" lon="6.84974852018058300018310546875">
        <ele>375.600006103515625</ele>
        <time>2013-09-01T15:49:05.000Z</time>
        <extensions>
          <ns3:TrackPointExtension>
            <ns3:atemp>17.0</ns3:atemp>
          </ns3:TrackPointExtension>
        </extensions>
      </trkpt>
      <trkpt lat="46.71511952765285968780517578125" lon="6.84969998896121978759765625">
        <ele>375.79998779296875</ele>
        <time>2013-09-01T15:49:06.000Z</time>
        <extensions>
          <ns3:TrackPointExtension>
            <ns3:atemp>17.0</ns3:atemp>
          </ns3:TrackPointExtension>
        </extensions>
      </trkpt>
      <trkpt lat="46.715055070817470550537109375" lon="6.84964927844703197479248046875">
        <ele>375.79998779296875</ele>
        <time>2013-09-01T15:49:07.000Z</time>
        <extensions>
          <ns3:TrackPointExtension>
            <ns3:atemp>17.0</ns3:atemp>
          </ns3:TrackPointExtension>
        </extensions>
      </trkpt>
      <trkpt lat="46.71498960815370082855224609375" lon="6.84959848411381244659423828125">
        <ele>375.79998779296875</ele>
        <time>2013-09-01T15:49:08.000Z</time>
        <extensions>
          <ns3:TrackPointExtension>
            <ns3:atemp>17.0</ns3:atemp>
          </ns3:TrackPointExtension>
        </extensions>
      </trkpt>
      <trkpt lat="46.71492339111864566802978515625" lon="6.84954986907541751861572265625">
        <ele>375.79998779296875</ele>
        <time>2013-09-01T15:49:09.000Z</time>
        <extensions>
          <ns3:TrackPointExtension>
            <ns3:atemp>17.0</ns3:atemp>
          </ns3:TrackPointExtension>
        </extensions>
      </trkpt>
      <trkpt lat="46.714855916798114776611328125" lon="6.849504522979259490966796875">
        <ele>375.399993896484375</ele>
        <time>2013-09-01T15:49:10.000Z</time>
        <extensions>
          <ns3:TrackPointExtension>
            <ns3:atemp>18.0</ns3:atemp>
          </ns3:TrackPointExtension>
        </extensions>
      </trkpt>
      <trkpt lat="46.71478810720145702362060546875" lon="6.84945724904537200927734375">
        <ele>375.79998779296875</ele>
        <time>2013-09-01T15:49:11.000Z</time>
        <extensions>
          <ns3:TrackPointExtension>
            <ns3:atemp>18.0</ns3:atemp>
          </ns3:TrackPointExtension>
        </extensions>
      </trkpt>
      <trkpt lat="46.714721135795116424560546875" lon="6.84941190294921398162841796875">
        <ele>375.79998779296875</ele>
        <time>2013-09-01T15:49:12.000Z</time>
        <extensions>
          <ns3:TrackPointExtension>
            <ns3:atemp>18.0</ns3:atemp>
          </ns3:TrackPointExtension>
        </extensions>
      </trkpt>
      <trkpt lat="46.7146542482078075408935546875" lon="6.84936546720564365386962890625">
        <ele>375.79998779296875</ele>
        <time>2013-09-01T15:49:13.000Z</time>
        <extensions>
          <ns3:TrackPointExtension>
            <ns3:atemp>18.0</ns3:atemp>
          </ns3:TrackPointExtension>
        </extensions>
      </trkpt>
      <trkpt lat="46.71458895318210124969482421875" lon="6.84931802563369274139404296875">
        <ele>375.600006103515625</ele>
        <time>2013-09-01T15:49:14.000Z</time>
        <extensions>
          <ns3:TrackPointExtension>
            <ns3:atemp>18.0</ns3:atemp>
          </ns3:TrackPointExtension>
        </extensions>
      </trkpt>
      <trkpt lat="46.7145218141376972198486328125" lon="6.84927259571850299835205078125">
        <ele>375.399993896484375</ele>
        <time>2013-09-01T15:49:15.000Z</time>
        <extensions>
          <ns3:TrackPointExtension>
            <ns3:atemp>18.0</ns3:atemp>
          </ns3:TrackPointExtension>
        </extensions>
      </trkpt>
      <trkpt lat="46.71445660293102264404296875" lon="6.84922817163169384002685546875">
        <ele>375.399993896484375</ele>
        <time>2013-09-01T15:49:16.000Z</time>
        <extensions>
          <ns3:TrackPointExtension>
            <ns3:atemp>18.0</ns3:atemp>
          </ns3:TrackPointExtension>
        </extensions>
      </trkpt>
      <trkpt lat="46.7143915593624114990234375" lon="6.849180646240711212158203125">
        <ele>375.399993896484375</ele>
        <time>2013-09-01T15:49:17.000Z</time>
        <extensions>
          <ns3:TrackPointExtension>
            <ns3:atemp>18.0</ns3:atemp>
          </ns3:TrackPointExtension>
        </extensions>
      </trkpt>
      <trkpt lat="46.7143263481557369232177734375" lon="6.8491311930119991302490234375">
        <ele>375.600006103515625</ele>
        <time>2013-09-01T15:49:18.000Z</time>
        <extensions>
          <ns3:TrackPointExtension>
            <ns3:atemp>18.0</ns3:atemp>
          </ns3:TrackPointExtension>
        </extensions>
      </trkpt>
      <trkpt lat="46.71426004730165004730224609375" lon="6.84908383525907993316650390625">
        <ele>375.600006103515625</ele>
        <time>2013-09-01T15:49:19.000Z</time>
        <extensions>
          <ns3:TrackPointExtension>
            <ns3:atemp>18.0</ns3:atemp>
          </ns3:TrackPointExtension>
        </extensions>
      </trkpt>
      <trkpt lat="46.714192070066928863525390625" lon="6.84903874062001705169677734375">
        <ele>375.399993896484375</ele>
        <time>2013-09-01T15:49:20.000Z</time>
        <extensions>
          <ns3:TrackPointExtension>
            <ns3:atemp>18.0</ns3:atemp>
          </ns3:TrackPointExtension>
        </extensions>
      </trkpt>
      <trkpt lat="46.7141251824796199798583984375" lon="6.84899314306676387786865234375">
        <ele>375.399993896484375</ele>
        <time>2013-09-01T15:49:21.000Z</time>
        <extensions>
          <ns3:TrackPointExtension>
            <ns3:atemp>18.0</ns3:atemp>
          </ns3:TrackPointExtension>
        </extensions>
      </trkpt>
      <trkpt lat="46.71405686996877193450927734375" lon="6.84894762933254241943359375">
        <ele>375.79998779296875</ele>
        <time>2013-09-01T15:49:22.000Z</time>
        <extensions>
          <ns3:TrackPointExtension>
            <ns3:atemp>18.0</ns3:atemp>
          </ns3:TrackPointExtension>
        </extensions>
      </trkpt>
      <trkpt lat="46.71398847363889217376708984375" lon="6.8489013612270355224609375">
        <ele>375.79998779296875</ele>
        <time>2013-09-01T15:49:23.000Z</time>
        <extensions>
          <ns3:TrackPointExtension>
            <ns3:atemp>18.0</ns3:atemp>
          </ns3:TrackPointExtension>
        </extensions>
      </trkpt>
      <trkpt lat="46.713920496404170989990234375" lon="6.84885350055992603302001953125">
        <ele>376</ele>
        <time>2013-09-01T15:49:24.000Z</time>
        <extensions>
          <ns3:TrackPointExtension>
            <ns3:atemp>18.0</ns3:atemp>
          </ns3:TrackPointExtension>
        </extensions>
      </trkpt>
      <trkpt lat="46.713852100074291229248046875" lon="6.8488083221018314361572265625">
        <ele>376</ele>
        <time>2013-09-01T15:49:25.000Z</time>
        <extensions>
          <ns3:TrackPointExtension>
            <ns3:atemp>18.0</ns3:atemp>
          </ns3:TrackPointExtension>
        </extensions>
      </trkpt>
      <trkpt lat="46.71378429047763347625732421875" lon="6.8487630598247051239013671875">
        <ele>376.20001220703125</ele>
        <time>2013-09-01T15:49:26.000Z</time>
        <extensions>
          <ns3:TrackPointExtension>
            <ns3:atemp>18.0</ns3:atemp>
          </ns3:TrackPointExtension>
        </extensions>
      </trkpt>
      <trkpt lat="46.71371555887162685394287109375" lon="6.84872022829949855804443359375">
        <ele>376.20001220703125</ele>
        <time>2013-09-01T15:49:27.000Z</time>
        <extensions>
          <ns3:TrackPointExtension>
            <ns3:atemp>18.0</ns3:atemp>
          </ns3:TrackPointExtension>
        </extensions>
      </trkpt>
      <trkpt lat="46.7136485874652862548828125" lon="6.8486778996884822845458984375">
        <ele>376.399993896484375</ele>
        <time>2013-09-01T15:49:28.000Z</time>
        <extensions>
          <ns3:TrackPointExtension>
            <ns3:atemp>18.0</ns3:atemp>
          </ns3:TrackPointExtension>
        </extensions>
      </trkpt>
      <trkpt lat="46.713580526411533355712890625" lon="6.848638169467449188232421875">
        <ele>376.399993896484375</ele>
        <time>2013-09-01T15:49:29.000Z</time>
        <extensions>
          <ns3:TrackPointExtension>
            <ns3:atemp>18.0</ns3:atemp>
          </ns3:TrackPointExtension>
        </extensions>
      </trkpt>
      <trkpt lat="46.71351305209100246429443359375" lon="6.848597936332225799560546875">
        <ele>376.399993896484375</ele>
        <time>2013-09-01T15:49:30.000Z</time>
        <extensions>
          <ns3:TrackPointExtension>
            <ns3:atemp>18.0</ns3:atemp>
          </ns3:TrackPointExtension>
        </extensions>
      </trkpt>
      <trkpt lat="46.71344465576112270355224609375" lon="6.84855963103473186492919921875">
        <ele>376.399993896484375</ele>
        <time>2013-09-01T15:49:31.000Z</time>
        <extensions>
          <ns3:TrackPointExtension>
            <ns3:atemp>18.0</ns3:atemp>
          </ns3:TrackPointExtension>
        </extensions>
      </trkpt>
      <trkpt lat="46.71337835490703582763671875" lon="6.84851923026144504547119140625">
        <ele>376.399993896484375</ele>
        <time>2013-09-01T15:49:32.000Z</time>
        <extensions>
          <ns3:TrackPointExtension>
            <ns3:atemp>18.0</ns3:atemp>
          </ns3:TrackPointExtension>
        </extensions>
      </trkpt>
      <trkpt lat="46.71331255696713924407958984375" lon="6.84847581200301647186279296875">
        <ele>376.600006103515625</ele>
        <time>2013-09-01T15:49:33.000Z</time>
        <extensions>
          <ns3:TrackPointExtension>
            <ns3:atemp>18.0</ns3:atemp>
          </ns3:TrackPointExtension>
        </extensions>
      </trkpt>
      <trkpt lat="46.71324751339852809906005859375" lon="6.8484321422874927520751953125">
        <ele>376.600006103515625</ele>
        <time>2013-09-01T15:49:34.000Z</time>
        <extensions>
          <ns3:TrackPointExtension>
            <ns3:atemp>18.0</ns3:atemp>
          </ns3:TrackPointExtension>
        </extensions>
      </trkpt>
      <trkpt lat="46.71318213455379009246826171875" lon="6.84839433990418910980224609375">
        <ele>376.600006103515625</ele>
        <time>2013-09-01T15:49:35.000Z</time>
        <extensions>
          <ns3:TrackPointExtension>
            <ns3:atemp>18.0</ns3:atemp>
          </ns3:TrackPointExtension>
        </extensions>
      </trkpt>
      <trkpt lat="46.7131166718900203704833984375" lon="6.84835754334926605224609375">
        <ele>376.399993896484375</ele>
        <time>2013-09-01T15:49:36.000Z</time>
        <extensions>
          <ns3:TrackPointExtension>
            <ns3:atemp>18.0</ns3:atemp>
          </ns3:TrackPointExtension>
        </extensions>
      </trkpt>
      <trkpt lat="46.7130516283214092254638671875" lon="6.8483218364417552947998046875">
        <ele>376.600006103515625</ele>
        <time>2013-09-01T15:49:37.000Z</time>
        <extensions>
          <ns3:TrackPointExtension>
            <ns3:atemp>18.0</ns3:atemp>
          </ns3:TrackPointExtension>
        </extensions>
      </trkpt>
      <trkpt lat="46.7129855789244174957275390625" lon="6.84828856028616428375244140625">
        <ele>377</ele>
        <time>2013-09-01T15:49:38.000Z</time>
        <extensions>
          <ns3:TrackPointExtension>
            <ns3:atemp>18.0</ns3:atemp>
          </ns3:TrackPointExtension>
        </extensions>
      </trkpt>
      <trkpt lat="46.71291843988001346588134765625" lon="6.84825318865478038787841796875">
        <ele>377.399993896484375</ele>
        <time>2013-09-01T15:49:39.000Z</time>
        <extensions>
          <ns3:TrackPointExtension>
            <ns3:atemp>18.0</ns3:atemp>
          </ns3:TrackPointExtension>
        </extensions>
      </trkpt>
      <trkpt lat="46.71285121701657772064208984375" lon="6.84822343289852142333984375">
        <ele>377.20001220703125</ele>
        <time>2013-09-01T15:49:40.000Z</time>
        <extensions>
          <ns3:TrackPointExtension>
            <ns3:atemp>18.0</ns3:atemp>
          </ns3:TrackPointExtension>
        </extensions>
      </trkpt>
      <trkpt lat="46.7127834074199199676513671875" lon="6.8481944315135478973388671875">
        <ele>376.79998779296875</ele>
        <time>2013-09-01T15:49:41.000Z</time>
        <extensions>
          <ns3:TrackPointExtension>
            <ns3:atemp>18.0</ns3:atemp>
          </ns3:TrackPointExtension>
        </extensions>
      </trkpt>
      <trkpt lat="46.712714843451976776123046875" lon="6.84816283173859119415283203125">
        <ele>376.600006103515625</ele>
        <time>2013-09-01T15:49:42.000Z</time>
        <extensions>
          <ns3:TrackPointExtension>
            <ns3:atemp>18.0</ns3:atemp>
          </ns3:TrackPointExtension>
        </extensions>
      </trkpt>
      <trkpt lat="46.71264384873211383819580078125" lon="6.8481317348778247833251953125">
        <ele>376.600006103515625</ele>
        <time>2013-09-01T15:49:43.000Z</time>
        <extensions>
          <ns3:TrackPointExtension>
            <ns3:atemp>18.0</ns3:atemp>
          </ns3:TrackPointExtension>
        </extensions>
      </trkpt>
      <trkpt lat="46.71257545240223407745361328125" lon="6.84809661470353603363037109375">
        <ele>376.600006103515625</ele>
        <time>2013-09-01T15:49:44.000Z</time>
        <extensions>
          <ns3:TrackPointExtension>
            <ns3:atemp>18.0</ns3:atemp>
          </ns3:TrackPointExtension>
        </extensions>
      </trkpt>
      <trkpt lat="46.7125078104436397552490234375" lon="6.84806442819535732269287109375">
        <ele>376.600006103515625</ele>
        <time>2013-09-01T15:49:45.000Z</time>
        <extensions>
          <ns3:TrackPointExtension>
            <ns3:atemp>18.0</ns3:atemp>
          </ns3:TrackPointExtension>
        </extensions>
      </trkpt>
      <trkpt lat="46.71243849210441112518310546875" lon="6.84803701937198638916015625">
        <ele>376.79998779296875</ele>
        <time>2013-09-01T15:49:46.000Z</time>
        <extensions>
          <ns3:TrackPointExtension>
            <ns3:atemp>18.0</ns3:atemp>
          </ns3:TrackPointExtension>
        </extensions>
      </trkpt>
      <trkpt lat="46.71237026341259479522705078125" lon="6.8480083532631397247314453125">
        <ele>377</ele>
        <time>2013-09-01T15:49:47.000Z</time>
        <extensions>
          <ns3:TrackPointExtension>
            <ns3:atemp>18.0</ns3:atemp>
          </ns3:TrackPointExtension>
        </extensions>
      </trkpt>
      <trkpt lat="46.71230069361627101898193359375" lon="6.8479798547923564910888671875">
        <ele>377</ele>
        <time>2013-09-01T15:49:48.000Z</time>
        <extensions>
          <ns3:TrackPointExtension>
            <ns3:atemp>18.0</ns3:atemp>
          </ns3:TrackPointExtension>
        </extensions>
      </trkpt>
      <trkpt lat="46.71223036944866180419921875" lon="6.84795529581606388092041015625">
        <ele>376.79998779296875</ele>
        <time>2013-09-01T15:49:49.000Z</time>
        <extensions>
          <ns3:TrackPointExtension>
            <ns3:atemp>18.0</ns3:atemp>
          </ns3:TrackPointExtension>
        </extensions>
      </trkpt>
      <trkpt lat="46.71215920709073543548583984375" lon="6.84792838990688323974609375">
        <ele>376.600006103515625</ele>
        <time>2013-09-01T15:49:50.000Z</time>
        <extensions>
          <ns3:TrackPointExtension>
            <ns3:atemp>18.0</ns3:atemp>
          </ns3:TrackPointExtension>
        </extensions>
      </trkpt>
      <trkpt lat="46.71208829618990421295166015625" lon="6.84790081344544887542724609375">
        <ele>376.399993896484375</ele>
        <time>2013-09-01T15:49:51.000Z</time>
        <extensions>
          <ns3:TrackPointExtension>
            <ns3:atemp>18.0</ns3:atemp>
          </ns3:TrackPointExtension>
        </extensions>
      </trkpt>
      <trkpt lat="46.712018139660358428955078125" lon="6.84787432663142681121826171875">
        <ele>376.600006103515625</ele>
        <time>2013-09-01T15:49:52.000Z</time>
        <extensions>
          <ns3:TrackPointExtension>
            <ns3:atemp>18.0</ns3:atemp>
          </ns3:TrackPointExtension>
        </extensions>
      </trkpt>
      <trkpt lat="46.71194748021662235260009765625" lon="6.84784524142742156982421875">
        <ele>376.399993896484375</ele>
        <time>2013-09-01T15:49:53.000Z</time>
        <extensions>
          <ns3:TrackPointExtension>
            <ns3:atemp>18.0</ns3:atemp>
          </ns3:TrackPointExtension>
        </extensions>
      </trkpt>
      <trkpt lat="46.71187958680093288421630859375" lon="6.8478169105947017669677734375">
        <ele>376.600006103515625</ele>
        <time>2013-09-01T15:49:54.000Z</time>
        <extensions>
          <ns3:TrackPointExtension>
            <ns3:atemp>18.0</ns3:atemp>
          </ns3:TrackPointExtension>
        </extensions>
      </trkpt>
      <trkpt lat="46.71181554906070232391357421875" lon="6.84778430499136447906494140625">
        <ele>377</ele>
        <time>2013-09-01T15:49:55.000Z</time>
        <extensions>
          <ns3:TrackPointExtension>
            <ns3:atemp>18.0</ns3:atemp>
          </ns3:TrackPointExtension>
        </extensions>
      </trkpt>
      <trkpt lat="46.7117551155388355255126953125" lon="6.8477481789886951446533203125">
        <ele>377</ele>
        <time>2013-09-01T15:49:56.000Z</time>
        <extensions>
          <ns3:TrackPointExtension>
            <ns3:atemp>18.0</ns3:atemp>
          </ns3:TrackPointExtension>
        </extensions>
      </trkpt>
      <trkpt lat="46.71169820241630077362060546875" lon="6.8477109633386135101318359375">
        <ele>377</ele>
        <time>2013-09-01T15:49:57.000Z</time>
        <extensions>
          <ns3:TrackPointExtension>
            <ns3:atemp>18.0</ns3:atemp>
          </ns3:TrackPointExtension>
        </extensions>
      </trkpt>
      <trkpt lat="46.71164321713149547576904296875" lon="6.8476760946214199066162109375">
        <ele>377</ele>
        <time>2013-09-01T15:49:58.000Z</time>
        <extensions>
          <ns3:TrackPointExtension>
            <ns3:atemp>18.0</ns3:atemp>
          </ns3:TrackPointExtension>
        </extensions>
      </trkpt>
      <trkpt lat="46.71159158460795879364013671875" lon="6.84763996861875057220458984375">
        <ele>376.79998779296875</ele>
        <time>2013-09-01T15:49:59.000Z</time>
        <extensions>
          <ns3:TrackPointExtension>
            <ns3:atemp>18.0</ns3:atemp>
          </ns3:TrackPointExtension>
        </extensions>
      </trkpt>
      <trkpt lat="46.7115390300750732421875" lon="6.84761482290923595428466796875">
        <ele>376.600006103515625</ele>
        <time>2013-09-01T15:50:00.000Z</time>
        <extensions>
          <ns3:TrackPointExtension>
            <ns3:atemp>18.0</ns3:atemp>
          </ns3:TrackPointExtension>
        </extensions>
      </trkpt>
      <trkpt lat="46.711484380066394805908203125" lon="6.8476093746721744537353515625">
        <ele>376.600006103515625</ele>
        <time>2013-09-01T15:50:01.000Z</time>
        <extensions>
          <ns3:TrackPointExtension>
            <ns3:atemp>18.0</ns3:atemp>
          </ns3:TrackPointExtension>
        </extensions>
      </trkpt>
      <trkpt lat="46.71143132261931896209716796875" lon="6.84763359837234020233154296875">
        <ele>376.600006103515625</ele>
        <time>2013-09-01T15:50:02.000Z</time>
        <extensions>
          <ns3:TrackPointExtension>
            <ns3:atemp>18.0</ns3:atemp>
          </ns3:TrackPointExtension>
        </extensions>
      </trkpt>
      <trkpt lat="46.71139075420796871185302734375" lon="6.8476941995322704315185546875">
        <ele>376.79998779296875</ele>
        <time>2013-09-01T15:50:03.000Z</time>
        <extensions>
          <ns3:TrackPointExtension>
            <ns3:atemp>18.0</ns3:atemp>
          </ns3:TrackPointExtension>
        </extensions>
      </trkpt>
      <trkpt lat="46.71135756187140941619873046875" lon="6.84777474962174892425537109375">
        <ele>377</ele>
        <time>2013-09-01T15:50:04.000Z</time>
        <extensions>
          <ns3:TrackPointExtension>
            <ns3:atemp>18.0</ns3:atemp>
          </ns3:TrackPointExtension>
        </extensions>
      </trkpt>
      <trkpt lat="46.7113226093351840972900390625" lon="6.84785789810121059417724609375">
        <ele>377.20001220703125</ele>
        <time>2013-09-01T15:50:05.000Z</time>
        <extensions>
          <ns3:TrackPointExtension>
            <ns3:atemp>18.0</ns3:atemp>
          </ns3:TrackPointExtension>
        </extensions>
      </trkpt>
      <trkpt lat="46.71128757297992706298828125" lon="6.8479372747242450714111328125">
        <ele>377.600006103515625</ele>
        <time>2013-09-01T15:50:06.000Z</time>
        <extensions>
          <ns3:TrackPointExtension>
            <ns3:atemp>18.0</ns3:atemp>
          </ns3:TrackPointExtension>
        </extensions>
      </trkpt>
      <trkpt lat="46.71125127933919429779052734375" lon="6.84801564551889896392822265625">
        <ele>377.79998779296875</ele>
        <time>2013-09-01T15:50:07.000Z</time>
        <extensions>
          <ns3:TrackPointExtension>
            <ns3:atemp>18.0</ns3:atemp>
          </ns3:TrackPointExtension>
        </extensions>
      </trkpt>
      <trkpt lat="46.7112153209745883941650390625" lon="6.84809326194226741790771484375">
        <ele>377.79998779296875</ele>
        <time>2013-09-01T15:50:08.000Z</time>
        <extensions>
          <ns3:TrackPointExtension>
            <ns3:atemp>18.0</ns3:atemp>
          </ns3:TrackPointExtension>
        </extensions>
      </trkpt>
      <trkpt lat="46.71117894351482391357421875" lon="6.84817087836563587188720703125">
        <ele>377.79998779296875</ele>
        <time>2013-09-01T15:50:09.000Z</time>
        <extensions>
          <ns3:TrackPointExtension>
            <ns3:atemp>18.0</ns3:atemp>
          </ns3:TrackPointExtension>
        </extensions>
      </trkpt>
      <trkpt lat="46.71114281751215457916259765625" lon="6.8482463993132114410400390625">
        <ele>377.600006103515625</ele>
        <time>2013-09-01T15:50:10.000Z</time>
        <extensions>
          <ns3:TrackPointExtension>
            <ns3:atemp>18.0</ns3:atemp>
          </ns3:TrackPointExtension>
        </extensions>
      </trkpt>
      <trkpt lat="46.71111817471683025360107421875" lon="6.84832829050719738006591796875">
        <ele>377.600006103515625</ele>
        <time>2013-09-01T15:50:11.000Z</time>
        <extensions>
          <ns3:TrackPointExtension>
            <ns3:atemp>18.0</ns3:atemp>
          </ns3:TrackPointExtension>
        </extensions>
      </trkpt>
      <trkpt lat="46.7111164145171642303466796875" lon="6.8484153784811496734619140625">
        <ele>377.79998779296875</ele>
        <time>2013-09-01T15:50:12.000Z</time>
        <extensions>
          <ns3:TrackPointExtension>
            <ns3:atemp>18.0</ns3:atemp>
          </ns3:TrackPointExtension>
        </extensions>
      </trkpt>
      <trkpt lat="46.71114382334053516387939453125" lon="6.84849156998097896575927734375">
        <ele>377.79998779296875</ele>
        <time>2013-09-01T15:50:13.000Z</time>
        <extensions>
          <ns3:TrackPointExtension>
            <ns3:atemp>18.0</ns3:atemp>
          </ns3:TrackPointExtension>
        </extensions>
      </trkpt>
      <trkpt lat="46.7111998982727527618408203125" lon="6.84853834100067615509033203125">
        <ele>378</ele>
        <time>2013-09-01T15:50:14.000Z</time>
        <extensions>
          <ns3:TrackPointExtension>
            <ns3:atemp>18.0</ns3:atemp>
          </ns3:TrackPointExtension>
        </extensions>
      </trkpt>
      <trkpt lat="46.71126636676490306854248046875" lon="6.8485585413873195648193359375">
        <ele>378.20001220703125</ele>
        <time>2013-09-01T15:50:15.000Z</time>
        <extensions>
          <ns3:TrackPointExtension>
            <ns3:atemp>18.0</ns3:atemp>
          </ns3:TrackPointExtension>
        </extensions>
      </trkpt>
      <trkpt lat="46.7113340087234973907470703125" lon="6.848569102585315704345703125">
        <ele>378.600006103515625</ele>
        <time>2013-09-01T15:50:16.000Z</time>
        <extensions>
          <ns3:TrackPointExtension>
            <ns3:atemp>18.0</ns3:atemp>
          </ns3:TrackPointExtension>
        </extensions>
      </trkpt>
      <trkpt lat="46.71140500344336032867431640625" lon="6.8485756404697895050048828125">
        <ele>378.600006103515625</ele>
        <time>2013-09-01T15:50:17.000Z</time>
        <extensions>
          <ns3:TrackPointExtension>
            <ns3:atemp>18.0</ns3:atemp>
          </ns3:TrackPointExtension>
        </extensions>
      </trkpt>
      <trkpt lat="46.7114771716296672821044921875" lon="6.84858041815459728240966796875">
        <ele>378.600006103515625</ele>
        <time>2013-09-01T15:50:18.000Z</time>
        <extensions>
          <ns3:TrackPointExtension>
            <ns3:atemp>18.0</ns3:atemp>
          </ns3:TrackPointExtension>
        </extensions>
      </trkpt>
      <trkpt lat="46.71155001036822795867919921875" lon="6.848586536943912506103515625">
        <ele>378.20001220703125</ele>
        <time>2013-09-01T15:50:19.000Z</time>
        <extensions>
          <ns3:TrackPointExtension>
            <ns3:atemp>18.0</ns3:atemp>
          </ns3:TrackPointExtension>
        </extensions>
      </trkpt>
      <trkpt lat="46.71162326820194721221923828125" lon="6.84859299100935459136962890625">
        <ele>378.20001220703125</ele>
        <time>2013-09-01T15:50:20.000Z</time>
        <extensions>
          <ns3:TrackPointExtension>
            <ns3:atemp>18.0</ns3:atemp>
          </ns3:TrackPointExtension>
        </extensions>
      </trkpt>
      <trkpt lat="46.7116959393024444580078125" lon="6.84860120527446269989013671875">
        <ele>377.79998779296875</ele>
        <time>2013-09-01T15:50:21.000Z</time>
        <extensions>
          <ns3:TrackPointExtension>
            <ns3:atemp>18.0</ns3:atemp>
          </ns3:TrackPointExtension>
        </extensions>
      </trkpt>
      <trkpt lat="46.7117671854794025421142578125" lon="6.8486118502914905548095703125">
        <ele>377.20001220703125</ele>
        <time>2013-09-01T15:50:22.000Z</time>
        <extensions>
          <ns3:TrackPointExtension>
            <ns3:atemp>18.0</ns3:atemp>
          </ns3:TrackPointExtension>
        </extensions>
      </trkpt>
      <trkpt lat="46.7118380963802337646484375" lon="6.84862618334591388702392578125">
        <ele>377.20001220703125</ele>
        <time>2013-09-01T15:50:23.000Z</time>
        <extensions>
          <ns3:TrackPointExtension>
            <ns3:atemp>18.0</ns3:atemp>
          </ns3:TrackPointExtension>
        </extensions>
      </trkpt>
      <trkpt lat="46.71190691180527210235595703125" lon="6.84864277951419353485107421875">
        <ele>377.399993896484375</ele>
        <time>2013-09-01T15:50:24.000Z</time>
        <extensions>
          <ns3:TrackPointExtension>
            <ns3:atemp>18.0</ns3:atemp>
          </ns3:TrackPointExtension>
        </extensions>
      </trkpt>
      <trkpt lat="46.71197497285902500152587890625" lon="6.848661638796329498291015625">
        <ele>377.600006103515625</ele>
        <time>2013-09-01T15:50:25.000Z</time>
        <extensions>
          <ns3:TrackPointExtension>
            <ns3:atemp>18.0</ns3:atemp>
          </ns3:TrackPointExtension>
        </extensions>
      </trkpt>
      <trkpt lat="46.71204261481761932373046875" lon="6.84868452139198780059814453125">
        <ele>377.79998779296875</ele>
        <time>2013-09-01T15:50:26.000Z</time>
        <extensions>
          <ns3:TrackPointExtension>
            <ns3:atemp>18.0</ns3:atemp>
          </ns3:TrackPointExtension>
        </extensions>
      </trkpt>
      <trkpt lat="46.71210975386202335357666015625" lon="6.84871025383472442626953125">
        <ele>377.79998779296875</ele>
        <time>2013-09-01T15:50:27.000Z</time>
        <extensions>
          <ns3:TrackPointExtension>
            <ns3:atemp>18.0</ns3:atemp>
          </ns3:TrackPointExtension>
        </extensions>
      </trkpt>
      <trkpt lat="46.7121758870780467987060546875" lon="6.8487348966300487518310546875">
        <ele>377.79998779296875</ele>
        <time>2013-09-01T15:50:28.000Z</time>
        <extensions>
          <ns3:TrackPointExtension>
            <ns3:atemp>18.0</ns3:atemp>
          </ns3:TrackPointExtension>
        </extensions>
      </trkpt>
      <trkpt lat="46.712240763008594512939453125" lon="6.8487632274627685546875">
        <ele>377.79998779296875</ele>
        <time>2013-09-01T15:50:29.000Z</time>
        <extensions>
          <ns3:TrackPointExtension>
            <ns3:atemp>18.0</ns3:atemp>
          </ns3:TrackPointExtension>
        </extensions>
      </trkpt>
      <trkpt lat="46.71230413019657135009765625" lon="6.8487945757806301116943359375">
        <ele>378</ele>
        <time>2013-09-01T15:50:30.000Z</time>
        <extensions>
          <ns3:TrackPointExtension>
            <ns3:atemp>18.0</ns3:atemp>
          </ns3:TrackPointExtension>
        </extensions>
      </trkpt>
      <trkpt lat="46.71237051486968994140625" lon="6.84881812892854213714599609375">
        <ele>378</ele>
        <time>2013-09-01T15:50:31.000Z</time>
        <extensions>
          <ns3:TrackPointExtension>
            <ns3:atemp>18.0</ns3:atemp>
          </ns3:TrackPointExtension>
        </extensions>
      </trkpt>
      <trkpt lat="46.7124370671808719635009765625" lon="6.84884092770516872406005859375">
        <ele>378</ele>
        <time>2013-09-01T15:50:32.000Z</time>
        <extensions>
          <ns3:TrackPointExtension>
            <ns3:atemp>18.0</ns3:atemp>
          </ns3:TrackPointExtension>
        </extensions>
      </trkpt>
      <trkpt lat="46.71250236220657825469970703125" lon="6.8488669954240322113037109375">
        <ele>378</ele>
        <time>2013-09-01T15:50:33.000Z</time>
        <extensions>
          <ns3:TrackPointExtension>
            <ns3:atemp>18.0</ns3:atemp>
          </ns3:TrackPointExtension>
        </extensions>
      </trkpt>
      <trkpt lat="46.71256874687969684600830078125" lon="6.84889541007578372955322265625">
        <ele>378</ele>
        <time>2013-09-01T15:50:34.000Z</time>
        <extensions>
          <ns3:TrackPointExtension>
            <ns3:atemp>18.0</ns3:atemp>
          </ns3:TrackPointExtension>
        </extensions>
      </trkpt>
      <trkpt lat="46.71263513155281543731689453125" lon="6.84891938231885433197021484375">
        <ele>377.79998779296875</ele>
        <time>2013-09-01T15:50:35.000Z</time>
        <extensions>
          <ns3:TrackPointExtension>
            <ns3:atemp>18.0</ns3:atemp>
          </ns3:TrackPointExtension>
        </extensions>
      </trkpt>
      <trkpt lat="46.71270084567368030548095703125" lon="6.84894251637160778045654296875">
        <ele>377.79998779296875</ele>
        <time>2013-09-01T15:50:36.000Z</time>
        <extensions>
          <ns3:TrackPointExtension>
            <ns3:atemp>18.0</ns3:atemp>
          </ns3:TrackPointExtension>
        </extensions>
      </trkpt>
      <trkpt lat="46.712766475975513458251953125" lon="6.84896497987210750579833984375">
        <ele>378</ele>
        <time>2013-09-01T15:50:37.000Z</time>
        <extensions>
          <ns3:TrackPointExtension>
            <ns3:atemp>18.0</ns3:atemp>
          </ns3:TrackPointExtension>
        </extensions>
      </trkpt>
      <trkpt lat="46.7128320224583148956298828125" lon="6.84899096377193927764892578125">
        <ele>378</ele>
        <time>2013-09-01T15:50:38.000Z</time>
        <extensions>
          <ns3:TrackPointExtension>
            <ns3:atemp>18.0</ns3:atemp>
          </ns3:TrackPointExtension>
        </extensions>
      </trkpt>
      <trkpt lat="46.71289731748402118682861328125" lon="6.8490188755095005035400390625">
        <ele>377.79998779296875</ele>
        <time>2013-09-01T15:50:39.000Z</time>
        <extensions>
          <ns3:TrackPointExtension>
            <ns3:atemp>18.0</ns3:atemp>
          </ns3:TrackPointExtension>
        </extensions>
      </trkpt>
      <trkpt lat="46.7129597626626491546630859375" lon="6.849051900207996368408203125">
        <ele>377.79998779296875</ele>
        <time>2013-09-01T15:50:40.000Z</time>
        <extensions>
          <ns3:TrackPointExtension>
            <ns3:atemp>18.0</ns3:atemp>
          </ns3:TrackPointExtension>
        </extensions>
      </trkpt>
      <trkpt lat="46.713023968040943145751953125" lon="6.84908584691584110260009765625">
        <ele>377.600006103515625</ele>
        <time>2013-09-01T15:50:41.000Z</time>
        <extensions>
          <ns3:TrackPointExtension>
            <ns3:atemp>18.0</ns3:atemp>
          </ns3:TrackPointExtension>
        </extensions>
      </trkpt>
      <trkpt lat="46.71308725140988826751708984375" lon="6.84912121854722499847412109375">
        <ele>377.79998779296875</ele>
        <time>2013-09-01T15:50:42.000Z</time>
        <extensions>
          <ns3:TrackPointExtension>
            <ns3:atemp>18.0</ns3:atemp>
          </ns3:TrackPointExtension>
        </extensions>
      </trkpt>
      <trkpt lat="46.7131498642265796661376953125" lon="6.8491553328931331634521484375">
        <ele>378</ele>
        <time>2013-09-01T15:50:43.000Z</time>
        <extensions>
          <ns3:TrackPointExtension>
            <ns3:atemp>18.0</ns3:atemp>
          </ns3:TrackPointExtension>
        </extensions>
      </trkpt>
      <trkpt lat="46.71321247704327106475830078125" lon="6.84918944723904132843017578125">
        <ele>378.20001220703125</ele>
        <time>2013-09-01T15:50:44.000Z</time>
        <extensions>
          <ns3:TrackPointExtension>
            <ns3:atemp>18.0</ns3:atemp>
          </ns3:TrackPointExtension>
        </extensions>
      </trkpt>
      <trkpt lat="46.71327643096446990966796875" lon="6.84922716580331325531005859375">
        <ele>378.20001220703125</ele>
        <time>2013-09-01T15:50:45.000Z</time>
        <extensions>
          <ns3:TrackPointExtension>
            <ns3:atemp>18.0</ns3:atemp>
          </ns3:TrackPointExtension>
        </extensions>
      </trkpt>
      <trkpt lat="46.71333812177181243896484375" lon="6.8492699973285198211669921875">
        <ele>377.79998779296875</ele>
        <time>2013-09-01T15:50:46.000Z</time>
        <extensions>
          <ns3:TrackPointExtension>
            <ns3:atemp>18.0</ns3:atemp>
          </ns3:TrackPointExtension>
        </extensions>
      </trkpt>
      <trkpt lat="46.71340291388332843780517578125" lon="6.849309392273426055908203125">
        <ele>377.79998779296875</ele>
        <time>2013-09-01T15:50:47.000Z</time>
        <extensions>
          <ns3:TrackPointExtension>
            <ns3:atemp>18.0</ns3:atemp>
          </ns3:TrackPointExtension>
        </extensions>
      </trkpt>
      <trkpt lat="46.71346577815711498260498046875" lon="6.8493519723415374755859375">
        <ele>377.600006103515625</ele>
        <time>2013-09-01T15:50:48.000Z</time>
        <extensions>
          <ns3:TrackPointExtension>
            <ns3:atemp>18.0</ns3:atemp>
          </ns3:TrackPointExtension>
        </extensions>
      </trkpt>
      <trkpt lat="46.71352881006896495819091796875" lon="6.84939564205706119537353515625">
        <ele>377.600006103515625</ele>
        <time>2013-09-01T15:50:49.000Z</time>
        <extensions>
          <ns3:TrackPointExtension>
            <ns3:atemp>18.0</ns3:atemp>
          </ns3:TrackPointExtension>
        </extensions>
      </trkpt>
      <trkpt lat="46.71359167434275150299072265625" lon="6.84943906031548976898193359375">
        <ele>377.79998779296875</ele>
        <time>2013-09-01T15:50:50.000Z</time>
        <extensions>
          <ns3:TrackPointExtension>
            <ns3:atemp>18.0</ns3:atemp>
          </ns3:TrackPointExtension>
        </extensions>
      </trkpt>
      <trkpt lat="46.71365596354007720947265625" lon="6.84947870671749114990234375">
        <ele>378</ele>
        <time>2013-09-01T15:50:51.000Z</time>
        <extensions>
          <ns3:TrackPointExtension>
            <ns3:atemp>18.0</ns3:atemp>
          </ns3:TrackPointExtension>
        </extensions>
      </trkpt>
      <trkpt lat="46.7137210071086883544921875" lon="6.84951835311949253082275390625">
        <ele>378.20001220703125</ele>
        <time>2013-09-01T15:50:52.000Z</time>
        <extensions>
          <ns3:TrackPointExtension>
            <ns3:atemp>18.0</ns3:atemp>
          </ns3:TrackPointExtension>
        </extensions>
      </trkpt>
      <trkpt lat="46.71378529630601406097412109375" lon="6.8495566584169864654541015625">
        <ele>378.399993896484375</ele>
        <time>2013-09-01T15:50:53.000Z</time>
        <extensions>
          <ns3:TrackPointExtension>
            <ns3:atemp>18.0</ns3:atemp>
          </ns3:TrackPointExtension>
        </extensions>
      </trkpt>
      <trkpt lat="46.713848076760768890380859375" lon="6.84959680773317813873291015625">
        <ele>378.600006103515625</ele>
        <time>2013-09-01T15:50:54.000Z</time>
        <extensions>
          <ns3:TrackPointExtension>
            <ns3:atemp>18.0</ns3:atemp>
          </ns3:TrackPointExtension>
        </extensions>
      </trkpt>
      <trkpt lat="46.713911108672618865966796875" lon="6.8496357835829257965087890625">
        <ele>378.79998779296875</ele>
        <time>2013-09-01T15:50:55.000Z</time>
        <extensions>
          <ns3:TrackPointExtension>
            <ns3:atemp>18.0</ns3:atemp>
          </ns3:TrackPointExtension>
        </extensions>
      </trkpt>
      <trkpt lat="46.71397405676543712615966796875" lon="6.84967308305203914642333984375">
        <ele>378.79998779296875</ele>
        <time>2013-09-01T15:50:56.000Z</time>
        <extensions>
          <ns3:TrackPointExtension>
            <ns3:atemp>18.0</ns3:atemp>
          </ns3:TrackPointExtension>
        </extensions>
      </trkpt>
      <trkpt lat="46.71403859741985797882080078125" lon="6.8497075326740741729736328125">
        <ele>378.399993896484375</ele>
        <time>2013-09-01T15:50:57.000Z</time>
        <extensions>
          <ns3:TrackPointExtension>
            <ns3:atemp>18.0</ns3:atemp>
          </ns3:TrackPointExtension>
        </extensions>
      </trkpt>
      <trkpt lat="46.7141040600836277008056640625" lon="6.8497413955628871917724609375">
        <ele>377.79998779296875</ele>
        <time>2013-09-01T15:50:58.000Z</time>
        <extensions>
          <ns3:TrackPointExtension>
            <ns3:atemp>18.0</ns3:atemp>
          </ns3:TrackPointExtension>
        </extensions>
      </trkpt>
      <trkpt lat="46.71416667290031909942626953125" lon="6.84978221543133258819580078125">
        <ele>377.600006103515625</ele>
        <time>2013-09-01T15:50:59.000Z</time>
        <extensions>
          <ns3:TrackPointExtension>
            <ns3:atemp>18.0</ns3:atemp>
          </ns3:TrackPointExtension>
        </extensions>
      </trkpt>
      <trkpt lat="46.71422886662185192108154296875" lon="6.8498232029378414154052734375">
        <ele>377.399993896484375</ele>
        <time>2013-09-01T15:51:00.000Z</time>
        <extensions>
          <ns3:TrackPointExtension>
            <ns3:atemp>18.0</ns3:atemp>
          </ns3:TrackPointExtension>
        </extensions>
      </trkpt>
      <trkpt lat="46.71428821049630641937255859375" lon="6.84986586682498455047607421875">
        <ele>377.20001220703125</ele>
        <time>2013-09-01T15:51:01.000Z</time>
        <extensions>
          <ns3:TrackPointExtension>
            <ns3:atemp>18.0</ns3:atemp>
          </ns3:TrackPointExtension>
        </extensions>
      </trkpt>
      <trkpt lat="46.71434663236141204833984375" lon="6.84990928508341312408447265625">
        <ele>377</ele>
        <time>2013-09-01T15:51:02.000Z</time>
        <extensions>
          <ns3:TrackPointExtension>
            <ns3:atemp>18.0</ns3:atemp>
          </ns3:TrackPointExtension>
        </extensions>
      </trkpt>
      <trkpt lat="46.71440689824521541595458984375" lon="6.84995152987539768218994140625">
        <ele>377</ele>
        <time>2013-09-01T15:51:03.000Z</time>
        <extensions>
          <ns3:TrackPointExtension>
            <ns3:atemp>18.0</ns3:atemp>
          </ns3:TrackPointExtension>
        </extensions>
      </trkpt>
      <trkpt lat="46.71446791850030422210693359375" lon="6.84999444521963596343994140625">
        <ele>377</ele>
        <time>2013-09-01T15:51:04.000Z</time>
        <extensions>
          <ns3:TrackPointExtension>
            <ns3:atemp>18.0</ns3:atemp>
          </ns3:TrackPointExtension>
        </extensions>
      </trkpt>
      <trkpt lat="46.7145291902124881744384765625" lon="6.85003870166838169097900390625">
        <ele>377</ele>
        <time>2013-09-01T15:51:05.000Z</time>
        <extensions>
          <ns3:TrackPointExtension>
            <ns3:atemp>18.0</ns3:atemp>
          </ns3:TrackPointExtension>
        </extensions>
      </trkpt>
      <trkpt lat="46.71459130011498928070068359375" lon="6.85008312575519084930419921875">
        <ele>376.79998779296875</ele>
        <time>2013-09-01T15:51:06.000Z</time>
        <extensions>
          <ns3:TrackPointExtension>
            <ns3:atemp>18.0</ns3:atemp>
          </ns3:TrackPointExtension>
        </extensions>
      </trkpt>
      <trkpt lat="46.71465366147458553314208984375" lon="6.85012637637555599212646484375">
        <ele>376.79998779296875</ele>
        <time>2013-09-01T15:51:07.000Z</time>
        <extensions>
          <ns3:TrackPointExtension>
            <ns3:atemp>18.0</ns3:atemp>
          </ns3:TrackPointExtension>
        </extensions>
      </trkpt>
      <trkpt lat="46.7147169448435306549072265625" lon="6.85016912408173084259033203125">
        <ele>376.79998779296875</ele>
        <time>2013-09-01T15:51:08.000Z</time>
        <extensions>
          <ns3:TrackPointExtension>
            <ns3:atemp>18.0</ns3:atemp>
          </ns3:TrackPointExtension>
        </extensions>
      </trkpt>
      <trkpt lat="46.71478073112666606903076171875" lon="6.85021304525434970855712890625">
        <ele>376.79998779296875</ele>
        <time>2013-09-01T15:51:09.000Z</time>
        <extensions>
          <ns3:TrackPointExtension>
            <ns3:atemp>18.0</ns3:atemp>
          </ns3:TrackPointExtension>
        </extensions>
      </trkpt>
      <trkpt lat="46.714844517409801483154296875" lon="6.85025897808372974395751953125">
        <ele>376.399993896484375</ele>
        <time>2013-09-01T15:51:10.000Z</time>
        <extensions>
          <ns3:TrackPointExtension>
            <ns3:atemp>18.0</ns3:atemp>
          </ns3:TrackPointExtension>
        </extensions>
      </trkpt>
      <trkpt lat="46.71490830369293689727783203125" lon="6.85030608437955379486083984375">
        <ele>376.20001220703125</ele>
        <time>2013-09-01T15:51:11.000Z</time>
        <extensions>
          <ns3:TrackPointExtension>
            <ns3:atemp>18.0</ns3:atemp>
          </ns3:TrackPointExtension>
        </extensions>
      </trkpt>
      <trkpt lat="46.7149730958044528961181640625" lon="6.8503526039421558380126953125">
        <ele>376.399993896484375</ele>
        <time>2013-09-01T15:51:12.000Z</time>
        <extensions>
          <ns3:TrackPointExtension>
            <ns3:atemp>18.0</ns3:atemp>
          </ns3:TrackPointExtension>
        </extensions>
      </trkpt>
      <trkpt lat="46.71503730118274688720703125" lon="6.8503965251147747039794921875">
        <ele>376.20001220703125</ele>
        <time>2013-09-01T15:51:13.000Z</time>
        <extensions>
          <ns3:TrackPointExtension>
            <ns3:atemp>18.0</ns3:atemp>
          </ns3:TrackPointExtension>
        </extensions>
      </trkpt>
      <trkpt lat="46.71510125510394573211669921875" lon="6.85044002719223499298095703125">
        <ele>376.399993896484375</ele>
        <time>2013-09-01T15:51:14.000Z</time>
        <extensions>
          <ns3:TrackPointExtension>
            <ns3:atemp>18.0</ns3:atemp>
          </ns3:TrackPointExtension>
        </extensions>
      </trkpt>
      <trkpt lat="46.7151638679206371307373046875" lon="6.85048319399356842041015625">
        <ele>376.399993896484375</ele>
        <time>2013-09-01T15:51:15.000Z</time>
        <extensions>
          <ns3:TrackPointExtension>
            <ns3:atemp>18.0</ns3:atemp>
          </ns3:TrackPointExtension>
        </extensions>
      </trkpt>
      <trkpt lat="46.71522664837539196014404296875" lon="6.85052610933780670166015625">
        <ele>376.399993896484375</ele>
        <time>2013-09-01T15:51:16.000Z</time>
        <extensions>
          <ns3:TrackPointExtension>
            <ns3:atemp>18.0</ns3:atemp>
          </ns3:TrackPointExtension>
        </extensions>
      </trkpt>
      <trkpt lat="46.7152899317443370819091796875" lon="6.850568354129791259765625">
        <ele>376.20001220703125</ele>
        <time>2013-09-01T15:51:17.000Z</time>
        <extensions>
          <ns3:TrackPointExtension>
            <ns3:atemp>18.0</ns3:atemp>
          </ns3:TrackPointExtension>
        </extensions>
      </trkpt>
      <trkpt lat="46.71535380184650421142578125" lon="6.850608922541141510009765625">
        <ele>376.399993896484375</ele>
        <time>2013-09-01T15:51:18.000Z</time>
        <extensions>
          <ns3:TrackPointExtension>
            <ns3:atemp>18.0</ns3:atemp>
          </ns3:TrackPointExtension>
        </extensions>
      </trkpt>
      <trkpt lat="46.715415827929973602294921875" lon="6.85065225698053836822509765625">
        <ele>376.399993896484375</ele>
        <time>2013-09-01T15:51:19.000Z</time>
        <extensions>
          <ns3:TrackPointExtension>
            <ns3:atemp>18.0</ns3:atemp>
          </ns3:TrackPointExtension>
        </extensions>
      </trkpt>
      <trkpt lat="46.71547827310860157012939453125" lon="6.85069601051509380340576171875">
        <ele>376.600006103515625</ele>
        <time>2013-09-01T15:51:20.000Z</time>
        <extensions>
          <ns3:TrackPointExtension>
            <ns3:atemp>18.0</ns3:atemp>
          </ns3:TrackPointExtension>
        </extensions>
      </trkpt>
      <trkpt lat="46.71553996391594409942626953125" lon="6.85074144043028354644775390625">
        <ele>376.399993896484375</ele>
        <time>2013-09-01T15:51:21.000Z</time>
        <extensions>
          <ns3:TrackPointExtension>
            <ns3:atemp>18.0</ns3:atemp>
          </ns3:TrackPointExtension>
        </extensions>
      </trkpt>
      <trkpt lat="46.71560031361877918243408203125" lon="6.8507864512503147125244140625">
        <ele>376.600006103515625</ele>
        <time>2013-09-01T15:51:22.000Z</time>
        <extensions>
          <ns3:TrackPointExtension>
            <ns3:atemp>18.0</ns3:atemp>
          </ns3:TrackPointExtension>
        </extensions>
      </trkpt>
      <trkpt lat="46.715658567845821380615234375" lon="6.85083196498453617095947265625">
        <ele>376.600006103515625</ele>
        <time>2013-09-01T15:51:23.000Z</time>
        <extensions>
          <ns3:TrackPointExtension>
            <ns3:atemp>18.0</ns3:atemp>
          </ns3:TrackPointExtension>
        </extensions>
      </trkpt>
      <trkpt lat="46.71571916900575160980224609375" lon="6.85087588615715503692626953125">
        <ele>376.600006103515625</ele>
        <time>2013-09-01T15:51:24.000Z</time>
        <extensions>
          <ns3:TrackPointExtension>
            <ns3:atemp>18.0</ns3:atemp>
          </ns3:TrackPointExtension>
        </extensions>
      </trkpt>
      <trkpt lat="46.71577935107052326202392578125" lon="6.85092047788202762603759765625">
        <ele>376.399993896484375</ele>
        <time>2013-09-01T15:51:25.000Z</time>
        <extensions>
          <ns3:TrackPointExtension>
            <ns3:atemp>18.0</ns3:atemp>
          </ns3:TrackPointExtension>
        </extensions>
      </trkpt>
      <trkpt lat="46.7158407904207706451416015625" lon="6.85096557252109050750732421875">
        <ele>376.20001220703125</ele>
        <time>2013-09-01T15:51:26.000Z</time>
        <extensions>
          <ns3:TrackPointExtension>
            <ns3:atemp>18.0</ns3:atemp>
          </ns3:TrackPointExtension>
        </extensions>
      </trkpt>
      <trkpt lat="46.71590340323746204376220703125" lon="6.851009242236614227294921875">
        <ele>376.20001220703125</ele>
        <time>2013-09-01T15:51:27.000Z</time>
        <extensions>
          <ns3:TrackPointExtension>
            <ns3:atemp>18.0</ns3:atemp>
          </ns3:TrackPointExtension>
        </extensions>
      </trkpt>
      <trkpt lat="46.71596677042543888092041015625" lon="6.8510533310472965240478515625">
        <ele>376</ele>
        <time>2013-09-01T15:51:28.000Z</time>
        <extensions>
          <ns3:TrackPointExtension>
            <ns3:atemp>18.0</ns3:atemp>
          </ns3:TrackPointExtension>
        </extensions>
      </trkpt>
      <trkpt lat="46.71602946706116199493408203125" lon="6.8510979227721691131591796875">
        <ele>376</ele>
        <time>2013-09-01T15:51:29.000Z</time>
        <extensions>
          <ns3:TrackPointExtension>
            <ns3:atemp>18.0</ns3:atemp>
          </ns3:TrackPointExtension>
        </extensions>
      </trkpt>
      <trkpt lat="46.71609350480139255523681640625" lon="6.8511410057544708251953125">
        <ele>375.79998779296875</ele>
        <time>2013-09-01T15:51:30.000Z</time>
        <extensions>
          <ns3:TrackPointExtension>
            <ns3:atemp>18.0</ns3:atemp>
          </ns3:TrackPointExtension>
        </extensions>
      </trkpt>
      <trkpt lat="46.71615653671324253082275390625" lon="6.85118651948869228363037109375">
        <ele>375.79998779296875</ele>
        <time>2013-09-01T15:51:31.000Z</time>
        <extensions>
          <ns3:TrackPointExtension>
            <ns3:atemp>18.0</ns3:atemp>
          </ns3:TrackPointExtension>
        </extensions>
      </trkpt>
      <trkpt lat="46.71621822752058506011962890625" lon="6.8512340448796749114990234375">
        <ele>375.79998779296875</ele>
        <time>2013-09-01T15:51:32.000Z</time>
        <extensions>
          <ns3:TrackPointExtension>
            <ns3:atemp>18.0</ns3:atemp>
          </ns3:TrackPointExtension>
        </extensions>
      </trkpt>
      <trkpt lat="46.7162796668708324432373046875" lon="6.85127939097583293914794921875">
        <ele>376</ele>
        <time>2013-09-01T15:51:33.000Z</time>
        <extensions>
          <ns3:TrackPointExtension>
            <ns3:atemp>18.0</ns3:atemp>
          </ns3:TrackPointExtension>
        </extensions>
      </trkpt>
      <trkpt lat="46.71634261496365070343017578125" lon="6.85132280923426151275634765625">
        <ele>375.79998779296875</ele>
        <time>2013-09-01T15:51:34.000Z</time>
        <extensions>
          <ns3:TrackPointExtension>
            <ns3:atemp>18.0</ns3:atemp>
          </ns3:TrackPointExtension>
        </extensions>
      </trkpt>
      <trkpt lat="46.71640732325613498687744140625" lon="6.851367317140102386474609375">
        <ele>375.79998779296875</ele>
        <time>2013-09-01T15:51:35.000Z</time>
        <extensions>
          <ns3:TrackPointExtension>
            <ns3:atemp>18.0</ns3:atemp>
          </ns3:TrackPointExtension>
        </extensions>
      </trkpt>
      <trkpt lat="46.71647236682474613189697265625" lon="6.85141182504594326019287109375">
        <ele>376</ele>
        <time>2013-09-01T15:51:36.000Z</time>
        <extensions>
          <ns3:TrackPointExtension>
            <ns3:atemp>18.0</ns3:atemp>
          </ns3:TrackPointExtension>
        </extensions>
      </trkpt>
      <trkpt lat="46.71653724275529384613037109375" lon="6.85145574621856212615966796875">
        <ele>376.20001220703125</ele>
        <time>2013-09-01T15:51:37.000Z</time>
        <extensions>
          <ns3:TrackPointExtension>
            <ns3:atemp>18.0</ns3:atemp>
          </ns3:TrackPointExtension>
        </extensions>
      </trkpt>
      <trkpt lat="46.7166030406951904296875" lon="6.851499080657958984375">
        <ele>376</ele>
        <time>2013-09-01T15:51:38.000Z</time>
        <extensions>
          <ns3:TrackPointExtension>
            <ns3:atemp>18.0</ns3:atemp>
          </ns3:TrackPointExtension>
        </extensions>
      </trkpt>
      <trkpt lat="46.7166685871779918670654296875" lon="6.85154266655445098876953125">
        <ele>375.600006103515625</ele>
        <time>2013-09-01T15:51:39.000Z</time>
        <extensions>
          <ns3:TrackPointExtension>
            <ns3:atemp>18.0</ns3:atemp>
          </ns3:TrackPointExtension>
        </extensions>
      </trkpt>
      <trkpt lat="46.7167343012988567352294921875" lon="6.85158801265060901641845703125">
        <ele>375.600006103515625</ele>
        <time>2013-09-01T15:51:40.000Z</time>
        <extensions>
          <ns3:TrackPointExtension>
            <ns3:atemp>18.0</ns3:atemp>
          </ns3:TrackPointExtension>
        </extensions>
      </trkpt>
      <trkpt lat="46.71680085361003875732421875" lon="6.8516318500041961669921875">
        <ele>376</ele>
        <time>2013-09-01T15:51:41.000Z</time>
        <extensions>
          <ns3:TrackPointExtension>
            <ns3:atemp>18.0</ns3:atemp>
          </ns3:TrackPointExtension>
        </extensions>
      </trkpt>
      <trkpt lat="46.71686790883541107177734375" lon="6.851676441729068756103515625">
        <ele>376.399993896484375</ele>
        <time>2013-09-01T15:51:42.000Z</time>
        <extensions>
          <ns3:TrackPointExtension>
            <ns3:atemp>18.0</ns3:atemp>
          </ns3:TrackPointExtension>
        </extensions>
      </trkpt>
      <trkpt lat="46.716932617127895355224609375" lon="6.8517252244055271148681640625">
        <ele>376.399993896484375</ele>
        <time>2013-09-01T15:51:43.000Z</time>
        <extensions>
          <ns3:TrackPointExtension>
            <ns3:atemp>18.0</ns3:atemp>
          </ns3:TrackPointExtension>
        </extensions>
      </trkpt>
      <trkpt lat="46.7169954814016819000244140625" lon="6.851770319044589996337890625">
        <ele>376.399993896484375</ele>
        <time>2013-09-01T15:51:44.000Z</time>
        <extensions>
          <ns3:TrackPointExtension>
            <ns3:atemp>18.0</ns3:atemp>
          </ns3:TrackPointExtension>
        </extensions>
      </trkpt>
      <trkpt lat="46.7170588485896587371826171875" lon="6.85181382112205028533935546875">
        <ele>376.600006103515625</ele>
        <time>2013-09-01T15:51:45.000Z</time>
        <extensions>
          <ns3:TrackPointExtension>
            <ns3:atemp>18.0</ns3:atemp>
          </ns3:TrackPointExtension>
        </extensions>
      </trkpt>
      <trkpt lat="46.7171222157776355743408203125" lon="6.851858161389827728271484375">
        <ele>376.79998779296875</ele>
        <time>2013-09-01T15:51:46.000Z</time>
        <extensions>
          <ns3:TrackPointExtension>
            <ns3:atemp>18.0</ns3:atemp>
          </ns3:TrackPointExtension>
        </extensions>
      </trkpt>
      <trkpt lat="46.71718499623239040374755859375" lon="6.851900406181812286376953125">
        <ele>376.600006103515625</ele>
        <time>2013-09-01T15:51:47.000Z</time>
        <extensions>
          <ns3:TrackPointExtension>
            <ns3:atemp>18.0</ns3:atemp>
          </ns3:TrackPointExtension>
        </extensions>
      </trkpt>
      <trkpt lat="46.7172479443252086639404296875" lon="6.8519428186118602752685546875">
        <ele>376.20001220703125</ele>
        <time>2013-09-01T15:51:48.000Z</time>
        <extensions>
          <ns3:TrackPointExtension>
            <ns3:atemp>18.0</ns3:atemp>
          </ns3:TrackPointExtension>
        </extensions>
      </trkpt>
      <trkpt lat="46.71731055714190006256103515625" lon="6.8519853986799716949462890625">
        <ele>375.79998779296875</ele>
        <time>2013-09-01T15:51:49.000Z</time>
        <extensions>
          <ns3:TrackPointExtension>
            <ns3:atemp>18.0</ns3:atemp>
          </ns3:TrackPointExtension>
        </extensions>
      </trkpt>
      <trkpt lat="46.717373840510845184326171875" lon="6.8520279787480831146240234375">
        <ele>375.399993896484375</ele>
        <time>2013-09-01T15:51:50.000Z</time>
        <extensions>
          <ns3:TrackPointExtension>
            <ns3:atemp>18.0</ns3:atemp>
          </ns3:TrackPointExtension>
        </extensions>
      </trkpt>
      <trkpt lat="46.7174390517175197601318359375" lon="6.8520675413310527801513671875">
        <ele>375.20001220703125</ele>
        <time>2013-09-01T15:51:51.000Z</time>
        <extensions>
          <ns3:TrackPointExtension>
            <ns3:atemp>18.0</ns3:atemp>
          </ns3:TrackPointExtension>
        </extensions>
      </trkpt>
      <trkpt lat="46.71750300563871860504150390625" lon="6.85210593044757843017578125">
        <ele>375</ele>
        <time>2013-09-01T15:51:52.000Z</time>
        <extensions>
          <ns3:TrackPointExtension>
            <ns3:atemp>18.0</ns3:atemp>
          </ns3:TrackPointExtension>
        </extensions>
      </trkpt>
      <trkpt lat="46.717564947903156280517578125" lon="6.85214842669665813446044921875">
        <ele>375.20001220703125</ele>
        <time>2013-09-01T15:51:53.000Z</time>
        <extensions>
          <ns3:TrackPointExtension>
            <ns3:atemp>18.0</ns3:atemp>
          </ns3:TrackPointExtension>
        </extensions>
      </trkpt>
      <trkpt lat="46.71762638725340366363525390625" lon="6.85218966566026210784912109375">
        <ele>375.20001220703125</ele>
        <time>2013-09-01T15:51:54.000Z</time>
        <extensions>
          <ns3:TrackPointExtension>
            <ns3:atemp>18.0</ns3:atemp>
          </ns3:TrackPointExtension>
        </extensions>
      </trkpt>
      <trkpt lat="46.7176871560513973236083984375" lon="6.85223224572837352752685546875">
        <ele>375.399993896484375</ele>
        <time>2013-09-01T15:51:55.000Z</time>
        <extensions>
          <ns3:TrackPointExtension>
            <ns3:atemp>18.0</ns3:atemp>
          </ns3:TrackPointExtension>
        </extensions>
      </trkpt>
      <trkpt lat="46.71774809248745441436767578125" lon="6.8522764183580875396728515625">
        <ele>375.600006103515625</ele>
        <time>2013-09-01T15:51:56.000Z</time>
        <extensions>
          <ns3:TrackPointExtension>
            <ns3:atemp>18.0</ns3:atemp>
          </ns3:TrackPointExtension>
        </extensions>
      </trkpt>
      <trkpt lat="46.7178098671138286590576171875" lon="6.8523184955120086669921875">
        <ele>376</ele>
        <time>2013-09-01T15:51:57.000Z</time>
        <extensions>
          <ns3:TrackPointExtension>
            <ns3:atemp>18.0</ns3:atemp>
          </ns3:TrackPointExtension>
        </extensions>
      </trkpt>
      <trkpt lat="46.717871725559234619140625" lon="6.85235998593270778656005859375">
        <ele>375.600006103515625</ele>
        <time>2013-09-01T15:51:58.000Z</time>
        <extensions>
          <ns3:TrackPointExtension>
            <ns3:atemp>18.0</ns3:atemp>
          </ns3:TrackPointExtension>
        </extensions>
      </trkpt>
      <trkpt lat="46.7179319076240062713623046875" lon="6.85240365564823150634765625">
        <ele>375.20001220703125</ele>
        <time>2013-09-01T15:51:59.000Z</time>
        <extensions>
          <ns3:TrackPointExtension>
            <ns3:atemp>18.0</ns3:atemp>
          </ns3:TrackPointExtension>
        </extensions>
      </trkpt>
      <trkpt lat="46.71799116767942905426025390625" lon="6.85244581662118434906005859375">
        <ele>375</ele>
        <time>2013-09-01T15:52:00.000Z</time>
        <extensions>
          <ns3:TrackPointExtension>
            <ns3:atemp>18.0</ns3:atemp>
          </ns3:TrackPointExtension>
        </extensions>
      </trkpt>
      <trkpt lat="46.71805034391582012176513671875" lon="6.85248822905123233795166015625">
        <ele>375</ele>
        <time>2013-09-01T15:52:01.000Z</time>
        <extensions>
          <ns3:TrackPointExtension>
            <ns3:atemp>18.0</ns3:atemp>
          </ns3:TrackPointExtension>
        </extensions>
      </trkpt>
      <trkpt lat="46.71810834668576717376708984375" lon="6.852529384195804595947265625">
        <ele>375.20001220703125</ele>
        <time>2013-09-01T15:52:02.000Z</time>
        <extensions>
          <ns3:TrackPointExtension>
            <ns3:atemp>18.0</ns3:atemp>
          </ns3:TrackPointExtension>
        </extensions>
      </trkpt>
      <trkpt lat="46.71816769056022167205810546875" lon="6.8525697849690914154052734375">
        <ele>375.399993896484375</ele>
        <time>2013-09-01T15:52:03.000Z</time>
        <extensions>
          <ns3:TrackPointExtension>
            <ns3:atemp>18.0</ns3:atemp>
          </ns3:TrackPointExtension>
        </extensions>
      </trkpt>
      <trkpt lat="46.7182279564440250396728515625" lon="6.85260909609496593475341796875">
        <ele>375.600006103515625</ele>
        <time>2013-09-01T15:52:04.000Z</time>
        <extensions>
          <ns3:TrackPointExtension>
            <ns3:atemp>18.0</ns3:atemp>
          </ns3:TrackPointExtension>
        </extensions>
      </trkpt>
      <trkpt lat="46.71828822232782840728759765625" lon="6.852649748325347900390625">
        <ele>375.600006103515625</ele>
        <time>2013-09-01T15:52:05.000Z</time>
        <extensions>
          <ns3:TrackPointExtension>
            <ns3:atemp>18.0</ns3:atemp>
          </ns3:TrackPointExtension>
        </extensions>
      </trkpt>
      <trkpt lat="46.7183463089168071746826171875" lon="6.85268956236541271209716796875">
        <ele>375.399993896484375</ele>
        <time>2013-09-01T15:52:06.000Z</time>
        <extensions>
          <ns3:TrackPointExtension>
            <ns3:atemp>18.0</ns3:atemp>
          </ns3:TrackPointExtension>
        </extensions>
      </trkpt>
      <trkpt lat="46.71840506605803966522216796875" lon="6.8527303822338581085205078125">
        <ele>375</ele>
        <time>2013-09-01T15:52:07.000Z</time>
        <extensions>
          <ns3:TrackPointExtension>
            <ns3:atemp>18.0</ns3:atemp>
          </ns3:TrackPointExtension>
        </extensions>
      </trkpt>
      <trkpt lat="46.71846440993249416351318359375" lon="6.8527706153690814971923828125">
        <ele>374.79998779296875</ele>
        <time>2013-09-01T15:52:08.000Z</time>
        <extensions>
          <ns3:TrackPointExtension>
            <ns3:atemp>18.0</ns3:atemp>
          </ns3:TrackPointExtension>
        </extensions>
      </trkpt>
      <trkpt lat="46.71852291561663150787353515625" lon="6.852809675037860870361328125">
        <ele>374.600006103515625</ele>
        <time>2013-09-01T15:52:09.000Z</time>
        <extensions>
          <ns3:TrackPointExtension>
            <ns3:atemp>18.0</ns3:atemp>
          </ns3:TrackPointExtension>
        </extensions>
      </trkpt>
      <trkpt lat="46.71858142130076885223388671875" lon="6.85284814797341823577880859375">
        <ele>374.79998779296875</ele>
        <time>2013-09-01T15:52:10.000Z</time>
        <extensions>
          <ns3:TrackPointExtension>
            <ns3:atemp>18.0</ns3:atemp>
          </ns3:TrackPointExtension>
        </extensions>
      </trkpt>
      <trkpt lat="46.71863816678524017333984375" lon="6.85289039276540279388427734375">
        <ele>375.20001220703125</ele>
        <time>2013-09-01T15:52:11.000Z</time>
        <extensions>
          <ns3:TrackPointExtension>
            <ns3:atemp>18.0</ns3:atemp>
          </ns3:TrackPointExtension>
        </extensions>
      </trkpt>
      <trkpt lat="46.71869625337421894073486328125" lon="6.85293280519545078277587890625">
        <ele>375</ele>
        <time>2013-09-01T15:52:12.000Z</time>
        <extensions>
          <ns3:TrackPointExtension>
            <ns3:atemp>18.0</ns3:atemp>
          </ns3:TrackPointExtension>
        </extensions>
      </trkpt>
      <trkpt lat="46.71875408850610256195068359375" lon="6.8529771454632282257080078125">
        <ele>375</ele>
        <time>2013-09-01T15:52:13.000Z</time>
        <extensions>
          <ns3:TrackPointExtension>
            <ns3:atemp>18.0</ns3:atemp>
          </ns3:TrackPointExtension>
        </extensions>
      </trkpt>
      <trkpt lat="46.7188110016286373138427734375" lon="6.8530203960835933685302734375">
        <ele>374.79998779296875</ele>
        <time>2013-09-01T15:52:14.000Z</time>
        <extensions>
          <ns3:TrackPointExtension>
            <ns3:atemp>18.0</ns3:atemp>
          </ns3:TrackPointExtension>
        </extensions>
      </trkpt>
      <trkpt lat="46.7188666574656963348388671875" lon="6.85306456871330738067626953125">
        <ele>375</ele>
        <time>2013-09-01T15:52:15.000Z</time>
        <extensions>
          <ns3:TrackPointExtension>
            <ns3:atemp>18.0</ns3:atemp>
          </ns3:TrackPointExtension>
        </extensions>
      </trkpt>
      <trkpt lat="46.71892239712178707122802734375" lon="6.85310773551464080810546875">
        <ele>375.20001220703125</ele>
        <time>2013-09-01T15:52:16.000Z</time>
        <extensions>
          <ns3:TrackPointExtension>
            <ns3:atemp>18.0</ns3:atemp>
          </ns3:TrackPointExtension>
        </extensions>
      </trkpt>
      <trkpt lat="46.71897822059690952301025390625" lon="6.85315207578241825103759765625">
        <ele>375</ele>
        <time>2013-09-01T15:52:17.000Z</time>
        <extensions>
          <ns3:TrackPointExtension>
            <ns3:atemp>18.0</ns3:atemp>
          </ns3:TrackPointExtension>
        </extensions>
      </trkpt>
      <trkpt lat="46.7190342955291271209716796875" lon="6.85319918207824230194091796875">
        <ele>375</ele>
        <time>2013-09-01T15:52:18.000Z</time>
        <extensions>
          <ns3:TrackPointExtension>
            <ns3:atemp>18.0</ns3:atemp>
          </ns3:TrackPointExtension>
        </extensions>
      </trkpt>
      <trkpt lat="46.71909322030842304229736328125" lon="6.85324184596538543701171875">
        <ele>374.79998779296875</ele>
        <time>2013-09-01T15:52:19.000Z</time>
        <extensions>
          <ns3:TrackPointExtension>
            <ns3:atemp>18.0</ns3:atemp>
          </ns3:TrackPointExtension>
        </extensions>
      </trkpt>
      <trkpt lat="46.7191486246883869171142578125" lon="6.8532859347760677337646484375">
        <ele>374.79998779296875</ele>
        <time>2013-09-01T15:52:20.000Z</time>
        <extensions>
          <ns3:TrackPointExtension>
            <ns3:atemp>18.0</ns3:atemp>
          </ns3:TrackPointExtension>
        </extensions>
      </trkpt>
      <trkpt lat="46.719207130372524261474609375" lon="6.85333010740578174591064453125">
        <ele>374.600006103515625</ele>
        <time>2013-09-01T15:52:21.000Z</time>
        <extensions>
          <ns3:TrackPointExtension>
            <ns3:atemp>18.0</ns3:atemp>
          </ns3:TrackPointExtension>
        </extensions>
      </trkpt>
      <trkpt lat="46.71926421113312244415283203125" lon="6.85337595641613006591796875">
        <ele>374.399993896484375</ele>
        <time>2013-09-01T15:52:22.000Z</time>
        <extensions>
          <ns3:TrackPointExtension>
            <ns3:atemp>18.0</ns3:atemp>
          </ns3:TrackPointExtension>
        </extensions>
      </trkpt>
      <trkpt lat="46.7193214595317840576171875" lon="6.85342264361679553985595703125">
        <ele>374</ele>
        <time>2013-09-01T15:52:23.000Z</time>
        <extensions>
          <ns3:TrackPointExtension>
            <ns3:atemp>18.0</ns3:atemp>
          </ns3:TrackPointExtension>
        </extensions>
      </trkpt>
      <trkpt lat="46.71937854029238224029541015625" lon="6.8534713424742221832275390625">
        <ele>374.20001220703125</ele>
        <time>2013-09-01T15:52:24.000Z</time>
        <extensions>
          <ns3:TrackPointExtension>
            <ns3:atemp>18.0</ns3:atemp>
          </ns3:TrackPointExtension>
        </extensions>
      </trkpt>
      <trkpt lat="46.7194367945194244384765625" lon="6.8535196222364902496337890625">
        <ele>374.399993896484375</ele>
        <time>2013-09-01T15:52:25.000Z</time>
        <extensions>
          <ns3:TrackPointExtension>
            <ns3:atemp>18.0</ns3:atemp>
          </ns3:TrackPointExtension>
        </extensions>
      </trkpt>
      <trkpt lat="46.71949454583227634429931640625" lon="6.8535662256181240081787109375">
        <ele>374.399993896484375</ele>
        <time>2013-09-01T15:52:26.000Z</time>
        <extensions>
          <ns3:TrackPointExtension>
            <ns3:atemp>18.0</ns3:atemp>
          </ns3:TrackPointExtension>
        </extensions>
      </trkpt>
      <trkpt lat="46.71955187804996967315673828125" lon="6.8536140024662017822265625">
        <ele>374.20001220703125</ele>
        <time>2013-09-01T15:52:27.000Z</time>
        <extensions>
          <ns3:TrackPointExtension>
            <ns3:atemp>18.0</ns3:atemp>
          </ns3:TrackPointExtension>
        </extensions>
      </trkpt>
      <trkpt lat="46.719609461724758148193359375" lon="6.85366353951394557952880859375">
        <ele>374.20001220703125</ele>
        <time>2013-09-01T15:52:28.000Z</time>
        <extensions>
          <ns3:TrackPointExtension>
            <ns3:atemp>18.0</ns3:atemp>
          </ns3:TrackPointExtension>
        </extensions>
      </trkpt>
      <trkpt lat="46.7196679674088954925537109375" lon="6.85371332801878452301025390625">
        <ele>374.20001220703125</ele>
        <time>2013-09-01T15:52:29.000Z</time>
        <extensions>
          <ns3:TrackPointExtension>
            <ns3:atemp>18.0</ns3:atemp>
          </ns3:TrackPointExtension>
        </extensions>
      </trkpt>
      <trkpt lat="46.719726808369159698486328125" lon="6.85376395471394062042236328125">
        <ele>374.399993896484375</ele>
        <time>2013-09-01T15:52:30.000Z</time>
        <extensions>
          <ns3:TrackPointExtension>
            <ns3:atemp>18.0</ns3:atemp>
          </ns3:TrackPointExtension>
        </extensions>
      </trkpt>
      <trkpt lat="46.71978556551039218902587890625" lon="6.85381273739039897918701171875">
        <ele>374.399993896484375</ele>
        <time>2013-09-01T15:52:31.000Z</time>
        <extensions>
          <ns3:TrackPointExtension>
            <ns3:atemp>18.0</ns3:atemp>
          </ns3:TrackPointExtension>
        </extensions>
      </trkpt>
      <trkpt lat="46.71984524466097354888916015625" lon="6.85385917313396930694580078125">
        <ele>374.600006103515625</ele>
        <time>2013-09-01T15:52:32.000Z</time>
        <extensions>
          <ns3:TrackPointExtension>
            <ns3:atemp>18.0</ns3:atemp>
          </ns3:TrackPointExtension>
        </extensions>
      </trkpt>
      <trkpt lat="46.71990475617349147796630859375" lon="6.85390510596334934234619140625">
        <ele>374.600006103515625</ele>
        <time>2013-09-01T15:52:33.000Z</time>
        <extensions>
          <ns3:TrackPointExtension>
            <ns3:atemp>18.0</ns3:atemp>
          </ns3:TrackPointExtension>
        </extensions>
      </trkpt>
      <trkpt lat="46.7199630104005336761474609375" lon="6.85395170934498310089111328125">
        <ele>374.79998779296875</ele>
        <time>2013-09-01T15:52:34.000Z</time>
        <extensions>
          <ns3:TrackPointExtension>
            <ns3:atemp>18.0</ns3:atemp>
          </ns3:TrackPointExtension>
        </extensions>
      </trkpt>
      <trkpt lat="46.72002017498016357421875" lon="6.8540007434785366058349609375">
        <ele>374.600006103515625</ele>
        <time>2013-09-01T15:52:35.000Z</time>
        <extensions>
          <ns3:TrackPointExtension>
            <ns3:atemp>18.0</ns3:atemp>
          </ns3:TrackPointExtension>
        </extensions>
      </trkpt>
      <trkpt lat="46.72007859684526920318603515625" lon="6.854048185050487518310546875">
        <ele>374.399993896484375</ele>
        <time>2013-09-01T15:52:36.000Z</time>
        <extensions>
          <ns3:TrackPointExtension>
            <ns3:atemp>18.0</ns3:atemp>
          </ns3:TrackPointExtension>
        </extensions>
      </trkpt>
      <trkpt lat="46.72013659961521625518798828125" lon="6.8540941178798675537109375">
        <ele>374.20001220703125</ele>
        <time>2013-09-01T15:52:37.000Z</time>
        <extensions>
          <ns3:TrackPointExtension>
            <ns3:atemp>18.0</ns3:atemp>
          </ns3:TrackPointExtension>
        </extensions>
      </trkpt>
      <trkpt lat="46.7201946862041950225830078125" lon="6.85414315201342105865478515625">
        <ele>374.399993896484375</ele>
        <time>2013-09-01T15:52:38.000Z</time>
        <extensions>
          <ns3:TrackPointExtension>
            <ns3:atemp>18.0</ns3:atemp>
          </ns3:TrackPointExtension>
        </extensions>
      </trkpt>
      <trkpt lat="46.72025528736412525177001953125" lon="6.85418891720473766326904296875">
        <ele>374.399993896484375</ele>
        <time>2013-09-01T15:52:39.000Z</time>
        <extensions>
          <ns3:TrackPointExtension>
            <ns3:atemp>18.0</ns3:atemp>
          </ns3:TrackPointExtension>
        </extensions>
      </trkpt>
      <trkpt lat="46.72031379304826259613037109375" lon="6.85423619113862514495849609375">
        <ele>374.20001220703125</ele>
        <time>2013-09-01T15:52:40.000Z</time>
        <extensions>
          <ns3:TrackPointExtension>
            <ns3:atemp>18.0</ns3:atemp>
          </ns3:TrackPointExtension>
        </extensions>
      </trkpt>
      <trkpt lat="46.72037095762789249420166015625" lon="6.8542830459773540496826171875">
        <ele>374</ele>
        <time>2013-09-01T15:52:41.000Z</time>
        <extensions>
          <ns3:TrackPointExtension>
            <ns3:atemp>18.0</ns3:atemp>
          </ns3:TrackPointExtension>
        </extensions>
      </trkpt>
      <trkpt lat="46.720428876578807830810546875" lon="6.8543293140828609466552734375">
        <ele>374</ele>
        <time>2013-09-01T15:52:42.000Z</time>
        <extensions>
          <ns3:TrackPointExtension>
            <ns3:atemp>18.0</ns3:atemp>
          </ns3:TrackPointExtension>
        </extensions>
      </trkpt>
      <trkpt lat="46.7204843647778034210205078125" lon="6.85437818057835102081298828125">
        <ele>374</ele>
        <time>2013-09-01T15:52:43.000Z</time>
        <extensions>
          <ns3:TrackPointExtension>
            <ns3:atemp>18.0</ns3:atemp>
          </ns3:TrackPointExtension>
        </extensions>
      </trkpt>
      <trkpt lat="46.7205406911671161651611328125" lon="6.85442578978836536407470703125">
        <ele>373.79998779296875</ele>
        <time>2013-09-01T15:52:44.000Z</time>
        <extensions>
          <ns3:TrackPointExtension>
            <ns3:atemp>18.0</ns3:atemp>
          </ns3:TrackPointExtension>
        </extensions>
      </trkpt>
      <trkpt lat="46.72059760428965091705322265625" lon="6.8544738180935382843017578125">
        <ele>373.79998779296875</ele>
        <time>2013-09-01T15:52:45.000Z</time>
        <extensions>
          <ns3:TrackPointExtension>
            <ns3:atemp>18.0</ns3:atemp>
          </ns3:TrackPointExtension>
        </extensions>
      </trkpt>
      <trkpt lat="46.72065393067896366119384765625" lon="6.8545232713222503662109375">
        <ele>373.79998779296875</ele>
        <time>2013-09-01T15:52:46.000Z</time>
        <extensions>
          <ns3:TrackPointExtension>
            <ns3:atemp>18.0</ns3:atemp>
          </ns3:TrackPointExtension>
        </extensions>
      </trkpt>
      <trkpt lat="46.7207100056111812591552734375" lon="6.85457163490355014801025390625">
        <ele>374</ele>
        <time>2013-09-01T15:52:47.000Z</time>
        <extensions>
          <ns3:TrackPointExtension>
            <ns3:atemp>18.0</ns3:atemp>
          </ns3:TrackPointExtension>
        </extensions>
      </trkpt>
      <trkpt lat="46.720767505466938018798828125" lon="6.85461907647550106048583984375">
        <ele>373.79998779296875</ele>
        <time>2013-09-01T15:52:48.000Z</time>
        <extensions>
          <ns3:TrackPointExtension>
            <ns3:atemp>18.0</ns3:atemp>
          </ns3:TrackPointExtension>
        </extensions>
      </trkpt>
      <trkpt lat="46.7208253405988216400146484375" lon="6.8546686135232448577880859375">
        <ele>373.79998779296875</ele>
        <time>2013-09-01T15:52:49.000Z</time>
        <extensions>
          <ns3:TrackPointExtension>
            <ns3:atemp>18.0</ns3:atemp>
          </ns3:TrackPointExtension>
        </extensions>
      </trkpt>
      <trkpt lat="46.72088325954973697662353515625" lon="6.85471714474260807037353515625">
        <ele>373.79998779296875</ele>
        <time>2013-09-01T15:52:50.000Z</time>
        <extensions>
          <ns3:TrackPointExtension>
            <ns3:atemp>18.0</ns3:atemp>
          </ns3:TrackPointExtension>
        </extensions>
      </trkpt>
      <trkpt lat="46.72094092704355716705322265625" lon="6.85476601123809814453125">
        <ele>373.79998779296875</ele>
        <time>2013-09-01T15:52:51.000Z</time>
        <extensions>
          <ns3:TrackPointExtension>
            <ns3:atemp>18.0</ns3:atemp>
          </ns3:TrackPointExtension>
        </extensions>
      </trkpt>
      <trkpt lat="46.7209993489086627960205078125" lon="6.85481202788650989532470703125">
        <ele>374</ele>
        <time>2013-09-01T15:52:52.000Z</time>
        <extensions>
          <ns3:TrackPointExtension>
            <ns3:atemp>18.0</ns3:atemp>
          </ns3:TrackPointExtension>
        </extensions>
      </trkpt>
      <trkpt lat="46.72105659730732440948486328125" lon="6.8548593856394290924072265625">
        <ele>374</ele>
        <time>2013-09-01T15:52:53.000Z</time>
        <extensions>
          <ns3:TrackPointExtension>
            <ns3:atemp>18.0</ns3:atemp>
          </ns3:TrackPointExtension>
        </extensions>
      </trkpt>
      <trkpt lat="46.72111250460147857666015625" lon="6.85490909032523632049560546875">
        <ele>374</ele>
        <time>2013-09-01T15:52:54.000Z</time>
        <extensions>
          <ns3:TrackPointExtension>
            <ns3:atemp>18.0</ns3:atemp>
          </ns3:TrackPointExtension>
        </extensions>
      </trkpt>
      <trkpt lat="46.7211689986288547515869140625" lon="6.85495837591588497161865234375">
        <ele>373.79998779296875</ele>
        <time>2013-09-01T15:52:55.000Z</time>
        <extensions>
          <ns3:TrackPointExtension>
            <ns3:atemp>18.0</ns3:atemp>
          </ns3:TrackPointExtension>
        </extensions>
      </trkpt>
      <trkpt lat="46.72122473828494548797607421875" lon="6.85500766150653362274169921875">
        <ele>373.79998779296875</ele>
        <time>2013-09-01T15:52:56.000Z</time>
        <extensions>
          <ns3:TrackPointExtension>
            <ns3:atemp>18.0</ns3:atemp>
          </ns3:TrackPointExtension>
        </extensions>
      </trkpt>
      <trkpt lat="46.7212794721126556396484375" lon="6.8550582043826580047607421875">
        <ele>373.600006103515625</ele>
        <time>2013-09-01T15:52:57.000Z</time>
        <extensions>
          <ns3:TrackPointExtension>
            <ns3:atemp>18.0</ns3:atemp>
          </ns3:TrackPointExtension>
        </extensions>
      </trkpt>
      <trkpt lat="46.7213359661400318145751953125" lon="6.85510623268783092498779296875">
        <ele>373.399993896484375</ele>
        <time>2013-09-01T15:52:58.000Z</time>
        <extensions>
          <ns3:TrackPointExtension>
            <ns3:atemp>18.0</ns3:atemp>
          </ns3:TrackPointExtension>
        </extensions>
      </trkpt>
      <trkpt lat="46.72139388509094715118408203125" lon="6.855155937373638153076171875">
        <ele>373.399993896484375</ele>
        <time>2013-09-01T15:52:59.000Z</time>
        <extensions>
          <ns3:TrackPointExtension>
            <ns3:atemp>18.0</ns3:atemp>
          </ns3:TrackPointExtension>
        </extensions>
      </trkpt>
      <trkpt lat="46.7214511334896087646484375" lon="6.8552067317068576812744140625">
        <ele>373.399993896484375</ele>
        <time>2013-09-01T15:53:00.000Z</time>
        <extensions>
          <ns3:TrackPointExtension>
            <ns3:atemp>18.0</ns3:atemp>
          </ns3:TrackPointExtension>
        </extensions>
      </trkpt>
      <trkpt lat="46.7215099744498729705810546875" lon="6.8552529998123645782470703125">
        <ele>373.399993896484375</ele>
        <time>2013-09-01T15:53:01.000Z</time>
        <extensions>
          <ns3:TrackPointExtension>
            <ns3:atemp>18.0</ns3:atemp>
          </ns3:TrackPointExtension>
        </extensions>
      </trkpt>
      <trkpt lat="46.72156713902950286865234375" lon="6.8552999384701251983642578125">
        <ele>373.20001220703125</ele>
        <time>2013-09-01T15:53:02.000Z</time>
        <extensions>
          <ns3:TrackPointExtension>
            <ns3:atemp>18.0</ns3:atemp>
          </ns3:TrackPointExtension>
        </extensions>
      </trkpt>
      <trkpt lat="46.72162086702883243560791015625" lon="6.8553502298891544342041015625">
        <ele>373.20001220703125</ele>
        <time>2013-09-01T15:53:03.000Z</time>
        <extensions>
          <ns3:TrackPointExtension>
            <ns3:atemp>18.0</ns3:atemp>
          </ns3:TrackPointExtension>
        </extensions>
      </trkpt>
      <trkpt lat="46.7216749303042888641357421875" lon="6.85539993457496166229248046875">
        <ele>373.399993896484375</ele>
        <time>2013-09-01T15:53:04.000Z</time>
        <extensions>
          <ns3:TrackPointExtension>
            <ns3:atemp>18.0</ns3:atemp>
          </ns3:TrackPointExtension>
        </extensions>
      </trkpt>
      <trkpt lat="46.72173066996037960052490234375" lon="6.85544972307980060577392578125">
        <ele>373.399993896484375</ele>
        <time>2013-09-01T15:53:05.000Z</time>
        <extensions>
          <ns3:TrackPointExtension>
            <ns3:atemp>18.0</ns3:atemp>
          </ns3:TrackPointExtension>
        </extensions>
      </trkpt>
      <trkpt lat="46.721787415444850921630859375" lon="6.8554987572133541107177734375">
        <ele>373.399993896484375</ele>
        <time>2013-09-01T15:53:06.000Z</time>
        <extensions>
          <ns3:TrackPointExtension>
            <ns3:atemp>18.0</ns3:atemp>
          </ns3:TrackPointExtension>
        </extensions>
      </trkpt>
      <trkpt lat="46.7218449153006076812744140625" lon="6.8555480428040027618408203125">
        <ele>373.20001220703125</ele>
        <time>2013-09-01T15:53:07.000Z</time>
        <extensions>
          <ns3:TrackPointExtension>
            <ns3:atemp>18.0</ns3:atemp>
          </ns3:TrackPointExtension>
        </extensions>
      </trkpt>
      <trkpt lat="46.72190241515636444091796875" lon="6.85559808276593685150146484375">
        <ele>373.20001220703125</ele>
        <time>2013-09-01T15:53:08.000Z</time>
        <extensions>
          <ns3:TrackPointExtension>
            <ns3:atemp>18.0</ns3:atemp>
          </ns3:TrackPointExtension>
        </extensions>
      </trkpt>
      <trkpt lat="46.72195932827889919281005859375" lon="6.85564837418496608734130859375">
        <ele>373</ele>
        <time>2013-09-01T15:53:09.000Z</time>
        <extensions>
          <ns3:TrackPointExtension>
            <ns3:atemp>18.0</ns3:atemp>
          </ns3:TrackPointExtension>
        </extensions>
      </trkpt>
      <trkpt lat="46.72201682813465595245361328125" lon="6.855697073042392730712890625">
        <ele>372.79998779296875</ele>
        <time>2013-09-01T15:53:10.000Z</time>
        <extensions>
          <ns3:TrackPointExtension>
            <ns3:atemp>18.0</ns3:atemp>
          </ns3:TrackPointExtension>
        </extensions>
      </trkpt>
      <trkpt lat="46.72207365743815898895263671875" lon="6.85574778355658054351806640625">
        <ele>373</ele>
        <time>2013-09-01T15:53:11.000Z</time>
        <extensions>
          <ns3:TrackPointExtension>
            <ns3:atemp>18.0</ns3:atemp>
          </ns3:TrackPointExtension>
        </extensions>
      </trkpt>
      <trkpt lat="46.72213031910359859466552734375" lon="6.8557964824140071868896484375">
        <ele>373</ele>
        <time>2013-09-01T15:53:12.000Z</time>
        <extensions>
          <ns3:TrackPointExtension>
            <ns3:atemp>18.0</ns3:atemp>
          </ns3:TrackPointExtension>
        </extensions>
      </trkpt>
      <trkpt lat="46.72218739986419677734375" lon="6.8558424152433872222900390625">
        <ele>373.20001220703125</ele>
        <time>2013-09-01T15:53:13.000Z</time>
        <extensions>
          <ns3:TrackPointExtension>
            <ns3:atemp>18.0</ns3:atemp>
          </ns3:TrackPointExtension>
        </extensions>
      </trkpt>
      <trkpt lat="46.722243390977382659912109375" lon="6.85589111410081386566162109375">
        <ele>373</ele>
        <time>2013-09-01T15:53:14.000Z</time>
        <extensions>
          <ns3:TrackPointExtension>
            <ns3:atemp>18.0</ns3:atemp>
          </ns3:TrackPointExtension>
        </extensions>
      </trkpt>
      <trkpt lat="46.72230030409991741180419921875" lon="6.8559394776821136474609375">
        <ele>373</ele>
        <time>2013-09-01T15:53:15.000Z</time>
        <extensions>
          <ns3:TrackPointExtension>
            <ns3:atemp>18.0</ns3:atemp>
          </ns3:TrackPointExtension>
        </extensions>
      </trkpt>
      <trkpt lat="46.72235780395567417144775390625" lon="6.8559877574443817138671875">
        <ele>372.79998779296875</ele>
        <time>2013-09-01T15:53:16.000Z</time>
        <extensions>
          <ns3:TrackPointExtension>
            <ns3:atemp>18.0</ns3:atemp>
          </ns3:TrackPointExtension>
        </extensions>
      </trkpt>
      <trkpt lat="46.722413711249828338623046875" lon="6.85603679157793521881103515625">
        <ele>373</ele>
        <time>2013-09-01T15:53:17.000Z</time>
        <extensions>
          <ns3:TrackPointExtension>
            <ns3:atemp>18.0</ns3:atemp>
          </ns3:TrackPointExtension>
        </extensions>
      </trkpt>
      <trkpt lat="46.7224708758294582366943359375" lon="6.85608473606407642364501953125">
        <ele>373</ele>
        <time>2013-09-01T15:53:18.000Z</time>
        <extensions>
          <ns3:TrackPointExtension>
            <ns3:atemp>18.0</ns3:atemp>
          </ns3:TrackPointExtension>
        </extensions>
      </trkpt>
      <trkpt lat="46.72252829186618328094482421875" lon="6.856131255626678466796875">
        <ele>373</ele>
        <time>2013-09-01T15:53:19.000Z</time>
        <extensions>
          <ns3:TrackPointExtension>
            <ns3:atemp>18.0</ns3:atemp>
          </ns3:TrackPointExtension>
        </extensions>
      </trkpt>
      <trkpt lat="46.72258495353162288665771484375" lon="6.8561790324747562408447265625">
        <ele>373</ele>
        <time>2013-09-01T15:53:20.000Z</time>
        <extensions>
          <ns3:TrackPointExtension>
            <ns3:atemp>18.0</ns3:atemp>
          </ns3:TrackPointExtension>
        </extensions>
      </trkpt>
      <trkpt lat="46.72264228574931621551513671875" lon="6.85622714459896087646484375">
        <ele>373</ele>
        <time>2013-09-01T15:53:21.000Z</time>
        <extensions>
          <ns3:TrackPointExtension>
            <ns3:atemp>18.0</ns3:atemp>
          </ns3:TrackPointExtension>
        </extensions>
      </trkpt>
      <trkpt lat="46.72269794158637523651123046875" lon="6.85627517290413379669189453125">
        <ele>373.20001220703125</ele>
        <time>2013-09-01T15:53:22.000Z</time>
        <extensions>
          <ns3:TrackPointExtension>
            <ns3:atemp>18.0</ns3:atemp>
          </ns3:TrackPointExtension>
        </extensions>
      </trkpt>
      <trkpt lat="46.7227535136044025421142578125" lon="6.85632169246673583984375">
        <ele>373</ele>
        <time>2013-09-01T15:53:23.000Z</time>
        <extensions>
          <ns3:TrackPointExtension>
            <ns3:atemp>18.0</ns3:atemp>
          </ns3:TrackPointExtension>
        </extensions>
      </trkpt>
      <trkpt lat="46.72281143255531787872314453125" lon="6.85636661946773529052734375">
        <ele>372.79998779296875</ele>
        <time>2013-09-01T15:53:24.000Z</time>
        <extensions>
          <ns3:TrackPointExtension>
            <ns3:atemp>18.0</ns3:atemp>
          </ns3:TrackPointExtension>
        </extensions>
      </trkpt>
      <trkpt lat="46.72286692075431346893310546875" lon="6.85641448013484477996826171875">
        <ele>372.600006103515625</ele>
        <time>2013-09-01T15:53:25.000Z</time>
        <extensions>
          <ns3:TrackPointExtension>
            <ns3:atemp>18.0</ns3:atemp>
          </ns3:TrackPointExtension>
        </extensions>
      </trkpt>
      <trkpt lat="46.72292173840105533599853515625" lon="6.85646192170679569244384765625">
        <ele>372.600006103515625</ele>
        <time>2013-09-01T15:53:26.000Z</time>
        <extensions>
          <ns3:TrackPointExtension>
            <ns3:atemp>18.0</ns3:atemp>
          </ns3:TrackPointExtension>
        </extensions>
      </trkpt>
      <trkpt lat="46.72297622077167034149169921875" lon="6.85650986619293689727783203125">
        <ele>372.600006103515625</ele>
        <time>2013-09-01T15:53:27.000Z</time>
        <extensions>
          <ns3:TrackPointExtension>
            <ns3:atemp>18.0</ns3:atemp>
          </ns3:TrackPointExtension>
        </extensions>
      </trkpt>
      <trkpt lat="46.7230309545993804931640625" lon="6.85655697248876094818115234375">
        <ele>372.600006103515625</ele>
        <time>2013-09-01T15:53:28.000Z</time>
        <extensions>
          <ns3:TrackPointExtension>
            <ns3:atemp>18.0</ns3:atemp>
          </ns3:TrackPointExtension>
        </extensions>
      </trkpt>
      <trkpt lat="46.7230871133506298065185546875" lon="6.85660399496555328369140625">
        <ele>372.79998779296875</ele>
        <time>2013-09-01T15:53:29.000Z</time>
        <extensions>
          <ns3:TrackPointExtension>
            <ns3:atemp>18.0</ns3:atemp>
          </ns3:TrackPointExtension>
        </extensions>
      </trkpt>
      <trkpt lat="46.7231420986354351043701171875" lon="6.85665353201329708099365234375">
        <ele>372.79998779296875</ele>
        <time>2013-09-01T15:53:30.000Z</time>
        <extensions>
          <ns3:TrackPointExtension>
            <ns3:atemp>18.0</ns3:atemp>
          </ns3:TrackPointExtension>
        </extensions>
      </trkpt>
      <trkpt lat="46.72319917939603328704833984375" lon="6.856699883937835693359375">
        <ele>372.600006103515625</ele>
        <time>2013-09-01T15:53:31.000Z</time>
        <extensions>
          <ns3:TrackPointExtension>
            <ns3:atemp>18.0</ns3:atemp>
          </ns3:TrackPointExtension>
        </extensions>
      </trkpt>
      <trkpt lat="46.72325567342340946197509765625" lon="6.85674724169075489044189453125">
        <ele>372.600006103515625</ele>
        <time>2013-09-01T15:53:32.000Z</time>
        <extensions>
          <ns3:TrackPointExtension>
            <ns3:atemp>18.0</ns3:atemp>
          </ns3:TrackPointExtension>
        </extensions>
      </trkpt>
      <trkpt lat="46.72331283800303936004638671875" lon="6.856794767081737518310546875">
        <ele>372.399993896484375</ele>
        <time>2013-09-01T15:53:33.000Z</time>
        <extensions>
          <ns3:TrackPointExtension>
            <ns3:atemp>18.0</ns3:atemp>
          </ns3:TrackPointExtension>
        </extensions>
      </trkpt>
      <trkpt lat="46.72336958348751068115234375" lon="6.85684329830110073089599609375">
        <ele>372.20001220703125</ele>
        <time>2013-09-01T15:53:34.000Z</time>
        <extensions>
          <ns3:TrackPointExtension>
            <ns3:atemp>18.0</ns3:atemp>
          </ns3:TrackPointExtension>
        </extensions>
      </trkpt>
      <trkpt lat="46.723425574600696563720703125" lon="6.85689224861562252044677734375">
        <ele>372.20001220703125</ele>
        <time>2013-09-01T15:53:35.000Z</time>
        <extensions>
          <ns3:TrackPointExtension>
            <ns3:atemp>18.0</ns3:atemp>
          </ns3:TrackPointExtension>
        </extensions>
      </trkpt>
      <trkpt lat="46.7234815657138824462890625" lon="6.856938265264034271240234375">
        <ele>372.600006103515625</ele>
        <time>2013-09-01T15:53:36.000Z</time>
        <extensions>
          <ns3:TrackPointExtension>
            <ns3:atemp>18.0</ns3:atemp>
          </ns3:TrackPointExtension>
        </extensions>
      </trkpt>
      <trkpt lat="46.72353512607514858245849609375" lon="6.85698528774082660675048828125">
        <ele>373</ele>
        <time>2013-09-01T15:53:37.000Z</time>
        <extensions>
          <ns3:TrackPointExtension>
            <ns3:atemp>18.0</ns3:atemp>
          </ns3:TrackPointExtension>
        </extensions>
      </trkpt>
      <trkpt lat="46.72358994372189044952392578125" lon="6.85703004710376262664794921875">
        <ele>373</ele>
        <time>2013-09-01T15:53:38.000Z</time>
        <extensions>
          <ns3:TrackPointExtension>
            <ns3:atemp>18.0</ns3:atemp>
          </ns3:TrackPointExtension>
        </extensions>
      </trkpt>
      <trkpt lat="46.72364643774926662445068359375" lon="6.8570758961141109466552734375">
        <ele>372.600006103515625</ele>
        <time>2013-09-01T15:53:39.000Z</time>
        <extensions>
          <ns3:TrackPointExtension>
            <ns3:atemp>18.0</ns3:atemp>
          </ns3:TrackPointExtension>
        </extensions>
      </trkpt>
      <trkpt lat="46.72370360232889652252197265625" lon="6.85712208040058612823486328125">
        <ele>372</ele>
        <time>2013-09-01T15:53:40.000Z</time>
        <extensions>
          <ns3:TrackPointExtension>
            <ns3:atemp>18.0</ns3:atemp>
          </ns3:TrackPointExtension>
        </extensions>
      </trkpt>
      <trkpt lat="46.7237605154514312744140625" lon="6.85716935433447360992431640625">
        <ele>371.79998779296875</ele>
        <time>2013-09-01T15:53:41.000Z</time>
        <extensions>
          <ns3:TrackPointExtension>
            <ns3:atemp>18.0</ns3:atemp>
          </ns3:TrackPointExtension>
        </extensions>
      </trkpt>
      <trkpt lat="46.7238176800310611724853515625" lon="6.85721612535417079925537109375">
        <ele>372</ele>
        <time>2013-09-01T15:53:42.000Z</time>
        <extensions>
          <ns3:TrackPointExtension>
            <ns3:atemp>18.0</ns3:atemp>
          </ns3:TrackPointExtension>
        </extensions>
      </trkpt>
      <trkpt lat="46.72387517988681793212890625" lon="6.85726306401193141937255859375">
        <ele>372.399993896484375</ele>
        <time>2013-09-01T15:53:43.000Z</time>
        <extensions>
          <ns3:TrackPointExtension>
            <ns3:atemp>18.0</ns3:atemp>
          </ns3:TrackPointExtension>
        </extensions>
      </trkpt>
      <trkpt lat="46.723930835723876953125" lon="6.85731084086000919342041015625">
        <ele>372.79998779296875</ele>
        <time>2013-09-01T15:53:44.000Z</time>
        <extensions>
          <ns3:TrackPointExtension>
            <ns3:atemp>18.0</ns3:atemp>
          </ns3:TrackPointExtension>
        </extensions>
      </trkpt>
      <trkpt lat="46.72398892231285572052001953125" lon="6.857358701527118682861328125">
        <ele>372.600006103515625</ele>
        <time>2013-09-01T15:53:45.000Z</time>
        <extensions>
          <ns3:TrackPointExtension>
            <ns3:atemp>18.0</ns3:atemp>
          </ns3:TrackPointExtension>
        </extensions>
      </trkpt>
      <trkpt lat="46.724045164883136749267578125" lon="6.85740572400391101837158203125">
        <ele>372.79998779296875</ele>
        <time>2013-09-01T15:53:46.000Z</time>
        <extensions>
          <ns3:TrackPointExtension>
            <ns3:atemp>18.0</ns3:atemp>
          </ns3:TrackPointExtension>
        </extensions>
      </trkpt>
      <trkpt lat="46.7241009883582592010498046875" lon="6.857452578842639923095703125">
        <ele>373</ele>
        <time>2013-09-01T15:53:47.000Z</time>
        <extensions>
          <ns3:TrackPointExtension>
            <ns3:atemp>18.0</ns3:atemp>
          </ns3:TrackPointExtension>
        </extensions>
      </trkpt>
      <trkpt lat="46.7241566441953182220458984375" lon="6.85750111006200313568115234375">
        <ele>373.20001220703125</ele>
        <time>2013-09-01T15:53:48.000Z</time>
        <extensions>
          <ns3:TrackPointExtension>
            <ns3:atemp>18.0</ns3:atemp>
          </ns3:TrackPointExtension>
        </extensions>
      </trkpt>
      <trkpt lat="46.7242109589278697967529296875" lon="6.857550144195556640625">
        <ele>373.20001220703125</ele>
        <time>2013-09-01T15:53:49.000Z</time>
        <extensions>
          <ns3:TrackPointExtension>
            <ns3:atemp>18.0</ns3:atemp>
          </ns3:TrackPointExtension>
        </extensions>
      </trkpt>
      <trkpt lat="46.724265776574611663818359375" lon="6.85759565792977809906005859375">
        <ele>373</ele>
        <time>2013-09-01T15:53:50.000Z</time>
        <extensions>
          <ns3:TrackPointExtension>
            <ns3:atemp>18.0</ns3:atemp>
          </ns3:TrackPointExtension>
        </extensions>
      </trkpt>
      <trkpt lat="46.7243222706019878387451171875" lon="6.85764008201658725738525390625">
        <ele>372.79998779296875</ele>
        <time>2013-09-01T15:53:51.000Z</time>
        <extensions>
          <ns3:TrackPointExtension>
            <ns3:atemp>18.0</ns3:atemp>
          </ns3:TrackPointExtension>
        </extensions>
      </trkpt>
      <trkpt lat="46.724379099905490875244140625" lon="6.8576855957508087158203125">
        <ele>372.79998779296875</ele>
        <time>2013-09-01T15:53:52.000Z</time>
        <extensions>
          <ns3:TrackPointExtension>
            <ns3:atemp>18.0</ns3:atemp>
          </ns3:TrackPointExtension>
        </extensions>
      </trkpt>
      <trkpt lat="46.72443668358027935028076171875" lon="6.8577296845614910125732421875">
        <ele>372.600006103515625</ele>
        <time>2013-09-01T15:53:53.000Z</time>
        <extensions>
          <ns3:TrackPointExtension>
            <ns3:atemp>18.0</ns3:atemp>
          </ns3:TrackPointExtension>
        </extensions>
      </trkpt>
      <trkpt lat="46.724495105445384979248046875" lon="6.8577732704579830169677734375">
        <ele>372.600006103515625</ele>
        <time>2013-09-01T15:53:54.000Z</time>
        <extensions>
          <ns3:TrackPointExtension>
            <ns3:atemp>18.0</ns3:atemp>
          </ns3:TrackPointExtension>
        </extensions>
      </trkpt>
      <trkpt lat="46.72455268912017345428466796875" lon="6.85781744308769702911376953125">
        <ele>372.20001220703125</ele>
        <time>2013-09-01T15:53:55.000Z</time>
        <extensions>
          <ns3:TrackPointExtension>
            <ns3:atemp>18.0</ns3:atemp>
          </ns3:TrackPointExtension>
        </extensions>
      </trkpt>
      <trkpt lat="46.7246116138994693756103515625" lon="6.85786169953644275665283203125">
        <ele>371.79998779296875</ele>
        <time>2013-09-01T15:53:56.000Z</time>
        <extensions>
          <ns3:TrackPointExtension>
            <ns3:atemp>18.0</ns3:atemp>
          </ns3:TrackPointExtension>
        </extensions>
      </trkpt>
      <trkpt lat="46.7246697843074798583984375" lon="6.857906877994537353515625">
        <ele>371.399993896484375</ele>
        <time>2013-09-01T15:53:57.000Z</time>
        <extensions>
          <ns3:TrackPointExtension>
            <ns3:atemp>18.0</ns3:atemp>
          </ns3:TrackPointExtension>
        </extensions>
      </trkpt>
      <trkpt lat="46.724726445972919464111328125" lon="6.85795457102358341217041015625">
        <ele>371.600006103515625</ele>
        <time>2013-09-01T15:53:58.000Z</time>
        <extensions>
          <ns3:TrackPointExtension>
            <ns3:atemp>18.0</ns3:atemp>
          </ns3:TrackPointExtension>
        </extensions>
      </trkpt>
      <trkpt lat="46.7247824370861053466796875" lon="6.8580032698810100555419921875">
        <ele>371.79998779296875</ele>
        <time>2013-09-01T15:53:59.000Z</time>
        <extensions>
          <ns3:TrackPointExtension>
            <ns3:atemp>18.0</ns3:atemp>
          </ns3:TrackPointExtension>
        </extensions>
      </trkpt>
      <trkpt lat="46.72483809292316436767578125" lon="6.85805330984294414520263671875">
        <ele>371.79998779296875</ele>
        <time>2013-09-01T15:54:00.000Z</time>
        <extensions>
          <ns3:TrackPointExtension>
            <ns3:atemp>18.0</ns3:atemp>
          </ns3:TrackPointExtension>
        </extensions>
      </trkpt>
      <trkpt lat="46.72489265911281108856201171875" lon="6.8581045232713222503662109375">
        <ele>371.79998779296875</ele>
        <time>2013-09-01T15:54:01.000Z</time>
        <extensions>
          <ns3:TrackPointExtension>
            <ns3:atemp>18.0</ns3:atemp>
          </ns3:TrackPointExtension>
        </extensions>
      </trkpt>
      <trkpt lat="46.724948398768901824951171875" lon="6.85815221630036830902099609375">
        <ele>371.79998779296875</ele>
        <time>2013-09-01T15:54:02.000Z</time>
        <extensions>
          <ns3:TrackPointExtension>
            <ns3:atemp>18.0</ns3:atemp>
          </ns3:TrackPointExtension>
        </extensions>
      </trkpt>
      <trkpt lat="46.72500346787273883819580078125" lon="6.8581987358629703521728515625">
        <ele>371.399993896484375</ele>
        <time>2013-09-01T15:54:03.000Z</time>
        <extensions>
          <ns3:TrackPointExtension>
            <ns3:atemp>18.0</ns3:atemp>
          </ns3:TrackPointExtension>
        </extensions>
      </trkpt>
      <trkpt lat="46.7250565253198146820068359375" lon="6.8582460097968578338623046875">
        <ele>371.20001220703125</ele>
        <time>2013-09-01T15:54:04.000Z</time>
        <extensions>
          <ns3:TrackPointExtension>
            <ns3:atemp>18.0</ns3:atemp>
          </ns3:TrackPointExtension>
        </extensions>
      </trkpt>
      <trkpt lat="46.725107990205287933349609375" lon="6.85829202644526958465576171875">
        <ele>371</ele>
        <time>2013-09-01T15:54:05.000Z</time>
        <extensions>
          <ns3:TrackPointExtension>
            <ns3:atemp>18.0</ns3:atemp>
          </ns3:TrackPointExtension>
        </extensions>
      </trkpt>
      <trkpt lat="46.72515886835753917694091796875" lon="6.85832999646663665771484375">
        <ele>371</ele>
        <time>2013-09-01T15:54:06.000Z</time>
        <extensions>
          <ns3:TrackPointExtension>
            <ns3:atemp>18.0</ns3:atemp>
          </ns3:TrackPointExtension>
        </extensions>
      </trkpt>
      <trkpt lat="46.7252084054052829742431640625" lon="6.85836528427898883819580078125">
        <ele>371</ele>
        <time>2013-09-01T15:54:07.000Z</time>
        <extensions>
          <ns3:TrackPointExtension>
            <ns3:atemp>18.0</ns3:atemp>
          </ns3:TrackPointExtension>
        </extensions>
      </trkpt>
      <trkpt lat="46.72525643371045589447021484375" lon="6.85839529149234294891357421875">
        <ele>371</ele>
        <time>2013-09-01T15:54:08.000Z</time>
        <extensions>
          <ns3:TrackPointExtension>
            <ns3:atemp>18.0</ns3:atemp>
          </ns3:TrackPointExtension>
        </extensions>
      </trkpt>
      <trkpt lat="46.7253009416162967681884765625" lon="6.85841926373541355133056640625">
        <ele>371</ele>
        <time>2013-09-01T15:54:09.000Z</time>
        <extensions>
          <ns3:TrackPointExtension>
            <ns3:atemp>18.0</ns3:atemp>
          </ns3:TrackPointExtension>
        </extensions>
      </trkpt>
      <trkpt lat="46.7253478802740573883056640625" lon="6.85843787156045436859130859375">
        <ele>370.79998779296875</ele>
        <time>2013-09-01T15:54:10.000Z</time>
        <extensions>
          <ns3:TrackPointExtension>
            <ns3:atemp>18.0</ns3:atemp>
          </ns3:TrackPointExtension>
        </extensions>
      </trkpt>
      <trkpt lat="46.7253971658647060394287109375" lon="6.85845513828098773956298828125">
        <ele>370.20001220703125</ele>
        <time>2013-09-01T15:54:11.000Z</time>
        <extensions>
          <ns3:TrackPointExtension>
            <ns3:atemp>18.0</ns3:atemp>
          </ns3:TrackPointExtension>
        </extensions>
      </trkpt>
      <trkpt lat="46.7254417575895786285400390625" lon="6.85847173444926738739013671875">
        <ele>369.600006103515625</ele>
        <time>2013-09-01T15:54:12.000Z</time>
        <extensions>
          <ns3:TrackPointExtension>
            <ns3:atemp>18.0</ns3:atemp>
          </ns3:TrackPointExtension>
        </extensions>
      </trkpt>
      <trkpt lat="46.7254819907248020172119140625" lon="6.85847559012472629547119140625">
        <ele>369.20001220703125</ele>
        <time>2013-09-01T15:54:13.000Z</time>
        <extensions>
          <ns3:TrackPointExtension>
            <ns3:atemp>18.0</ns3:atemp>
          </ns3:TrackPointExtension>
        </extensions>
      </trkpt>
      <trkpt lat="46.725510992109775543212890625" lon="6.8584763444960117340087890625">
        <ele>368.79998779296875</ele>
        <time>2013-09-01T15:54:14.000Z</time>
        <extensions>
          <ns3:TrackPointExtension>
            <ns3:atemp>18.0</ns3:atemp>
          </ns3:TrackPointExtension>
        </extensions>
      </trkpt>
      <trkpt lat="46.72553144395351409912109375" lon="6.8584860675036907196044921875">
        <ele>368.600006103515625</ele>
        <time>2013-09-01T15:54:15.000Z</time>
        <extensions>
          <ns3:TrackPointExtension>
            <ns3:atemp>18.0</ns3:atemp>
          </ns3:TrackPointExtension>
        </extensions>
      </trkpt>
      <trkpt lat="46.72554812394082546234130859375" lon="6.85850325040519237518310546875">
        <ele>368.600006103515625</ele>
        <time>2013-09-01T15:54:16.000Z</time>
        <extensions>
          <ns3:TrackPointExtension>
            <ns3:atemp>18.0</ns3:atemp>
          </ns3:TrackPointExtension>
        </extensions>
      </trkpt>
      <trkpt lat="46.725567989051342010498046875" lon="6.8585226126015186309814453125">
        <ele>368.600006103515625</ele>
        <time>2013-09-01T15:54:17.000Z</time>
        <extensions>
          <ns3:TrackPointExtension>
            <ns3:atemp>18.0</ns3:atemp>
          </ns3:TrackPointExtension>
        </extensions>
      </trkpt>
      <trkpt lat="46.72558768652379512786865234375" lon="6.8585494346916675567626953125">
        <ele>368.600006103515625</ele>
        <time>2013-09-01T15:54:18.000Z</time>
        <extensions>
          <ns3:TrackPointExtension>
            <ns3:atemp>18.0</ns3:atemp>
          </ns3:TrackPointExtension>
        </extensions>
      </trkpt>
      <trkpt lat="46.72561056911945343017578125" lon="6.85858807526528835296630859375">
        <ele>368.399993896484375</ele>
        <time>2013-09-01T15:54:19.000Z</time>
        <extensions>
          <ns3:TrackPointExtension>
            <ns3:atemp>18.0</ns3:atemp>
          </ns3:TrackPointExtension>
        </extensions>
      </trkpt>
      <trkpt lat="46.725639738142490386962890625" lon="6.85863484628498554229736328125">
        <ele>368.399993896484375</ele>
        <time>2013-09-01T15:54:20.000Z</time>
        <extensions>
          <ns3:TrackPointExtension>
            <ns3:atemp>18.0</ns3:atemp>
          </ns3:TrackPointExtension>
        </extensions>
      </trkpt>
      <trkpt lat="46.72567184083163738250732421875" lon="6.85868673026561737060546875">
        <ele>368.600006103515625</ele>
        <time>2013-09-01T15:54:21.000Z</time>
        <extensions>
          <ns3:TrackPointExtension>
            <ns3:atemp>18.0</ns3:atemp>
          </ns3:TrackPointExtension>
        </extensions>
      </trkpt>
      <trkpt lat="46.7257012613117694854736328125" lon="6.858741380274295806884765625">
        <ele>368.79998779296875</ele>
        <time>2013-09-01T15:54:22.000Z</time>
        <extensions>
          <ns3:TrackPointExtension>
            <ns3:atemp>18.0</ns3:atemp>
          </ns3:TrackPointExtension>
        </extensions>
      </trkpt>
      <trkpt lat="46.7257324419915676116943359375" lon="6.8587958626449108123779296875">
        <ele>369.600006103515625</ele>
        <time>2013-09-01T15:54:23.000Z</time>
        <extensions>
          <ns3:TrackPointExtension>
            <ns3:atemp>18.0</ns3:atemp>
          </ns3:TrackPointExtension>
        </extensions>
      </trkpt>
      <trkpt lat="46.72576974146068096160888671875" lon="6.85884791426360607147216796875">
        <ele>369.79998779296875</ele>
        <time>2013-09-01T15:54:24.000Z</time>
        <extensions>
          <ns3:TrackPointExtension>
            <ns3:atemp>18.0</ns3:atemp>
          </ns3:TrackPointExtension>
        </extensions>
      </trkpt>
      <trkpt lat="46.725818105041980743408203125" lon="6.85889049433171749114990234375">
        <ele>370</ele>
        <time>2013-09-01T15:54:25.000Z</time>
        <extensions>
          <ns3:TrackPointExtension>
            <ns3:atemp>18.0</ns3:atemp>
          </ns3:TrackPointExtension>
        </extensions>
      </trkpt>
      <trkpt lat="46.72587015666067600250244140625" lon="6.8589279614388942718505859375">
        <ele>370.20001220703125</ele>
        <time>2013-09-01T15:54:26.000Z</time>
        <extensions>
          <ns3:TrackPointExtension>
            <ns3:atemp>18.0</ns3:atemp>
          </ns3:TrackPointExtension>
        </extensions>
      </trkpt>
      <trkpt lat="46.72592329792678356170654296875" lon="6.85896760784089565277099609375">
        <ele>370.600006103515625</ele>
        <time>2013-09-01T15:54:27.000Z</time>
        <extensions>
          <ns3:TrackPointExtension>
            <ns3:atemp>18.0</ns3:atemp>
          </ns3:TrackPointExtension>
        </extensions>
      </trkpt>
      <trkpt lat="46.72597861848771572113037109375" lon="6.859000883996486663818359375">
        <ele>370.79998779296875</ele>
        <time>2013-09-01T15:54:28.000Z</time>
        <extensions>
          <ns3:TrackPointExtension>
            <ns3:atemp>18.0</ns3:atemp>
          </ns3:TrackPointExtension>
        </extensions>
      </trkpt>
      <trkpt lat="46.7260348610579967498779296875" lon="6.85903801582753658294677734375">
        <ele>371</ele>
        <time>2013-09-01T15:54:29.000Z</time>
        <extensions>
          <ns3:TrackPointExtension>
            <ns3:atemp>18.0</ns3:atemp>
          </ns3:TrackPointExtension>
        </extensions>
      </trkpt>
      <trkpt lat="46.72609068453311920166015625" lon="6.85908227227628231048583984375">
        <ele>370.79998779296875</ele>
        <time>2013-09-01T15:54:30.000Z</time>
        <extensions>
          <ns3:TrackPointExtension>
            <ns3:atemp>18.0</ns3:atemp>
          </ns3:TrackPointExtension>
        </extensions>
      </trkpt>
      <trkpt lat="46.7261475138366222381591796875" lon="6.85912753455340862274169921875">
        <ele>370.600006103515625</ele>
        <time>2013-09-01T15:54:31.000Z</time>
        <extensions>
          <ns3:TrackPointExtension>
            <ns3:atemp>18.0</ns3:atemp>
          </ns3:TrackPointExtension>
        </extensions>
      </trkpt>
      <trkpt lat="46.7262028343975543975830078125" lon="6.85917162336409091949462890625">
        <ele>370.399993896484375</ele>
        <time>2013-09-01T15:54:32.000Z</time>
        <extensions>
          <ns3:TrackPointExtension>
            <ns3:atemp>18.0</ns3:atemp>
          </ns3:TrackPointExtension>
        </extensions>
      </trkpt>
      <trkpt lat="46.72625723294913768768310546875" lon="6.8592169694602489471435546875">
        <ele>370.600006103515625</ele>
        <time>2013-09-01T15:54:33.000Z</time>
        <extensions>
          <ns3:TrackPointExtension>
            <ns3:atemp>18.0</ns3:atemp>
          </ns3:TrackPointExtension>
        </extensions>
      </trkpt>
      <trkpt lat="46.72630920074880123138427734375" lon="6.85926348902285099029541015625">
        <ele>370.600006103515625</ele>
        <time>2013-09-01T15:54:34.000Z</time>
        <extensions>
          <ns3:TrackPointExtension>
            <ns3:atemp>18.0</ns3:atemp>
          </ns3:TrackPointExtension>
        </extensions>
      </trkpt>
      <trkpt lat="46.72636183910071849822998046875" lon="6.8593088351190090179443359375">
        <ele>370.600006103515625</ele>
        <time>2013-09-01T15:54:35.000Z</time>
        <extensions>
          <ns3:TrackPointExtension>
            <ns3:atemp>18.0</ns3:atemp>
          </ns3:TrackPointExtension>
        </extensions>
      </trkpt>
      <trkpt lat="46.7264137230813503265380859375" lon="6.85935317538678646087646484375">
        <ele>370.600006103515625</ele>
        <time>2013-09-01T15:54:36.000Z</time>
        <extensions>
          <ns3:TrackPointExtension>
            <ns3:atemp>18.0</ns3:atemp>
          </ns3:TrackPointExtension>
        </extensions>
      </trkpt>
      <trkpt lat="46.72646510414779186248779296875" lon="6.8593963421881198883056640625">
        <ele>370.600006103515625</ele>
        <time>2013-09-01T15:54:37.000Z</time>
        <extensions>
          <ns3:TrackPointExtension>
            <ns3:atemp>18.0</ns3:atemp>
          </ns3:TrackPointExtension>
        </extensions>
      </trkpt>
      <trkpt lat="46.72651673667132854461669921875" lon="6.85943967662751674652099609375">
        <ele>370.600006103515625</ele>
        <time>2013-09-01T15:54:38.000Z</time>
        <extensions>
          <ns3:TrackPointExtension>
            <ns3:atemp>18.0</ns3:atemp>
          </ns3:TrackPointExtension>
        </extensions>
      </trkpt>
      <trkpt lat="46.726567447185516357421875" lon="6.85948468744754791259765625">
        <ele>370.399993896484375</ele>
        <time>2013-09-01T15:54:39.000Z</time>
        <extensions>
          <ns3:TrackPointExtension>
            <ns3:atemp>18.0</ns3:atemp>
          </ns3:TrackPointExtension>
        </extensions>
      </trkpt>
      <trkpt lat="46.726618744432926177978515625" lon="6.85952902771532535552978515625">
        <ele>370.20001220703125</ele>
        <time>2013-09-01T15:54:40.000Z</time>
        <extensions>
          <ns3:TrackPointExtension>
            <ns3:atemp>18.0</ns3:atemp>
          </ns3:TrackPointExtension>
        </extensions>
      </trkpt>
      <trkpt lat="46.726669035851955413818359375" lon="6.85957613401114940643310546875">
        <ele>370.20001220703125</ele>
        <time>2013-09-01T15:54:41.000Z</time>
        <extensions>
          <ns3:TrackPointExtension>
            <ns3:atemp>18.0</ns3:atemp>
          </ns3:TrackPointExtension>
        </extensions>
      </trkpt>
      <trkpt lat="46.72672008164227008819580078125" lon="6.85962290503084659576416015625">
        <ele>370.20001220703125</ele>
        <time>2013-09-01T15:54:42.000Z</time>
        <extensions>
          <ns3:TrackPointExtension>
            <ns3:atemp>18.0</ns3:atemp>
          </ns3:TrackPointExtension>
        </extensions>
      </trkpt>
      <trkpt lat="46.726771295070648193359375" lon="6.859670765697956085205078125">
        <ele>370</ele>
        <time>2013-09-01T15:54:43.000Z</time>
        <extensions>
          <ns3:TrackPointExtension>
            <ns3:atemp>18.0</ns3:atemp>
          </ns3:TrackPointExtension>
        </extensions>
      </trkpt>
      <trkpt lat="46.7268227599561214447021484375" lon="6.85972114093601703643798828125">
        <ele>370</ele>
        <time>2013-09-01T15:54:44.000Z</time>
        <extensions>
          <ns3:TrackPointExtension>
            <ns3:atemp>18.0</ns3:atemp>
          </ns3:TrackPointExtension>
        </extensions>
      </trkpt>
      <trkpt lat="46.72687531448900699615478515625" lon="6.85976900160312652587890625">
        <ele>370.20001220703125</ele>
        <time>2013-09-01T15:54:45.000Z</time>
        <extensions>
          <ns3:TrackPointExtension>
            <ns3:atemp>18.0</ns3:atemp>
          </ns3:TrackPointExtension>
        </extensions>
      </trkpt>
      <trkpt lat="46.72692912630736827850341796875" lon="6.8598179519176483154296875">
        <ele>370.20001220703125</ele>
        <time>2013-09-01T15:54:46.000Z</time>
        <extensions>
          <ns3:TrackPointExtension>
            <ns3:atemp>18.0</ns3:atemp>
          </ns3:TrackPointExtension>
        </extensions>
      </trkpt>
      <trkpt lat="46.72698209993541240692138671875" lon="6.85986665077507495880126953125">
        <ele>370.399993896484375</ele>
        <time>2013-09-01T15:54:47.000Z</time>
        <extensions>
          <ns3:TrackPointExtension>
            <ns3:atemp>18.0</ns3:atemp>
          </ns3:TrackPointExtension>
        </extensions>
      </trkpt>
      <trkpt lat="46.72703658230602741241455078125" lon="6.85991224832832813262939453125">
        <ele>370.20001220703125</ele>
        <time>2013-09-01T15:54:48.000Z</time>
        <extensions>
          <ns3:TrackPointExtension>
            <ns3:atemp>18.0</ns3:atemp>
          </ns3:TrackPointExtension>
        </extensions>
      </trkpt>
      <trkpt lat="46.72709274105727672576904296875" lon="6.85995935462415218353271484375">
        <ele>370.399993896484375</ele>
        <time>2013-09-01T15:54:49.000Z</time>
        <extensions>
          <ns3:TrackPointExtension>
            <ns3:atemp>18.0</ns3:atemp>
          </ns3:TrackPointExtension>
        </extensions>
      </trkpt>
      <trkpt lat="46.7271469719707965850830078125" lon="6.860009394586086273193359375">
        <ele>370.399993896484375</ele>
        <time>2013-09-01T15:54:50.000Z</time>
        <extensions>
          <ns3:TrackPointExtension>
            <ns3:atemp>18.0</ns3:atemp>
          </ns3:TrackPointExtension>
        </extensions>
      </trkpt>
      <trkpt lat="46.7272026278078556060791015625" lon="6.86005557887256145477294921875">
        <ele>370.399993896484375</ele>
        <time>2013-09-01T15:54:51.000Z</time>
        <extensions>
          <ns3:TrackPointExtension>
            <ns3:atemp>18.0</ns3:atemp>
          </ns3:TrackPointExtension>
        </extensions>
      </trkpt>
      <trkpt lat="46.7272579483687877655029296875" lon="6.86010251753032207489013671875">
        <ele>370.600006103515625</ele>
        <time>2013-09-01T15:54:52.000Z</time>
        <extensions>
          <ns3:TrackPointExtension>
            <ns3:atemp>18.0</ns3:atemp>
          </ns3:TrackPointExtension>
        </extensions>
      </trkpt>
      <trkpt lat="46.72731201164424419403076171875" lon="6.860148869454860687255859375">
        <ele>370.399993896484375</ele>
        <time>2013-09-01T15:54:53.000Z</time>
        <extensions>
          <ns3:TrackPointExtension>
            <ns3:atemp>18.0</ns3:atemp>
          </ns3:TrackPointExtension>
        </extensions>
      </trkpt>
      <trkpt lat="46.72736716456711292266845703125" lon="6.86019706539809703826904296875">
        <ele>370.20001220703125</ele>
        <time>2013-09-01T15:54:54.000Z</time>
        <extensions>
          <ns3:TrackPointExtension>
            <ns3:atemp>18.0</ns3:atemp>
          </ns3:TrackPointExtension>
        </extensions>
      </trkpt>
      <trkpt lat="46.7274198867380619049072265625" lon="6.86024635098874568939208984375">
        <ele>370.20001220703125</ele>
        <time>2013-09-01T15:54:55.000Z</time>
        <extensions>
          <ns3:TrackPointExtension>
            <ns3:atemp>18.0</ns3:atemp>
          </ns3:TrackPointExtension>
        </extensions>
      </trkpt>
      <trkpt lat="46.72747294418513774871826171875" lon="6.860297732055187225341796875">
        <ele>370.20001220703125</ele>
        <time>2013-09-01T15:54:56.000Z</time>
        <extensions>
          <ns3:TrackPointExtension>
            <ns3:atemp>18.0</ns3:atemp>
          </ns3:TrackPointExtension>
        </extensions>
      </trkpt>
      <trkpt lat="46.72752491198480129241943359375" lon="6.860347352921962738037109375">
        <ele>370.399993896484375</ele>
        <time>2013-09-01T15:54:57.000Z</time>
        <extensions>
          <ns3:TrackPointExtension>
            <ns3:atemp>18.0</ns3:atemp>
          </ns3:TrackPointExtension>
        </extensions>
      </trkpt>
      <trkpt lat="46.72757738269865512847900390625" lon="6.860397644340991973876953125">
        <ele>370.79998779296875</ele>
        <time>2013-09-01T15:54:58.000Z</time>
        <extensions>
          <ns3:TrackPointExtension>
            <ns3:atemp>18.0</ns3:atemp>
          </ns3:TrackPointExtension>
        </extensions>
      </trkpt>
      <trkpt lat="46.7276307754218578338623046875" lon="6.860449276864528656005859375">
        <ele>371</ele>
        <time>2013-09-01T15:54:59.000Z</time>
        <extensions>
          <ns3:TrackPointExtension>
            <ns3:atemp>18.0</ns3:atemp>
          </ns3:TrackPointExtension>
        </extensions>
      </trkpt>
      <trkpt lat="46.72768483869731426239013671875" lon="6.860502250492572784423828125">
        <ele>371</ele>
        <time>2013-09-01T15:55:00.000Z</time>
        <extensions>
          <ns3:TrackPointExtension>
            <ns3:atemp>18.0</ns3:atemp>
          </ns3:TrackPointExtension>
        </extensions>
      </trkpt>
      <trkpt lat="46.727739237248897552490234375" lon="6.860554218292236328125">
        <ele>370.600006103515625</ele>
        <time>2013-09-01T15:55:01.000Z</time>
        <extensions>
          <ns3:TrackPointExtension>
            <ns3:atemp>18.0</ns3:atemp>
          </ns3:TrackPointExtension>
        </extensions>
      </trkpt>
      <trkpt lat="46.7277953960001468658447265625" lon="6.86060006730258464813232421875">
        <ele>370.399993896484375</ele>
        <time>2013-09-01T15:55:02.000Z</time>
        <extensions>
          <ns3:TrackPointExtension>
            <ns3:atemp>18.0</ns3:atemp>
          </ns3:TrackPointExtension>
        </extensions>
      </trkpt>
      <trkpt lat="46.727851890027523040771484375" lon="6.86064432375133037567138671875">
        <ele>370</ele>
        <time>2013-09-01T15:55:03.000Z</time>
        <extensions>
          <ns3:TrackPointExtension>
            <ns3:atemp>18.0</ns3:atemp>
          </ns3:TrackPointExtension>
        </extensions>
      </trkpt>
      <trkpt lat="46.7279098927974700927734375" lon="6.86069243587553501129150390625">
        <ele>369.79998779296875</ele>
        <time>2013-09-01T15:55:04.000Z</time>
        <extensions>
          <ns3:TrackPointExtension>
            <ns3:atemp>18.0</ns3:atemp>
          </ns3:TrackPointExtension>
        </extensions>
      </trkpt>
      <trkpt lat="46.72796462662518024444580078125" lon="6.86074339784681797027587890625">
        <ele>369.600006103515625</ele>
        <time>2013-09-01T15:55:05.000Z</time>
        <extensions>
          <ns3:TrackPointExtension>
            <ns3:atemp>18.0</ns3:atemp>
          </ns3:TrackPointExtension>
        </extensions>
      </trkpt>
      <trkpt lat="46.72801508568227291107177734375" lon="6.860799305140972137451171875">
        <ele>369.600006103515625</ele>
        <time>2013-09-01T15:55:06.000Z</time>
        <extensions>
          <ns3:TrackPointExtension>
            <ns3:atemp>18.0</ns3:atemp>
          </ns3:TrackPointExtension>
        </extensions>
      </trkpt>
      <trkpt lat="46.72806336544454097747802734375" lon="6.86085822992026805877685546875">
        <ele>369.399993896484375</ele>
        <time>2013-09-01T15:55:07.000Z</time>
        <extensions>
          <ns3:TrackPointExtension>
            <ns3:atemp>18.0</ns3:atemp>
          </ns3:TrackPointExtension>
        </extensions>
      </trkpt>
      <trkpt lat="46.7281139083206653594970703125" lon="6.86090701259672641754150390625">
        <ele>369.20001220703125</ele>
        <time>2013-09-01T15:55:08.000Z</time>
        <extensions>
          <ns3:TrackPointExtension>
            <ns3:atemp>18.0</ns3:atemp>
          </ns3:TrackPointExtension>
        </extensions>
      </trkpt>
      <trkpt lat="46.72816671431064605712890625" lon="6.86094992794096469879150390625">
        <ele>369.20001220703125</ele>
        <time>2013-09-01T15:55:09.000Z</time>
        <extensions>
          <ns3:TrackPointExtension>
            <ns3:atemp>18.0</ns3:atemp>
          </ns3:TrackPointExtension>
        </extensions>
      </trkpt>
      <trkpt lat="46.7282222025096416473388671875" lon="6.86099343001842498779296875">
        <ele>369.399993896484375</ele>
        <time>2013-09-01T15:55:10.000Z</time>
        <extensions>
          <ns3:TrackPointExtension>
            <ns3:atemp>18.0</ns3:atemp>
          </ns3:TrackPointExtension>
        </extensions>
      </trkpt>
      <trkpt lat="46.72827777452766895294189453125" lon="6.8610378541052341461181640625">
        <ele>369.600006103515625</ele>
        <time>2013-09-01T15:55:11.000Z</time>
        <extensions>
          <ns3:TrackPointExtension>
            <ns3:atemp>18.0</ns3:atemp>
          </ns3:TrackPointExtension>
        </extensions>
      </trkpt>
      <trkpt lat="46.728334687650203704833984375" lon="6.86108537949621677398681640625">
        <ele>369.399993896484375</ele>
        <time>2013-09-01T15:55:12.000Z</time>
        <extensions>
          <ns3:TrackPointExtension>
            <ns3:atemp>18.0</ns3:atemp>
          </ns3:TrackPointExtension>
        </extensions>
      </trkpt>
      <trkpt lat="46.7283898405730724334716796875" lon="6.8611327372491359710693359375">
        <ele>369.600006103515625</ele>
        <time>2013-09-01T15:55:13.000Z</time>
        <extensions>
          <ns3:TrackPointExtension>
            <ns3:atemp>18.0</ns3:atemp>
          </ns3:TrackPointExtension>
        </extensions>
      </trkpt>
      <trkpt lat="46.72844558022916316986083984375" lon="6.861178837716579437255859375">
        <ele>369.399993896484375</ele>
        <time>2013-09-01T15:55:14.000Z</time>
        <extensions>
          <ns3:TrackPointExtension>
            <ns3:atemp>18.0</ns3:atemp>
          </ns3:TrackPointExtension>
        </extensions>
      </trkpt>
      <trkpt lat="46.72850090079009532928466796875" lon="6.86122820712625980377197265625">
        <ele>369.399993896484375</ele>
        <time>2013-09-01T15:55:15.000Z</time>
        <extensions>
          <ns3:TrackPointExtension>
            <ns3:atemp>18.0</ns3:atemp>
          </ns3:TrackPointExtension>
        </extensions>
      </trkpt>
      <trkpt lat="46.7285574786365032196044921875" lon="6.8612735532224178314208984375">
        <ele>369.399993896484375</ele>
        <time>2013-09-01T15:55:16.000Z</time>
        <extensions>
          <ns3:TrackPointExtension>
            <ns3:atemp>18.0</ns3:atemp>
          </ns3:TrackPointExtension>
        </extensions>
      </trkpt>
      <trkpt lat="46.7286144755780696868896484375" lon="6.861318647861480712890625">
        <ele>369.600006103515625</ele>
        <time>2013-09-01T15:55:17.000Z</time>
        <extensions>
          <ns3:TrackPointExtension>
            <ns3:atemp>18.0</ns3:atemp>
          </ns3:TrackPointExtension>
        </extensions>
      </trkpt>
      <trkpt lat="46.72867205925285816192626953125" lon="6.86136282049119472503662109375">
        <ele>369.600006103515625</ele>
        <time>2013-09-01T15:55:18.000Z</time>
        <extensions>
          <ns3:TrackPointExtension>
            <ns3:atemp>18.0</ns3:atemp>
          </ns3:TrackPointExtension>
        </extensions>
      </trkpt>
      <trkpt lat="46.72873006202280521392822265625" lon="6.861403472721576690673828125">
        <ele>369.600006103515625</ele>
        <time>2013-09-01T15:55:19.000Z</time>
        <extensions>
          <ns3:TrackPointExtension>
            <ns3:atemp>18.0</ns3:atemp>
          </ns3:TrackPointExtension>
        </extensions>
      </trkpt>
      <trkpt lat="46.7287881486117839813232421875" lon="6.8614447116851806640625">
        <ele>369.600006103515625</ele>
        <time>2013-09-01T15:55:20.000Z</time>
        <extensions>
          <ns3:TrackPointExtension>
            <ns3:atemp>18.0</ns3:atemp>
          </ns3:TrackPointExtension>
        </extensions>
      </trkpt>
      <trkpt lat="46.7288478277623653411865234375" lon="6.86148720793426036834716796875">
        <ele>369.600006103515625</ele>
        <time>2013-09-01T15:55:21.000Z</time>
        <extensions>
          <ns3:TrackPointExtension>
            <ns3:atemp>18.0</ns3:atemp>
          </ns3:TrackPointExtension>
        </extensions>
      </trkpt>
      <trkpt lat="46.728909350931644439697265625" lon="6.8615303747355937957763671875">
        <ele>369.399993896484375</ele>
        <time>2013-09-01T15:55:22.000Z</time>
        <extensions>
          <ns3:TrackPointExtension>
            <ns3:atemp>18.0</ns3:atemp>
          </ns3:TrackPointExtension>
        </extensions>
      </trkpt>
      <trkpt lat="46.7289720475673675537109375" lon="6.86157588846981525421142578125">
        <ele>369.20001220703125</ele>
        <time>2013-09-01T15:55:23.000Z</time>
        <extensions>
          <ns3:TrackPointExtension>
            <ns3:atemp>18.0</ns3:atemp>
          </ns3:TrackPointExtension>
        </extensions>
      </trkpt>
      <trkpt lat="46.7290352471172809600830078125" lon="6.86162148602306842803955078125">
        <ele>368.79998779296875</ele>
        <time>2013-09-01T15:55:24.000Z</time>
        <extensions>
          <ns3:TrackPointExtension>
            <ns3:atemp>18.0</ns3:atemp>
          </ns3:TrackPointExtension>
        </extensions>
      </trkpt>
      <trkpt lat="46.72909744083881378173828125" lon="6.8616685084998607635498046875">
        <ele>368.600006103515625</ele>
        <time>2013-09-01T15:55:25.000Z</time>
        <extensions>
          <ns3:TrackPointExtension>
            <ns3:atemp>18.0</ns3:atemp>
          </ns3:TrackPointExtension>
        </extensions>
      </trkpt>
      <trkpt lat="46.729158796370029449462890625" lon="6.86171687208116054534912109375">
        <ele>368.399993896484375</ele>
        <time>2013-09-01T15:55:26.000Z</time>
        <extensions>
          <ns3:TrackPointExtension>
            <ns3:atemp>18.0</ns3:atemp>
          </ns3:TrackPointExtension>
        </extensions>
      </trkpt>
      <trkpt lat="46.72921889461576938629150390625" lon="6.86176456511020660400390625">
        <ele>368.20001220703125</ele>
        <time>2013-09-01T15:55:27.000Z</time>
        <extensions>
          <ns3:TrackPointExtension>
            <ns3:atemp>18.0</ns3:atemp>
          </ns3:TrackPointExtension>
        </extensions>
      </trkpt>
      <trkpt lat="46.72927974723279476165771484375" lon="6.8618140183389186859130859375">
        <ele>368.20001220703125</ele>
        <time>2013-09-01T15:55:28.000Z</time>
        <extensions>
          <ns3:TrackPointExtension>
            <ns3:atemp>18.0</ns3:atemp>
          </ns3:TrackPointExtension>
        </extensions>
      </trkpt>
      <trkpt lat="46.729337163269519805908203125" lon="6.861867494881153106689453125">
        <ele>368</ele>
        <time>2013-09-01T15:55:29.000Z</time>
        <extensions>
          <ns3:TrackPointExtension>
            <ns3:atemp>18.0</ns3:atemp>
          </ns3:TrackPointExtension>
        </extensions>
      </trkpt>
      <trkpt lat="46.7293973453342914581298828125" lon="6.86191837303340435028076171875">
        <ele>368.399993896484375</ele>
        <time>2013-09-01T15:55:30.000Z</time>
        <extensions>
          <ns3:TrackPointExtension>
            <ns3:atemp>18.0</ns3:atemp>
          </ns3:TrackPointExtension>
        </extensions>
      </trkpt>
      <trkpt lat="46.72945392318069934844970703125" lon="6.8619669042527675628662109375">
        <ele>368.399993896484375</ele>
        <time>2013-09-01T15:55:31.000Z</time>
        <extensions>
          <ns3:TrackPointExtension>
            <ns3:atemp>18.0</ns3:atemp>
          </ns3:TrackPointExtension>
        </extensions>
      </trkpt>
      <trkpt lat="46.72951050102710723876953125" lon="6.86201694421470165252685546875">
        <ele>368.600006103515625</ele>
        <time>2013-09-01T15:55:32.000Z</time>
        <extensions>
          <ns3:TrackPointExtension>
            <ns3:atemp>18.0</ns3:atemp>
          </ns3:TrackPointExtension>
        </extensions>
      </trkpt>
      <trkpt lat="46.729565151035785675048828125" lon="6.8620751984417438507080078125">
        <ele>368.399993896484375</ele>
        <time>2013-09-01T15:55:33.000Z</time>
        <extensions>
          <ns3:TrackPointExtension>
            <ns3:atemp>18.0</ns3:atemp>
          </ns3:TrackPointExtension>
        </extensions>
      </trkpt>
      <trkpt lat="46.72962047159671783447265625" lon="6.86213244684040546417236328125">
        <ele>368.20001220703125</ele>
        <time>2013-09-01T15:55:34.000Z</time>
        <extensions>
          <ns3:TrackPointExtension>
            <ns3:atemp>18.0</ns3:atemp>
          </ns3:TrackPointExtension>
        </extensions>
      </trkpt>
      <trkpt lat="46.72967369668185710906982421875" lon="6.86218525283038616180419921875">
        <ele>368.20001220703125</ele>
        <time>2013-09-01T15:55:35.000Z</time>
        <extensions>
          <ns3:TrackPointExtension>
            <ns3:atemp>18.0</ns3:atemp>
          </ns3:TrackPointExtension>
        </extensions>
      </trkpt>
      <trkpt lat="46.72972784377634525299072265625" lon="6.86223185621201992034912109375">
        <ele>368.20001220703125</ele>
        <time>2013-09-01T15:55:36.000Z</time>
        <extensions>
          <ns3:TrackPointExtension>
            <ns3:atemp>18.0</ns3:atemp>
          </ns3:TrackPointExtension>
        </extensions>
      </trkpt>
      <trkpt lat="46.72977981157600879669189453125" lon="6.86227510683238506317138671875">
        <ele>368.20001220703125</ele>
        <time>2013-09-01T15:55:37.000Z</time>
        <extensions>
          <ns3:TrackPointExtension>
            <ns3:atemp>18.0</ns3:atemp>
          </ns3:TrackPointExtension>
        </extensions>
      </trkpt>
      <trkpt lat="46.72983194701373577117919921875" lon="6.86231886036694049835205078125">
        <ele>368.399993896484375</ele>
        <time>2013-09-01T15:55:38.000Z</time>
        <extensions>
          <ns3:TrackPointExtension>
            <ns3:atemp>18.0</ns3:atemp>
          </ns3:TrackPointExtension>
        </extensions>
      </trkpt>
      <trkpt lat="46.72988207079470157623291015625" lon="6.86235775239765644073486328125">
        <ele>368.399993896484375</ele>
        <time>2013-09-01T15:55:39.000Z</time>
        <extensions>
          <ns3:TrackPointExtension>
            <ns3:atemp>18.0</ns3:atemp>
          </ns3:TrackPointExtension>
        </extensions>
      </trkpt>
      <trkpt lat="46.7299284227192401885986328125" lon="6.86239697970449924468994140625">
        <ele>368.20001220703125</ele>
        <time>2013-09-01T15:55:40.000Z</time>
        <extensions>
          <ns3:TrackPointExtension>
            <ns3:atemp>18.0</ns3:atemp>
          </ns3:TrackPointExtension>
        </extensions>
      </trkpt>
      <trkpt lat="46.72997326590120792388916015625" lon="6.8624409846961498260498046875">
        <ele>368</ele>
        <time>2013-09-01T15:55:41.000Z</time>
        <extensions>
          <ns3:TrackPointExtension>
            <ns3:atemp>18.0</ns3:atemp>
          </ns3:TrackPointExtension>
        </extensions>
      </trkpt>
      <trkpt lat="46.73001131974160671234130859375" lon="6.86249471269547939300537109375">
        <ele>368</ele>
        <time>2013-09-01T15:55:42.000Z</time>
        <extensions>
          <ns3:TrackPointExtension>
            <ns3:atemp>18.0</ns3:atemp>
          </ns3:TrackPointExtension>
        </extensions>
      </trkpt>
      <trkpt lat="46.7300454340875148773193359375" lon="6.86255556531250476837158203125">
        <ele>367.79998779296875</ele>
        <time>2013-09-01T15:55:43.000Z</time>
        <extensions>
          <ns3:TrackPointExtension>
            <ns3:atemp>18.0</ns3:atemp>
          </ns3:TrackPointExtension>
        </extensions>
      </trkpt>
      <trkpt lat="46.73007150180637836456298828125" lon="6.8626181781291961669921875">
        <ele>368.20001220703125</ele>
        <time>2013-09-01T15:55:44.000Z</time>
        <extensions>
          <ns3:TrackPointExtension>
            <ns3:atemp>18.0</ns3:atemp>
          </ns3:TrackPointExtension>
        </extensions>
      </trkpt>
      <trkpt lat="46.73008558340370655059814453125" lon="6.8626837246119976043701171875">
        <ele>368.600006103515625</ele>
        <time>2013-09-01T15:55:45.000Z</time>
        <extensions>
          <ns3:TrackPointExtension>
            <ns3:atemp>18.0</ns3:atemp>
          </ns3:TrackPointExtension>
        </extensions>
      </trkpt>
      <trkpt lat="46.7300953902304172515869140625" lon="6.862748600542545318603515625">
        <ele>369</ele>
        <time>2013-09-01T15:55:46.000Z</time>
        <extensions>
          <ns3:TrackPointExtension>
            <ns3:atemp>18.0</ns3:atemp>
          </ns3:TrackPointExtension>
        </extensions>
      </trkpt>
      <trkpt lat="46.73011324368417263031005859375" lon="6.8627960421144962310791015625">
        <ele>368.79998779296875</ele>
        <time>2013-09-01T15:55:47.000Z</time>
        <extensions>
          <ns3:TrackPointExtension>
            <ns3:atemp>18.0</ns3:atemp>
          </ns3:TrackPointExtension>
        </extensions>
      </trkpt>
      <trkpt lat="46.7301352880895137786865234375" lon="6.86283820308744907379150390625">
        <ele>368.79998779296875</ele>
        <time>2013-09-01T15:55:48.000Z</time>
        <extensions>
          <ns3:TrackPointExtension>
            <ns3:atemp>18.0</ns3:atemp>
          </ns3:TrackPointExtension>
        </extensions>
      </trkpt>
      <trkpt lat="46.73016319982707500457763671875" lon="6.862876676023006439208984375">
        <ele>369</ele>
        <time>2013-09-01T15:55:49.000Z</time>
        <extensions>
          <ns3:TrackPointExtension>
            <ns3:atemp>18.0</ns3:atemp>
          </ns3:TrackPointExtension>
        </extensions>
      </trkpt>
      <trkpt lat="46.73019840382039546966552734375" lon="6.86291682533919811248779296875">
        <ele>369.399993896484375</ele>
        <time>2013-09-01T15:55:50.000Z</time>
        <extensions>
          <ns3:TrackPointExtension>
            <ns3:atemp>18.0</ns3:atemp>
          </ns3:TrackPointExtension>
        </extensions>
      </trkpt>
      <trkpt lat="46.73023779876530170440673828125" lon="6.86295638792216777801513671875">
        <ele>369.79998779296875</ele>
        <time>2013-09-01T15:55:51.000Z</time>
        <extensions>
          <ns3:TrackPointExtension>
            <ns3:atemp>18.0</ns3:atemp>
          </ns3:TrackPointExtension>
        </extensions>
      </trkpt>
      <trkpt lat="46.73028004355728626251220703125" lon="6.86299712397158145904541015625">
        <ele>370</ele>
        <time>2013-09-01T15:55:52.000Z</time>
        <extensions>
          <ns3:TrackPointExtension>
            <ns3:atemp>18.0</ns3:atemp>
          </ns3:TrackPointExtension>
        </extensions>
      </trkpt>
      <trkpt lat="46.7303257249295711517333984375" lon="6.86303995549678802490234375">
        <ele>370</ele>
        <time>2013-09-01T15:55:53.000Z</time>
        <extensions>
          <ns3:TrackPointExtension>
            <ns3:atemp>18.0</ns3:atemp>
          </ns3:TrackPointExtension>
        </extensions>
      </trkpt>
      <trkpt lat="46.730371154844760894775390625" lon="6.8630823679268360137939453125">
        <ele>370.20001220703125</ele>
        <time>2013-09-01T15:55:54.000Z</time>
        <extensions>
          <ns3:TrackPointExtension>
            <ns3:atemp>18.0</ns3:atemp>
          </ns3:TrackPointExtension>
        </extensions>
      </trkpt>
      <trkpt lat="46.73041834495961666107177734375" lon="6.86312352307140827178955078125">
        <ele>370.20001220703125</ele>
        <time>2013-09-01T15:55:55.000Z</time>
        <extensions>
          <ns3:TrackPointExtension>
            <ns3:atemp>18.0</ns3:atemp>
          </ns3:TrackPointExtension>
        </extensions>
      </trkpt>
      <trkpt lat="46.7304658703505992889404296875" lon="6.863164007663726806640625">
        <ele>370.20001220703125</ele>
        <time>2013-09-01T15:55:56.000Z</time>
        <extensions>
          <ns3:TrackPointExtension>
            <ns3:atemp>18.0</ns3:atemp>
          </ns3:TrackPointExtension>
        </extensions>
      </trkpt>
      <trkpt lat="46.730512641370296478271484375" lon="6.863202564418315887451171875">
        <ele>370.399993896484375</ele>
        <time>2013-09-01T15:55:57.000Z</time>
        <extensions>
          <ns3:TrackPointExtension>
            <ns3:atemp>18.0</ns3:atemp>
          </ns3:TrackPointExtension>
        </extensions>
      </trkpt>
      <trkpt lat="46.73055547289550304412841796875" lon="6.863250173628330230712890625">
        <ele>370.600006103515625</ele>
        <time>2013-09-01T15:55:58.000Z</time>
        <extensions>
          <ns3:TrackPointExtension>
            <ns3:atemp>18.0</ns3:atemp>
          </ns3:TrackPointExtension>
        </extensions>
      </trkpt>
      <trkpt lat="46.73060241155326366424560546875" lon="6.86330708675086498260498046875">
        <ele>370.600006103515625</ele>
        <time>2013-09-01T15:55:59.000Z</time>
        <extensions>
          <ns3:TrackPointExtension>
            <ns3:atemp>18.0</ns3:atemp>
          </ns3:TrackPointExtension>
        </extensions>
      </trkpt>
      <trkpt lat="46.7306516133248805999755859375" lon="6.863365508615970611572265625">
        <ele>370.399993896484375</ele>
        <time>2013-09-01T15:56:00.000Z</time>
        <extensions>
          <ns3:TrackPointExtension>
            <ns3:atemp>18.0</ns3:atemp>
          </ns3:TrackPointExtension>
        </extensions>
      </trkpt>
      <trkpt lat="46.7307020723819732666015625" lon="6.8634203262627124786376953125">
        <ele>370</ele>
        <time>2013-09-01T15:56:01.000Z</time>
        <extensions>
          <ns3:TrackPointExtension>
            <ns3:atemp>18.0</ns3:atemp>
          </ns3:TrackPointExtension>
        </extensions>
      </trkpt>
      <trkpt lat="46.730758063495159149169921875" lon="6.86347288079559803009033203125">
        <ele>369.600006103515625</ele>
        <time>2013-09-01T15:56:02.000Z</time>
        <extensions>
          <ns3:TrackPointExtension>
            <ns3:atemp>18.0</ns3:atemp>
          </ns3:TrackPointExtension>
        </extensions>
      </trkpt>
      <trkpt lat="46.73081749118864536285400390625" lon="6.86352032236754894256591796875">
        <ele>369.20001220703125</ele>
        <time>2013-09-01T15:56:03.000Z</time>
        <extensions>
          <ns3:TrackPointExtension>
            <ns3:atemp>18.0</ns3:atemp>
          </ns3:TrackPointExtension>
        </extensions>
      </trkpt>
      <trkpt lat="46.7308789305388927459716796875" lon="6.8635688535869121551513671875">
        <ele>368.79998779296875</ele>
        <time>2013-09-01T15:56:04.000Z</time>
        <extensions>
          <ns3:TrackPointExtension>
            <ns3:atemp>18.0</ns3:atemp>
          </ns3:TrackPointExtension>
        </extensions>
      </trkpt>
      <trkpt lat="46.73093735240399837493896484375" lon="6.86362140811979770660400390625">
        <ele>368.79998779296875</ele>
        <time>2013-09-01T15:56:05.000Z</time>
        <extensions>
          <ns3:TrackPointExtension>
            <ns3:atemp>18.0</ns3:atemp>
          </ns3:TrackPointExtension>
        </extensions>
      </trkpt>
      <trkpt lat="46.73099501989781856536865234375" lon="6.8636825121939182281494140625">
        <ele>368.79998779296875</ele>
        <time>2013-09-01T15:56:06.000Z</time>
        <extensions>
          <ns3:TrackPointExtension>
            <ns3:atemp>18.0</ns3:atemp>
          </ns3:TrackPointExtension>
        </extensions>
      </trkpt>
      <trkpt lat="46.73105369322001934051513671875" lon="6.86374797485768795013427734375">
        <ele>369.20001220703125</ele>
        <time>2013-09-01T15:56:07.000Z</time>
        <extensions>
          <ns3:TrackPointExtension>
            <ns3:atemp>18.0</ns3:atemp>
          </ns3:TrackPointExtension>
        </extensions>
      </trkpt>
      <trkpt lat="46.7311169765889644622802734375" lon="6.86382609419524669647216796875">
        <ele>368.79998779296875</ele>
        <time>2013-09-01T15:56:08.000Z</time>
        <extensions>
          <ns3:TrackPointExtension>
            <ns3:atemp>18.0</ns3:atemp>
          </ns3:TrackPointExtension>
        </extensions>
      </trkpt>
      <trkpt lat="46.7311741411685943603515625" lon="6.8639108352363109588623046875">
        <ele>368.399993896484375</ele>
        <time>2013-09-01T15:56:09.000Z</time>
        <extensions>
          <ns3:TrackPointExtension>
            <ns3:atemp>18.0</ns3:atemp>
          </ns3:TrackPointExtension>
        </extensions>
      </trkpt>
      <trkpt lat="46.7312277853488922119140625" lon="6.86399876140058040618896484375">
        <ele>367.600006103515625</ele>
        <time>2013-09-01T15:56:10.000Z</time>
        <extensions>
          <ns3:TrackPointExtension>
            <ns3:atemp>18.0</ns3:atemp>
          </ns3:TrackPointExtension>
        </extensions>
      </trkpt>
      <trkpt lat="46.7312765680253505706787109375" lon="6.86407654546201229095458984375">
        <ele>367.600006103515625</ele>
        <time>2013-09-01T15:56:11.000Z</time>
        <extensions>
          <ns3:TrackPointExtension>
            <ns3:atemp>18.0</ns3:atemp>
          </ns3:TrackPointExtension>
        </extensions>
      </trkpt>
      <trkpt lat="46.73131738789379596710205078125" lon="6.864146031439304351806640625">
        <ele>368</ele>
        <time>2013-09-01T15:56:12.000Z</time>
        <extensions>
          <ns3:TrackPointExtension>
            <ns3:atemp>18.0</ns3:atemp>
          </ns3:TrackPointExtension>
        </extensions>
      </trkpt>
      <trkpt lat="46.7313587106764316558837890625" lon="6.86421467922627925872802734375">
        <ele>368.399993896484375</ele>
        <time>2013-09-01T15:56:13.000Z</time>
        <extensions>
          <ns3:TrackPointExtension>
            <ns3:atemp>18.0</ns3:atemp>
          </ns3:TrackPointExtension>
        </extensions>
      </trkpt>
      <trkpt lat="46.7313996143639087677001953125" lon="6.86428181827068328857421875">
        <ele>368.20001220703125</ele>
        <time>2013-09-01T15:56:14.000Z</time>
        <extensions>
          <ns3:TrackPointExtension>
            <ns3:atemp>18.0</ns3:atemp>
          </ns3:TrackPointExtension>
        </extensions>
      </trkpt>
      <trkpt lat="46.73143959604203701019287109375" lon="6.86434845440089702606201171875">
        <ele>368</ele>
        <time>2013-09-01T15:56:15.000Z</time>
        <extensions>
          <ns3:TrackPointExtension>
            <ns3:atemp>18.0</ns3:atemp>
          </ns3:TrackPointExtension>
        </extensions>
      </trkpt>
      <trkpt lat="46.7314804159104824066162109375" lon="6.864416599273681640625">
        <ele>367.79998779296875</ele>
        <time>2013-09-01T15:56:16.000Z</time>
        <extensions>
          <ns3:TrackPointExtension>
            <ns3:atemp>18.0</ns3:atemp>
          </ns3:TrackPointExtension>
        </extensions>
      </trkpt>
      <trkpt lat="46.73152123577892780303955078125" lon="6.86448440887033939361572265625">
        <ele>367.79998779296875</ele>
        <time>2013-09-01T15:56:17.000Z</time>
        <extensions>
          <ns3:TrackPointExtension>
            <ns3:atemp>18.0</ns3:atemp>
          </ns3:TrackPointExtension>
        </extensions>
      </trkpt>
      <trkpt lat="46.73156247474253177642822265625" lon="6.8645532242953777313232421875">
        <ele>367.79998779296875</ele>
        <time>2013-09-01T15:56:18.000Z</time>
        <extensions>
          <ns3:TrackPointExtension>
            <ns3:atemp>18.0</ns3:atemp>
          </ns3:TrackPointExtension>
        </extensions>
      </trkpt>
      <trkpt lat="46.7316059768199920654296875" lon="6.8646226264536380767822265625">
        <ele>367.600006103515625</ele>
        <time>2013-09-01T15:56:19.000Z</time>
        <extensions>
          <ns3:TrackPointExtension>
            <ns3:atemp>18.0</ns3:atemp>
          </ns3:TrackPointExtension>
        </extensions>
      </trkpt>
      <trkpt lat="46.7316467128694057464599609375" lon="6.86469244770705699920654296875">
        <ele>367.600006103515625</ele>
        <time>2013-09-01T15:56:20.000Z</time>
        <extensions>
          <ns3:TrackPointExtension>
            <ns3:atemp>18.0</ns3:atemp>
          </ns3:TrackPointExtension>
        </extensions>
      </trkpt>
      <trkpt lat="46.73168719746172428131103515625" lon="6.8647641129791736602783203125">
        <ele>367.600006103515625</ele>
        <time>2013-09-01T15:56:21.000Z</time>
        <extensions>
          <ns3:TrackPointExtension>
            <ns3:atemp>18.0</ns3:atemp>
          </ns3:TrackPointExtension>
        </extensions>
      </trkpt>
      <trkpt lat="46.73172810114920139312744140625" lon="6.86483527533710002899169921875">
        <ele>367.79998779296875</ele>
        <time>2013-09-01T15:56:22.000Z</time>
        <extensions>
          <ns3:TrackPointExtension>
            <ns3:atemp>18.0</ns3:atemp>
          </ns3:TrackPointExtension>
        </extensions>
      </trkpt>
      <trkpt lat="46.7317670769989490509033203125" lon="6.8649069406092166900634765625">
        <ele>368.20001220703125</ele>
        <time>2013-09-01T15:56:23.000Z</time>
        <extensions>
          <ns3:TrackPointExtension>
            <ns3:atemp>18.0</ns3:atemp>
          </ns3:TrackPointExtension>
        </extensions>
      </trkpt>
      <trkpt lat="46.73180487938225269317626953125" lon="6.8649800308048725128173828125">
        <ele>368</ele>
        <time>2013-09-01T15:56:24.000Z</time>
        <extensions>
          <ns3:TrackPointExtension>
            <ns3:atemp>18.0</ns3:atemp>
          </ns3:TrackPointExtension>
        </extensions>
      </trkpt>
      <trkpt lat="46.73184427432715892791748046875" lon="6.8650497682392597198486328125">
        <ele>368.20001220703125</ele>
        <time>2013-09-01T15:56:25.000Z</time>
        <extensions>
          <ns3:TrackPointExtension>
            <ns3:atemp>18.0</ns3:atemp>
          </ns3:TrackPointExtension>
        </extensions>
      </trkpt>
      <trkpt lat="46.73188249580562114715576171875" lon="6.8651211820542812347412109375">
        <ele>368.399993896484375</ele>
        <time>2013-09-01T15:56:26.000Z</time>
        <extensions>
          <ns3:TrackPointExtension>
            <ns3:atemp>18.0</ns3:atemp>
          </ns3:TrackPointExtension>
        </extensions>
      </trkpt>
      <trkpt lat="46.7319206334650516510009765625" lon="6.865194104611873626708984375">
        <ele>368.600006103515625</ele>
        <time>2013-09-01T15:56:27.000Z</time>
        <extensions>
          <ns3:TrackPointExtension>
            <ns3:atemp>18.0</ns3:atemp>
          </ns3:TrackPointExtension>
        </extensions>
      </trkpt>
      <trkpt lat="46.731960363686084747314453125" lon="6.86526644043624401092529296875">
        <ele>368.399993896484375</ele>
        <time>2013-09-01T15:56:28.000Z</time>
        <extensions>
          <ns3:TrackPointExtension>
            <ns3:atemp>18.0</ns3:atemp>
          </ns3:TrackPointExtension>
        </extensions>
      </trkpt>
      <trkpt lat="46.732003279030323028564453125" lon="6.86533701606094837188720703125">
        <ele>368.399993896484375</ele>
        <time>2013-09-01T15:56:29.000Z</time>
        <extensions>
          <ns3:TrackPointExtension>
            <ns3:atemp>18.0</ns3:atemp>
          </ns3:TrackPointExtension>
        </extensions>
      </trkpt>
      <trkpt lat="46.73204828985035419464111328125" lon="6.8654068373143672943115234375">
        <ele>368.399993896484375</ele>
        <time>2013-09-01T15:56:30.000Z</time>
        <extensions>
          <ns3:TrackPointExtension>
            <ns3:atemp>18.0</ns3:atemp>
          </ns3:TrackPointExtension>
        </extensions>
      </trkpt>
      <trkpt lat="46.7320956476032733917236328125" lon="6.8654725514352321624755859375">
        <ele>368.399993896484375</ele>
        <time>2013-09-01T15:56:31.000Z</time>
        <extensions>
          <ns3:TrackPointExtension>
            <ns3:atemp>18.0</ns3:atemp>
          </ns3:TrackPointExtension>
        </extensions>
      </trkpt>
      <trkpt lat="46.7321425862610340118408203125" lon="6.86553843319416046142578125">
        <ele>368.20001220703125</ele>
        <time>2013-09-01T15:56:32.000Z</time>
        <extensions>
          <ns3:TrackPointExtension>
            <ns3:atemp>18.0</ns3:atemp>
          </ns3:TrackPointExtension>
        </extensions>
      </trkpt>
      <trkpt lat="46.7321912012994289398193359375" lon="6.86560238711535930633544921875">
        <ele>368.20001220703125</ele>
        <time>2013-09-01T15:56:33.000Z</time>
        <extensions>
          <ns3:TrackPointExtension>
            <ns3:atemp>18.0</ns3:atemp>
          </ns3:TrackPointExtension>
        </extensions>
      </trkpt>
      <trkpt lat="46.73224107362329959869384765625" lon="6.86566340737044811248779296875">
        <ele>368</ele>
        <time>2013-09-01T15:56:34.000Z</time>
        <extensions>
          <ns3:TrackPointExtension>
            <ns3:atemp>18.0</ns3:atemp>
          </ns3:TrackPointExtension>
        </extensions>
      </trkpt>
      <trkpt lat="46.7322924546897411346435546875" lon="6.865722835063934326171875">
        <ele>368</ele>
        <time>2013-09-01T15:56:35.000Z</time>
        <extensions>
          <ns3:TrackPointExtension>
            <ns3:atemp>18.0</ns3:atemp>
          </ns3:TrackPointExtension>
        </extensions>
      </trkpt>
      <trkpt lat="46.73234425485134124755859375" lon="6.865784190595149993896484375">
        <ele>368</ele>
        <time>2013-09-01T15:56:36.000Z</time>
        <extensions>
          <ns3:TrackPointExtension>
            <ns3:atemp>18.0</ns3:atemp>
          </ns3:TrackPointExtension>
        </extensions>
      </trkpt>
      <trkpt lat="46.73239530064165592193603515625" lon="6.86584495939314365386962890625">
        <ele>368</ele>
        <time>2013-09-01T15:56:37.000Z</time>
        <extensions>
          <ns3:TrackPointExtension>
            <ns3:atemp>18.0</ns3:atemp>
          </ns3:TrackPointExtension>
        </extensions>
      </trkpt>
      <trkpt lat="46.73244626261293888092041015625" lon="6.8659057281911373138427734375">
        <ele>368</ele>
        <time>2013-09-01T15:56:38.000Z</time>
        <extensions>
          <ns3:TrackPointExtension>
            <ns3:atemp>18.0</ns3:atemp>
          </ns3:TrackPointExtension>
        </extensions>
      </trkpt>
      <trkpt lat="46.73249806277453899383544921875" lon="6.8659654073417186737060546875">
        <ele>368.20001220703125</ele>
        <time>2013-09-01T15:56:39.000Z</time>
        <extensions>
          <ns3:TrackPointExtension>
            <ns3:atemp>18.0</ns3:atemp>
          </ns3:TrackPointExtension>
        </extensions>
      </trkpt>
      <trkpt lat="46.73254969529807567596435546875" lon="6.86602416448295116424560546875">
        <ele>368.20001220703125</ele>
        <time>2013-09-01T15:56:40.000Z</time>
        <extensions>
          <ns3:TrackPointExtension>
            <ns3:atemp>18.0</ns3:atemp>
          </ns3:TrackPointExtension>
        </extensions>
      </trkpt>
      <trkpt lat="46.73260082490742206573486328125" lon="6.8660830892622470855712890625">
        <ele>368</ele>
        <time>2013-09-01T15:56:41.000Z</time>
        <extensions>
          <ns3:TrackPointExtension>
            <ns3:atemp>18.0</ns3:atemp>
          </ns3:TrackPointExtension>
        </extensions>
      </trkpt>
      <trkpt lat="46.73265262506902217864990234375" lon="6.8661400862038135528564453125">
        <ele>368</ele>
        <time>2013-09-01T15:56:42.000Z</time>
        <extensions>
          <ns3:TrackPointExtension>
            <ns3:atemp>18.0</ns3:atemp>
          </ns3:TrackPointExtension>
        </extensions>
      </trkpt>
      <trkpt lat="46.732703335583209991455078125" lon="6.8661970831453800201416015625">
        <ele>368.20001220703125</ele>
        <time>2013-09-01T15:56:43.000Z</time>
        <extensions>
          <ns3:TrackPointExtension>
            <ns3:atemp>18.0</ns3:atemp>
          </ns3:TrackPointExtension>
        </extensions>
      </trkpt>
      <trkpt lat="46.73275329172611236572265625" lon="6.86625315807759761810302734375">
        <ele>368.399993896484375</ele>
        <time>2013-09-01T15:56:44.000Z</time>
        <extensions>
          <ns3:TrackPointExtension>
            <ns3:atemp>18.0</ns3:atemp>
          </ns3:TrackPointExtension>
        </extensions>
      </trkpt>
      <trkpt lat="46.7328044213354587554931640625" lon="6.86631023883819580078125">
        <ele>368.399993896484375</ele>
        <time>2013-09-01T15:56:45.000Z</time>
        <extensions>
          <ns3:TrackPointExtension>
            <ns3:atemp>18.0</ns3:atemp>
          </ns3:TrackPointExtension>
        </extensions>
      </trkpt>
      <trkpt lat="46.7328585684299468994140625" lon="6.8663653917610645294189453125">
        <ele>368.399993896484375</ele>
        <time>2013-09-01T15:56:46.000Z</time>
        <extensions>
          <ns3:TrackPointExtension>
            <ns3:atemp>18.0</ns3:atemp>
          </ns3:TrackPointExtension>
        </extensions>
      </trkpt>
      <trkpt lat="46.7329117096960544586181640625" lon="6.8664227239787578582763671875">
        <ele>368.20001220703125</ele>
        <time>2013-09-01T15:56:47.000Z</time>
        <extensions>
          <ns3:TrackPointExtension>
            <ns3:atemp>18.0</ns3:atemp>
          </ns3:TrackPointExtension>
        </extensions>
      </trkpt>
      <trkpt lat="46.73296610824763774871826171875" lon="6.866480223834514617919921875">
        <ele>368.399993896484375</ele>
        <time>2013-09-01T15:56:48.000Z</time>
        <extensions>
          <ns3:TrackPointExtension>
            <ns3:atemp>18.0</ns3:atemp>
          </ns3:TrackPointExtension>
        </extensions>
      </trkpt>
      <trkpt lat="46.73302159644663333892822265625" lon="6.8665395677089691162109375">
        <ele>368.600006103515625</ele>
        <time>2013-09-01T15:56:49.000Z</time>
        <extensions>
          <ns3:TrackPointExtension>
            <ns3:atemp>18.0</ns3:atemp>
          </ns3:TrackPointExtension>
        </extensions>
      </trkpt>
      <trkpt lat="46.73307624645531177520751953125" lon="6.86659882776439189910888671875">
        <ele>368.600006103515625</ele>
        <time>2013-09-01T15:56:50.000Z</time>
        <extensions>
          <ns3:TrackPointExtension>
            <ns3:atemp>18.0</ns3:atemp>
          </ns3:TrackPointExtension>
        </extensions>
      </trkpt>
      <trkpt lat="46.73313139937818050384521484375" lon="6.8666560761630535125732421875">
        <ele>368.600006103515625</ele>
        <time>2013-09-01T15:56:51.000Z</time>
        <extensions>
          <ns3:TrackPointExtension>
            <ns3:atemp>18.0</ns3:atemp>
          </ns3:TrackPointExtension>
        </extensions>
      </trkpt>
      <trkpt lat="46.73318638466298580169677734375" lon="6.86671231873333454132080078125">
        <ele>368.20001220703125</ele>
        <time>2013-09-01T15:56:52.000Z</time>
        <extensions>
          <ns3:TrackPointExtension>
            <ns3:atemp>18.0</ns3:atemp>
          </ns3:TrackPointExtension>
        </extensions>
      </trkpt>
      <trkpt lat="46.73324405215680599212646484375" lon="6.8667700700461864471435546875">
        <ele>368</ele>
        <time>2013-09-01T15:56:53.000Z</time>
        <extensions>
          <ns3:TrackPointExtension>
            <ns3:atemp>18.0</ns3:atemp>
          </ns3:TrackPointExtension>
        </extensions>
      </trkpt>
      <trkpt lat="46.7333009652793407440185546875" lon="6.8668284080922603607177734375">
        <ele>367.79998779296875</ele>
        <time>2013-09-01T15:56:54.000Z</time>
        <extensions>
          <ns3:TrackPointExtension>
            <ns3:atemp>18.0</ns3:atemp>
          </ns3:TrackPointExtension>
        </extensions>
      </trkpt>
      <trkpt lat="46.7333599738776683807373046875" lon="6.86688356101512908935546875">
        <ele>368</ele>
        <time>2013-09-01T15:56:55.000Z</time>
        <extensions>
          <ns3:TrackPointExtension>
            <ns3:atemp>18.0</ns3:atemp>
          </ns3:TrackPointExtension>
        </extensions>
      </trkpt>
      <trkpt lat="46.73341713845729827880859375" lon="6.86694064177572727203369140625">
        <ele>368</ele>
        <time>2013-09-01T15:56:56.000Z</time>
        <extensions>
          <ns3:TrackPointExtension>
            <ns3:atemp>18.0</ns3:atemp>
          </ns3:TrackPointExtension>
        </extensions>
      </trkpt>
      <trkpt lat="46.73347421921789646148681640625" lon="6.86699814163148403167724609375">
        <ele>368</ele>
        <time>2013-09-01T15:56:57.000Z</time>
        <extensions>
          <ns3:TrackPointExtension>
            <ns3:atemp>18.0</ns3:atemp>
          </ns3:TrackPointExtension>
        </extensions>
      </trkpt>
      <trkpt lat="46.73353247344493865966796875" lon="6.86705212108790874481201171875">
        <ele>367.600006103515625</ele>
        <time>2013-09-01T15:56:58.000Z</time>
        <extensions>
          <ns3:TrackPointExtension>
            <ns3:atemp>18.0</ns3:atemp>
          </ns3:TrackPointExtension>
        </extensions>
      </trkpt>
      <trkpt lat="46.7335906438529491424560546875" lon="6.8671056814491748809814453125">
        <ele>367.600006103515625</ele>
        <time>2013-09-01T15:56:59.000Z</time>
        <extensions>
          <ns3:TrackPointExtension>
            <ns3:atemp>18.0</ns3:atemp>
          </ns3:TrackPointExtension>
        </extensions>
      </trkpt>
      <trkpt lat="46.733648478984832763671875" lon="6.86715840362012386322021484375">
        <ele>367.600006103515625</ele>
        <time>2013-09-01T15:57:00.000Z</time>
        <extensions>
          <ns3:TrackPointExtension>
            <ns3:atemp>18.0</ns3:atemp>
          </ns3:TrackPointExtension>
        </extensions>
      </trkpt>
      <trkpt lat="46.733706481754779815673828125" lon="6.86721305362880229949951171875">
        <ele>367.79998779296875</ele>
        <time>2013-09-01T15:57:01.000Z</time>
        <extensions>
          <ns3:TrackPointExtension>
            <ns3:atemp>18.0</ns3:atemp>
          </ns3:TrackPointExtension>
        </extensions>
      </trkpt>
      <trkpt lat="46.73376314342021942138671875" lon="6.8672679550945758819580078125">
        <ele>367.79998779296875</ele>
        <time>2013-09-01T15:57:02.000Z</time>
        <extensions>
          <ns3:TrackPointExtension>
            <ns3:atemp>18.0</ns3:atemp>
          </ns3:TrackPointExtension>
        </extensions>
      </trkpt>
      <trkpt lat="46.7338206432759761810302734375" lon="6.86732034198939800262451171875">
        <ele>367.79998779296875</ele>
        <time>2013-09-01T15:57:03.000Z</time>
        <extensions>
          <ns3:TrackPointExtension>
            <ns3:atemp>18.0</ns3:atemp>
          </ns3:TrackPointExtension>
        </extensions>
      </trkpt>
      <trkpt lat="46.73387772403657436370849609375" lon="6.86737365089356899261474609375">
        <ele>367.600006103515625</ele>
        <time>2013-09-01T15:57:04.000Z</time>
        <extensions>
          <ns3:TrackPointExtension>
            <ns3:atemp>18.0</ns3:atemp>
          </ns3:TrackPointExtension>
        </extensions>
      </trkpt>
      <trkpt lat="46.73393656499683856964111328125" lon="6.867425702512264251708984375">
        <ele>367.600006103515625</ele>
        <time>2013-09-01T15:57:05.000Z</time>
        <extensions>
          <ns3:TrackPointExtension>
            <ns3:atemp>18.0</ns3:atemp>
          </ns3:TrackPointExtension>
        </extensions>
      </trkpt>
      <trkpt lat="46.7339943163096904754638671875" lon="6.86747674830257892608642578125">
        <ele>367.79998779296875</ele>
        <time>2013-09-01T15:57:06.000Z</time>
        <extensions>
          <ns3:TrackPointExtension>
            <ns3:atemp>18.0</ns3:atemp>
          </ns3:TrackPointExtension>
        </extensions>
      </trkpt>
      <trkpt lat="46.734051816165447235107421875" lon="6.86752838082611560821533203125">
        <ele>367.79998779296875</ele>
        <time>2013-09-01T15:57:07.000Z</time>
        <extensions>
          <ns3:TrackPointExtension>
            <ns3:atemp>18.0</ns3:atemp>
          </ns3:TrackPointExtension>
        </extensions>
      </trkpt>
      <trkpt lat="46.73410923220217227935791015625" lon="6.86757816933095455169677734375">
        <ele>367.79998779296875</ele>
        <time>2013-09-01T15:57:08.000Z</time>
        <extensions>
          <ns3:TrackPointExtension>
            <ns3:atemp>18.0</ns3:atemp>
          </ns3:TrackPointExtension>
        </extensions>
      </trkpt>
      <trkpt lat="46.73416614532470703125" lon="6.86762921512126922607421875">
        <ele>367.600006103515625</ele>
        <time>2013-09-01T15:57:09.000Z</time>
        <extensions>
          <ns3:TrackPointExtension>
            <ns3:atemp>18.0</ns3:atemp>
          </ns3:TrackPointExtension>
        </extensions>
      </trkpt>
      <trkpt lat="46.734222471714019775390625" lon="6.86768143437802791595458984375">
        <ele>367.399993896484375</ele>
        <time>2013-09-01T15:57:10.000Z</time>
        <extensions>
          <ns3:TrackPointExtension>
            <ns3:atemp>18.0</ns3:atemp>
          </ns3:TrackPointExtension>
        </extensions>
      </trkpt>
      <trkpt lat="46.734279803931713104248046875" lon="6.86773373745381832122802734375">
        <ele>367</ele>
        <time>2013-09-01T15:57:11.000Z</time>
        <extensions>
          <ns3:TrackPointExtension>
            <ns3:atemp>18.0</ns3:atemp>
          </ns3:TrackPointExtension>
        </extensions>
      </trkpt>
      <trkpt lat="46.73433713614940643310546875" lon="6.86778788454830646514892578125">
        <ele>367</ele>
        <time>2013-09-01T15:57:12.000Z</time>
        <extensions>
          <ns3:TrackPointExtension>
            <ns3:atemp>18.0</ns3:atemp>
          </ns3:TrackPointExtension>
        </extensions>
      </trkpt>
      <trkpt lat="46.7343946360051631927490234375" lon="6.86784169636666774749755859375">
        <ele>367.20001220703125</ele>
        <time>2013-09-01T15:57:13.000Z</time>
        <extensions>
          <ns3:TrackPointExtension>
            <ns3:atemp>18.0</ns3:atemp>
          </ns3:TrackPointExtension>
        </extensions>
      </trkpt>
      <trkpt lat="46.734451465308666229248046875" lon="6.8678982742130756378173828125">
        <ele>367.20001220703125</ele>
        <time>2013-09-01T15:57:14.000Z</time>
        <extensions>
          <ns3:TrackPointExtension>
            <ns3:atemp>18.0</ns3:atemp>
          </ns3:TrackPointExtension>
        </extensions>
      </trkpt>
      <trkpt lat="46.73450879752635955810546875" lon="6.86795284040272235870361328125">
        <ele>367.20001220703125</ele>
        <time>2013-09-01T15:57:15.000Z</time>
        <extensions>
          <ns3:TrackPointExtension>
            <ns3:atemp>18.0</ns3:atemp>
          </ns3:TrackPointExtension>
        </extensions>
      </trkpt>
      <trkpt lat="46.73456621356308460235595703125" lon="6.8680045567452907562255859375">
        <ele>367.20001220703125</ele>
        <time>2013-09-01T15:57:16.000Z</time>
        <extensions>
          <ns3:TrackPointExtension>
            <ns3:atemp>18.0</ns3:atemp>
          </ns3:TrackPointExtension>
        </extensions>
      </trkpt>
      <trkpt lat="46.73462279140949249267578125" lon="6.8680582009255886077880859375">
        <ele>367.20001220703125</ele>
        <time>2013-09-01T15:57:17.000Z</time>
        <extensions>
          <ns3:TrackPointExtension>
            <ns3:atemp>18.0</ns3:atemp>
          </ns3:TrackPointExtension>
        </extensions>
      </trkpt>
      <trkpt lat="46.73467920161783695220947265625" lon="6.86811142601072788238525390625">
        <ele>367.20001220703125</ele>
        <time>2013-09-01T15:57:18.000Z</time>
        <extensions>
          <ns3:TrackPointExtension>
            <ns3:atemp>18.0</ns3:atemp>
          </ns3:TrackPointExtension>
        </extensions>
      </trkpt>
      <trkpt lat="46.734737455844879150390625" lon="6.8681644834578037261962890625">
        <ele>367</ele>
        <time>2013-09-01T15:57:19.000Z</time>
        <extensions>
          <ns3:TrackPointExtension>
            <ns3:atemp>18.0</ns3:atemp>
          </ns3:TrackPointExtension>
        </extensions>
      </trkpt>
      <trkpt lat="46.73479470424354076385498046875" lon="6.8682174570858478546142578125">
        <ele>366.79998779296875</ele>
        <time>2013-09-01T15:57:20.000Z</time>
        <extensions>
          <ns3:TrackPointExtension>
            <ns3:atemp>18.0</ns3:atemp>
          </ns3:TrackPointExtension>
        </extensions>
      </trkpt>
      <trkpt lat="46.73485253937542438507080078125" lon="6.86827026307582855224609375">
        <ele>366.79998779296875</ele>
        <time>2013-09-01T15:57:21.000Z</time>
        <extensions>
          <ns3:TrackPointExtension>
            <ns3:atemp>18.0</ns3:atemp>
          </ns3:TrackPointExtension>
        </extensions>
      </trkpt>
      <trkpt lat="46.73491070978343486785888671875" lon="6.86832231469452381134033203125">
        <ele>367</ele>
        <time>2013-09-01T15:57:22.000Z</time>
        <extensions>
          <ns3:TrackPointExtension>
            <ns3:atemp>18.0</ns3:atemp>
          </ns3:TrackPointExtension>
        </extensions>
      </trkpt>
      <trkpt lat="46.7349666170775890350341796875" lon="6.868376545608043670654296875">
        <ele>367</ele>
        <time>2013-09-01T15:57:23.000Z</time>
        <extensions>
          <ns3:TrackPointExtension>
            <ns3:atemp>18.0</ns3:atemp>
          </ns3:TrackPointExtension>
        </extensions>
      </trkpt>
      <trkpt lat="46.73502185381948947906494140625" lon="6.86843094415962696075439453125">
        <ele>367</ele>
        <time>2013-09-01T15:57:24.000Z</time>
        <extensions>
          <ns3:TrackPointExtension>
            <ns3:atemp>18.0</ns3:atemp>
          </ns3:TrackPointExtension>
        </extensions>
      </trkpt>
      <trkpt lat="46.735078431665897369384765625" lon="6.868485510349273681640625">
        <ele>367</ele>
        <time>2013-09-01T15:57:25.000Z</time>
        <extensions>
          <ns3:TrackPointExtension>
            <ns3:atemp>18.0</ns3:atemp>
          </ns3:TrackPointExtension>
        </extensions>
      </trkpt>
      <trkpt lat="46.73513484187424182891845703125" lon="6.868536807596683502197265625">
        <ele>367.20001220703125</ele>
        <time>2013-09-01T15:57:26.000Z</time>
        <extensions>
          <ns3:TrackPointExtension>
            <ns3:atemp>18.0</ns3:atemp>
          </ns3:TrackPointExtension>
        </extensions>
      </trkpt>
      <trkpt lat="46.7351919226348400115966796875" lon="6.86858885921537876129150390625">
        <ele>367.20001220703125</ele>
        <time>2013-09-01T15:57:27.000Z</time>
        <extensions>
          <ns3:TrackPointExtension>
            <ns3:atemp>18.0</ns3:atemp>
          </ns3:TrackPointExtension>
        </extensions>
      </trkpt>
      <trkpt lat="46.73524850048124790191650390625" lon="6.8686409108340740203857421875">
        <ele>367.20001220703125</ele>
        <time>2013-09-01T15:57:28.000Z</time>
        <extensions>
          <ns3:TrackPointExtension>
            <ns3:atemp>18.0</ns3:atemp>
          </ns3:TrackPointExtension>
        </extensions>
      </trkpt>
      <trkpt lat="46.73530633561313152313232421875" lon="6.86869061551988124847412109375">
        <ele>366.79998779296875</ele>
        <time>2013-09-01T15:57:29.000Z</time>
        <extensions>
          <ns3:TrackPointExtension>
            <ns3:atemp>18.0</ns3:atemp>
          </ns3:TrackPointExtension>
        </extensions>
      </trkpt>
      <trkpt lat="46.7353639192879199981689453125" lon="6.86874006874859333038330078125">
        <ele>366.79998779296875</ele>
        <time>2013-09-01T15:57:30.000Z</time>
        <extensions>
          <ns3:TrackPointExtension>
            <ns3:atemp>18.0</ns3:atemp>
          </ns3:TrackPointExtension>
        </extensions>
      </trkpt>
      <trkpt lat="46.73542074859142303466796875" lon="6.868787594139575958251953125">
        <ele>367</ele>
        <time>2013-09-01T15:57:31.000Z</time>
        <extensions>
          <ns3:TrackPointExtension>
            <ns3:atemp>18.0</ns3:atemp>
          </ns3:TrackPointExtension>
        </extensions>
      </trkpt>
      <trkpt lat="46.73547665588557720184326171875" lon="6.86883612535893917083740234375">
        <ele>367</ele>
        <time>2013-09-01T15:57:32.000Z</time>
        <extensions>
          <ns3:TrackPointExtension>
            <ns3:atemp>18.0</ns3:atemp>
          </ns3:TrackPointExtension>
        </extensions>
      </trkpt>
      <trkpt lat="46.73553340137004852294921875" lon="6.868885494768619537353515625">
        <ele>367</ele>
        <time>2013-09-01T15:57:33.000Z</time>
        <extensions>
          <ns3:TrackPointExtension>
            <ns3:atemp>18.0</ns3:atemp>
          </ns3:TrackPointExtension>
        </extensions>
      </trkpt>
      <trkpt lat="46.73558947630226612091064453125" lon="6.86893804930150508880615234375">
        <ele>367</ele>
        <time>2013-09-01T15:57:34.000Z</time>
        <extensions>
          <ns3:TrackPointExtension>
            <ns3:atemp>18.0</ns3:atemp>
          </ns3:TrackPointExtension>
        </extensions>
      </trkpt>
      <trkpt lat="46.73564513213932514190673828125" lon="6.86899244785308837890625">
        <ele>367</ele>
        <time>2013-09-01T15:57:35.000Z</time>
        <extensions>
          <ns3:TrackPointExtension>
            <ns3:atemp>18.0</ns3:atemp>
          </ns3:TrackPointExtension>
        </extensions>
      </trkpt>
      <trkpt lat="46.7356985248625278472900390625" lon="6.869047097861766815185546875">
        <ele>367</ele>
        <time>2013-09-01T15:57:36.000Z</time>
        <extensions>
          <ns3:TrackPointExtension>
            <ns3:atemp>18.0</ns3:atemp>
          </ns3:TrackPointExtension>
        </extensions>
      </trkpt>
      <trkpt lat="46.735753677785396575927734375" lon="6.86910132877528667449951171875">
        <ele>366.79998779296875</ele>
        <time>2013-09-01T15:57:37.000Z</time>
        <extensions>
          <ns3:TrackPointExtension>
            <ns3:atemp>18.0</ns3:atemp>
          </ns3:TrackPointExtension>
        </extensions>
      </trkpt>
      <trkpt lat="46.73580941744148731231689453125" lon="6.86915136873722076416015625">
        <ele>366.600006103515625</ele>
        <time>2013-09-01T15:57:38.000Z</time>
        <extensions>
          <ns3:TrackPointExtension>
            <ns3:atemp>18.0</ns3:atemp>
          </ns3:TrackPointExtension>
        </extensions>
      </trkpt>
      <trkpt lat="46.73586490564048290252685546875" lon="6.86920325271785259246826171875">
        <ele>366.600006103515625</ele>
        <time>2013-09-01T15:57:39.000Z</time>
        <extensions>
          <ns3:TrackPointExtension>
            <ns3:atemp>18.0</ns3:atemp>
          </ns3:TrackPointExtension>
        </extensions>
      </trkpt>
      <trkpt lat="46.7359216511249542236328125" lon="6.8692539632320404052734375">
        <ele>366.79998779296875</ele>
        <time>2013-09-01T15:57:40.000Z</time>
        <extensions>
          <ns3:TrackPointExtension>
            <ns3:atemp>18.0</ns3:atemp>
          </ns3:TrackPointExtension>
        </extensions>
      </trkpt>
      <trkpt lat="46.73597822897136211395263671875" lon="6.86930601485073566436767578125">
        <ele>366.79998779296875</ele>
        <time>2013-09-01T15:57:41.000Z</time>
        <extensions>
          <ns3:TrackPointExtension>
            <ns3:atemp>18.0</ns3:atemp>
          </ns3:TrackPointExtension>
        </extensions>
      </trkpt>
      <trkpt lat="46.7360343039035797119140625" lon="6.8693577311933040618896484375">
        <ele>367</ele>
        <time>2013-09-01T15:57:42.000Z</time>
        <extensions>
          <ns3:TrackPointExtension>
            <ns3:atemp>18.0</ns3:atemp>
          </ns3:TrackPointExtension>
        </extensions>
      </trkpt>
      <trkpt lat="46.7360906302928924560546875" lon="6.86941020190715789794921875">
        <ele>367</ele>
        <time>2013-09-01T15:57:43.000Z</time>
        <extensions>
          <ns3:TrackPointExtension>
            <ns3:atemp>18.0</ns3:atemp>
          </ns3:TrackPointExtension>
        </extensions>
      </trkpt>
      <trkpt lat="46.736145950853824615478515625" lon="6.8694630078971385955810546875">
        <ele>367.20001220703125</ele>
        <time>2013-09-01T15:57:44.000Z</time>
        <extensions>
          <ns3:TrackPointExtension>
            <ns3:atemp>18.0</ns3:atemp>
          </ns3:TrackPointExtension>
        </extensions>
      </trkpt>
      <trkpt lat="46.736202277243137359619140625" lon="6.8695159815251827239990234375">
        <ele>367</ele>
        <time>2013-09-01T15:57:45.000Z</time>
        <extensions>
          <ns3:TrackPointExtension>
            <ns3:atemp>18.0</ns3:atemp>
          </ns3:TrackPointExtension>
        </extensions>
      </trkpt>
      <trkpt lat="46.73625768162310123443603515625" lon="6.8695672787725925445556640625">
        <ele>367.20001220703125</ele>
        <time>2013-09-01T15:57:46.000Z</time>
        <extensions>
          <ns3:TrackPointExtension>
            <ns3:atemp>18.0</ns3:atemp>
          </ns3:TrackPointExtension>
        </extensions>
      </trkpt>
      <trkpt lat="46.73631300218403339385986328125" lon="6.86961832456290721893310546875">
        <ele>367.20001220703125</ele>
        <time>2013-09-01T15:57:47.000Z</time>
        <extensions>
          <ns3:TrackPointExtension>
            <ns3:atemp>18.0</ns3:atemp>
          </ns3:TrackPointExtension>
        </extensions>
      </trkpt>
      <trkpt lat="46.73636714927852153778076171875" lon="6.86966911889612674713134765625">
        <ele>367.399993896484375</ele>
        <time>2013-09-01T15:57:48.000Z</time>
        <extensions>
          <ns3:TrackPointExtension>
            <ns3:atemp>18.0</ns3:atemp>
          </ns3:TrackPointExtension>
        </extensions>
      </trkpt>
      <trkpt lat="46.7364197038114070892333984375" lon="6.86972125433385372161865234375">
        <ele>367</ele>
        <time>2013-09-01T15:57:49.000Z</time>
        <extensions>
          <ns3:TrackPointExtension>
            <ns3:atemp>18.0</ns3:atemp>
          </ns3:TrackPointExtension>
        </extensions>
      </trkpt>
      <trkpt lat="46.73647242598235607147216796875" lon="6.86977372504770755767822265625">
        <ele>367</ele>
        <time>2013-09-01T15:57:50.000Z</time>
        <extensions>
          <ns3:TrackPointExtension>
            <ns3:atemp>18.0</ns3:atemp>
          </ns3:TrackPointExtension>
        </extensions>
      </trkpt>
      <trkpt lat="46.73652590252459049224853515625" lon="6.869822926819324493408203125">
        <ele>366.600006103515625</ele>
        <time>2013-09-01T15:57:51.000Z</time>
        <extensions>
          <ns3:TrackPointExtension>
            <ns3:atemp>18.0</ns3:atemp>
          </ns3:TrackPointExtension>
        </extensions>
      </trkpt>
      <trkpt lat="46.73657988198101520538330078125" lon="6.86987447552382946014404296875">
        <ele>366.600006103515625</ele>
        <time>2013-09-01T15:57:52.000Z</time>
        <extensions>
          <ns3:TrackPointExtension>
            <ns3:atemp>18.0</ns3:atemp>
          </ns3:TrackPointExtension>
        </extensions>
      </trkpt>
      <trkpt lat="46.73663436435163021087646484375" lon="6.86992661096155643463134765625">
        <ele>366.399993896484375</ele>
        <time>2013-09-01T15:57:53.000Z</time>
        <extensions>
          <ns3:TrackPointExtension>
            <ns3:atemp>18.0</ns3:atemp>
          </ns3:TrackPointExtension>
        </extensions>
      </trkpt>
      <trkpt lat="46.736690439283847808837890625" lon="6.86997757293283939361572265625">
        <ele>366.399993896484375</ele>
        <time>2013-09-01T15:57:54.000Z</time>
        <extensions>
          <ns3:TrackPointExtension>
            <ns3:atemp>18.0</ns3:atemp>
          </ns3:TrackPointExtension>
        </extensions>
      </trkpt>
      <trkpt lat="46.73674634657800197601318359375" lon="6.8700292892754077911376953125">
        <ele>366.600006103515625</ele>
        <time>2013-09-01T15:57:55.000Z</time>
        <extensions>
          <ns3:TrackPointExtension>
            <ns3:atemp>18.0</ns3:atemp>
          </ns3:TrackPointExtension>
        </extensions>
      </trkpt>
      <trkpt lat="46.73680032603442668914794921875" lon="6.870083771646022796630859375">
        <ele>366.600006103515625</ele>
        <time>2013-09-01T15:57:56.000Z</time>
        <extensions>
          <ns3:TrackPointExtension>
            <ns3:atemp>18.0</ns3:atemp>
          </ns3:TrackPointExtension>
        </extensions>
      </trkpt>
      <trkpt lat="46.73685531131923198699951171875" lon="6.870132051408290863037109375">
        <ele>366.79998779296875</ele>
        <time>2013-09-01T15:57:57.000Z</time>
        <extensions>
          <ns3:TrackPointExtension>
            <ns3:atemp>18.0</ns3:atemp>
          </ns3:TrackPointExtension>
        </extensions>
      </trkpt>
      <trkpt lat="46.73690962605178356170654296875" lon="6.8701831810176372528076171875">
        <ele>366.600006103515625</ele>
        <time>2013-09-01T15:57:58.000Z</time>
        <extensions>
          <ns3:TrackPointExtension>
            <ns3:atemp>18.0</ns3:atemp>
          </ns3:TrackPointExtension>
        </extensions>
      </trkpt>
      <trkpt lat="46.73696444369852542877197265625" lon="6.870234645903110504150390625">
        <ele>366.600006103515625</ele>
        <time>2013-09-01T15:57:59.000Z</time>
        <extensions>
          <ns3:TrackPointExtension>
            <ns3:atemp>18.0</ns3:atemp>
          </ns3:TrackPointExtension>
        </extensions>
      </trkpt>
      <trkpt lat="46.73701926134526729583740234375" lon="6.8702854402363300323486328125">
        <ele>366.600006103515625</ele>
        <time>2013-09-01T15:58:00.000Z</time>
        <extensions>
          <ns3:TrackPointExtension>
            <ns3:atemp>18.0</ns3:atemp>
          </ns3:TrackPointExtension>
        </extensions>
      </trkpt>
      <trkpt lat="46.73707433044910430908203125" lon="6.87033782713115215301513671875">
        <ele>366.600006103515625</ele>
        <time>2013-09-01T15:58:01.000Z</time>
        <extensions>
          <ns3:TrackPointExtension>
            <ns3:atemp>18.0</ns3:atemp>
          </ns3:TrackPointExtension>
        </extensions>
      </trkpt>
      <trkpt lat="46.73712738789618015289306640625" lon="6.8703920580446720123291015625">
        <ele>366.399993896484375</ele>
        <time>2013-09-01T15:58:02.000Z</time>
        <extensions>
          <ns3:TrackPointExtension>
            <ns3:atemp>18.0</ns3:atemp>
          </ns3:TrackPointExtension>
        </extensions>
      </trkpt>
      <trkpt lat="46.73718027770519256591796875" lon="6.87044427730143070220947265625">
        <ele>366.20001220703125</ele>
        <time>2013-09-01T15:58:03.000Z</time>
        <extensions>
          <ns3:TrackPointExtension>
            <ns3:atemp>18.0</ns3:atemp>
          </ns3:TrackPointExtension>
        </extensions>
      </trkpt>
      <trkpt lat="46.73723316751420497894287109375" lon="6.87049917876720428466796875">
        <ele>366.20001220703125</ele>
        <time>2013-09-01T15:58:04.000Z</time>
        <extensions>
          <ns3:TrackPointExtension>
            <ns3:atemp>18.0</ns3:atemp>
          </ns3:TrackPointExtension>
        </extensions>
      </trkpt>
      <trkpt lat="46.73728748224675655364990234375" lon="6.8705509789288043975830078125">
        <ele>366.20001220703125</ele>
        <time>2013-09-01T15:58:05.000Z</time>
        <extensions>
          <ns3:TrackPointExtension>
            <ns3:atemp>18.0</ns3:atemp>
          </ns3:TrackPointExtension>
        </extensions>
      </trkpt>
      <trkpt lat="46.73734397627413272857666015625" lon="6.870600767433643341064453125">
        <ele>366.20001220703125</ele>
        <time>2013-09-01T15:58:06.000Z</time>
        <extensions>
          <ns3:TrackPointExtension>
            <ns3:atemp>18.0</ns3:atemp>
          </ns3:TrackPointExtension>
        </extensions>
      </trkpt>
      <trkpt lat="46.737399213016033172607421875" lon="6.87065214850008487701416015625">
        <ele>366.399993896484375</ele>
        <time>2013-09-01T15:58:07.000Z</time>
        <extensions>
          <ns3:TrackPointExtension>
            <ns3:atemp>18.0</ns3:atemp>
          </ns3:TrackPointExtension>
        </extensions>
      </trkpt>
      <trkpt lat="46.73745495267212390899658203125" lon="6.87070545740425586700439453125">
        <ele>366.20001220703125</ele>
        <time>2013-09-01T15:58:08.000Z</time>
        <extensions>
          <ns3:TrackPointExtension>
            <ns3:atemp>18.0</ns3:atemp>
          </ns3:TrackPointExtension>
        </extensions>
      </trkpt>
      <trkpt lat="46.73750943504273891448974609375" lon="6.87075910158455371856689453125">
        <ele>366</ele>
        <time>2013-09-01T15:58:09.000Z</time>
        <extensions>
          <ns3:TrackPointExtension>
            <ns3:atemp>18.0</ns3:atemp>
          </ns3:TrackPointExtension>
        </extensions>
      </trkpt>
      <trkpt lat="46.737564504146575927734375" lon="6.87081157229840755462646484375">
        <ele>365.600006103515625</ele>
        <time>2013-09-01T15:58:10.000Z</time>
        <extensions>
          <ns3:TrackPointExtension>
            <ns3:atemp>18.0</ns3:atemp>
          </ns3:TrackPointExtension>
        </extensions>
      </trkpt>
      <trkpt lat="46.73762091435492038726806640625" lon="6.87086387537419795989990234375">
        <ele>365.399993896484375</ele>
        <time>2013-09-01T15:58:11.000Z</time>
        <extensions>
          <ns3:TrackPointExtension>
            <ns3:atemp>18.0</ns3:atemp>
          </ns3:TrackPointExtension>
        </extensions>
      </trkpt>
      <trkpt lat="46.73767573200166225433349609375" lon="6.87091969884932041168212890625">
        <ele>365.399993896484375</ele>
        <time>2013-09-01T15:58:12.000Z</time>
        <extensions>
          <ns3:TrackPointExtension>
            <ns3:atemp>18.0</ns3:atemp>
          </ns3:TrackPointExtension>
        </extensions>
      </trkpt>
      <trkpt lat="46.7377323098480701446533203125" lon="6.8709761090576648712158203125">
        <ele>365.600006103515625</ele>
        <time>2013-09-01T15:58:13.000Z</time>
        <extensions>
          <ns3:TrackPointExtension>
            <ns3:atemp>18.0</ns3:atemp>
          </ns3:TrackPointExtension>
        </extensions>
      </trkpt>
      <trkpt lat="46.73778972588479518890380859375" lon="6.8710297532379627227783203125">
        <ele>365.600006103515625</ele>
        <time>2013-09-01T15:58:14.000Z</time>
        <extensions>
          <ns3:TrackPointExtension>
            <ns3:atemp>18.0</ns3:atemp>
          </ns3:TrackPointExtension>
        </extensions>
      </trkpt>
      <trkpt lat="46.73784588463604450225830078125" lon="6.87108599580824375152587890625">
        <ele>365.600006103515625</ele>
        <time>2013-09-01T15:58:15.000Z</time>
        <extensions>
          <ns3:TrackPointExtension>
            <ns3:atemp>18.0</ns3:atemp>
          </ns3:TrackPointExtension>
        </extensions>
      </trkpt>
      <trkpt lat="46.73790422268211841583251953125" lon="6.87114198692142963409423828125">
        <ele>365.399993896484375</ele>
        <time>2013-09-01T15:58:16.000Z</time>
        <extensions>
          <ns3:TrackPointExtension>
            <ns3:atemp>18.0</ns3:atemp>
          </ns3:TrackPointExtension>
        </extensions>
      </trkpt>
      <trkpt lat="46.737962476909160614013671875" lon="6.87120015732944011688232421875">
        <ele>365.399993896484375</ele>
        <time>2013-09-01T15:58:17.000Z</time>
        <extensions>
          <ns3:TrackPointExtension>
            <ns3:atemp>18.0</ns3:atemp>
          </ns3:TrackPointExtension>
        </extensions>
      </trkpt>
      <trkpt lat="46.73802073113620281219482421875" lon="6.87125531025230884552001953125">
        <ele>365.399993896484375</ele>
        <time>2013-09-01T15:58:18.000Z</time>
        <extensions>
          <ns3:TrackPointExtension>
            <ns3:atemp>18.0</ns3:atemp>
          </ns3:TrackPointExtension>
        </extensions>
      </trkpt>
      <trkpt lat="46.738079488277435302734375" lon="6.87130996026098728179931640625">
        <ele>365.399993896484375</ele>
        <time>2013-09-01T15:58:19.000Z</time>
        <extensions>
          <ns3:TrackPointExtension>
            <ns3:atemp>18.0</ns3:atemp>
          </ns3:TrackPointExtension>
        </extensions>
      </trkpt>
      <trkpt lat="46.73813858069479465484619140625" lon="6.8713673762977123260498046875">
        <ele>365.399993896484375</ele>
        <time>2013-09-01T15:58:20.000Z</time>
        <extensions>
          <ns3:TrackPointExtension>
            <ns3:atemp>18.0</ns3:atemp>
          </ns3:TrackPointExtension>
        </extensions>
      </trkpt>
      <trkpt lat="46.73819624818861484527587890625" lon="6.87142261303961277008056640625">
        <ele>365.600006103515625</ele>
        <time>2013-09-01T15:58:21.000Z</time>
        <extensions>
          <ns3:TrackPointExtension>
            <ns3:atemp>18.0</ns3:atemp>
          </ns3:TrackPointExtension>
        </extensions>
      </trkpt>
      <trkpt lat="46.73825358040630817413330078125" lon="6.87147743068635463714599609375">
        <ele>365.600006103515625</ele>
        <time>2013-09-01T15:58:22.000Z</time>
        <extensions>
          <ns3:TrackPointExtension>
            <ns3:atemp>18.0</ns3:atemp>
          </ns3:TrackPointExtension>
        </extensions>
      </trkpt>
      <trkpt lat="46.7383106611669063568115234375" lon="6.8715311586856842041015625">
        <ele>365.79998779296875</ele>
        <time>2013-09-01T15:58:23.000Z</time>
        <extensions>
          <ns3:TrackPointExtension>
            <ns3:atemp>18.0</ns3:atemp>
          </ns3:TrackPointExtension>
        </extensions>
      </trkpt>
      <trkpt lat="46.7383676581084728240966796875" lon="6.8715848028659820556640625">
        <ele>365.600006103515625</ele>
        <time>2013-09-01T15:58:24.000Z</time>
        <extensions>
          <ns3:TrackPointExtension>
            <ns3:atemp>18.0</ns3:atemp>
          </ns3:TrackPointExtension>
        </extensions>
      </trkpt>
      <trkpt lat="46.738424487411975860595703125" lon="6.87163635157048702239990234375">
        <ele>365.399993896484375</ele>
        <time>2013-09-01T15:58:25.000Z</time>
        <extensions>
          <ns3:TrackPointExtension>
            <ns3:atemp>18.0</ns3:atemp>
          </ns3:TrackPointExtension>
        </extensions>
      </trkpt>
      <trkpt lat="46.73848240636289119720458984375" lon="6.871687732636928558349609375">
        <ele>365.20001220703125</ele>
        <time>2013-09-01T15:58:26.000Z</time>
        <extensions>
          <ns3:TrackPointExtension>
            <ns3:atemp>18.0</ns3:atemp>
          </ns3:TrackPointExtension>
        </extensions>
      </trkpt>
      <trkpt lat="46.7385399900376796722412109375" lon="6.87174313701689243316650390625">
        <ele>365</ele>
        <time>2013-09-01T15:58:27.000Z</time>
        <extensions>
          <ns3:TrackPointExtension>
            <ns3:atemp>18.0</ns3:atemp>
          </ns3:TrackPointExtension>
        </extensions>
      </trkpt>
      <trkpt lat="46.7385973222553730010986328125" lon="6.87179896049201488494873046875">
        <ele>365.20001220703125</ele>
        <time>2013-09-01T15:58:28.000Z</time>
        <extensions>
          <ns3:TrackPointExtension>
            <ns3:atemp>18.0</ns3:atemp>
          </ns3:TrackPointExtension>
        </extensions>
      </trkpt>
      <trkpt lat="46.73865507356822490692138671875" lon="6.87185377813875675201416015625">
        <ele>365.20001220703125</ele>
        <time>2013-09-01T15:58:29.000Z</time>
        <extensions>
          <ns3:TrackPointExtension>
            <ns3:atemp>18.0</ns3:atemp>
          </ns3:TrackPointExtension>
        </extensions>
      </trkpt>
      <trkpt lat="46.73871307633817195892333984375" lon="6.87190742231905460357666015625">
        <ele>365</ele>
        <time>2013-09-01T15:58:30.000Z</time>
        <extensions>
          <ns3:TrackPointExtension>
            <ns3:atemp>18.0</ns3:atemp>
          </ns3:TrackPointExtension>
        </extensions>
      </trkpt>
      <trkpt lat="46.73877040855586528778076171875" lon="6.8719624914228916168212890625">
        <ele>364.79998779296875</ele>
        <time>2013-09-01T15:58:31.000Z</time>
        <extensions>
          <ns3:TrackPointExtension>
            <ns3:atemp>18.0</ns3:atemp>
          </ns3:TrackPointExtension>
        </extensions>
      </trkpt>
      <trkpt lat="46.7388283275067806243896484375" lon="6.87201404012739658355712890625">
        <ele>365</ele>
        <time>2013-09-01T15:58:32.000Z</time>
        <extensions>
          <ns3:TrackPointExtension>
            <ns3:atemp>18.0</ns3:atemp>
          </ns3:TrackPointExtension>
        </extensions>
      </trkpt>
      <trkpt lat="46.73888591118156909942626953125" lon="6.87206718139350414276123046875">
        <ele>365</ele>
        <time>2013-09-01T15:58:33.000Z</time>
        <extensions>
          <ns3:TrackPointExtension>
            <ns3:atemp>18.0</ns3:atemp>
          </ns3:TrackPointExtension>
        </extensions>
      </trkpt>
      <trkpt lat="46.73894248902797698974609375" lon="6.87212216667830944061279296875">
        <ele>365.20001220703125</ele>
        <time>2013-09-01T15:58:34.000Z</time>
        <extensions>
          <ns3:TrackPointExtension>
            <ns3:atemp>18.0</ns3:atemp>
          </ns3:TrackPointExtension>
        </extensions>
      </trkpt>
      <trkpt lat="46.738999150693416595458984375" lon="6.87217555940151214599609375">
        <ele>365.399993896484375</ele>
        <time>2013-09-01T15:58:35.000Z</time>
        <extensions>
          <ns3:TrackPointExtension>
            <ns3:atemp>18.0</ns3:atemp>
          </ns3:TrackPointExtension>
        </extensions>
      </trkpt>
      <trkpt lat="46.73905606381595134735107421875" lon="6.87222920358180999755859375">
        <ele>365.399993896484375</ele>
        <time>2013-09-01T15:58:36.000Z</time>
        <extensions>
          <ns3:TrackPointExtension>
            <ns3:atemp>18.0</ns3:atemp>
          </ns3:TrackPointExtension>
        </extensions>
      </trkpt>
      <trkpt lat="46.739114485681056976318359375" lon="6.872285194694995880126953125">
        <ele>365.20001220703125</ele>
        <time>2013-09-01T15:58:37.000Z</time>
        <extensions>
          <ns3:TrackPointExtension>
            <ns3:atemp>18.0</ns3:atemp>
          </ns3:TrackPointExtension>
        </extensions>
      </trkpt>
      <trkpt lat="46.73917315900325775146484375" lon="6.8723403476178646087646484375">
        <ele>365</ele>
        <time>2013-09-01T15:58:38.000Z</time>
        <extensions>
          <ns3:TrackPointExtension>
            <ns3:atemp>18.0</ns3:atemp>
          </ns3:TrackPointExtension>
        </extensions>
      </trkpt>
      <trkpt lat="46.73922923393547534942626953125" lon="6.87239491380751132965087890625">
        <ele>364.79998779296875</ele>
        <time>2013-09-01T15:58:39.000Z</time>
        <extensions>
          <ns3:TrackPointExtension>
            <ns3:atemp>18.0</ns3:atemp>
          </ns3:TrackPointExtension>
        </extensions>
      </trkpt>
      <trkpt lat="46.7392866499722003936767578125" lon="6.87244906090199947357177734375">
        <ele>364.79998779296875</ele>
        <time>2013-09-01T15:58:40.000Z</time>
        <extensions>
          <ns3:TrackPointExtension>
            <ns3:atemp>18.0</ns3:atemp>
          </ns3:TrackPointExtension>
        </extensions>
      </trkpt>
      <trkpt lat="46.73934406600892543792724609375" lon="6.87250270508229732513427734375">
        <ele>364.79998779296875</ele>
        <time>2013-09-01T15:58:41.000Z</time>
        <extensions>
          <ns3:TrackPointExtension>
            <ns3:atemp>18.0</ns3:atemp>
          </ns3:TrackPointExtension>
        </extensions>
      </trkpt>
      <trkpt lat="46.73939921893179416656494140625" lon="6.87255777418613433837890625">
        <ele>365</ele>
        <time>2013-09-01T15:58:42.000Z</time>
        <extensions>
          <ns3:TrackPointExtension>
            <ns3:atemp>18.0</ns3:atemp>
          </ns3:TrackPointExtension>
        </extensions>
      </trkpt>
      <trkpt lat="46.739455126225948333740234375" lon="6.87261418439447879791259765625">
        <ele>365</ele>
        <time>2013-09-01T15:58:43.000Z</time>
        <extensions>
          <ns3:TrackPointExtension>
            <ns3:atemp>18.0</ns3:atemp>
          </ns3:TrackPointExtension>
        </extensions>
      </trkpt>
      <trkpt lat="46.73951187171041965484619140625" lon="6.87266950495541095733642578125">
        <ele>365.20001220703125</ele>
        <time>2013-09-01T15:58:44.000Z</time>
        <extensions>
          <ns3:TrackPointExtension>
            <ns3:atemp>18.0</ns3:atemp>
          </ns3:TrackPointExtension>
        </extensions>
      </trkpt>
      <trkpt lat="46.73956878483295440673828125" lon="6.8727235682308673858642578125">
        <ele>365.20001220703125</ele>
        <time>2013-09-01T15:58:45.000Z</time>
        <extensions>
          <ns3:TrackPointExtension>
            <ns3:atemp>18.0</ns3:atemp>
          </ns3:TrackPointExtension>
        </extensions>
      </trkpt>
      <trkpt lat="46.73962838016450405120849609375" lon="6.872774697840213775634765625">
        <ele>365</ele>
        <time>2013-09-01T15:58:46.000Z</time>
        <extensions>
          <ns3:TrackPointExtension>
            <ns3:atemp>18.0</ns3:atemp>
          </ns3:TrackPointExtension>
        </extensions>
      </trkpt>
      <trkpt lat="46.73968621529638767242431640625" lon="6.8728285096585750579833984375">
        <ele>364.79998779296875</ele>
        <time>2013-09-01T15:58:47.000Z</time>
        <extensions>
          <ns3:TrackPointExtension>
            <ns3:atemp>18.0</ns3:atemp>
          </ns3:TrackPointExtension>
        </extensions>
      </trkpt>
      <trkpt lat="46.73974514007568359375" lon="6.87288257293403148651123046875">
        <ele>364.79998779296875</ele>
        <time>2013-09-01T15:58:48.000Z</time>
        <extensions>
          <ns3:TrackPointExtension>
            <ns3:atemp>18.0</ns3:atemp>
          </ns3:TrackPointExtension>
        </extensions>
      </trkpt>
      <trkpt lat="46.7398033104836940765380859375" lon="6.87293839640915393829345703125">
        <ele>364.600006103515625</ele>
        <time>2013-09-01T15:58:49.000Z</time>
        <extensions>
          <ns3:TrackPointExtension>
            <ns3:atemp>18.0</ns3:atemp>
          </ns3:TrackPointExtension>
        </extensions>
      </trkpt>
      <trkpt lat="46.73986189998686313629150390625" lon="6.872993968427181243896484375">
        <ele>364.600006103515625</ele>
        <time>2013-09-01T15:58:50.000Z</time>
        <extensions>
          <ns3:TrackPointExtension>
            <ns3:atemp>18.0</ns3:atemp>
          </ns3:TrackPointExtension>
        </extensions>
      </trkpt>
      <trkpt lat="46.73992040567100048065185546875" lon="6.8730492889881134033203125">
        <ele>364.79998779296875</ele>
        <time>2013-09-01T15:58:51.000Z</time>
        <extensions>
          <ns3:TrackPointExtension>
            <ns3:atemp>18.0</ns3:atemp>
          </ns3:TrackPointExtension>
        </extensions>
      </trkpt>
      <trkpt lat="46.7399776540696620941162109375" lon="6.87310167588293552398681640625">
        <ele>364.79998779296875</ele>
        <time>2013-09-01T15:58:52.000Z</time>
        <extensions>
          <ns3:TrackPointExtension>
            <ns3:atemp>18.0</ns3:atemp>
          </ns3:TrackPointExtension>
        </extensions>
      </trkpt>
      <trkpt lat="46.7400343157351016998291015625" lon="6.87316118739545345306396484375">
        <ele>364.79998779296875</ele>
        <time>2013-09-01T15:58:53.000Z</time>
        <extensions>
          <ns3:TrackPointExtension>
            <ns3:atemp>18.0</ns3:atemp>
          </ns3:TrackPointExtension>
        </extensions>
      </trkpt>
      <trkpt lat="46.7400886304676532745361328125" lon="6.87322430312633514404296875">
        <ele>364.600006103515625</ele>
        <time>2013-09-01T15:58:54.000Z</time>
        <extensions>
          <ns3:TrackPointExtension>
            <ns3:atemp>18.0</ns3:atemp>
          </ns3:TrackPointExtension>
        </extensions>
      </trkpt>
      <trkpt lat="46.740145795047283172607421875" lon="6.8732801266014575958251953125">
        <ele>364.600006103515625</ele>
        <time>2013-09-01T15:58:55.000Z</time>
        <extensions>
          <ns3:TrackPointExtension>
            <ns3:atemp>18.0</ns3:atemp>
          </ns3:TrackPointExtension>
        </extensions>
      </trkpt>
      <trkpt lat="46.74020254053175449371337890625" lon="6.873337291181087493896484375">
        <ele>364.399993896484375</ele>
        <time>2013-09-01T15:58:56.000Z</time>
        <extensions>
          <ns3:TrackPointExtension>
            <ns3:atemp>18.0</ns3:atemp>
          </ns3:TrackPointExtension>
        </extensions>
      </trkpt>
      <trkpt lat="46.74026154913008213043212890625" lon="6.8733907677233219146728515625">
        <ele>364.600006103515625</ele>
        <time>2013-09-01T15:58:57.000Z</time>
        <extensions>
          <ns3:TrackPointExtension>
            <ns3:atemp>18.0</ns3:atemp>
          </ns3:TrackPointExtension>
        </extensions>
      </trkpt>
      <trkpt lat="46.74032206647098064422607421875" lon="6.87344566918909549713134765625">
        <ele>364.399993896484375</ele>
        <time>2013-09-01T15:58:58.000Z</time>
        <extensions>
          <ns3:TrackPointExtension>
            <ns3:atemp>18.0</ns3:atemp>
          </ns3:TrackPointExtension>
        </extensions>
      </trkpt>
      <trkpt lat="46.7403823323547840118408203125" lon="6.87350015155971050262451171875">
        <ele>364.20001220703125</ele>
        <time>2013-09-01T15:58:59.000Z</time>
        <extensions>
          <ns3:TrackPointExtension>
            <ns3:atemp>18.0</ns3:atemp>
          </ns3:TrackPointExtension>
        </extensions>
      </trkpt>
      <trkpt lat="46.74044159241020679473876953125" lon="6.87355480156838893890380859375">
        <ele>364.399993896484375</ele>
        <time>2013-09-01T15:59:00.000Z</time>
        <extensions>
          <ns3:TrackPointExtension>
            <ns3:atemp>18.0</ns3:atemp>
          </ns3:TrackPointExtension>
        </extensions>
      </trkpt>
      <trkpt lat="46.74049993045628070831298828125" lon="6.87360928393900394439697265625">
        <ele>364.600006103515625</ele>
        <time>2013-09-01T15:59:01.000Z</time>
        <extensions>
          <ns3:TrackPointExtension>
            <ns3:atemp>18.0</ns3:atemp>
          </ns3:TrackPointExtension>
        </extensions>
      </trkpt>
      <trkpt lat="46.740562207996845245361328125" lon="6.8736542947590351104736328125">
        <ele>364.79998779296875</ele>
        <time>2013-09-01T15:59:02.000Z</time>
        <extensions>
          <ns3:TrackPointExtension>
            <ns3:atemp>18.0</ns3:atemp>
          </ns3:TrackPointExtension>
        </extensions>
      </trkpt>
      <trkpt lat="46.74062155187129974365234375" lon="6.87370852567255496978759765625">
        <ele>364.399993896484375</ele>
        <time>2013-09-01T15:59:03.000Z</time>
        <extensions>
          <ns3:TrackPointExtension>
            <ns3:atemp>18.0</ns3:atemp>
          </ns3:TrackPointExtension>
        </extensions>
      </trkpt>
      <trkpt lat="46.74068081192672252655029296875" lon="6.87376334331929683685302734375">
        <ele>364.20001220703125</ele>
        <time>2013-09-01T15:59:04.000Z</time>
        <extensions>
          <ns3:TrackPointExtension>
            <ns3:atemp>18.0</ns3:atemp>
          </ns3:TrackPointExtension>
        </extensions>
      </trkpt>
      <trkpt lat="46.7407397367060184478759765625" lon="6.87382000498473644256591796875">
        <ele>363.79998779296875</ele>
        <time>2013-09-01T15:59:05.000Z</time>
        <extensions>
          <ns3:TrackPointExtension>
            <ns3:atemp>18.0</ns3:atemp>
          </ns3:TrackPointExtension>
        </extensions>
      </trkpt>
      <trkpt lat="46.74079849384725093841552734375" lon="6.8738772533833980560302734375">
        <ele>363.79998779296875</ele>
        <time>2013-09-01T15:59:06.000Z</time>
        <extensions>
          <ns3:TrackPointExtension>
            <ns3:atemp>18.0</ns3:atemp>
          </ns3:TrackPointExtension>
        </extensions>
      </trkpt>
      <trkpt lat="46.74085582606494426727294921875" lon="6.87393500469624996185302734375">
        <ele>364</ele>
        <time>2013-09-01T15:59:07.000Z</time>
        <extensions>
          <ns3:TrackPointExtension>
            <ns3:atemp>18.0</ns3:atemp>
          </ns3:TrackPointExtension>
        </extensions>
      </trkpt>
      <trkpt lat="46.74091349355876445770263671875" lon="6.8739925883710384368896484375">
        <ele>364</ele>
        <time>2013-09-01T15:59:08.000Z</time>
        <extensions>
          <ns3:TrackPointExtension>
            <ns3:atemp>18.0</ns3:atemp>
          </ns3:TrackPointExtension>
        </extensions>
      </trkpt>
      <trkpt lat="46.74097065813839435577392578125" lon="6.8740495853126049041748046875">
        <ele>364.20001220703125</ele>
        <time>2013-09-01T15:59:09.000Z</time>
        <extensions>
          <ns3:TrackPointExtension>
            <ns3:atemp>18.0</ns3:atemp>
          </ns3:TrackPointExtension>
        </extensions>
      </trkpt>
      <trkpt lat="46.7410284094512462615966796875" lon="6.874105744063854217529296875">
        <ele>364.600006103515625</ele>
        <time>2013-09-01T15:59:10.000Z</time>
        <extensions>
          <ns3:TrackPointExtension>
            <ns3:atemp>18.0</ns3:atemp>
          </ns3:TrackPointExtension>
        </extensions>
      </trkpt>
      <trkpt lat="46.74108414910733699798583984375" lon="6.87415829859673976898193359375">
        <ele>364.600006103515625</ele>
        <time>2013-09-01T15:59:11.000Z</time>
        <extensions>
          <ns3:TrackPointExtension>
            <ns3:atemp>18.0</ns3:atemp>
          </ns3:TrackPointExtension>
        </extensions>
      </trkpt>
      <trkpt lat="46.7411403916776180267333984375" lon="6.87421177513897418975830078125">
        <ele>364.399993896484375</ele>
        <time>2013-09-01T15:59:12.000Z</time>
        <extensions>
          <ns3:TrackPointExtension>
            <ns3:atemp>18.0</ns3:atemp>
          </ns3:TrackPointExtension>
        </extensions>
      </trkpt>
      <trkpt lat="46.74119663424789905548095703125" lon="6.874266006052494049072265625">
        <ele>364.20001220703125</ele>
        <time>2013-09-01T15:59:13.000Z</time>
        <extensions>
          <ns3:TrackPointExtension>
            <ns3:atemp>18.0</ns3:atemp>
          </ns3:TrackPointExtension>
        </extensions>
      </trkpt>
      <trkpt lat="46.74125413410365581512451171875" lon="6.87431805767118930816650390625">
        <ele>363.79998779296875</ele>
        <time>2013-09-01T15:59:14.000Z</time>
        <extensions>
          <ns3:TrackPointExtension>
            <ns3:atemp>18.0</ns3:atemp>
          </ns3:TrackPointExtension>
        </extensions>
      </trkpt>
      <trkpt lat="46.741310544312000274658203125" lon="6.874371953308582305908203125">
        <ele>363.600006103515625</ele>
        <time>2013-09-01T15:59:15.000Z</time>
        <extensions>
          <ns3:TrackPointExtension>
            <ns3:atemp>18.0</ns3:atemp>
          </ns3:TrackPointExtension>
        </extensions>
      </trkpt>
      <trkpt lat="46.74136427231132984161376953125" lon="6.87441998161375522613525390625">
        <ele>363.79998779296875</ele>
        <time>2013-09-01T15:59:16.000Z</time>
        <extensions>
          <ns3:TrackPointExtension>
            <ns3:atemp>18.0</ns3:atemp>
          </ns3:TrackPointExtension>
        </extensions>
      </trkpt>
      <trkpt lat="46.74141607247292995452880859375" lon="6.8744784034788608551025390625">
        <ele>363.79998779296875</ele>
        <time>2013-09-01T15:59:17.000Z</time>
        <extensions>
          <ns3:TrackPointExtension>
            <ns3:atemp>18.0</ns3:atemp>
          </ns3:TrackPointExtension>
        </extensions>
      </trkpt>
      <trkpt lat="46.74147457815706729888916015625" lon="6.8745352327823638916015625">
        <ele>363.79998779296875</ele>
        <time>2013-09-01T15:59:18.000Z</time>
        <extensions>
          <ns3:TrackPointExtension>
            <ns3:atemp>18.0</ns3:atemp>
          </ns3:TrackPointExtension>
        </extensions>
      </trkpt>
      <trkpt lat="46.74153191037476062774658203125" lon="6.87458778731524944305419921875">
        <ele>364</ele>
        <time>2013-09-01T15:59:19.000Z</time>
        <extensions>
          <ns3:TrackPointExtension>
            <ns3:atemp>18.0</ns3:atemp>
          </ns3:TrackPointExtension>
        </extensions>
      </trkpt>
      <trkpt lat="46.74158773384988307952880859375" lon="6.8746425211429595947265625">
        <ele>364</ele>
        <time>2013-09-01T15:59:21.000Z</time>
        <extensions>
          <ns3:TrackPointExtension>
            <ns3:atemp>18.0</ns3:atemp>
          </ns3:TrackPointExtension>
        </extensions>
      </trkpt>
      <trkpt lat="46.7416449822485446929931640625" lon="6.87469239346683025360107421875">
        <ele>363.79998779296875</ele>
        <time>2013-09-01T15:59:22.000Z</time>
        <extensions>
          <ns3:TrackPointExtension>
            <ns3:atemp>18.0</ns3:atemp>
          </ns3:TrackPointExtension>
        </extensions>
      </trkpt>
      <trkpt lat="46.74170156009495258331298828125" lon="6.8747459538280963897705078125">
        <ele>363.600006103515625</ele>
        <time>2013-09-01T15:59:23.000Z</time>
        <extensions>
          <ns3:TrackPointExtension>
            <ns3:atemp>18.0</ns3:atemp>
          </ns3:TrackPointExtension>
        </extensions>
      </trkpt>
      <trkpt lat="46.74175688065588474273681640625" lon="6.8748016096651554107666015625">
        <ele>363.600006103515625</ele>
        <time>2013-09-01T15:59:24.000Z</time>
        <extensions>
          <ns3:TrackPointExtension>
            <ns3:atemp>18.0</ns3:atemp>
          </ns3:TrackPointExtension>
        </extensions>
      </trkpt>
      <trkpt lat="46.741814129054546356201171875" lon="6.874856762588024139404296875">
        <ele>363.600006103515625</ele>
        <time>2013-09-01T15:59:25.000Z</time>
        <extensions>
          <ns3:TrackPointExtension>
            <ns3:atemp>18.0</ns3:atemp>
          </ns3:TrackPointExtension>
        </extensions>
      </trkpt>
      <trkpt lat="46.74187280237674713134765625" lon="6.87490738928318023681640625">
        <ele>363.600006103515625</ele>
        <time>2013-09-01T15:59:26.000Z</time>
        <extensions>
          <ns3:TrackPointExtension>
            <ns3:atemp>18.0</ns3:atemp>
          </ns3:TrackPointExtension>
        </extensions>
      </trkpt>
      <trkpt lat="46.74192778766155242919921875" lon="6.874960027635097503662109375">
        <ele>363.79998779296875</ele>
        <time>2013-09-01T15:59:27.000Z</time>
        <extensions>
          <ns3:TrackPointExtension>
            <ns3:atemp>18.0</ns3:atemp>
          </ns3:TrackPointExtension>
        </extensions>
      </trkpt>
      <trkpt lat="46.74198210239410400390625" lon="6.87501224689185619354248046875">
        <ele>363.79998779296875</ele>
        <time>2013-09-01T15:59:28.000Z</time>
        <extensions>
          <ns3:TrackPointExtension>
            <ns3:atemp>18.0</ns3:atemp>
          </ns3:TrackPointExtension>
        </extensions>
      </trkpt>
      <trkpt lat="46.74203834496438503265380859375" lon="6.875063963234424591064453125">
        <ele>363.79998779296875</ele>
        <time>2013-09-01T15:59:29.000Z</time>
        <extensions>
          <ns3:TrackPointExtension>
            <ns3:atemp>18.0</ns3:atemp>
          </ns3:TrackPointExtension>
        </extensions>
      </trkpt>
      <trkpt lat="46.74209483899176120758056640625" lon="6.8751154281198978424072265625">
        <ele>363.79998779296875</ele>
        <time>2013-09-01T15:59:30.000Z</time>
        <extensions>
          <ns3:TrackPointExtension>
            <ns3:atemp>18.0</ns3:atemp>
          </ns3:TrackPointExtension>
        </extensions>
      </trkpt>
      <trkpt lat="46.74214982427656650543212890625" lon="6.875167228281497955322265625">
        <ele>364</ele>
        <time>2013-09-01T15:59:31.000Z</time>
        <extensions>
          <ns3:TrackPointExtension>
            <ns3:atemp>18.0</ns3:atemp>
          </ns3:TrackPointExtension>
        </extensions>
      </trkpt>
      <trkpt lat="46.74220330081880092620849609375" lon="6.8752183578908443450927734375">
        <ele>364.20001220703125</ele>
        <time>2013-09-01T15:59:32.000Z</time>
        <extensions>
          <ns3:TrackPointExtension>
            <ns3:atemp>18.0</ns3:atemp>
          </ns3:TrackPointExtension>
        </extensions>
      </trkpt>
      <trkpt lat="46.7422548495233058929443359375" lon="6.8752726726233959197998046875">
        <ele>364.399993896484375</ele>
        <time>2013-09-01T15:59:33.000Z</time>
        <extensions>
          <ns3:TrackPointExtension>
            <ns3:atemp>18.0</ns3:atemp>
          </ns3:TrackPointExtension>
        </extensions>
      </trkpt>
      <trkpt lat="46.74230623058974742889404296875" lon="6.8753259815275669097900390625">
        <ele>364.600006103515625</ele>
        <time>2013-09-01T15:59:34.000Z</time>
        <extensions>
          <ns3:TrackPointExtension>
            <ns3:atemp>18.0</ns3:atemp>
          </ns3:TrackPointExtension>
        </extensions>
      </trkpt>
      <trkpt lat="46.74235803075134754180908203125" lon="6.87537451274693012237548828125">
        <ele>364.600006103515625</ele>
        <time>2013-09-01T15:59:35.000Z</time>
        <extensions>
          <ns3:TrackPointExtension>
            <ns3:atemp>18.0</ns3:atemp>
          </ns3:TrackPointExtension>
        </extensions>
      </trkpt>
      <trkpt lat="46.7424117587506771087646484375" lon="6.8754248879849910736083984375">
        <ele>363.79998779296875</ele>
        <time>2013-09-01T15:59:36.000Z</time>
        <extensions>
          <ns3:TrackPointExtension>
            <ns3:atemp>18.0</ns3:atemp>
          </ns3:TrackPointExtension>
        </extensions>
      </trkpt>
      <trkpt lat="46.7424647323787212371826171875" lon="6.87547761015594005584716796875">
        <ele>363.399993896484375</ele>
        <time>2013-09-01T15:59:37.000Z</time>
        <extensions>
          <ns3:TrackPointExtension>
            <ns3:atemp>18.0</ns3:atemp>
          </ns3:TrackPointExtension>
        </extensions>
      </trkpt>
      <trkpt lat="46.7425177060067653656005859375" lon="6.87553158961236476898193359375">
        <ele>363.399993896484375</ele>
        <time>2013-09-01T15:59:38.000Z</time>
        <extensions>
          <ns3:TrackPointExtension>
            <ns3:atemp>18.0</ns3:atemp>
          </ns3:TrackPointExtension>
        </extensions>
      </trkpt>
      <trkpt lat="46.7425743676722049713134765625" lon="6.87558053992688655853271484375">
        <ele>363.399993896484375</ele>
        <time>2013-09-01T15:59:39.000Z</time>
        <extensions>
          <ns3:TrackPointExtension>
            <ns3:atemp>18.0</ns3:atemp>
          </ns3:TrackPointExtension>
        </extensions>
      </trkpt>
      <trkpt lat="46.74262918531894683837890625" lon="6.87563267536461353302001953125">
        <ele>363.399993896484375</ele>
        <time>2013-09-01T15:59:40.000Z</time>
        <extensions>
          <ns3:TrackPointExtension>
            <ns3:atemp>18.0</ns3:atemp>
          </ns3:TrackPointExtension>
        </extensions>
      </trkpt>
      <trkpt lat="46.74268282949924468994140625" lon="6.87568766064941883087158203125">
        <ele>363.20001220703125</ele>
        <time>2013-09-01T15:59:41.000Z</time>
        <extensions>
          <ns3:TrackPointExtension>
            <ns3:atemp>18.0</ns3:atemp>
          </ns3:TrackPointExtension>
        </extensions>
      </trkpt>
      <trkpt lat="46.74273923970758914947509765625" lon="6.87573845498263835906982421875">
        <ele>363.20001220703125</ele>
        <time>2013-09-01T15:59:42.000Z</time>
        <extensions>
          <ns3:TrackPointExtension>
            <ns3:atemp>18.0</ns3:atemp>
          </ns3:TrackPointExtension>
        </extensions>
      </trkpt>
      <trkpt lat="46.74279573373496532440185546875" lon="6.87579109333455562591552734375">
        <ele>363.399993896484375</ele>
        <time>2013-09-01T15:59:43.000Z</time>
        <extensions>
          <ns3:TrackPointExtension>
            <ns3:atemp>18.0</ns3:atemp>
          </ns3:TrackPointExtension>
        </extensions>
      </trkpt>
      <trkpt lat="46.74285155721008777618408203125" lon="6.8758423067629337310791015625">
        <ele>363.399993896484375</ele>
        <time>2013-09-01T15:59:44.000Z</time>
        <extensions>
          <ns3:TrackPointExtension>
            <ns3:atemp>18.0</ns3:atemp>
          </ns3:TrackPointExtension>
        </extensions>
      </trkpt>
      <trkpt lat="46.74290587194263935089111328125" lon="6.8758949451148509979248046875">
        <ele>363.399993896484375</ele>
        <time>2013-09-01T15:59:45.000Z</time>
        <extensions>
          <ns3:TrackPointExtension>
            <ns3:atemp>18.0</ns3:atemp>
          </ns3:TrackPointExtension>
        </extensions>
      </trkpt>
      <trkpt lat="46.74296001903712749481201171875" lon="6.8759500980377197265625">
        <ele>363.399993896484375</ele>
        <time>2013-09-01T15:59:46.000Z</time>
        <extensions>
          <ns3:TrackPointExtension>
            <ns3:atemp>18.0</ns3:atemp>
          </ns3:TrackPointExtension>
        </extensions>
      </trkpt>
      <trkpt lat="46.7430149205029010772705078125" lon="6.8760039098560810089111328125">
        <ele>363.399993896484375</ele>
        <time>2013-09-01T15:59:47.000Z</time>
        <extensions>
          <ns3:TrackPointExtension>
            <ns3:atemp>18.0</ns3:atemp>
          </ns3:TrackPointExtension>
        </extensions>
      </trkpt>
      <trkpt lat="46.74307133071124553680419921875" lon="6.8760558776557445526123046875">
        <ele>363.20001220703125</ele>
        <time>2013-09-01T15:59:48.000Z</time>
        <extensions>
          <ns3:TrackPointExtension>
            <ns3:atemp>18.0</ns3:atemp>
          </ns3:TrackPointExtension>
        </extensions>
      </trkpt>
      <trkpt lat="46.743127405643463134765625" lon="6.87611111439764499664306640625">
        <ele>363.20001220703125</ele>
        <time>2013-09-01T15:59:49.000Z</time>
        <extensions>
          <ns3:TrackPointExtension>
            <ns3:atemp>18.0</ns3:atemp>
          </ns3:TrackPointExtension>
        </extensions>
      </trkpt>
      <trkpt lat="46.7431862466037273406982421875" lon="6.87616492621600627899169921875">
        <ele>363.20001220703125</ele>
        <time>2013-09-01T15:59:50.000Z</time>
        <extensions>
          <ns3:TrackPointExtension>
            <ns3:atemp>18.0</ns3:atemp>
          </ns3:TrackPointExtension>
        </extensions>
      </trkpt>
      <trkpt lat="46.7432432435452938079833984375" lon="6.87622192315757274627685546875">
        <ele>363.20001220703125</ele>
        <time>2013-09-01T15:59:51.000Z</time>
        <extensions>
          <ns3:TrackPointExtension>
            <ns3:atemp>18.0</ns3:atemp>
          </ns3:TrackPointExtension>
        </extensions>
      </trkpt>
      <trkpt lat="46.743300743401050567626953125" lon="6.8762768246233463287353515625">
        <ele>363.20001220703125</ele>
        <time>2013-09-01T15:59:52.000Z</time>
        <extensions>
          <ns3:TrackPointExtension>
            <ns3:atemp>18.0</ns3:atemp>
          </ns3:TrackPointExtension>
        </extensions>
      </trkpt>
      <trkpt lat="46.7433579079806804656982421875" lon="6.87632854096591472625732421875">
        <ele>363.20001220703125</ele>
        <time>2013-09-01T15:59:53.000Z</time>
        <extensions>
          <ns3:TrackPointExtension>
            <ns3:atemp>18.0</ns3:atemp>
          </ns3:TrackPointExtension>
        </extensions>
      </trkpt>
      <trkpt lat="46.743414737284183502197265625" lon="6.8763787485659122467041015625">
        <ele>363.20001220703125</ele>
        <time>2013-09-01T15:59:54.000Z</time>
        <extensions>
          <ns3:TrackPointExtension>
            <ns3:atemp>18.0</ns3:atemp>
          </ns3:TrackPointExtension>
        </extensions>
      </trkpt>
      <trkpt lat="46.74347097985446453094482421875" lon="6.87643088400363922119140625">
        <ele>363.20001220703125</ele>
        <time>2013-09-01T15:59:55.000Z</time>
        <extensions>
          <ns3:TrackPointExtension>
            <ns3:atemp>18.0</ns3:atemp>
          </ns3:TrackPointExtension>
        </extensions>
      </trkpt>
      <trkpt lat="46.74352562986314296722412109375" lon="6.87648561783134937286376953125">
        <ele>363.399993896484375</ele>
        <time>2013-09-01T15:59:56.000Z</time>
        <extensions>
          <ns3:TrackPointExtension>
            <ns3:atemp>18.0</ns3:atemp>
          </ns3:TrackPointExtension>
        </extensions>
      </trkpt>
      <trkpt lat="46.7435801960527896881103515625" lon="6.876537837088108062744140625">
        <ele>363.600006103515625</ele>
        <time>2013-09-01T15:59:57.000Z</time>
        <extensions>
          <ns3:TrackPointExtension>
            <ns3:atemp>18.0</ns3:atemp>
          </ns3:TrackPointExtension>
        </extensions>
      </trkpt>
      <trkpt lat="46.74363392405211925506591796875" lon="6.8765893019735813140869140625">
        <ele>363.600006103515625</ele>
        <time>2013-09-01T15:59:58.000Z</time>
        <extensions>
          <ns3:TrackPointExtension>
            <ns3:atemp>18.0</ns3:atemp>
          </ns3:TrackPointExtension>
        </extensions>
      </trkpt>
      <trkpt lat="46.7436868138611316680908203125" lon="6.87664202414453029632568359375">
        <ele>363.600006103515625</ele>
        <time>2013-09-01T15:59:59.000Z</time>
        <extensions>
          <ns3:TrackPointExtension>
            <ns3:atemp>18.0</ns3:atemp>
          </ns3:TrackPointExtension>
        </extensions>
      </trkpt>
      <trkpt lat="46.7437387816607952117919921875" lon="6.8766895495355129241943359375">
        <ele>363.399993896484375</ele>
        <time>2013-09-01T16:00:00.000Z</time>
        <extensions>
          <ns3:TrackPointExtension>
            <ns3:atemp>18.0</ns3:atemp>
          </ns3:TrackPointExtension>
        </extensions>
      </trkpt>
      <trkpt lat="46.7437924258410930633544921875" lon="6.87673623673617839813232421875">
        <ele>363.20001220703125</ele>
        <time>2013-09-01T16:00:01.000Z</time>
        <extensions>
          <ns3:TrackPointExtension>
            <ns3:atemp>18.0</ns3:atemp>
          </ns3:TrackPointExtension>
        </extensions>
      </trkpt>
      <trkpt lat="46.74384598620235919952392578125" lon="6.87678652815520763397216796875">
        <ele>363.399993896484375</ele>
        <time>2013-09-01T16:00:02.000Z</time>
        <extensions>
          <ns3:TrackPointExtension>
            <ns3:atemp>18.0</ns3:atemp>
          </ns3:TrackPointExtension>
        </extensions>
      </trkpt>
      <trkpt lat="46.743898876011371612548828125" lon="6.876836903393268585205078125">
        <ele>363.399993896484375</ele>
        <time>2013-09-01T16:00:03.000Z</time>
        <extensions>
          <ns3:TrackPointExtension>
            <ns3:atemp>18.0</ns3:atemp>
          </ns3:TrackPointExtension>
        </extensions>
      </trkpt>
      <trkpt lat="46.74395226873457431793212890625" lon="6.876887865364551544189453125">
        <ele>363.399993896484375</ele>
        <time>2013-09-01T16:00:04.000Z</time>
        <extensions>
          <ns3:TrackPointExtension>
            <ns3:atemp>18.0</ns3:atemp>
          </ns3:TrackPointExtension>
        </extensions>
      </trkpt>
      <trkpt lat="46.7440059967339038848876953125" lon="6.87693991698324680328369140625">
        <ele>363.20001220703125</ele>
        <time>2013-09-01T16:00:05.000Z</time>
        <extensions>
          <ns3:TrackPointExtension>
            <ns3:atemp>18.0</ns3:atemp>
          </ns3:TrackPointExtension>
        </extensions>
      </trkpt>
      <trkpt lat="46.74405938945710659027099609375" lon="6.87698878347873687744140625">
        <ele>363.20001220703125</ele>
        <time>2013-09-01T16:00:06.000Z</time>
        <extensions>
          <ns3:TrackPointExtension>
            <ns3:atemp>18.0</ns3:atemp>
          </ns3:TrackPointExtension>
        </extensions>
      </trkpt>
      <trkpt lat="46.74411269836127758026123046875" lon="6.87703832052648067474365234375">
        <ele>363</ele>
        <time>2013-09-01T16:00:07.000Z</time>
        <extensions>
          <ns3:TrackPointExtension>
            <ns3:atemp>18.0</ns3:atemp>
          </ns3:TrackPointExtension>
        </extensions>
      </trkpt>
      <trkpt lat="46.74416667781770229339599609375" lon="6.877088360488414764404296875">
        <ele>363</ele>
        <time>2013-09-01T16:00:08.000Z</time>
        <extensions>
          <ns3:TrackPointExtension>
            <ns3:atemp>18.0</ns3:atemp>
          </ns3:TrackPointExtension>
        </extensions>
      </trkpt>
      <trkpt lat="46.74422183074057102203369140625" lon="6.87713856808841228485107421875">
        <ele>363</ele>
        <time>2013-09-01T16:00:09.000Z</time>
        <extensions>
          <ns3:TrackPointExtension>
            <ns3:atemp>18.0</ns3:atemp>
          </ns3:TrackPointExtension>
        </extensions>
      </trkpt>
      <trkpt lat="46.744277067482471466064453125" lon="6.8771867640316486358642578125">
        <ele>363</ele>
        <time>2013-09-01T16:00:10.000Z</time>
        <extensions>
          <ns3:TrackPointExtension>
            <ns3:atemp>18.0</ns3:atemp>
          </ns3:TrackPointExtension>
        </extensions>
      </trkpt>
      <trkpt lat="46.74433129839599132537841796875" lon="6.877237223088741302490234375">
        <ele>362.79998779296875</ele>
        <time>2013-09-01T16:00:11.000Z</time>
        <extensions>
          <ns3:TrackPointExtension>
            <ns3:atemp>18.0</ns3:atemp>
          </ns3:TrackPointExtension>
        </extensions>
      </trkpt>
      <trkpt lat="46.7443840205669403076171875" lon="6.8772876821458339691162109375">
        <ele>362.79998779296875</ele>
        <time>2013-09-01T16:00:12.000Z</time>
        <extensions>
          <ns3:TrackPointExtension>
            <ns3:atemp>18.0</ns3:atemp>
          </ns3:TrackPointExtension>
        </extensions>
      </trkpt>
      <trkpt lat="46.74443489871919155120849609375" lon="6.8773396499454975128173828125">
        <ele>362.600006103515625</ele>
        <time>2013-09-01T16:00:13.000Z</time>
        <extensions>
          <ns3:TrackPointExtension>
            <ns3:atemp>18.0</ns3:atemp>
          </ns3:TrackPointExtension>
        </extensions>
      </trkpt>
      <trkpt lat="46.7444877885282039642333984375" lon="6.877390779554843902587890625">
        <ele>362.600006103515625</ele>
        <time>2013-09-01T16:00:14.000Z</time>
        <extensions>
          <ns3:TrackPointExtension>
            <ns3:atemp>18.0</ns3:atemp>
          </ns3:TrackPointExtension>
        </extensions>
      </trkpt>
      <trkpt lat="46.74453849904239177703857421875" lon="6.8774432502686977386474609375">
        <ele>362.79998779296875</ele>
        <time>2013-09-01T16:00:15.000Z</time>
        <extensions>
          <ns3:TrackPointExtension>
            <ns3:atemp>18.0</ns3:atemp>
          </ns3:TrackPointExtension>
        </extensions>
      </trkpt>
      <trkpt lat="46.74459013156592845916748046875" lon="6.87749513424932956695556640625">
        <ele>362.79998779296875</ele>
        <time>2013-09-01T16:00:16.000Z</time>
        <extensions>
          <ns3:TrackPointExtension>
            <ns3:atemp>18.0</ns3:atemp>
          </ns3:TrackPointExtension>
        </extensions>
      </trkpt>
      <trkpt lat="46.7446423508226871490478515625" lon="6.87754391692578792572021484375">
        <ele>363</ele>
        <time>2013-09-01T16:00:17.000Z</time>
        <extensions>
          <ns3:TrackPointExtension>
            <ns3:atemp>18.0</ns3:atemp>
          </ns3:TrackPointExtension>
        </extensions>
      </trkpt>
      <trkpt lat="46.744695492088794708251953125" lon="6.87759320251643657684326171875">
        <ele>363</ele>
        <time>2013-09-01T16:00:18.000Z</time>
        <extensions>
          <ns3:TrackPointExtension>
            <ns3:atemp>18.0</ns3:atemp>
          </ns3:TrackPointExtension>
        </extensions>
      </trkpt>
      <trkpt lat="46.74474720843136310577392578125" lon="6.877641566097736358642578125">
        <ele>362.79998779296875</ele>
        <time>2013-09-01T16:00:19.000Z</time>
        <extensions>
          <ns3:TrackPointExtension>
            <ns3:atemp>18.0</ns3:atemp>
          </ns3:TrackPointExtension>
        </extensions>
      </trkpt>
      <trkpt lat="46.7447992600500583648681640625" lon="6.8776920251548290252685546875">
        <ele>362.79998779296875</ele>
        <time>2013-09-01T16:00:20.000Z</time>
        <extensions>
          <ns3:TrackPointExtension>
            <ns3:atemp>18.0</ns3:atemp>
          </ns3:TrackPointExtension>
        </extensions>
      </trkpt>
      <trkpt lat="46.744853071868419647216796875" lon="6.87774105928838253021240234375">
        <ele>362.79998779296875</ele>
        <time>2013-09-01T16:00:21.000Z</time>
        <extensions>
          <ns3:TrackPointExtension>
            <ns3:atemp>18.0</ns3:atemp>
          </ns3:TrackPointExtension>
        </extensions>
      </trkpt>
      <trkpt lat="46.7449070513248443603515625" lon="6.8777899257838726043701171875">
        <ele>363</ele>
        <time>2013-09-01T16:00:22.000Z</time>
        <extensions>
          <ns3:TrackPointExtension>
            <ns3:atemp>18.0</ns3:atemp>
          </ns3:TrackPointExtension>
        </extensions>
      </trkpt>
      <trkpt lat="46.744961030781269073486328125" lon="6.8778397142887115478515625">
        <ele>362.79998779296875</ele>
        <time>2013-09-01T16:00:23.000Z</time>
        <extensions>
          <ns3:TrackPointExtension>
            <ns3:atemp>18.0</ns3:atemp>
          </ns3:TrackPointExtension>
        </extensions>
      </trkpt>
      <trkpt lat="46.7450155131518840789794921875" lon="6.87788958661258220672607421875">
        <ele>362.600006103515625</ele>
        <time>2013-09-01T16:00:24.000Z</time>
        <extensions>
          <ns3:TrackPointExtension>
            <ns3:atemp>18.0</ns3:atemp>
          </ns3:TrackPointExtension>
        </extensions>
      </trkpt>
      <trkpt lat="46.74506865441799163818359375" lon="6.87794205732643604278564453125">
        <ele>362.600006103515625</ele>
        <time>2013-09-01T16:00:25.000Z</time>
        <extensions>
          <ns3:TrackPointExtension>
            <ns3:atemp>18.0</ns3:atemp>
          </ns3:TrackPointExtension>
        </extensions>
      </trkpt>
      <trkpt lat="46.7451221309602260589599609375" lon="6.8779931031167507171630859375">
        <ele>362.79998779296875</ele>
        <time>2013-09-01T16:00:26.000Z</time>
        <extensions>
          <ns3:TrackPointExtension>
            <ns3:atemp>18.0</ns3:atemp>
          </ns3:TrackPointExtension>
        </extensions>
      </trkpt>
      <trkpt lat="46.74517384730279445648193359375" lon="6.87804264016449451446533203125">
        <ele>362.600006103515625</ele>
        <time>2013-09-01T16:00:27.000Z</time>
        <extensions>
          <ns3:TrackPointExtension>
            <ns3:atemp>18.0</ns3:atemp>
          </ns3:TrackPointExtension>
        </extensions>
      </trkpt>
      <trkpt lat="46.74522363580763339996337890625" lon="6.87809142284095287322998046875">
        <ele>362.399993896484375</ele>
        <time>2013-09-01T16:00:28.000Z</time>
        <extensions>
          <ns3:TrackPointExtension>
            <ns3:atemp>18.0</ns3:atemp>
          </ns3:TrackPointExtension>
        </extensions>
      </trkpt>
      <trkpt lat="46.745272837579250335693359375" lon="6.8781349249184131622314453125">
        <ele>362.399993896484375</ele>
        <time>2013-09-01T16:00:29.000Z</time>
        <extensions>
          <ns3:TrackPointExtension>
            <ns3:atemp>18.0</ns3:atemp>
          </ns3:TrackPointExtension>
        </extensions>
      </trkpt>
      <trkpt lat="46.745317764580249786376953125" lon="6.87818513251841068267822265625">
        <ele>362.20001220703125</ele>
        <time>2013-09-01T16:00:30.000Z</time>
        <extensions>
          <ns3:TrackPointExtension>
            <ns3:atemp>18.0</ns3:atemp>
          </ns3:TrackPointExtension>
        </extensions>
      </trkpt>
      <trkpt lat="46.7453454248607158660888671875" lon="6.8782549537718296051025390625">
        <ele>362</ele>
        <time>2013-09-01T16:00:31.000Z</time>
        <extensions>
          <ns3:TrackPointExtension>
            <ns3:atemp>18.0</ns3:atemp>
          </ns3:TrackPointExtension>
        </extensions>
      </trkpt>
      <trkpt lat="46.74535104073584079742431640625" lon="6.8783290497958660125732421875">
        <ele>362</ele>
        <time>2013-09-01T16:00:32.000Z</time>
        <extensions>
          <ns3:TrackPointExtension>
            <ns3:atemp>18.0</ns3:atemp>
          </ns3:TrackPointExtension>
        </extensions>
      </trkpt>
      <trkpt lat="46.7453340254724025726318359375" lon="6.87839719466865062713623046875">
        <ele>362.20001220703125</ele>
        <time>2013-09-01T16:00:33.000Z</time>
        <extensions>
          <ns3:TrackPointExtension>
            <ns3:atemp>18.0</ns3:atemp>
          </ns3:TrackPointExtension>
        </extensions>
      </trkpt>
      <trkpt lat="46.7453051917254924774169921875" lon="6.87845922075212001800537109375">
        <ele>362.20001220703125</ele>
        <time>2013-09-01T16:00:34.000Z</time>
        <extensions>
          <ns3:TrackPointExtension>
            <ns3:atemp>18.0</ns3:atemp>
          </ns3:TrackPointExtension>
        </extensions>
      </trkpt>
      <trkpt lat="46.74527543596923351287841796875" lon="6.8785198219120502471923828125">
        <ele>362.399993896484375</ele>
        <time>2013-09-01T16:00:35.000Z</time>
        <extensions>
          <ns3:TrackPointExtension>
            <ns3:atemp>18.0</ns3:atemp>
          </ns3:TrackPointExtension>
        </extensions>
      </trkpt>
      <trkpt lat="46.745246015489101409912109375" lon="6.8785795010626316070556640625">
        <ele>362.399993896484375</ele>
        <time>2013-09-01T16:00:36.000Z</time>
        <extensions>
          <ns3:TrackPointExtension>
            <ns3:atemp>18.0</ns3:atemp>
          </ns3:TrackPointExtension>
        </extensions>
      </trkpt>
      <trkpt lat="46.745219863951206207275390625" lon="6.87863431870937347412109375">
        <ele>362.399993896484375</ele>
        <time>2013-09-01T16:00:37.000Z</time>
        <extensions>
          <ns3:TrackPointExtension>
            <ns3:atemp>18.0</ns3:atemp>
          </ns3:TrackPointExtension>
        </extensions>
      </trkpt>
      <trkpt lat="46.74519698135554790496826171875" lon="6.8786854483187198638916015625">
        <ele>362.20001220703125</ele>
        <time>2013-09-01T16:00:38.000Z</time>
        <extensions>
          <ns3:TrackPointExtension>
            <ns3:atemp>18.0</ns3:atemp>
          </ns3:TrackPointExtension>
        </extensions>
      </trkpt>
      <trkpt lat="46.745180301368236541748046875" lon="6.87873247079551219940185546875">
        <ele>362</ele>
        <time>2013-09-01T16:00:39.000Z</time>
        <extensions>
          <ns3:TrackPointExtension>
            <ns3:atemp>18.0</ns3:atemp>
          </ns3:TrackPointExtension>
        </extensions>
      </trkpt>
      <trkpt lat="46.7451804690062999725341796875" lon="6.87878259457647800445556640625">
        <ele>361.79998779296875</ele>
        <time>2013-09-01T16:00:40.000Z</time>
        <extensions>
          <ns3:TrackPointExtension>
            <ns3:atemp>18.0</ns3:atemp>
          </ns3:TrackPointExtension>
        </extensions>
      </trkpt>
      <trkpt lat="46.74520351924002170562744140625" lon="6.878820396959781646728515625">
        <ele>361.79998779296875</ele>
        <time>2013-09-01T16:00:41.000Z</time>
        <extensions>
          <ns3:TrackPointExtension>
            <ns3:atemp>18.0</ns3:atemp>
          </ns3:TrackPointExtension>
        </extensions>
      </trkpt>
      <trkpt lat="46.7452364601194858551025390625" lon="6.8788463808596134185791015625">
        <ele>361.79998779296875</ele>
        <time>2013-09-01T16:00:42.000Z</time>
        <extensions>
          <ns3:TrackPointExtension>
            <ns3:atemp>18.0</ns3:atemp>
          </ns3:TrackPointExtension>
        </extensions>
      </trkpt>
      <trkpt lat="46.74527593888342380523681640625" lon="6.87887378968298435211181640625">
        <ele>361.79998779296875</ele>
        <time>2013-09-01T16:00:43.000Z</time>
        <extensions>
          <ns3:TrackPointExtension>
            <ns3:atemp>18.0</ns3:atemp>
          </ns3:TrackPointExtension>
        </extensions>
      </trkpt>
      <trkpt lat="46.7453201115131378173828125" lon="6.87890832312405109405517578125">
        <ele>361.600006103515625</ele>
        <time>2013-09-01T16:00:44.000Z</time>
        <extensions>
          <ns3:TrackPointExtension>
            <ns3:atemp>18.0</ns3:atemp>
          </ns3:TrackPointExtension>
        </extensions>
      </trkpt>
      <trkpt lat="46.74536864273250102996826171875" lon="6.8789483048021793365478515625">
        <ele>361.399993896484375</ele>
        <time>2013-09-01T16:00:45.000Z</time>
        <extensions>
          <ns3:TrackPointExtension>
            <ns3:atemp>18.0</ns3:atemp>
          </ns3:TrackPointExtension>
        </extensions>
      </trkpt>
      <trkpt lat="46.745412312448024749755859375" lon="6.8789902143180370330810546875">
        <ele>361.600006103515625</ele>
        <time>2013-09-01T16:00:46.000Z</time>
        <extensions>
          <ns3:TrackPointExtension>
            <ns3:atemp>18.0</ns3:atemp>
          </ns3:TrackPointExtension>
        </extensions>
      </trkpt>
      <trkpt lat="46.74545464105904102325439453125" lon="6.8790386617183685302734375">
        <ele>361.79998779296875</ele>
        <time>2013-09-01T16:00:47.000Z</time>
        <extensions>
          <ns3:TrackPointExtension>
            <ns3:atemp>18.0</ns3:atemp>
          </ns3:TrackPointExtension>
        </extensions>
      </trkpt>
      <trkpt lat="46.74549856223165988922119140625" lon="6.87908987514674663543701171875">
        <ele>362</ele>
        <time>2013-09-01T16:00:48.000Z</time>
        <extensions>
          <ns3:TrackPointExtension>
            <ns3:atemp>18.0</ns3:atemp>
          </ns3:TrackPointExtension>
        </extensions>
      </trkpt>
      <trkpt lat="46.74554415978491306304931640625" lon="6.8791434355080127716064453125">
        <ele>361.600006103515625</ele>
        <time>2013-09-01T16:00:49.000Z</time>
        <extensions>
          <ns3:TrackPointExtension>
            <ns3:atemp>18.0</ns3:atemp>
          </ns3:TrackPointExtension>
        </extensions>
      </trkpt>
      <trkpt lat="46.7455935291945934295654296875" lon="6.87919414602220058441162109375">
        <ele>361.399993896484375</ele>
        <time>2013-09-01T16:00:50.000Z</time>
        <extensions>
          <ns3:TrackPointExtension>
            <ns3:atemp>18.0</ns3:atemp>
          </ns3:TrackPointExtension>
        </extensions>
      </trkpt>
      <trkpt lat="46.745642311871051788330078125" lon="6.879246197640895843505859375">
        <ele>361.399993896484375</ele>
        <time>2013-09-01T16:00:51.000Z</time>
        <extensions>
          <ns3:TrackPointExtension>
            <ns3:atemp>18.0</ns3:atemp>
          </ns3:TrackPointExtension>
        </extensions>
      </trkpt>
      <trkpt lat="46.74568782560527324676513671875" lon="6.879302524030208587646484375">
        <ele>361.600006103515625</ele>
        <time>2013-09-01T16:00:52.000Z</time>
        <extensions>
          <ns3:TrackPointExtension>
            <ns3:atemp>18.0</ns3:atemp>
          </ns3:TrackPointExtension>
        </extensions>
      </trkpt>
      <trkpt lat="46.745732836425304412841796875" lon="6.8793573416769504547119140625">
        <ele>361.600006103515625</ele>
        <time>2013-09-01T16:00:53.000Z</time>
        <extensions>
          <ns3:TrackPointExtension>
            <ns3:atemp>18.0</ns3:atemp>
          </ns3:TrackPointExtension>
        </extensions>
      </trkpt>
      <trkpt lat="46.74577767960727214813232421875" lon="6.879407800734043121337890625">
        <ele>361.399993896484375</ele>
        <time>2013-09-01T16:00:54.000Z</time>
        <extensions>
          <ns3:TrackPointExtension>
            <ns3:atemp>18.0</ns3:atemp>
          </ns3:TrackPointExtension>
        </extensions>
      </trkpt>
      <trkpt lat="46.74582126550376415252685546875" lon="6.8794597685337066650390625">
        <ele>361.20001220703125</ele>
        <time>2013-09-01T16:00:55.000Z</time>
        <extensions>
          <ns3:TrackPointExtension>
            <ns3:atemp>18.0</ns3:atemp>
          </ns3:TrackPointExtension>
        </extensions>
      </trkpt>
      <trkpt lat="46.74586535431444644927978515625" lon="6.8795142509043216705322265625">
        <ele>361</ele>
        <time>2013-09-01T16:00:56.000Z</time>
        <extensions>
          <ns3:TrackPointExtension>
            <ns3:atemp>18.0</ns3:atemp>
          </ns3:TrackPointExtension>
        </extensions>
      </trkpt>
      <trkpt lat="46.7459076829254627227783203125" lon="6.87957216985523700714111328125">
        <ele>360.79998779296875</ele>
        <time>2013-09-01T16:00:57.000Z</time>
        <extensions>
          <ns3:TrackPointExtension>
            <ns3:atemp>18.0</ns3:atemp>
          </ns3:TrackPointExtension>
        </extensions>
      </trkpt>
      <trkpt lat="46.7459509335458278656005859375" lon="6.87962899915874004364013671875">
        <ele>360.600006103515625</ele>
        <time>2013-09-01T16:00:58.000Z</time>
        <extensions>
          <ns3:TrackPointExtension>
            <ns3:atemp>18.0</ns3:atemp>
          </ns3:TrackPointExtension>
        </extensions>
      </trkpt>
      <trkpt lat="46.74599460326135158538818359375" lon="6.879688091576099395751953125">
        <ele>360.600006103515625</ele>
        <time>2013-09-01T16:00:59.000Z</time>
        <extensions>
          <ns3:TrackPointExtension>
            <ns3:atemp>18.0</ns3:atemp>
          </ns3:TrackPointExtension>
        </extensions>
      </trkpt>
      <trkpt lat="46.74603986553847789764404296875" lon="6.87974634580314159393310546875">
        <ele>360.79998779296875</ele>
        <time>2013-09-01T16:01:00.000Z</time>
        <extensions>
          <ns3:TrackPointExtension>
            <ns3:atemp>18.0</ns3:atemp>
          </ns3:TrackPointExtension>
        </extensions>
      </trkpt>
      <trkpt lat="46.7460845410823822021484375" lon="6.8798079527914524078369140625">
        <ele>360.79998779296875</ele>
        <time>2013-09-01T16:01:01.000Z</time>
        <extensions>
          <ns3:TrackPointExtension>
            <ns3:atemp>18.0</ns3:atemp>
          </ns3:TrackPointExtension>
        </extensions>
      </trkpt>
      <trkpt lat="46.74612603150308132171630859375" lon="6.87987358309328556060791015625">
        <ele>360.79998779296875</ele>
        <time>2013-09-01T16:01:02.000Z</time>
        <extensions>
          <ns3:TrackPointExtension>
            <ns3:atemp>18.0</ns3:atemp>
          </ns3:TrackPointExtension>
        </extensions>
      </trkpt>
      <trkpt lat="46.7461688630282878875732421875" lon="6.87993586063385009765625">
        <ele>360.79998779296875</ele>
        <time>2013-09-01T16:01:03.000Z</time>
        <extensions>
          <ns3:TrackPointExtension>
            <ns3:atemp>18.0</ns3:atemp>
          </ns3:TrackPointExtension>
        </extensions>
      </trkpt>
      <trkpt lat="46.7462117783725261688232421875" lon="6.879995204508304595947265625">
        <ele>360.600006103515625</ele>
        <time>2013-09-01T16:01:04.000Z</time>
        <extensions>
          <ns3:TrackPointExtension>
            <ns3:atemp>18.0</ns3:atemp>
          </ns3:TrackPointExtension>
        </extensions>
      </trkpt>
      <trkpt lat="46.746257208287715911865234375" lon="6.8800553865730762481689453125">
        <ele>360.600006103515625</ele>
        <time>2013-09-01T16:01:05.000Z</time>
        <extensions>
          <ns3:TrackPointExtension>
            <ns3:atemp>18.0</ns3:atemp>
          </ns3:TrackPointExtension>
        </extensions>
      </trkpt>
      <trkpt lat="46.7463023029267787933349609375" lon="6.88011498190462589263916015625">
        <ele>360.600006103515625</ele>
        <time>2013-09-01T16:01:06.000Z</time>
        <extensions>
          <ns3:TrackPointExtension>
            <ns3:atemp>18.0</ns3:atemp>
          </ns3:TrackPointExtension>
        </extensions>
      </trkpt>
      <trkpt lat="46.74634429626166820526123046875" lon="6.8801750801503658294677734375">
        <ele>360.600006103515625</ele>
        <time>2013-09-01T16:01:07.000Z</time>
        <extensions>
          <ns3:TrackPointExtension>
            <ns3:atemp>18.0</ns3:atemp>
          </ns3:TrackPointExtension>
        </extensions>
      </trkpt>
      <trkpt lat="46.746387965977191925048828125" lon="6.88023559749126434326171875">
        <ele>360.600006103515625</ele>
        <time>2013-09-01T16:01:08.000Z</time>
        <extensions>
          <ns3:TrackPointExtension>
            <ns3:atemp>18.0</ns3:atemp>
          </ns3:TrackPointExtension>
        </extensions>
      </trkpt>
      <trkpt lat="46.7464305460453033447265625" lon="6.88029536046087741851806640625">
        <ele>361</ele>
        <time>2013-09-01T16:01:09.000Z</time>
        <extensions>
          <ns3:TrackPointExtension>
            <ns3:atemp>18.0</ns3:atemp>
          </ns3:TrackPointExtension>
        </extensions>
      </trkpt>
      <trkpt lat="46.74647320993244647979736328125" lon="6.8803500942885875701904296875">
        <ele>361.79998779296875</ele>
        <time>2013-09-01T16:01:10.000Z</time>
        <extensions>
          <ns3:TrackPointExtension>
            <ns3:atemp>18.0</ns3:atemp>
          </ns3:TrackPointExtension>
        </extensions>
      </trkpt>
      <trkpt lat="46.746512353420257568359375" lon="6.88041128218173980712890625">
        <ele>362</ele>
        <time>2013-09-01T16:01:11.000Z</time>
        <extensions>
          <ns3:TrackPointExtension>
            <ns3:atemp>18.0</ns3:atemp>
          </ns3:TrackPointExtension>
        </extensions>
      </trkpt>
      <trkpt lat="46.7465534247457981109619140625" lon="6.88047272153198719024658203125">
        <ele>361.79998779296875</ele>
        <time>2013-09-01T16:01:12.000Z</time>
        <extensions>
          <ns3:TrackPointExtension>
            <ns3:atemp>18.0</ns3:atemp>
          </ns3:TrackPointExtension>
        </extensions>
      </trkpt>
      <trkpt lat="46.74659483134746551513671875" lon="6.8805324845016002655029296875">
        <ele>360.600006103515625</ele>
        <time>2013-09-01T16:01:13.000Z</time>
        <extensions>
          <ns3:TrackPointExtension>
            <ns3:atemp>18.0</ns3:atemp>
          </ns3:TrackPointExtension>
        </extensions>
      </trkpt>
      <trkpt lat="46.74663598649203777313232421875" lon="6.88059291802346706390380859375">
        <ele>360.600006103515625</ele>
        <time>2013-09-01T16:01:14.000Z</time>
        <extensions>
          <ns3:TrackPointExtension>
            <ns3:atemp>18.0</ns3:atemp>
          </ns3:TrackPointExtension>
        </extensions>
      </trkpt>
      <trkpt lat="46.746678650379180908203125" lon="6.88065025024116039276123046875">
        <ele>360.399993896484375</ele>
        <time>2013-09-01T16:01:15.000Z</time>
        <extensions>
          <ns3:TrackPointExtension>
            <ns3:atemp>18.0</ns3:atemp>
          </ns3:TrackPointExtension>
        </extensions>
      </trkpt>
      <trkpt lat="46.74672148190438747406005859375" lon="6.880707331001758575439453125">
        <ele>360.399993896484375</ele>
        <time>2013-09-01T16:01:16.000Z</time>
        <extensions>
          <ns3:TrackPointExtension>
            <ns3:atemp>18.0</ns3:atemp>
          </ns3:TrackPointExtension>
        </extensions>
      </trkpt>
      <trkpt lat="46.746764816343784332275390625" lon="6.88076533377170562744140625">
        <ele>360</ele>
        <time>2013-09-01T16:01:17.000Z</time>
        <extensions>
          <ns3:TrackPointExtension>
            <ns3:atemp>18.0</ns3:atemp>
          </ns3:TrackPointExtension>
        </extensions>
      </trkpt>
      <trkpt lat="46.74681007862091064453125" lon="6.8808204866945743560791015625">
        <ele>359.79998779296875</ele>
        <time>2013-09-01T16:01:18.000Z</time>
        <extensions>
          <ns3:TrackPointExtension>
            <ns3:atemp>18.0</ns3:atemp>
          </ns3:TrackPointExtension>
        </extensions>
      </trkpt>
      <trkpt lat="46.74685391597449779510498046875" lon="6.88087689690291881561279296875">
        <ele>359.79998779296875</ele>
        <time>2013-09-01T16:01:19.000Z</time>
        <extensions>
          <ns3:TrackPointExtension>
            <ns3:atemp>18.0</ns3:atemp>
          </ns3:TrackPointExtension>
        </extensions>
      </trkpt>
      <trkpt lat="46.7468960769474506378173828125" lon="6.8809344805777072906494140625">
        <ele>360</ele>
        <time>2013-09-01T16:01:20.000Z</time>
        <extensions>
          <ns3:TrackPointExtension>
            <ns3:atemp>18.0</ns3:atemp>
          </ns3:TrackPointExtension>
        </extensions>
      </trkpt>
      <trkpt lat="46.7469376511871814727783203125" lon="6.88099055550992488861083984375">
        <ele>360.399993896484375</ele>
        <time>2013-09-01T16:01:21.000Z</time>
        <extensions>
          <ns3:TrackPointExtension>
            <ns3:atemp>18.0</ns3:atemp>
          </ns3:TrackPointExtension>
        </extensions>
      </trkpt>
      <trkpt lat="46.7469795607030391693115234375" lon="6.881043948233127593994140625">
        <ele>360.79998779296875</ele>
        <time>2013-09-01T16:01:22.000Z</time>
        <extensions>
          <ns3:TrackPointExtension>
            <ns3:atemp>18.0</ns3:atemp>
          </ns3:TrackPointExtension>
        </extensions>
      </trkpt>
      <trkpt lat="46.74701887182891368865966796875" lon="6.88109851442277431488037109375">
        <ele>360.79998779296875</ele>
        <time>2013-09-01T16:01:23.000Z</time>
        <extensions>
          <ns3:TrackPointExtension>
            <ns3:atemp>18.0</ns3:atemp>
          </ns3:TrackPointExtension>
        </extensions>
      </trkpt>
      <trkpt lat="46.74705156125128269195556640625" lon="6.88116204924881458282470703125">
        <ele>360.600006103515625</ele>
        <time>2013-09-01T16:01:24.000Z</time>
        <extensions>
          <ns3:TrackPointExtension>
            <ns3:atemp>18.0</ns3:atemp>
          </ns3:TrackPointExtension>
        </extensions>
      </trkpt>
      <trkpt lat="46.74705910496413707733154296875" lon="6.8812379054725170135498046875">
        <ele>360.600006103515625</ele>
        <time>2013-09-01T16:01:25.000Z</time>
        <extensions>
          <ns3:TrackPointExtension>
            <ns3:atemp>18.0</ns3:atemp>
          </ns3:TrackPointExtension>
        </extensions>
      </trkpt>
      <trkpt lat="46.7470459453761577606201171875" lon="6.8813056312501430511474609375">
        <ele>360.399993896484375</ele>
        <time>2013-09-01T16:01:26.000Z</time>
        <extensions>
          <ns3:TrackPointExtension>
            <ns3:atemp>18.0</ns3:atemp>
          </ns3:TrackPointExtension>
        </extensions>
      </trkpt>
      <trkpt lat="46.7470150999724864959716796875" lon="6.88136572949588298797607421875">
        <ele>360.20001220703125</ele>
        <time>2013-09-01T16:01:27.000Z</time>
        <extensions>
          <ns3:TrackPointExtension>
            <ns3:atemp>18.0</ns3:atemp>
          </ns3:TrackPointExtension>
        </extensions>
      </trkpt>
      <trkpt lat="46.746976710855960845947265625" lon="6.881424486637115478515625">
        <ele>360</ele>
        <time>2013-09-01T16:01:28.000Z</time>
        <extensions>
          <ns3:TrackPointExtension>
            <ns3:atemp>18.0</ns3:atemp>
          </ns3:TrackPointExtension>
        </extensions>
      </trkpt>
      <trkpt lat="46.746933460235595703125" lon="6.88148550689220428466796875">
        <ele>359.79998779296875</ele>
        <time>2013-09-01T16:01:29.000Z</time>
        <extensions>
          <ns3:TrackPointExtension>
            <ns3:atemp>18.0</ns3:atemp>
          </ns3:TrackPointExtension>
        </extensions>
      </trkpt>
      <trkpt lat="46.74688727594912052154541015625" lon="6.88154661096632480621337890625">
        <ele>359.79998779296875</ele>
        <time>2013-09-01T16:01:30.000Z</time>
        <extensions>
          <ns3:TrackPointExtension>
            <ns3:atemp>18.0</ns3:atemp>
          </ns3:TrackPointExtension>
        </extensions>
      </trkpt>
      <trkpt lat="46.74684218131005764007568359375" lon="6.8816107325255870819091796875">
        <ele>359.79998779296875</ele>
        <time>2013-09-01T16:01:31.000Z</time>
        <extensions>
          <ns3:TrackPointExtension>
            <ns3:atemp>18.0</ns3:atemp>
          </ns3:TrackPointExtension>
        </extensions>
      </trkpt>
      <trkpt lat="46.7467968352138996124267578125" lon="6.8816737644374370574951171875">
        <ele>359.79998779296875</ele>
        <time>2013-09-01T16:01:32.000Z</time>
        <extensions>
          <ns3:TrackPointExtension>
            <ns3:atemp>18.0</ns3:atemp>
          </ns3:TrackPointExtension>
        </extensions>
      </trkpt>
      <trkpt lat="46.74675232730805873870849609375" lon="6.88173855654895305633544921875">
        <ele>359.399993896484375</ele>
        <time>2013-09-01T16:01:33.000Z</time>
        <extensions>
          <ns3:TrackPointExtension>
            <ns3:atemp>18.0</ns3:atemp>
          </ns3:TrackPointExtension>
        </extensions>
      </trkpt>
      <trkpt lat="46.7467059753835201263427734375" lon="6.88180292956531047821044921875">
        <ele>359.20001220703125</ele>
        <time>2013-09-01T16:01:34.000Z</time>
        <extensions>
          <ns3:TrackPointExtension>
            <ns3:atemp>18.0</ns3:atemp>
          </ns3:TrackPointExtension>
        </extensions>
      </trkpt>
      <trkpt lat="46.74665777944028377532958984375" lon="6.88186378218233585357666015625">
        <ele>359.20001220703125</ele>
        <time>2013-09-01T16:01:35.000Z</time>
        <extensions>
          <ns3:TrackPointExtension>
            <ns3:atemp>18.0</ns3:atemp>
          </ns3:TrackPointExtension>
        </extensions>
      </trkpt>
      <trkpt lat="46.74661084078252315521240234375" lon="6.88192597590386867523193359375">
        <ele>359.399993896484375</ele>
        <time>2013-09-01T16:01:36.000Z</time>
        <extensions>
          <ns3:TrackPointExtension>
            <ns3:atemp>18.0</ns3:atemp>
          </ns3:TrackPointExtension>
        </extensions>
      </trkpt>
      <trkpt lat="46.74656624905765056610107421875" lon="6.88199085183441638946533203125">
        <ele>359.399993896484375</ele>
        <time>2013-09-01T16:01:37.000Z</time>
        <extensions>
          <ns3:TrackPointExtension>
            <ns3:atemp>18.0</ns3:atemp>
          </ns3:TrackPointExtension>
        </extensions>
      </trkpt>
      <trkpt lat="46.746521405875682830810546875" lon="6.88205673359334468841552734375">
        <ele>359.399993896484375</ele>
        <time>2013-09-01T16:01:38.000Z</time>
        <extensions>
          <ns3:TrackPointExtension>
            <ns3:atemp>18.0</ns3:atemp>
          </ns3:TrackPointExtension>
        </extensions>
      </trkpt>
      <trkpt lat="46.7464799992740154266357421875" lon="6.8821206875145435333251953125">
        <ele>359.600006103515625</ele>
        <time>2013-09-01T16:01:39.000Z</time>
        <extensions>
          <ns3:TrackPointExtension>
            <ns3:atemp>18.0</ns3:atemp>
          </ns3:TrackPointExtension>
        </extensions>
      </trkpt>
      <trkpt lat="46.74643482081592082977294921875" lon="6.88218581490218639373779296875">
        <ele>359.600006103515625</ele>
        <time>2013-09-01T16:01:40.000Z</time>
        <extensions>
          <ns3:TrackPointExtension>
            <ns3:atemp>18.0</ns3:atemp>
          </ns3:TrackPointExtension>
        </extensions>
      </trkpt>
      <trkpt lat="46.74638788215816020965576171875" lon="6.8822480924427509307861328125">
        <ele>359.600006103515625</ele>
        <time>2013-09-01T16:01:41.000Z</time>
        <extensions>
          <ns3:TrackPointExtension>
            <ns3:atemp>18.0</ns3:atemp>
          </ns3:TrackPointExtension>
        </extensions>
      </trkpt>
      <trkpt lat="46.74634178169071674346923828125" lon="6.88231221400201320648193359375">
        <ele>359.600006103515625</ele>
        <time>2013-09-01T16:01:42.000Z</time>
        <extensions>
          <ns3:TrackPointExtension>
            <ns3:atemp>18.0</ns3:atemp>
          </ns3:TrackPointExtension>
        </extensions>
      </trkpt>
      <trkpt lat="46.74629702232778072357177734375" lon="6.8823731504380702972412109375">
        <ele>360</ele>
        <time>2013-09-01T16:01:43.000Z</time>
        <extensions>
          <ns3:TrackPointExtension>
            <ns3:atemp>18.0</ns3:atemp>
          </ns3:TrackPointExtension>
        </extensions>
      </trkpt>
      <trkpt lat="46.7462533526122570037841796875" lon="6.882429979741573333740234375">
        <ele>360.399993896484375</ele>
        <time>2013-09-01T16:01:44.000Z</time>
        <extensions>
          <ns3:TrackPointExtension>
            <ns3:atemp>18.0</ns3:atemp>
          </ns3:TrackPointExtension>
        </extensions>
      </trkpt>
      <trkpt lat="46.74620666541159152984619140625" lon="6.88247817568480968475341796875">
        <ele>360.600006103515625</ele>
        <time>2013-09-01T16:01:45.000Z</time>
        <extensions>
          <ns3:TrackPointExtension>
            <ns3:atemp>18.0</ns3:atemp>
          </ns3:TrackPointExtension>
        </extensions>
      </trkpt>
      <trkpt lat="46.74615897238254547119140625" lon="6.882517822086811065673828125">
        <ele>360.79998779296875</ele>
        <time>2013-09-01T16:01:46.000Z</time>
        <extensions>
          <ns3:TrackPointExtension>
            <ns3:atemp>18.0</ns3:atemp>
          </ns3:TrackPointExtension>
        </extensions>
      </trkpt>
      <trkpt lat="46.74610910005867481231689453125" lon="6.8825518526136875152587890625">
        <ele>361</ele>
        <time>2013-09-01T16:01:47.000Z</time>
        <extensions>
          <ns3:TrackPointExtension>
            <ns3:atemp>18.0</ns3:atemp>
          </ns3:TrackPointExtension>
        </extensions>
      </trkpt>
      <trkpt lat="46.74605797044932842254638671875" lon="6.88257708214223384857177734375">
        <ele>361</ele>
        <time>2013-09-01T16:01:48.000Z</time>
        <extensions>
          <ns3:TrackPointExtension>
            <ns3:atemp>18.0</ns3:atemp>
          </ns3:TrackPointExtension>
        </extensions>
      </trkpt>
      <trkpt lat="46.74600248225033283233642578125" lon="6.8825887329876422882080078125">
        <ele>360.79998779296875</ele>
        <time>2013-09-01T16:01:49.000Z</time>
        <extensions>
          <ns3:TrackPointExtension>
            <ns3:atemp>18.0</ns3:atemp>
          </ns3:TrackPointExtension>
        </extensions>
      </trkpt>
      <trkpt lat="46.74594573676586151123046875" lon="6.88258730806410312652587890625">
        <ele>360.79998779296875</ele>
        <time>2013-09-01T16:01:50.000Z</time>
        <extensions>
          <ns3:TrackPointExtension>
            <ns3:atemp>18.0</ns3:atemp>
          </ns3:TrackPointExtension>
        </extensions>
      </trkpt>
      <trkpt lat="46.74588865600526332855224609375" lon="6.882577501237392425537109375">
        <ele>360.600006103515625</ele>
        <time>2013-09-01T16:01:51.000Z</time>
        <extensions>
          <ns3:TrackPointExtension>
            <ns3:atemp>18.0</ns3:atemp>
          </ns3:TrackPointExtension>
        </extensions>
      </trkpt>
      <trkpt lat="46.74583484418690204620361328125" lon="6.88256216235458850860595703125">
        <ele>360.600006103515625</ele>
        <time>2013-09-01T16:01:52.000Z</time>
        <extensions>
          <ns3:TrackPointExtension>
            <ns3:atemp>18.0</ns3:atemp>
          </ns3:TrackPointExtension>
        </extensions>
      </trkpt>
      <trkpt lat="46.745780445635318756103515625" lon="6.882539950311183929443359375">
        <ele>360.600006103515625</ele>
        <time>2013-09-01T16:01:53.000Z</time>
        <extensions>
          <ns3:TrackPointExtension>
            <ns3:atemp>18.0</ns3:atemp>
          </ns3:TrackPointExtension>
        </extensions>
      </trkpt>
      <trkpt lat="46.74572705291211605072021484375" lon="6.88251555897295475006103515625">
        <ele>360.600006103515625</ele>
        <time>2013-09-01T16:01:54.000Z</time>
        <extensions>
          <ns3:TrackPointExtension>
            <ns3:atemp>18.0</ns3:atemp>
          </ns3:TrackPointExtension>
        </extensions>
      </trkpt>
      <trkpt lat="46.7456726543605327606201171875" lon="6.8824985437095165252685546875">
        <ele>360.600006103515625</ele>
        <time>2013-09-01T16:01:55.000Z</time>
        <extensions>
          <ns3:TrackPointExtension>
            <ns3:atemp>18.0</ns3:atemp>
          </ns3:TrackPointExtension>
        </extensions>
      </trkpt>
      <trkpt lat="46.74561825580894947052001953125" lon="6.88248622231185436248779296875">
        <ele>360.79998779296875</ele>
        <time>2013-09-01T16:01:56.000Z</time>
        <extensions>
          <ns3:TrackPointExtension>
            <ns3:atemp>18.0</ns3:atemp>
          </ns3:TrackPointExtension>
        </extensions>
      </trkpt>
      <trkpt lat="46.745563857257366180419921875" lon="6.882476918399333953857421875">
        <ele>361</ele>
        <time>2013-09-01T16:01:57.000Z</time>
        <extensions>
          <ns3:TrackPointExtension>
            <ns3:atemp>18.0</ns3:atemp>
          </ns3:TrackPointExtension>
        </extensions>
      </trkpt>
      <trkpt lat="46.74550828523933887481689453125" lon="6.882462836802005767822265625">
        <ele>361.20001220703125</ele>
        <time>2013-09-01T16:01:58.000Z</time>
        <extensions>
          <ns3:TrackPointExtension>
            <ns3:atemp>18.0</ns3:atemp>
          </ns3:TrackPointExtension>
        </extensions>
      </trkpt>
      <trkpt lat="46.745452880859375" lon="6.88244364224374294281005859375">
        <ele>361.20001220703125</ele>
        <time>2013-09-01T16:01:59.000Z</time>
        <extensions>
          <ns3:TrackPointExtension>
            <ns3:atemp>18.0</ns3:atemp>
          </ns3:TrackPointExtension>
        </extensions>
      </trkpt>
      <trkpt lat="46.7453977279365062713623046875" lon="6.8824316561222076416015625">
        <ele>361.399993896484375</ele>
        <time>2013-09-01T16:02:00.000Z</time>
        <extensions>
          <ns3:TrackPointExtension>
            <ns3:atemp>18.0</ns3:atemp>
          </ns3:TrackPointExtension>
        </extensions>
      </trkpt>
      <trkpt lat="46.745342575013637542724609375" lon="6.882425285875797271728515625">
        <ele>361.79998779296875</ele>
        <time>2013-09-01T16:02:01.000Z</time>
        <extensions>
          <ns3:TrackPointExtension>
            <ns3:atemp>18.0</ns3:atemp>
          </ns3:TrackPointExtension>
        </extensions>
      </trkpt>
      <trkpt lat="46.74528784118592739105224609375" lon="6.88241715542972087860107421875">
        <ele>362</ele>
        <time>2013-09-01T16:02:02.000Z</time>
        <extensions>
          <ns3:TrackPointExtension>
            <ns3:atemp>18.0</ns3:atemp>
          </ns3:TrackPointExtension>
        </extensions>
      </trkpt>
      <trkpt lat="46.74523352645337581634521484375" lon="6.88241221010684967041015625">
        <ele>362</ele>
        <time>2013-09-01T16:02:03.000Z</time>
        <extensions>
          <ns3:TrackPointExtension>
            <ns3:atemp>18.0</ns3:atemp>
          </ns3:TrackPointExtension>
        </extensions>
      </trkpt>
      <trkpt lat="46.745178289711475372314453125" lon="6.88240575604140758514404296875">
        <ele>362.20001220703125</ele>
        <time>2013-09-01T16:02:04.000Z</time>
        <extensions>
          <ns3:TrackPointExtension>
            <ns3:atemp>18.0</ns3:atemp>
          </ns3:TrackPointExtension>
        </extensions>
      </trkpt>
      <trkpt lat="46.74512229859828948974609375" lon="6.88240659423172473907470703125">
        <ele>362.600006103515625</ele>
        <time>2013-09-01T16:02:05.000Z</time>
        <extensions>
          <ns3:TrackPointExtension>
            <ns3:atemp>18.0</ns3:atemp>
          </ns3:TrackPointExtension>
        </extensions>
      </trkpt>
      <trkpt lat="46.745068319141864776611328125" lon="6.88241581432521343231201171875">
        <ele>363</ele>
        <time>2013-09-01T16:02:06.000Z</time>
        <extensions>
          <ns3:TrackPointExtension>
            <ns3:atemp>18.0</ns3:atemp>
          </ns3:TrackPointExtension>
        </extensions>
      </trkpt>
      <trkpt lat="46.7450158484280109405517578125" lon="6.8824348412454128265380859375">
        <ele>363.20001220703125</ele>
        <time>2013-09-01T16:02:07.000Z</time>
        <extensions>
          <ns3:TrackPointExtension>
            <ns3:atemp>18.0</ns3:atemp>
          </ns3:TrackPointExtension>
        </extensions>
      </trkpt>
      <trkpt lat="46.7449642159044742584228515625" lon="6.88245437107980251312255859375">
        <ele>363.399993896484375</ele>
        <time>2013-09-01T16:02:08.000Z</time>
        <extensions>
          <ns3:TrackPointExtension>
            <ns3:atemp>18.0</ns3:atemp>
          </ns3:TrackPointExtension>
        </extensions>
      </trkpt>
      <trkpt lat="46.74491400830447673797607421875" lon="6.88247582875192165374755859375">
        <ele>363.600006103515625</ele>
        <time>2013-09-01T16:02:09.000Z</time>
        <extensions>
          <ns3:TrackPointExtension>
            <ns3:atemp>18.0</ns3:atemp>
          </ns3:TrackPointExtension>
        </extensions>
      </trkpt>
      <trkpt lat="46.74486405216157436370849609375" lon="6.88249510712921619415283203125">
        <ele>363.600006103515625</ele>
        <time>2013-09-01T16:02:10.000Z</time>
        <extensions>
          <ns3:TrackPointExtension>
            <ns3:atemp>18.0</ns3:atemp>
          </ns3:TrackPointExtension>
        </extensions>
      </trkpt>
      <trkpt lat="46.74481409601867198944091796875" lon="6.88251539133489131927490234375">
        <ele>363.79998779296875</ele>
        <time>2013-09-01T16:02:11.000Z</time>
        <extensions>
          <ns3:TrackPointExtension>
            <ns3:atemp>18.0</ns3:atemp>
          </ns3:TrackPointExtension>
        </extensions>
      </trkpt>
      <trkpt lat="46.74476397223770618438720703125" lon="6.882537938654422760009765625">
        <ele>363.79998779296875</ele>
        <time>2013-09-01T16:02:12.000Z</time>
        <extensions>
          <ns3:TrackPointExtension>
            <ns3:atemp>18.0</ns3:atemp>
          </ns3:TrackPointExtension>
        </extensions>
      </trkpt>
      <trkpt lat="46.7447137646377086639404296875" lon="6.8825615756213665008544921875">
        <ele>363.79998779296875</ele>
        <time>2013-09-01T16:02:13.000Z</time>
        <extensions>
          <ns3:TrackPointExtension>
            <ns3:atemp>18.0</ns3:atemp>
          </ns3:TrackPointExtension>
        </extensions>
      </trkpt>
      <trkpt lat="46.74466338939964771270751953125" lon="6.88258294947445392608642578125">
        <ele>364</ele>
        <time>2013-09-01T16:02:14.000Z</time>
        <extensions>
          <ns3:TrackPointExtension>
            <ns3:atemp>18.0</ns3:atemp>
          </ns3:TrackPointExtension>
        </extensions>
      </trkpt>
      <trkpt lat="46.744613349437713623046875" lon="6.88259803690016269683837890625">
        <ele>364.20001220703125</ele>
        <time>2013-09-01T16:02:15.000Z</time>
        <extensions>
          <ns3:TrackPointExtension>
            <ns3:atemp>18.0</ns3:atemp>
          </ns3:TrackPointExtension>
        </extensions>
      </trkpt>
      <trkpt lat="46.74456381238996982574462890625" lon="6.882613711059093475341796875">
        <ele>364.399993896484375</ele>
        <time>2013-09-01T16:02:16.000Z</time>
        <extensions>
          <ns3:TrackPointExtension>
            <ns3:atemp>18.0</ns3:atemp>
          </ns3:TrackPointExtension>
        </extensions>
      </trkpt>
      <trkpt lat="46.74451410770416259765625" lon="6.882628463208675384521484375">
        <ele>364.600006103515625</ele>
        <time>2013-09-01T16:02:17.000Z</time>
        <extensions>
          <ns3:TrackPointExtension>
            <ns3:atemp>19.0</ns3:atemp>
          </ns3:TrackPointExtension>
        </extensions>
      </trkpt>
      <trkpt lat="46.7444646544754505157470703125" lon="6.8826380185782909393310546875">
        <ele>364.600006103515625</ele>
        <time>2013-09-01T16:02:18.000Z</time>
        <extensions>
          <ns3:TrackPointExtension>
            <ns3:atemp>19.0</ns3:atemp>
          </ns3:TrackPointExtension>
        </extensions>
      </trkpt>
      <trkpt lat="46.744415201246738433837890625" lon="6.8826336599886417388916015625">
        <ele>364.79998779296875</ele>
        <time>2013-09-01T16:02:19.000Z</time>
        <extensions>
          <ns3:TrackPointExtension>
            <ns3:atemp>19.0</ns3:atemp>
          </ns3:TrackPointExtension>
        </extensions>
      </trkpt>
      <trkpt lat="46.744369603693485260009765625" lon="6.8826058320701122283935546875">
        <ele>365.20001220703125</ele>
        <time>2013-09-01T16:02:20.000Z</time>
        <extensions>
          <ns3:TrackPointExtension>
            <ns3:atemp>19.0</ns3:atemp>
          </ns3:TrackPointExtension>
        </extensions>
      </trkpt>
      <trkpt lat="46.7443292029201984405517578125" lon="6.88256534747779369354248046875">
        <ele>365.399993896484375</ele>
        <time>2013-09-01T16:02:21.000Z</time>
        <extensions>
          <ns3:TrackPointExtension>
            <ns3:atemp>19.0</ns3:atemp>
          </ns3:TrackPointExtension>
        </extensions>
      </trkpt>
      <trkpt lat="46.744292490184307098388671875" lon="6.88252159394323825836181640625">
        <ele>365.399993896484375</ele>
        <time>2013-09-01T16:02:22.000Z</time>
        <extensions>
          <ns3:TrackPointExtension>
            <ns3:atemp>19.0</ns3:atemp>
          </ns3:TrackPointExtension>
        </extensions>
      </trkpt>
      <trkpt lat="46.7442547716200351715087890625" lon="6.8824730627238750457763671875">
        <ele>365.20001220703125</ele>
        <time>2013-09-01T16:02:23.000Z</time>
        <extensions>
          <ns3:TrackPointExtension>
            <ns3:atemp>19.0</ns3:atemp>
          </ns3:TrackPointExtension>
        </extensions>
      </trkpt>
      <trkpt lat="46.7442209087312221527099609375" lon="6.882421933114528656005859375">
        <ele>365.20001220703125</ele>
        <time>2013-09-01T16:02:24.000Z</time>
        <extensions>
          <ns3:TrackPointExtension>
            <ns3:atemp>19.0</ns3:atemp>
          </ns3:TrackPointExtension>
        </extensions>
      </trkpt>
      <trkpt lat="46.74419048242270946502685546875" lon="6.8823687918484210968017578125">
        <ele>365.399993896484375</ele>
        <time>2013-09-01T16:02:25.000Z</time>
        <extensions>
          <ns3:TrackPointExtension>
            <ns3:atemp>19.0</ns3:atemp>
          </ns3:TrackPointExtension>
        </extensions>
      </trkpt>
      <trkpt lat="46.744158379733562469482421875" lon="6.8823211826384067535400390625">
        <ele>365.600006103515625</ele>
        <time>2013-09-01T16:02:26.000Z</time>
        <extensions>
          <ns3:TrackPointExtension>
            <ns3:atemp>19.0</ns3:atemp>
          </ns3:TrackPointExtension>
        </extensions>
      </trkpt>
      <trkpt lat="46.7441265285015106201171875" lon="6.88227684237062931060791015625">
        <ele>366</ele>
        <time>2013-09-01T16:02:27.000Z</time>
        <extensions>
          <ns3:TrackPointExtension>
            <ns3:atemp>19.0</ns3:atemp>
          </ns3:TrackPointExtension>
        </extensions>
      </trkpt>
      <trkpt lat="46.744098365306854248046875" lon="6.88223107717931270599365234375">
        <ele>366.20001220703125</ele>
        <time>2013-09-01T16:02:28.000Z</time>
        <extensions>
          <ns3:TrackPointExtension>
            <ns3:atemp>19.0</ns3:atemp>
          </ns3:TrackPointExtension>
        </extensions>
      </trkpt>
      <trkpt lat="46.7440723814070224761962890625" lon="6.8821900896728038787841796875">
        <ele>366.399993896484375</ele>
        <time>2013-09-01T16:02:29.000Z</time>
        <extensions>
          <ns3:TrackPointExtension>
            <ns3:atemp>19.0</ns3:atemp>
          </ns3:TrackPointExtension>
        </extensions>
      </trkpt>
      <trkpt lat="46.74404312856495380401611328125" lon="6.882149688899517059326171875">
        <ele>366.600006103515625</ele>
        <time>2013-09-01T16:02:30.000Z</time>
        <extensions>
          <ns3:TrackPointExtension>
            <ns3:atemp>19.0</ns3:atemp>
          </ns3:TrackPointExtension>
        </extensions>
      </trkpt>
      <trkpt lat="46.74401295371353626251220703125" lon="6.8821084499359130859375">
        <ele>367</ele>
        <time>2013-09-01T16:02:31.000Z</time>
        <extensions>
          <ns3:TrackPointExtension>
            <ns3:atemp>19.0</ns3:atemp>
          </ns3:TrackPointExtension>
        </extensions>
      </trkpt>
      <trkpt lat="46.743987388908863067626953125" lon="6.88206327147781848907470703125">
        <ele>367.20001220703125</ele>
        <time>2013-09-01T16:02:32.000Z</time>
        <extensions>
          <ns3:TrackPointExtension>
            <ns3:atemp>19.0</ns3:atemp>
          </ns3:TrackPointExtension>
        </extensions>
      </trkpt>
      <trkpt lat="46.74396651796996593475341796875" lon="6.88201532699167728424072265625">
        <ele>367.600006103515625</ele>
        <time>2013-09-01T16:02:33.000Z</time>
        <extensions>
          <ns3:TrackPointExtension>
            <ns3:atemp>19.0</ns3:atemp>
          </ns3:TrackPointExtension>
        </extensions>
      </trkpt>
      <trkpt lat="46.74393835477530956268310546875" lon="6.88197291456162929534912109375">
        <ele>367.79998779296875</ele>
        <time>2013-09-01T16:02:34.000Z</time>
        <extensions>
          <ns3:TrackPointExtension>
            <ns3:atemp>19.0</ns3:atemp>
          </ns3:TrackPointExtension>
        </extensions>
      </trkpt>
      <trkpt lat="46.74390868283808231353759765625" lon="6.8819366209208965301513671875">
        <ele>368</ele>
        <time>2013-09-01T16:02:35.000Z</time>
        <extensions>
          <ns3:TrackPointExtension>
            <ns3:atemp>19.0</ns3:atemp>
          </ns3:TrackPointExtension>
        </extensions>
      </trkpt>
      <trkpt lat="46.7438799329102039337158203125" lon="6.8818960525095462799072265625">
        <ele>368.399993896484375</ele>
        <time>2013-09-01T16:02:36.000Z</time>
        <extensions>
          <ns3:TrackPointExtension>
            <ns3:atemp>19.0</ns3:atemp>
          </ns3:TrackPointExtension>
        </extensions>
      </trkpt>
      <trkpt lat="46.743851937353610992431640625" lon="6.88185590319335460662841796875">
        <ele>368.600006103515625</ele>
        <time>2013-09-01T16:02:37.000Z</time>
        <extensions>
          <ns3:TrackPointExtension>
            <ns3:atemp>19.0</ns3:atemp>
          </ns3:TrackPointExtension>
        </extensions>
      </trkpt>
      <trkpt lat="46.743822433054447174072265625" lon="6.88181667588651180267333984375">
        <ele>368.79998779296875</ele>
        <time>2013-09-01T16:02:38.000Z</time>
        <extensions>
          <ns3:TrackPointExtension>
            <ns3:atemp>19.0</ns3:atemp>
          </ns3:TrackPointExtension>
        </extensions>
      </trkpt>
      <trkpt lat="46.74379083327949047088623046875" lon="6.8817803822457790374755859375">
        <ele>369</ele>
        <time>2013-09-01T16:02:39.000Z</time>
        <extensions>
          <ns3:TrackPointExtension>
            <ns3:atemp>19.0</ns3:atemp>
          </ns3:TrackPointExtension>
        </extensions>
      </trkpt>
      <trkpt lat="46.74376065842807292938232421875" lon="6.88174434006214141845703125">
        <ele>369.399993896484375</ele>
        <time>2013-09-01T16:02:40.000Z</time>
        <extensions>
          <ns3:TrackPointExtension>
            <ns3:atemp>19.0</ns3:atemp>
          </ns3:TrackPointExtension>
        </extensions>
      </trkpt>
      <trkpt lat="46.7437324114143848419189453125" lon="6.88169949688017368316650390625">
        <ele>369.79998779296875</ele>
        <time>2013-09-01T16:02:41.000Z</time>
        <extensions>
          <ns3:TrackPointExtension>
            <ns3:atemp>19.0</ns3:atemp>
          </ns3:TrackPointExtension>
        </extensions>
      </trkpt>
      <trkpt lat="46.7437072657048702239990234375" lon="6.88165448606014251708984375">
        <ele>370</ele>
        <time>2013-09-01T16:02:42.000Z</time>
        <extensions>
          <ns3:TrackPointExtension>
            <ns3:atemp>19.0</ns3:atemp>
          </ns3:TrackPointExtension>
        </extensions>
      </trkpt>
      <trkpt lat="46.74368337728083133697509765625" lon="6.8816103972494602203369140625">
        <ele>370.399993896484375</ele>
        <time>2013-09-01T16:02:43.000Z</time>
        <extensions>
          <ns3:TrackPointExtension>
            <ns3:atemp>19.0</ns3:atemp>
          </ns3:TrackPointExtension>
        </extensions>
      </trkpt>
      <trkpt lat="46.74366795457899570465087890625" lon="6.88156086020171642303466796875">
        <ele>370.600006103515625</ele>
        <time>2013-09-01T16:02:44.000Z</time>
        <extensions>
          <ns3:TrackPointExtension>
            <ns3:atemp>19.0</ns3:atemp>
          </ns3:TrackPointExtension>
        </extensions>
      </trkpt>
      <trkpt lat="46.7436526156961917877197265625" lon="6.88151367008686065673828125">
        <ele>371</ele>
        <time>2013-09-01T16:02:45.000Z</time>
        <extensions>
          <ns3:TrackPointExtension>
            <ns3:atemp>19.0</ns3:atemp>
          </ns3:TrackPointExtension>
        </extensions>
      </trkpt>
      <trkpt lat="46.7436425574123859405517578125" lon="6.88146413303911685943603515625">
        <ele>371.20001220703125</ele>
        <time>2013-09-01T16:02:46.000Z</time>
        <extensions>
          <ns3:TrackPointExtension>
            <ns3:atemp>19.0</ns3:atemp>
          </ns3:TrackPointExtension>
        </extensions>
      </trkpt>
      <trkpt lat="46.74362587742507457733154296875" lon="6.881418786942958831787109375">
        <ele>371.600006103515625</ele>
        <time>2013-09-01T16:02:47.000Z</time>
        <extensions>
          <ns3:TrackPointExtension>
            <ns3:atemp>19.0</ns3:atemp>
          </ns3:TrackPointExtension>
        </extensions>
      </trkpt>
      <trkpt lat="46.7436016537249088287353515625" lon="6.88138148747384548187255859375">
        <ele>371.79998779296875</ele>
        <time>2013-09-01T16:02:48.000Z</time>
        <extensions>
          <ns3:TrackPointExtension>
            <ns3:atemp>19.0</ns3:atemp>
          </ns3:TrackPointExtension>
        </extensions>
      </trkpt>
      <trkpt lat="46.74357122741639614105224609375" lon="6.88136103563010692596435546875">
        <ele>372.399993896484375</ele>
        <time>2013-09-01T16:02:49.000Z</time>
        <extensions>
          <ns3:TrackPointExtension>
            <ns3:atemp>19.0</ns3:atemp>
          </ns3:TrackPointExtension>
        </extensions>
      </trkpt>
      <trkpt lat="46.74354172311723232269287109375" lon="6.88135365955531597137451171875">
        <ele>372.600006103515625</ele>
        <time>2013-09-01T16:02:50.000Z</time>
        <extensions>
          <ns3:TrackPointExtension>
            <ns3:atemp>19.0</ns3:atemp>
          </ns3:TrackPointExtension>
        </extensions>
      </trkpt>
      <trkpt lat="46.74351163208484649658203125" lon="6.881354413926601409912109375">
        <ele>372.79998779296875</ele>
        <time>2013-09-01T16:02:51.000Z</time>
        <extensions>
          <ns3:TrackPointExtension>
            <ns3:atemp>19.0</ns3:atemp>
          </ns3:TrackPointExtension>
        </extensions>
      </trkpt>
      <trkpt lat="46.74348154105246067047119140625" lon="6.8813596107065677642822265625">
        <ele>372.79998779296875</ele>
        <time>2013-09-01T16:02:52.000Z</time>
        <extensions>
          <ns3:TrackPointExtension>
            <ns3:atemp>19.0</ns3:atemp>
          </ns3:TrackPointExtension>
        </extensions>
      </trkpt>
      <trkpt lat="46.7434514500200748443603515625" lon="6.8813730217516422271728515625">
        <ele>373</ele>
        <time>2013-09-01T16:02:53.000Z</time>
        <extensions>
          <ns3:TrackPointExtension>
            <ns3:atemp>19.0</ns3:atemp>
          </ns3:TrackPointExtension>
        </extensions>
      </trkpt>
      <trkpt lat="46.7434175871312618255615234375" lon="6.88138986937701702117919921875">
        <ele>373</ele>
        <time>2013-09-01T16:02:54.000Z</time>
        <extensions>
          <ns3:TrackPointExtension>
            <ns3:atemp>19.0</ns3:atemp>
          </ns3:TrackPointExtension>
        </extensions>
      </trkpt>
      <trkpt lat="46.74338280223309993743896484375" lon="6.881412751972675323486328125">
        <ele>372.79998779296875</ele>
        <time>2013-09-01T16:02:55.000Z</time>
        <extensions>
          <ns3:TrackPointExtension>
            <ns3:atemp>19.0</ns3:atemp>
          </ns3:TrackPointExtension>
        </extensions>
      </trkpt>
      <trkpt lat="46.74334676004946231842041015625" lon="6.88144250772893428802490234375">
        <ele>373</ele>
        <time>2013-09-01T16:02:56.000Z</time>
        <extensions>
          <ns3:TrackPointExtension>
            <ns3:atemp>19.0</ns3:atemp>
          </ns3:TrackPointExtension>
        </extensions>
      </trkpt>
      <trkpt lat="46.74331356771290302276611328125" lon="6.88147452659904956817626953125">
        <ele>373</ele>
        <time>2013-09-01T16:02:57.000Z</time>
        <extensions>
          <ns3:TrackPointExtension>
            <ns3:atemp>19.0</ns3:atemp>
          </ns3:TrackPointExtension>
        </extensions>
      </trkpt>
      <trkpt lat="46.743282973766326904296875" lon="6.88151501119136810302734375">
        <ele>373.20001220703125</ele>
        <time>2013-09-01T16:02:58.000Z</time>
        <extensions>
          <ns3:TrackPointExtension>
            <ns3:atemp>19.0</ns3:atemp>
          </ns3:TrackPointExtension>
        </extensions>
      </trkpt>
      <trkpt lat="46.74325271509587764739990234375" lon="6.881561279296875">
        <ele>373.20001220703125</ele>
        <time>2013-09-01T16:02:59.000Z</time>
        <extensions>
          <ns3:TrackPointExtension>
            <ns3:atemp>19.0</ns3:atemp>
          </ns3:TrackPointExtension>
        </extensions>
      </trkpt>
      <trkpt lat="46.74322421662509441375732421875" lon="6.88160913996398448944091796875">
        <ele>373.600006103515625</ele>
        <time>2013-09-01T16:03:00.000Z</time>
        <extensions>
          <ns3:TrackPointExtension>
            <ns3:atemp>19.0</ns3:atemp>
          </ns3:TrackPointExtension>
        </extensions>
      </trkpt>
      <trkpt lat="46.74319513142108917236328125" lon="6.88165775500237941741943359375">
        <ele>373.79998779296875</ele>
        <time>2013-09-01T16:03:01.000Z</time>
        <extensions>
          <ns3:TrackPointExtension>
            <ns3:atemp>19.0</ns3:atemp>
          </ns3:TrackPointExtension>
        </extensions>
      </trkpt>
      <trkpt lat="46.7431671358644962310791015625" lon="6.88170544803142547607421875">
        <ele>373.79998779296875</ele>
        <time>2013-09-01T16:03:02.000Z</time>
        <extensions>
          <ns3:TrackPointExtension>
            <ns3:atemp>19.0</ns3:atemp>
          </ns3:TrackPointExtension>
        </extensions>
      </trkpt>
      <trkpt lat="46.74313838593661785125732421875" lon="6.88175347633659839630126953125">
        <ele>373.79998779296875</ele>
        <time>2013-09-01T16:03:03.000Z</time>
        <extensions>
          <ns3:TrackPointExtension>
            <ns3:atemp>19.0</ns3:atemp>
          </ns3:TrackPointExtension>
        </extensions>
      </trkpt>
      <trkpt lat="46.7431084625422954559326171875" lon="6.88180066645145416259765625">
        <ele>374.20001220703125</ele>
        <time>2013-09-01T16:03:04.000Z</time>
        <extensions>
          <ns3:TrackPointExtension>
            <ns3:atemp>19.0</ns3:atemp>
          </ns3:TrackPointExtension>
        </extensions>
      </trkpt>
      <trkpt lat="46.743080131709575653076171875" lon="6.8818497844040393829345703125">
        <ele>374.20001220703125</ele>
        <time>2013-09-01T16:03:05.000Z</time>
        <extensions>
          <ns3:TrackPointExtension>
            <ns3:atemp>19.0</ns3:atemp>
          </ns3:TrackPointExtension>
        </extensions>
      </trkpt>
      <trkpt lat="46.74305087886750698089599609375" lon="6.88189831562340259552001953125">
        <ele>374.399993896484375</ele>
        <time>2013-09-01T16:03:06.000Z</time>
        <extensions>
          <ns3:TrackPointExtension>
            <ns3:atemp>19.0</ns3:atemp>
          </ns3:TrackPointExtension>
        </extensions>
      </trkpt>
      <trkpt lat="46.74302212893962860107421875" lon="6.88195221126079559326171875">
        <ele>374.600006103515625</ele>
        <time>2013-09-01T16:03:07.000Z</time>
        <extensions>
          <ns3:TrackPointExtension>
            <ns3:atemp>19.0</ns3:atemp>
          </ns3:TrackPointExtension>
        </extensions>
      </trkpt>
      <trkpt lat="46.74299237318336963653564453125" lon="6.882006861269474029541015625">
        <ele>375</ele>
        <time>2013-09-01T16:03:08.000Z</time>
        <extensions>
          <ns3:TrackPointExtension>
            <ns3:atemp>19.0</ns3:atemp>
          </ns3:TrackPointExtension>
        </extensions>
      </trkpt>
      <trkpt lat="46.74296001903712749481201171875" lon="6.88206025399267673492431640625">
        <ele>374.79998779296875</ele>
        <time>2013-09-01T16:03:09.000Z</time>
        <extensions>
          <ns3:TrackPointExtension>
            <ns3:atemp>19.0</ns3:atemp>
          </ns3:TrackPointExtension>
        </extensions>
      </trkpt>
      <trkpt lat="46.742925234138965606689453125" lon="6.88211582601070404052734375">
        <ele>374.600006103515625</ele>
        <time>2013-09-01T16:03:10.000Z</time>
        <extensions>
          <ns3:TrackPointExtension>
            <ns3:atemp>19.0</ns3:atemp>
          </ns3:TrackPointExtension>
        </extensions>
      </trkpt>
      <trkpt lat="46.74289212562143802642822265625" lon="6.88217273913323879241943359375">
        <ele>374.399993896484375</ele>
        <time>2013-09-01T16:03:11.000Z</time>
        <extensions>
          <ns3:TrackPointExtension>
            <ns3:atemp>19.0</ns3:atemp>
          </ns3:TrackPointExtension>
        </extensions>
      </trkpt>
      <trkpt lat="46.74286060966551303863525390625" lon="6.8822256289422512054443359375">
        <ele>374.399993896484375</ele>
        <time>2013-09-01T16:03:12.000Z</time>
        <extensions>
          <ns3:TrackPointExtension>
            <ns3:atemp>19.0</ns3:atemp>
          </ns3:TrackPointExtension>
        </extensions>
      </trkpt>
      <trkpt lat="46.74282523803412914276123046875" lon="6.8822849728167057037353515625">
        <ele>374.20001220703125</ele>
        <time>2013-09-01T16:03:13.000Z</time>
        <extensions>
          <ns3:TrackPointExtension>
            <ns3:atemp>19.0</ns3:atemp>
          </ns3:TrackPointExtension>
        </extensions>
      </trkpt>
      <trkpt lat="46.7427852563560009002685546875" lon="6.8823490105569362640380859375">
        <ele>373.79998779296875</ele>
        <time>2013-09-01T16:03:14.000Z</time>
        <extensions>
          <ns3:TrackPointExtension>
            <ns3:atemp>19.0</ns3:atemp>
          </ns3:TrackPointExtension>
        </extensions>
      </trkpt>
      <trkpt lat="46.74274393357336521148681640625" lon="6.8824113719165325164794921875">
        <ele>373.600006103515625</ele>
        <time>2013-09-01T16:03:15.000Z</time>
        <extensions>
          <ns3:TrackPointExtension>
            <ns3:atemp>19.0</ns3:atemp>
          </ns3:TrackPointExtension>
        </extensions>
      </trkpt>
      <trkpt lat="46.74270336516201496124267578125" lon="6.88247859477996826171875">
        <ele>373.79998779296875</ele>
        <time>2013-09-01T16:03:16.000Z</time>
        <extensions>
          <ns3:TrackPointExtension>
            <ns3:atemp>19.0</ns3:atemp>
          </ns3:TrackPointExtension>
        </extensions>
      </trkpt>
      <trkpt lat="46.74266430549323558807373046875" lon="6.8825443089008331298828125">
        <ele>373.79998779296875</ele>
        <time>2013-09-01T16:03:17.000Z</time>
        <extensions>
          <ns3:TrackPointExtension>
            <ns3:atemp>19.0</ns3:atemp>
          </ns3:TrackPointExtension>
        </extensions>
      </trkpt>
      <trkpt lat="46.7426246590912342071533203125" lon="6.88260993920266628265380859375">
        <ele>373.399993896484375</ele>
        <time>2013-09-01T16:03:18.000Z</time>
        <extensions>
          <ns3:TrackPointExtension>
            <ns3:atemp>19.0</ns3:atemp>
          </ns3:TrackPointExtension>
        </extensions>
      </trkpt>
      <trkpt lat="46.74258367158472537994384765625" lon="6.882676742970943450927734375">
        <ele>373</ele>
        <time>2013-09-01T16:03:19.000Z</time>
        <extensions>
          <ns3:TrackPointExtension>
            <ns3:atemp>19.0</ns3:atemp>
          </ns3:TrackPointExtension>
        </extensions>
      </trkpt>
      <trkpt lat="46.74254260025918483734130859375" lon="6.88274346292018890380859375">
        <ele>372.79998779296875</ele>
        <time>2013-09-01T16:03:20.000Z</time>
        <extensions>
          <ns3:TrackPointExtension>
            <ns3:atemp>19.0</ns3:atemp>
          </ns3:TrackPointExtension>
        </extensions>
      </trkpt>
      <trkpt lat="46.74250186420977115631103515625" lon="6.88281051814556121826171875">
        <ele>373</ele>
        <time>2013-09-01T16:03:21.000Z</time>
        <extensions>
          <ns3:TrackPointExtension>
            <ns3:atemp>19.0</ns3:atemp>
          </ns3:TrackPointExtension>
        </extensions>
      </trkpt>
      <trkpt lat="46.7424608767032623291015625" lon="6.88287832774221897125244140625">
        <ele>372.79998779296875</ele>
        <time>2013-09-01T16:03:22.000Z</time>
        <extensions>
          <ns3:TrackPointExtension>
            <ns3:atemp>19.0</ns3:atemp>
          </ns3:TrackPointExtension>
        </extensions>
      </trkpt>
      <trkpt lat="46.7424181289970874786376953125" lon="6.8829468078911304473876953125">
        <ele>372.600006103515625</ele>
        <time>2013-09-01T16:03:23.000Z</time>
        <extensions>
          <ns3:TrackPointExtension>
            <ns3:atemp>19.0</ns3:atemp>
          </ns3:TrackPointExtension>
        </extensions>
      </trkpt>
      <trkpt lat="46.742376051843166351318359375" lon="6.88301713205873966217041015625">
        <ele>372.79998779296875</ele>
        <time>2013-09-01T16:03:24.000Z</time>
        <extensions>
          <ns3:TrackPointExtension>
            <ns3:atemp>19.0</ns3:atemp>
          </ns3:TrackPointExtension>
        </extensions>
      </trkpt>
      <trkpt lat="46.7423322983086109161376953125" lon="6.88308586366474628448486328125">
        <ele>372.79998779296875</ele>
        <time>2013-09-01T16:03:25.000Z</time>
        <extensions>
          <ns3:TrackPointExtension>
            <ns3:atemp>19.0</ns3:atemp>
          </ns3:TrackPointExtension>
        </extensions>
      </trkpt>
      <trkpt lat="46.74229449592530727386474609375" lon="6.88316348008811473846435546875">
        <ele>373</ele>
        <time>2013-09-01T16:03:26.000Z</time>
        <extensions>
          <ns3:TrackPointExtension>
            <ns3:atemp>19.0</ns3:atemp>
          </ns3:TrackPointExtension>
        </extensions>
      </trkpt>
      <trkpt lat="46.7422665841877460479736328125" lon="6.88324428163468837738037109375">
        <ele>373</ele>
        <time>2013-09-01T16:03:27.000Z</time>
        <extensions>
          <ns3:TrackPointExtension>
            <ns3:atemp>19.0</ns3:atemp>
          </ns3:TrackPointExtension>
        </extensions>
      </trkpt>
      <trkpt lat="46.7422400973737239837646484375" lon="6.8833248317241668701171875">
        <ele>373.20001220703125</ele>
        <time>2013-09-01T16:03:28.000Z</time>
        <extensions>
          <ns3:TrackPointExtension>
            <ns3:atemp>19.0</ns3:atemp>
          </ns3:TrackPointExtension>
        </extensions>
      </trkpt>
      <trkpt lat="46.7422139458358287811279296875" lon="6.88340320251882076263427734375">
        <ele>373.79998779296875</ele>
        <time>2013-09-01T16:03:29.000Z</time>
        <extensions>
          <ns3:TrackPointExtension>
            <ns3:atemp>19.0</ns3:atemp>
          </ns3:TrackPointExtension>
        </extensions>
      </trkpt>
      <trkpt lat="46.7421872913837432861328125" lon="6.883477382361888885498046875">
        <ele>374.20001220703125</ele>
        <time>2013-09-01T16:03:30.000Z</time>
        <extensions>
          <ns3:TrackPointExtension>
            <ns3:atemp>19.0</ns3:atemp>
          </ns3:TrackPointExtension>
        </extensions>
      </trkpt>
      <trkpt lat="46.74216155894100666046142578125" lon="6.88354636542499065399169921875">
        <ele>374</ele>
        <time>2013-09-01T16:03:31.000Z</time>
        <extensions>
          <ns3:TrackPointExtension>
            <ns3:atemp>19.0</ns3:atemp>
          </ns3:TrackPointExtension>
        </extensions>
      </trkpt>
      <trkpt lat="46.74213238991796970367431640625" lon="6.88361677341163158416748046875">
        <ele>374</ele>
        <time>2013-09-01T16:03:32.000Z</time>
        <extensions>
          <ns3:TrackPointExtension>
            <ns3:atemp>19.0</ns3:atemp>
          </ns3:TrackPointExtension>
        </extensions>
      </trkpt>
      <trkpt lat="46.74210573546588420867919921875" lon="6.88368366099894046783447265625">
        <ele>373.79998779296875</ele>
        <time>2013-09-01T16:03:33.000Z</time>
        <extensions>
          <ns3:TrackPointExtension>
            <ns3:atemp>19.0</ns3:atemp>
          </ns3:TrackPointExtension>
        </extensions>
      </trkpt>
      <trkpt lat="46.74207740463316440582275390625" lon="6.8837461061775684356689453125">
        <ele>373.79998779296875</ele>
        <time>2013-09-01T16:03:34.000Z</time>
        <extensions>
          <ns3:TrackPointExtension>
            <ns3:atemp>19.0</ns3:atemp>
          </ns3:TrackPointExtension>
        </extensions>
      </trkpt>
      <trkpt lat="46.74205058254301548004150390625" lon="6.88380972482264041900634765625">
        <ele>373.600006103515625</ele>
        <time>2013-09-01T16:03:35.000Z</time>
        <extensions>
          <ns3:TrackPointExtension>
            <ns3:atemp>19.0</ns3:atemp>
          </ns3:TrackPointExtension>
        </extensions>
      </trkpt>
      <trkpt lat="46.742021329700946807861328125" lon="6.88386873342096805572509765625">
        <ele>373.79998779296875</ele>
        <time>2013-09-01T16:03:36.000Z</time>
        <extensions>
          <ns3:TrackPointExtension>
            <ns3:atemp>19.0</ns3:atemp>
          </ns3:TrackPointExtension>
        </extensions>
      </trkpt>
      <trkpt lat="46.74199073575437068939208984375" lon="6.88392539508640766143798828125">
        <ele>374</ele>
        <time>2013-09-01T16:03:37.000Z</time>
        <extensions>
          <ns3:TrackPointExtension>
            <ns3:atemp>19.0</ns3:atemp>
          </ns3:TrackPointExtension>
        </extensions>
      </trkpt>
      <trkpt lat="46.7419608123600482940673828125" lon="6.88398071564733982086181640625">
        <ele>373.79998779296875</ele>
        <time>2013-09-01T16:03:38.000Z</time>
        <extensions>
          <ns3:TrackPointExtension>
            <ns3:atemp>19.0</ns3:atemp>
          </ns3:TrackPointExtension>
        </extensions>
      </trkpt>
      <trkpt lat="46.74193122424185276031494140625" lon="6.8840341083705425262451171875">
        <ele>374</ele>
        <time>2013-09-01T16:03:39.000Z</time>
        <extensions>
          <ns3:TrackPointExtension>
            <ns3:atemp>19.0</ns3:atemp>
          </ns3:TrackPointExtension>
        </extensions>
      </trkpt>
      <trkpt lat="46.74190339632332324981689453125" lon="6.884087584912776947021484375">
        <ele>374.20001220703125</ele>
        <time>2013-09-01T16:03:40.000Z</time>
        <extensions>
          <ns3:TrackPointExtension>
            <ns3:atemp>19.0</ns3:atemp>
          </ns3:TrackPointExtension>
        </extensions>
      </trkpt>
      <trkpt lat="46.7418786697089672088623046875" lon="6.8841457553207874298095703125">
        <ele>374.399993896484375</ele>
        <time>2013-09-01T16:03:41.000Z</time>
        <extensions>
          <ns3:TrackPointExtension>
            <ns3:atemp>19.0</ns3:atemp>
          </ns3:TrackPointExtension>
        </extensions>
      </trkpt>
      <trkpt lat="46.74185679294168949127197265625" lon="6.884202919900417327880859375">
        <ele>374.399993896484375</ele>
        <time>2013-09-01T16:03:42.000Z</time>
        <extensions>
          <ns3:TrackPointExtension>
            <ns3:atemp>19.0</ns3:atemp>
          </ns3:TrackPointExtension>
        </extensions>
      </trkpt>
      <trkpt lat="46.74183717928826808929443359375" lon="6.88426368869841098785400390625">
        <ele>374.399993896484375</ele>
        <time>2013-09-01T16:03:43.000Z</time>
        <extensions>
          <ns3:TrackPointExtension>
            <ns3:atemp>19.0</ns3:atemp>
          </ns3:TrackPointExtension>
        </extensions>
      </trkpt>
      <trkpt lat="46.74181806854903697967529296875" lon="6.884323619306087493896484375">
        <ele>374.399993896484375</ele>
        <time>2013-09-01T16:03:44.000Z</time>
        <extensions>
          <ns3:TrackPointExtension>
            <ns3:atemp>19.0</ns3:atemp>
          </ns3:TrackPointExtension>
        </extensions>
      </trkpt>
      <trkpt lat="46.74179962836205959320068359375" lon="6.88438363373279571533203125">
        <ele>374.600006103515625</ele>
        <time>2013-09-01T16:03:45.000Z</time>
        <extensions>
          <ns3:TrackPointExtension>
            <ns3:atemp>19.0</ns3:atemp>
          </ns3:TrackPointExtension>
        </extensions>
      </trkpt>
      <trkpt lat="46.7417821101844310760498046875" lon="6.884443648159503936767578125">
        <ele>374.600006103515625</ele>
        <time>2013-09-01T16:03:46.000Z</time>
        <extensions>
          <ns3:TrackPointExtension>
            <ns3:atemp>19.0</ns3:atemp>
          </ns3:TrackPointExtension>
        </extensions>
      </trkpt>
      <trkpt lat="46.7417663522064685821533203125" lon="6.88450676389038562774658203125">
        <ele>374.79998779296875</ele>
        <time>2013-09-01T16:03:47.000Z</time>
        <extensions>
          <ns3:TrackPointExtension>
            <ns3:atemp>19.0</ns3:atemp>
          </ns3:TrackPointExtension>
        </extensions>
      </trkpt>
      <trkpt lat="46.7417495884001255035400390625" lon="6.884568370878696441650390625">
        <ele>375</ele>
        <time>2013-09-01T16:03:48.000Z</time>
        <extensions>
          <ns3:TrackPointExtension>
            <ns3:atemp>19.0</ns3:atemp>
          </ns3:TrackPointExtension>
        </extensions>
      </trkpt>
      <trkpt lat="46.7417321540415287017822265625" lon="6.88462897203862667083740234375">
        <ele>375.20001220703125</ele>
        <time>2013-09-01T16:03:49.000Z</time>
        <extensions>
          <ns3:TrackPointExtension>
            <ns3:atemp>19.0</ns3:atemp>
          </ns3:TrackPointExtension>
        </extensions>
      </trkpt>
      <trkpt lat="46.7417117021977901458740234375" lon="6.8846882320940494537353515625">
        <ele>375.399993896484375</ele>
        <time>2013-09-01T16:03:50.000Z</time>
        <extensions>
          <ns3:TrackPointExtension>
            <ns3:atemp>19.0</ns3:atemp>
          </ns3:TrackPointExtension>
        </extensions>
      </trkpt>
      <trkpt lat="46.74169234000146389007568359375" lon="6.88474799506366252899169921875">
        <ele>375.399993896484375</ele>
        <time>2013-09-01T16:03:51.000Z</time>
        <extensions>
          <ns3:TrackPointExtension>
            <ns3:atemp>19.0</ns3:atemp>
          </ns3:TrackPointExtension>
        </extensions>
      </trkpt>
      <trkpt lat="46.74167557619512081146240234375" lon="6.88480868004262447357177734375">
        <ele>375.600006103515625</ele>
        <time>2013-09-01T16:03:52.000Z</time>
        <extensions>
          <ns3:TrackPointExtension>
            <ns3:atemp>19.0</ns3:atemp>
          </ns3:TrackPointExtension>
        </extensions>
      </trkpt>
      <trkpt lat="46.7416563816368579864501953125" lon="6.884869448840618133544921875">
        <ele>375.600006103515625</ele>
        <time>2013-09-01T16:03:53.000Z</time>
        <extensions>
          <ns3:TrackPointExtension>
            <ns3:atemp>19.0</ns3:atemp>
          </ns3:TrackPointExtension>
        </extensions>
      </trkpt>
      <trkpt lat="46.741637773811817169189453125" lon="6.8849286250770092010498046875">
        <ele>375.600006103515625</ele>
        <time>2013-09-01T16:03:54.000Z</time>
        <extensions>
          <ns3:TrackPointExtension>
            <ns3:atemp>19.0</ns3:atemp>
          </ns3:TrackPointExtension>
        </extensions>
      </trkpt>
      <trkpt lat="46.7416186630725860595703125" lon="6.88498771749436855316162109375">
        <ele>375.79998779296875</ele>
        <time>2013-09-01T16:03:55.000Z</time>
        <extensions>
          <ns3:TrackPointExtension>
            <ns3:atemp>19.0</ns3:atemp>
          </ns3:TrackPointExtension>
        </extensions>
      </trkpt>
      <trkpt lat="46.74160047434270381927490234375" lon="6.8850506655871868133544921875">
        <ele>375.79998779296875</ele>
        <time>2013-09-01T16:03:56.000Z</time>
        <extensions>
          <ns3:TrackPointExtension>
            <ns3:atemp>19.0</ns3:atemp>
          </ns3:TrackPointExtension>
        </extensions>
      </trkpt>
      <trkpt lat="46.7415809445083141326904296875" lon="6.8851147033274173736572265625">
        <ele>376</ele>
        <time>2013-09-01T16:03:57.000Z</time>
        <extensions>
          <ns3:TrackPointExtension>
            <ns3:atemp>19.0</ns3:atemp>
          </ns3:TrackPointExtension>
        </extensions>
      </trkpt>
      <trkpt lat="46.7415571399033069610595703125" lon="6.88517698086798191070556640625">
        <ele>376</ele>
        <time>2013-09-01T16:03:58.000Z</time>
        <extensions>
          <ns3:TrackPointExtension>
            <ns3:atemp>19.0</ns3:atemp>
          </ns3:TrackPointExtension>
        </extensions>
      </trkpt>
      <trkpt lat="46.7415330000221729278564453125" lon="6.885236911475658416748046875">
        <ele>376.399993896484375</ele>
        <time>2013-09-01T16:03:59.000Z</time>
        <extensions>
          <ns3:TrackPointExtension>
            <ns3:atemp>19.0</ns3:atemp>
          </ns3:TrackPointExtension>
        </extensions>
      </trkpt>
      <trkpt lat="46.7415095306932926177978515625" lon="6.8852970935404300689697265625">
        <ele>376.600006103515625</ele>
        <time>2013-09-01T16:04:00.000Z</time>
        <extensions>
          <ns3:TrackPointExtension>
            <ns3:atemp>19.0</ns3:atemp>
          </ns3:TrackPointExtension>
        </extensions>
      </trkpt>
      <trkpt lat="46.74148681573569774627685546875" lon="6.8853571079671382904052734375">
        <ele>377.20001220703125</ele>
        <time>2013-09-01T16:04:01.000Z</time>
        <extensions>
          <ns3:TrackPointExtension>
            <ns3:atemp>19.0</ns3:atemp>
          </ns3:TrackPointExtension>
        </extensions>
      </trkpt>
      <trkpt lat="46.741462089121341705322265625" lon="6.88541628420352935791015625">
        <ele>377.600006103515625</ele>
        <time>2013-09-01T16:04:02.000Z</time>
        <extensions>
          <ns3:TrackPointExtension>
            <ns3:atemp>19.0</ns3:atemp>
          </ns3:TrackPointExtension>
        </extensions>
      </trkpt>
      <trkpt lat="46.74143786542117595672607421875" lon="6.8854764662683010101318359375">
        <ele>377.79998779296875</ele>
        <time>2013-09-01T16:04:03.000Z</time>
        <extensions>
          <ns3:TrackPointExtension>
            <ns3:atemp>19.0</ns3:atemp>
          </ns3:TrackPointExtension>
        </extensions>
      </trkpt>
      <trkpt lat="46.741411797702312469482421875" lon="6.88553572632372379302978515625">
        <ele>377.79998779296875</ele>
        <time>2013-09-01T16:04:04.000Z</time>
        <extensions>
          <ns3:TrackPointExtension>
            <ns3:atemp>19.0</ns3:atemp>
          </ns3:TrackPointExtension>
        </extensions>
      </trkpt>
      <trkpt lat="46.7413898371160030364990234375" lon="6.8855931423604488372802734375">
        <ele>378</ele>
        <time>2013-09-01T16:04:05.000Z</time>
        <extensions>
          <ns3:TrackPointExtension>
            <ns3:atemp>19.0</ns3:atemp>
          </ns3:TrackPointExtension>
        </extensions>
      </trkpt>
      <trkpt lat="46.74136812798678874969482421875" lon="6.8856484629213809967041015625">
        <ele>378.20001220703125</ele>
        <time>2013-09-01T16:04:06.000Z</time>
        <extensions>
          <ns3:TrackPointExtension>
            <ns3:atemp>19.0</ns3:atemp>
          </ns3:TrackPointExtension>
        </extensions>
      </trkpt>
      <trkpt lat="46.74134449101984500885009765625" lon="6.88570118509232997894287109375">
        <ele>378.399993896484375</ele>
        <time>2013-09-01T16:04:07.000Z</time>
        <extensions>
          <ns3:TrackPointExtension>
            <ns3:atemp>19.0</ns3:atemp>
          </ns3:TrackPointExtension>
        </extensions>
      </trkpt>
      <trkpt lat="46.74132152460515499114990234375" lon="6.88575214706361293792724609375">
        <ele>378.600006103515625</ele>
        <time>2013-09-01T16:04:08.000Z</time>
        <extensions>
          <ns3:TrackPointExtension>
            <ns3:atemp>19.0</ns3:atemp>
          </ns3:TrackPointExtension>
        </extensions>
      </trkpt>
      <trkpt lat="46.74129989929497241973876953125" lon="6.8858013488352298736572265625">
        <ele>378.600006103515625</ele>
        <time>2013-09-01T16:04:09.000Z</time>
        <extensions>
          <ns3:TrackPointExtension>
            <ns3:atemp>19.0</ns3:atemp>
          </ns3:TrackPointExtension>
        </extensions>
      </trkpt>
      <trkpt lat="46.74127860926091670989990234375" lon="6.88585306517779827117919921875">
        <ele>378.79998779296875</ele>
        <time>2013-09-01T16:04:10.000Z</time>
        <extensions>
          <ns3:TrackPointExtension>
            <ns3:atemp>19.0</ns3:atemp>
          </ns3:TrackPointExtension>
        </extensions>
      </trkpt>
      <trkpt lat="46.74125329591333866119384765625" lon="6.88589933328330516815185546875">
        <ele>378.79998779296875</ele>
        <time>2013-09-01T16:04:11.000Z</time>
        <extensions>
          <ns3:TrackPointExtension>
            <ns3:atemp>19.0</ns3:atemp>
          </ns3:TrackPointExtension>
        </extensions>
      </trkpt>
      <trkpt lat="46.74123217351734638214111328125" lon="6.8859498761594295501708984375">
        <ele>378.79998779296875</ele>
        <time>2013-09-01T16:04:12.000Z</time>
        <extensions>
          <ns3:TrackPointExtension>
            <ns3:atemp>19.0</ns3:atemp>
          </ns3:TrackPointExtension>
        </extensions>
      </trkpt>
      <trkpt lat="46.74121432006359100341796875" lon="6.88600259833037853240966796875">
        <ele>379.20001220703125</ele>
        <time>2013-09-01T16:04:13.000Z</time>
        <extensions>
          <ns3:TrackPointExtension>
            <ns3:atemp>19.0</ns3:atemp>
          </ns3:TrackPointExtension>
        </extensions>
      </trkpt>
      <trkpt lat="46.7411948740482330322265625" lon="6.88605406321585178375244140625">
        <ele>379.399993896484375</ele>
        <time>2013-09-01T16:04:14.000Z</time>
        <extensions>
          <ns3:TrackPointExtension>
            <ns3:atemp>19.0</ns3:atemp>
          </ns3:TrackPointExtension>
        </extensions>
      </trkpt>
      <trkpt lat="46.74117819406092166900634765625" lon="6.88610552810132503509521484375">
        <ele>379.79998779296875</ele>
        <time>2013-09-01T16:04:15.000Z</time>
        <extensions>
          <ns3:TrackPointExtension>
            <ns3:atemp>19.0</ns3:atemp>
          </ns3:TrackPointExtension>
        </extensions>
      </trkpt>
      <trkpt lat="46.74116344191133975982666015625" lon="6.88615883700549602508544921875">
        <ele>380</ele>
        <time>2013-09-01T16:04:16.000Z</time>
        <extensions>
          <ns3:TrackPointExtension>
            <ns3:atemp>19.0</ns3:atemp>
          </ns3:TrackPointExtension>
        </extensions>
      </trkpt>
      <trkpt lat="46.74115019850432872772216796875" lon="6.8862134031951427459716796875">
        <ele>380.20001220703125</ele>
        <time>2013-09-01T16:04:17.000Z</time>
        <extensions>
          <ns3:TrackPointExtension>
            <ns3:atemp>19.0</ns3:atemp>
          </ns3:TrackPointExtension>
        </extensions>
      </trkpt>
      <trkpt lat="46.74113561399281024932861328125" lon="6.88626847229897975921630859375">
        <ele>380.399993896484375</ele>
        <time>2013-09-01T16:04:18.000Z</time>
        <extensions>
          <ns3:TrackPointExtension>
            <ns3:atemp>19.0</ns3:atemp>
          </ns3:TrackPointExtension>
        </extensions>
      </trkpt>
      <trkpt lat="46.7411219514906406402587890625" lon="6.88632077537477016448974609375">
        <ele>380.600006103515625</ele>
        <time>2013-09-01T16:04:19.000Z</time>
        <extensions>
          <ns3:TrackPointExtension>
            <ns3:atemp>19.0</ns3:atemp>
          </ns3:TrackPointExtension>
        </extensions>
      </trkpt>
      <trkpt lat="46.74110963009297847747802734375" lon="6.8863689713180065155029296875">
        <ele>380.79998779296875</ele>
        <time>2013-09-01T16:04:20.000Z</time>
        <extensions>
          <ns3:TrackPointExtension>
            <ns3:atemp>19.0</ns3:atemp>
          </ns3:TrackPointExtension>
        </extensions>
      </trkpt>
      <trkpt lat="46.74109688960015773773193359375" lon="6.8864169158041477203369140625">
        <ele>381.20001220703125</ele>
        <time>2013-09-01T16:04:21.000Z</time>
        <extensions>
          <ns3:TrackPointExtension>
            <ns3:atemp>19.0</ns3:atemp>
          </ns3:TrackPointExtension>
        </extensions>
      </trkpt>
      <trkpt lat="46.7410849034786224365234375" lon="6.88646511174738407135009765625">
        <ele>381.20001220703125</ele>
        <time>2013-09-01T16:04:22.000Z</time>
        <extensions>
          <ns3:TrackPointExtension>
            <ns3:atemp>19.0</ns3:atemp>
          </ns3:TrackPointExtension>
        </extensions>
      </trkpt>
      <trkpt lat="46.74107358790934085845947265625" lon="6.88651238568127155303955078125">
        <ele>381.399993896484375</ele>
        <time>2013-09-01T16:04:23.000Z</time>
        <extensions>
          <ns3:TrackPointExtension>
            <ns3:atemp>19.0</ns3:atemp>
          </ns3:TrackPointExtension>
        </extensions>
      </trkpt>
      <trkpt lat="46.74106604419648647308349609375" lon="6.88656016252934932708740234375">
        <ele>381.600006103515625</ele>
        <time>2013-09-01T16:04:24.000Z</time>
        <extensions>
          <ns3:TrackPointExtension>
            <ns3:atemp>19.0</ns3:atemp>
          </ns3:TrackPointExtension>
        </extensions>
      </trkpt>
      <trkpt lat="46.7410559020936489105224609375" lon="6.8866086937487125396728515625">
        <ele>382.20001220703125</ele>
        <time>2013-09-01T16:04:25.000Z</time>
        <extensions>
          <ns3:TrackPointExtension>
            <ns3:atemp>19.0</ns3:atemp>
          </ns3:TrackPointExtension>
        </extensions>
      </trkpt>
      <trkpt lat="46.74104894511401653289794921875" lon="6.8866589851677417755126953125">
        <ele>382.399993896484375</ele>
        <time>2013-09-01T16:04:26.000Z</time>
        <extensions>
          <ns3:TrackPointExtension>
            <ns3:atemp>19.0</ns3:atemp>
          </ns3:TrackPointExtension>
        </extensions>
      </trkpt>
      <trkpt lat="46.74104106612503528594970703125" lon="6.88670818693935871124267578125">
        <ele>382.600006103515625</ele>
        <time>2013-09-01T16:04:27.000Z</time>
        <extensions>
          <ns3:TrackPointExtension>
            <ns3:atemp>19.0</ns3:atemp>
          </ns3:TrackPointExtension>
        </extensions>
      </trkpt>
      <trkpt lat="46.7410334385931491851806640625" lon="6.88675931654870510101318359375">
        <ele>382.79998779296875</ele>
        <time>2013-09-01T16:04:28.000Z</time>
        <extensions>
          <ns3:TrackPointExtension>
            <ns3:atemp>19.0</ns3:atemp>
          </ns3:TrackPointExtension>
        </extensions>
      </trkpt>
      <trkpt lat="46.74102522432804107666015625" lon="6.88680994324386119842529296875">
        <ele>383</ele>
        <time>2013-09-01T16:04:29.000Z</time>
        <extensions>
          <ns3:TrackPointExtension>
            <ns3:atemp>19.0</ns3:atemp>
          </ns3:TrackPointExtension>
        </extensions>
      </trkpt>
      <trkpt lat="46.7410170100629329681396484375" lon="6.8868598155677318572998046875">
        <ele>383.20001220703125</ele>
        <time>2013-09-01T16:04:30.000Z</time>
        <extensions>
          <ns3:TrackPointExtension>
            <ns3:atemp>19.0</ns3:atemp>
          </ns3:TrackPointExtension>
        </extensions>
      </trkpt>
      <trkpt lat="46.74100602976977825164794921875" lon="6.88690985552966594696044921875">
        <ele>383.399993896484375</ele>
        <time>2013-09-01T16:04:31.000Z</time>
        <extensions>
          <ns3:TrackPointExtension>
            <ns3:atemp>19.0</ns3:atemp>
          </ns3:TrackPointExtension>
        </extensions>
      </trkpt>
      <trkpt lat="46.740996055305004119873046875" lon="6.886961571872234344482421875">
        <ele>383.600006103515625</ele>
        <time>2013-09-01T16:04:32.000Z</time>
        <extensions>
          <ns3:TrackPointExtension>
            <ns3:atemp>19.0</ns3:atemp>
          </ns3:TrackPointExtension>
        </extensions>
      </trkpt>
      <trkpt lat="46.74099043942987918853759765625" lon="6.887013874948024749755859375">
        <ele>383.79998779296875</ele>
        <time>2013-09-01T16:04:33.000Z</time>
        <extensions>
          <ns3:TrackPointExtension>
            <ns3:atemp>19.0</ns3:atemp>
          </ns3:TrackPointExtension>
        </extensions>
      </trkpt>
      <trkpt lat="46.7409864999353885650634765625" lon="6.88706718385219573974609375">
        <ele>383.79998779296875</ele>
        <time>2013-09-01T16:04:34.000Z</time>
        <extensions>
          <ns3:TrackPointExtension>
            <ns3:atemp>19.0</ns3:atemp>
          </ns3:TrackPointExtension>
        </extensions>
      </trkpt>
      <trkpt lat="46.74098365008831024169921875" lon="6.8871169723570346832275390625">
        <ele>384</ele>
        <time>2013-09-01T16:04:35.000Z</time>
        <extensions>
          <ns3:TrackPointExtension>
            <ns3:atemp>19.0</ns3:atemp>
          </ns3:TrackPointExtension>
        </extensions>
      </trkpt>
      <trkpt lat="46.74098188988864421844482421875" lon="6.8871711194515228271484375">
        <ele>384.20001220703125</ele>
        <time>2013-09-01T16:04:36.000Z</time>
        <extensions>
          <ns3:TrackPointExtension>
            <ns3:atemp>19.0</ns3:atemp>
          </ns3:TrackPointExtension>
        </extensions>
      </trkpt>
      <trkpt lat="46.7409797944128513336181640625" lon="6.887221746146678924560546875">
        <ele>384.20001220703125</ele>
        <time>2013-09-01T16:04:37.000Z</time>
        <extensions>
          <ns3:TrackPointExtension>
            <ns3:atemp>19.0</ns3:atemp>
          </ns3:TrackPointExtension>
        </extensions>
      </trkpt>
      <trkpt lat="46.7409737594425678253173828125" lon="6.88727078028023242950439453125">
        <ele>384.399993896484375</ele>
        <time>2013-09-01T16:04:38.000Z</time>
        <extensions>
          <ns3:TrackPointExtension>
            <ns3:atemp>19.0</ns3:atemp>
          </ns3:TrackPointExtension>
        </extensions>
      </trkpt>
      <trkpt lat="46.74096931703388690948486328125" lon="6.88731939531862735748291015625">
        <ele>384.600006103515625</ele>
        <time>2013-09-01T16:04:39.000Z</time>
        <extensions>
          <ns3:TrackPointExtension>
            <ns3:atemp>19.0</ns3:atemp>
          </ns3:TrackPointExtension>
        </extensions>
      </trkpt>
      <trkpt lat="46.74095724709331989288330078125" lon="6.887373290956020355224609375">
        <ele>384.600006103515625</ele>
        <time>2013-09-01T16:04:40.000Z</time>
        <extensions>
          <ns3:TrackPointExtension>
            <ns3:atemp>19.0</ns3:atemp>
          </ns3:TrackPointExtension>
        </extensions>
      </trkpt>
      <trkpt lat="46.74094668589532375335693359375" lon="6.8874230794608592987060546875">
        <ele>384.79998779296875</ele>
        <time>2013-09-01T16:04:41.000Z</time>
        <extensions>
          <ns3:TrackPointExtension>
            <ns3:atemp>19.0</ns3:atemp>
          </ns3:TrackPointExtension>
        </extensions>
      </trkpt>
      <trkpt lat="46.7409402318298816680908203125" lon="6.887473203241825103759765625">
        <ele>385</ele>
        <time>2013-09-01T16:04:42.000Z</time>
        <extensions>
          <ns3:TrackPointExtension>
            <ns3:atemp>19.0</ns3:atemp>
          </ns3:TrackPointExtension>
        </extensions>
      </trkpt>
      <trkpt lat="46.74092841334640979766845703125" lon="6.88751787878572940826416015625">
        <ele>385.20001220703125</ele>
        <time>2013-09-01T16:04:43.000Z</time>
        <extensions>
          <ns3:TrackPointExtension>
            <ns3:atemp>19.0</ns3:atemp>
          </ns3:TrackPointExtension>
        </extensions>
      </trkpt>
      <trkpt lat="46.7409177683293819427490234375" lon="6.88756314106285572052001953125">
        <ele>385.399993896484375</ele>
        <time>2013-09-01T16:04:44.000Z</time>
        <extensions>
          <ns3:TrackPointExtension>
            <ns3:atemp>19.0</ns3:atemp>
          </ns3:TrackPointExtension>
        </extensions>
      </trkpt>
      <trkpt lat="46.74090611748397350311279296875" lon="6.8876084871590137481689453125">
        <ele>385.79998779296875</ele>
        <time>2013-09-01T16:04:45.000Z</time>
        <extensions>
          <ns3:TrackPointExtension>
            <ns3:atemp>19.0</ns3:atemp>
          </ns3:TrackPointExtension>
        </extensions>
      </trkpt>
      <trkpt lat="46.7408919520676136016845703125" lon="6.887656264007091522216796875">
        <ele>386.20001220703125</ele>
        <time>2013-09-01T16:04:46.000Z</time>
        <extensions>
          <ns3:TrackPointExtension>
            <ns3:atemp>19.0</ns3:atemp>
          </ns3:TrackPointExtension>
        </extensions>
      </trkpt>
      <trkpt lat="46.74087141640484333038330078125" lon="6.887701861560344696044921875">
        <ele>386.20001220703125</ele>
        <time>2013-09-01T16:04:47.000Z</time>
        <extensions>
          <ns3:TrackPointExtension>
            <ns3:atemp>19.0</ns3:atemp>
          </ns3:TrackPointExtension>
        </extensions>
      </trkpt>
      <trkpt lat="46.74085222184658050537109375" lon="6.8877368979156017303466796875">
        <ele>386.399993896484375</ele>
        <time>2013-09-01T16:04:48.000Z</time>
        <extensions>
          <ns3:TrackPointExtension>
            <ns3:atemp>19.0</ns3:atemp>
          </ns3:TrackPointExtension>
        </extensions>
      </trkpt>
      <trkpt lat="46.74082984216511249542236328125" lon="6.887771598994731903076171875">
        <ele>386.79998779296875</ele>
        <time>2013-09-01T16:04:49.000Z</time>
        <extensions>
          <ns3:TrackPointExtension>
            <ns3:atemp>19.0</ns3:atemp>
          </ns3:TrackPointExtension>
        </extensions>
      </trkpt>
      <trkpt lat="46.74080570228397846221923828125" lon="6.8878049589693546295166015625">
        <ele>386.79998779296875</ele>
        <time>2013-09-01T16:04:50.000Z</time>
        <extensions>
          <ns3:TrackPointExtension>
            <ns3:atemp>19.0</ns3:atemp>
          </ns3:TrackPointExtension>
        </extensions>
      </trkpt>
      <trkpt lat="46.7407846637070178985595703125" lon="6.887831278145313262939453125">
        <ele>387</ele>
        <time>2013-09-01T16:04:51.000Z</time>
        <extensions>
          <ns3:TrackPointExtension>
            <ns3:atemp>19.0</ns3:atemp>
          </ns3:TrackPointExtension>
        </extensions>
      </trkpt>
      <trkpt lat="46.7407598532736301422119140625" lon="6.88786036334931850433349609375">
        <ele>387.20001220703125</ele>
        <time>2013-09-01T16:04:52.000Z</time>
        <extensions>
          <ns3:TrackPointExtension>
            <ns3:atemp>19.0</ns3:atemp>
          </ns3:TrackPointExtension>
        </extensions>
      </trkpt>
      <trkpt lat="46.740737892687320709228515625" lon="6.88789020292460918426513671875">
        <ele>387.399993896484375</ele>
        <time>2013-09-01T16:04:53.000Z</time>
        <extensions>
          <ns3:TrackPointExtension>
            <ns3:atemp>19.0</ns3:atemp>
          </ns3:TrackPointExtension>
        </extensions>
      </trkpt>
      <trkpt lat="46.7407196201384067535400390625" lon="6.8879239819943904876708984375">
        <ele>387.79998779296875</ele>
        <time>2013-09-01T16:04:54.000Z</time>
        <extensions>
          <ns3:TrackPointExtension>
            <ns3:atemp>19.0</ns3:atemp>
          </ns3:TrackPointExtension>
        </extensions>
      </trkpt>
      <trkpt lat="46.7407013475894927978515625" lon="6.887956000864505767822265625">
        <ele>388</ele>
        <time>2013-09-01T16:04:55.000Z</time>
        <extensions>
          <ns3:TrackPointExtension>
            <ns3:atemp>19.0</ns3:atemp>
          </ns3:TrackPointExtension>
        </extensions>
      </trkpt>
      <trkpt lat="46.74067980609834194183349609375" lon="6.88798106275498867034912109375">
        <ele>388.600006103515625</ele>
        <time>2013-09-01T16:04:56.000Z</time>
        <extensions>
          <ns3:TrackPointExtension>
            <ns3:atemp>19.0</ns3:atemp>
          </ns3:TrackPointExtension>
        </extensions>
      </trkpt>
      <trkpt lat="46.740659438073635101318359375" lon="6.88800453208386898040771484375">
        <ele>388.79998779296875</ele>
        <time>2013-09-01T16:04:57.000Z</time>
        <extensions>
          <ns3:TrackPointExtension>
            <ns3:atemp>19.0</ns3:atemp>
          </ns3:TrackPointExtension>
        </extensions>
      </trkpt>
      <trkpt lat="46.74064032733440399169921875" lon="6.8880275823175907135009765625">
        <ele>389</ele>
        <time>2013-09-01T16:04:58.000Z</time>
        <extensions>
          <ns3:TrackPointExtension>
            <ns3:atemp>19.0</ns3:atemp>
          </ns3:TrackPointExtension>
        </extensions>
      </trkpt>
      <trkpt lat="46.74062381498515605926513671875" lon="6.88804979436099529266357421875">
        <ele>389.20001220703125</ele>
        <time>2013-09-01T16:04:59.000Z</time>
        <extensions>
          <ns3:TrackPointExtension>
            <ns3:atemp>19.0</ns3:atemp>
          </ns3:TrackPointExtension>
        </extensions>
      </trkpt>
      <trkpt lat="46.740605793893337249755859375" lon="6.88807971775531768798828125">
        <ele>389.600006103515625</ele>
        <time>2013-09-01T16:05:00.000Z</time>
        <extensions>
          <ns3:TrackPointExtension>
            <ns3:atemp>19.0</ns3:atemp>
          </ns3:TrackPointExtension>
        </extensions>
      </trkpt>
      <trkpt lat="46.74058659933507442474365234375" lon="6.888112239539623260498046875">
        <ele>390</ele>
        <time>2013-09-01T16:05:01.000Z</time>
        <extensions>
          <ns3:TrackPointExtension>
            <ns3:atemp>19.0</ns3:atemp>
          </ns3:TrackPointExtension>
        </extensions>
      </trkpt>
      <trkpt lat="46.74056732095777988433837890625" lon="6.88814534805715084075927734375">
        <ele>390.20001220703125</ele>
        <time>2013-09-01T16:05:02.000Z</time>
        <extensions>
          <ns3:TrackPointExtension>
            <ns3:atemp>19.0</ns3:atemp>
          </ns3:TrackPointExtension>
        </extensions>
      </trkpt>
      <trkpt lat="46.740547120571136474609375" lon="6.8881804682314395904541015625">
        <ele>390.399993896484375</ele>
        <time>2013-09-01T16:05:03.000Z</time>
        <extensions>
          <ns3:TrackPointExtension>
            <ns3:atemp>19.0</ns3:atemp>
          </ns3:TrackPointExtension>
        </extensions>
      </trkpt>
      <trkpt lat="46.7405275069177150726318359375" lon="6.8882225453853607177734375">
        <ele>390.20001220703125</ele>
        <time>2013-09-01T16:05:04.000Z</time>
        <extensions>
          <ns3:TrackPointExtension>
            <ns3:atemp>19.0</ns3:atemp>
          </ns3:TrackPointExtension>
        </extensions>
      </trkpt>
      <trkpt lat="46.7405003495514392852783203125" lon="6.88825917430222034454345703125">
        <ele>390.20001220703125</ele>
        <time>2013-09-01T16:05:05.000Z</time>
        <extensions>
          <ns3:TrackPointExtension>
            <ns3:atemp>19.0</ns3:atemp>
          </ns3:TrackPointExtension>
        </extensions>
      </trkpt>
      <trkpt lat="46.7404752038419246673583984375" lon="6.88829018734395503997802734375">
        <ele>390.600006103515625</ele>
        <time>2013-09-01T16:05:06.000Z</time>
        <extensions>
          <ns3:TrackPointExtension>
            <ns3:atemp>19.0</ns3:atemp>
          </ns3:TrackPointExtension>
        </extensions>
      </trkpt>
      <trkpt lat="46.7404453642666339874267578125" lon="6.8883186019957065582275390625">
        <ele>390.79998779296875</ele>
        <time>2013-09-01T16:05:07.000Z</time>
        <extensions>
          <ns3:TrackPointExtension>
            <ns3:atemp>19.0</ns3:atemp>
          </ns3:TrackPointExtension>
        </extensions>
      </trkpt>
      <trkpt lat="46.7404202185571193695068359375" lon="6.888343580067157745361328125">
        <ele>391</ele>
        <time>2013-09-01T16:05:08.000Z</time>
        <extensions>
          <ns3:TrackPointExtension>
            <ns3:atemp>19.0</ns3:atemp>
          </ns3:TrackPointExtension>
        </extensions>
      </trkpt>
      <trkpt lat="46.74040026962757110595703125" lon="6.88836696557700634002685546875">
        <ele>391.20001220703125</ele>
        <time>2013-09-01T16:05:09.000Z</time>
        <extensions>
          <ns3:TrackPointExtension>
            <ns3:atemp>19.0</ns3:atemp>
          </ns3:TrackPointExtension>
        </extensions>
      </trkpt>
      <trkpt lat="46.7403773032128810882568359375" lon="6.8883950449526309967041015625">
        <ele>391.20001220703125</ele>
        <time>2013-09-01T16:05:10.000Z</time>
        <extensions>
          <ns3:TrackPointExtension>
            <ns3:atemp>19.0</ns3:atemp>
          </ns3:TrackPointExtension>
        </extensions>
      </trkpt>
      <trkpt lat="46.7403541691601276397705078125" lon="6.8884181790053844451904296875">
        <ele>391.399993896484375</ele>
        <time>2013-09-01T16:05:11.000Z</time>
        <extensions>
          <ns3:TrackPointExtension>
            <ns3:atemp>19.0</ns3:atemp>
          </ns3:TrackPointExtension>
        </extensions>
      </trkpt>
      <trkpt lat="46.74033011309802532196044921875" lon="6.88844458200037479400634765625">
        <ele>391.600006103515625</ele>
        <time>2013-09-01T16:05:12.000Z</time>
        <extensions>
          <ns3:TrackPointExtension>
            <ns3:atemp>19.0</ns3:atemp>
          </ns3:TrackPointExtension>
        </extensions>
      </trkpt>
      <trkpt lat="46.74030748195946216583251953125" lon="6.88846738077700138092041015625">
        <ele>392</ele>
        <time>2013-09-01T16:05:13.000Z</time>
        <extensions>
          <ns3:TrackPointExtension>
            <ns3:atemp>19.0</ns3:atemp>
          </ns3:TrackPointExtension>
        </extensions>
      </trkpt>
      <trkpt lat="46.74028384499251842498779296875" lon="6.88849143683910369873046875">
        <ele>392.399993896484375</ele>
        <time>2013-09-01T16:05:14.000Z</time>
        <extensions>
          <ns3:TrackPointExtension>
            <ns3:atemp>19.0</ns3:atemp>
          </ns3:TrackPointExtension>
        </extensions>
      </trkpt>
      <trkpt lat="46.7402646504342555999755859375" lon="6.888521276414394378662109375">
        <ele>392.600006103515625</ele>
        <time>2013-09-01T16:05:15.000Z</time>
        <extensions>
          <ns3:TrackPointExtension>
            <ns3:atemp>19.0</ns3:atemp>
          </ns3:TrackPointExtension>
        </extensions>
      </trkpt>
      <trkpt lat="46.74024696461856365203857421875" lon="6.888546757400035858154296875">
        <ele>392.79998779296875</ele>
        <time>2013-09-01T16:05:16.000Z</time>
        <extensions>
          <ns3:TrackPointExtension>
            <ns3:atemp>19.0</ns3:atemp>
          </ns3:TrackPointExtension>
        </extensions>
      </trkpt>
      <trkpt lat="46.74022617749869823455810546875" lon="6.88857349567115306854248046875">
        <ele>393</ele>
        <time>2013-09-01T16:05:17.000Z</time>
        <extensions>
          <ns3:TrackPointExtension>
            <ns3:atemp>19.0</ns3:atemp>
          </ns3:TrackPointExtension>
        </extensions>
      </trkpt>
      <trkpt lat="46.74020304344594478607177734375" lon="6.88859880901873111724853515625">
        <ele>393.20001220703125</ele>
        <time>2013-09-01T16:05:18.000Z</time>
        <extensions>
          <ns3:TrackPointExtension>
            <ns3:atemp>19.0</ns3:atemp>
          </ns3:TrackPointExtension>
        </extensions>
      </trkpt>
      <trkpt lat="46.74018460325896739959716796875" lon="6.88862227834761142730712890625">
        <ele>393.600006103515625</ele>
        <time>2013-09-01T16:05:19.000Z</time>
        <extensions>
          <ns3:TrackPointExtension>
            <ns3:atemp>19.0</ns3:atemp>
          </ns3:TrackPointExtension>
        </extensions>
      </trkpt>
      <trkpt lat="46.740165911614894866943359375" lon="6.88864390365779399871826171875">
        <ele>393.79998779296875</ele>
        <time>2013-09-01T16:05:20.000Z</time>
        <extensions>
          <ns3:TrackPointExtension>
            <ns3:atemp>19.0</ns3:atemp>
          </ns3:TrackPointExtension>
        </extensions>
      </trkpt>
      <trkpt lat="46.74014680087566375732421875" lon="6.888668797910213470458984375">
        <ele>394</ele>
        <time>2013-09-01T16:05:21.000Z</time>
        <extensions>
          <ns3:TrackPointExtension>
            <ns3:atemp>19.0</ns3:atemp>
          </ns3:TrackPointExtension>
        </extensions>
      </trkpt>
      <trkpt lat="46.74012626521289348602294921875" lon="6.888691596686840057373046875">
        <ele>394.20001220703125</ele>
        <time>2013-09-01T16:05:22.000Z</time>
        <extensions>
          <ns3:TrackPointExtension>
            <ns3:atemp>19.0</ns3:atemp>
          </ns3:TrackPointExtension>
        </extensions>
      </trkpt>
      <trkpt lat="46.74010497517883777618408203125" lon="6.88871162943542003631591796875">
        <ele>394.399993896484375</ele>
        <time>2013-09-01T16:05:23.000Z</time>
        <extensions>
          <ns3:TrackPointExtension>
            <ns3:atemp>19.0</ns3:atemp>
          </ns3:TrackPointExtension>
        </extensions>
      </trkpt>
      <trkpt lat="46.74008511006832122802734375" lon="6.88873291946947574615478515625">
        <ele>394.600006103515625</ele>
        <time>2013-09-01T16:05:24.000Z</time>
        <extensions>
          <ns3:TrackPointExtension>
            <ns3:atemp>19.0</ns3:atemp>
          </ns3:TrackPointExtension>
        </extensions>
      </trkpt>
      <trkpt lat="46.74006574787199497222900390625" lon="6.88875186257064342498779296875">
        <ele>394.79998779296875</ele>
        <time>2013-09-01T16:05:25.000Z</time>
        <extensions>
          <ns3:TrackPointExtension>
            <ns3:atemp>19.0</ns3:atemp>
          </ns3:TrackPointExtension>
        </extensions>
      </trkpt>
      <trkpt lat="46.74004697240889072418212890625" lon="6.88877332024276256561279296875">
        <ele>395.20001220703125</ele>
        <time>2013-09-01T16:05:26.000Z</time>
        <extensions>
          <ns3:TrackPointExtension>
            <ns3:atemp>19.0</ns3:atemp>
          </ns3:TrackPointExtension>
        </extensions>
      </trkpt>
      <trkpt lat="46.74002853222191333770751953125" lon="6.88879159279167652130126953125">
        <ele>395.399993896484375</ele>
        <time>2013-09-01T16:05:27.000Z</time>
        <extensions>
          <ns3:TrackPointExtension>
            <ns3:atemp>19.0</ns3:atemp>
          </ns3:TrackPointExtension>
        </extensions>
      </trkpt>
      <trkpt lat="46.7400084994733333587646484375" lon="6.8888091109693050384521484375">
        <ele>395.600006103515625</ele>
        <time>2013-09-01T16:05:28.000Z</time>
        <extensions>
          <ns3:TrackPointExtension>
            <ns3:atemp>19.0</ns3:atemp>
          </ns3:TrackPointExtension>
        </extensions>
      </trkpt>
      <trkpt lat="46.73998880200088024139404296875" lon="6.888831071555614471435546875">
        <ele>395.600006103515625</ele>
        <time>2013-09-01T16:05:29.000Z</time>
        <extensions>
          <ns3:TrackPointExtension>
            <ns3:atemp>19.0</ns3:atemp>
          </ns3:TrackPointExtension>
        </extensions>
      </trkpt>
      <trkpt lat="46.73996885307133197784423828125" lon="6.88884775154292583465576171875">
        <ele>396</ele>
        <time>2013-09-01T16:05:30.000Z</time>
        <extensions>
          <ns3:TrackPointExtension>
            <ns3:atemp>19.0</ns3:atemp>
          </ns3:TrackPointExtension>
        </extensions>
      </trkpt>
      <trkpt lat="46.739949323236942291259765625" lon="6.88886987976729869842529296875">
        <ele>396.399993896484375</ele>
        <time>2013-09-01T16:05:31.000Z</time>
        <extensions>
          <ns3:TrackPointExtension>
            <ns3:atemp>19.0</ns3:atemp>
          </ns3:TrackPointExtension>
        </extensions>
      </trkpt>
      <trkpt lat="46.73993331380188465118408203125" lon="6.88889376819133758544921875">
        <ele>396.600006103515625</ele>
        <time>2013-09-01T16:05:32.000Z</time>
        <extensions>
          <ns3:TrackPointExtension>
            <ns3:atemp>19.0</ns3:atemp>
          </ns3:TrackPointExtension>
        </extensions>
      </trkpt>
      <trkpt lat="46.73991973511874675750732421875" lon="6.8889234401285648345947265625">
        <ele>396.79998779296875</ele>
        <time>2013-09-01T16:05:33.000Z</time>
        <extensions>
          <ns3:TrackPointExtension>
            <ns3:atemp>19.0</ns3:atemp>
          </ns3:TrackPointExtension>
        </extensions>
      </trkpt>
      <trkpt lat="46.73990900628268718719482421875" lon="6.888952441513538360595703125">
        <ele>396.79998779296875</ele>
        <time>2013-09-01T16:05:34.000Z</time>
        <extensions>
          <ns3:TrackPointExtension>
            <ns3:atemp>19.0</ns3:atemp>
          </ns3:TrackPointExtension>
        </extensions>
      </trkpt>
      <trkpt lat="46.73989090137183666229248046875" lon="6.88897716812789440155029296875">
        <ele>397</ele>
        <time>2013-09-01T16:05:35.000Z</time>
        <extensions>
          <ns3:TrackPointExtension>
            <ns3:atemp>19.0</ns3:atemp>
          </ns3:TrackPointExtension>
        </extensions>
      </trkpt>
      <trkpt lat="46.73987497575581073760986328125" lon="6.88899711705744266510009765625">
        <ele>397.20001220703125</ele>
        <time>2013-09-01T16:05:36.000Z</time>
        <extensions>
          <ns3:TrackPointExtension>
            <ns3:atemp>19.0</ns3:atemp>
          </ns3:TrackPointExtension>
        </extensions>
      </trkpt>
      <trkpt lat="46.73985821194946765899658203125" lon="6.8890178203582763671875">
        <ele>397.600006103515625</ele>
        <time>2013-09-01T16:05:37.000Z</time>
        <extensions>
          <ns3:TrackPointExtension>
            <ns3:atemp>19.0</ns3:atemp>
          </ns3:TrackPointExtension>
        </extensions>
      </trkpt>
      <trkpt lat="46.7398455552756786346435546875" lon="6.88904757611453533172607421875">
        <ele>397.79998779296875</ele>
        <time>2013-09-01T16:05:38.000Z</time>
        <extensions>
          <ns3:TrackPointExtension>
            <ns3:atemp>19.0</ns3:atemp>
          </ns3:TrackPointExtension>
        </extensions>
      </trkpt>
      <trkpt lat="46.73983138985931873321533203125" lon="6.889073811471462249755859375">
        <ele>398</ele>
        <time>2013-09-01T16:05:39.000Z</time>
        <extensions>
          <ns3:TrackPointExtension>
            <ns3:atemp>19.0</ns3:atemp>
          </ns3:TrackPointExtension>
        </extensions>
      </trkpt>
      <trkpt lat="46.73981429077684879302978515625" lon="6.88909585587680339813232421875">
        <ele>398.20001220703125</ele>
        <time>2013-09-01T16:05:40.000Z</time>
        <extensions>
          <ns3:TrackPointExtension>
            <ns3:atemp>19.0</ns3:atemp>
          </ns3:TrackPointExtension>
        </extensions>
      </trkpt>
      <trkpt lat="46.73980305902659893035888671875" lon="6.88911748118698596954345703125">
        <ele>398.600006103515625</ele>
        <time>2013-09-01T16:05:41.000Z</time>
        <extensions>
          <ns3:TrackPointExtension>
            <ns3:atemp>19.0</ns3:atemp>
          </ns3:TrackPointExtension>
        </extensions>
      </trkpt>
      <trkpt lat="46.73979274928569793701171875" lon="6.8891479074954986572265625">
        <ele>398.79998779296875</ele>
        <time>2013-09-01T16:05:42.000Z</time>
        <extensions>
          <ns3:TrackPointExtension>
            <ns3:atemp>19.0</ns3:atemp>
          </ns3:TrackPointExtension>
        </extensions>
      </trkpt>
      <trkpt lat="46.73978277482092380523681640625" lon="6.88916626386344432830810546875">
        <ele>398.79998779296875</ele>
        <time>2013-09-01T16:05:43.000Z</time>
        <extensions>
          <ns3:TrackPointExtension>
            <ns3:atemp>19.0</ns3:atemp>
          </ns3:TrackPointExtension>
        </extensions>
      </trkpt>
      <trkpt lat="46.73976684920489788055419921875" lon="6.88918788917362689971923828125">
        <ele>398.79998779296875</ele>
        <time>2013-09-01T16:05:44.000Z</time>
        <extensions>
          <ns3:TrackPointExtension>
            <ns3:atemp>19.0</ns3:atemp>
          </ns3:TrackPointExtension>
        </extensions>
      </trkpt>
      <trkpt lat="46.73974840901792049407958984375" lon="6.889208257198333740234375">
        <ele>398.79998779296875</ele>
        <time>2013-09-01T16:05:45.000Z</time>
        <extensions>
          <ns3:TrackPointExtension>
            <ns3:atemp>19.0</ns3:atemp>
          </ns3:TrackPointExtension>
        </extensions>
      </trkpt>
      <trkpt lat="46.73972862772643566131591796875" lon="6.88922963105142116546630859375">
        <ele>399.20001220703125</ele>
        <time>2013-09-01T16:05:46.000Z</time>
        <extensions>
          <ns3:TrackPointExtension>
            <ns3:atemp>19.0</ns3:atemp>
          </ns3:TrackPointExtension>
        </extensions>
      </trkpt>
      <trkpt lat="46.7397104389965534210205078125" lon="6.8892525136470794677734375">
        <ele>399.20001220703125</ele>
        <time>2013-09-01T16:05:47.000Z</time>
        <extensions>
          <ns3:TrackPointExtension>
            <ns3:atemp>19.0</ns3:atemp>
          </ns3:TrackPointExtension>
        </extensions>
      </trkpt>
      <trkpt lat="46.73969392664730548858642578125" lon="6.8892751447856426239013671875">
        <ele>399.399993896484375</ele>
        <time>2013-09-01T16:05:48.000Z</time>
        <extensions>
          <ns3:TrackPointExtension>
            <ns3:atemp>19.0</ns3:atemp>
          </ns3:TrackPointExtension>
        </extensions>
      </trkpt>
      <trkpt lat="46.7396762408316135406494140625" lon="6.88929484225809574127197265625">
        <ele>399.600006103515625</ele>
        <time>2013-09-01T16:05:49.000Z</time>
        <extensions>
          <ns3:TrackPointExtension>
            <ns3:atemp>19.0</ns3:atemp>
          </ns3:TrackPointExtension>
        </extensions>
      </trkpt>
      <trkpt lat="46.73965704627335071563720703125" lon="6.8893103487789630889892578125">
        <ele>399.79998779296875</ele>
        <time>2013-09-01T16:05:50.000Z</time>
        <extensions>
          <ns3:TrackPointExtension>
            <ns3:atemp>19.0</ns3:atemp>
          </ns3:TrackPointExtension>
        </extensions>
      </trkpt>
      <trkpt lat="46.739637851715087890625" lon="6.889325939118862152099609375">
        <ele>399.79998779296875</ele>
        <time>2013-09-01T16:05:51.000Z</time>
        <extensions>
          <ns3:TrackPointExtension>
            <ns3:atemp>19.0</ns3:atemp>
          </ns3:TrackPointExtension>
        </extensions>
      </trkpt>
      <trkpt lat="46.7396204173564910888671875" lon="6.889344044029712677001953125">
        <ele>400</ele>
        <time>2013-09-01T16:05:52.000Z</time>
        <extensions>
          <ns3:TrackPointExtension>
            <ns3:atemp>19.0</ns3:atemp>
          </ns3:TrackPointExtension>
        </extensions>
      </trkpt>
      <trkpt lat="46.7396008037030696868896484375" lon="6.889366172254085540771484375">
        <ele>400.20001220703125</ele>
        <time>2013-09-01T16:05:53.000Z</time>
        <extensions>
          <ns3:TrackPointExtension>
            <ns3:atemp>19.0</ns3:atemp>
          </ns3:TrackPointExtension>
        </extensions>
      </trkpt>
      <trkpt lat="46.73958060331642627716064453125" lon="6.889386959373950958251953125">
        <ele>400.399993896484375</ele>
        <time>2013-09-01T16:05:54.000Z</time>
        <extensions>
          <ns3:TrackPointExtension>
            <ns3:atemp>19.0</ns3:atemp>
          </ns3:TrackPointExtension>
        </extensions>
      </trkpt>
      <trkpt lat="46.73956182785332202911376953125" lon="6.8894062377512454986572265625">
        <ele>400.79998779296875</ele>
        <time>2013-09-01T16:05:55.000Z</time>
        <extensions>
          <ns3:TrackPointExtension>
            <ns3:atemp>19.0</ns3:atemp>
          </ns3:TrackPointExtension>
        </extensions>
      </trkpt>
      <trkpt lat="46.7395428009331226348876953125" lon="6.889426521956920623779296875">
        <ele>401</ele>
        <time>2013-09-01T16:05:56.000Z</time>
        <extensions>
          <ns3:TrackPointExtension>
            <ns3:atemp>19.0</ns3:atemp>
          </ns3:TrackPointExtension>
        </extensions>
      </trkpt>
      <trkpt lat="46.73952109180390834808349609375" lon="6.88944705761969089508056640625">
        <ele>401.20001220703125</ele>
        <time>2013-09-01T16:05:57.000Z</time>
        <extensions>
          <ns3:TrackPointExtension>
            <ns3:atemp>19.0</ns3:atemp>
          </ns3:TrackPointExtension>
        </extensions>
      </trkpt>
      <trkpt lat="46.73949963413178920745849609375" lon="6.88946382142603397369384765625">
        <ele>401.399993896484375</ele>
        <time>2013-09-01T16:05:58.000Z</time>
        <extensions>
          <ns3:TrackPointExtension>
            <ns3:atemp>19.0</ns3:atemp>
          </ns3:TrackPointExtension>
        </extensions>
      </trkpt>
      <trkpt lat="46.7394782602787017822265625" lon="6.88947941176593303680419921875">
        <ele>401.600006103515625</ele>
        <time>2013-09-01T16:05:59.000Z</time>
        <extensions>
          <ns3:TrackPointExtension>
            <ns3:atemp>19.0</ns3:atemp>
          </ns3:TrackPointExtension>
        </extensions>
      </trkpt>
      <trkpt lat="46.73945705406367778778076171875" lon="6.88949584029614925384521484375">
        <ele>401.79998779296875</ele>
        <time>2013-09-01T16:06:00.000Z</time>
        <extensions>
          <ns3:TrackPointExtension>
            <ns3:atemp>19.0</ns3:atemp>
          </ns3:TrackPointExtension>
        </extensions>
      </trkpt>
      <trkpt lat="46.73943609930574893951416015625" lon="6.8895118497312068939208984375">
        <ele>402.20001220703125</ele>
        <time>2013-09-01T16:06:01.000Z</time>
        <extensions>
          <ns3:TrackPointExtension>
            <ns3:atemp>19.0</ns3:atemp>
          </ns3:TrackPointExtension>
        </extensions>
      </trkpt>
      <trkpt lat="46.73941187560558319091796875" lon="6.8895260989665985107421875">
        <ele>402.600006103515625</ele>
        <time>2013-09-01T16:06:02.000Z</time>
        <extensions>
          <ns3:TrackPointExtension>
            <ns3:atemp>19.0</ns3:atemp>
          </ns3:TrackPointExtension>
        </extensions>
      </trkpt>
      <trkpt lat="46.73938639461994171142578125" lon="6.88953959383070468902587890625">
        <ele>402.79998779296875</ele>
        <time>2013-09-01T16:06:03.000Z</time>
        <extensions>
          <ns3:TrackPointExtension>
            <ns3:atemp>19.0</ns3:atemp>
          </ns3:TrackPointExtension>
        </extensions>
      </trkpt>
      <trkpt lat="46.739365942776203155517578125" lon="6.88955551944673061370849609375">
        <ele>403</ele>
        <time>2013-09-01T16:06:04.000Z</time>
        <extensions>
          <ns3:TrackPointExtension>
            <ns3:atemp>19.0</ns3:atemp>
          </ns3:TrackPointExtension>
        </extensions>
      </trkpt>
      <trkpt lat="46.7393441498279571533203125" lon="6.889568679034709930419921875">
        <ele>403.20001220703125</ele>
        <time>2013-09-01T16:06:05.000Z</time>
        <extensions>
          <ns3:TrackPointExtension>
            <ns3:atemp>19.0</ns3:atemp>
          </ns3:TrackPointExtension>
        </extensions>
      </trkpt>
      <trkpt lat="46.73932202160358428955078125" lon="6.889583766460418701171875">
        <ele>403.399993896484375</ele>
        <time>2013-09-01T16:06:06.000Z</time>
        <extensions>
          <ns3:TrackPointExtension>
            <ns3:atemp>19.0</ns3:atemp>
          </ns3:TrackPointExtension>
        </extensions>
      </trkpt>
      <trkpt lat="46.73929913900792598724365234375" lon="6.8895990215241909027099609375">
        <ele>403.600006103515625</ele>
        <time>2013-09-01T16:06:07.000Z</time>
        <extensions>
          <ns3:TrackPointExtension>
            <ns3:atemp>19.0</ns3:atemp>
          </ns3:TrackPointExtension>
        </extensions>
      </trkpt>
      <trkpt lat="46.739280782639980316162109375" lon="6.88961251638829708099365234375">
        <ele>404</ele>
        <time>2013-09-01T16:06:08.000Z</time>
        <extensions>
          <ns3:TrackPointExtension>
            <ns3:atemp>19.0</ns3:atemp>
          </ns3:TrackPointExtension>
        </extensions>
      </trkpt>
      <trkpt lat="46.73925639130175113677978515625" lon="6.889626346528530120849609375">
        <ele>404.20001220703125</ele>
        <time>2013-09-01T16:06:09.000Z</time>
        <extensions>
          <ns3:TrackPointExtension>
            <ns3:atemp>19.0</ns3:atemp>
          </ns3:TrackPointExtension>
        </extensions>
      </trkpt>
      <trkpt lat="46.73923484981060028076171875" lon="6.8896365724503993988037109375">
        <ele>404.600006103515625</ele>
        <time>2013-09-01T16:06:10.000Z</time>
        <extensions>
          <ns3:TrackPointExtension>
            <ns3:atemp>19.0</ns3:atemp>
          </ns3:TrackPointExtension>
        </extensions>
      </trkpt>
      <trkpt lat="46.7392071895301342010498046875" lon="6.8896389193832874298095703125">
        <ele>404.79998779296875</ele>
        <time>2013-09-01T16:06:11.000Z</time>
        <extensions>
          <ns3:TrackPointExtension>
            <ns3:atemp>19.0</ns3:atemp>
          </ns3:TrackPointExtension>
        </extensions>
      </trkpt>
      <trkpt lat="46.73917676322162151336669921875" lon="6.88964344561100006103515625">
        <ele>405</ele>
        <time>2013-09-01T16:06:12.000Z</time>
        <extensions>
          <ns3:TrackPointExtension>
            <ns3:atemp>19.0</ns3:atemp>
          </ns3:TrackPointExtension>
        </extensions>
      </trkpt>
      <trkpt lat="46.7391454987227916717529296875" lon="6.88964487053453922271728515625">
        <ele>405.399993896484375</ele>
        <time>2013-09-01T16:06:13.000Z</time>
        <extensions>
          <ns3:TrackPointExtension>
            <ns3:atemp>19.0</ns3:atemp>
          </ns3:TrackPointExtension>
        </extensions>
      </trkpt>
      <trkpt lat="46.73911356367170810699462890625" lon="6.889653503894805908203125">
        <ele>405.399993896484375</ele>
        <time>2013-09-01T16:06:14.000Z</time>
        <extensions>
          <ns3:TrackPointExtension>
            <ns3:atemp>19.0</ns3:atemp>
          </ns3:TrackPointExtension>
        </extensions>
      </trkpt>
      <trkpt lat="46.739086993038654327392578125" lon="6.8896674178540706634521484375">
        <ele>405.79998779296875</ele>
        <time>2013-09-01T16:06:15.000Z</time>
        <extensions>
          <ns3:TrackPointExtension>
            <ns3:atemp>19.0</ns3:atemp>
          </ns3:TrackPointExtension>
        </extensions>
      </trkpt>
      <trkpt lat="46.73905723728239536285400390625" lon="6.8896801583468914031982421875">
        <ele>406</ele>
        <time>2013-09-01T16:06:16.000Z</time>
        <extensions>
          <ns3:TrackPointExtension>
            <ns3:atemp>19.0</ns3:atemp>
          </ns3:TrackPointExtension>
        </extensions>
      </trkpt>
      <trkpt lat="46.73903225921094417572021484375" lon="6.88968828879296779632568359375">
        <ele>406.20001220703125</ele>
        <time>2013-09-01T16:06:17.000Z</time>
        <extensions>
          <ns3:TrackPointExtension>
            <ns3:atemp>19.0</ns3:atemp>
          </ns3:TrackPointExtension>
        </extensions>
      </trkpt>
      <trkpt lat="46.7390073649585247039794921875" lon="6.88969734124839305877685546875">
        <ele>406.600006103515625</ele>
        <time>2013-09-01T16:06:18.000Z</time>
        <extensions>
          <ns3:TrackPointExtension>
            <ns3:atemp>19.0</ns3:atemp>
          </ns3:TrackPointExtension>
        </extensions>
      </trkpt>
      <trkpt lat="46.7389802075922489166259765625" lon="6.889707148075103759765625">
        <ele>406.79998779296875</ele>
        <time>2013-09-01T16:06:19.000Z</time>
        <extensions>
          <ns3:TrackPointExtension>
            <ns3:atemp>19.0</ns3:atemp>
          </ns3:TrackPointExtension>
        </extensions>
      </trkpt>
      <trkpt lat="46.7389550618827342987060546875" lon="6.88971678726375102996826171875">
        <ele>407</ele>
        <time>2013-09-01T16:06:20.000Z</time>
        <extensions>
          <ns3:TrackPointExtension>
            <ns3:atemp>19.0</ns3:atemp>
          </ns3:TrackPointExtension>
        </extensions>
      </trkpt>
      <trkpt lat="46.73892798833549022674560546875" lon="6.8897200562059879302978515625">
        <ele>407.20001220703125</ele>
        <time>2013-09-01T16:06:21.000Z</time>
        <extensions>
          <ns3:TrackPointExtension>
            <ns3:atemp>19.0</ns3:atemp>
          </ns3:TrackPointExtension>
        </extensions>
      </trkpt>
      <trkpt lat="46.73890368081629276275634765625" lon="6.889720223844051361083984375">
        <ele>407.399993896484375</ele>
        <time>2013-09-01T16:06:22.000Z</time>
        <extensions>
          <ns3:TrackPointExtension>
            <ns3:atemp>19.0</ns3:atemp>
          </ns3:TrackPointExtension>
        </extensions>
      </trkpt>
      <trkpt lat="46.73888188786804676055908203125" lon="6.889722235500812530517578125">
        <ele>407.600006103515625</ele>
        <time>2013-09-01T16:06:23.000Z</time>
        <extensions>
          <ns3:TrackPointExtension>
            <ns3:atemp>19.0</ns3:atemp>
          </ns3:TrackPointExtension>
        </extensions>
      </trkpt>
      <trkpt lat="46.73886277712881565093994140625" lon="6.88972148112952709197998046875">
        <ele>408</ele>
        <time>2013-09-01T16:06:24.000Z</time>
        <extensions>
          <ns3:TrackPointExtension>
            <ns3:atemp>19.0</ns3:atemp>
          </ns3:TrackPointExtension>
        </extensions>
      </trkpt>
      <trkpt lat="46.7388407327234745025634765625" lon="6.88972391188144683837890625">
        <ele>408.399993896484375</ele>
        <time>2013-09-01T16:06:25.000Z</time>
        <extensions>
          <ns3:TrackPointExtension>
            <ns3:atemp>19.0</ns3:atemp>
          </ns3:TrackPointExtension>
        </extensions>
      </trkpt>
      <trkpt lat="46.7388152517378330230712890625" lon="6.8897245824337005615234375">
        <ele>408.79998779296875</ele>
        <time>2013-09-01T16:06:26.000Z</time>
        <extensions>
          <ns3:TrackPointExtension>
            <ns3:atemp>19.0</ns3:atemp>
          </ns3:TrackPointExtension>
        </extensions>
      </trkpt>
      <trkpt lat="46.7387937940657138824462890625" lon="6.88972919248044490814208984375">
        <ele>409</ele>
        <time>2013-09-01T16:06:27.000Z</time>
        <extensions>
          <ns3:TrackPointExtension>
            <ns3:atemp>19.0</ns3:atemp>
          </ns3:TrackPointExtension>
        </extensions>
      </trkpt>
      <trkpt lat="46.73877082765102386474609375" lon="6.88973371870815753936767578125">
        <ele>409.399993896484375</ele>
        <time>2013-09-01T16:06:28.000Z</time>
        <extensions>
          <ns3:TrackPointExtension>
            <ns3:atemp>19.0</ns3:atemp>
          </ns3:TrackPointExtension>
        </extensions>
      </trkpt>
      <trkpt lat="46.73874811269342899322509765625" lon="6.88974377699196338653564453125">
        <ele>409.600006103515625</ele>
        <time>2013-09-01T16:06:29.000Z</time>
        <extensions>
          <ns3:TrackPointExtension>
            <ns3:atemp>19.0</ns3:atemp>
          </ns3:TrackPointExtension>
        </extensions>
      </trkpt>
      <trkpt lat="46.73872548155486583709716796875" lon="6.889752410352230072021484375">
        <ele>409.79998779296875</ele>
        <time>2013-09-01T16:06:30.000Z</time>
        <extensions>
          <ns3:TrackPointExtension>
            <ns3:atemp>19.0</ns3:atemp>
          </ns3:TrackPointExtension>
        </extensions>
      </trkpt>
      <trkpt lat="46.7387046106159687042236328125" lon="6.88975207507610321044921875">
        <ele>410</ele>
        <time>2013-09-01T16:06:31.000Z</time>
        <extensions>
          <ns3:TrackPointExtension>
            <ns3:atemp>19.0</ns3:atemp>
          </ns3:TrackPointExtension>
        </extensions>
      </trkpt>
      <trkpt lat="46.73868206329643726348876953125" lon="6.88975215889513492584228515625">
        <ele>410.20001220703125</ele>
        <time>2013-09-01T16:06:32.000Z</time>
        <extensions>
          <ns3:TrackPointExtension>
            <ns3:atemp>19.0</ns3:atemp>
          </ns3:TrackPointExtension>
        </extensions>
      </trkpt>
      <trkpt lat="46.73866077326238155364990234375" lon="6.8897492252290248870849609375">
        <ele>410.600006103515625</ele>
        <time>2013-09-01T16:06:33.000Z</time>
        <extensions>
          <ns3:TrackPointExtension>
            <ns3:atemp>19.0</ns3:atemp>
          </ns3:TrackPointExtension>
        </extensions>
      </trkpt>
      <trkpt lat="46.7386382259428501129150390625" lon="6.88975132070481777191162109375">
        <ele>410.79998779296875</ele>
        <time>2013-09-01T16:06:34.000Z</time>
        <extensions>
          <ns3:TrackPointExtension>
            <ns3:atemp>19.0</ns3:atemp>
          </ns3:TrackPointExtension>
        </extensions>
      </trkpt>
      <trkpt lat="46.7386147566139698028564453125" lon="6.8897540867328643798828125">
        <ele>411</ele>
        <time>2013-09-01T16:06:35.000Z</time>
        <extensions>
          <ns3:TrackPointExtension>
            <ns3:atemp>19.0</ns3:atemp>
          </ns3:TrackPointExtension>
        </extensions>
      </trkpt>
      <trkpt lat="46.7385932989418506622314453125" lon="6.88976054079830646514892578125">
        <ele>411.399993896484375</ele>
        <time>2013-09-01T16:06:36.000Z</time>
        <extensions>
          <ns3:TrackPointExtension>
            <ns3:atemp>19.0</ns3:atemp>
          </ns3:TrackPointExtension>
        </extensions>
      </trkpt>
      <trkpt lat="46.738573014736175537109375" lon="6.8897680006921291351318359375">
        <ele>411.600006103515625</ele>
        <time>2013-09-01T16:06:37.000Z</time>
        <extensions>
          <ns3:TrackPointExtension>
            <ns3:atemp>19.0</ns3:atemp>
          </ns3:TrackPointExtension>
        </extensions>
      </trkpt>
      <trkpt lat="46.73855080269277095794677734375" lon="6.88977487385272979736328125">
        <ele>412</ele>
        <time>2013-09-01T16:06:38.000Z</time>
        <extensions>
          <ns3:TrackPointExtension>
            <ns3:atemp>19.0</ns3:atemp>
          </ns3:TrackPointExtension>
        </extensions>
      </trkpt>
      <trkpt lat="46.73853035084903240203857421875" lon="6.889781914651393890380859375">
        <ele>412.20001220703125</ele>
        <time>2013-09-01T16:06:39.000Z</time>
        <extensions>
          <ns3:TrackPointExtension>
            <ns3:atemp>19.0</ns3:atemp>
          </ns3:TrackPointExtension>
        </extensions>
      </trkpt>
      <trkpt lat="46.738510988652706146240234375" lon="6.8897914700210094451904296875">
        <ele>412.399993896484375</ele>
        <time>2013-09-01T16:06:40.000Z</time>
        <extensions>
          <ns3:TrackPointExtension>
            <ns3:atemp>19.0</ns3:atemp>
          </ns3:TrackPointExtension>
        </extensions>
      </trkpt>
      <trkpt lat="46.7384910397231578826904296875" lon="6.8897944875061511993408203125">
        <ele>412.79998779296875</ele>
        <time>2013-09-01T16:06:41.000Z</time>
        <extensions>
          <ns3:TrackPointExtension>
            <ns3:atemp>19.0</ns3:atemp>
          </ns3:TrackPointExtension>
        </extensions>
      </trkpt>
      <trkpt lat="46.738470084965229034423828125" lon="6.88980278559029102325439453125">
        <ele>413</ele>
        <time>2013-09-01T16:06:42.000Z</time>
        <extensions>
          <ns3:TrackPointExtension>
            <ns3:atemp>19.0</ns3:atemp>
          </ns3:TrackPointExtension>
        </extensions>
      </trkpt>
      <trkpt lat="46.73844586126506328582763671875" lon="6.88980680890381336212158203125">
        <ele>413.20001220703125</ele>
        <time>2013-09-01T16:06:43.000Z</time>
        <extensions>
          <ns3:TrackPointExtension>
            <ns3:atemp>19.0</ns3:atemp>
          </ns3:TrackPointExtension>
        </extensions>
      </trkpt>
      <trkpt lat="46.7384187877178192138671875" lon="6.88981384970247745513916015625">
        <ele>413.399993896484375</ele>
        <time>2013-09-01T16:06:44.000Z</time>
        <extensions>
          <ns3:TrackPointExtension>
            <ns3:atemp>19.0</ns3:atemp>
          </ns3:TrackPointExtension>
        </extensions>
      </trkpt>
      <trkpt lat="46.73839204944670200347900390625" lon="6.889822147786617279052734375">
        <ele>413.600006103515625</ele>
        <time>2013-09-01T16:06:45.000Z</time>
        <extensions>
          <ns3:TrackPointExtension>
            <ns3:atemp>19.0</ns3:atemp>
          </ns3:TrackPointExtension>
        </extensions>
      </trkpt>
      <trkpt lat="46.738368161022663116455078125" lon="6.88982675783336162567138671875">
        <ele>413.79998779296875</ele>
        <time>2013-09-01T16:06:46.000Z</time>
        <extensions>
          <ns3:TrackPointExtension>
            <ns3:atemp>19.0</ns3:atemp>
          </ns3:TrackPointExtension>
        </extensions>
      </trkpt>
      <trkpt lat="46.7383431829512119293212890625" lon="6.88982985913753509521484375">
        <ele>414.20001220703125</ele>
        <time>2013-09-01T16:06:47.000Z</time>
        <extensions>
          <ns3:TrackPointExtension>
            <ns3:atemp>19.0</ns3:atemp>
          </ns3:TrackPointExtension>
        </extensions>
      </trkpt>
      <trkpt lat="46.73832147382199764251708984375" lon="6.889830864965915679931640625">
        <ele>414.399993896484375</ele>
        <time>2013-09-01T16:06:48.000Z</time>
        <extensions>
          <ns3:TrackPointExtension>
            <ns3:atemp>19.0</ns3:atemp>
          </ns3:TrackPointExtension>
        </extensions>
      </trkpt>
      <trkpt lat="46.73829800449311733245849609375" lon="6.88983715139329433441162109375">
        <ele>414.79998779296875</ele>
        <time>2013-09-01T16:06:49.000Z</time>
        <extensions>
          <ns3:TrackPointExtension>
            <ns3:atemp>19.0</ns3:atemp>
          </ns3:TrackPointExtension>
        </extensions>
      </trkpt>
      <trkpt lat="46.73827218823134899139404296875" lon="6.8898461200296878814697265625">
        <ele>415.20001220703125</ele>
        <time>2013-09-01T16:06:50.000Z</time>
        <extensions>
          <ns3:TrackPointExtension>
            <ns3:atemp>19.0</ns3:atemp>
          </ns3:TrackPointExtension>
        </extensions>
      </trkpt>
      <trkpt lat="46.73824570141732692718505859375" lon="6.88984729349613189697265625">
        <ele>415.399993896484375</ele>
        <time>2013-09-01T16:06:51.000Z</time>
        <extensions>
          <ns3:TrackPointExtension>
            <ns3:atemp>19.0</ns3:atemp>
          </ns3:TrackPointExtension>
        </extensions>
      </trkpt>
      <trkpt lat="46.7382251657545566558837890625" lon="6.88985265791416168212890625">
        <ele>415.600006103515625</ele>
        <time>2013-09-01T16:06:52.000Z</time>
        <extensions>
          <ns3:TrackPointExtension>
            <ns3:atemp>19.0</ns3:atemp>
          </ns3:TrackPointExtension>
        </extensions>
      </trkpt>
      <trkpt lat="46.73820488154888153076171875" lon="6.889855004847049713134765625">
        <ele>415.79998779296875</ele>
        <time>2013-09-01T16:06:53.000Z</time>
        <extensions>
          <ns3:TrackPointExtension>
            <ns3:atemp>19.0</ns3:atemp>
          </ns3:TrackPointExtension>
        </extensions>
      </trkpt>
      <trkpt lat="46.73818334005773067474365234375" lon="6.8898568488657474517822265625">
        <ele>416.20001220703125</ele>
        <time>2013-09-01T16:06:54.000Z</time>
        <extensions>
          <ns3:TrackPointExtension>
            <ns3:atemp>19.0</ns3:atemp>
          </ns3:TrackPointExtension>
        </extensions>
      </trkpt>
      <trkpt lat="46.73816171474754810333251953125" lon="6.88985592685639858245849609375">
        <ele>416.399993896484375</ele>
        <time>2013-09-01T16:06:55.000Z</time>
        <extensions>
          <ns3:TrackPointExtension>
            <ns3:atemp>19.0</ns3:atemp>
          </ns3:TrackPointExtension>
        </extensions>
      </trkpt>
      <trkpt lat="46.7381443642079830169677734375" lon="6.88985760323703289031982421875">
        <ele>416.600006103515625</ele>
        <time>2013-09-01T16:06:56.000Z</time>
        <extensions>
          <ns3:TrackPointExtension>
            <ns3:atemp>19.0</ns3:atemp>
          </ns3:TrackPointExtension>
        </extensions>
      </trkpt>
      <trkpt lat="46.73813254572451114654541015625" lon="6.8898585252463817596435546875">
        <ele>416.79998779296875</ele>
        <time>2013-09-01T16:06:57.000Z</time>
        <extensions>
          <ns3:TrackPointExtension>
            <ns3:atemp>19.0</ns3:atemp>
          </ns3:TrackPointExtension>
        </extensions>
      </trkpt>
      <trkpt lat="46.7381158657371997833251953125" lon="6.8898632191121578216552734375">
        <ele>417</ele>
        <time>2013-09-01T16:06:58.000Z</time>
        <extensions>
          <ns3:TrackPointExtension>
            <ns3:atemp>19.0</ns3:atemp>
          </ns3:TrackPointExtension>
        </extensions>
      </trkpt>
      <trkpt lat="46.73809130676090717315673828125" lon="6.88986615277826786041259765625">
        <ele>417.20001220703125</ele>
        <time>2013-09-01T16:06:59.000Z</time>
        <extensions>
          <ns3:TrackPointExtension>
            <ns3:atemp>19.0</ns3:atemp>
          </ns3:TrackPointExtension>
        </extensions>
      </trkpt>
      <trkpt lat="46.738068759441375732421875" lon="6.8898667395114898681640625">
        <ele>417.399993896484375</ele>
        <time>2013-09-01T16:07:00.000Z</time>
        <extensions>
          <ns3:TrackPointExtension>
            <ns3:atemp>19.0</ns3:atemp>
          </ns3:TrackPointExtension>
        </extensions>
      </trkpt>
      <trkpt lat="46.738046295940876007080078125" lon="6.8898685835301876068115234375">
        <ele>417.79998779296875</ele>
        <time>2013-09-01T16:07:01.000Z</time>
        <extensions>
          <ns3:TrackPointExtension>
            <ns3:atemp>19.0</ns3:atemp>
          </ns3:TrackPointExtension>
        </extensions>
      </trkpt>
      <trkpt lat="46.738028861582279205322265625" lon="6.88987185247242450714111328125">
        <ele>418.20001220703125</ele>
        <time>2013-09-01T16:07:02.000Z</time>
        <extensions>
          <ns3:TrackPointExtension>
            <ns3:atemp>19.0</ns3:atemp>
          </ns3:TrackPointExtension>
        </extensions>
      </trkpt>
      <trkpt lat="46.738009415566921234130859375" lon="6.8898747861385345458984375">
        <ele>418.399993896484375</ele>
        <time>2013-09-01T16:07:03.000Z</time>
        <extensions>
          <ns3:TrackPointExtension>
            <ns3:atemp>19.0</ns3:atemp>
          </ns3:TrackPointExtension>
        </extensions>
      </trkpt>
      <trkpt lat="46.737993657588958740234375" lon="6.8898786418139934539794921875">
        <ele>418.600006103515625</ele>
        <time>2013-09-01T16:07:04.000Z</time>
        <extensions>
          <ns3:TrackPointExtension>
            <ns3:atemp>19.0</ns3:atemp>
          </ns3:TrackPointExtension>
        </extensions>
      </trkpt>
      <trkpt lat="46.73797530122101306915283203125" lon="6.88988056965172290802001953125">
        <ele>418.79998779296875</ele>
        <time>2013-09-01T16:07:05.000Z</time>
        <extensions>
          <ns3:TrackPointExtension>
            <ns3:atemp>19.0</ns3:atemp>
          </ns3:TrackPointExtension>
        </extensions>
      </trkpt>
      <trkpt lat="46.73795870505273342132568359375" lon="6.889877803623676300048828125">
        <ele>419.20001220703125</ele>
        <time>2013-09-01T16:07:06.000Z</time>
        <extensions>
          <ns3:TrackPointExtension>
            <ns3:atemp>19.0</ns3:atemp>
          </ns3:TrackPointExtension>
        </extensions>
      </trkpt>
      <trkpt lat="46.7379368282854557037353515625" lon="6.88987319357693195343017578125">
        <ele>419.399993896484375</ele>
        <time>2013-09-01T16:07:07.000Z</time>
        <extensions>
          <ns3:TrackPointExtension>
            <ns3:atemp>19.0</ns3:atemp>
          </ns3:TrackPointExtension>
        </extensions>
      </trkpt>
      <trkpt lat="46.73791176639497280120849609375" lon="6.88987813889980316162109375">
        <ele>419.79998779296875</ele>
        <time>2013-09-01T16:07:08.000Z</time>
        <extensions>
          <ns3:TrackPointExtension>
            <ns3:atemp>19.0</ns3:atemp>
          </ns3:TrackPointExtension>
        </extensions>
      </trkpt>
      <trkpt lat="46.73788477666676044464111328125" lon="6.889883168041706085205078125">
        <ele>419.79998779296875</ele>
        <time>2013-09-01T16:07:09.000Z</time>
        <extensions>
          <ns3:TrackPointExtension>
            <ns3:atemp>19.0</ns3:atemp>
          </ns3:TrackPointExtension>
        </extensions>
      </trkpt>
      <trkpt lat="46.7378597147762775421142578125" lon="6.8898883648216724395751953125">
        <ele>420</ele>
        <time>2013-09-01T16:07:10.000Z</time>
        <extensions>
          <ns3:TrackPointExtension>
            <ns3:atemp>19.0</ns3:atemp>
          </ns3:TrackPointExtension>
        </extensions>
      </trkpt>
      <trkpt lat="46.7378345690667629241943359375" lon="6.88989800401031970977783203125">
        <ele>420.20001220703125</ele>
        <time>2013-09-01T16:07:11.000Z</time>
        <extensions>
          <ns3:TrackPointExtension>
            <ns3:atemp>19.0</ns3:atemp>
          </ns3:TrackPointExtension>
        </extensions>
      </trkpt>
      <trkpt lat="46.73781001009047031402587890625" lon="6.88990454189479351043701171875">
        <ele>420.600006103515625</ele>
        <time>2013-09-01T16:07:12.000Z</time>
        <extensions>
          <ns3:TrackPointExtension>
            <ns3:atemp>19.0</ns3:atemp>
          </ns3:TrackPointExtension>
        </extensions>
      </trkpt>
      <trkpt lat="46.7377893067896366119384765625" lon="6.88991828821599483489990234375">
        <ele>421.20001220703125</ele>
        <time>2013-09-01T16:07:13.000Z</time>
        <extensions>
          <ns3:TrackPointExtension>
            <ns3:atemp>19.0</ns3:atemp>
          </ns3:TrackPointExtension>
        </extensions>
      </trkpt>
      <trkpt lat="46.73776458017528057098388671875" lon="6.8899296037852764129638671875">
        <ele>421.399993896484375</ele>
        <time>2013-09-01T16:07:14.000Z</time>
        <extensions>
          <ns3:TrackPointExtension>
            <ns3:atemp>19.0</ns3:atemp>
          </ns3:TrackPointExtension>
        </extensions>
      </trkpt>
      <trkpt lat="46.7377413623034954071044921875" lon="6.889934800565242767333984375">
        <ele>421.600006103515625</ele>
        <time>2013-09-01T16:07:15.000Z</time>
        <extensions>
          <ns3:TrackPointExtension>
            <ns3:atemp>19.0</ns3:atemp>
          </ns3:TrackPointExtension>
        </extensions>
      </trkpt>
      <trkpt lat="46.7377205751836299896240234375" lon="6.88993890769779682159423828125">
        <ele>421.79998779296875</ele>
        <time>2013-09-01T16:07:16.000Z</time>
        <extensions>
          <ns3:TrackPointExtension>
            <ns3:atemp>19.0</ns3:atemp>
          </ns3:TrackPointExtension>
        </extensions>
      </trkpt>
      <trkpt lat="46.737697608768939971923828125" lon="6.88994259573519229888916015625">
        <ele>422.20001220703125</ele>
        <time>2013-09-01T16:07:17.000Z</time>
        <extensions>
          <ns3:TrackPointExtension>
            <ns3:atemp>19.0</ns3:atemp>
          </ns3:TrackPointExtension>
        </extensions>
      </trkpt>
      <trkpt lat="46.7376773245632648468017578125" lon="6.8899477086961269378662109375">
        <ele>422.399993896484375</ele>
        <time>2013-09-01T16:07:18.000Z</time>
        <extensions>
          <ns3:TrackPointExtension>
            <ns3:atemp>19.0</ns3:atemp>
          </ns3:TrackPointExtension>
        </extensions>
      </trkpt>
      <trkpt lat="46.737658716738224029541015625" lon="6.88995617441833019256591796875">
        <ele>422.79998779296875</ele>
        <time>2013-09-01T16:07:19.000Z</time>
        <extensions>
          <ns3:TrackPointExtension>
            <ns3:atemp>19.0</ns3:atemp>
          </ns3:TrackPointExtension>
        </extensions>
      </trkpt>
      <trkpt lat="46.73763650469481945037841796875" lon="6.88996489159762859344482421875">
        <ele>423</ele>
        <time>2013-09-01T16:07:20.000Z</time>
        <extensions>
          <ns3:TrackPointExtension>
            <ns3:atemp>19.0</ns3:atemp>
          </ns3:TrackPointExtension>
        </extensions>
      </trkpt>
      <trkpt lat="46.73761756159365177154541015625" lon="6.88997411169111728668212890625">
        <ele>423.399993896484375</ele>
        <time>2013-09-01T16:07:21.000Z</time>
        <extensions>
          <ns3:TrackPointExtension>
            <ns3:atemp>19.0</ns3:atemp>
          </ns3:TrackPointExtension>
        </extensions>
      </trkpt>
      <trkpt lat="46.737599037587642669677734375" lon="6.88998416997492313385009765625">
        <ele>423.600006103515625</ele>
        <time>2013-09-01T16:07:22.000Z</time>
        <extensions>
          <ns3:TrackPointExtension>
            <ns3:atemp>19.0</ns3:atemp>
          </ns3:TrackPointExtension>
        </extensions>
      </trkpt>
      <trkpt lat="46.73758126795291900634765625" lon="6.88999339006841182708740234375">
        <ele>424</ele>
        <time>2013-09-01T16:07:23.000Z</time>
        <extensions>
          <ns3:TrackPointExtension>
            <ns3:atemp>18.0</ns3:atemp>
          </ns3:TrackPointExtension>
        </extensions>
      </trkpt>
      <trkpt lat="46.73756274394690990447998046875" lon="6.89000126905739307403564453125">
        <ele>424.20001220703125</ele>
        <time>2013-09-01T16:07:24.000Z</time>
        <extensions>
          <ns3:TrackPointExtension>
            <ns3:atemp>18.0</ns3:atemp>
          </ns3:TrackPointExtension>
        </extensions>
      </trkpt>
      <trkpt lat="46.73754103481769561767578125" lon="6.89000864513218402862548828125">
        <ele>424.600006103515625</ele>
        <time>2013-09-01T16:07:25.000Z</time>
        <extensions>
          <ns3:TrackPointExtension>
            <ns3:atemp>18.0</ns3:atemp>
          </ns3:TrackPointExtension>
        </extensions>
      </trkpt>
      <trkpt lat="46.7375197447836399078369140625" lon="6.89001493155956268310546875">
        <ele>424.79998779296875</ele>
        <time>2013-09-01T16:07:26.000Z</time>
        <extensions>
          <ns3:TrackPointExtension>
            <ns3:atemp>18.0</ns3:atemp>
          </ns3:TrackPointExtension>
        </extensions>
      </trkpt>
      <trkpt lat="46.7374982871115207672119140625" lon="6.89002775587141513824462890625">
        <ele>425</ele>
        <time>2013-09-01T16:07:27.000Z</time>
        <extensions>
          <ns3:TrackPointExtension>
            <ns3:atemp>18.0</ns3:atemp>
          </ns3:TrackPointExtension>
        </extensions>
      </trkpt>
      <trkpt lat="46.73747942782938480377197265625" lon="6.89004519023001194000244140625">
        <ele>425.600006103515625</ele>
        <time>2013-09-01T16:07:28.000Z</time>
        <extensions>
          <ns3:TrackPointExtension>
            <ns3:atemp>18.0</ns3:atemp>
          </ns3:TrackPointExtension>
        </extensions>
      </trkpt>
      <trkpt lat="46.737462915480136871337890625" lon="6.89006078056991100311279296875">
        <ele>425.79998779296875</ele>
        <time>2013-09-01T16:07:29.000Z</time>
        <extensions>
          <ns3:TrackPointExtension>
            <ns3:atemp>18.0</ns3:atemp>
          </ns3:TrackPointExtension>
        </extensions>
      </trkpt>
      <trkpt lat="46.73744925297796726226806640625" lon="6.89007217995822429656982421875">
        <ele>426.20001220703125</ele>
        <time>2013-09-01T16:07:30.000Z</time>
        <extensions>
          <ns3:TrackPointExtension>
            <ns3:atemp>18.0</ns3:atemp>
          </ns3:TrackPointExtension>
        </extensions>
      </trkpt>
      <trkpt lat="46.73743550665676593780517578125" lon="6.89008693210780620574951171875">
        <ele>426.399993896484375</ele>
        <time>2013-09-01T16:07:31.000Z</time>
        <extensions>
          <ns3:TrackPointExtension>
            <ns3:atemp>18.0</ns3:atemp>
          </ns3:TrackPointExtension>
        </extensions>
      </trkpt>
      <trkpt lat="46.7374208383262157440185546875" lon="6.89010436646640300750732421875">
        <ele>426.79998779296875</ele>
        <time>2013-09-01T16:07:32.000Z</time>
        <extensions>
          <ns3:TrackPointExtension>
            <ns3:atemp>18.0</ns3:atemp>
          </ns3:TrackPointExtension>
        </extensions>
      </trkpt>
      <trkpt lat="46.73741086386144161224365234375" lon="6.8901250697672367095947265625">
        <ele>427</ele>
        <time>2013-09-01T16:07:33.000Z</time>
        <extensions>
          <ns3:TrackPointExtension>
            <ns3:atemp>18.0</ns3:atemp>
          </ns3:TrackPointExtension>
        </extensions>
      </trkpt>
      <trkpt lat="46.73740231432020664215087890625" lon="6.89014946110546588897705078125">
        <ele>427.399993896484375</ele>
        <time>2013-09-01T16:07:34.000Z</time>
        <extensions>
          <ns3:TrackPointExtension>
            <ns3:atemp>18.0</ns3:atemp>
          </ns3:TrackPointExtension>
        </extensions>
      </trkpt>
      <trkpt lat="46.737393848598003387451171875" lon="6.890169493854045867919921875">
        <ele>427.600006103515625</ele>
        <time>2013-09-01T16:07:35.000Z</time>
        <extensions>
          <ns3:TrackPointExtension>
            <ns3:atemp>18.0</ns3:atemp>
          </ns3:TrackPointExtension>
        </extensions>
      </trkpt>
      <trkpt lat="46.73738337121903896331787109375" lon="6.89019187353551387786865234375">
        <ele>427.79998779296875</ele>
        <time>2013-09-01T16:07:36.000Z</time>
        <extensions>
          <ns3:TrackPointExtension>
            <ns3:atemp>18.0</ns3:atemp>
          </ns3:TrackPointExtension>
        </extensions>
      </trkpt>
      <trkpt lat="46.7373702116310596466064453125" lon="6.89021400175988674163818359375">
        <ele>428.600006103515625</ele>
        <time>2013-09-01T16:07:37.000Z</time>
        <extensions>
          <ns3:TrackPointExtension>
            <ns3:atemp>18.0</ns3:atemp>
          </ns3:TrackPointExtension>
        </extensions>
      </trkpt>
      <trkpt lat="46.73735772259533405303955078125" lon="6.890236549079418182373046875">
        <ele>428.79998779296875</ele>
        <time>2013-09-01T16:07:38.000Z</time>
        <extensions>
          <ns3:TrackPointExtension>
            <ns3:atemp>18.0</ns3:atemp>
          </ns3:TrackPointExtension>
        </extensions>
      </trkpt>
      <trkpt lat="46.73734900541603565216064453125" lon="6.89025809057056903839111328125">
        <ele>429.20001220703125</ele>
        <time>2013-09-01T16:07:39.000Z</time>
        <extensions>
          <ns3:TrackPointExtension>
            <ns3:atemp>18.0</ns3:atemp>
          </ns3:TrackPointExtension>
        </extensions>
      </trkpt>
      <trkpt lat="46.73733978532254695892333984375" lon="6.890281476080417633056640625">
        <ele>429.399993896484375</ele>
        <time>2013-09-01T16:07:40.000Z</time>
        <extensions>
          <ns3:TrackPointExtension>
            <ns3:atemp>18.0</ns3:atemp>
          </ns3:TrackPointExtension>
        </extensions>
      </trkpt>
      <trkpt lat="46.73733844421803951263427734375" lon="6.89030318520963191986083984375">
        <ele>429.600006103515625</ele>
        <time>2013-09-01T16:07:41.000Z</time>
        <extensions>
          <ns3:TrackPointExtension>
            <ns3:atemp>18.0</ns3:atemp>
          </ns3:TrackPointExtension>
        </extensions>
      </trkpt>
      <trkpt lat="46.73733492381870746612548828125" lon="6.8903302587568759918212890625">
        <ele>429.79998779296875</ele>
        <time>2013-09-01T16:07:42.000Z</time>
        <extensions>
          <ns3:TrackPointExtension>
            <ns3:atemp>18.0</ns3:atemp>
          </ns3:TrackPointExtension>
        </extensions>
      </trkpt>
      <trkpt lat="46.7373299784958362579345703125" lon="6.8903564102947711944580078125">
        <ele>430</ele>
        <time>2013-09-01T16:07:43.000Z</time>
        <extensions>
          <ns3:TrackPointExtension>
            <ns3:atemp>18.0</ns3:atemp>
          </ns3:TrackPointExtension>
        </extensions>
      </trkpt>
      <trkpt lat="46.73732268624007701873779296875" lon="6.89038733951747417449951171875">
        <ele>430.20001220703125</ele>
        <time>2013-09-01T16:07:44.000Z</time>
        <extensions>
          <ns3:TrackPointExtension>
            <ns3:atemp>18.0</ns3:atemp>
          </ns3:TrackPointExtension>
        </extensions>
      </trkpt>
      <trkpt lat="46.73731296323239803314208984375" lon="6.89041189849376678466796875">
        <ele>430.399993896484375</ele>
        <time>2013-09-01T16:07:45.000Z</time>
        <extensions>
          <ns3:TrackPointExtension>
            <ns3:atemp>18.0</ns3:atemp>
          </ns3:TrackPointExtension>
        </extensions>
      </trkpt>
      <trkpt lat="46.73730826936662197113037109375" lon="6.8904372118413448333740234375">
        <ele>430.79998779296875</ele>
        <time>2013-09-01T16:07:46.000Z</time>
        <extensions>
          <ns3:TrackPointExtension>
            <ns3:atemp>18.0</ns3:atemp>
          </ns3:TrackPointExtension>
        </extensions>
      </trkpt>
      <trkpt lat="46.7373034916818141937255859375" lon="6.8904653750360012054443359375">
        <ele>431.20001220703125</ele>
        <time>2013-09-01T16:07:47.000Z</time>
        <extensions>
          <ns3:TrackPointExtension>
            <ns3:atemp>18.0</ns3:atemp>
          </ns3:TrackPointExtension>
        </extensions>
      </trkpt>
      <trkpt lat="46.73730365931987762451171875" lon="6.89049311913549900054931640625">
        <ele>431.399993896484375</ele>
        <time>2013-09-01T16:07:48.000Z</time>
        <extensions>
          <ns3:TrackPointExtension>
            <ns3:atemp>18.0</ns3:atemp>
          </ns3:TrackPointExtension>
        </extensions>
      </trkpt>
      <trkpt lat="46.73729938454926013946533203125" lon="6.89051918685436248779296875">
        <ele>431.600006103515625</ele>
        <time>2013-09-01T16:07:49.000Z</time>
        <extensions>
          <ns3:TrackPointExtension>
            <ns3:atemp>18.0</ns3:atemp>
          </ns3:TrackPointExtension>
        </extensions>
      </trkpt>
      <trkpt lat="46.73729938454926013946533203125" lon="6.8905471824109554290771484375">
        <ele>432</ele>
        <time>2013-09-01T16:07:50.000Z</time>
        <extensions>
          <ns3:TrackPointExtension>
            <ns3:atemp>18.0</ns3:atemp>
          </ns3:TrackPointExtension>
        </extensions>
      </trkpt>
      <trkpt lat="46.73730055801570415496826171875" lon="6.89057148993015289306640625">
        <ele>432.20001220703125</ele>
        <time>2013-09-01T16:07:51.000Z</time>
        <extensions>
          <ns3:TrackPointExtension>
            <ns3:atemp>18.0</ns3:atemp>
          </ns3:TrackPointExtension>
        </extensions>
      </trkpt>
      <trkpt lat="46.7373024858534336090087890625" lon="6.890599317848682403564453125">
        <ele>432.399993896484375</ele>
        <time>2013-09-01T16:07:52.000Z</time>
        <extensions>
          <ns3:TrackPointExtension>
            <ns3:atemp>18.0</ns3:atemp>
          </ns3:TrackPointExtension>
        </extensions>
      </trkpt>
      <trkpt lat="46.737301982939243316650390625" lon="6.89062773250043392181396484375">
        <ele>432.600006103515625</ele>
        <time>2013-09-01T16:07:53.000Z</time>
        <extensions>
          <ns3:TrackPointExtension>
            <ns3:atemp>18.0</ns3:atemp>
          </ns3:TrackPointExtension>
        </extensions>
      </trkpt>
      <trkpt lat="46.73729695379734039306640625" lon="6.89065153710544109344482421875">
        <ele>433</ele>
        <time>2013-09-01T16:07:54.000Z</time>
        <extensions>
          <ns3:TrackPointExtension>
            <ns3:atemp>18.0</ns3:atemp>
          </ns3:TrackPointExtension>
        </extensions>
      </trkpt>
      <trkpt lat="46.737292595207691192626953125" lon="6.89067752100527286529541015625">
        <ele>433.399993896484375</ele>
        <time>2013-09-01T16:07:55.000Z</time>
        <extensions>
          <ns3:TrackPointExtension>
            <ns3:atemp>18.0</ns3:atemp>
          </ns3:TrackPointExtension>
        </extensions>
      </trkpt>
      <trkpt lat="46.73729133792221546173095703125" lon="6.89070291817188262939453125">
        <ele>433.600006103515625</ele>
        <time>2013-09-01T16:07:56.000Z</time>
        <extensions>
          <ns3:TrackPointExtension>
            <ns3:atemp>18.0</ns3:atemp>
          </ns3:TrackPointExtension>
        </extensions>
      </trkpt>
      <trkpt lat="46.7372934333980083465576171875" lon="6.8907275609672069549560546875">
        <ele>434</ele>
        <time>2013-09-01T16:07:57.000Z</time>
        <extensions>
          <ns3:TrackPointExtension>
            <ns3:atemp>18.0</ns3:atemp>
          </ns3:TrackPointExtension>
        </extensions>
      </trkpt>
      <trkpt lat="46.737295277416706085205078125" lon="6.8907597474753856658935546875">
        <ele>434</ele>
        <time>2013-09-01T16:07:58.000Z</time>
        <extensions>
          <ns3:TrackPointExtension>
            <ns3:atemp>18.0</ns3:atemp>
          </ns3:TrackPointExtension>
        </extensions>
      </trkpt>
      <trkpt lat="46.7372974567115306854248046875" lon="6.8907838873565196990966796875">
        <ele>434.399993896484375</ele>
        <time>2013-09-01T16:07:59.000Z</time>
        <extensions>
          <ns3:TrackPointExtension>
            <ns3:atemp>18.0</ns3:atemp>
          </ns3:TrackPointExtension>
        </extensions>
      </trkpt>
      <trkpt lat="46.73729921691119670867919921875" lon="6.89081154763698577880859375">
        <ele>434.600006103515625</ele>
        <time>2013-09-01T16:08:00.000Z</time>
        <extensions>
          <ns3:TrackPointExtension>
            <ns3:atemp>18.0</ns3:atemp>
          </ns3:TrackPointExtension>
        </extensions>
      </trkpt>
      <trkpt lat="46.73729695379734039306640625" lon="6.89083694480359554290771484375">
        <ele>435.20001220703125</ele>
        <time>2013-09-01T16:08:01.000Z</time>
        <extensions>
          <ns3:TrackPointExtension>
            <ns3:atemp>18.0</ns3:atemp>
          </ns3:TrackPointExtension>
        </extensions>
      </trkpt>
      <trkpt lat="46.7372991330921649932861328125" lon="6.89086385071277618408203125">
        <ele>435.600006103515625</ele>
        <time>2013-09-01T16:08:02.000Z</time>
        <extensions>
          <ns3:TrackPointExtension>
            <ns3:atemp>18.0</ns3:atemp>
          </ns3:TrackPointExtension>
        </extensions>
      </trkpt>
      <trkpt lat="46.73730231821537017822265625" lon="6.8908905051648616790771484375">
        <ele>435.79998779296875</ele>
        <time>2013-09-01T16:08:03.000Z</time>
        <extensions>
          <ns3:TrackPointExtension>
            <ns3:atemp>18.0</ns3:atemp>
          </ns3:TrackPointExtension>
        </extensions>
      </trkpt>
      <trkpt lat="46.73730625770986080169677734375" lon="6.890918500721454620361328125">
        <ele>436</ele>
        <time>2013-09-01T16:08:04.000Z</time>
        <extensions>
          <ns3:TrackPointExtension>
            <ns3:atemp>18.0</ns3:atemp>
          </ns3:TrackPointExtension>
        </extensions>
      </trkpt>
      <trkpt lat="46.7373083531856536865234375" lon="6.890947334468364715576171875">
        <ele>436.399993896484375</ele>
        <time>2013-09-01T16:08:05.000Z</time>
        <extensions>
          <ns3:TrackPointExtension>
            <ns3:atemp>18.0</ns3:atemp>
          </ns3:TrackPointExtension>
        </extensions>
      </trkpt>
      <trkpt lat="46.737306006252765655517578125" lon="6.89097926951944828033447265625">
        <ele>436.600006103515625</ele>
        <time>2013-09-01T16:08:06.000Z</time>
        <extensions>
          <ns3:TrackPointExtension>
            <ns3:atemp>18.0</ns3:atemp>
          </ns3:TrackPointExtension>
        </extensions>
      </trkpt>
      <trkpt lat="46.73730307258665561676025390625" lon="6.8910115398466587066650390625">
        <ele>436.79998779296875</ele>
        <time>2013-09-01T16:08:07.000Z</time>
        <extensions>
          <ns3:TrackPointExtension>
            <ns3:atemp>18.0</ns3:atemp>
          </ns3:TrackPointExtension>
        </extensions>
      </trkpt>
      <trkpt lat="46.73730206675827503204345703125" lon="6.891040541231632232666015625">
        <ele>437.20001220703125</ele>
        <time>2013-09-01T16:08:08.000Z</time>
        <extensions>
          <ns3:TrackPointExtension>
            <ns3:atemp>18.0</ns3:atemp>
          </ns3:TrackPointExtension>
        </extensions>
      </trkpt>
      <trkpt lat="46.7373038269579410552978515625" lon="6.8910675309598445892333984375">
        <ele>437.399993896484375</ele>
        <time>2013-09-01T16:08:09.000Z</time>
        <extensions>
          <ns3:TrackPointExtension>
            <ns3:atemp>18.0</ns3:atemp>
          </ns3:TrackPointExtension>
        </extensions>
      </trkpt>
      <trkpt lat="46.73729971982538700103759765625" lon="6.89109108410775661468505859375">
        <ele>437.79998779296875</ele>
        <time>2013-09-01T16:08:10.000Z</time>
        <extensions>
          <ns3:TrackPointExtension>
            <ns3:atemp>18.0</ns3:atemp>
          </ns3:TrackPointExtension>
        </extensions>
      </trkpt>
      <trkpt lat="46.73730106092989444732666015625" lon="6.891116984188556671142578125">
        <ele>438</ele>
        <time>2013-09-01T16:08:11.000Z</time>
        <extensions>
          <ns3:TrackPointExtension>
            <ns3:atemp>18.0</ns3:atemp>
          </ns3:TrackPointExtension>
        </extensions>
      </trkpt>
      <trkpt lat="46.7373034916818141937255859375" lon="6.89114204607903957366943359375">
        <ele>438.20001220703125</ele>
        <time>2013-09-01T16:08:12.000Z</time>
        <extensions>
          <ns3:TrackPointExtension>
            <ns3:atemp>18.0</ns3:atemp>
          </ns3:TrackPointExtension>
        </extensions>
      </trkpt>
      <trkpt lat="46.7373058386147022247314453125" lon="6.8911671079695224761962890625">
        <ele>438.399993896484375</ele>
        <time>2013-09-01T16:08:13.000Z</time>
        <extensions>
          <ns3:TrackPointExtension>
            <ns3:atemp>18.0</ns3:atemp>
          </ns3:TrackPointExtension>
        </extensions>
      </trkpt>
      <trkpt lat="46.73730424605309963226318359375" lon="6.8911939300596714019775390625">
        <ele>438.79998779296875</ele>
        <time>2013-09-01T16:08:14.000Z</time>
        <extensions>
          <ns3:TrackPointExtension>
            <ns3:atemp>18.0</ns3:atemp>
          </ns3:TrackPointExtension>
        </extensions>
      </trkpt>
      <trkpt lat="46.7373048327863216400146484375" lon="6.891214214265346527099609375">
        <ele>439</ele>
        <time>2013-09-01T16:08:15.000Z</time>
        <extensions>
          <ns3:TrackPointExtension>
            <ns3:atemp>18.0</ns3:atemp>
          </ns3:TrackPointExtension>
        </extensions>
      </trkpt>
      <trkpt lat="46.7373029887676239013671875" lon="6.89124212600290775299072265625">
        <ele>439.20001220703125</ele>
        <time>2013-09-01T16:08:16.000Z</time>
        <extensions>
          <ns3:TrackPointExtension>
            <ns3:atemp>18.0</ns3:atemp>
          </ns3:TrackPointExtension>
        </extensions>
      </trkpt>
      <trkpt lat="46.7373101972043514251708984375" lon="6.8912653438746929168701171875">
        <ele>439.600006103515625</ele>
        <time>2013-09-01T16:08:17.000Z</time>
        <extensions>
          <ns3:TrackPointExtension>
            <ns3:atemp>18.0</ns3:atemp>
          </ns3:TrackPointExtension>
        </extensions>
      </trkpt>
      <trkpt lat="46.7373162321746349334716796875" lon="6.8912891484797000885009765625">
        <ele>439.79998779296875</ele>
        <time>2013-09-01T16:08:18.000Z</time>
        <extensions>
          <ns3:TrackPointExtension>
            <ns3:atemp>18.0</ns3:atemp>
          </ns3:TrackPointExtension>
        </extensions>
      </trkpt>
      <trkpt lat="46.73731975257396697998046875" lon="6.89131555147469043731689453125">
        <ele>440</ele>
        <time>2013-09-01T16:08:19.000Z</time>
        <extensions>
          <ns3:TrackPointExtension>
            <ns3:atemp>18.0</ns3:atemp>
          </ns3:TrackPointExtension>
        </extensions>
      </trkpt>
      <trkpt lat="46.73732084222137928009033203125" lon="6.891338266432285308837890625">
        <ele>440.399993896484375</ele>
        <time>2013-09-01T16:08:20.000Z</time>
        <extensions>
          <ns3:TrackPointExtension>
            <ns3:atemp>18.0</ns3:atemp>
          </ns3:TrackPointExtension>
        </extensions>
      </trkpt>
      <trkpt lat="46.73731933347880840301513671875" lon="6.89136383123695850372314453125">
        <ele>440.399993896484375</ele>
        <time>2013-09-01T16:08:21.000Z</time>
        <extensions>
          <ns3:TrackPointExtension>
            <ns3:atemp>18.0</ns3:atemp>
          </ns3:TrackPointExtension>
        </extensions>
      </trkpt>
      <trkpt lat="46.73731631599366664886474609375" lon="6.89139425754547119140625">
        <ele>440.79998779296875</ele>
        <time>2013-09-01T16:08:22.000Z</time>
        <extensions>
          <ns3:TrackPointExtension>
            <ns3:atemp>18.0</ns3:atemp>
          </ns3:TrackPointExtension>
        </extensions>
      </trkpt>
      <trkpt lat="46.73731715418398380279541015625" lon="6.89142300747334957122802734375">
        <ele>441</ele>
        <time>2013-09-01T16:08:23.000Z</time>
        <extensions>
          <ns3:TrackPointExtension>
            <ns3:atemp>18.0</ns3:atemp>
          </ns3:TrackPointExtension>
        </extensions>
      </trkpt>
      <trkpt lat="46.73732017166912555694580078125" lon="6.891454942524433135986328125">
        <ele>441.20001220703125</ele>
        <time>2013-09-01T16:08:24.000Z</time>
        <extensions>
          <ns3:TrackPointExtension>
            <ns3:atemp>18.0</ns3:atemp>
          </ns3:TrackPointExtension>
        </extensions>
      </trkpt>
      <trkpt lat="46.737324111163616180419921875" lon="6.89148184843361377716064453125">
        <ele>441.600006103515625</ele>
        <time>2013-09-01T16:08:25.000Z</time>
        <extensions>
          <ns3:TrackPointExtension>
            <ns3:atemp>18.0</ns3:atemp>
          </ns3:TrackPointExtension>
        </extensions>
      </trkpt>
      <trkpt lat="46.73732620663940906524658203125" lon="6.89151235856115818023681640625">
        <ele>442</ele>
        <time>2013-09-01T16:08:26.000Z</time>
        <extensions>
          <ns3:TrackPointExtension>
            <ns3:atemp>18.0</ns3:atemp>
          </ns3:TrackPointExtension>
        </extensions>
      </trkpt>
      <trkpt lat="46.73732511699199676513671875" lon="6.8915506638586521148681640625">
        <ele>442.20001220703125</ele>
        <time>2013-09-01T16:08:27.000Z</time>
        <extensions>
          <ns3:TrackPointExtension>
            <ns3:atemp>18.0</ns3:atemp>
          </ns3:TrackPointExtension>
        </extensions>
      </trkpt>
      <trkpt lat="46.73732369206845760345458984375" lon="6.8915860354900360107421875">
        <ele>442.600006103515625</ele>
        <time>2013-09-01T16:08:28.000Z</time>
        <extensions>
          <ns3:TrackPointExtension>
            <ns3:atemp>18.0</ns3:atemp>
          </ns3:TrackPointExtension>
        </extensions>
      </trkpt>
      <trkpt lat="46.7373239435255527496337890625" lon="6.89161998219788074493408203125">
        <ele>442.79998779296875</ele>
        <time>2013-09-01T16:08:29.000Z</time>
        <extensions>
          <ns3:TrackPointExtension>
            <ns3:atemp>18.0</ns3:atemp>
          </ns3:TrackPointExtension>
        </extensions>
      </trkpt>
      <trkpt lat="46.73732805065810680389404296875" lon="6.89165468327701091766357421875">
        <ele>443</ele>
        <time>2013-09-01T16:08:30.000Z</time>
        <extensions>
          <ns3:TrackPointExtension>
            <ns3:atemp>18.0</ns3:atemp>
          </ns3:TrackPointExtension>
        </extensions>
      </trkpt>
      <trkpt lat="46.7373306490480899810791015625" lon="6.89168862998485565185546875">
        <ele>443.399993896484375</ele>
        <time>2013-09-01T16:08:31.000Z</time>
        <extensions>
          <ns3:TrackPointExtension>
            <ns3:atemp>18.0</ns3:atemp>
          </ns3:TrackPointExtension>
        </extensions>
      </trkpt>
      <trkpt lat="46.73733877949416637420654296875" lon="6.89171922393143177032470703125">
        <ele>443.79998779296875</ele>
        <time>2013-09-01T16:08:32.000Z</time>
        <extensions>
          <ns3:TrackPointExtension>
            <ns3:atemp>18.0</ns3:atemp>
          </ns3:TrackPointExtension>
        </extensions>
      </trkpt>
      <trkpt lat="46.737343557178974151611328125" lon="6.89175426028668880462646484375">
        <ele>444</ele>
        <time>2013-09-01T16:08:33.000Z</time>
        <extensions>
          <ns3:TrackPointExtension>
            <ns3:atemp>18.0</ns3:atemp>
          </ns3:TrackPointExtension>
        </extensions>
      </trkpt>
      <trkpt lat="46.73734565265476703643798828125" lon="6.8917850218713283538818359375">
        <ele>444.20001220703125</ele>
        <time>2013-09-01T16:08:34.000Z</time>
        <extensions>
          <ns3:TrackPointExtension>
            <ns3:atemp>18.0</ns3:atemp>
          </ns3:TrackPointExtension>
        </extensions>
      </trkpt>
      <trkpt lat="46.73734833486378192901611328125" lon="6.891815029084682464599609375">
        <ele>444.399993896484375</ele>
        <time>2013-09-01T16:08:35.000Z</time>
        <extensions>
          <ns3:TrackPointExtension>
            <ns3:atemp>18.0</ns3:atemp>
          </ns3:TrackPointExtension>
        </extensions>
      </trkpt>
      <trkpt lat="46.7373527772724628448486328125" lon="6.8918426893651485443115234375">
        <ele>444.600006103515625</ele>
        <time>2013-09-01T16:08:36.000Z</time>
        <extensions>
          <ns3:TrackPointExtension>
            <ns3:atemp>18.0</ns3:atemp>
          </ns3:TrackPointExtension>
        </extensions>
      </trkpt>
      <trkpt lat="46.7373517714440822601318359375" lon="6.89186758361756801605224609375">
        <ele>445</ele>
        <time>2013-09-01T16:08:37.000Z</time>
        <extensions>
          <ns3:TrackPointExtension>
            <ns3:atemp>18.0</ns3:atemp>
          </ns3:TrackPointExtension>
        </extensions>
      </trkpt>
      <trkpt lat="46.7373527772724628448486328125" lon="6.8918976746499538421630859375">
        <ele>445.20001220703125</ele>
        <time>2013-09-01T16:08:38.000Z</time>
        <extensions>
          <ns3:TrackPointExtension>
            <ns3:atemp>18.0</ns3:atemp>
          </ns3:TrackPointExtension>
        </extensions>
      </trkpt>
      <trkpt lat="46.7373526096343994140625" lon="6.891931034624576568603515625">
        <ele>445.600006103515625</ele>
        <time>2013-09-01T16:08:39.000Z</time>
        <extensions>
          <ns3:TrackPointExtension>
            <ns3:atemp>18.0</ns3:atemp>
          </ns3:TrackPointExtension>
        </extensions>
      </trkpt>
      <trkpt lat="46.73735328018665313720703125" lon="6.8919597007334232330322265625">
        <ele>445.79998779296875</ele>
        <time>2013-09-01T16:08:40.000Z</time>
        <extensions>
          <ns3:TrackPointExtension>
            <ns3:atemp>18.0</ns3:atemp>
          </ns3:TrackPointExtension>
        </extensions>
      </trkpt>
      <trkpt lat="46.7373514361679553985595703125" lon="6.89199062995612621307373046875">
        <ele>446.20001220703125</ele>
        <time>2013-09-01T16:08:41.000Z</time>
        <extensions>
          <ns3:TrackPointExtension>
            <ns3:atemp>18.0</ns3:atemp>
          </ns3:TrackPointExtension>
        </extensions>
      </trkpt>
      <trkpt lat="46.737345568835735321044921875" lon="6.8920210562646389007568359375">
        <ele>446.399993896484375</ele>
        <time>2013-09-01T16:08:42.000Z</time>
        <extensions>
          <ns3:TrackPointExtension>
            <ns3:atemp>18.0</ns3:atemp>
          </ns3:TrackPointExtension>
        </extensions>
      </trkpt>
      <trkpt lat="46.73734246753156185150146484375" lon="6.89205030910670757293701171875">
        <ele>446.600006103515625</ele>
        <time>2013-09-01T16:08:43.000Z</time>
        <extensions>
          <ns3:TrackPointExtension>
            <ns3:atemp>18.0</ns3:atemp>
          </ns3:TrackPointExtension>
        </extensions>
      </trkpt>
      <trkpt lat="46.73733576200902462005615234375" lon="6.89208157360553741455078125">
        <ele>447</ele>
        <time>2013-09-01T16:08:44.000Z</time>
        <extensions>
          <ns3:TrackPointExtension>
            <ns3:atemp>18.0</ns3:atemp>
          </ns3:TrackPointExtension>
        </extensions>
      </trkpt>
      <trkpt lat="46.7373311519622802734375" lon="6.89211132936179637908935546875">
        <ele>447.20001220703125</ele>
        <time>2013-09-01T16:08:45.000Z</time>
        <extensions>
          <ns3:TrackPointExtension>
            <ns3:atemp>18.0</ns3:atemp>
          </ns3:TrackPointExtension>
        </extensions>
      </trkpt>
      <trkpt lat="46.73732469789683818817138671875" lon="6.89214200712740421295166015625">
        <ele>447.600006103515625</ele>
        <time>2013-09-01T16:08:46.000Z</time>
        <extensions>
          <ns3:TrackPointExtension>
            <ns3:atemp>18.0</ns3:atemp>
          </ns3:TrackPointExtension>
        </extensions>
      </trkpt>
      <trkpt lat="46.73731916584074497222900390625" lon="6.89217536710202693939208984375">
        <ele>447.79998779296875</ele>
        <time>2013-09-01T16:08:47.000Z</time>
        <extensions>
          <ns3:TrackPointExtension>
            <ns3:atemp>18.0</ns3:atemp>
          </ns3:TrackPointExtension>
        </extensions>
      </trkpt>
      <trkpt lat="46.737314723432064056396484375" lon="6.892204619944095611572265625">
        <ele>448</ele>
        <time>2013-09-01T16:08:48.000Z</time>
        <extensions>
          <ns3:TrackPointExtension>
            <ns3:atemp>18.0</ns3:atemp>
          </ns3:TrackPointExtension>
        </extensions>
      </trkpt>
      <trkpt lat="46.73731346614658832550048828125" lon="6.8922329507768154144287109375">
        <ele>448.399993896484375</ele>
        <time>2013-09-01T16:08:49.000Z</time>
        <extensions>
          <ns3:TrackPointExtension>
            <ns3:atemp>18.0</ns3:atemp>
          </ns3:TrackPointExtension>
        </extensions>
      </trkpt>
      <trkpt lat="46.737310029566287994384765625" lon="6.89226035960018634796142578125">
        <ele>448.79998779296875</ele>
        <time>2013-09-01T16:08:50.000Z</time>
        <extensions>
          <ns3:TrackPointExtension>
            <ns3:atemp>18.0</ns3:atemp>
          </ns3:TrackPointExtension>
        </extensions>
      </trkpt>
      <trkpt lat="46.73730541951954364776611328125" lon="6.892291791737079620361328125">
        <ele>449</ele>
        <time>2013-09-01T16:08:51.000Z</time>
        <extensions>
          <ns3:TrackPointExtension>
            <ns3:atemp>18.0</ns3:atemp>
          </ns3:TrackPointExtension>
        </extensions>
      </trkpt>
      <trkpt lat="46.73729770816862583160400390625" lon="6.89231836237013339996337890625">
        <ele>449.399993896484375</ele>
        <time>2013-09-01T16:08:52.000Z</time>
        <extensions>
          <ns3:TrackPointExtension>
            <ns3:atemp>18.0</ns3:atemp>
          </ns3:TrackPointExtension>
        </extensions>
      </trkpt>
      <trkpt lat="46.73728966154158115386962890625" lon="6.89234233461320400238037109375">
        <ele>449.600006103515625</ele>
        <time>2013-09-01T16:08:53.000Z</time>
        <extensions>
          <ns3:TrackPointExtension>
            <ns3:atemp>18.0</ns3:atemp>
          </ns3:TrackPointExtension>
        </extensions>
      </trkpt>
      <trkpt lat="46.737280525267124176025390625" lon="6.89236379228532314300537109375">
        <ele>450</ele>
        <time>2013-09-01T16:08:54.000Z</time>
        <extensions>
          <ns3:TrackPointExtension>
            <ns3:atemp>18.0</ns3:atemp>
          </ns3:TrackPointExtension>
        </extensions>
      </trkpt>
      <trkpt lat="46.7372716404497623443603515625" lon="6.89238944090902805328369140625">
        <ele>450.20001220703125</ele>
        <time>2013-09-01T16:08:55.000Z</time>
        <extensions>
          <ns3:TrackPointExtension>
            <ns3:atemp>18.0</ns3:atemp>
          </ns3:TrackPointExtension>
        </extensions>
      </trkpt>
      <trkpt lat="46.73726568929851055145263671875" lon="6.89241508953273296356201171875">
        <ele>450.399993896484375</ele>
        <time>2013-09-01T16:08:56.000Z</time>
        <extensions>
          <ns3:TrackPointExtension>
            <ns3:atemp>18.0</ns3:atemp>
          </ns3:TrackPointExtension>
        </extensions>
      </trkpt>
      <trkpt lat="46.7372600734233856201171875" lon="6.89244425855576992034912109375">
        <ele>450.79998779296875</ele>
        <time>2013-09-01T16:08:57.000Z</time>
        <extensions>
          <ns3:TrackPointExtension>
            <ns3:atemp>18.0</ns3:atemp>
          </ns3:TrackPointExtension>
        </extensions>
      </trkpt>
      <trkpt lat="46.737246997654438018798828125" lon="6.89247258938848972320556640625">
        <ele>451</ele>
        <time>2013-09-01T16:08:58.000Z</time>
        <extensions>
          <ns3:TrackPointExtension>
            <ns3:atemp>18.0</ns3:atemp>
          </ns3:TrackPointExtension>
        </extensions>
      </trkpt>
      <trkpt lat="46.73723199404776096343994140625" lon="6.89250460825860500335693359375">
        <ele>451.399993896484375</ele>
        <time>2013-09-01T16:08:59.000Z</time>
        <extensions>
          <ns3:TrackPointExtension>
            <ns3:atemp>18.0</ns3:atemp>
          </ns3:TrackPointExtension>
        </extensions>
      </trkpt>
      <trkpt lat="46.7372213490307331085205078125" lon="6.89253981225192546844482421875">
        <ele>451.600006103515625</ele>
        <time>2013-09-01T16:09:00.000Z</time>
        <extensions>
          <ns3:TrackPointExtension>
            <ns3:atemp>18.0</ns3:atemp>
          </ns3:TrackPointExtension>
        </extensions>
      </trkpt>
      <trkpt lat="46.73721489496529102325439453125" lon="6.89256462268531322479248046875">
        <ele>451.79998779296875</ele>
        <time>2013-09-01T16:09:01.000Z</time>
        <extensions>
          <ns3:TrackPointExtension>
            <ns3:atemp>18.0</ns3:atemp>
          </ns3:TrackPointExtension>
        </extensions>
      </trkpt>
      <trkpt lat="46.73721036873757839202880859375" lon="6.892591528594493865966796875">
        <ele>452</ele>
        <time>2013-09-01T16:09:02.000Z</time>
        <extensions>
          <ns3:TrackPointExtension>
            <ns3:atemp>18.0</ns3:atemp>
          </ns3:TrackPointExtension>
        </extensions>
      </trkpt>
      <trkpt lat="46.73719712533056735992431640625" lon="6.89261659048497676849365234375">
        <ele>452.399993896484375</ele>
        <time>2013-09-01T16:09:03.000Z</time>
        <extensions>
          <ns3:TrackPointExtension>
            <ns3:atemp>18.0</ns3:atemp>
          </ns3:TrackPointExtension>
        </extensions>
      </trkpt>
      <trkpt lat="46.73718069680035114288330078125" lon="6.8926401436328887939453125">
        <ele>452.600006103515625</ele>
        <time>2013-09-01T16:09:04.000Z</time>
        <extensions>
          <ns3:TrackPointExtension>
            <ns3:atemp>18.0</ns3:atemp>
          </ns3:TrackPointExtension>
        </extensions>
      </trkpt>
      <trkpt lat="46.73717047087848186492919921875" lon="6.89266788773238658905029296875">
        <ele>452.79998779296875</ele>
        <time>2013-09-01T16:09:05.000Z</time>
        <extensions>
          <ns3:TrackPointExtension>
            <ns3:atemp>18.0</ns3:atemp>
          </ns3:TrackPointExtension>
        </extensions>
      </trkpt>
      <trkpt lat="46.7371730692684650421142578125" lon="6.89270116388797760009765625">
        <ele>453</ele>
        <time>2013-09-01T16:09:06.000Z</time>
        <extensions>
          <ns3:TrackPointExtension>
            <ns3:atemp>18.0</ns3:atemp>
          </ns3:TrackPointExtension>
        </extensions>
      </trkpt>
      <trkpt lat="46.7371784336864948272705078125" lon="6.8927294947206974029541015625">
        <ele>453.399993896484375</ele>
        <time>2013-09-01T16:09:07.000Z</time>
        <extensions>
          <ns3:TrackPointExtension>
            <ns3:atemp>18.0</ns3:atemp>
          </ns3:TrackPointExtension>
        </extensions>
      </trkpt>
      <trkpt lat="46.7371891625225543975830078125" lon="6.8927576579153537750244140625">
        <ele>453.600006103515625</ele>
        <time>2013-09-01T16:09:08.000Z</time>
        <extensions>
          <ns3:TrackPointExtension>
            <ns3:atemp>18.0</ns3:atemp>
          </ns3:TrackPointExtension>
        </extensions>
      </trkpt>
      <trkpt lat="46.737205088138580322265625" lon="6.8927754275500774383544921875">
        <ele>453.79998779296875</ele>
        <time>2013-09-01T16:09:09.000Z</time>
        <extensions>
          <ns3:TrackPointExtension>
            <ns3:atemp>18.0</ns3:atemp>
          </ns3:TrackPointExtension>
        </extensions>
      </trkpt>
      <trkpt lat="46.7372250370681285858154296875" lon="6.89278297126293182373046875">
        <ele>454</ele>
        <time>2013-09-01T16:09:10.000Z</time>
        <extensions>
          <ns3:TrackPointExtension>
            <ns3:atemp>18.0</ns3:atemp>
          </ns3:TrackPointExtension>
        </extensions>
      </trkpt>
      <trkpt lat="46.73724574036896228790283203125" lon="6.8927667103707790374755859375">
        <ele>454.20001220703125</ele>
        <time>2013-09-01T16:09:11.000Z</time>
        <extensions>
          <ns3:TrackPointExtension>
            <ns3:atemp>18.0</ns3:atemp>
          </ns3:TrackPointExtension>
        </extensions>
      </trkpt>
      <trkpt lat="46.73726887442171573638916015625" lon="6.89275522716343402862548828125">
        <ele>454.600006103515625</ele>
        <time>2013-09-01T16:09:12.000Z</time>
        <extensions>
          <ns3:TrackPointExtension>
            <ns3:atemp>18.0</ns3:atemp>
          </ns3:TrackPointExtension>
        </extensions>
      </trkpt>
      <trkpt lat="46.7372894100844860076904296875" lon="6.892737708985805511474609375">
        <ele>455.20001220703125</ele>
        <time>2013-09-01T16:09:13.000Z</time>
        <extensions>
          <ns3:TrackPointExtension>
            <ns3:atemp>18.0</ns3:atemp>
          </ns3:TrackPointExtension>
        </extensions>
      </trkpt>
      <trkpt lat="46.7373095266520977020263671875" lon="6.8927152454853057861328125">
        <ele>455.600006103515625</ele>
        <time>2013-09-01T16:09:14.000Z</time>
        <extensions>
          <ns3:TrackPointExtension>
            <ns3:atemp>18.0</ns3:atemp>
          </ns3:TrackPointExtension>
        </extensions>
      </trkpt>
      <trkpt lat="46.73732855357229709625244140625" lon="6.89269135706126689910888671875">
        <ele>455.600006103515625</ele>
        <time>2013-09-01T16:09:15.000Z</time>
        <extensions>
          <ns3:TrackPointExtension>
            <ns3:atemp>18.0</ns3:atemp>
          </ns3:TrackPointExtension>
        </extensions>
      </trkpt>
      <trkpt lat="46.73734917305409908294677734375" lon="6.89266403205692768096923828125">
        <ele>455.600006103515625</ele>
        <time>2013-09-01T16:09:16.000Z</time>
        <extensions>
          <ns3:TrackPointExtension>
            <ns3:atemp>18.0</ns3:atemp>
          </ns3:TrackPointExtension>
        </extensions>
      </trkpt>
      <trkpt lat="46.73737029545009136199951171875" lon="6.8926369585096836090087890625">
        <ele>455.79998779296875</ele>
        <time>2013-09-01T16:09:17.000Z</time>
        <extensions>
          <ns3:TrackPointExtension>
            <ns3:atemp>18.0</ns3:atemp>
          </ns3:TrackPointExtension>
        </extensions>
      </trkpt>
      <trkpt lat="46.737392507493495941162109375" lon="6.89261122606694698333740234375">
        <ele>456</ele>
        <time>2013-09-01T16:09:18.000Z</time>
        <extensions>
          <ns3:TrackPointExtension>
            <ns3:atemp>18.0</ns3:atemp>
          </ns3:TrackPointExtension>
        </extensions>
      </trkpt>
      <trkpt lat="46.7374154739081859588623046875" lon="6.8925843201577663421630859375">
        <ele>456.20001220703125</ele>
        <time>2013-09-01T16:09:19.000Z</time>
        <extensions>
          <ns3:TrackPointExtension>
            <ns3:atemp>18.0</ns3:atemp>
          </ns3:TrackPointExtension>
        </extensions>
      </trkpt>
      <trkpt lat="46.73743986524641513824462890625" lon="6.8925585038959980010986328125">
        <ele>456.600006103515625</ele>
        <time>2013-09-01T16:09:20.000Z</time>
        <extensions>
          <ns3:TrackPointExtension>
            <ns3:atemp>18.0</ns3:atemp>
          </ns3:TrackPointExtension>
        </extensions>
      </trkpt>
      <trkpt lat="46.737462580204010009765625" lon="6.89253344200551509857177734375">
        <ele>456.79998779296875</ele>
        <time>2013-09-01T16:09:21.000Z</time>
        <extensions>
          <ns3:TrackPointExtension>
            <ns3:atemp>18.0</ns3:atemp>
          </ns3:TrackPointExtension>
        </extensions>
      </trkpt>
      <trkpt lat="46.7374842055141925811767578125" lon="6.892508380115032196044921875">
        <ele>457.20001220703125</ele>
        <time>2013-09-01T16:09:22.000Z</time>
        <extensions>
          <ns3:TrackPointExtension>
            <ns3:atemp>18.0</ns3:atemp>
          </ns3:TrackPointExtension>
        </extensions>
      </trkpt>
      <trkpt lat="46.737505495548248291015625" lon="6.892486251890659332275390625">
        <ele>457.399993896484375</ele>
        <time>2013-09-01T16:09:23.000Z</time>
        <extensions>
          <ns3:TrackPointExtension>
            <ns3:atemp>18.0</ns3:atemp>
          </ns3:TrackPointExtension>
        </extensions>
      </trkpt>
      <trkpt lat="46.7375304736196994781494140625" lon="6.89246772788465023040771484375">
        <ele>457.399993896484375</ele>
        <time>2013-09-01T16:09:24.000Z</time>
        <extensions>
          <ns3:TrackPointExtension>
            <ns3:atemp>18.0</ns3:atemp>
          </ns3:TrackPointExtension>
        </extensions>
      </trkpt>
      <trkpt lat="46.73755302093923091888427734375" lon="6.8924488686025142669677734375">
        <ele>457.600006103515625</ele>
        <time>2013-09-01T16:09:25.000Z</time>
        <extensions>
          <ns3:TrackPointExtension>
            <ns3:atemp>18.0</ns3:atemp>
          </ns3:TrackPointExtension>
        </extensions>
      </trkpt>
      <trkpt lat="46.737575232982635498046875" lon="6.892427243292331695556640625">
        <ele>457.79998779296875</ele>
        <time>2013-09-01T16:09:26.000Z</time>
        <extensions>
          <ns3:TrackPointExtension>
            <ns3:atemp>18.0</ns3:atemp>
          </ns3:TrackPointExtension>
        </extensions>
      </trkpt>
      <trkpt lat="46.73760063014924526214599609375" lon="6.89240788109600543975830078125">
        <ele>458</ele>
        <time>2013-09-01T16:09:27.000Z</time>
        <extensions>
          <ns3:TrackPointExtension>
            <ns3:atemp>18.0</ns3:atemp>
          </ns3:TrackPointExtension>
        </extensions>
      </trkpt>
      <trkpt lat="46.73762527294456958770751953125" lon="6.8923895247280597686767578125">
        <ele>458.399993896484375</ele>
        <time>2013-09-01T16:09:28.000Z</time>
        <extensions>
          <ns3:TrackPointExtension>
            <ns3:atemp>18.0</ns3:atemp>
          </ns3:TrackPointExtension>
        </extensions>
      </trkpt>
      <trkpt lat="46.737648658454418182373046875" lon="6.8923700787127017974853515625">
        <ele>458.600006103515625</ele>
        <time>2013-09-01T16:09:29.000Z</time>
        <extensions>
          <ns3:TrackPointExtension>
            <ns3:atemp>18.0</ns3:atemp>
          </ns3:TrackPointExtension>
        </extensions>
      </trkpt>
      <trkpt lat="46.73767120577394962310791015625" lon="6.89234736375510692596435546875">
        <ele>458.79998779296875</ele>
        <time>2013-09-01T16:09:30.000Z</time>
        <extensions>
          <ns3:TrackPointExtension>
            <ns3:atemp>18.0</ns3:atemp>
          </ns3:TrackPointExtension>
        </extensions>
      </trkpt>
      <trkpt lat="46.7376897297799587249755859375" lon="6.892321966588497161865234375">
        <ele>458.79998779296875</ele>
        <time>2013-09-01T16:09:31.000Z</time>
        <extensions>
          <ns3:TrackPointExtension>
            <ns3:atemp>18.0</ns3:atemp>
          </ns3:TrackPointExtension>
        </extensions>
      </trkpt>
      <trkpt lat="46.7377091757953166961669921875" lon="6.89229539595544338226318359375">
        <ele>459.20001220703125</ele>
        <time>2013-09-01T16:09:32.000Z</time>
        <extensions>
          <ns3:TrackPointExtension>
            <ns3:atemp>18.0</ns3:atemp>
          </ns3:TrackPointExtension>
        </extensions>
      </trkpt>
      <trkpt lat="46.73773205839097499847412109375" lon="6.89226974733173847198486328125">
        <ele>459.399993896484375</ele>
        <time>2013-09-01T16:09:33.000Z</time>
        <extensions>
          <ns3:TrackPointExtension>
            <ns3:atemp>18.0</ns3:atemp>
          </ns3:TrackPointExtension>
        </extensions>
      </trkpt>
      <trkpt lat="46.73775435425341129302978515625" lon="6.89224460162222385406494140625">
        <ele>459.79998779296875</ele>
        <time>2013-09-01T16:09:34.000Z</time>
        <extensions>
          <ns3:TrackPointExtension>
            <ns3:atemp>18.0</ns3:atemp>
          </ns3:TrackPointExtension>
        </extensions>
      </trkpt>
      <trkpt lat="46.73777530901134014129638671875" lon="6.8922198750078678131103515625">
        <ele>460.20001220703125</ele>
        <time>2013-09-01T16:09:35.000Z</time>
        <extensions>
          <ns3:TrackPointExtension>
            <ns3:atemp>18.0</ns3:atemp>
          </ns3:TrackPointExtension>
        </extensions>
      </trkpt>
      <trkpt lat="46.73779626376926898956298828125" lon="6.89219431020319461822509765625">
        <ele>460.600006103515625</ele>
        <time>2013-09-01T16:09:36.000Z</time>
        <extensions>
          <ns3:TrackPointExtension>
            <ns3:atemp>18.0</ns3:atemp>
          </ns3:TrackPointExtension>
        </extensions>
      </trkpt>
      <trkpt lat="46.737816967070102691650390625" lon="6.8921712599694728851318359375">
        <ele>461.20001220703125</ele>
        <time>2013-09-01T16:09:37.000Z</time>
        <extensions>
          <ns3:TrackPointExtension>
            <ns3:atemp>18.0</ns3:atemp>
          </ns3:TrackPointExtension>
        </extensions>
      </trkpt>
      <trkpt lat="46.73784219659864902496337890625" lon="6.89215508289635181427001953125">
        <ele>461.600006103515625</ele>
        <time>2013-09-01T16:09:38.000Z</time>
        <extensions>
          <ns3:TrackPointExtension>
            <ns3:atemp>18.0</ns3:atemp>
          </ns3:TrackPointExtension>
        </extensions>
      </trkpt>
      <trkpt lat="46.73786499537527561187744140625" lon="6.892137564718723297119140625">
        <ele>461.600006103515625</ele>
        <time>2013-09-01T16:09:39.000Z</time>
        <extensions>
          <ns3:TrackPointExtension>
            <ns3:atemp>18.0</ns3:atemp>
          </ns3:TrackPointExtension>
        </extensions>
      </trkpt>
      <trkpt lat="46.73788846470415592193603515625" lon="6.892121136188507080078125">
        <ele>461.79998779296875</ele>
        <time>2013-09-01T16:09:40.000Z</time>
        <extensions>
          <ns3:TrackPointExtension>
            <ns3:atemp>18.0</ns3:atemp>
          </ns3:TrackPointExtension>
        </extensions>
      </trkpt>
      <trkpt lat="46.73791126348078250885009765625" lon="6.89210915006697177886962890625">
        <ele>462</ele>
        <time>2013-09-01T16:09:41.000Z</time>
        <extensions>
          <ns3:TrackPointExtension>
            <ns3:atemp>18.0</ns3:atemp>
          </ns3:TrackPointExtension>
        </extensions>
      </trkpt>
      <trkpt lat="46.73793288879096508026123046875" lon="6.8921088986098766326904296875">
        <ele>462.20001220703125</ele>
        <time>2013-09-01T16:09:42.000Z</time>
        <extensions>
          <ns3:TrackPointExtension>
            <ns3:atemp>18.0</ns3:atemp>
          </ns3:TrackPointExtension>
        </extensions>
      </trkpt>
      <trkpt lat="46.73795887269079685211181640625" lon="6.89212423749268054962158203125">
        <ele>462.600006103515625</ele>
        <time>2013-09-01T16:09:43.000Z</time>
        <extensions>
          <ns3:TrackPointExtension>
            <ns3:atemp>18.0</ns3:atemp>
          </ns3:TrackPointExtension>
        </extensions>
      </trkpt>
      <trkpt lat="46.73797697760164737701416015625" lon="6.8921538256108760833740234375">
        <ele>462.79998779296875</ele>
        <time>2013-09-01T16:09:44.000Z</time>
        <extensions>
          <ns3:TrackPointExtension>
            <ns3:atemp>18.0</ns3:atemp>
          </ns3:TrackPointExtension>
        </extensions>
      </trkpt>
      <trkpt lat="46.73798033036291599273681640625" lon="6.89218710176646709442138671875">
        <ele>462.79998779296875</ele>
        <time>2013-09-01T16:09:45.000Z</time>
        <extensions>
          <ns3:TrackPointExtension>
            <ns3:atemp>18.0</ns3:atemp>
          </ns3:TrackPointExtension>
        </extensions>
      </trkpt>
      <trkpt lat="46.73797194845974445343017578125" lon="6.89221677370369434356689453125">
        <ele>462.79998779296875</ele>
        <time>2013-09-01T16:09:46.000Z</time>
        <extensions>
          <ns3:TrackPointExtension>
            <ns3:atemp>18.0</ns3:atemp>
          </ns3:TrackPointExtension>
        </extensions>
      </trkpt>
      <trkpt lat="46.7379556037485599517822265625" lon="6.89224208705127239227294921875">
        <ele>463</ele>
        <time>2013-09-01T16:09:47.000Z</time>
        <extensions>
          <ns3:TrackPointExtension>
            <ns3:atemp>18.0</ns3:atemp>
          </ns3:TrackPointExtension>
        </extensions>
      </trkpt>
      <trkpt lat="46.737936995923519134521484375" lon="6.892276369035243988037109375">
        <ele>463.20001220703125</ele>
        <time>2013-09-01T16:09:48.000Z</time>
        <extensions>
          <ns3:TrackPointExtension>
            <ns3:atemp>18.0</ns3:atemp>
          </ns3:TrackPointExtension>
        </extensions>
      </trkpt>
      <trkpt lat="46.7379130236804485321044921875" lon="6.8923129141330718994140625">
        <ele>463.20001220703125</ele>
        <time>2013-09-01T16:09:49.000Z</time>
        <extensions>
          <ns3:TrackPointExtension>
            <ns3:atemp>18.0</ns3:atemp>
          </ns3:TrackPointExtension>
        </extensions>
      </trkpt>
      <trkpt lat="46.7378892190754413604736328125" lon="6.89235205762088298797607421875">
        <ele>463.20001220703125</ele>
        <time>2013-09-01T16:09:50.000Z</time>
        <extensions>
          <ns3:TrackPointExtension>
            <ns3:atemp>18.0</ns3:atemp>
          </ns3:TrackPointExtension>
        </extensions>
      </trkpt>
      <trkpt lat="46.7378556914627552032470703125" lon="6.89239296130836009979248046875">
        <ele>463.20001220703125</ele>
        <time>2013-09-01T16:09:51.000Z</time>
        <extensions>
          <ns3:TrackPointExtension>
            <ns3:atemp>18.0</ns3:atemp>
          </ns3:TrackPointExtension>
        </extensions>
      </trkpt>
      <trkpt lat="46.737818978726863861083984375" lon="6.8924384750425815582275390625">
        <ele>463.20001220703125</ele>
        <time>2013-09-01T16:09:52.000Z</time>
        <extensions>
          <ns3:TrackPointExtension>
            <ns3:atemp>18.0</ns3:atemp>
          </ns3:TrackPointExtension>
        </extensions>
      </trkpt>
      <trkpt lat="46.7377817630767822265625" lon="6.892493627965450286865234375">
        <ele>463.20001220703125</ele>
        <time>2013-09-01T16:09:53.000Z</time>
        <extensions>
          <ns3:TrackPointExtension>
            <ns3:atemp>18.0</ns3:atemp>
          </ns3:TrackPointExtension>
        </extensions>
      </trkpt>
      <trkpt lat="46.7377423681318759918212890625" lon="6.89255204983055591583251953125">
        <ele>463.399993896484375</ele>
        <time>2013-09-01T16:09:54.000Z</time>
        <extensions>
          <ns3:TrackPointExtension>
            <ns3:atemp>18.0</ns3:atemp>
          </ns3:TrackPointExtension>
        </extensions>
      </trkpt>
      <trkpt lat="46.73770129680633544921875" lon="6.8926084600389003753662109375">
        <ele>463.399993896484375</ele>
        <time>2013-09-01T16:09:55.000Z</time>
        <extensions>
          <ns3:TrackPointExtension>
            <ns3:atemp>18.0</ns3:atemp>
          </ns3:TrackPointExtension>
        </extensions>
      </trkpt>
      <trkpt lat="46.7376598902046680450439453125" lon="6.89266889356076717376708984375">
        <ele>463.399993896484375</ele>
        <time>2013-09-01T16:09:56.000Z</time>
        <extensions>
          <ns3:TrackPointExtension>
            <ns3:atemp>18.0</ns3:atemp>
          </ns3:TrackPointExtension>
        </extensions>
      </trkpt>
      <trkpt lat="46.7376203276216983795166015625" lon="6.8927301652729511260986328125">
        <ele>463.399993896484375</ele>
        <time>2013-09-01T16:09:57.000Z</time>
        <extensions>
          <ns3:TrackPointExtension>
            <ns3:atemp>18.0</ns3:atemp>
          </ns3:TrackPointExtension>
        </extensions>
      </trkpt>
      <trkpt lat="46.7375821061432361602783203125" lon="6.89279462210834026336669921875">
        <ele>463.399993896484375</ele>
        <time>2013-09-01T16:09:58.000Z</time>
        <extensions>
          <ns3:TrackPointExtension>
            <ns3:atemp>18.0</ns3:atemp>
          </ns3:TrackPointExtension>
        </extensions>
      </trkpt>
      <trkpt lat="46.73754614777863025665283203125" lon="6.89285731874406337738037109375">
        <ele>463.399993896484375</ele>
        <time>2013-09-01T16:09:59.000Z</time>
        <extensions>
          <ns3:TrackPointExtension>
            <ns3:atemp>18.0</ns3:atemp>
          </ns3:TrackPointExtension>
        </extensions>
      </trkpt>
      <trkpt lat="46.7375120334327220916748046875" lon="6.89292185939848423004150390625">
        <ele>463.399993896484375</ele>
        <time>2013-09-01T16:10:00.000Z</time>
        <extensions>
          <ns3:TrackPointExtension>
            <ns3:atemp>18.0</ns3:atemp>
          </ns3:TrackPointExtension>
        </extensions>
      </trkpt>
      <trkpt lat="46.73747842200100421905517578125" lon="6.8929861485958099365234375">
        <ele>464</ele>
        <time>2013-09-01T16:10:01.000Z</time>
        <extensions>
          <ns3:TrackPointExtension>
            <ns3:atemp>18.0</ns3:atemp>
          </ns3:TrackPointExtension>
        </extensions>
      </trkpt>
      <trkpt lat="46.7374422959983348846435546875" lon="6.89304809086024761199951171875">
        <ele>464.20001220703125</ele>
        <time>2013-09-01T16:10:02.000Z</time>
        <extensions>
          <ns3:TrackPointExtension>
            <ns3:atemp>18.0</ns3:atemp>
          </ns3:TrackPointExtension>
        </extensions>
      </trkpt>
      <trkpt lat="46.73740826547145843505859375" lon="6.89310885965824127197265625">
        <ele>464.399993896484375</ele>
        <time>2013-09-01T16:10:03.000Z</time>
        <extensions>
          <ns3:TrackPointExtension>
            <ns3:atemp>18.0</ns3:atemp>
          </ns3:TrackPointExtension>
        </extensions>
      </trkpt>
      <trkpt lat="46.7373782582581043243408203125" lon="6.8931677006185054779052734375">
        <ele>464.399993896484375</ele>
        <time>2013-09-01T16:10:04.000Z</time>
        <extensions>
          <ns3:TrackPointExtension>
            <ns3:atemp>18.0</ns3:atemp>
          </ns3:TrackPointExtension>
        </extensions>
      </trkpt>
      <trkpt lat="46.73734934069216251373291015625" lon="6.89321841113269329071044921875">
        <ele>464.399993896484375</ele>
        <time>2013-09-01T16:10:05.000Z</time>
        <extensions>
          <ns3:TrackPointExtension>
            <ns3:atemp>18.0</ns3:atemp>
          </ns3:TrackPointExtension>
        </extensions>
      </trkpt>
      <trkpt lat="46.73732285387814044952392578125" lon="6.8932625837624073028564453125">
        <ele>464.399993896484375</ele>
        <time>2013-09-01T16:10:06.000Z</time>
        <extensions>
          <ns3:TrackPointExtension>
            <ns3:atemp>18.0</ns3:atemp>
          </ns3:TrackPointExtension>
        </extensions>
      </trkpt>
      <trkpt lat="46.7372971214354038238525390625" lon="6.89330457709729671478271484375">
        <ele>464.399993896484375</ele>
        <time>2013-09-01T16:10:07.000Z</time>
        <extensions>
          <ns3:TrackPointExtension>
            <ns3:atemp>18.0</ns3:atemp>
          </ns3:TrackPointExtension>
        </extensions>
      </trkpt>
      <trkpt lat="46.7372669465839862823486328125" lon="6.8933423794806003570556640625">
        <ele>464.20001220703125</ele>
        <time>2013-09-01T16:10:08.000Z</time>
        <extensions>
          <ns3:TrackPointExtension>
            <ns3:atemp>18.0</ns3:atemp>
          </ns3:TrackPointExtension>
        </extensions>
      </trkpt>
      <trkpt lat="46.7372327484190464019775390625" lon="6.89337649382650852203369140625">
        <ele>464.20001220703125</ele>
        <time>2013-09-01T16:10:09.000Z</time>
        <extensions>
          <ns3:TrackPointExtension>
            <ns3:atemp>18.0</ns3:atemp>
          </ns3:TrackPointExtension>
        </extensions>
      </trkpt>
      <trkpt lat="46.73719846643507480621337890625" lon="6.893408931791782379150390625">
        <ele>464.399993896484375</ele>
        <time>2013-09-01T16:10:10.000Z</time>
        <extensions>
          <ns3:TrackPointExtension>
            <ns3:atemp>18.0</ns3:atemp>
          </ns3:TrackPointExtension>
        </extensions>
      </trkpt>
      <trkpt lat="46.73716560937464237213134765625" lon="6.89344556070864200592041015625">
        <ele>464.79998779296875</ele>
        <time>2013-09-01T16:10:11.000Z</time>
        <extensions>
          <ns3:TrackPointExtension>
            <ns3:atemp>18.0</ns3:atemp>
          </ns3:TrackPointExtension>
        </extensions>
      </trkpt>
      <trkpt lat="46.73713476397097110748291015625" lon="6.8934801779687404632568359375">
        <ele>465</ele>
        <time>2013-09-01T16:10:12.000Z</time>
        <extensions>
          <ns3:TrackPointExtension>
            <ns3:atemp>18.0</ns3:atemp>
          </ns3:TrackPointExtension>
        </extensions>
      </trkpt>
      <trkpt lat="46.7371056787669658660888671875" lon="6.89351445995271205902099609375">
        <ele>465.20001220703125</ele>
        <time>2013-09-01T16:10:13.000Z</time>
        <extensions>
          <ns3:TrackPointExtension>
            <ns3:atemp>18.0</ns3:atemp>
          </ns3:TrackPointExtension>
        </extensions>
      </trkpt>
      <trkpt lat="46.737078018486499786376953125" lon="6.89354195259511470794677734375">
        <ele>465.20001220703125</ele>
        <time>2013-09-01T16:10:14.000Z</time>
        <extensions>
          <ns3:TrackPointExtension>
            <ns3:atemp>18.0</ns3:atemp>
          </ns3:TrackPointExtension>
        </extensions>
      </trkpt>
      <trkpt lat="46.7370553873479366302490234375" lon="6.89356592483818531036376953125">
        <ele>465.399993896484375</ele>
        <time>2013-09-01T16:10:15.000Z</time>
        <extensions>
          <ns3:TrackPointExtension>
            <ns3:atemp>18.0</ns3:atemp>
          </ns3:TrackPointExtension>
        </extensions>
      </trkpt>
      <trkpt lat="46.73703485168516635894775390625" lon="6.89358704723417758941650390625">
        <ele>465.79998779296875</ele>
        <time>2013-09-01T16:10:16.000Z</time>
        <extensions>
          <ns3:TrackPointExtension>
            <ns3:atemp>18.0</ns3:atemp>
          </ns3:TrackPointExtension>
        </extensions>
      </trkpt>
      <trkpt lat="46.737016327679157257080078125" lon="6.89360431395471096038818359375">
        <ele>466</ele>
        <time>2013-09-01T16:10:17.000Z</time>
        <extensions>
          <ns3:TrackPointExtension>
            <ns3:atemp>18.0</ns3:atemp>
          </ns3:TrackPointExtension>
        </extensions>
      </trkpt>
      <trkpt lat="46.73699922859668731689453125" lon="6.893620155751705169677734375">
        <ele>466.399993896484375</ele>
        <time>2013-09-01T16:10:18.000Z</time>
        <extensions>
          <ns3:TrackPointExtension>
            <ns3:atemp>18.0</ns3:atemp>
          </ns3:TrackPointExtension>
        </extensions>
      </trkpt>
      <trkpt lat="46.736984141170978546142578125" lon="6.893638260662555694580078125">
        <ele>466.399993896484375</ele>
        <time>2013-09-01T16:10:19.000Z</time>
        <extensions>
          <ns3:TrackPointExtension>
            <ns3:atemp>18.0</ns3:atemp>
          </ns3:TrackPointExtension>
        </extensions>
      </trkpt>
      <trkpt lat="46.73697014339268207550048828125" lon="6.89366080798208713531494140625">
        <ele>466.79998779296875</ele>
        <time>2013-09-01T16:10:20.000Z</time>
        <extensions>
          <ns3:TrackPointExtension>
            <ns3:atemp>18.0</ns3:atemp>
          </ns3:TrackPointExtension>
        </extensions>
      </trkpt>
      <trkpt lat="46.7369531281292438507080078125" lon="6.893681846559047698974609375">
        <ele>467</ele>
        <time>2013-09-01T16:10:21.000Z</time>
        <extensions>
          <ns3:TrackPointExtension>
            <ns3:atemp>18.0</ns3:atemp>
          </ns3:TrackPointExtension>
        </extensions>
      </trkpt>
      <trkpt lat="46.73693485558032989501953125" lon="6.89370296895503997802734375">
        <ele>467.20001220703125</ele>
        <time>2013-09-01T16:10:22.000Z</time>
        <extensions>
          <ns3:TrackPointExtension>
            <ns3:atemp>18.0</ns3:atemp>
          </ns3:TrackPointExtension>
        </extensions>
      </trkpt>
      <trkpt lat="46.736913733184337615966796875" lon="6.89372048713266849517822265625">
        <ele>467.399993896484375</ele>
        <time>2013-09-01T16:10:23.000Z</time>
        <extensions>
          <ns3:TrackPointExtension>
            <ns3:atemp>18.0</ns3:atemp>
          </ns3:TrackPointExtension>
        </extensions>
      </trkpt>
      <trkpt lat="46.73689554445445537567138671875" lon="6.89374529756605625152587890625">
        <ele>467.600006103515625</ele>
        <time>2013-09-01T16:10:24.000Z</time>
        <extensions>
          <ns3:TrackPointExtension>
            <ns3:atemp>18.0</ns3:atemp>
          </ns3:TrackPointExtension>
        </extensions>
      </trkpt>
      <trkpt lat="46.7368791997432708740234375" lon="6.8937752209603786468505859375">
        <ele>468</ele>
        <time>2013-09-01T16:10:25.000Z</time>
        <extensions>
          <ns3:TrackPointExtension>
            <ns3:atemp>18.0</ns3:atemp>
          </ns3:TrackPointExtension>
        </extensions>
      </trkpt>
      <trkpt lat="46.736867465078830718994140625" lon="6.893807239830493927001953125">
        <ele>468.20001220703125</ele>
        <time>2013-09-01T16:10:26.000Z</time>
        <extensions>
          <ns3:TrackPointExtension>
            <ns3:atemp>18.0</ns3:atemp>
          </ns3:TrackPointExtension>
        </extensions>
      </trkpt>
      <trkpt lat="46.736856065690517425537109375" lon="6.89383883960545063018798828125">
        <ele>468.20001220703125</ele>
        <time>2013-09-01T16:10:27.000Z</time>
        <extensions>
          <ns3:TrackPointExtension>
            <ns3:atemp>18.0</ns3:atemp>
          </ns3:TrackPointExtension>
        </extensions>
      </trkpt>
      <trkpt lat="46.73684441484510898590087890625" lon="6.893869601190090179443359375">
        <ele>468.399993896484375</ele>
        <time>2013-09-01T16:10:28.000Z</time>
        <extensions>
          <ns3:TrackPointExtension>
            <ns3:atemp>18.0</ns3:atemp>
          </ns3:TrackPointExtension>
        </extensions>
      </trkpt>
      <trkpt lat="46.73682890832424163818359375" lon="6.893897764384746551513671875">
        <ele>468.399993896484375</ele>
        <time>2013-09-01T16:10:29.000Z</time>
        <extensions>
          <ns3:TrackPointExtension>
            <ns3:atemp>18.0</ns3:atemp>
          </ns3:TrackPointExtension>
        </extensions>
      </trkpt>
      <trkpt lat="46.736817844212055206298828125" lon="6.89392961561679840087890625">
        <ele>468.600006103515625</ele>
        <time>2013-09-01T16:10:30.000Z</time>
        <extensions>
          <ns3:TrackPointExtension>
            <ns3:atemp>18.0</ns3:atemp>
          </ns3:TrackPointExtension>
        </extensions>
      </trkpt>
      <trkpt lat="46.73680384643375873565673828125" lon="6.89395970664918422698974609375">
        <ele>468.79998779296875</ele>
        <time>2013-09-01T16:10:31.000Z</time>
        <extensions>
          <ns3:TrackPointExtension>
            <ns3:atemp>18.0</ns3:atemp>
          </ns3:TrackPointExtension>
        </extensions>
      </trkpt>
      <trkpt lat="46.7367871664464473724365234375" lon="6.89398887567222118377685546875">
        <ele>469</ele>
        <time>2013-09-01T16:10:32.000Z</time>
        <extensions>
          <ns3:TrackPointExtension>
            <ns3:atemp>18.0</ns3:atemp>
          </ns3:TrackPointExtension>
        </extensions>
      </trkpt>
      <trkpt lat="46.7367704026401042938232421875" lon="6.8940174579620361328125">
        <ele>469</ele>
        <time>2013-09-01T16:10:33.000Z</time>
        <extensions>
          <ns3:TrackPointExtension>
            <ns3:atemp>18.0</ns3:atemp>
          </ns3:TrackPointExtension>
        </extensions>
      </trkpt>
      <trkpt lat="46.73675372265279293060302734375" lon="6.89404654316604137420654296875">
        <ele>469.20001220703125</ele>
        <time>2013-09-01T16:10:34.000Z</time>
        <extensions>
          <ns3:TrackPointExtension>
            <ns3:atemp>18.0</ns3:atemp>
          </ns3:TrackPointExtension>
        </extensions>
      </trkpt>
      <trkpt lat="46.736736036837100982666015625" lon="6.894074119627475738525390625">
        <ele>469.20001220703125</ele>
        <time>2013-09-01T16:10:35.000Z</time>
        <extensions>
          <ns3:TrackPointExtension>
            <ns3:atemp>18.0</ns3:atemp>
          </ns3:TrackPointExtension>
        </extensions>
      </trkpt>
      <trkpt lat="46.73671868629753589630126953125" lon="6.89410286955535411834716796875">
        <ele>469.399993896484375</ele>
        <time>2013-09-01T16:10:36.000Z</time>
        <extensions>
          <ns3:TrackPointExtension>
            <ns3:atemp>18.0</ns3:atemp>
          </ns3:TrackPointExtension>
        </extensions>
      </trkpt>
      <trkpt lat="46.736702509224414825439453125" lon="6.89413304440677165985107421875">
        <ele>469.600006103515625</ele>
        <time>2013-09-01T16:10:37.000Z</time>
        <extensions>
          <ns3:TrackPointExtension>
            <ns3:atemp>18.0</ns3:atemp>
          </ns3:TrackPointExtension>
        </extensions>
      </trkpt>
      <trkpt lat="46.736686415970325469970703125" lon="6.894158609211444854736328125">
        <ele>469.79998779296875</ele>
        <time>2013-09-01T16:10:38.000Z</time>
        <extensions>
          <ns3:TrackPointExtension>
            <ns3:atemp>18.0</ns3:atemp>
          </ns3:TrackPointExtension>
        </extensions>
      </trkpt>
      <trkpt lat="46.73667141236364841461181640625" lon="6.8941849283874034881591796875">
        <ele>470</ele>
        <time>2013-09-01T16:10:39.000Z</time>
        <extensions>
          <ns3:TrackPointExtension>
            <ns3:atemp>18.0</ns3:atemp>
          </ns3:TrackPointExtension>
        </extensions>
      </trkpt>
      <trkpt lat="46.7366580851376056671142578125" lon="6.89420051872730255126953125">
        <ele>470.20001220703125</ele>
        <time>2013-09-01T16:10:40.000Z</time>
        <extensions>
          <ns3:TrackPointExtension>
            <ns3:atemp>18.0</ns3:atemp>
          </ns3:TrackPointExtension>
        </extensions>
      </trkpt>
      <trkpt lat="46.73664207570254802703857421875" lon="6.8942191265523433685302734375">
        <ele>470.399993896484375</ele>
        <time>2013-09-01T16:10:41.000Z</time>
        <extensions>
          <ns3:TrackPointExtension>
            <ns3:atemp>18.0</ns3:atemp>
          </ns3:TrackPointExtension>
        </extensions>
      </trkpt>
      <trkpt lat="46.73662464134395122528076171875" lon="6.8942368961870670318603515625">
        <ele>470.600006103515625</ele>
        <time>2013-09-01T16:10:42.000Z</time>
        <extensions>
          <ns3:TrackPointExtension>
            <ns3:atemp>18.0</ns3:atemp>
          </ns3:TrackPointExtension>
        </extensions>
      </trkpt>
      <trkpt lat="46.73660938628017902374267578125" lon="6.89425894059240818023681640625">
        <ele>470.79998779296875</ele>
        <time>2013-09-01T16:10:43.000Z</time>
        <extensions>
          <ns3:TrackPointExtension>
            <ns3:atemp>18.0</ns3:atemp>
          </ns3:TrackPointExtension>
        </extensions>
      </trkpt>
      <trkpt lat="46.736593544483184814453125" lon="6.89428073354065418243408203125">
        <ele>471</ele>
        <time>2013-09-01T16:10:44.000Z</time>
        <extensions>
          <ns3:TrackPointExtension>
            <ns3:atemp>18.0</ns3:atemp>
          </ns3:TrackPointExtension>
        </extensions>
      </trkpt>
      <trkpt lat="46.73658088780939579010009765625" lon="6.89430705271661281585693359375">
        <ele>471.399993896484375</ele>
        <time>2013-09-01T16:10:45.000Z</time>
        <extensions>
          <ns3:TrackPointExtension>
            <ns3:atemp>18.0</ns3:atemp>
          </ns3:TrackPointExtension>
        </extensions>
      </trkpt>
      <trkpt lat="46.73656982369720935821533203125" lon="6.8943287618458271026611328125">
        <ele>471.79998779296875</ele>
        <time>2013-09-01T16:10:46.000Z</time>
        <extensions>
          <ns3:TrackPointExtension>
            <ns3:atemp>18.0</ns3:atemp>
          </ns3:TrackPointExtension>
        </extensions>
      </trkpt>
      <trkpt lat="46.73655892722308635711669921875" lon="6.8943500518798828125">
        <ele>472</ele>
        <time>2013-09-01T16:10:47.000Z</time>
        <extensions>
          <ns3:TrackPointExtension>
            <ns3:atemp>18.0</ns3:atemp>
          </ns3:TrackPointExtension>
        </extensions>
      </trkpt>
      <trkpt lat="46.73654736019670963287353515625" lon="6.8943706713616847991943359375">
        <ele>472.399993896484375</ele>
        <time>2013-09-01T16:10:48.000Z</time>
        <extensions>
          <ns3:TrackPointExtension>
            <ns3:atemp>18.0</ns3:atemp>
          </ns3:TrackPointExtension>
        </extensions>
      </trkpt>
      <trkpt lat="46.73653244040906429290771484375" lon="6.89438969828188419342041015625">
        <ele>473</ele>
        <time>2013-09-01T16:10:49.000Z</time>
        <extensions>
          <ns3:TrackPointExtension>
            <ns3:atemp>18.0</ns3:atemp>
          </ns3:TrackPointExtension>
        </extensions>
      </trkpt>
      <trkpt lat="46.736516766250133514404296875" lon="6.89441266469657421112060546875">
        <ele>473.399993896484375</ele>
        <time>2013-09-01T16:10:50.000Z</time>
        <extensions>
          <ns3:TrackPointExtension>
            <ns3:atemp>18.0</ns3:atemp>
          </ns3:TrackPointExtension>
        </extensions>
      </trkpt>
      <trkpt lat="46.7364978231489658355712890625" lon="6.89443429000675678253173828125">
        <ele>473.79998779296875</ele>
        <time>2013-09-01T16:10:51.000Z</time>
        <extensions>
          <ns3:TrackPointExtension>
            <ns3:atemp>18.0</ns3:atemp>
          </ns3:TrackPointExtension>
        </extensions>
      </trkpt>
      <trkpt lat="46.7364820651710033416748046875" lon="6.894452981650829315185546875">
        <ele>474</ele>
        <time>2013-09-01T16:10:52.000Z</time>
        <extensions>
          <ns3:TrackPointExtension>
            <ns3:atemp>18.0</ns3:atemp>
          </ns3:TrackPointExtension>
        </extensions>
      </trkpt>
      <trkpt lat="46.736465133726596832275390625" lon="6.89446982927620410919189453125">
        <ele>474.20001220703125</ele>
        <time>2013-09-01T16:10:53.000Z</time>
        <extensions>
          <ns3:TrackPointExtension>
            <ns3:atemp>18.0</ns3:atemp>
          </ns3:TrackPointExtension>
        </extensions>
      </trkpt>
      <trkpt lat="46.73645071685314178466796875" lon="6.8944860063493251800537109375">
        <ele>474.399993896484375</ele>
        <time>2013-09-01T16:10:54.000Z</time>
        <extensions>
          <ns3:TrackPointExtension>
            <ns3:atemp>18.0</ns3:atemp>
          </ns3:TrackPointExtension>
        </extensions>
      </trkpt>
      <trkpt lat="46.73643453978002071380615234375" lon="6.8945024348795413970947265625">
        <ele>474.79998779296875</ele>
        <time>2013-09-01T16:10:55.000Z</time>
        <extensions>
          <ns3:TrackPointExtension>
            <ns3:atemp>18.0</ns3:atemp>
          </ns3:TrackPointExtension>
        </extensions>
      </trkpt>
      <trkpt lat="46.7364183627068996429443359375" lon="6.89451777376234531402587890625">
        <ele>475.20001220703125</ele>
        <time>2013-09-01T16:10:56.000Z</time>
        <extensions>
          <ns3:TrackPointExtension>
            <ns3:atemp>18.0</ns3:atemp>
          </ns3:TrackPointExtension>
        </extensions>
      </trkpt>
      <trkpt lat="46.7364046163856983184814453125" lon="6.894538141787052154541015625">
        <ele>475.399993896484375</ele>
        <time>2013-09-01T16:10:57.000Z</time>
        <extensions>
          <ns3:TrackPointExtension>
            <ns3:atemp>18.0</ns3:atemp>
          </ns3:TrackPointExtension>
        </extensions>
      </trkpt>
      <trkpt lat="46.73639447428286075592041015625" lon="6.8945637904107570648193359375">
        <ele>475.79998779296875</ele>
        <time>2013-09-01T16:10:58.000Z</time>
        <extensions>
          <ns3:TrackPointExtension>
            <ns3:atemp>18.0</ns3:atemp>
          </ns3:TrackPointExtension>
        </extensions>
      </trkpt>
      <trkpt lat="46.7363798059523105621337890625" lon="6.89458273351192474365234375">
        <ele>476</ele>
        <time>2013-09-01T16:10:59.000Z</time>
        <extensions>
          <ns3:TrackPointExtension>
            <ns3:atemp>18.0</ns3:atemp>
          </ns3:TrackPointExtension>
        </extensions>
      </trkpt>
      <trkpt lat="46.736369244754314422607421875" lon="6.89460293389856815338134765625">
        <ele>476.20001220703125</ele>
        <time>2013-09-01T16:11:00.000Z</time>
        <extensions>
          <ns3:TrackPointExtension>
            <ns3:atemp>18.0</ns3:atemp>
          </ns3:TrackPointExtension>
        </extensions>
      </trkpt>
      <trkpt lat="46.73635994084179401397705078125" lon="6.894625984132289886474609375">
        <ele>476.399993896484375</ele>
        <time>2013-09-01T16:11:01.000Z</time>
        <extensions>
          <ns3:TrackPointExtension>
            <ns3:atemp>18.0</ns3:atemp>
          </ns3:TrackPointExtension>
        </extensions>
      </trkpt>
      <trkpt lat="46.73635105602443218231201171875" lon="6.894648782908916473388671875">
        <ele>476.79998779296875</ele>
        <time>2013-09-01T16:11:02.000Z</time>
        <extensions>
          <ns3:TrackPointExtension>
            <ns3:atemp>18.0</ns3:atemp>
          </ns3:TrackPointExtension>
        </extensions>
      </trkpt>
      <trkpt lat="46.736341081559658050537109375" lon="6.89466881565749645233154296875">
        <ele>477.20001220703125</ele>
        <time>2013-09-01T16:11:03.000Z</time>
        <extensions>
          <ns3:TrackPointExtension>
            <ns3:atemp>18.0</ns3:atemp>
          </ns3:TrackPointExtension>
        </extensions>
      </trkpt>
      <trkpt lat="46.7363321967422962188720703125" lon="6.89469111151993274688720703125">
        <ele>477.399993896484375</ele>
        <time>2013-09-01T16:11:04.000Z</time>
        <extensions>
          <ns3:TrackPointExtension>
            <ns3:atemp>18.0</ns3:atemp>
          </ns3:TrackPointExtension>
        </extensions>
      </trkpt>
      <trkpt lat="46.73633194528520107269287109375" lon="6.89471759833395481109619140625">
        <ele>477.79998779296875</ele>
        <time>2013-09-01T16:11:05.000Z</time>
        <extensions>
          <ns3:TrackPointExtension>
            <ns3:atemp>18.0</ns3:atemp>
          </ns3:TrackPointExtension>
        </extensions>
      </trkpt>
      <trkpt lat="46.736339740455150604248046875" lon="6.89474257640540599822998046875">
        <ele>478.20001220703125</ele>
        <time>2013-09-01T16:11:06.000Z</time>
        <extensions>
          <ns3:TrackPointExtension>
            <ns3:atemp>18.0</ns3:atemp>
          </ns3:TrackPointExtension>
        </extensions>
      </trkpt>
      <trkpt lat="46.73633915372192859649658203125" lon="6.89477090723812580108642578125">
        <ele>478.399993896484375</ele>
        <time>2013-09-01T16:11:07.000Z</time>
        <extensions>
          <ns3:TrackPointExtension>
            <ns3:atemp>18.0</ns3:atemp>
          </ns3:TrackPointExtension>
        </extensions>
      </trkpt>
      <trkpt lat="46.7363318614661693572998046875" lon="6.8947937898337841033935546875">
        <ele>478.79998779296875</ele>
        <time>2013-09-01T16:11:08.000Z</time>
        <extensions>
          <ns3:TrackPointExtension>
            <ns3:atemp>18.0</ns3:atemp>
          </ns3:TrackPointExtension>
        </extensions>
      </trkpt>
      <trkpt lat="46.73632674850523471832275390625" lon="6.8948189355432987213134765625">
        <ele>479.20001220703125</ele>
        <time>2013-09-01T16:11:09.000Z</time>
        <extensions>
          <ns3:TrackPointExtension>
            <ns3:atemp>18.0</ns3:atemp>
          </ns3:TrackPointExtension>
        </extensions>
      </trkpt>
      <trkpt lat="46.73632926307618618011474609375" lon="6.8948427401483058929443359375">
        <ele>479.600006103515625</ele>
        <time>2013-09-01T16:11:10.000Z</time>
        <extensions>
          <ns3:TrackPointExtension>
            <ns3:atemp>18.0</ns3:atemp>
          </ns3:TrackPointExtension>
        </extensions>
      </trkpt>
      <trkpt lat="46.7363342083990573883056640625" lon="6.89486579038202762603759765625">
        <ele>480</ele>
        <time>2013-09-01T16:11:11.000Z</time>
        <extensions>
          <ns3:TrackPointExtension>
            <ns3:atemp>18.0</ns3:atemp>
          </ns3:TrackPointExtension>
        </extensions>
      </trkpt>
      <trkpt lat="46.73633948899805545806884765625" lon="6.89488473348319530487060546875">
        <ele>480.20001220703125</ele>
        <time>2013-09-01T16:11:12.000Z</time>
        <extensions>
          <ns3:TrackPointExtension>
            <ns3:atemp>18.0</ns3:atemp>
          </ns3:TrackPointExtension>
        </extensions>
      </trkpt>
      <trkpt lat="46.736345104873180389404296875" lon="6.89490795135498046875">
        <ele>480.79998779296875</ele>
        <time>2013-09-01T16:11:13.000Z</time>
        <extensions>
          <ns3:TrackPointExtension>
            <ns3:atemp>18.0</ns3:atemp>
          </ns3:TrackPointExtension>
        </extensions>
      </trkpt>
      <trkpt lat="46.73635256476700305938720703125" lon="6.89492739737033843994140625">
        <ele>481.20001220703125</ele>
        <time>2013-09-01T16:11:14.000Z</time>
        <extensions>
          <ns3:TrackPointExtension>
            <ns3:atemp>18.0</ns3:atemp>
          </ns3:TrackPointExtension>
        </extensions>
      </trkpt>
      <trkpt lat="46.73636161722242832183837890625" lon="6.894948184490203857421875">
        <ele>481.600006103515625</ele>
        <time>2013-09-01T16:11:15.000Z</time>
        <extensions>
          <ns3:TrackPointExtension>
            <ns3:atemp>18.0</ns3:atemp>
          </ns3:TrackPointExtension>
        </extensions>
      </trkpt>
      <trkpt lat="46.73636999912559986114501953125" lon="6.8949709832668304443359375">
        <ele>481.79998779296875</ele>
        <time>2013-09-01T16:11:16.000Z</time>
        <extensions>
          <ns3:TrackPointExtension>
            <ns3:atemp>18.0</ns3:atemp>
          </ns3:TrackPointExtension>
        </extensions>
      </trkpt>
      <trkpt lat="46.73637854866683483123779296875" lon="6.89499336294829845428466796875">
        <ele>482.20001220703125</ele>
        <time>2013-09-01T16:11:17.000Z</time>
        <extensions>
          <ns3:TrackPointExtension>
            <ns3:atemp>18.0</ns3:atemp>
          </ns3:TrackPointExtension>
        </extensions>
      </trkpt>
      <trkpt lat="46.73638944514095783233642578125" lon="6.89501683227717876434326171875">
        <ele>482.600006103515625</ele>
        <time>2013-09-01T16:11:18.000Z</time>
        <extensions>
          <ns3:TrackPointExtension>
            <ns3:atemp>18.0</ns3:atemp>
          </ns3:TrackPointExtension>
        </extensions>
      </trkpt>
      <trkpt lat="46.736398078501224517822265625" lon="6.89503996632993221282958984375">
        <ele>483</ele>
        <time>2013-09-01T16:11:19.000Z</time>
        <extensions>
          <ns3:TrackPointExtension>
            <ns3:atemp>18.0</ns3:atemp>
          </ns3:TrackPointExtension>
        </extensions>
      </trkpt>
      <trkpt lat="46.7364066280424594879150390625" lon="6.895066536962985992431640625">
        <ele>483.20001220703125</ele>
        <time>2013-09-01T16:11:20.000Z</time>
        <extensions>
          <ns3:TrackPointExtension>
            <ns3:atemp>18.0</ns3:atemp>
          </ns3:TrackPointExtension>
        </extensions>
      </trkpt>
      <trkpt lat="46.73641542904078960418701171875" lon="6.895090676844120025634765625">
        <ele>483.600006103515625</ele>
        <time>2013-09-01T16:11:21.000Z</time>
        <extensions>
          <ns3:TrackPointExtension>
            <ns3:atemp>18.0</ns3:atemp>
          </ns3:TrackPointExtension>
        </extensions>
      </trkpt>
      <trkpt lat="46.73642397858202457427978515625" lon="6.8951149843633174896240234375">
        <ele>484</ele>
        <time>2013-09-01T16:11:22.000Z</time>
        <extensions>
          <ns3:TrackPointExtension>
            <ns3:atemp>18.0</ns3:atemp>
          </ns3:TrackPointExtension>
        </extensions>
      </trkpt>
      <trkpt lat="46.73643303103744983673095703125" lon="6.8951399624347686767578125">
        <ele>484.20001220703125</ele>
        <time>2013-09-01T16:11:23.000Z</time>
        <extensions>
          <ns3:TrackPointExtension>
            <ns3:atemp>18.0</ns3:atemp>
          </ns3:TrackPointExtension>
        </extensions>
      </trkpt>
      <trkpt lat="46.73644241876900196075439453125" lon="6.89516452141106128692626953125">
        <ele>484.399993896484375</ele>
        <time>2013-09-01T16:11:24.000Z</time>
        <extensions>
          <ns3:TrackPointExtension>
            <ns3:atemp>18.0</ns3:atemp>
          </ns3:TrackPointExtension>
        </extensions>
      </trkpt>
      <trkpt lat="46.73645180650055408477783203125" lon="6.89518966712057590484619140625">
        <ele>484.600006103515625</ele>
        <time>2013-09-01T16:11:25.000Z</time>
        <extensions>
          <ns3:TrackPointExtension>
            <ns3:atemp>18.0</ns3:atemp>
          </ns3:TrackPointExtension>
        </extensions>
      </trkpt>
      <trkpt lat="46.73646186478435993194580078125" lon="6.89521280117332935333251953125">
        <ele>484.600006103515625</ele>
        <time>2013-09-01T16:11:26.000Z</time>
        <extensions>
          <ns3:TrackPointExtension>
            <ns3:atemp>18.0</ns3:atemp>
          </ns3:TrackPointExtension>
        </extensions>
      </trkpt>
      <trkpt lat="46.73647628165781497955322265625" lon="6.89523492939770221710205078125">
        <ele>485</ele>
        <time>2013-09-01T16:11:27.000Z</time>
        <extensions>
          <ns3:TrackPointExtension>
            <ns3:atemp>18.0</ns3:atemp>
          </ns3:TrackPointExtension>
        </extensions>
      </trkpt>
      <trkpt lat="46.73648986034095287322998046875" lon="6.89526024274528026580810546875">
        <ele>485.20001220703125</ele>
        <time>2013-09-01T16:11:28.000Z</time>
        <extensions>
          <ns3:TrackPointExtension>
            <ns3:atemp>18.0</ns3:atemp>
          </ns3:TrackPointExtension>
        </extensions>
      </trkpt>
      <trkpt lat="46.73650025390088558197021484375" lon="6.8952848017215728759765625">
        <ele>485.600006103515625</ele>
        <time>2013-09-01T16:11:29.000Z</time>
        <extensions>
          <ns3:TrackPointExtension>
            <ns3:atemp>18.0</ns3:atemp>
          </ns3:TrackPointExtension>
        </extensions>
      </trkpt>
      <trkpt lat="46.73650746233761310577392578125" lon="6.89531388692557811737060546875">
        <ele>485.600006103515625</ele>
        <time>2013-09-01T16:11:30.000Z</time>
        <extensions>
          <ns3:TrackPointExtension>
            <ns3:atemp>18.0</ns3:atemp>
          </ns3:TrackPointExtension>
        </extensions>
      </trkpt>
      <trkpt lat="46.7365132458508014678955078125" lon="6.89534238539636135101318359375">
        <ele>486</ele>
        <time>2013-09-01T16:11:31.000Z</time>
        <extensions>
          <ns3:TrackPointExtension>
            <ns3:atemp>18.0</ns3:atemp>
          </ns3:TrackPointExtension>
        </extensions>
      </trkpt>
      <trkpt lat="46.73652053810656070709228515625" lon="6.8953706324100494384765625">
        <ele>486.399993896484375</ele>
        <time>2013-09-01T16:11:32.000Z</time>
        <extensions>
          <ns3:TrackPointExtension>
            <ns3:atemp>18.0</ns3:atemp>
          </ns3:TrackPointExtension>
        </extensions>
      </trkpt>
      <trkpt lat="46.73652757890522480010986328125" lon="6.8953966163098812103271484375">
        <ele>486.600006103515625</ele>
        <time>2013-09-01T16:11:33.000Z</time>
        <extensions>
          <ns3:TrackPointExtension>
            <ns3:atemp>18.0</ns3:atemp>
          </ns3:TrackPointExtension>
        </extensions>
      </trkpt>
      <trkpt lat="46.73653260804712772369384765625" lon="6.895423270761966705322265625">
        <ele>486.79998779296875</ele>
        <time>2013-09-01T16:11:34.000Z</time>
        <extensions>
          <ns3:TrackPointExtension>
            <ns3:atemp>18.0</ns3:atemp>
          </ns3:TrackPointExtension>
        </extensions>
      </trkpt>
      <trkpt lat="46.73653327859938144683837890625" lon="6.89545185305178165435791015625">
        <ele>487</ele>
        <time>2013-09-01T16:11:35.000Z</time>
        <extensions>
          <ns3:TrackPointExtension>
            <ns3:atemp>18.0</ns3:atemp>
          </ns3:TrackPointExtension>
        </extensions>
      </trkpt>
      <trkpt lat="46.73653311096131801605224609375" lon="6.89547850750386714935302734375">
        <ele>487.20001220703125</ele>
        <time>2013-09-01T16:11:36.000Z</time>
        <extensions>
          <ns3:TrackPointExtension>
            <ns3:atemp>18.0</ns3:atemp>
          </ns3:TrackPointExtension>
        </extensions>
      </trkpt>
      <trkpt lat="46.73654031939804553985595703125" lon="6.89550499431788921356201171875">
        <ele>487.399993896484375</ele>
        <time>2013-09-01T16:11:37.000Z</time>
        <extensions>
          <ns3:TrackPointExtension>
            <ns3:atemp>18.0</ns3:atemp>
          </ns3:TrackPointExtension>
        </extensions>
      </trkpt>
      <trkpt lat="46.73654886893928050994873046875" lon="6.895531229674816131591796875">
        <ele>487.600006103515625</ele>
        <time>2013-09-01T16:11:38.000Z</time>
        <extensions>
          <ns3:TrackPointExtension>
            <ns3:atemp>18.0</ns3:atemp>
          </ns3:TrackPointExtension>
        </extensions>
      </trkpt>
      <trkpt lat="46.736554987728595733642578125" lon="6.8955582194030284881591796875">
        <ele>488</ele>
        <time>2013-09-01T16:11:39.000Z</time>
        <extensions>
          <ns3:TrackPointExtension>
            <ns3:atemp>18.0</ns3:atemp>
          </ns3:TrackPointExtension>
        </extensions>
      </trkpt>
      <trkpt lat="46.736561022698879241943359375" lon="6.89558462239801883697509765625">
        <ele>488.399993896484375</ele>
        <time>2013-09-01T16:11:40.000Z</time>
        <extensions>
          <ns3:TrackPointExtension>
            <ns3:atemp>18.0</ns3:atemp>
          </ns3:TrackPointExtension>
        </extensions>
      </trkpt>
      <trkpt lat="46.73656311817467212677001953125" lon="6.89561261795461177825927734375">
        <ele>488.600006103515625</ele>
        <time>2013-09-01T16:11:41.000Z</time>
        <extensions>
          <ns3:TrackPointExtension>
            <ns3:atemp>18.0</ns3:atemp>
          </ns3:TrackPointExtension>
        </extensions>
      </trkpt>
      <trkpt lat="46.7365658842027187347412109375" lon="6.8956400267779827117919921875">
        <ele>488.79998779296875</ele>
        <time>2013-09-01T16:11:42.000Z</time>
        <extensions>
          <ns3:TrackPointExtension>
            <ns3:atemp>18.0</ns3:atemp>
          </ns3:TrackPointExtension>
        </extensions>
      </trkpt>
      <trkpt lat="46.736569069325923919677734375" lon="6.89566927962005138397216796875">
        <ele>489.20001220703125</ele>
        <time>2013-09-01T16:11:43.000Z</time>
        <extensions>
          <ns3:TrackPointExtension>
            <ns3:atemp>18.0</ns3:atemp>
          </ns3:TrackPointExtension>
        </extensions>
      </trkpt>
      <trkpt lat="46.736571751534938812255859375" lon="6.89569878391921520233154296875">
        <ele>489.399993896484375</ele>
        <time>2013-09-01T16:11:44.000Z</time>
        <extensions>
          <ns3:TrackPointExtension>
            <ns3:atemp>18.0</ns3:atemp>
          </ns3:TrackPointExtension>
        </extensions>
      </trkpt>
      <trkpt lat="46.736575104296207427978515625" lon="6.8957255221903324127197265625">
        <ele>489.600006103515625</ele>
        <time>2013-09-01T16:11:45.000Z</time>
        <extensions>
          <ns3:TrackPointExtension>
            <ns3:atemp>18.0</ns3:atemp>
          </ns3:TrackPointExtension>
        </extensions>
      </trkpt>
      <trkpt lat="46.73658222891390323638916015625" lon="6.89575041644275188446044921875">
        <ele>489.79998779296875</ele>
        <time>2013-09-01T16:11:46.000Z</time>
        <extensions>
          <ns3:TrackPointExtension>
            <ns3:atemp>18.0</ns3:atemp>
          </ns3:TrackPointExtension>
        </extensions>
      </trkpt>
      <trkpt lat="46.7365920357406139373779296875" lon="6.89577338285744190216064453125">
        <ele>489.79998779296875</ele>
        <time>2013-09-01T16:11:47.000Z</time>
        <extensions>
          <ns3:TrackPointExtension>
            <ns3:atemp>18.0</ns3:atemp>
          </ns3:TrackPointExtension>
        </extensions>
      </trkpt>
      <trkpt lat="46.736597903072834014892578125" lon="6.89579970203340053558349609375">
        <ele>490</ele>
        <time>2013-09-01T16:11:48.000Z</time>
        <extensions>
          <ns3:TrackPointExtension>
            <ns3:atemp>18.0</ns3:atemp>
          </ns3:TrackPointExtension>
        </extensions>
      </trkpt>
      <trkpt lat="46.7366020940244197845458984375" lon="6.8958271108567714691162109375">
        <ele>490</ele>
        <time>2013-09-01T16:11:49.000Z</time>
        <extensions>
          <ns3:TrackPointExtension>
            <ns3:atemp>18.0</ns3:atemp>
          </ns3:TrackPointExtension>
        </extensions>
      </trkpt>
      <trkpt lat="46.73660066910088062286376953125" lon="6.8958566151559352874755859375">
        <ele>490.20001220703125</ele>
        <time>2013-09-01T16:11:50.000Z</time>
        <extensions>
          <ns3:TrackPointExtension>
            <ns3:atemp>18.0</ns3:atemp>
          </ns3:TrackPointExtension>
        </extensions>
      </trkpt>
      <trkpt lat="46.73660100437700748443603515625" lon="6.89588637091219425201416015625">
        <ele>490.600006103515625</ele>
        <time>2013-09-01T16:11:51.000Z</time>
        <extensions>
          <ns3:TrackPointExtension>
            <ns3:atemp>18.0</ns3:atemp>
          </ns3:TrackPointExtension>
        </extensions>
      </trkpt>
      <trkpt lat="46.7366029322147369384765625" lon="6.8959151208400726318359375">
        <ele>490.79998779296875</ele>
        <time>2013-09-01T16:11:52.000Z</time>
        <extensions>
          <ns3:TrackPointExtension>
            <ns3:atemp>18.0</ns3:atemp>
          </ns3:TrackPointExtension>
        </extensions>
      </trkpt>
      <trkpt lat="46.73660804517567157745361328125" lon="6.89594454132020473480224609375">
        <ele>491</ele>
        <time>2013-09-01T16:11:53.000Z</time>
        <extensions>
          <ns3:TrackPointExtension>
            <ns3:atemp>18.0</ns3:atemp>
          </ns3:TrackPointExtension>
        </extensions>
      </trkpt>
      <trkpt lat="46.736613325774669647216796875" lon="6.89597371034324169158935546875">
        <ele>491.20001220703125</ele>
        <time>2013-09-01T16:11:54.000Z</time>
        <extensions>
          <ns3:TrackPointExtension>
            <ns3:atemp>18.0</ns3:atemp>
          </ns3:TrackPointExtension>
        </extensions>
      </trkpt>
      <trkpt lat="46.73661843873560428619384765625" lon="6.89600338228046894073486328125">
        <ele>491.399993896484375</ele>
        <time>2013-09-01T16:11:55.000Z</time>
        <extensions>
          <ns3:TrackPointExtension>
            <ns3:atemp>18.0</ns3:atemp>
          </ns3:TrackPointExtension>
        </extensions>
      </trkpt>
      <trkpt lat="46.73662078566849231719970703125" lon="6.89603322185575962066650390625">
        <ele>491.600006103515625</ele>
        <time>2013-09-01T16:11:56.000Z</time>
        <extensions>
          <ns3:TrackPointExtension>
            <ns3:atemp>18.0</ns3:atemp>
          </ns3:TrackPointExtension>
        </extensions>
      </trkpt>
      <trkpt lat="46.73662413842976093292236328125" lon="6.8960628099739551544189453125">
        <ele>492</ele>
        <time>2013-09-01T16:11:57.000Z</time>
        <extensions>
          <ns3:TrackPointExtension>
            <ns3:atemp>18.0</ns3:atemp>
          </ns3:TrackPointExtension>
        </extensions>
      </trkpt>
      <trkpt lat="46.7366289161145687103271484375" lon="6.896091140806674957275390625">
        <ele>492.399993896484375</ele>
        <time>2013-09-01T16:11:58.000Z</time>
        <extensions>
          <ns3:TrackPointExtension>
            <ns3:atemp>18.0</ns3:atemp>
          </ns3:TrackPointExtension>
        </extensions>
      </trkpt>
      <trkpt lat="46.73663671128451824188232421875" lon="6.896119974553585052490234375">
        <ele>492.79998779296875</ele>
        <time>2013-09-01T16:11:59.000Z</time>
        <extensions>
          <ns3:TrackPointExtension>
            <ns3:atemp>18.0</ns3:atemp>
          </ns3:TrackPointExtension>
        </extensions>
      </trkpt>
      <trkpt lat="46.7366463504731655120849609375" lon="6.89614771865308284759521484375">
        <ele>493.20001220703125</ele>
        <time>2013-09-01T16:12:00.000Z</time>
        <extensions>
          <ns3:TrackPointExtension>
            <ns3:atemp>18.0</ns3:atemp>
          </ns3:TrackPointExtension>
        </extensions>
      </trkpt>
      <trkpt lat="46.73665699549019336700439453125" lon="6.896176636219024658203125">
        <ele>493.79998779296875</ele>
        <time>2013-09-01T16:12:01.000Z</time>
        <extensions>
          <ns3:TrackPointExtension>
            <ns3:atemp>18.0</ns3:atemp>
          </ns3:TrackPointExtension>
        </extensions>
      </trkpt>
      <trkpt lat="46.7366688139736652374267578125" lon="6.896203793585300445556640625">
        <ele>494</ele>
        <time>2013-09-01T16:12:02.000Z</time>
        <extensions>
          <ns3:TrackPointExtension>
            <ns3:atemp>18.0</ns3:atemp>
          </ns3:TrackPointExtension>
        </extensions>
      </trkpt>
      <trkpt lat="46.736683063209056854248046875" lon="6.89623086713254451751708984375">
        <ele>494.399993896484375</ele>
        <time>2013-09-01T16:12:03.000Z</time>
        <extensions>
          <ns3:TrackPointExtension>
            <ns3:atemp>18.0</ns3:atemp>
          </ns3:TrackPointExtension>
        </extensions>
      </trkpt>
      <trkpt lat="46.73669622279703617095947265625" lon="6.8962586112320423126220703125">
        <ele>494.79998779296875</ele>
        <time>2013-09-01T16:12:04.000Z</time>
        <extensions>
          <ns3:TrackPointExtension>
            <ns3:atemp>18.0</ns3:atemp>
          </ns3:TrackPointExtension>
        </extensions>
      </trkpt>
      <trkpt lat="46.73671089112758636474609375" lon="6.89628534950315952301025390625">
        <ele>494.79998779296875</ele>
        <time>2013-09-01T16:12:05.000Z</time>
        <extensions>
          <ns3:TrackPointExtension>
            <ns3:atemp>18.0</ns3:atemp>
          </ns3:TrackPointExtension>
        </extensions>
      </trkpt>
      <trkpt lat="46.73672623001039028167724609375" lon="6.89631837420165538787841796875">
        <ele>494.79998779296875</ele>
        <time>2013-09-01T16:12:06.000Z</time>
        <extensions>
          <ns3:TrackPointExtension>
            <ns3:atemp>18.0</ns3:atemp>
          </ns3:TrackPointExtension>
        </extensions>
      </trkpt>
      <trkpt lat="46.73674114979803562164306640625" lon="6.89634989015758037567138671875">
        <ele>494.600006103515625</ele>
        <time>2013-09-01T16:12:07.000Z</time>
        <extensions>
          <ns3:TrackPointExtension>
            <ns3:atemp>18.0</ns3:atemp>
          </ns3:TrackPointExtension>
        </extensions>
      </trkpt>
      <trkpt lat="46.73675875179469585418701171875" lon="6.8963826633989810943603515625">
        <ele>494.600006103515625</ele>
        <time>2013-09-01T16:12:08.000Z</time>
        <extensions>
          <ns3:TrackPointExtension>
            <ns3:atemp>18.0</ns3:atemp>
          </ns3:TrackPointExtension>
        </extensions>
      </trkpt>
      <trkpt lat="46.736778952181339263916015625" lon="6.89641275443136692047119140625">
        <ele>494.399993896484375</ele>
        <time>2013-09-01T16:12:09.000Z</time>
        <extensions>
          <ns3:TrackPointExtension>
            <ns3:atemp>18.0</ns3:atemp>
          </ns3:TrackPointExtension>
        </extensions>
      </trkpt>
      <trkpt lat="46.736798398196697235107421875" lon="6.8964426778256893157958984375">
        <ele>494.600006103515625</ele>
        <time>2013-09-01T16:12:10.000Z</time>
        <extensions>
          <ns3:TrackPointExtension>
            <ns3:atemp>18.0</ns3:atemp>
          </ns3:TrackPointExtension>
        </extensions>
      </trkpt>
      <trkpt lat="46.7368196882307529449462890625" lon="6.89646966755390167236328125">
        <ele>494.79998779296875</ele>
        <time>2013-09-01T16:12:11.000Z</time>
        <extensions>
          <ns3:TrackPointExtension>
            <ns3:atemp>18.0</ns3:atemp>
          </ns3:TrackPointExtension>
        </extensions>
      </trkpt>
      <trkpt lat="46.73684097826480865478515625" lon="6.89650051295757293701171875">
        <ele>495.20001220703125</ele>
        <time>2013-09-01T16:12:12.000Z</time>
        <extensions>
          <ns3:TrackPointExtension>
            <ns3:atemp>18.0</ns3:atemp>
          </ns3:TrackPointExtension>
        </extensions>
      </trkpt>
      <trkpt lat="46.73686386086046695709228515625" lon="6.89653177745640277862548828125">
        <ele>495.600006103515625</ele>
        <time>2013-09-01T16:12:13.000Z</time>
        <extensions>
          <ns3:TrackPointExtension>
            <ns3:atemp>18.0</ns3:atemp>
          </ns3:TrackPointExtension>
        </extensions>
      </trkpt>
      <trkpt lat="46.7368877492845058441162109375" lon="6.89656262286007404327392578125">
        <ele>495.600006103515625</ele>
        <time>2013-09-01T16:12:14.000Z</time>
        <extensions>
          <ns3:TrackPointExtension>
            <ns3:atemp>18.0</ns3:atemp>
          </ns3:TrackPointExtension>
        </extensions>
      </trkpt>
      <trkpt lat="46.7369068600237369537353515625" lon="6.89659413881599903106689453125">
        <ele>496</ele>
        <time>2013-09-01T16:12:15.000Z</time>
        <extensions>
          <ns3:TrackPointExtension>
            <ns3:atemp>18.0</ns3:atemp>
          </ns3:TrackPointExtension>
        </extensions>
      </trkpt>
      <trkpt lat="46.73692689277231693267822265625" lon="6.8966233916580677032470703125">
        <ele>496.399993896484375</ele>
        <time>2013-09-01T16:12:16.000Z</time>
        <extensions>
          <ns3:TrackPointExtension>
            <ns3:atemp>18.0</ns3:atemp>
          </ns3:TrackPointExtension>
        </extensions>
      </trkpt>
      <trkpt lat="46.7369487695395946502685546875" lon="6.89665465615689754486083984375">
        <ele>496.600006103515625</ele>
        <time>2013-09-01T16:12:17.000Z</time>
        <extensions>
          <ns3:TrackPointExtension>
            <ns3:atemp>18.0</ns3:atemp>
          </ns3:TrackPointExtension>
        </extensions>
      </trkpt>
      <trkpt lat="46.7369702272117137908935546875" lon="6.89668348990380764007568359375">
        <ele>496.600006103515625</ele>
        <time>2013-09-01T16:12:18.000Z</time>
        <extensions>
          <ns3:TrackPointExtension>
            <ns3:atemp>18.0</ns3:atemp>
          </ns3:TrackPointExtension>
        </extensions>
      </trkpt>
      <trkpt lat="46.7369943670928478240966796875" lon="6.8967117369174957275390625">
        <ele>496.399993896484375</ele>
        <time>2013-09-01T16:12:19.000Z</time>
        <extensions>
          <ns3:TrackPointExtension>
            <ns3:atemp>18.0</ns3:atemp>
          </ns3:TrackPointExtension>
        </extensions>
      </trkpt>
      <trkpt lat="46.737017668783664703369140625" lon="6.89674082212150096893310546875">
        <ele>496.399993896484375</ele>
        <time>2013-09-01T16:12:20.000Z</time>
        <extensions>
          <ns3:TrackPointExtension>
            <ns3:atemp>18.0</ns3:atemp>
          </ns3:TrackPointExtension>
        </extensions>
      </trkpt>
      <trkpt lat="46.7370372824370861053466796875" lon="6.89676881767809391021728515625">
        <ele>496.600006103515625</ele>
        <time>2013-09-01T16:12:21.000Z</time>
        <extensions>
          <ns3:TrackPointExtension>
            <ns3:atemp>18.0</ns3:atemp>
          </ns3:TrackPointExtension>
        </extensions>
      </trkpt>
      <trkpt lat="46.7370587401092052459716796875" lon="6.8967937119305133819580078125">
        <ele>497</ele>
        <time>2013-09-01T16:12:22.000Z</time>
        <extensions>
          <ns3:TrackPointExtension>
            <ns3:atemp>18.0</ns3:atemp>
          </ns3:TrackPointExtension>
        </extensions>
      </trkpt>
      <trkpt lat="46.7370785214006900787353515625" lon="6.8968201987445354461669921875">
        <ele>497.20001220703125</ele>
        <time>2013-09-01T16:12:23.000Z</time>
        <extensions>
          <ns3:TrackPointExtension>
            <ns3:atemp>18.0</ns3:atemp>
          </ns3:TrackPointExtension>
        </extensions>
      </trkpt>
      <trkpt lat="46.73709712922573089599609375" lon="6.89684911631047725677490234375">
        <ele>497.20001220703125</ele>
        <time>2013-09-01T16:12:24.000Z</time>
        <extensions>
          <ns3:TrackPointExtension>
            <ns3:atemp>18.0</ns3:atemp>
          </ns3:TrackPointExtension>
        </extensions>
      </trkpt>
      <trkpt lat="46.737120933830738067626953125" lon="6.89687375910580158233642578125">
        <ele>497.20001220703125</ele>
        <time>2013-09-01T16:12:25.000Z</time>
        <extensions>
          <ns3:TrackPointExtension>
            <ns3:atemp>18.0</ns3:atemp>
          </ns3:TrackPointExtension>
        </extensions>
      </trkpt>
      <trkpt lat="46.73714415170252323150634765625" lon="6.89690091647207736968994140625">
        <ele>497.399993896484375</ele>
        <time>2013-09-01T16:12:26.000Z</time>
        <extensions>
          <ns3:TrackPointExtension>
            <ns3:atemp>18.0</ns3:atemp>
          </ns3:TrackPointExtension>
        </extensions>
      </trkpt>
      <trkpt lat="46.7371661961078643798828125" lon="6.89692690037190914154052734375">
        <ele>497.600006103515625</ele>
        <time>2013-09-01T16:12:27.000Z</time>
        <extensions>
          <ns3:TrackPointExtension>
            <ns3:atemp>18.0</ns3:atemp>
          </ns3:TrackPointExtension>
        </extensions>
      </trkpt>
      <trkpt lat="46.73718958161771297454833984375" lon="6.89695405773818492889404296875">
        <ele>497.600006103515625</ele>
        <time>2013-09-01T16:12:28.000Z</time>
        <extensions>
          <ns3:TrackPointExtension>
            <ns3:atemp>18.0</ns3:atemp>
          </ns3:TrackPointExtension>
        </extensions>
      </trkpt>
      <trkpt lat="46.73721204511821269989013671875" lon="6.89697870053350925445556640625">
        <ele>497.600006103515625</ele>
        <time>2013-09-01T16:12:29.000Z</time>
        <extensions>
          <ns3:TrackPointExtension>
            <ns3:atemp>18.0</ns3:atemp>
          </ns3:TrackPointExtension>
        </extensions>
      </trkpt>
      <trkpt lat="46.73723249696195125579833984375" lon="6.89700636081397533416748046875">
        <ele>497.600006103515625</ele>
        <time>2013-09-01T16:12:30.000Z</time>
        <extensions>
          <ns3:TrackPointExtension>
            <ns3:atemp>18.0</ns3:atemp>
          </ns3:TrackPointExtension>
        </extensions>
      </trkpt>
      <trkpt lat="46.737256385385990142822265625" lon="6.8970334343612194061279296875">
        <ele>497.600006103515625</ele>
        <time>2013-09-01T16:12:31.000Z</time>
        <extensions>
          <ns3:TrackPointExtension>
            <ns3:atemp>18.0</ns3:atemp>
          </ns3:TrackPointExtension>
        </extensions>
      </trkpt>
      <trkpt lat="46.7372780106961727142333984375" lon="6.89706109464168548583984375">
        <ele>497.600006103515625</ele>
        <time>2013-09-01T16:12:32.000Z</time>
        <extensions>
          <ns3:TrackPointExtension>
            <ns3:atemp>18.0</ns3:atemp>
          </ns3:TrackPointExtension>
        </extensions>
      </trkpt>
      <trkpt lat="46.73729829490184783935546875" lon="6.8970921076834201812744140625">
        <ele>497.79998779296875</ele>
        <time>2013-09-01T16:12:33.000Z</time>
        <extensions>
          <ns3:TrackPointExtension>
            <ns3:atemp>18.0</ns3:atemp>
          </ns3:TrackPointExtension>
        </extensions>
      </trkpt>
      <trkpt lat="46.7373175732791423797607421875" lon="6.897120773792266845703125">
        <ele>498</ele>
        <time>2013-09-01T16:12:34.000Z</time>
        <extensions>
          <ns3:TrackPointExtension>
            <ns3:atemp>18.0</ns3:atemp>
          </ns3:TrackPointExtension>
        </extensions>
      </trkpt>
      <trkpt lat="46.73733986914157867431640625" lon="6.8971470929682254791259765625">
        <ele>498.20001220703125</ele>
        <time>2013-09-01T16:12:35.000Z</time>
        <extensions>
          <ns3:TrackPointExtension>
            <ns3:atemp>18.0</ns3:atemp>
          </ns3:TrackPointExtension>
        </extensions>
      </trkpt>
      <trkpt lat="46.73736241646111011505126953125" lon="6.8971757590770721435546875">
        <ele>498.399993896484375</ele>
        <time>2013-09-01T16:12:36.000Z</time>
        <extensions>
          <ns3:TrackPointExtension>
            <ns3:atemp>18.0</ns3:atemp>
          </ns3:TrackPointExtension>
        </extensions>
      </trkpt>
      <trkpt lat="46.73738622106611728668212890625" lon="6.8972024135291576385498046875">
        <ele>498.399993896484375</ele>
        <time>2013-09-01T16:12:37.000Z</time>
        <extensions>
          <ns3:TrackPointExtension>
            <ns3:atemp>18.0</ns3:atemp>
          </ns3:TrackPointExtension>
        </extensions>
      </trkpt>
      <trkpt lat="46.737412624061107635498046875" lon="6.89722730778157711029052734375">
        <ele>498.600006103515625</ele>
        <time>2013-09-01T16:12:38.000Z</time>
        <extensions>
          <ns3:TrackPointExtension>
            <ns3:atemp>18.0</ns3:atemp>
          </ns3:TrackPointExtension>
        </extensions>
      </trkpt>
      <trkpt lat="46.73743785358965396881103515625" lon="6.89725547097623348236083984375">
        <ele>498.79998779296875</ele>
        <time>2013-09-01T16:12:39.000Z</time>
        <extensions>
          <ns3:TrackPointExtension>
            <ns3:atemp>18.0</ns3:atemp>
          </ns3:TrackPointExtension>
        </extensions>
      </trkpt>
      <trkpt lat="46.737462580204010009765625" lon="6.89728229306638240814208984375">
        <ele>498.79998779296875</ele>
        <time>2013-09-01T16:12:40.000Z</time>
        <extensions>
          <ns3:TrackPointExtension>
            <ns3:atemp>18.0</ns3:atemp>
          </ns3:TrackPointExtension>
        </extensions>
      </trkpt>
      <trkpt lat="46.73749116249382495880126953125" lon="6.897308863699436187744140625">
        <ele>499</ele>
        <time>2013-09-01T16:12:41.000Z</time>
        <extensions>
          <ns3:TrackPointExtension>
            <ns3:atemp>18.0</ns3:atemp>
          </ns3:TrackPointExtension>
        </extensions>
      </trkpt>
      <trkpt lat="46.73751831986010074615478515625" lon="6.89733677543699741363525390625">
        <ele>499.399993896484375</ele>
        <time>2013-09-01T16:12:42.000Z</time>
        <extensions>
          <ns3:TrackPointExtension>
            <ns3:atemp>18.0</ns3:atemp>
          </ns3:TrackPointExtension>
        </extensions>
      </trkpt>
      <trkpt lat="46.73754505813121795654296875" lon="6.89736762084066867828369140625">
        <ele>499.600006103515625</ele>
        <time>2013-09-01T16:12:43.000Z</time>
        <extensions>
          <ns3:TrackPointExtension>
            <ns3:atemp>18.0</ns3:atemp>
          </ns3:TrackPointExtension>
        </extensions>
      </trkpt>
      <trkpt lat="46.7375723831355571746826171875" lon="6.89739578403532505035400390625">
        <ele>499.79998779296875</ele>
        <time>2013-09-01T16:12:44.000Z</time>
        <extensions>
          <ns3:TrackPointExtension>
            <ns3:atemp>18.0</ns3:atemp>
          </ns3:TrackPointExtension>
        </extensions>
      </trkpt>
      <trkpt lat="46.7375980317592620849609375" lon="6.89742746762931346893310546875">
        <ele>499.600006103515625</ele>
        <time>2013-09-01T16:12:45.000Z</time>
        <extensions>
          <ns3:TrackPointExtension>
            <ns3:atemp>18.0</ns3:atemp>
          </ns3:TrackPointExtension>
        </extensions>
      </trkpt>
      <trkpt lat="46.73762292601168155670166015625" lon="6.89746049232780933380126953125">
        <ele>499.79998779296875</ele>
        <time>2013-09-01T16:12:46.000Z</time>
        <extensions>
          <ns3:TrackPointExtension>
            <ns3:atemp>18.0</ns3:atemp>
          </ns3:TrackPointExtension>
        </extensions>
      </trkpt>
      <trkpt lat="46.73764907754957675933837890625" lon="6.8974853865802288055419921875">
        <ele>500</ele>
        <time>2013-09-01T16:12:47.000Z</time>
        <extensions>
          <ns3:TrackPointExtension>
            <ns3:atemp>18.0</ns3:atemp>
          </ns3:TrackPointExtension>
        </extensions>
      </trkpt>
      <trkpt lat="46.7376773245632648468017578125" lon="6.89751195721328258514404296875">
        <ele>500.20001220703125</ele>
        <time>2013-09-01T16:12:48.000Z</time>
        <extensions>
          <ns3:TrackPointExtension>
            <ns3:atemp>18.0</ns3:atemp>
          </ns3:TrackPointExtension>
        </extensions>
      </trkpt>
      <trkpt lat="46.7377058230340480804443359375" lon="6.897537522017955780029296875">
        <ele>500.399993896484375</ele>
        <time>2013-09-01T16:12:49.000Z</time>
        <extensions>
          <ns3:TrackPointExtension>
            <ns3:atemp>18.0</ns3:atemp>
          </ns3:TrackPointExtension>
        </extensions>
      </trkpt>
      <trkpt lat="46.73773490823805332183837890625" lon="6.89756275154650211334228515625">
        <ele>500.79998779296875</ele>
        <time>2013-09-01T16:12:50.000Z</time>
        <extensions>
          <ns3:TrackPointExtension>
            <ns3:atemp>18.0</ns3:atemp>
          </ns3:TrackPointExtension>
        </extensions>
      </trkpt>
      <trkpt lat="46.73776173032820224761962890625" lon="6.89759175293147563934326171875">
        <ele>501</ele>
        <time>2013-09-01T16:12:51.000Z</time>
        <extensions>
          <ns3:TrackPointExtension>
            <ns3:atemp>18.0</ns3:atemp>
          </ns3:TrackPointExtension>
        </extensions>
      </trkpt>
      <trkpt lat="46.73778620548546314239501953125" lon="6.8976223468780517578125">
        <ele>501</ele>
        <time>2013-09-01T16:12:52.000Z</time>
        <extensions>
          <ns3:TrackPointExtension>
            <ns3:atemp>18.0</ns3:atemp>
          </ns3:TrackPointExtension>
        </extensions>
      </trkpt>
      <trkpt lat="46.73781520687043666839599609375" lon="6.89764916896820068359375">
        <ele>501</ele>
        <time>2013-09-01T16:12:53.000Z</time>
        <extensions>
          <ns3:TrackPointExtension>
            <ns3:atemp>18.0</ns3:atemp>
          </ns3:TrackPointExtension>
        </extensions>
      </trkpt>
      <trkpt lat="46.7378436215221881866455078125" lon="6.8976781703531742095947265625">
        <ele>500.79998779296875</ele>
        <time>2013-09-01T16:12:54.000Z</time>
        <extensions>
          <ns3:TrackPointExtension>
            <ns3:atemp>18.0</ns3:atemp>
          </ns3:TrackPointExtension>
        </extensions>
      </trkpt>
      <trkpt lat="46.737869940698146820068359375" lon="6.8977076746523380279541015625">
        <ele>500.79998779296875</ele>
        <time>2013-09-01T16:12:55.000Z</time>
        <extensions>
          <ns3:TrackPointExtension>
            <ns3:atemp>18.0</ns3:atemp>
          </ns3:TrackPointExtension>
        </extensions>
      </trkpt>
      <trkpt lat="46.7378969304263591766357421875" lon="6.89773592166602611541748046875">
        <ele>501.20001220703125</ele>
        <time>2013-09-01T16:12:56.000Z</time>
        <extensions>
          <ns3:TrackPointExtension>
            <ns3:atemp>18.0</ns3:atemp>
          </ns3:TrackPointExtension>
        </extensions>
      </trkpt>
      <trkpt lat="46.73792366869747638702392578125" lon="6.897763498127460479736328125">
        <ele>501.399993896484375</ele>
        <time>2013-09-01T16:12:57.000Z</time>
        <extensions>
          <ns3:TrackPointExtension>
            <ns3:atemp>18.0</ns3:atemp>
          </ns3:TrackPointExtension>
        </extensions>
      </trkpt>
      <trkpt lat="46.73795049078762531280517578125" lon="6.8977931700646877288818359375">
        <ele>501.600006103515625</ele>
        <time>2013-09-01T16:12:58.000Z</time>
        <extensions>
          <ns3:TrackPointExtension>
            <ns3:atemp>18.0</ns3:atemp>
          </ns3:TrackPointExtension>
        </extensions>
      </trkpt>
      <trkpt lat="46.73797882162034511566162109375" lon="6.89782150089740753173828125">
        <ele>501.600006103515625</ele>
        <time>2013-09-01T16:12:59.000Z</time>
        <extensions>
          <ns3:TrackPointExtension>
            <ns3:atemp>18.0</ns3:atemp>
          </ns3:TrackPointExtension>
        </extensions>
      </trkpt>
      <trkpt lat="46.73800664953887462615966796875" lon="6.89785259775817394256591796875">
        <ele>501.600006103515625</ele>
        <time>2013-09-01T16:13:00.000Z</time>
        <extensions>
          <ns3:TrackPointExtension>
            <ns3:atemp>18.0</ns3:atemp>
          </ns3:TrackPointExtension>
        </extensions>
      </trkpt>
      <trkpt lat="46.738035567104816436767578125" lon="6.89788076095283031463623046875">
        <ele>501.79998779296875</ele>
        <time>2013-09-01T16:13:01.000Z</time>
        <extensions>
          <ns3:TrackPointExtension>
            <ns3:atemp>18.0</ns3:atemp>
          </ns3:TrackPointExtension>
        </extensions>
      </trkpt>
      <trkpt lat="46.738064400851726531982421875" lon="6.8979091756045818328857421875">
        <ele>502</ele>
        <time>2013-09-01T16:13:02.000Z</time>
        <extensions>
          <ns3:TrackPointExtension>
            <ns3:atemp>18.0</ns3:atemp>
          </ns3:TrackPointExtension>
        </extensions>
      </trkpt>
      <trkpt lat="46.738092899322509765625" lon="6.8979420326650142669677734375">
        <ele>502.20001220703125</ele>
        <time>2013-09-01T16:13:03.000Z</time>
        <extensions>
          <ns3:TrackPointExtension>
            <ns3:atemp>18.0</ns3:atemp>
          </ns3:TrackPointExtension>
        </extensions>
      </trkpt>
      <trkpt lat="46.73812441527843475341796875" lon="6.89797681756317615509033203125">
        <ele>502.20001220703125</ele>
        <time>2013-09-01T16:13:04.000Z</time>
        <extensions>
          <ns3:TrackPointExtension>
            <ns3:atemp>18.0</ns3:atemp>
          </ns3:TrackPointExtension>
        </extensions>
      </trkpt>
      <trkpt lat="46.73815584741532802581787109375" lon="6.898016296327114105224609375">
        <ele>502.20001220703125</ele>
        <time>2013-09-01T16:13:05.000Z</time>
        <extensions>
          <ns3:TrackPointExtension>
            <ns3:atemp>18.0</ns3:atemp>
          </ns3:TrackPointExtension>
        </extensions>
      </trkpt>
      <trkpt lat="46.73818686045706272125244140625" lon="6.8980533443391323089599609375">
        <ele>502.20001220703125</ele>
        <time>2013-09-01T16:13:06.000Z</time>
        <extensions>
          <ns3:TrackPointExtension>
            <ns3:atemp>18.0</ns3:atemp>
          </ns3:TrackPointExtension>
        </extensions>
      </trkpt>
      <trkpt lat="46.7382204718887805938720703125" lon="6.8980999477207660675048828125">
        <ele>502.20001220703125</ele>
        <time>2013-09-01T16:13:07.000Z</time>
        <extensions>
          <ns3:TrackPointExtension>
            <ns3:atemp>18.0</ns3:atemp>
          </ns3:TrackPointExtension>
        </extensions>
      </trkpt>
      <trkpt lat="46.7382560111582279205322265625" lon="6.8981440365314483642578125">
        <ele>502.20001220703125</ele>
        <time>2013-09-01T16:13:08.000Z</time>
        <extensions>
          <ns3:TrackPointExtension>
            <ns3:atemp>18.0</ns3:atemp>
          </ns3:TrackPointExtension>
        </extensions>
      </trkpt>
      <trkpt lat="46.73829431645572185516357421875" lon="6.89818586222827434539794921875">
        <ele>502.600006103515625</ele>
        <time>2013-09-01T16:13:09.000Z</time>
        <extensions>
          <ns3:TrackPointExtension>
            <ns3:atemp>18.0</ns3:atemp>
          </ns3:TrackPointExtension>
        </extensions>
      </trkpt>
      <trkpt lat="46.73833186738193035125732421875" lon="6.898230202496051788330078125">
        <ele>502.79998779296875</ele>
        <time>2013-09-01T16:13:10.000Z</time>
        <extensions>
          <ns3:TrackPointExtension>
            <ns3:atemp>18.0</ns3:atemp>
          </ns3:TrackPointExtension>
        </extensions>
      </trkpt>
      <trkpt lat="46.73836958594620227813720703125" lon="6.89827219583094120025634765625">
        <ele>503</ele>
        <time>2013-09-01T16:13:11.000Z</time>
        <extensions>
          <ns3:TrackPointExtension>
            <ns3:atemp>18.0</ns3:atemp>
          </ns3:TrackPointExtension>
        </extensions>
      </trkpt>
      <trkpt lat="46.73840831033885478973388671875" lon="6.898315362632274627685546875">
        <ele>503</ele>
        <time>2013-09-01T16:13:12.000Z</time>
        <extensions>
          <ns3:TrackPointExtension>
            <ns3:atemp>18.0</ns3:atemp>
          </ns3:TrackPointExtension>
        </extensions>
      </trkpt>
      <trkpt lat="46.73844636417925357818603515625" lon="6.89835794270038604736328125">
        <ele>503.399993896484375</ele>
        <time>2013-09-01T16:13:13.000Z</time>
        <extensions>
          <ns3:TrackPointExtension>
            <ns3:atemp>18.0</ns3:atemp>
          </ns3:TrackPointExtension>
        </extensions>
      </trkpt>
      <trkpt lat="46.73848676495254039764404296875" lon="6.89839817583560943603515625">
        <ele>503.600006103515625</ele>
        <time>2013-09-01T16:13:14.000Z</time>
        <extensions>
          <ns3:TrackPointExtension>
            <ns3:atemp>18.0</ns3:atemp>
          </ns3:TrackPointExtension>
        </extensions>
      </trkpt>
      <trkpt lat="46.73852808773517608642578125" lon="6.89844134263694286346435546875">
        <ele>503.600006103515625</ele>
        <time>2013-09-01T16:13:15.000Z</time>
        <extensions>
          <ns3:TrackPointExtension>
            <ns3:atemp>18.0</ns3:atemp>
          </ns3:TrackPointExtension>
        </extensions>
      </trkpt>
      <trkpt lat="46.73856941051781177520751953125" lon="6.8984845094382762908935546875">
        <ele>503.79998779296875</ele>
        <time>2013-09-01T16:13:16.000Z</time>
        <extensions>
          <ns3:TrackPointExtension>
            <ns3:atemp>18.0</ns3:atemp>
          </ns3:TrackPointExtension>
        </extensions>
      </trkpt>
      <trkpt lat="46.73860964365303516387939453125" lon="6.8985275924205780029296875">
        <ele>503.79998779296875</ele>
        <time>2013-09-01T16:13:17.000Z</time>
        <extensions>
          <ns3:TrackPointExtension>
            <ns3:atemp>18.0</ns3:atemp>
          </ns3:TrackPointExtension>
        </extensions>
      </trkpt>
      <trkpt lat="46.7386486195027828216552734375" lon="6.898572184145450592041015625">
        <ele>504</ele>
        <time>2013-09-01T16:13:18.000Z</time>
        <extensions>
          <ns3:TrackPointExtension>
            <ns3:atemp>18.0</ns3:atemp>
          </ns3:TrackPointExtension>
        </extensions>
      </trkpt>
      <trkpt lat="46.73868541605770587921142578125" lon="6.8986142612993717193603515625">
        <ele>504.399993896484375</ele>
        <time>2013-09-01T16:13:19.000Z</time>
        <extensions>
          <ns3:TrackPointExtension>
            <ns3:atemp>18.0</ns3:atemp>
          </ns3:TrackPointExtension>
        </extensions>
      </trkpt>
      <trkpt lat="46.738722212612628936767578125" lon="6.89866044558584690093994140625">
        <ele>505</ele>
        <time>2013-09-01T16:13:20.000Z</time>
        <extensions>
          <ns3:TrackPointExtension>
            <ns3:atemp>18.0</ns3:atemp>
          </ns3:TrackPointExtension>
        </extensions>
      </trkpt>
      <trkpt lat="46.7387575842440128326416015625" lon="6.89870973117649555206298828125">
        <ele>505.399993896484375</ele>
        <time>2013-09-01T16:13:21.000Z</time>
        <extensions>
          <ns3:TrackPointExtension>
            <ns3:atemp>18.0</ns3:atemp>
          </ns3:TrackPointExtension>
        </extensions>
      </trkpt>
      <trkpt lat="46.738791950047016143798828125" lon="6.89876002259552478790283203125">
        <ele>505.20001220703125</ele>
        <time>2013-09-01T16:13:22.000Z</time>
        <extensions>
          <ns3:TrackPointExtension>
            <ns3:atemp>18.0</ns3:atemp>
          </ns3:TrackPointExtension>
        </extensions>
      </trkpt>
      <trkpt lat="46.73882782459259033203125" lon="6.8988092243671417236328125">
        <ele>505.20001220703125</ele>
        <time>2013-09-01T16:13:23.000Z</time>
        <extensions>
          <ns3:TrackPointExtension>
            <ns3:atemp>18.0</ns3:atemp>
          </ns3:TrackPointExtension>
        </extensions>
      </trkpt>
      <trkpt lat="46.73886210657656192779541015625" lon="6.89886177890002727508544921875">
        <ele>505.20001220703125</ele>
        <time>2013-09-01T16:13:24.000Z</time>
        <extensions>
          <ns3:TrackPointExtension>
            <ns3:atemp>18.0</ns3:atemp>
          </ns3:TrackPointExtension>
        </extensions>
      </trkpt>
      <trkpt lat="46.73889731056988239288330078125" lon="6.898914836347103118896484375">
        <ele>505</ele>
        <time>2013-09-01T16:13:25.000Z</time>
        <extensions>
          <ns3:TrackPointExtension>
            <ns3:atemp>18.0</ns3:atemp>
          </ns3:TrackPointExtension>
        </extensions>
      </trkpt>
      <trkpt lat="46.738934107124805450439453125" lon="6.89896588213741779327392578125">
        <ele>505</ele>
        <time>2013-09-01T16:13:26.000Z</time>
        <extensions>
          <ns3:TrackPointExtension>
            <ns3:atemp>18.0</ns3:atemp>
          </ns3:TrackPointExtension>
        </extensions>
      </trkpt>
      <trkpt lat="46.7389708198606967926025390625" lon="6.8990189395844936370849609375">
        <ele>505.20001220703125</ele>
        <time>2013-09-01T16:13:27.000Z</time>
        <extensions>
          <ns3:TrackPointExtension>
            <ns3:atemp>18.0</ns3:atemp>
          </ns3:TrackPointExtension>
        </extensions>
      </trkpt>
      <trkpt lat="46.73900694586336612701416015625" lon="6.8990747630596160888671875">
        <ele>505.79998779296875</ele>
        <time>2013-09-01T16:13:28.000Z</time>
        <extensions>
          <ns3:TrackPointExtension>
            <ns3:atemp>18.0</ns3:atemp>
          </ns3:TrackPointExtension>
        </extensions>
      </trkpt>
      <trkpt lat="46.73904131166636943817138671875" lon="6.89912782050669193267822265625">
        <ele>505.600006103515625</ele>
        <time>2013-09-01T16:13:29.000Z</time>
        <extensions>
          <ns3:TrackPointExtension>
            <ns3:atemp>18.0</ns3:atemp>
          </ns3:TrackPointExtension>
        </extensions>
      </trkpt>
      <trkpt lat="46.73907685093581676483154296875" lon="6.89918179996311664581298828125">
        <ele>505.399993896484375</ele>
        <time>2013-09-01T16:13:30.000Z</time>
        <extensions>
          <ns3:TrackPointExtension>
            <ns3:atemp>18.0</ns3:atemp>
          </ns3:TrackPointExtension>
        </extensions>
      </trkpt>
      <trkpt lat="46.7391106300055980682373046875" lon="6.8992303311824798583984375">
        <ele>504.79998779296875</ele>
        <time>2013-09-01T16:13:31.000Z</time>
        <extensions>
          <ns3:TrackPointExtension>
            <ns3:atemp>18.0</ns3:atemp>
          </ns3:TrackPointExtension>
        </extensions>
      </trkpt>
      <trkpt lat="46.7391441576182842254638671875" lon="6.8992858193814754486083984375">
        <ele>505</ele>
        <time>2013-09-01T16:13:32.000Z</time>
        <extensions>
          <ns3:TrackPointExtension>
            <ns3:atemp>18.0</ns3:atemp>
          </ns3:TrackPointExtension>
        </extensions>
      </trkpt>
      <trkpt lat="46.73917911015450954437255859375" lon="6.89934273250401020050048828125">
        <ele>505.20001220703125</ele>
        <time>2013-09-01T16:13:33.000Z</time>
        <extensions>
          <ns3:TrackPointExtension>
            <ns3:atemp>18.0</ns3:atemp>
          </ns3:TrackPointExtension>
        </extensions>
      </trkpt>
      <trkpt lat="46.7392135597765445709228515625" lon="6.8993974663317203521728515625">
        <ele>505</ele>
        <time>2013-09-01T16:13:34.000Z</time>
        <extensions>
          <ns3:TrackPointExtension>
            <ns3:atemp>18.0</ns3:atemp>
          </ns3:TrackPointExtension>
        </extensions>
      </trkpt>
      <trkpt lat="46.73924960196018218994140625" lon="6.8994514457881450653076171875">
        <ele>504.79998779296875</ele>
        <time>2013-09-01T16:13:35.000Z</time>
        <extensions>
          <ns3:TrackPointExtension>
            <ns3:atemp>18.0</ns3:atemp>
          </ns3:TrackPointExtension>
        </extensions>
      </trkpt>
      <trkpt lat="46.73928539268672466278076171875" lon="6.89950400032103061676025390625">
        <ele>504.600006103515625</ele>
        <time>2013-09-01T16:13:36.000Z</time>
        <extensions>
          <ns3:TrackPointExtension>
            <ns3:atemp>18.0</ns3:atemp>
          </ns3:TrackPointExtension>
        </extensions>
      </trkpt>
      <trkpt lat="46.73932160250842571258544921875" lon="6.89955546520650386810302734375">
        <ele>504.79998779296875</ele>
        <time>2013-09-01T16:13:37.000Z</time>
        <extensions>
          <ns3:TrackPointExtension>
            <ns3:atemp>18.0</ns3:atemp>
          </ns3:TrackPointExtension>
        </extensions>
      </trkpt>
      <trkpt lat="46.7393567226827144622802734375" lon="6.89960927702486515045166015625">
        <ele>505</ele>
        <time>2013-09-01T16:13:38.000Z</time>
        <extensions>
          <ns3:TrackPointExtension>
            <ns3:atemp>18.0</ns3:atemp>
          </ns3:TrackPointExtension>
        </extensions>
      </trkpt>
      <trkpt lat="46.7393925972282886505126953125" lon="6.8996606580913066864013671875">
        <ele>505.20001220703125</ele>
        <time>2013-09-01T16:13:39.000Z</time>
        <extensions>
          <ns3:TrackPointExtension>
            <ns3:atemp>18.0</ns3:atemp>
          </ns3:TrackPointExtension>
        </extensions>
      </trkpt>
      <trkpt lat="46.739427633583545684814453125" lon="6.89971187151968479156494140625">
        <ele>505.20001220703125</ele>
        <time>2013-09-01T16:13:40.000Z</time>
        <extensions>
          <ns3:TrackPointExtension>
            <ns3:atemp>18.0</ns3:atemp>
          </ns3:TrackPointExtension>
        </extensions>
      </trkpt>
      <trkpt lat="46.73946241848170757293701171875" lon="6.89976274967193603515625">
        <ele>505.20001220703125</ele>
        <time>2013-09-01T16:13:41.000Z</time>
        <extensions>
          <ns3:TrackPointExtension>
            <ns3:atemp>18.0</ns3:atemp>
          </ns3:TrackPointExtension>
        </extensions>
      </trkpt>
      <trkpt lat="46.73949611373245716094970703125" lon="6.899813376367092132568359375">
        <ele>505.399993896484375</ele>
        <time>2013-09-01T16:13:42.000Z</time>
        <extensions>
          <ns3:TrackPointExtension>
            <ns3:atemp>18.0</ns3:atemp>
          </ns3:TrackPointExtension>
        </extensions>
      </trkpt>
      <trkpt lat="46.73953123390674591064453125" lon="6.89986224286258220672607421875">
        <ele>505.399993896484375</ele>
        <time>2013-09-01T16:13:43.000Z</time>
        <extensions>
          <ns3:TrackPointExtension>
            <ns3:atemp>18.0</ns3:atemp>
          </ns3:TrackPointExtension>
        </extensions>
      </trkpt>
      <trkpt lat="46.7395666055381298065185546875" lon="6.89991169609129428863525390625">
        <ele>505.600006103515625</ele>
        <time>2013-09-01T16:13:44.000Z</time>
        <extensions>
          <ns3:TrackPointExtension>
            <ns3:atemp>18.0</ns3:atemp>
          </ns3:TrackPointExtension>
        </extensions>
      </trkpt>
      <trkpt lat="46.739603318274021148681640625" lon="6.89995930530130863189697265625">
        <ele>505.79998779296875</ele>
        <time>2013-09-01T16:13:45.000Z</time>
        <extensions>
          <ns3:TrackPointExtension>
            <ns3:atemp>18.0</ns3:atemp>
          </ns3:TrackPointExtension>
        </extensions>
      </trkpt>
      <trkpt lat="46.73963944427669048309326171875" lon="6.900007165968418121337890625">
        <ele>505.79998779296875</ele>
        <time>2013-09-01T16:13:46.000Z</time>
        <extensions>
          <ns3:TrackPointExtension>
            <ns3:atemp>18.0</ns3:atemp>
          </ns3:TrackPointExtension>
        </extensions>
      </trkpt>
      <trkpt lat="46.73967339098453521728515625" lon="6.90005972050130367279052734375">
        <ele>505.79998779296875</ele>
        <time>2013-09-01T16:13:47.000Z</time>
        <extensions>
          <ns3:TrackPointExtension>
            <ns3:atemp>18.0</ns3:atemp>
          </ns3:TrackPointExtension>
        </extensions>
      </trkpt>
      <trkpt lat="46.73970666714012622833251953125" lon="6.90010766498744487762451171875">
        <ele>506</ele>
        <time>2013-09-01T16:13:48.000Z</time>
        <extensions>
          <ns3:TrackPointExtension>
            <ns3:atemp>18.0</ns3:atemp>
          </ns3:TrackPointExtension>
        </extensions>
      </trkpt>
      <trkpt lat="46.73974581062793731689453125" lon="6.90015234053134918212890625">
        <ele>506</ele>
        <time>2013-09-01T16:13:49.000Z</time>
        <extensions>
          <ns3:TrackPointExtension>
            <ns3:atemp>18.0</ns3:atemp>
          </ns3:TrackPointExtension>
        </extensions>
      </trkpt>
      <trkpt lat="46.73978612758219242095947265625" lon="6.90020573325455188751220703125">
        <ele>506</ele>
        <time>2013-09-01T16:13:50.000Z</time>
        <extensions>
          <ns3:TrackPointExtension>
            <ns3:atemp>18.0</ns3:atemp>
          </ns3:TrackPointExtension>
        </extensions>
      </trkpt>
      <trkpt lat="46.73982770182192325592041015625" lon="6.90026088617742061614990234375">
        <ele>506</ele>
        <time>2013-09-01T16:13:51.000Z</time>
        <extensions>
          <ns3:TrackPointExtension>
            <ns3:atemp>18.0</ns3:atemp>
          </ns3:TrackPointExtension>
        </extensions>
      </trkpt>
      <trkpt lat="46.73986659385263919830322265625" lon="6.90031050704419612884521484375">
        <ele>506.20001220703125</ele>
        <time>2013-09-01T16:13:52.000Z</time>
        <extensions>
          <ns3:TrackPointExtension>
            <ns3:atemp>18.0</ns3:atemp>
          </ns3:TrackPointExtension>
        </extensions>
      </trkpt>
      <trkpt lat="46.7399089224636554718017578125" lon="6.90035928972065448760986328125">
        <ele>506.399993896484375</ele>
        <time>2013-09-01T16:13:53.000Z</time>
        <extensions>
          <ns3:TrackPointExtension>
            <ns3:atemp>18.0</ns3:atemp>
          </ns3:TrackPointExtension>
        </extensions>
      </trkpt>
      <trkpt lat="46.739952675998210906982421875" lon="6.9004113413393497467041015625">
        <ele>506.399993896484375</ele>
        <time>2013-09-01T16:13:54.000Z</time>
        <extensions>
          <ns3:TrackPointExtension>
            <ns3:atemp>18.0</ns3:atemp>
          </ns3:TrackPointExtension>
        </extensions>
      </trkpt>
      <trkpt lat="46.7399920709431171417236328125" lon="6.9004676677286624908447265625">
        <ele>506.600006103515625</ele>
        <time>2013-09-01T16:13:55.000Z</time>
        <extensions>
          <ns3:TrackPointExtension>
            <ns3:atemp>18.0</ns3:atemp>
          </ns3:TrackPointExtension>
        </extensions>
      </trkpt>
      <trkpt lat="46.740031801164150238037109375" lon="6.90052248537540435791015625">
        <ele>506.600006103515625</ele>
        <time>2013-09-01T16:13:56.000Z</time>
        <extensions>
          <ns3:TrackPointExtension>
            <ns3:atemp>18.0</ns3:atemp>
          </ns3:TrackPointExtension>
        </extensions>
      </trkpt>
      <trkpt lat="46.74007597379386425018310546875" lon="6.90057478845119476318359375">
        <ele>506.600006103515625</ele>
        <time>2013-09-01T16:13:57.000Z</time>
        <extensions>
          <ns3:TrackPointExtension>
            <ns3:atemp>18.0</ns3:atemp>
          </ns3:TrackPointExtension>
        </extensions>
      </trkpt>
      <trkpt lat="46.740121655166149139404296875" lon="6.9006277620792388916015625">
        <ele>506.399993896484375</ele>
        <time>2013-09-01T16:13:58.000Z</time>
        <extensions>
          <ns3:TrackPointExtension>
            <ns3:atemp>18.0</ns3:atemp>
          </ns3:TrackPointExtension>
        </extensions>
      </trkpt>
      <trkpt lat="46.74016633071005344390869140625" lon="6.900680065155029296875">
        <ele>506.600006103515625</ele>
        <time>2013-09-01T16:13:59.000Z</time>
        <extensions>
          <ns3:TrackPointExtension>
            <ns3:atemp>18.0</ns3:atemp>
          </ns3:TrackPointExtension>
        </extensions>
      </trkpt>
      <trkpt lat="46.74021226353943347930908203125" lon="6.90073194913566112518310546875">
        <ele>506.79998779296875</ele>
        <time>2013-09-01T16:14:00.000Z</time>
        <extensions>
          <ns3:TrackPointExtension>
            <ns3:atemp>18.0</ns3:atemp>
          </ns3:TrackPointExtension>
        </extensions>
      </trkpt>
      <trkpt lat="46.740257441997528076171875" lon="6.900785006582736968994140625">
        <ele>506.600006103515625</ele>
        <time>2013-09-01T16:14:01.000Z</time>
        <extensions>
          <ns3:TrackPointExtension>
            <ns3:atemp>18.0</ns3:atemp>
          </ns3:TrackPointExtension>
        </extensions>
      </trkpt>
      <trkpt lat="46.74030345864593982696533203125" lon="6.90083756111562252044677734375">
        <ele>506.399993896484375</ele>
        <time>2013-09-01T16:14:02.000Z</time>
        <extensions>
          <ns3:TrackPointExtension>
            <ns3:atemp>18.0</ns3:atemp>
          </ns3:TrackPointExtension>
        </extensions>
      </trkpt>
      <trkpt lat="46.74034955911338329315185546875" lon="6.90089271403849124908447265625">
        <ele>506.600006103515625</ele>
        <time>2013-09-01T16:14:03.000Z</time>
        <extensions>
          <ns3:TrackPointExtension>
            <ns3:atemp>18.0</ns3:atemp>
          </ns3:TrackPointExtension>
        </extensions>
      </trkpt>
      <trkpt lat="46.7403967492282390594482421875" lon="6.90094468183815479278564453125">
        <ele>506.600006103515625</ele>
        <time>2013-09-01T16:14:04.000Z</time>
        <extensions>
          <ns3:TrackPointExtension>
            <ns3:atemp>18.0</ns3:atemp>
          </ns3:TrackPointExtension>
        </extensions>
      </trkpt>
      <trkpt lat="46.74044410698115825653076171875" lon="6.90099597908556461334228515625">
        <ele>506.399993896484375</ele>
        <time>2013-09-01T16:14:05.000Z</time>
        <extensions>
          <ns3:TrackPointExtension>
            <ns3:atemp>18.0</ns3:atemp>
          </ns3:TrackPointExtension>
        </extensions>
      </trkpt>
      <trkpt lat="46.74049372784793376922607421875" lon="6.90104543231427669525146484375">
        <ele>506.399993896484375</ele>
        <time>2013-09-01T16:14:06.000Z</time>
        <extensions>
          <ns3:TrackPointExtension>
            <ns3:atemp>18.0</ns3:atemp>
          </ns3:TrackPointExtension>
        </extensions>
      </trkpt>
      <trkpt lat="46.7405399121344089508056640625" lon="6.90109740011394023895263671875">
        <ele>506.20001220703125</ele>
        <time>2013-09-01T16:14:07.000Z</time>
        <extensions>
          <ns3:TrackPointExtension>
            <ns3:atemp>18.0</ns3:atemp>
          </ns3:TrackPointExtension>
        </extensions>
      </trkpt>
      <trkpt lat="46.7405858449637889862060546875" lon="6.901150457561016082763671875">
        <ele>506.20001220703125</ele>
        <time>2013-09-01T16:14:08.000Z</time>
        <extensions>
          <ns3:TrackPointExtension>
            <ns3:atemp>18.0</ns3:atemp>
          </ns3:TrackPointExtension>
        </extensions>
      </trkpt>
      <trkpt lat="46.7406314425170421600341796875" lon="6.9012039341032505035400390625">
        <ele>506</ele>
        <time>2013-09-01T16:14:09.000Z</time>
        <extensions>
          <ns3:TrackPointExtension>
            <ns3:atemp>18.0</ns3:atemp>
          </ns3:TrackPointExtension>
        </extensions>
      </trkpt>
      <trkpt lat="46.74067796207964420318603515625" lon="6.90125984139740467071533203125">
        <ele>505.79998779296875</ele>
        <time>2013-09-01T16:14:10.000Z</time>
        <extensions>
          <ns3:TrackPointExtension>
            <ns3:atemp>18.0</ns3:atemp>
          </ns3:TrackPointExtension>
        </extensions>
      </trkpt>
      <trkpt lat="46.7407216317951679229736328125" lon="6.90131641924381256103515625">
        <ele>505.79998779296875</ele>
        <time>2013-09-01T16:14:11.000Z</time>
        <extensions>
          <ns3:TrackPointExtension>
            <ns3:atemp>18.0</ns3:atemp>
          </ns3:TrackPointExtension>
        </extensions>
      </trkpt>
      <trkpt lat="46.74076505005359649658203125" lon="6.9013732485473155975341796875">
        <ele>506</ele>
        <time>2013-09-01T16:14:12.000Z</time>
        <extensions>
          <ns3:TrackPointExtension>
            <ns3:atemp>18.0</ns3:atemp>
          </ns3:TrackPointExtension>
        </extensions>
      </trkpt>
      <trkpt lat="46.74080905504524707794189453125" lon="6.901429407298564910888671875">
        <ele>506</ele>
        <time>2013-09-01T16:14:13.000Z</time>
        <extensions>
          <ns3:TrackPointExtension>
            <ns3:atemp>18.0</ns3:atemp>
          </ns3:TrackPointExtension>
        </extensions>
      </trkpt>
      <trkpt lat="46.74084995873272418975830078125" lon="6.901490427553653717041015625">
        <ele>506</ele>
        <time>2013-09-01T16:14:14.000Z</time>
        <extensions>
          <ns3:TrackPointExtension>
            <ns3:atemp>18.0</ns3:atemp>
          </ns3:TrackPointExtension>
        </extensions>
      </trkpt>
      <trkpt lat="46.740890443325042724609375" lon="6.90155304037034511566162109375">
        <ele>505.79998779296875</ele>
        <time>2013-09-01T16:14:15.000Z</time>
        <extensions>
          <ns3:TrackPointExtension>
            <ns3:atemp>18.0</ns3:atemp>
          </ns3:TrackPointExtension>
        </extensions>
      </trkpt>
      <trkpt lat="46.74093042500317096710205078125" lon="6.90161682665348052978515625">
        <ele>505.79998779296875</ele>
        <time>2013-09-01T16:14:16.000Z</time>
        <extensions>
          <ns3:TrackPointExtension>
            <ns3:atemp>18.0</ns3:atemp>
          </ns3:TrackPointExtension>
        </extensions>
      </trkpt>
      <trkpt lat="46.74096621572971343994140625" lon="6.9016845524311065673828125">
        <ele>505.600006103515625</ele>
        <time>2013-09-01T16:14:17.000Z</time>
        <extensions>
          <ns3:TrackPointExtension>
            <ns3:atemp>18.0</ns3:atemp>
          </ns3:TrackPointExtension>
        </extensions>
      </trkpt>
      <trkpt lat="46.74100435338914394378662109375" lon="6.90175286494195461273193359375">
        <ele>505.600006103515625</ele>
        <time>2013-09-01T16:14:18.000Z</time>
        <extensions>
          <ns3:TrackPointExtension>
            <ns3:atemp>18.0</ns3:atemp>
          </ns3:TrackPointExtension>
        </extensions>
      </trkpt>
      <trkpt lat="46.74104257486760616302490234375" lon="6.90182243473827838897705078125">
        <ele>505.600006103515625</ele>
        <time>2013-09-01T16:14:19.000Z</time>
        <extensions>
          <ns3:TrackPointExtension>
            <ns3:atemp>18.0</ns3:atemp>
          </ns3:TrackPointExtension>
        </extensions>
      </trkpt>
      <trkpt lat="46.7410803772509098052978515625" lon="6.90189334563910961151123046875">
        <ele>505.600006103515625</ele>
        <time>2013-09-01T16:14:20.000Z</time>
        <extensions>
          <ns3:TrackPointExtension>
            <ns3:atemp>18.0</ns3:atemp>
          </ns3:TrackPointExtension>
        </extensions>
      </trkpt>
      <trkpt lat="46.74111801199615001678466796875" lon="6.90196610055863857269287109375">
        <ele>505.600006103515625</ele>
        <time>2013-09-01T16:14:21.000Z</time>
        <extensions>
          <ns3:TrackPointExtension>
            <ns3:atemp>18.0</ns3:atemp>
          </ns3:TrackPointExtension>
        </extensions>
      </trkpt>
      <trkpt lat="46.74115656875073909759521484375" lon="6.9020414538681507110595703125">
        <ele>505.600006103515625</ele>
        <time>2013-09-01T16:14:22.000Z</time>
        <extensions>
          <ns3:TrackPointExtension>
            <ns3:atemp>18.0</ns3:atemp>
          </ns3:TrackPointExtension>
        </extensions>
      </trkpt>
      <trkpt lat="46.7411953769624233245849609375" lon="6.90212116576731204986572265625">
        <ele>505.600006103515625</ele>
        <time>2013-09-01T16:14:23.000Z</time>
        <extensions>
          <ns3:TrackPointExtension>
            <ns3:atemp>18.0</ns3:atemp>
          </ns3:TrackPointExtension>
        </extensions>
      </trkpt>
      <trkpt lat="46.7412309162318706512451171875" lon="6.90220355987548828125">
        <ele>505.399993896484375</ele>
        <time>2013-09-01T16:14:24.000Z</time>
        <extensions>
          <ns3:TrackPointExtension>
            <ns3:atemp>18.0</ns3:atemp>
          </ns3:TrackPointExtension>
        </extensions>
      </trkpt>
      <trkpt lat="46.7412637732923030853271484375" lon="6.90229182131588459014892578125">
        <ele>504.399993896484375</ele>
        <time>2013-09-01T16:14:25.000Z</time>
        <extensions>
          <ns3:TrackPointExtension>
            <ns3:atemp>18.0</ns3:atemp>
          </ns3:TrackPointExtension>
        </extensions>
      </trkpt>
      <trkpt lat="46.74128766171634197235107421875" lon="6.90238930284976959228515625">
        <ele>504.20001220703125</ele>
        <time>2013-09-01T16:14:26.000Z</time>
        <extensions>
          <ns3:TrackPointExtension>
            <ns3:atemp>18.0</ns3:atemp>
          </ns3:TrackPointExtension>
        </extensions>
      </trkpt>
      <trkpt lat="46.74129688180983066558837890625" lon="6.9024945795536041259765625">
        <ele>504.20001220703125</ele>
        <time>2013-09-01T16:14:27.000Z</time>
        <extensions>
          <ns3:TrackPointExtension>
            <ns3:atemp>18.0</ns3:atemp>
          </ns3:TrackPointExtension>
        </extensions>
      </trkpt>
      <trkpt lat="46.741292774677276611328125" lon="6.90260413102805614471435546875">
        <ele>504</ele>
        <time>2013-09-01T16:14:28.000Z</time>
        <extensions>
          <ns3:TrackPointExtension>
            <ns3:atemp>18.0</ns3:atemp>
          </ns3:TrackPointExtension>
        </extensions>
      </trkpt>
      <trkpt lat="46.7412741668522357940673828125" lon="6.9027096591889858245849609375">
        <ele>503.600006103515625</ele>
        <time>2013-09-01T16:14:29.000Z</time>
        <extensions>
          <ns3:TrackPointExtension>
            <ns3:atemp>18.0</ns3:atemp>
          </ns3:TrackPointExtension>
        </extensions>
      </trkpt>
      <trkpt lat="46.741250194609165191650390625" lon="6.9028186239302158355712890625">
        <ele>503.399993896484375</ele>
        <time>2013-09-01T16:14:30.000Z</time>
        <extensions>
          <ns3:TrackPointExtension>
            <ns3:atemp>18.0</ns3:atemp>
          </ns3:TrackPointExtension>
        </extensions>
      </trkpt>
      <trkpt lat="46.7412238754332065582275390625" lon="6.90292901359498500823974609375">
        <ele>503.20001220703125</ele>
        <time>2013-09-01T16:14:31.000Z</time>
        <extensions>
          <ns3:TrackPointExtension>
            <ns3:atemp>18.0</ns3:atemp>
          </ns3:TrackPointExtension>
        </extensions>
      </trkpt>
      <trkpt lat="46.74119646660983562469482421875" lon="6.90304166637361049652099609375">
        <ele>502.79998779296875</ele>
        <time>2013-09-01T16:14:32.000Z</time>
        <extensions>
          <ns3:TrackPointExtension>
            <ns3:atemp>18.0</ns3:atemp>
          </ns3:TrackPointExtension>
        </extensions>
      </trkpt>
      <trkpt lat="46.7411712370812892913818359375" lon="6.90315817482769489288330078125">
        <ele>502.399993896484375</ele>
        <time>2013-09-01T16:14:33.000Z</time>
        <extensions>
          <ns3:TrackPointExtension>
            <ns3:atemp>18.0</ns3:atemp>
          </ns3:TrackPointExtension>
        </extensions>
      </trkpt>
      <trkpt lat="46.74114567227661609649658203125" lon="6.90327686257660388946533203125">
        <ele>502</ele>
        <time>2013-09-01T16:14:34.000Z</time>
        <extensions>
          <ns3:TrackPointExtension>
            <ns3:atemp>18.0</ns3:atemp>
          </ns3:TrackPointExtension>
        </extensions>
      </trkpt>
      <trkpt lat="46.74111868254840373992919921875" lon="6.9033969752490520477294921875">
        <ele>501.600006103515625</ele>
        <time>2013-09-01T16:14:35.000Z</time>
        <extensions>
          <ns3:TrackPointExtension>
            <ns3:atemp>18.0</ns3:atemp>
          </ns3:TrackPointExtension>
        </extensions>
      </trkpt>
      <trkpt lat="46.7410914413630962371826171875" lon="6.90351725555956363677978515625">
        <ele>501.600006103515625</ele>
        <time>2013-09-01T16:14:36.000Z</time>
        <extensions>
          <ns3:TrackPointExtension>
            <ns3:atemp>18.0</ns3:atemp>
          </ns3:TrackPointExtension>
        </extensions>
      </trkpt>
      <trkpt lat="46.7410659603774547576904296875" lon="6.9036423973739147186279296875">
        <ele>501.20001220703125</ele>
        <time>2013-09-01T16:14:37.000Z</time>
        <extensions>
          <ns3:TrackPointExtension>
            <ns3:atemp>18.0</ns3:atemp>
          </ns3:TrackPointExtension>
        </extensions>
      </trkpt>
      <trkpt lat="46.74105162732303142547607421875" lon="6.9037687964737415313720703125">
        <ele>501</ele>
        <time>2013-09-01T16:14:38.000Z</time>
        <extensions>
          <ns3:TrackPointExtension>
            <ns3:atemp>18.0</ns3:atemp>
          </ns3:TrackPointExtension>
        </extensions>
      </trkpt>
      <trkpt lat="46.7410575784742832183837890625" lon="6.90388505347073078155517578125">
        <ele>500.600006103515625</ele>
        <time>2013-09-01T16:14:39.000Z</time>
        <extensions>
          <ns3:TrackPointExtension>
            <ns3:atemp>18.0</ns3:atemp>
          </ns3:TrackPointExtension>
        </extensions>
      </trkpt>
      <trkpt lat="46.7410619370639324188232421875" lon="6.90398999489843845367431640625">
        <ele>500.399993896484375</ele>
        <time>2013-09-01T16:14:40.000Z</time>
        <extensions>
          <ns3:TrackPointExtension>
            <ns3:atemp>18.0</ns3:atemp>
          </ns3:TrackPointExtension>
        </extensions>
      </trkpt>
      <trkpt lat="46.7410797066986560821533203125" lon="6.90407683141529560089111328125">
        <ele>500.399993896484375</ele>
        <time>2013-09-01T16:14:41.000Z</time>
        <extensions>
          <ns3:TrackPointExtension>
            <ns3:atemp>18.0</ns3:atemp>
          </ns3:TrackPointExtension>
        </extensions>
      </trkpt>
      <trkpt lat="46.7411071993410587310791015625" lon="6.9041439704596996307373046875">
        <ele>500.399993896484375</ele>
        <time>2013-09-01T16:14:42.000Z</time>
        <extensions>
          <ns3:TrackPointExtension>
            <ns3:atemp>18.0</ns3:atemp>
          </ns3:TrackPointExtension>
        </extensions>
      </trkpt>
      <trkpt lat="46.74113192595541477203369140625" lon="6.90420691855251789093017578125">
        <ele>500.600006103515625</ele>
        <time>2013-09-01T16:14:43.000Z</time>
        <extensions>
          <ns3:TrackPointExtension>
            <ns3:atemp>18.0</ns3:atemp>
          </ns3:TrackPointExtension>
        </extensions>
      </trkpt>
      <trkpt lat="46.74115933477878570556640625" lon="6.90426819026470184326171875">
        <ele>500.600006103515625</ele>
        <time>2013-09-01T16:14:44.000Z</time>
        <extensions>
          <ns3:TrackPointExtension>
            <ns3:atemp>18.0</ns3:atemp>
          </ns3:TrackPointExtension>
        </extensions>
      </trkpt>
      <trkpt lat="46.7411937005817890167236328125" lon="6.9043216668069362640380859375">
        <ele>500.79998779296875</ele>
        <time>2013-09-01T16:14:45.000Z</time>
        <extensions>
          <ns3:TrackPointExtension>
            <ns3:atemp>18.0</ns3:atemp>
          </ns3:TrackPointExtension>
        </extensions>
      </trkpt>
      <trkpt lat="46.74123686738312244415283203125" lon="6.9043736346065998077392578125">
        <ele>501</ele>
        <time>2013-09-01T16:14:46.000Z</time>
        <extensions>
          <ns3:TrackPointExtension>
            <ns3:atemp>18.0</ns3:atemp>
          </ns3:TrackPointExtension>
        </extensions>
      </trkpt>
      <trkpt lat="46.74127056263387203216552734375" lon="6.90442183054983615875244140625">
        <ele>501.20001220703125</ele>
        <time>2013-09-01T16:14:47.000Z</time>
        <extensions>
          <ns3:TrackPointExtension>
            <ns3:atemp>18.0</ns3:atemp>
          </ns3:TrackPointExtension>
        </extensions>
      </trkpt>
      <trkpt lat="46.7413075268268585205078125" lon="6.90447212196886539459228515625">
        <ele>501.20001220703125</ele>
        <time>2013-09-01T16:14:48.000Z</time>
        <extensions>
          <ns3:TrackPointExtension>
            <ns3:atemp>18.0</ns3:atemp>
          </ns3:TrackPointExtension>
        </extensions>
      </trkpt>
      <trkpt lat="46.7413455806672573089599609375" lon="6.90452325157821178436279296875">
        <ele>501.20001220703125</ele>
        <time>2013-09-01T16:14:49.000Z</time>
        <extensions>
          <ns3:TrackPointExtension>
            <ns3:atemp>18.0</ns3:atemp>
          </ns3:TrackPointExtension>
        </extensions>
      </trkpt>
      <trkpt lat="46.74139444716274738311767578125" lon="6.9045761413872241973876953125">
        <ele>501.20001220703125</ele>
        <time>2013-09-01T16:14:50.000Z</time>
        <extensions>
          <ns3:TrackPointExtension>
            <ns3:atemp>18.0</ns3:atemp>
          </ns3:TrackPointExtension>
        </extensions>
      </trkpt>
      <trkpt lat="46.74144624732434749603271484375" lon="6.90461813472211360931396484375">
        <ele>501.600006103515625</ele>
        <time>2013-09-01T16:14:51.000Z</time>
        <extensions>
          <ns3:TrackPointExtension>
            <ns3:atemp>18.0</ns3:atemp>
          </ns3:TrackPointExtension>
        </extensions>
      </trkpt>
      <trkpt lat="46.74149787984788417816162109375" lon="6.904652751982212066650390625">
        <ele>502</ele>
        <time>2013-09-01T16:14:52.000Z</time>
        <extensions>
          <ns3:TrackPointExtension>
            <ns3:atemp>18.0</ns3:atemp>
          </ns3:TrackPointExtension>
        </extensions>
      </trkpt>
      <trkpt lat="46.7415534518659114837646484375" lon="6.90467110835015773773193359375">
        <ele>502.600006103515625</ele>
        <time>2013-09-01T16:14:53.000Z</time>
        <extensions>
          <ns3:TrackPointExtension>
            <ns3:atemp>18.0</ns3:atemp>
          </ns3:TrackPointExtension>
        </extensions>
      </trkpt>
      <trkpt lat="46.74161220900714397430419921875" lon="6.9046733714640140533447265625">
        <ele>502.600006103515625</ele>
        <time>2013-09-01T16:14:54.000Z</time>
        <extensions>
          <ns3:TrackPointExtension>
            <ns3:atemp>18.0</ns3:atemp>
          </ns3:TrackPointExtension>
        </extensions>
      </trkpt>
      <trkpt lat="46.74167289398610591888427734375" lon="6.9046824239194393157958984375">
        <ele>502.399993896484375</ele>
        <time>2013-09-01T16:14:55.000Z</time>
        <extensions>
          <ns3:TrackPointExtension>
            <ns3:atemp>18.0</ns3:atemp>
          </ns3:TrackPointExtension>
        </extensions>
      </trkpt>
      <trkpt lat="46.74173005856573581695556640625" lon="6.90469357185065746307373046875">
        <ele>502.20001220703125</ele>
        <time>2013-09-01T16:14:56.000Z</time>
        <extensions>
          <ns3:TrackPointExtension>
            <ns3:atemp>18.0</ns3:atemp>
          </ns3:TrackPointExtension>
        </extensions>
      </trkpt>
      <trkpt lat="46.7417849600315093994140625" lon="6.90470178611576557159423828125">
        <ele>502.600006103515625</ele>
        <time>2013-09-01T16:14:57.000Z</time>
        <extensions>
          <ns3:TrackPointExtension>
            <ns3:atemp>18.0</ns3:atemp>
          </ns3:TrackPointExtension>
        </extensions>
      </trkpt>
      <trkpt lat="46.74183986149728298187255859375" lon="6.904715113341808319091796875">
        <ele>503</ele>
        <time>2013-09-01T16:14:58.000Z</time>
        <extensions>
          <ns3:TrackPointExtension>
            <ns3:atemp>18.0</ns3:atemp>
          </ns3:TrackPointExtension>
        </extensions>
      </trkpt>
      <trkpt lat="46.7418954335153102874755859375" lon="6.90472542308270931243896484375">
        <ele>503.20001220703125</ele>
        <time>2013-09-01T16:14:59.000Z</time>
        <extensions>
          <ns3:TrackPointExtension>
            <ns3:atemp>18.0</ns3:atemp>
          </ns3:TrackPointExtension>
        </extensions>
      </trkpt>
      <trkpt lat="46.74195368774235248565673828125" lon="6.90471972338855266571044921875">
        <ele>503.399993896484375</ele>
        <time>2013-09-01T16:15:00.000Z</time>
        <extensions>
          <ns3:TrackPointExtension>
            <ns3:atemp>18.0</ns3:atemp>
          </ns3:TrackPointExtension>
        </extensions>
      </trkpt>
      <trkpt lat="46.7420188151299953460693359375" lon="6.90470815636217594146728515625">
        <ele>503.79998779296875</ele>
        <time>2013-09-01T16:15:01.000Z</time>
        <extensions>
          <ns3:TrackPointExtension>
            <ns3:atemp>18.0</ns3:atemp>
          </ns3:TrackPointExtension>
        </extensions>
      </trkpt>
      <trkpt lat="46.742086708545684814453125" lon="6.904706060886383056640625">
        <ele>504</ele>
        <time>2013-09-01T16:15:02.000Z</time>
        <extensions>
          <ns3:TrackPointExtension>
            <ns3:atemp>18.0</ns3:atemp>
          </ns3:TrackPointExtension>
        </extensions>
      </trkpt>
      <trkpt lat="46.7421569488942623138427734375" lon="6.90470949746668338775634765625">
        <ele>504.600006103515625</ele>
        <time>2013-09-01T16:15:03.000Z</time>
        <extensions>
          <ns3:TrackPointExtension>
            <ns3:atemp>18.0</ns3:atemp>
          </ns3:TrackPointExtension>
        </extensions>
      </trkpt>
      <trkpt lat="46.74223246984183788299560546875" lon="6.904720477759838104248046875">
        <ele>504.600006103515625</ele>
        <time>2013-09-01T16:15:04.000Z</time>
        <extensions>
          <ns3:TrackPointExtension>
            <ns3:atemp>18.0</ns3:atemp>
          </ns3:TrackPointExtension>
        </extensions>
      </trkpt>
      <trkpt lat="46.7423034645617008209228515625" lon="6.90474587492644786834716796875">
        <ele>504.399993896484375</ele>
        <time>2013-09-01T16:15:05.000Z</time>
        <extensions>
          <ns3:TrackPointExtension>
            <ns3:atemp>18.0</ns3:atemp>
          </ns3:TrackPointExtension>
        </extensions>
      </trkpt>
      <trkpt lat="46.74237177707254886627197265625" lon="6.90479390323162078857421875">
        <ele>504</ele>
        <time>2013-09-01T16:15:06.000Z</time>
        <extensions>
          <ns3:TrackPointExtension>
            <ns3:atemp>18.0</ns3:atemp>
          </ns3:TrackPointExtension>
        </extensions>
      </trkpt>
      <trkpt lat="46.742438413202762603759765625" lon="6.90484821796417236328125">
        <ele>503.600006103515625</ele>
        <time>2013-09-01T16:15:07.000Z</time>
        <extensions>
          <ns3:TrackPointExtension>
            <ns3:atemp>18.0</ns3:atemp>
          </ns3:TrackPointExtension>
        </extensions>
      </trkpt>
      <trkpt lat="46.742501445114612579345703125" lon="6.90490261651575565338134765625">
        <ele>503.399993896484375</ele>
        <time>2013-09-01T16:15:08.000Z</time>
        <extensions>
          <ns3:TrackPointExtension>
            <ns3:atemp>18.0</ns3:atemp>
          </ns3:TrackPointExtension>
        </extensions>
      </trkpt>
      <trkpt lat="46.74256213009357452392578125" lon="6.90495525486767292022705078125">
        <ele>503</ele>
        <time>2013-09-01T16:15:09.000Z</time>
        <extensions>
          <ns3:TrackPointExtension>
            <ns3:atemp>18.0</ns3:atemp>
          </ns3:TrackPointExtension>
        </extensions>
      </trkpt>
      <trkpt lat="46.74262407235801219940185546875" lon="6.9050016067922115325927734375">
        <ele>503</ele>
        <time>2013-09-01T16:15:10.000Z</time>
        <extensions>
          <ns3:TrackPointExtension>
            <ns3:atemp>18.0</ns3:atemp>
          </ns3:TrackPointExtension>
        </extensions>
      </trkpt>
      <trkpt lat="46.74268282949924468994140625" lon="6.9050482101738452911376953125">
        <ele>502.79998779296875</ele>
        <time>2013-09-01T16:15:11.000Z</time>
        <extensions>
          <ns3:TrackPointExtension>
            <ns3:atemp>18.0</ns3:atemp>
          </ns3:TrackPointExtension>
        </extensions>
      </trkpt>
      <trkpt lat="46.74274041317403316497802734375" lon="6.905100010335445404052734375">
        <ele>502.79998779296875</ele>
        <time>2013-09-01T16:15:12.000Z</time>
        <extensions>
          <ns3:TrackPointExtension>
            <ns3:atemp>18.0</ns3:atemp>
          </ns3:TrackPointExtension>
        </extensions>
      </trkpt>
      <trkpt lat="46.74279548227787017822265625" lon="6.90515290014445781707763671875">
        <ele>502.600006103515625</ele>
        <time>2013-09-01T16:15:13.000Z</time>
        <extensions>
          <ns3:TrackPointExtension>
            <ns3:atemp>18.0</ns3:atemp>
          </ns3:TrackPointExtension>
        </extensions>
      </trkpt>
      <trkpt lat="46.74284971319139003753662109375" lon="6.9052041135728359222412109375">
        <ele>502.600006103515625</ele>
        <time>2013-09-01T16:15:14.000Z</time>
        <extensions>
          <ns3:TrackPointExtension>
            <ns3:atemp>18.0</ns3:atemp>
          </ns3:TrackPointExtension>
        </extensions>
      </trkpt>
      <trkpt lat="46.7429052852094173431396484375" lon="6.90525398589670658111572265625">
        <ele>502.79998779296875</ele>
        <time>2013-09-01T16:15:15.000Z</time>
        <extensions>
          <ns3:TrackPointExtension>
            <ns3:atemp>18.0</ns3:atemp>
          </ns3:TrackPointExtension>
        </extensions>
      </trkpt>
      <trkpt lat="46.7429589293897151947021484375" lon="6.9053016789257526397705078125">
        <ele>502.79998779296875</ele>
        <time>2013-09-01T16:15:16.000Z</time>
        <extensions>
          <ns3:TrackPointExtension>
            <ns3:atemp>18.0</ns3:atemp>
          </ns3:TrackPointExtension>
        </extensions>
      </trkpt>
      <trkpt lat="46.74301248975098133087158203125" lon="6.9053492881357669830322265625">
        <ele>502.79998779296875</ele>
        <time>2013-09-01T16:15:17.000Z</time>
        <extensions>
          <ns3:TrackPointExtension>
            <ns3:atemp>18.0</ns3:atemp>
          </ns3:TrackPointExtension>
        </extensions>
      </trkpt>
      <trkpt lat="46.7430635355412960052490234375" lon="6.90539882518351078033447265625">
        <ele>502.79998779296875</ele>
        <time>2013-09-01T16:15:18.000Z</time>
        <extensions>
          <ns3:TrackPointExtension>
            <ns3:atemp>18.0</ns3:atemp>
          </ns3:TrackPointExtension>
        </extensions>
      </trkpt>
      <trkpt lat="46.7431151680648326873779296875" lon="6.90544559620320796966552734375">
        <ele>502.600006103515625</ele>
        <time>2013-09-01T16:15:19.000Z</time>
        <extensions>
          <ns3:TrackPointExtension>
            <ns3:atemp>18.0</ns3:atemp>
          </ns3:TrackPointExtension>
        </extensions>
      </trkpt>
      <trkpt lat="46.7431664653122425079345703125" lon="6.9054914452135562896728515625">
        <ele>502.600006103515625</ele>
        <time>2013-09-01T16:15:20.000Z</time>
        <extensions>
          <ns3:TrackPointExtension>
            <ns3:atemp>18.0</ns3:atemp>
          </ns3:TrackPointExtension>
        </extensions>
      </trkpt>
      <trkpt lat="46.7432180978357791900634765625" lon="6.90553830005228519439697265625">
        <ele>502.600006103515625</ele>
        <time>2013-09-01T16:15:21.000Z</time>
        <extensions>
          <ns3:TrackPointExtension>
            <ns3:atemp>18.0</ns3:atemp>
          </ns3:TrackPointExtension>
        </extensions>
      </trkpt>
      <trkpt lat="46.743269897997379302978515625" lon="6.9055829755961894989013671875">
        <ele>502.79998779296875</ele>
        <time>2013-09-01T16:15:22.000Z</time>
        <extensions>
          <ns3:TrackPointExtension>
            <ns3:atemp>18.0</ns3:atemp>
          </ns3:TrackPointExtension>
        </extensions>
      </trkpt>
      <trkpt lat="46.74332060851156711578369140625" lon="6.9056273996829986572265625">
        <ele>502.79998779296875</ele>
        <time>2013-09-01T16:15:23.000Z</time>
        <extensions>
          <ns3:TrackPointExtension>
            <ns3:atemp>18.0</ns3:atemp>
          </ns3:TrackPointExtension>
        </extensions>
      </trkpt>
      <trkpt lat="46.74337215721607208251953125" lon="6.905669979751110076904296875">
        <ele>502.79998779296875</ele>
        <time>2013-09-01T16:15:24.000Z</time>
        <extensions>
          <ns3:TrackPointExtension>
            <ns3:atemp>18.0</ns3:atemp>
          </ns3:TrackPointExtension>
        </extensions>
      </trkpt>
      <trkpt lat="46.74342303536832332611083984375" lon="6.90571147017180919647216796875">
        <ele>502.600006103515625</ele>
        <time>2013-09-01T16:15:25.000Z</time>
        <extensions>
          <ns3:TrackPointExtension>
            <ns3:atemp>18.0</ns3:atemp>
          </ns3:TrackPointExtension>
        </extensions>
      </trkpt>
      <trkpt lat="46.74347282387316226959228515625" lon="6.90575547516345977783203125">
        <ele>502.600006103515625</ele>
        <time>2013-09-01T16:15:26.000Z</time>
        <extensions>
          <ns3:TrackPointExtension>
            <ns3:atemp>18.0</ns3:atemp>
          </ns3:TrackPointExtension>
        </extensions>
      </trkpt>
      <trkpt lat="46.743522696197032928466796875" lon="6.9057998992502689361572265625">
        <ele>502.600006103515625</ele>
        <time>2013-09-01T16:15:27.000Z</time>
        <extensions>
          <ns3:TrackPointExtension>
            <ns3:atemp>18.0</ns3:atemp>
          </ns3:TrackPointExtension>
        </extensions>
      </trkpt>
      <trkpt lat="46.74357256852090358734130859375" lon="6.9058448262512683868408203125">
        <ele>502.600006103515625</ele>
        <time>2013-09-01T16:15:28.000Z</time>
        <extensions>
          <ns3:TrackPointExtension>
            <ns3:atemp>18.0</ns3:atemp>
          </ns3:TrackPointExtension>
        </extensions>
      </trkpt>
      <trkpt lat="46.74362319521605968475341796875" lon="6.90588950179517269134521484375">
        <ele>502.600006103515625</ele>
        <time>2013-09-01T16:15:29.000Z</time>
        <extensions>
          <ns3:TrackPointExtension>
            <ns3:atemp>18.0</ns3:atemp>
          </ns3:TrackPointExtension>
        </extensions>
      </trkpt>
      <trkpt lat="46.7436730675399303436279296875" lon="6.90593191422522068023681640625">
        <ele>502.600006103515625</ele>
        <time>2013-09-01T16:15:30.000Z</time>
        <extensions>
          <ns3:TrackPointExtension>
            <ns3:atemp>18.0</ns3:atemp>
          </ns3:TrackPointExtension>
        </extensions>
      </trkpt>
      <trkpt lat="46.743724532425403594970703125" lon="6.9059749133884906768798828125">
        <ele>502.79998779296875</ele>
        <time>2013-09-01T16:15:31.000Z</time>
        <extensions>
          <ns3:TrackPointExtension>
            <ns3:atemp>18.0</ns3:atemp>
          </ns3:TrackPointExtension>
        </extensions>
      </trkpt>
      <trkpt lat="46.74377272836863994598388671875" lon="6.9060231931507587432861328125">
        <ele>503.20001220703125</ele>
        <time>2013-09-01T16:15:32.000Z</time>
        <extensions>
          <ns3:TrackPointExtension>
            <ns3:atemp>18.0</ns3:atemp>
          </ns3:TrackPointExtension>
        </extensions>
      </trkpt>
      <trkpt lat="46.7438207566738128662109375" lon="6.9060714729130268096923828125">
        <ele>503.600006103515625</ele>
        <time>2013-09-01T16:15:33.000Z</time>
        <extensions>
          <ns3:TrackPointExtension>
            <ns3:atemp>18.0</ns3:atemp>
          </ns3:TrackPointExtension>
        </extensions>
      </trkpt>
      <trkpt lat="46.7438698746263980865478515625" lon="6.90612017177045345306396484375">
        <ele>503.79998779296875</ele>
        <time>2013-09-01T16:15:34.000Z</time>
        <extensions>
          <ns3:TrackPointExtension>
            <ns3:atemp>18.0</ns3:atemp>
          </ns3:TrackPointExtension>
        </extensions>
      </trkpt>
      <trkpt lat="46.74391907639801502227783203125" lon="6.9061676971614360809326171875">
        <ele>503.79998779296875</ele>
        <time>2013-09-01T16:15:35.000Z</time>
        <extensions>
          <ns3:TrackPointExtension>
            <ns3:atemp>18.0</ns3:atemp>
          </ns3:TrackPointExtension>
        </extensions>
      </trkpt>
      <trkpt lat="46.743969954550266265869140625" lon="6.90621589310467243194580078125">
        <ele>503.399993896484375</ele>
        <time>2013-09-01T16:15:36.000Z</time>
        <extensions>
          <ns3:TrackPointExtension>
            <ns3:atemp>18.0</ns3:atemp>
          </ns3:TrackPointExtension>
        </extensions>
      </trkpt>
      <trkpt lat="46.74401781521737575531005859375" lon="6.90626987256109714508056640625">
        <ele>503.20001220703125</ele>
        <time>2013-09-01T16:15:37.000Z</time>
        <extensions>
          <ns3:TrackPointExtension>
            <ns3:atemp>18.0</ns3:atemp>
          </ns3:TrackPointExtension>
        </extensions>
      </trkpt>
      <trkpt lat="46.744067184627056121826171875" lon="6.9063189066946506500244140625">
        <ele>503.399993896484375</ele>
        <time>2013-09-01T16:15:38.000Z</time>
        <extensions>
          <ns3:TrackPointExtension>
            <ns3:atemp>18.0</ns3:atemp>
          </ns3:TrackPointExtension>
        </extensions>
      </trkpt>
      <trkpt lat="46.74411705695092678070068359375" lon="6.90636810846626758575439453125">
        <ele>503</ele>
        <time>2013-09-01T16:15:39.000Z</time>
        <extensions>
          <ns3:TrackPointExtension>
            <ns3:atemp>18.0</ns3:atemp>
          </ns3:TrackPointExtension>
        </extensions>
      </trkpt>
      <trkpt lat="46.7441679351031780242919921875" lon="6.90641605295240879058837890625">
        <ele>502.399993896484375</ele>
        <time>2013-09-01T16:15:40.000Z</time>
        <extensions>
          <ns3:TrackPointExtension>
            <ns3:atemp>18.0</ns3:atemp>
          </ns3:TrackPointExtension>
        </extensions>
      </trkpt>
      <trkpt lat="46.74421839416027069091796875" lon="6.90646986477077007293701171875">
        <ele>502.20001220703125</ele>
        <time>2013-09-01T16:15:41.000Z</time>
        <extensions>
          <ns3:TrackPointExtension>
            <ns3:atemp>18.0</ns3:atemp>
          </ns3:TrackPointExtension>
        </extensions>
      </trkpt>
      <trkpt lat="46.74427212215960025787353515625" lon="6.9065224193036556243896484375">
        <ele>502.20001220703125</ele>
        <time>2013-09-01T16:15:42.000Z</time>
        <extensions>
          <ns3:TrackPointExtension>
            <ns3:atemp>18.0</ns3:atemp>
          </ns3:TrackPointExtension>
        </extensions>
      </trkpt>
      <trkpt lat="46.74432341940701007843017578125" lon="6.906579248607158660888671875">
        <ele>502.399993896484375</ele>
        <time>2013-09-01T16:15:43.000Z</time>
        <extensions>
          <ns3:TrackPointExtension>
            <ns3:atemp>18.0</ns3:atemp>
          </ns3:TrackPointExtension>
        </extensions>
      </trkpt>
      <trkpt lat="46.744374968111515045166015625" lon="6.90664068795740604400634765625">
        <ele>502.20001220703125</ele>
        <time>2013-09-01T16:15:44.000Z</time>
        <extensions>
          <ns3:TrackPointExtension>
            <ns3:atemp>18.0</ns3:atemp>
          </ns3:TrackPointExtension>
        </extensions>
      </trkpt>
      <trkpt lat="46.7444260977208614349365234375" lon="6.90670506097376346588134765625">
        <ele>502</ele>
        <time>2013-09-01T16:15:45.000Z</time>
        <extensions>
          <ns3:TrackPointExtension>
            <ns3:atemp>18.0</ns3:atemp>
          </ns3:TrackPointExtension>
        </extensions>
      </trkpt>
      <trkpt lat="46.74447831697762012481689453125" lon="6.90676809288561344146728515625">
        <ele>501.600006103515625</ele>
        <time>2013-09-01T16:15:46.000Z</time>
        <extensions>
          <ns3:TrackPointExtension>
            <ns3:atemp>18.0</ns3:atemp>
          </ns3:TrackPointExtension>
        </extensions>
      </trkpt>
      <trkpt lat="46.744529865682125091552734375" lon="6.90683397464454174041748046875">
        <ele>501.600006103515625</ele>
        <time>2013-09-01T16:15:47.000Z</time>
        <extensions>
          <ns3:TrackPointExtension>
            <ns3:atemp>18.0</ns3:atemp>
          </ns3:TrackPointExtension>
        </extensions>
      </trkpt>
      <trkpt lat="46.74458183348178863525390625" lon="6.90690253861248493194580078125">
        <ele>501.600006103515625</ele>
        <time>2013-09-01T16:15:48.000Z</time>
        <extensions>
          <ns3:TrackPointExtension>
            <ns3:atemp>18.0</ns3:atemp>
          </ns3:TrackPointExtension>
        </extensions>
      </trkpt>
      <trkpt lat="46.7446322925388813018798828125" lon="6.9069726951420307159423828125">
        <ele>501.600006103515625</ele>
        <time>2013-09-01T16:15:49.000Z</time>
        <extensions>
          <ns3:TrackPointExtension>
            <ns3:atemp>18.0</ns3:atemp>
          </ns3:TrackPointExtension>
        </extensions>
      </trkpt>
      <trkpt lat="46.74468384124338626861572265625" lon="6.90704335458576679229736328125">
        <ele>501.600006103515625</ele>
        <time>2013-09-01T16:15:50.000Z</time>
        <extensions>
          <ns3:TrackPointExtension>
            <ns3:atemp>18.0</ns3:atemp>
          </ns3:TrackPointExtension>
        </extensions>
      </trkpt>
      <trkpt lat="46.74473681487143039703369140625" lon="6.907114349305629730224609375">
        <ele>501.600006103515625</ele>
        <time>2013-09-01T16:15:51.000Z</time>
        <extensions>
          <ns3:TrackPointExtension>
            <ns3:atemp>18.0</ns3:atemp>
          </ns3:TrackPointExtension>
        </extensions>
      </trkpt>
      <trkpt lat="46.74478945322334766387939453125" lon="6.907185427844524383544921875">
        <ele>501.399993896484375</ele>
        <time>2013-09-01T16:15:52.000Z</time>
        <extensions>
          <ns3:TrackPointExtension>
            <ns3:atemp>18.0</ns3:atemp>
          </ns3:TrackPointExtension>
        </extensions>
      </trkpt>
      <trkpt lat="46.74484427087008953094482421875" lon="6.9072583504021167755126953125">
        <ele>501.20001220703125</ele>
        <time>2013-09-01T16:15:53.000Z</time>
        <extensions>
          <ns3:TrackPointExtension>
            <ns3:atemp>17.0</ns3:atemp>
          </ns3:TrackPointExtension>
        </extensions>
      </trkpt>
      <trkpt lat="46.74489908851683139801025390625" lon="6.90733135677874088287353515625">
        <ele>501.20001220703125</ele>
        <time>2013-09-01T16:15:54.000Z</time>
        <extensions>
          <ns3:TrackPointExtension>
            <ns3:atemp>17.0</ns3:atemp>
          </ns3:TrackPointExtension>
        </extensions>
      </trkpt>
      <trkpt lat="46.7449548281729221343994140625" lon="6.90740377642214298248291015625">
        <ele>501.20001220703125</ele>
        <time>2013-09-01T16:15:55.000Z</time>
        <extensions>
          <ns3:TrackPointExtension>
            <ns3:atemp>17.0</ns3:atemp>
          </ns3:TrackPointExtension>
        </extensions>
      </trkpt>
      <trkpt lat="46.74501056782901287078857421875" lon="6.90747519023716449737548828125">
        <ele>501.20001220703125</ele>
        <time>2013-09-01T16:15:56.000Z</time>
        <extensions>
          <ns3:TrackPointExtension>
            <ns3:atemp>17.0</ns3:atemp>
          </ns3:TrackPointExtension>
        </extensions>
      </trkpt>
      <trkpt lat="46.74506806768476963043212890625" lon="6.9075456820428371429443359375">
        <ele>501</ele>
        <time>2013-09-01T16:15:57.000Z</time>
        <extensions>
          <ns3:TrackPointExtension>
            <ns3:atemp>17.0</ns3:atemp>
          </ns3:TrackPointExtension>
        </extensions>
      </trkpt>
      <trkpt lat="46.74512322060763835906982421875" lon="6.9076204486191272735595703125">
        <ele>500.79998779296875</ele>
        <time>2013-09-01T16:15:58.000Z</time>
        <extensions>
          <ns3:TrackPointExtension>
            <ns3:atemp>17.0</ns3:atemp>
          </ns3:TrackPointExtension>
        </extensions>
      </trkpt>
      <trkpt lat="46.74517753534018993377685546875" lon="6.90769664011895656585693359375">
        <ele>500.399993896484375</ele>
        <time>2013-09-01T16:15:59.000Z</time>
        <extensions>
          <ns3:TrackPointExtension>
            <ns3:atemp>17.0</ns3:atemp>
          </ns3:TrackPointExtension>
        </extensions>
      </trkpt>
      <trkpt lat="46.745235621929168701171875" lon="6.9077713228762149810791015625">
        <ele>500.20001220703125</ele>
        <time>2013-09-01T16:16:00.000Z</time>
        <extensions>
          <ns3:TrackPointExtension>
            <ns3:atemp>17.0</ns3:atemp>
          </ns3:TrackPointExtension>
        </extensions>
      </trkpt>
      <trkpt lat="46.74529203213751316070556640625" lon="6.9078487716615200042724609375">
        <ele>499.600006103515625</ele>
        <time>2013-09-01T16:16:01.000Z</time>
        <extensions>
          <ns3:TrackPointExtension>
            <ns3:atemp>17.0</ns3:atemp>
          </ns3:TrackPointExtension>
        </extensions>
      </trkpt>
      <trkpt lat="46.7453501187264919281005859375" lon="6.9079218618571758270263671875">
        <ele>499.600006103515625</ele>
        <time>2013-09-01T16:16:02.000Z</time>
        <extensions>
          <ns3:TrackPointExtension>
            <ns3:atemp>17.0</ns3:atemp>
          </ns3:TrackPointExtension>
        </extensions>
      </trkpt>
      <trkpt lat="46.74540770240128040313720703125" lon="6.90799713134765625">
        <ele>499.79998779296875</ele>
        <time>2013-09-01T16:16:03.000Z</time>
        <extensions>
          <ns3:TrackPointExtension>
            <ns3:atemp>17.0</ns3:atemp>
          </ns3:TrackPointExtension>
        </extensions>
      </trkpt>
      <trkpt lat="46.74546553753316402435302734375" lon="6.9080724008381366729736328125">
        <ele>500</ele>
        <time>2013-09-01T16:16:04.000Z</time>
        <extensions>
          <ns3:TrackPointExtension>
            <ns3:atemp>17.0</ns3:atemp>
          </ns3:TrackPointExtension>
        </extensions>
      </trkpt>
      <trkpt lat="46.7455231212079524993896484375" lon="6.9081464968621730804443359375">
        <ele>500.20001220703125</ele>
        <time>2013-09-01T16:16:05.000Z</time>
        <extensions>
          <ns3:TrackPointExtension>
            <ns3:atemp>17.0</ns3:atemp>
          </ns3:TrackPointExtension>
        </extensions>
      </trkpt>
      <trkpt lat="46.74557617865502834320068359375" lon="6.9082237780094146728515625">
        <ele>500.20001220703125</ele>
        <time>2013-09-01T16:16:06.000Z</time>
        <extensions>
          <ns3:TrackPointExtension>
            <ns3:atemp>17.0</ns3:atemp>
          </ns3:TrackPointExtension>
        </extensions>
      </trkpt>
      <trkpt lat="46.74563057720661163330078125" lon="6.90830047242343425750732421875">
        <ele>499.79998779296875</ele>
        <time>2013-09-01T16:16:07.000Z</time>
        <extensions>
          <ns3:TrackPointExtension>
            <ns3:atemp>17.0</ns3:atemp>
          </ns3:TrackPointExtension>
        </extensions>
      </trkpt>
      <trkpt lat="46.74568531103432178497314453125" lon="6.90837222151458263397216796875">
        <ele>499.600006103515625</ele>
        <time>2013-09-01T16:16:08.000Z</time>
        <extensions>
          <ns3:TrackPointExtension>
            <ns3:atemp>17.0</ns3:atemp>
          </ns3:TrackPointExtension>
        </extensions>
      </trkpt>
      <trkpt lat="46.74574197269976139068603515625" lon="6.9084415398538112640380859375">
        <ele>499.600006103515625</ele>
        <time>2013-09-01T16:16:09.000Z</time>
        <extensions>
          <ns3:TrackPointExtension>
            <ns3:atemp>17.0</ns3:atemp>
          </ns3:TrackPointExtension>
        </extensions>
      </trkpt>
      <trkpt lat="46.745799891650676727294921875" lon="6.908506415784358978271484375">
        <ele>499.399993896484375</ele>
        <time>2013-09-01T16:16:10.000Z</time>
        <extensions>
          <ns3:TrackPointExtension>
            <ns3:atemp>17.0</ns3:atemp>
          </ns3:TrackPointExtension>
        </extensions>
      </trkpt>
      <trkpt lat="46.74585848115384578704833984375" lon="6.9085719622671604156494140625">
        <ele>499.20001220703125</ele>
        <time>2013-09-01T16:16:11.000Z</time>
        <extensions>
          <ns3:TrackPointExtension>
            <ns3:atemp>17.0</ns3:atemp>
          </ns3:TrackPointExtension>
        </extensions>
      </trkpt>
      <trkpt lat="46.74591396935284137725830078125" lon="6.90863289870321750640869140625">
        <ele>499</ele>
        <time>2013-09-01T16:16:12.000Z</time>
        <extensions>
          <ns3:TrackPointExtension>
            <ns3:atemp>17.0</ns3:atemp>
          </ns3:TrackPointExtension>
        </extensions>
      </trkpt>
      <trkpt lat="46.745970882475376129150390625" lon="6.9086946733295917510986328125">
        <ele>498.79998779296875</ele>
        <time>2013-09-01T16:16:13.000Z</time>
        <extensions>
          <ns3:TrackPointExtension>
            <ns3:atemp>17.0</ns3:atemp>
          </ns3:TrackPointExtension>
        </extensions>
      </trkpt>
      <trkpt lat="46.74602913670241832733154296875" lon="6.90875493921339511871337890625">
        <ele>498.600006103515625</ele>
        <time>2013-09-01T16:16:14.000Z</time>
        <extensions>
          <ns3:TrackPointExtension>
            <ns3:atemp>17.0</ns3:atemp>
          </ns3:TrackPointExtension>
        </extensions>
      </trkpt>
      <trkpt lat="46.74608646892011165618896484375" lon="6.9088140316307544708251953125">
        <ele>498.399993896484375</ele>
        <time>2013-09-01T16:16:15.000Z</time>
        <extensions>
          <ns3:TrackPointExtension>
            <ns3:atemp>17.0</ns3:atemp>
          </ns3:TrackPointExtension>
        </extensions>
      </trkpt>
      <trkpt lat="46.746141873300075531005859375" lon="6.90887379460036754608154296875">
        <ele>498</ele>
        <time>2013-09-01T16:16:16.000Z</time>
        <extensions>
          <ns3:TrackPointExtension>
            <ns3:atemp>17.0</ns3:atemp>
          </ns3:TrackPointExtension>
        </extensions>
      </trkpt>
      <trkpt lat="46.74619375728070735931396484375" lon="6.9089327193796634674072265625">
        <ele>498.20001220703125</ele>
        <time>2013-09-01T16:16:17.000Z</time>
        <extensions>
          <ns3:TrackPointExtension>
            <ns3:atemp>17.0</ns3:atemp>
          </ns3:TrackPointExtension>
        </extensions>
      </trkpt>
      <trkpt lat="46.746249832212924957275390625" lon="6.90898393280804157257080078125">
        <ele>498.20001220703125</ele>
        <time>2013-09-01T16:16:18.000Z</time>
        <extensions>
          <ns3:TrackPointExtension>
            <ns3:atemp>17.0</ns3:atemp>
          </ns3:TrackPointExtension>
        </extensions>
      </trkpt>
      <trkpt lat="46.746304146945476531982421875" lon="6.90903305076062679290771484375">
        <ele>498</ele>
        <time>2013-09-01T16:16:19.000Z</time>
        <extensions>
          <ns3:TrackPointExtension>
            <ns3:atemp>17.0</ns3:atemp>
          </ns3:TrackPointExtension>
        </extensions>
      </trkpt>
      <trkpt lat="46.74635770730674266815185546875" lon="6.9090820848941802978515625">
        <ele>497.79998779296875</ele>
        <time>2013-09-01T16:16:20.000Z</time>
        <extensions>
          <ns3:TrackPointExtension>
            <ns3:atemp>17.0</ns3:atemp>
          </ns3:TrackPointExtension>
        </extensions>
      </trkpt>
      <trkpt lat="46.746407411992549896240234375" lon="6.909134387969970703125">
        <ele>497.79998779296875</ele>
        <time>2013-09-01T16:16:21.000Z</time>
        <extensions>
          <ns3:TrackPointExtension>
            <ns3:atemp>17.0</ns3:atemp>
          </ns3:TrackPointExtension>
        </extensions>
      </trkpt>
      <trkpt lat="46.74645493738353252410888671875" lon="6.9091840088367462158203125">
        <ele>498</ele>
        <time>2013-09-01T16:16:22.000Z</time>
        <extensions>
          <ns3:TrackPointExtension>
            <ns3:atemp>17.0</ns3:atemp>
          </ns3:TrackPointExtension>
        </extensions>
      </trkpt>
      <trkpt lat="46.746501289308071136474609375" lon="6.9092269241809844970703125">
        <ele>497.79998779296875</ele>
        <time>2013-09-01T16:16:23.000Z</time>
        <extensions>
          <ns3:TrackPointExtension>
            <ns3:atemp>17.0</ns3:atemp>
          </ns3:TrackPointExtension>
        </extensions>
      </trkpt>
      <trkpt lat="46.7465477250516414642333984375" lon="6.90927025862038135528564453125">
        <ele>497.600006103515625</ele>
        <time>2013-09-01T16:16:24.000Z</time>
        <extensions>
          <ns3:TrackPointExtension>
            <ns3:atemp>17.0</ns3:atemp>
          </ns3:TrackPointExtension>
        </extensions>
      </trkpt>
      <trkpt lat="46.74659390933811664581298828125" lon="6.909314431250095367431640625">
        <ele>498.20001220703125</ele>
        <time>2013-09-01T16:16:25.000Z</time>
        <extensions>
          <ns3:TrackPointExtension>
            <ns3:atemp>17.0</ns3:atemp>
          </ns3:TrackPointExtension>
        </extensions>
      </trkpt>
      <trkpt lat="46.7466405965387821197509765625" lon="6.90935659222304821014404296875">
        <ele>498.79998779296875</ele>
        <time>2013-09-01T16:16:26.000Z</time>
        <extensions>
          <ns3:TrackPointExtension>
            <ns3:atemp>17.0</ns3:atemp>
          </ns3:TrackPointExtension>
        </extensions>
      </trkpt>
      <trkpt lat="46.7466861940920352935791015625" lon="6.90939565189182758331298828125">
        <ele>499</ele>
        <time>2013-09-01T16:16:27.000Z</time>
        <extensions>
          <ns3:TrackPointExtension>
            <ns3:atemp>17.0</ns3:atemp>
          </ns3:TrackPointExtension>
        </extensions>
      </trkpt>
      <trkpt lat="46.74673154018819332122802734375" lon="6.9094319455325603485107421875">
        <ele>499</ele>
        <time>2013-09-01T16:16:28.000Z</time>
        <extensions>
          <ns3:TrackPointExtension>
            <ns3:atemp>17.0</ns3:atemp>
          </ns3:TrackPointExtension>
        </extensions>
      </trkpt>
      <trkpt lat="46.7467760480940341949462890625" lon="6.90946974791586399078369140625">
        <ele>498.79998779296875</ele>
        <time>2013-09-01T16:16:29.000Z</time>
        <extensions>
          <ns3:TrackPointExtension>
            <ns3:atemp>17.0</ns3:atemp>
          </ns3:TrackPointExtension>
        </extensions>
      </trkpt>
      <trkpt lat="46.74681988544762134552001953125" lon="6.90950528718531131744384765625">
        <ele>498.600006103515625</ele>
        <time>2013-09-01T16:16:30.000Z</time>
        <extensions>
          <ns3:TrackPointExtension>
            <ns3:atemp>17.0</ns3:atemp>
          </ns3:TrackPointExtension>
        </extensions>
      </trkpt>
      <trkpt lat="46.74686280079185962677001953125" lon="6.90954367630183696746826171875">
        <ele>498.79998779296875</ele>
        <time>2013-09-01T16:16:31.000Z</time>
        <extensions>
          <ns3:TrackPointExtension>
            <ns3:atemp>17.0</ns3:atemp>
          </ns3:TrackPointExtension>
        </extensions>
      </trkpt>
      <trkpt lat="46.74690655432641506195068359375" lon="6.9095808081328868865966796875">
        <ele>498.79998779296875</ele>
        <time>2013-09-01T16:16:32.000Z</time>
        <extensions>
          <ns3:TrackPointExtension>
            <ns3:atemp>17.0</ns3:atemp>
          </ns3:TrackPointExtension>
        </extensions>
      </trkpt>
      <trkpt lat="46.74694754183292388916015625" lon="6.9096176885068416595458984375">
        <ele>498.79998779296875</ele>
        <time>2013-09-01T16:16:33.000Z</time>
        <extensions>
          <ns3:TrackPointExtension>
            <ns3:atemp>17.0</ns3:atemp>
          </ns3:TrackPointExtension>
        </extensions>
      </trkpt>
      <trkpt lat="46.74698777496814727783203125" lon="6.90965565852820873260498046875">
        <ele>498.79998779296875</ele>
        <time>2013-09-01T16:16:34.000Z</time>
        <extensions>
          <ns3:TrackPointExtension>
            <ns3:atemp>17.0</ns3:atemp>
          </ns3:TrackPointExtension>
        </extensions>
      </trkpt>
      <trkpt lat="46.74703312106430530548095703125" lon="6.9096914492547512054443359375">
        <ele>499</ele>
        <time>2013-09-01T16:16:35.000Z</time>
        <extensions>
          <ns3:TrackPointExtension>
            <ns3:atemp>17.0</ns3:atemp>
          </ns3:TrackPointExtension>
        </extensions>
      </trkpt>
      <trkpt lat="46.7470767907798290252685546875" lon="6.909732855856418609619140625">
        <ele>498.79998779296875</ele>
        <time>2013-09-01T16:16:36.000Z</time>
        <extensions>
          <ns3:TrackPointExtension>
            <ns3:atemp>17.0</ns3:atemp>
          </ns3:TrackPointExtension>
        </extensions>
      </trkpt>
      <trkpt lat="46.74711911939084529876708984375" lon="6.90977468155324459075927734375">
        <ele>498.20001220703125</ele>
        <time>2013-09-01T16:16:37.000Z</time>
        <extensions>
          <ns3:TrackPointExtension>
            <ns3:atemp>17.0</ns3:atemp>
          </ns3:TrackPointExtension>
        </extensions>
      </trkpt>
      <trkpt lat="46.74716169945895671844482421875" lon="6.909813322126865386962890625">
        <ele>498</ele>
        <time>2013-09-01T16:16:38.000Z</time>
        <extensions>
          <ns3:TrackPointExtension>
            <ns3:atemp>17.0</ns3:atemp>
          </ns3:TrackPointExtension>
        </extensions>
      </trkpt>
      <trkpt lat="46.74720369279384613037109375" lon="6.90984852612018585205078125">
        <ele>498</ele>
        <time>2013-09-01T16:16:39.000Z</time>
        <extensions>
          <ns3:TrackPointExtension>
            <ns3:atemp>17.0</ns3:atemp>
          </ns3:TrackPointExtension>
        </extensions>
      </trkpt>
      <trkpt lat="46.7472447641193866729736328125" lon="6.90988750196993350982666015625">
        <ele>498.79998779296875</ele>
        <time>2013-09-01T16:16:40.000Z</time>
        <extensions>
          <ns3:TrackPointExtension>
            <ns3:atemp>17.0</ns3:atemp>
          </ns3:TrackPointExtension>
        </extensions>
      </trkpt>
      <trkpt lat="46.74728625454008579254150390625" lon="6.909925974905490875244140625">
        <ele>499.399993896484375</ele>
        <time>2013-09-01T16:16:41.000Z</time>
        <extensions>
          <ns3:TrackPointExtension>
            <ns3:atemp>17.0</ns3:atemp>
          </ns3:TrackPointExtension>
        </extensions>
      </trkpt>
      <trkpt lat="46.74732548184692859649658203125" lon="6.90996746532618999481201171875">
        <ele>500</ele>
        <time>2013-09-01T16:16:42.000Z</time>
        <extensions>
          <ns3:TrackPointExtension>
            <ns3:atemp>17.0</ns3:atemp>
          </ns3:TrackPointExtension>
        </extensions>
      </trkpt>
      <trkpt lat="46.74736504442989826202392578125" lon="6.91000853665173053741455078125">
        <ele>500</ele>
        <time>2013-09-01T16:16:43.000Z</time>
        <extensions>
          <ns3:TrackPointExtension>
            <ns3:atemp>17.0</ns3:atemp>
          </ns3:TrackPointExtension>
        </extensions>
      </trkpt>
      <trkpt lat="46.74740561284124851226806640625" lon="6.9100471772253513336181640625">
        <ele>499.600006103515625</ele>
        <time>2013-09-01T16:16:44.000Z</time>
        <extensions>
          <ns3:TrackPointExtension>
            <ns3:atemp>17.0</ns3:atemp>
          </ns3:TrackPointExtension>
        </extensions>
      </trkpt>
      <trkpt lat="46.74744500778615474700927734375" lon="6.91009034402668476104736328125">
        <ele>499.600006103515625</ele>
        <time>2013-09-01T16:16:45.000Z</time>
        <extensions>
          <ns3:TrackPointExtension>
            <ns3:atemp>17.0</ns3:atemp>
          </ns3:TrackPointExtension>
        </extensions>
      </trkpt>
      <trkpt lat="46.74748021177947521209716796875" lon="6.91013812087476253509521484375">
        <ele>500</ele>
        <time>2013-09-01T16:16:46.000Z</time>
        <extensions>
          <ns3:TrackPointExtension>
            <ns3:atemp>17.0</ns3:atemp>
          </ns3:TrackPointExtension>
        </extensions>
      </trkpt>
      <trkpt lat="46.7475163377821445465087890625" lon="6.91018254496157169342041015625">
        <ele>500.20001220703125</ele>
        <time>2013-09-01T16:16:47.000Z</time>
        <extensions>
          <ns3:TrackPointExtension>
            <ns3:atemp>17.0</ns3:atemp>
          </ns3:TrackPointExtension>
        </extensions>
      </trkpt>
      <trkpt lat="46.747552715241909027099609375" lon="6.910226047039031982421875">
        <ele>500.399993896484375</ele>
        <time>2013-09-01T16:16:48.000Z</time>
        <extensions>
          <ns3:TrackPointExtension>
            <ns3:atemp>17.0</ns3:atemp>
          </ns3:TrackPointExtension>
        </extensions>
      </trkpt>
      <trkpt lat="46.74758766777813434600830078125" lon="6.9102728180587291717529296875">
        <ele>500.399993896484375</ele>
        <time>2013-09-01T16:16:49.000Z</time>
        <extensions>
          <ns3:TrackPointExtension>
            <ns3:atemp>17.0</ns3:atemp>
          </ns3:TrackPointExtension>
        </extensions>
      </trkpt>
      <trkpt lat="46.74762169830501079559326171875" lon="6.9103204272687435150146484375">
        <ele>500.399993896484375</ele>
        <time>2013-09-01T16:16:50.000Z</time>
        <extensions>
          <ns3:TrackPointExtension>
            <ns3:atemp>17.0</ns3:atemp>
          </ns3:TrackPointExtension>
        </extensions>
      </trkpt>
      <trkpt lat="46.74765656702220439910888671875" lon="6.91036677919328212738037109375">
        <ele>500.600006103515625</ele>
        <time>2013-09-01T16:16:51.000Z</time>
        <extensions>
          <ns3:TrackPointExtension>
            <ns3:atemp>17.0</ns3:atemp>
          </ns3:TrackPointExtension>
        </extensions>
      </trkpt>
      <trkpt lat="46.74769319593906402587890625" lon="6.91041304729878902435302734375">
        <ele>500.79998779296875</ele>
        <time>2013-09-01T16:16:52.000Z</time>
        <extensions>
          <ns3:TrackPointExtension>
            <ns3:atemp>17.0</ns3:atemp>
          </ns3:TrackPointExtension>
        </extensions>
      </trkpt>
      <trkpt lat="46.747726388275623321533203125" lon="6.91046015359461307525634765625">
        <ele>501</ele>
        <time>2013-09-01T16:16:53.000Z</time>
        <extensions>
          <ns3:TrackPointExtension>
            <ns3:atemp>17.0</ns3:atemp>
          </ns3:TrackPointExtension>
        </extensions>
      </trkpt>
      <trkpt lat="46.7477570660412311553955078125" lon="6.910510361194610595703125">
        <ele>501.20001220703125</ele>
        <time>2013-09-01T16:16:54.000Z</time>
        <extensions>
          <ns3:TrackPointExtension>
            <ns3:atemp>17.0</ns3:atemp>
          </ns3:TrackPointExtension>
        </extensions>
      </trkpt>
      <trkpt lat="46.7477902583777904510498046875" lon="6.910558640956878662109375">
        <ele>501.399993896484375</ele>
        <time>2013-09-01T16:16:55.000Z</time>
        <extensions>
          <ns3:TrackPointExtension>
            <ns3:atemp>17.0</ns3:atemp>
          </ns3:TrackPointExtension>
        </extensions>
      </trkpt>
      <trkpt lat="46.7478239536285400390625" lon="6.910605914890766143798828125">
        <ele>501.399993896484375</ele>
        <time>2013-09-01T16:16:56.000Z</time>
        <extensions>
          <ns3:TrackPointExtension>
            <ns3:atemp>17.0</ns3:atemp>
          </ns3:TrackPointExtension>
        </extensions>
      </trkpt>
      <trkpt lat="46.7478566430509090423583984375" lon="6.910656206309795379638671875">
        <ele>501.20001220703125</ele>
        <time>2013-09-01T16:16:57.000Z</time>
        <extensions>
          <ns3:TrackPointExtension>
            <ns3:atemp>17.0</ns3:atemp>
          </ns3:TrackPointExtension>
        </extensions>
      </trkpt>
      <trkpt lat="46.74788757227361202239990234375" lon="6.9107128679752349853515625">
        <ele>501</ele>
        <time>2013-09-01T16:16:58.000Z</time>
        <extensions>
          <ns3:TrackPointExtension>
            <ns3:atemp>17.0</ns3:atemp>
          </ns3:TrackPointExtension>
        </extensions>
      </trkpt>
      <trkpt lat="46.74791975878179073333740234375" lon="6.91076324321329593658447265625">
        <ele>501</ele>
        <time>2013-09-01T16:16:59.000Z</time>
        <extensions>
          <ns3:TrackPointExtension>
            <ns3:atemp>17.0</ns3:atemp>
          </ns3:TrackPointExtension>
        </extensions>
      </trkpt>
      <trkpt lat="46.7479501850903034210205078125" lon="6.91082082688808441162109375">
        <ele>501.20001220703125</ele>
        <time>2013-09-01T16:17:00.000Z</time>
        <extensions>
          <ns3:TrackPointExtension>
            <ns3:atemp>17.0</ns3:atemp>
          </ns3:TrackPointExtension>
        </extensions>
      </trkpt>
      <trkpt lat="46.747981868684291839599609375" lon="6.91088519990444183349609375">
        <ele>501.600006103515625</ele>
        <time>2013-09-01T16:17:01.000Z</time>
        <extensions>
          <ns3:TrackPointExtension>
            <ns3:atemp>17.0</ns3:atemp>
          </ns3:TrackPointExtension>
        </extensions>
      </trkpt>
      <trkpt lat="46.748014390468597412109375" lon="6.91094093956053256988525390625">
        <ele>502.20001220703125</ele>
        <time>2013-09-01T16:17:02.000Z</time>
        <extensions>
          <ns3:TrackPointExtension>
            <ns3:atemp>17.0</ns3:atemp>
          </ns3:TrackPointExtension>
        </extensions>
      </trkpt>
      <trkpt lat="46.74804599024355411529541015625" lon="6.9109956733882427215576171875">
        <ele>502.399993896484375</ele>
        <time>2013-09-01T16:17:03.000Z</time>
        <extensions>
          <ns3:TrackPointExtension>
            <ns3:atemp>17.0</ns3:atemp>
          </ns3:TrackPointExtension>
        </extensions>
      </trkpt>
      <trkpt lat="46.7480782605707645416259765625" lon="6.91104856319725513458251953125">
        <ele>502.20001220703125</ele>
        <time>2013-09-01T16:17:04.000Z</time>
        <extensions>
          <ns3:TrackPointExtension>
            <ns3:atemp>17.0</ns3:atemp>
          </ns3:TrackPointExtension>
        </extensions>
      </trkpt>
      <trkpt lat="46.74811371602118015289306640625" lon="6.91110136918723583221435546875">
        <ele>502.20001220703125</ele>
        <time>2013-09-01T16:17:05.000Z</time>
        <extensions>
          <ns3:TrackPointExtension>
            <ns3:atemp>17.0</ns3:atemp>
          </ns3:TrackPointExtension>
        </extensions>
      </trkpt>
      <trkpt lat="46.7481466569006443023681640625" lon="6.91115685738623142242431640625">
        <ele>502</ele>
        <time>2013-09-01T16:17:06.000Z</time>
        <extensions>
          <ns3:TrackPointExtension>
            <ns3:atemp>17.0</ns3:atemp>
          </ns3:TrackPointExtension>
        </extensions>
      </trkpt>
      <trkpt lat="46.74817741848528385162353515625" lon="6.91121108829975128173828125">
        <ele>502.399993896484375</ele>
        <time>2013-09-01T16:17:07.000Z</time>
        <extensions>
          <ns3:TrackPointExtension>
            <ns3:atemp>17.0</ns3:atemp>
          </ns3:TrackPointExtension>
        </extensions>
      </trkpt>
      <trkpt lat="46.74820776097476482391357421875" lon="6.91126313991844654083251953125">
        <ele>503</ele>
        <time>2013-09-01T16:17:08.000Z</time>
        <extensions>
          <ns3:TrackPointExtension>
            <ns3:atemp>17.0</ns3:atemp>
          </ns3:TrackPointExtension>
        </extensions>
      </trkpt>
      <trkpt lat="46.748238019645214080810546875" lon="6.91131728701293468475341796875">
        <ele>503.600006103515625</ele>
        <time>2013-09-01T16:17:09.000Z</time>
        <extensions>
          <ns3:TrackPointExtension>
            <ns3:atemp>17.0</ns3:atemp>
          </ns3:TrackPointExtension>
        </extensions>
      </trkpt>
      <trkpt lat="46.74827045761048793792724609375" lon="6.91136841662228107452392578125">
        <ele>504</ele>
        <time>2013-09-01T16:17:10.000Z</time>
        <extensions>
          <ns3:TrackPointExtension>
            <ns3:atemp>17.0</ns3:atemp>
          </ns3:TrackPointExtension>
        </extensions>
      </trkpt>
      <trkpt lat="46.74830499105155467987060546875" lon="6.91142030060291290283203125">
        <ele>504.20001220703125</ele>
        <time>2013-09-01T16:17:11.000Z</time>
        <extensions>
          <ns3:TrackPointExtension>
            <ns3:atemp>17.0</ns3:atemp>
          </ns3:TrackPointExtension>
        </extensions>
      </trkpt>
      <trkpt lat="46.74833952449262142181396484375" lon="6.9114731065928936004638671875">
        <ele>504.20001220703125</ele>
        <time>2013-09-01T16:17:12.000Z</time>
        <extensions>
          <ns3:TrackPointExtension>
            <ns3:atemp>17.0</ns3:atemp>
          </ns3:TrackPointExtension>
        </extensions>
      </trkpt>
      <trkpt lat="46.74837053753435611724853515625" lon="6.9115260802209377288818359375">
        <ele>504.20001220703125</ele>
        <time>2013-09-01T16:17:13.000Z</time>
        <extensions>
          <ns3:TrackPointExtension>
            <ns3:atemp>17.0</ns3:atemp>
          </ns3:TrackPointExtension>
        </extensions>
      </trkpt>
      <trkpt lat="46.74840171821415424346923828125" lon="6.91157612018287181854248046875">
        <ele>504.399993896484375</ele>
        <time>2013-09-01T16:17:14.000Z</time>
        <extensions>
          <ns3:TrackPointExtension>
            <ns3:atemp>17.0</ns3:atemp>
          </ns3:TrackPointExtension>
        </extensions>
      </trkpt>
      <trkpt lat="46.7484336532652378082275390625" lon="6.91162414848804473876953125">
        <ele>504.399993896484375</ele>
        <time>2013-09-01T16:17:15.000Z</time>
        <extensions>
          <ns3:TrackPointExtension>
            <ns3:atemp>17.0</ns3:atemp>
          </ns3:TrackPointExtension>
        </extensions>
      </trkpt>
      <trkpt lat="46.74846567213535308837890625" lon="6.9116742722690105438232421875">
        <ele>504.399993896484375</ele>
        <time>2013-09-01T16:17:16.000Z</time>
        <extensions>
          <ns3:TrackPointExtension>
            <ns3:atemp>17.0</ns3:atemp>
          </ns3:TrackPointExtension>
        </extensions>
      </trkpt>
      <trkpt lat="46.74850028939545154571533203125" lon="6.911720372736454010009765625">
        <ele>504.399993896484375</ele>
        <time>2013-09-01T16:17:17.000Z</time>
        <extensions>
          <ns3:TrackPointExtension>
            <ns3:atemp>17.0</ns3:atemp>
          </ns3:TrackPointExtension>
        </extensions>
      </trkpt>
      <trkpt lat="46.74853733740746974945068359375" lon="6.91175851039588451385498046875">
        <ele>504.399993896484375</ele>
        <time>2013-09-01T16:17:18.000Z</time>
        <extensions>
          <ns3:TrackPointExtension>
            <ns3:atemp>17.0</ns3:atemp>
          </ns3:TrackPointExtension>
        </extensions>
      </trkpt>
      <trkpt lat="46.748575307428836822509765625" lon="6.911797486245632171630859375">
        <ele>504.600006103515625</ele>
        <time>2013-09-01T16:17:19.000Z</time>
        <extensions>
          <ns3:TrackPointExtension>
            <ns3:atemp>17.0</ns3:atemp>
          </ns3:TrackPointExtension>
        </extensions>
      </trkpt>
      <trkpt lat="46.74861059524118900299072265625" lon="6.9118445925414562225341796875">
        <ele>504.600006103515625</ele>
        <time>2013-09-01T16:17:20.000Z</time>
        <extensions>
          <ns3:TrackPointExtension>
            <ns3:atemp>17.0</ns3:atemp>
          </ns3:TrackPointExtension>
        </extensions>
      </trkpt>
      <trkpt lat="46.7486433684825897216796875" lon="6.91189547069370746612548828125">
        <ele>504.79998779296875</ele>
        <time>2013-09-01T16:17:21.000Z</time>
        <extensions>
          <ns3:TrackPointExtension>
            <ns3:atemp>17.0</ns3:atemp>
          </ns3:TrackPointExtension>
        </extensions>
      </trkpt>
      <trkpt lat="46.74867689609527587890625" lon="6.91194601356983184814453125">
        <ele>505</ele>
        <time>2013-09-01T16:17:22.000Z</time>
        <extensions>
          <ns3:TrackPointExtension>
            <ns3:atemp>17.0</ns3:atemp>
          </ns3:TrackPointExtension>
        </extensions>
      </trkpt>
      <trkpt lat="46.748710088431835174560546875" lon="6.9119984842836856842041015625">
        <ele>505.20001220703125</ele>
        <time>2013-09-01T16:17:23.000Z</time>
        <extensions>
          <ns3:TrackPointExtension>
            <ns3:atemp>17.0</ns3:atemp>
          </ns3:TrackPointExtension>
        </extensions>
      </trkpt>
      <trkpt lat="46.7487426102161407470703125" lon="6.9120504520833492279052734375">
        <ele>505.20001220703125</ele>
        <time>2013-09-01T16:17:24.000Z</time>
        <extensions>
          <ns3:TrackPointExtension>
            <ns3:atemp>17.0</ns3:atemp>
          </ns3:TrackPointExtension>
        </extensions>
      </trkpt>
      <trkpt lat="46.74877689220011234283447265625" lon="6.912103928625583648681640625">
        <ele>505.399993896484375</ele>
        <time>2013-09-01T16:17:25.000Z</time>
        <extensions>
          <ns3:TrackPointExtension>
            <ns3:atemp>17.0</ns3:atemp>
          </ns3:TrackPointExtension>
        </extensions>
      </trkpt>
      <trkpt lat="46.74881075508892536163330078125" lon="6.91216100938618183135986328125">
        <ele>505.600006103515625</ele>
        <time>2013-09-01T16:17:26.000Z</time>
        <extensions>
          <ns3:TrackPointExtension>
            <ns3:atemp>17.0</ns3:atemp>
          </ns3:TrackPointExtension>
        </extensions>
      </trkpt>
      <trkpt lat="46.74884277395904064178466796875" lon="6.9122231192886829376220703125">
        <ele>506.20001220703125</ele>
        <time>2013-09-01T16:17:27.000Z</time>
        <extensions>
          <ns3:TrackPointExtension>
            <ns3:atemp>17.0</ns3:atemp>
          </ns3:TrackPointExtension>
        </extensions>
      </trkpt>
      <trkpt lat="46.74887730740010738372802734375" lon="6.91228137351572513580322265625">
        <ele>506.79998779296875</ele>
        <time>2013-09-01T16:17:28.000Z</time>
        <extensions>
          <ns3:TrackPointExtension>
            <ns3:atemp>17.0</ns3:atemp>
          </ns3:TrackPointExtension>
        </extensions>
      </trkpt>
      <trkpt lat="46.7489130981266498565673828125" lon="6.912334598600864410400390625">
        <ele>506.79998779296875</ele>
        <time>2013-09-01T16:17:29.000Z</time>
        <extensions>
          <ns3:TrackPointExtension>
            <ns3:atemp>17.0</ns3:atemp>
          </ns3:TrackPointExtension>
        </extensions>
      </trkpt>
      <trkpt lat="46.748948134481906890869140625" lon="6.9123914279043674468994140625">
        <ele>506.600006103515625</ele>
        <time>2013-09-01T16:17:30.000Z</time>
        <extensions>
          <ns3:TrackPointExtension>
            <ns3:atemp>17.0</ns3:atemp>
          </ns3:TrackPointExtension>
        </extensions>
      </trkpt>
      <trkpt lat="46.74898509867489337921142578125" lon="6.912446580827236175537109375">
        <ele>506.399993896484375</ele>
        <time>2013-09-01T16:17:31.000Z</time>
        <extensions>
          <ns3:TrackPointExtension>
            <ns3:atemp>17.0</ns3:atemp>
          </ns3:TrackPointExtension>
        </extensions>
      </trkpt>
      <trkpt lat="46.74902047030627727508544921875" lon="6.91250533796846866607666015625">
        <ele>505.79998779296875</ele>
        <time>2013-09-01T16:17:32.000Z</time>
        <extensions>
          <ns3:TrackPointExtension>
            <ns3:atemp>17.0</ns3:atemp>
          </ns3:TrackPointExtension>
        </extensions>
      </trkpt>
      <trkpt lat="46.7490545846521854400634765625" lon="6.91256602294743061065673828125">
        <ele>505</ele>
        <time>2013-09-01T16:17:33.000Z</time>
        <extensions>
          <ns3:TrackPointExtension>
            <ns3:atemp>17.0</ns3:atemp>
          </ns3:TrackPointExtension>
        </extensions>
      </trkpt>
      <trkpt lat="46.74908953718841075897216796875" lon="6.91262771375477313995361328125">
        <ele>504.20001220703125</ele>
        <time>2013-09-01T16:17:34.000Z</time>
        <extensions>
          <ns3:TrackPointExtension>
            <ns3:atemp>17.0</ns3:atemp>
          </ns3:TrackPointExtension>
        </extensions>
      </trkpt>
      <trkpt lat="46.74912725575268268585205078125" lon="6.912688650190830230712890625">
        <ele>503.79998779296875</ele>
        <time>2013-09-01T16:17:35.000Z</time>
        <extensions>
          <ns3:TrackPointExtension>
            <ns3:atemp>17.0</ns3:atemp>
          </ns3:TrackPointExtension>
        </extensions>
      </trkpt>
      <trkpt lat="46.749165393412113189697265625" lon="6.91275092773139476776123046875">
        <ele>503.79998779296875</ele>
        <time>2013-09-01T16:17:36.000Z</time>
        <extensions>
          <ns3:TrackPointExtension>
            <ns3:atemp>17.0</ns3:atemp>
          </ns3:TrackPointExtension>
        </extensions>
      </trkpt>
      <trkpt lat="46.74920101650059223175048828125" lon="6.9128195755183696746826171875">
        <ele>504.20001220703125</ele>
        <time>2013-09-01T16:17:37.000Z</time>
        <extensions>
          <ns3:TrackPointExtension>
            <ns3:atemp>17.0</ns3:atemp>
          </ns3:TrackPointExtension>
        </extensions>
      </trkpt>
      <trkpt lat="46.74923102371394634246826171875" lon="6.91289149224758148193359375">
        <ele>504.399993896484375</ele>
        <time>2013-09-01T16:17:38.000Z</time>
        <extensions>
          <ns3:TrackPointExtension>
            <ns3:atemp>17.0</ns3:atemp>
          </ns3:TrackPointExtension>
        </extensions>
      </trkpt>
      <trkpt lat="46.74926455132663249969482421875" lon="6.91295695491135120391845703125">
        <ele>504.399993896484375</ele>
        <time>2013-09-01T16:17:39.000Z</time>
        <extensions>
          <ns3:TrackPointExtension>
            <ns3:atemp>17.0</ns3:atemp>
          </ns3:TrackPointExtension>
        </extensions>
      </trkpt>
      <trkpt lat="46.7493127472698688507080078125" lon="6.913001798093318939208984375">
        <ele>504.399993896484375</ele>
        <time>2013-09-01T16:17:40.000Z</time>
        <extensions>
          <ns3:TrackPointExtension>
            <ns3:atemp>17.0</ns3:atemp>
          </ns3:TrackPointExtension>
        </extensions>
      </trkpt>
      <trkpt lat="46.7493563331663608551025390625" lon="6.91305334679782390594482421875">
        <ele>504.399993896484375</ele>
        <time>2013-09-01T16:17:41.000Z</time>
        <extensions>
          <ns3:TrackPointExtension>
            <ns3:atemp>17.0</ns3:atemp>
          </ns3:TrackPointExtension>
        </extensions>
      </trkpt>
      <trkpt lat="46.74940117634832859039306640625" lon="6.91311436705291271209716796875">
        <ele>504.20001220703125</ele>
        <time>2013-09-01T16:17:42.000Z</time>
        <extensions>
          <ns3:TrackPointExtension>
            <ns3:atemp>17.0</ns3:atemp>
          </ns3:TrackPointExtension>
        </extensions>
      </trkpt>
      <trkpt lat="46.74944442696869373321533203125" lon="6.91317505203187465667724609375">
        <ele>503.79998779296875</ele>
        <time>2013-09-01T16:17:43.000Z</time>
        <extensions>
          <ns3:TrackPointExtension>
            <ns3:atemp>17.0</ns3:atemp>
          </ns3:TrackPointExtension>
        </extensions>
      </trkpt>
      <trkpt lat="46.74949287436902523040771484375" lon="6.9132450409233570098876953125">
        <ele>503.20001220703125</ele>
        <time>2013-09-01T16:17:44.000Z</time>
        <extensions>
          <ns3:TrackPointExtension>
            <ns3:atemp>17.0</ns3:atemp>
          </ns3:TrackPointExtension>
        </extensions>
      </trkpt>
      <trkpt lat="46.7495417408645153045654296875" lon="6.9133194722235202789306640625">
        <ele>503</ele>
        <time>2013-09-01T16:17:45.000Z</time>
        <extensions>
          <ns3:TrackPointExtension>
            <ns3:atemp>17.0</ns3:atemp>
          </ns3:TrackPointExtension>
        </extensions>
      </trkpt>
      <trkpt lat="46.74958960153162479400634765625" lon="6.913390718400478363037109375">
        <ele>503</ele>
        <time>2013-09-01T16:17:46.000Z</time>
        <extensions>
          <ns3:TrackPointExtension>
            <ns3:atemp>17.0</ns3:atemp>
          </ns3:TrackPointExtension>
        </extensions>
      </trkpt>
      <trkpt lat="46.74963654018938541412353515625" lon="6.9134619645774364471435546875">
        <ele>503.20001220703125</ele>
        <time>2013-09-01T16:17:47.000Z</time>
        <extensions>
          <ns3:TrackPointExtension>
            <ns3:atemp>17.0</ns3:atemp>
          </ns3:TrackPointExtension>
        </extensions>
      </trkpt>
      <trkpt lat="46.74968029372394084930419921875" lon="6.91354352049529552459716796875">
        <ele>503.20001220703125</ele>
        <time>2013-09-01T16:17:48.000Z</time>
        <extensions>
          <ns3:TrackPointExtension>
            <ns3:atemp>17.0</ns3:atemp>
          </ns3:TrackPointExtension>
        </extensions>
      </trkpt>
      <trkpt lat="46.74972387962043285369873046875" lon="6.9136202149093151092529296875">
        <ele>502.600006103515625</ele>
        <time>2013-09-01T16:17:49.000Z</time>
        <extensions>
          <ns3:TrackPointExtension>
            <ns3:atemp>17.0</ns3:atemp>
          </ns3:TrackPointExtension>
        </extensions>
      </trkpt>
      <trkpt lat="46.7497687228024005889892578125" lon="6.91369188018143177032470703125">
        <ele>502.20001220703125</ele>
        <time>2013-09-01T16:17:50.000Z</time>
        <extensions>
          <ns3:TrackPointExtension>
            <ns3:atemp>17.0</ns3:atemp>
          </ns3:TrackPointExtension>
        </extensions>
      </trkpt>
      <trkpt lat="46.74981608055531978607177734375" lon="6.91375792957842350006103515625">
        <ele>502</ele>
        <time>2013-09-01T16:17:51.000Z</time>
        <extensions>
          <ns3:TrackPointExtension>
            <ns3:atemp>17.0</ns3:atemp>
          </ns3:TrackPointExtension>
        </extensions>
      </trkpt>
      <trkpt lat="46.74986301921308040618896484375" lon="6.91382355988025665283203125">
        <ele>502</ele>
        <time>2013-09-01T16:17:52.000Z</time>
        <extensions>
          <ns3:TrackPointExtension>
            <ns3:atemp>17.0</ns3:atemp>
          </ns3:TrackPointExtension>
        </extensions>
      </trkpt>
      <trkpt lat="46.7499125562608242034912109375" lon="6.91388793289661407470703125">
        <ele>501.600006103515625</ele>
        <time>2013-09-01T16:17:53.000Z</time>
        <extensions>
          <ns3:TrackPointExtension>
            <ns3:atemp>17.0</ns3:atemp>
          </ns3:TrackPointExtension>
        </extensions>
      </trkpt>
      <trkpt lat="46.74996226094663143157958984375" lon="6.91396261565387248992919921875">
        <ele>501.399993896484375</ele>
        <time>2013-09-01T16:17:54.000Z</time>
        <extensions>
          <ns3:TrackPointExtension>
            <ns3:atemp>17.0</ns3:atemp>
          </ns3:TrackPointExtension>
        </extensions>
      </trkpt>
      <trkpt lat="46.75000953488051891326904296875" lon="6.91403034143149852752685546875">
        <ele>501.20001220703125</ele>
        <time>2013-09-01T16:17:55.000Z</time>
        <extensions>
          <ns3:TrackPointExtension>
            <ns3:atemp>17.0</ns3:atemp>
          </ns3:TrackPointExtension>
        </extensions>
      </trkpt>
      <trkpt lat="46.75005882047116756439208984375" lon="6.91409907303750514984130859375">
        <ele>501.20001220703125</ele>
        <time>2013-09-01T16:17:56.000Z</time>
        <extensions>
          <ns3:TrackPointExtension>
            <ns3:atemp>17.0</ns3:atemp>
          </ns3:TrackPointExtension>
        </extensions>
      </trkpt>
      <trkpt lat="46.75010827369987964630126953125" lon="6.9141714088618755340576171875">
        <ele>501.600006103515625</ele>
        <time>2013-09-01T16:17:57.000Z</time>
        <extensions>
          <ns3:TrackPointExtension>
            <ns3:atemp>17.0</ns3:atemp>
          </ns3:TrackPointExtension>
        </extensions>
      </trkpt>
      <trkpt lat="46.75016024149954319000244140625" lon="6.9142448343336582183837890625">
        <ele>501.600006103515625</ele>
        <time>2013-09-01T16:17:58.000Z</time>
        <extensions>
          <ns3:TrackPointExtension>
            <ns3:atemp>17.0</ns3:atemp>
          </ns3:TrackPointExtension>
        </extensions>
      </trkpt>
      <trkpt lat="46.7502126283943653106689453125" lon="6.91432035528123378753662109375">
        <ele>501.79998779296875</ele>
        <time>2013-09-01T16:17:59.000Z</time>
        <extensions>
          <ns3:TrackPointExtension>
            <ns3:atemp>17.0</ns3:atemp>
          </ns3:TrackPointExtension>
        </extensions>
      </trkpt>
      <trkpt lat="46.750265099108219146728515625" lon="6.91439646296203136444091796875">
        <ele>501.399993896484375</ele>
        <time>2013-09-01T16:18:00.000Z</time>
        <extensions>
          <ns3:TrackPointExtension>
            <ns3:atemp>17.0</ns3:atemp>
          </ns3:TrackPointExtension>
        </extensions>
      </trkpt>
      <trkpt lat="46.75031748600304126739501953125" lon="6.914470978081226348876953125">
        <ele>501.20001220703125</ele>
        <time>2013-09-01T16:18:01.000Z</time>
        <extensions>
          <ns3:TrackPointExtension>
            <ns3:atemp>17.0</ns3:atemp>
          </ns3:TrackPointExtension>
        </extensions>
      </trkpt>
      <trkpt lat="46.75037129782140254974365234375" lon="6.91454909741878509521484375">
        <ele>500.399993896484375</ele>
        <time>2013-09-01T16:18:02.000Z</time>
        <extensions>
          <ns3:TrackPointExtension>
            <ns3:atemp>17.0</ns3:atemp>
          </ns3:TrackPointExtension>
        </extensions>
      </trkpt>
      <trkpt lat="46.7504243552684783935546875" lon="6.91462713293731212615966796875">
        <ele>500.20001220703125</ele>
        <time>2013-09-01T16:18:03.000Z</time>
        <extensions>
          <ns3:TrackPointExtension>
            <ns3:atemp>17.0</ns3:atemp>
          </ns3:TrackPointExtension>
        </extensions>
      </trkpt>
      <trkpt lat="46.75047556869685649871826171875" lon="6.91470558755099773406982421875">
        <ele>499.79998779296875</ele>
        <time>2013-09-01T16:18:04.000Z</time>
        <extensions>
          <ns3:TrackPointExtension>
            <ns3:atemp>17.0</ns3:atemp>
          </ns3:TrackPointExtension>
        </extensions>
      </trkpt>
      <trkpt lat="46.75053172744810581207275390625" lon="6.91477934829890727996826171875">
        <ele>499.600006103515625</ele>
        <time>2013-09-01T16:18:05.000Z</time>
        <extensions>
          <ns3:TrackPointExtension>
            <ns3:atemp>17.0</ns3:atemp>
          </ns3:TrackPointExtension>
        </extensions>
      </trkpt>
      <trkpt lat="46.750588975846767425537109375" lon="6.91485076211392879486083984375">
        <ele>499.399993896484375</ele>
        <time>2013-09-01T16:18:06.000Z</time>
        <extensions>
          <ns3:TrackPointExtension>
            <ns3:atemp>17.0</ns3:atemp>
          </ns3:TrackPointExtension>
        </extensions>
      </trkpt>
      <trkpt lat="46.75064303912222385406494140625" lon="6.91492586396634578704833984375">
        <ele>499.20001220703125</ele>
        <time>2013-09-01T16:18:07.000Z</time>
        <extensions>
          <ns3:TrackPointExtension>
            <ns3:atemp>17.0</ns3:atemp>
          </ns3:TrackPointExtension>
        </extensions>
      </trkpt>
      <trkpt lat="46.75069366581737995147705078125" lon="6.91500532440841197967529296875">
        <ele>499</ele>
        <time>2013-09-01T16:18:08.000Z</time>
        <extensions>
          <ns3:TrackPointExtension>
            <ns3:atemp>17.0</ns3:atemp>
          </ns3:TrackPointExtension>
        </extensions>
      </trkpt>
      <trkpt lat="46.750745214521884918212890625" lon="6.9150821864604949951171875">
        <ele>498.79998779296875</ele>
        <time>2013-09-01T16:18:09.000Z</time>
        <extensions>
          <ns3:TrackPointExtension>
            <ns3:atemp>17.0</ns3:atemp>
          </ns3:TrackPointExtension>
        </extensions>
      </trkpt>
      <trkpt lat="46.75079626031219959259033203125" lon="6.91515804268419742584228515625">
        <ele>499</ele>
        <time>2013-09-01T16:18:10.000Z</time>
        <extensions>
          <ns3:TrackPointExtension>
            <ns3:atemp>17.0</ns3:atemp>
          </ns3:TrackPointExtension>
        </extensions>
      </trkpt>
      <trkpt lat="46.75084487535059452056884765625" lon="6.91523482091724872589111328125">
        <ele>499</ele>
        <time>2013-09-01T16:18:11.000Z</time>
        <extensions>
          <ns3:TrackPointExtension>
            <ns3:atemp>17.0</ns3:atemp>
          </ns3:TrackPointExtension>
        </extensions>
      </trkpt>
      <trkpt lat="46.75089634023606777191162109375" lon="6.91530874930322170257568359375">
        <ele>498.600006103515625</ele>
        <time>2013-09-01T16:18:12.000Z</time>
        <extensions>
          <ns3:TrackPointExtension>
            <ns3:atemp>17.0</ns3:atemp>
          </ns3:TrackPointExtension>
        </extensions>
      </trkpt>
      <trkpt lat="46.75094537436962127685546875" lon="6.91537966020405292510986328125">
        <ele>498.399993896484375</ele>
        <time>2013-09-01T16:18:13.000Z</time>
        <extensions>
          <ns3:TrackPointExtension>
            <ns3:atemp>17.0</ns3:atemp>
          </ns3:TrackPointExtension>
        </extensions>
      </trkpt>
      <trkpt lat="46.75099256448447704315185546875" lon="6.91545610316097736358642578125">
        <ele>498</ele>
        <time>2013-09-01T16:18:14.000Z</time>
        <extensions>
          <ns3:TrackPointExtension>
            <ns3:atemp>17.0</ns3:atemp>
          </ns3:TrackPointExtension>
        </extensions>
      </trkpt>
      <trkpt lat="46.751045286655426025390625" lon="6.9155292771756649017333984375">
        <ele>497.79998779296875</ele>
        <time>2013-09-01T16:18:15.000Z</time>
        <extensions>
          <ns3:TrackPointExtension>
            <ns3:atemp>17.0</ns3:atemp>
          </ns3:TrackPointExtension>
        </extensions>
      </trkpt>
      <trkpt lat="46.75110136158764362335205078125" lon="6.91560965962707996368408203125">
        <ele>497.600006103515625</ele>
        <time>2013-09-01T16:18:16.000Z</time>
        <extensions>
          <ns3:TrackPointExtension>
            <ns3:atemp>17.0</ns3:atemp>
          </ns3:TrackPointExtension>
        </extensions>
      </trkpt>
      <trkpt lat="46.75115592777729034423828125" lon="6.91569364629685878753662109375">
        <ele>497.600006103515625</ele>
        <time>2013-09-01T16:18:17.000Z</time>
        <extensions>
          <ns3:TrackPointExtension>
            <ns3:atemp>17.0</ns3:atemp>
          </ns3:TrackPointExtension>
        </extensions>
      </trkpt>
      <trkpt lat="46.7512161098420619964599609375" lon="6.91577780060470104217529296875">
        <ele>497.20001220703125</ele>
        <time>2013-09-01T16:18:18.000Z</time>
        <extensions>
          <ns3:TrackPointExtension>
            <ns3:atemp>17.0</ns3:atemp>
          </ns3:TrackPointExtension>
        </extensions>
      </trkpt>
      <trkpt lat="46.75127319060266017913818359375" lon="6.91585424356162548065185546875">
        <ele>496.79998779296875</ele>
        <time>2013-09-01T16:18:19.000Z</time>
        <extensions>
          <ns3:TrackPointExtension>
            <ns3:atemp>17.0</ns3:atemp>
          </ns3:TrackPointExtension>
        </extensions>
      </trkpt>
      <trkpt lat="46.7513223923742771148681640625" lon="6.91592616029083728790283203125">
        <ele>496.20001220703125</ele>
        <time>2013-09-01T16:18:20.000Z</time>
        <extensions>
          <ns3:TrackPointExtension>
            <ns3:atemp>17.0</ns3:atemp>
          </ns3:TrackPointExtension>
        </extensions>
      </trkpt>
      <trkpt lat="46.75137477926909923553466796875" lon="6.9159671477973461151123046875">
        <ele>495.79998779296875</ele>
        <time>2013-09-01T16:18:21.000Z</time>
        <extensions>
          <ns3:TrackPointExtension>
            <ns3:atemp>17.0</ns3:atemp>
          </ns3:TrackPointExtension>
        </extensions>
      </trkpt>
      <trkpt lat="46.7514194548130035400390625" lon="6.91596857272088527679443359375">
        <ele>495</ele>
        <time>2013-09-01T16:18:22.000Z</time>
        <extensions>
          <ns3:TrackPointExtension>
            <ns3:atemp>17.0</ns3:atemp>
          </ns3:TrackPointExtension>
        </extensions>
      </trkpt>
      <trkpt lat="46.7514635436236858367919921875" lon="6.915963627398014068603515625">
        <ele>494</ele>
        <time>2013-09-01T16:18:23.000Z</time>
        <extensions>
          <ns3:TrackPointExtension>
            <ns3:atemp>17.0</ns3:atemp>
          </ns3:TrackPointExtension>
        </extensions>
      </trkpt>
      <trkpt lat="46.75150872208178043365478515625" lon="6.9159376434981822967529296875">
        <ele>492.79998779296875</ele>
        <time>2013-09-01T16:18:24.000Z</time>
        <extensions>
          <ns3:TrackPointExtension>
            <ns3:atemp>17.0</ns3:atemp>
          </ns3:TrackPointExtension>
        </extensions>
      </trkpt>
      <trkpt lat="46.751547865569591522216796875" lon="6.9159163534641265869140625">
        <ele>491.79998779296875</ele>
        <time>2013-09-01T16:18:25.000Z</time>
        <extensions>
          <ns3:TrackPointExtension>
            <ns3:atemp>17.0</ns3:atemp>
          </ns3:TrackPointExtension>
        </extensions>
      </trkpt>
      <trkpt lat="46.7515825666487216949462890625" lon="6.91590570844709873199462890625">
        <ele>489.600006103515625</ele>
        <time>2013-09-01T16:18:26.000Z</time>
        <extensions>
          <ns3:TrackPointExtension>
            <ns3:atemp>17.0</ns3:atemp>
          </ns3:TrackPointExtension>
        </extensions>
      </trkpt>
      <trkpt lat="46.751624979078769683837890625" lon="6.9158799760043621063232421875">
        <ele>488.399993896484375</ele>
        <time>2013-09-01T16:18:27.000Z</time>
        <extensions>
          <ns3:TrackPointExtension>
            <ns3:atemp>17.0</ns3:atemp>
          </ns3:TrackPointExtension>
        </extensions>
      </trkpt>
      <trkpt lat="46.75166931934654712677001953125" lon="6.9158474542200565338134765625">
        <ele>487.600006103515625</ele>
        <time>2013-09-01T16:18:28.000Z</time>
        <extensions>
          <ns3:TrackPointExtension>
            <ns3:atemp>17.0</ns3:atemp>
          </ns3:TrackPointExtension>
        </extensions>
      </trkpt>
      <trkpt lat="46.7517173476517200469970703125" lon="6.91582071594893932342529296875">
        <ele>486.20001220703125</ele>
        <time>2013-09-01T16:18:29.000Z</time>
        <extensions>
          <ns3:TrackPointExtension>
            <ns3:atemp>17.0</ns3:atemp>
          </ns3:TrackPointExtension>
        </extensions>
      </trkpt>
      <trkpt lat="46.75177359022200107574462890625" lon="6.915792636573314666748046875">
        <ele>484.79998779296875</ele>
        <time>2013-09-01T16:18:30.000Z</time>
        <extensions>
          <ns3:TrackPointExtension>
            <ns3:atemp>17.0</ns3:atemp>
          </ns3:TrackPointExtension>
        </extensions>
      </trkpt>
      <trkpt lat="46.751830168068408966064453125" lon="6.9157643057405948638916015625">
        <ele>483.399993896484375</ele>
        <time>2013-09-01T16:18:31.000Z</time>
        <extensions>
          <ns3:TrackPointExtension>
            <ns3:atemp>17.0</ns3:atemp>
          </ns3:TrackPointExtension>
        </extensions>
      </trkpt>
      <trkpt lat="46.75187970511615276336669921875" lon="6.91573823802173137664794921875">
        <ele>482.20001220703125</ele>
        <time>2013-09-01T16:18:32.000Z</time>
        <extensions>
          <ns3:TrackPointExtension>
            <ns3:atemp>17.0</ns3:atemp>
          </ns3:TrackPointExtension>
        </extensions>
      </trkpt>
      <trkpt lat="46.7519426532089710235595703125" lon="6.91569984890520572662353515625">
        <ele>481</ele>
        <time>2013-09-01T16:18:33.000Z</time>
        <extensions>
          <ns3:TrackPointExtension>
            <ns3:atemp>17.0</ns3:atemp>
          </ns3:TrackPointExtension>
        </extensions>
      </trkpt>
      <trkpt lat="46.7519942857325077056884765625" lon="6.91567420028150081634521484375">
        <ele>480</ele>
        <time>2013-09-01T16:18:34.000Z</time>
        <extensions>
          <ns3:TrackPointExtension>
            <ns3:atemp>17.0</ns3:atemp>
          </ns3:TrackPointExtension>
        </extensions>
      </trkpt>
      <trkpt lat="46.7520444095134735107421875" lon="6.91565073095262050628662109375">
        <ele>479.20001220703125</ele>
        <time>2013-09-01T16:18:35.000Z</time>
        <extensions>
          <ns3:TrackPointExtension>
            <ns3:atemp>17.0</ns3:atemp>
          </ns3:TrackPointExtension>
        </extensions>
      </trkpt>
      <trkpt lat="46.752094365656375885009765625" lon="6.915630362927913665771484375">
        <ele>478.399993896484375</ele>
        <time>2013-09-01T16:18:36.000Z</time>
        <extensions>
          <ns3:TrackPointExtension>
            <ns3:atemp>17.0</ns3:atemp>
          </ns3:TrackPointExtension>
        </extensions>
      </trkpt>
      <trkpt lat="46.752145327627658843994140625" lon="6.9156186282634735107421875">
        <ele>477.600006103515625</ele>
        <time>2013-09-01T16:18:37.000Z</time>
        <extensions>
          <ns3:TrackPointExtension>
            <ns3:atemp>17.0</ns3:atemp>
          </ns3:TrackPointExtension>
        </extensions>
      </trkpt>
      <trkpt lat="46.752197630703449249267578125" lon="6.915600188076496124267578125">
        <ele>477.20001220703125</ele>
        <time>2013-09-01T16:18:38.000Z</time>
        <extensions>
          <ns3:TrackPointExtension>
            <ns3:atemp>17.0</ns3:atemp>
          </ns3:TrackPointExtension>
        </extensions>
      </trkpt>
      <trkpt lat="46.75224917940795421600341796875" lon="6.91557059995830059051513671875">
        <ele>476.600006103515625</ele>
        <time>2013-09-01T16:18:39.000Z</time>
        <extensions>
          <ns3:TrackPointExtension>
            <ns3:atemp>17.0</ns3:atemp>
          </ns3:TrackPointExtension>
        </extensions>
      </trkpt>
      <trkpt lat="46.7522987164556980133056640625" lon="6.91554411314427852630615234375">
        <ele>476</ele>
        <time>2013-09-01T16:18:40.000Z</time>
        <extensions>
          <ns3:TrackPointExtension>
            <ns3:atemp>17.0</ns3:atemp>
          </ns3:TrackPointExtension>
        </extensions>
      </trkpt>
      <trkpt lat="46.75234188325703144073486328125" lon="6.915529109537601470947265625">
        <ele>474.79998779296875</ele>
        <time>2013-09-01T16:18:41.000Z</time>
        <extensions>
          <ns3:TrackPointExtension>
            <ns3:atemp>17.0</ns3:atemp>
          </ns3:TrackPointExtension>
        </extensions>
      </trkpt>
      <trkpt lat="46.7523828707635402679443359375" lon="6.91551159135997295379638671875">
        <ele>474</ele>
        <time>2013-09-01T16:18:42.000Z</time>
        <extensions>
          <ns3:TrackPointExtension>
            <ns3:atemp>17.0</ns3:atemp>
          </ns3:TrackPointExtension>
        </extensions>
      </trkpt>
      <trkpt lat="46.7524279654026031494140625" lon="6.91548921167850494384765625">
        <ele>473.20001220703125</ele>
        <time>2013-09-01T16:18:43.000Z</time>
        <extensions>
          <ns3:TrackPointExtension>
            <ns3:atemp>17.0</ns3:atemp>
          </ns3:TrackPointExtension>
        </extensions>
      </trkpt>
      <trkpt lat="46.75248454324901103973388671875" lon="6.91545895300805568695068359375">
        <ele>472.399993896484375</ele>
        <time>2013-09-01T16:18:44.000Z</time>
        <extensions>
          <ns3:TrackPointExtension>
            <ns3:atemp>17.0</ns3:atemp>
          </ns3:TrackPointExtension>
        </extensions>
      </trkpt>
      <trkpt lat="46.75254103727638721466064453125" lon="6.91542341373860836029052734375">
        <ele>471.600006103515625</ele>
        <time>2013-09-01T16:18:45.000Z</time>
        <extensions>
          <ns3:TrackPointExtension>
            <ns3:atemp>17.0</ns3:atemp>
          </ns3:TrackPointExtension>
        </extensions>
      </trkpt>
      <trkpt lat="46.75259451381862163543701171875" lon="6.91538116894662380218505859375">
        <ele>470.399993896484375</ele>
        <time>2013-09-01T16:18:46.000Z</time>
        <extensions>
          <ns3:TrackPointExtension>
            <ns3:atemp>17.0</ns3:atemp>
          </ns3:TrackPointExtension>
        </extensions>
      </trkpt>
      <trkpt lat="46.752640195190906524658203125" lon="6.915349401533603668212890625">
        <ele>469</ele>
        <time>2013-09-01T16:18:47.000Z</time>
        <extensions>
          <ns3:TrackPointExtension>
            <ns3:atemp>17.0</ns3:atemp>
          </ns3:TrackPointExtension>
        </extensions>
      </trkpt>
      <trkpt lat="46.75267598591744899749755859375" lon="6.91532157361507415771484375">
        <ele>467.600006103515625</ele>
        <time>2013-09-01T16:18:48.000Z</time>
        <extensions>
          <ns3:TrackPointExtension>
            <ns3:atemp>17.0</ns3:atemp>
          </ns3:TrackPointExtension>
        </extensions>
      </trkpt>
      <trkpt lat="46.75271102227270603179931640625" lon="6.91530506126582622528076171875">
        <ele>466.600006103515625</ele>
        <time>2013-09-01T16:18:49.000Z</time>
        <extensions>
          <ns3:TrackPointExtension>
            <ns3:atemp>17.0</ns3:atemp>
          </ns3:TrackPointExtension>
        </extensions>
      </trkpt>
      <trkpt lat="46.75275645218789577484130859375" lon="6.91531579010188579559326171875">
        <ele>464.79998779296875</ele>
        <time>2013-09-01T16:18:50.000Z</time>
        <extensions>
          <ns3:TrackPointExtension>
            <ns3:atemp>17.0</ns3:atemp>
          </ns3:TrackPointExtension>
        </extensions>
      </trkpt>
      <trkpt lat="46.75279919989407062530517578125" lon="6.91534034907817840576171875">
        <ele>463.399993896484375</ele>
        <time>2013-09-01T16:18:51.000Z</time>
        <extensions>
          <ns3:TrackPointExtension>
            <ns3:atemp>17.0</ns3:atemp>
          </ns3:TrackPointExtension>
        </extensions>
      </trkpt>
      <trkpt lat="46.75284161232411861419677734375" lon="6.9153851084411144256591796875">
        <ele>462.20001220703125</ele>
        <time>2013-09-01T16:18:52.000Z</time>
        <extensions>
          <ns3:TrackPointExtension>
            <ns3:atemp>17.0</ns3:atemp>
          </ns3:TrackPointExtension>
        </extensions>
      </trkpt>
      <trkpt lat="46.75292082130908966064453125" lon="6.91547353751957416534423828125">
        <ele>460.79998779296875</ele>
        <time>2013-09-01T16:18:53.000Z</time>
        <extensions>
          <ns3:TrackPointExtension>
            <ns3:atemp>17.0</ns3:atemp>
          </ns3:TrackPointExtension>
        </extensions>
      </trkpt>
      <trkpt lat="46.75299324095249176025390625" lon="6.91555769182741641998291015625">
        <ele>459.79998779296875</ele>
        <time>2013-09-01T16:18:54.000Z</time>
        <extensions>
          <ns3:TrackPointExtension>
            <ns3:atemp>17.0</ns3:atemp>
          </ns3:TrackPointExtension>
        </extensions>
      </trkpt>
      <trkpt lat="46.75305199809372425079345703125" lon="6.91564268432557582855224609375">
        <ele>458.600006103515625</ele>
        <time>2013-09-01T16:18:55.000Z</time>
        <extensions>
          <ns3:TrackPointExtension>
            <ns3:atemp>17.0</ns3:atemp>
          </ns3:TrackPointExtension>
        </extensions>
      </trkpt>
      <trkpt lat="46.7531057260930538177490234375" lon="6.9157200492918491363525390625">
        <ele>457.20001220703125</ele>
        <time>2013-09-01T16:18:56.000Z</time>
        <extensions>
          <ns3:TrackPointExtension>
            <ns3:atemp>17.0</ns3:atemp>
          </ns3:TrackPointExtension>
        </extensions>
      </trkpt>
      <trkpt lat="46.7531456239521503448486328125" lon="6.91579003818333148956298828125">
        <ele>455.399993896484375</ele>
        <time>2013-09-01T16:18:57.000Z</time>
        <extensions>
          <ns3:TrackPointExtension>
            <ns3:atemp>17.0</ns3:atemp>
          </ns3:TrackPointExtension>
        </extensions>
      </trkpt>
      <trkpt lat="46.7531816661357879638671875" lon="6.91584954969584941864013671875">
        <ele>454</ele>
        <time>2013-09-01T16:18:58.000Z</time>
        <extensions>
          <ns3:TrackPointExtension>
            <ns3:atemp>17.0</ns3:atemp>
          </ns3:TrackPointExtension>
        </extensions>
      </trkpt>
      <trkpt lat="46.75321108661592006683349609375" lon="6.91590093076229095458984375">
        <ele>452.79998779296875</ele>
        <time>2013-09-01T16:18:59.000Z</time>
        <extensions>
          <ns3:TrackPointExtension>
            <ns3:atemp>17.0</ns3:atemp>
          </ns3:TrackPointExtension>
        </extensions>
      </trkpt>
      <trkpt lat="46.75323019735515117645263671875" lon="6.91593504510819911956787109375">
        <ele>451.79998779296875</ele>
        <time>2013-09-01T16:19:00.000Z</time>
        <extensions>
          <ns3:TrackPointExtension>
            <ns3:atemp>17.0</ns3:atemp>
          </ns3:TrackPointExtension>
        </extensions>
      </trkpt>
      <trkpt lat="46.7532408423721790313720703125" lon="6.9159512221813201904296875">
        <ele>451</ele>
        <time>2013-09-01T16:19:01.000Z</time>
        <extensions>
          <ns3:TrackPointExtension>
            <ns3:atemp>17.0</ns3:atemp>
          </ns3:TrackPointExtension>
        </extensions>
      </trkpt>
      <trkpt lat="46.7532304488122463226318359375" lon="6.915932111442089080810546875">
        <ele>450.79998779296875</ele>
        <time>2013-09-01T16:19:02.000Z</time>
        <extensions>
          <ns3:TrackPointExtension>
            <ns3:atemp>17.0</ns3:atemp>
          </ns3:TrackPointExtension>
        </extensions>
      </trkpt>
      <trkpt lat="46.75324075855314731597900390625" lon="6.91595046781003475189208984375">
        <ele>450.600006103515625</ele>
        <time>2013-09-01T16:19:03.000Z</time>
        <extensions>
          <ns3:TrackPointExtension>
            <ns3:atemp>17.0</ns3:atemp>
          </ns3:TrackPointExtension>
        </extensions>
      </trkpt>
      <trkpt lat="46.75324075855314731597900390625" lon="6.91595046781003475189208984375">
        <ele>450.600006103515625</ele>
        <time>2013-09-01T16:19:04.000Z</time>
        <extensions>
          <ns3:TrackPointExtension>
            <ns3:atemp>17.0</ns3:atemp>
          </ns3:TrackPointExtension>
        </extensions>
      </trkpt>
      <trkpt lat="46.753239668905735015869140625" lon="6.91595189273357391357421875">
        <ele>450.399993896484375</ele>
        <time>2013-09-01T16:19:05.000Z</time>
        <extensions>
          <ns3:TrackPointExtension>
            <ns3:atemp>17.0</ns3:atemp>
          </ns3:TrackPointExtension>
        </extensions>
      </trkpt>
      <trkpt lat="46.75323237664997577667236328125" lon="6.9159512221813201904296875">
        <ele>450.399993896484375</ele>
        <time>2013-09-01T16:19:06.000Z</time>
        <extensions>
          <ns3:TrackPointExtension>
            <ns3:atemp>17.0</ns3:atemp>
          </ns3:TrackPointExtension>
        </extensions>
      </trkpt>
      <trkpt lat="46.75322617404162883758544921875" lon="6.91594996489584445953369140625">
        <ele>450.600006103515625</ele>
        <time>2013-09-01T16:19:07.000Z</time>
        <extensions>
          <ns3:TrackPointExtension>
            <ns3:atemp>17.0</ns3:atemp>
          </ns3:TrackPointExtension>
        </extensions>
      </trkpt>
      <trkpt lat="46.7532247491180896759033203125" lon="6.91595113836228847503662109375">
        <ele>450.600006103515625</ele>
        <time>2013-09-01T16:19:08.000Z</time>
        <extensions>
          <ns3:TrackPointExtension>
            <ns3:atemp>17.0</ns3:atemp>
          </ns3:TrackPointExtension>
        </extensions>
      </trkpt>
      <trkpt lat="46.7532224021852016448974609375" lon="6.915955245494842529296875">
        <ele>450.79998779296875</ele>
        <time>2013-09-01T16:19:09.000Z</time>
        <extensions>
          <ns3:TrackPointExtension>
            <ns3:atemp>17.0</ns3:atemp>
          </ns3:TrackPointExtension>
        </extensions>
      </trkpt>
      <trkpt lat="46.75321854650974273681640625" lon="6.91595767624676227569580078125">
        <ele>450.79998779296875</ele>
        <time>2013-09-01T16:19:10.000Z</time>
        <extensions>
          <ns3:TrackPointExtension>
            <ns3:atemp>17.0</ns3:atemp>
          </ns3:TrackPointExtension>
        </extensions>
      </trkpt>
      <trkpt lat="46.75321443937718868255615234375" lon="6.91595725715160369873046875">
        <ele>450.79998779296875</ele>
        <time>2013-09-01T16:19:11.000Z</time>
        <extensions>
          <ns3:TrackPointExtension>
            <ns3:atemp>17.0</ns3:atemp>
          </ns3:TrackPointExtension>
        </extensions>
      </trkpt>
      <trkpt lat="46.75321443937718868255615234375" lon="6.91595725715160369873046875">
        <ele>450.600006103515625</ele>
        <time>2013-09-01T16:19:12.000Z</time>
        <extensions>
          <ns3:TrackPointExtension>
            <ns3:atemp>17.0</ns3:atemp>
          </ns3:TrackPointExtension>
        </extensions>
      </trkpt>
      <trkpt lat="46.75321443937718868255615234375" lon="6.91595725715160369873046875">
        <ele>450.600006103515625</ele>
        <time>2013-09-01T16:19:13.000Z</time>
        <extensions>
          <ns3:TrackPointExtension>
            <ns3:atemp>17.0</ns3:atemp>
          </ns3:TrackPointExtension>
        </extensions>
      </trkpt>
      <trkpt lat="46.75321443937718868255615234375" lon="6.91595725715160369873046875">
        <ele>450</ele>
        <time>2013-09-01T16:19:14.000Z</time>
        <extensions>
          <ns3:TrackPointExtension>
            <ns3:atemp>17.0</ns3:atemp>
          </ns3:TrackPointExtension>
        </extensions>
      </trkpt>
      <trkpt lat="46.75321443937718868255615234375" lon="6.91595725715160369873046875">
        <ele>450</ele>
        <time>2013-09-01T16:19:15.000Z</time>
        <extensions>
          <ns3:TrackPointExtension>
            <ns3:atemp>17.0</ns3:atemp>
          </ns3:TrackPointExtension>
        </extensions>
      </trkpt>
      <trkpt lat="46.75321443937718868255615234375" lon="6.91595725715160369873046875">
        <ele>449.79998779296875</ele>
        <time>2013-09-01T16:19:16.000Z</time>
        <extensions>
          <ns3:TrackPointExtension>
            <ns3:atemp>17.0</ns3:atemp>
          </ns3:TrackPointExtension>
        </extensions>
      </trkpt>
      <trkpt lat="46.75321443937718868255615234375" lon="6.91595725715160369873046875">
        <ele>449.79998779296875</ele>
        <time>2013-09-01T16:19:17.000Z</time>
        <extensions>
          <ns3:TrackPointExtension>
            <ns3:atemp>17.0</ns3:atemp>
          </ns3:TrackPointExtension>
        </extensions>
      </trkpt>
      <trkpt lat="46.75321443937718868255615234375" lon="6.91595725715160369873046875">
        <ele>449.79998779296875</ele>
        <time>2013-09-01T16:19:18.000Z</time>
        <extensions>
          <ns3:TrackPointExtension>
            <ns3:atemp>17.0</ns3:atemp>
          </ns3:TrackPointExtension>
        </extensions>
      </trkpt>
      <trkpt lat="46.75321443937718868255615234375" lon="6.91595725715160369873046875">
        <ele>449.79998779296875</ele>
        <time>2013-09-01T16:19:19.000Z</time>
        <extensions>
          <ns3:TrackPointExtension>
            <ns3:atemp>17.0</ns3:atemp>
          </ns3:TrackPointExtension>
        </extensions>
      </trkpt>
      <trkpt lat="46.75321443937718868255615234375" lon="6.91595725715160369873046875">
        <ele>449.79998779296875</ele>
        <time>2013-09-01T16:19:20.000Z</time>
        <extensions>
          <ns3:TrackPointExtension>
            <ns3:atemp>17.0</ns3:atemp>
          </ns3:TrackPointExtension>
        </extensions>
      </trkpt>
      <trkpt lat="46.753210835158824920654296875" lon="6.9159778766334056854248046875">
        <ele>449.600006103515625</ele>
        <time>2013-09-01T16:19:21.000Z</time>
        <extensions>
          <ns3:TrackPointExtension>
            <ns3:atemp>17.0</ns3:atemp>
          </ns3:TrackPointExtension>
        </extensions>
      </trkpt>
      <trkpt lat="46.75322231836616992950439453125" lon="6.9160026870667934417724609375">
        <ele>449.600006103515625</ele>
        <time>2013-09-01T16:19:22.000Z</time>
        <extensions>
          <ns3:TrackPointExtension>
            <ns3:atemp>17.0</ns3:atemp>
          </ns3:TrackPointExtension>
        </extensions>
      </trkpt>
      <trkpt lat="46.75324260257184505462646484375" lon="6.91603110171854496002197265625">
        <ele>449.399993896484375</ele>
        <time>2013-09-01T16:19:23.000Z</time>
        <extensions>
          <ns3:TrackPointExtension>
            <ns3:atemp>17.0</ns3:atemp>
          </ns3:TrackPointExtension>
        </extensions>
      </trkpt>
      <trkpt lat="46.75326037220656871795654296875" lon="6.91604711115360260009765625">
        <ele>449</ele>
        <time>2013-09-01T16:19:24.000Z</time>
        <extensions>
          <ns3:TrackPointExtension>
            <ns3:atemp>17.0</ns3:atemp>
          </ns3:TrackPointExtension>
        </extensions>
      </trkpt>
      <trkpt lat="46.75328736193478107452392578125" lon="6.9160435907542705535888671875">
        <ele>448.600006103515625</ele>
        <time>2013-09-01T16:19:25.000Z</time>
        <extensions>
          <ns3:TrackPointExtension>
            <ns3:atemp>17.0</ns3:atemp>
          </ns3:TrackPointExtension>
        </extensions>
      </trkpt>
      <trkpt lat="46.75331301055848598480224609375" lon="6.91602355800569057464599609375">
        <ele>448</ele>
        <time>2013-09-01T16:19:26.000Z</time>
        <extensions>
          <ns3:TrackPointExtension>
            <ns3:atemp>17.0</ns3:atemp>
          </ns3:TrackPointExtension>
        </extensions>
      </trkpt>
      <trkpt lat="46.7533286847174167633056640625" lon="6.91599774174392223358154296875">
        <ele>447.79998779296875</ele>
        <time>2013-09-01T16:19:27.000Z</time>
        <extensions>
          <ns3:TrackPointExtension>
            <ns3:atemp>17.0</ns3:atemp>
          </ns3:TrackPointExtension>
        </extensions>
      </trkpt>
      <trkpt lat="46.75334989093244075775146484375" lon="6.9159641303122043609619140625">
        <ele>447.600006103515625</ele>
        <time>2013-09-01T16:19:28.000Z</time>
        <extensions>
          <ns3:TrackPointExtension>
            <ns3:atemp>17.0</ns3:atemp>
          </ns3:TrackPointExtension>
        </extensions>
      </trkpt>
      <trkpt lat="46.7533699236810207366943359375" lon="6.91593688912689685821533203125">
        <ele>447.399993896484375</ele>
        <time>2013-09-01T16:19:29.000Z</time>
        <extensions>
          <ns3:TrackPointExtension>
            <ns3:atemp>17.0</ns3:atemp>
          </ns3:TrackPointExtension>
        </extensions>
      </trkpt>
      <trkpt lat="46.75339163281023502349853515625" lon="6.9159252382814884185791015625">
        <ele>447.20001220703125</ele>
        <time>2013-09-01T16:19:30.000Z</time>
        <extensions>
          <ns3:TrackPointExtension>
            <ns3:atemp>17.0</ns3:atemp>
          </ns3:TrackPointExtension>
        </extensions>
      </trkpt>
      <trkpt lat="46.753412671387195587158203125" lon="6.9159205444157123565673828125">
        <ele>447</ele>
        <time>2013-09-01T16:19:31.000Z</time>
        <extensions>
          <ns3:TrackPointExtension>
            <ns3:atemp>17.0</ns3:atemp>
          </ns3:TrackPointExtension>
        </extensions>
      </trkpt>
      <trkpt lat="46.753426082432270050048828125" lon="6.91592263989150524139404296875">
        <ele>446.399993896484375</ele>
        <time>2013-09-01T16:19:32.000Z</time>
        <extensions>
          <ns3:TrackPointExtension>
            <ns3:atemp>17.0</ns3:atemp>
          </ns3:TrackPointExtension>
        </extensions>
      </trkpt>
      <trkpt lat="46.7534564249217510223388671875" lon="6.91593219526112079620361328125">
        <ele>446.20001220703125</ele>
        <time>2013-09-01T16:19:33.000Z</time>
        <extensions>
          <ns3:TrackPointExtension>
            <ns3:atemp>17.0</ns3:atemp>
          </ns3:TrackPointExtension>
        </extensions>
      </trkpt>
      <trkpt lat="46.753477044403553009033203125" lon="6.9159510545432567596435546875">
        <ele>445.79998779296875</ele>
        <time>2013-09-01T16:19:34.000Z</time>
        <extensions>
          <ns3:TrackPointExtension>
            <ns3:atemp>17.0</ns3:atemp>
          </ns3:TrackPointExtension>
        </extensions>
      </trkpt>
      <trkpt lat="46.7535047046840190887451171875" lon="6.9159540720283985137939453125">
        <ele>445.20001220703125</ele>
        <time>2013-09-01T16:19:35.000Z</time>
        <extensions>
          <ns3:TrackPointExtension>
            <ns3:atemp>17.0</ns3:atemp>
          </ns3:TrackPointExtension>
        </extensions>
      </trkpt>
      <trkpt lat="46.753532029688358306884765625" lon="6.9159537367522716522216796875">
        <ele>444.399993896484375</ele>
        <time>2013-09-01T16:19:36.000Z</time>
        <extensions>
          <ns3:TrackPointExtension>
            <ns3:atemp>17.0</ns3:atemp>
          </ns3:TrackPointExtension>
        </extensions>
      </trkpt>
      <trkpt lat="46.7535544931888580322265625" lon="6.9159396551549434661865234375">
        <ele>443.399993896484375</ele>
        <time>2013-09-01T16:19:37.000Z</time>
        <extensions>
          <ns3:TrackPointExtension>
            <ns3:atemp>17.0</ns3:atemp>
          </ns3:TrackPointExtension>
        </extensions>
      </trkpt>
      <trkpt lat="46.7535670660436153411865234375" lon="6.915915012359619140625">
        <ele>442.20001220703125</ele>
        <time>2013-09-01T16:19:38.000Z</time>
        <extensions>
          <ns3:TrackPointExtension>
            <ns3:atemp>17.0</ns3:atemp>
          </ns3:TrackPointExtension>
        </extensions>
      </trkpt>
      <trkpt lat="46.75357335247099399566650390625" lon="6.9158967398107051849365234375">
        <ele>441.600006103515625</ele>
        <time>2013-09-01T16:19:39.000Z</time>
        <extensions>
          <ns3:TrackPointExtension>
            <ns3:atemp>17.0</ns3:atemp>
          </ns3:TrackPointExtension>
        </extensions>
      </trkpt>
      <trkpt lat="46.75357704050838947296142578125" lon="6.9158853404223918914794921875">
        <ele>441.20001220703125</ele>
        <time>2013-09-01T16:19:40.000Z</time>
        <extensions>
          <ns3:TrackPointExtension>
            <ns3:atemp>17.0</ns3:atemp>
          </ns3:TrackPointExtension>
        </extensions>
      </trkpt>
      <trkpt lat="46.7535764537751674652099609375" lon="6.9158672355115413665771484375">
        <ele>440.79998779296875</ele>
        <time>2013-09-01T16:19:41.000Z</time>
        <extensions>
          <ns3:TrackPointExtension>
            <ns3:atemp>17.0</ns3:atemp>
          </ns3:TrackPointExtension>
        </extensions>
      </trkpt>
      <trkpt lat="46.75357771106064319610595703125" lon="6.91584787331521511077880859375">
        <ele>440.20001220703125</ele>
        <time>2013-09-01T16:19:42.000Z</time>
        <extensions>
          <ns3:TrackPointExtension>
            <ns3:atemp>17.0</ns3:atemp>
          </ns3:TrackPointExtension>
        </extensions>
      </trkpt>
      <trkpt lat="46.75357419066131114959716796875" lon="6.9158209674060344696044921875">
        <ele>439.600006103515625</ele>
        <time>2013-09-01T16:19:43.000Z</time>
        <extensions>
          <ns3:TrackPointExtension>
            <ns3:atemp>17.0</ns3:atemp>
          </ns3:TrackPointExtension>
        </extensions>
      </trkpt>
      <trkpt lat="46.7535640485584735870361328125" lon="6.9157978333532810211181640625">
        <ele>438.600006103515625</ele>
        <time>2013-09-01T16:19:44.000Z</time>
        <extensions>
          <ns3:TrackPointExtension>
            <ns3:atemp>17.0</ns3:atemp>
          </ns3:TrackPointExtension>
        </extensions>
      </trkpt>
      <trkpt lat="46.75354854203760623931884765625" lon="6.9157921336591243743896484375">
        <ele>438</ele>
        <time>2013-09-01T16:19:45.000Z</time>
        <extensions>
          <ns3:TrackPointExtension>
            <ns3:atemp>17.0</ns3:atemp>
          </ns3:TrackPointExtension>
        </extensions>
      </trkpt>
      <trkpt lat="46.7535268329083919525146484375" lon="6.91577486693859100341796875">
        <ele>437.399993896484375</ele>
        <time>2013-09-01T16:19:46.000Z</time>
        <extensions>
          <ns3:TrackPointExtension>
            <ns3:atemp>17.0</ns3:atemp>
          </ns3:TrackPointExtension>
        </extensions>
      </trkpt>
      <trkpt lat="46.753518618643283843994140625" lon="6.9157535769045352935791015625">
        <ele>436.600006103515625</ele>
        <time>2013-09-01T16:19:47.000Z</time>
        <extensions>
          <ns3:TrackPointExtension>
            <ns3:atemp>17.0</ns3:atemp>
          </ns3:TrackPointExtension>
        </extensions>
      </trkpt>
      <trkpt lat="46.7535053752362728118896484375" lon="6.9157193787395954132080078125">
        <ele>436</ele>
        <time>2013-09-01T16:19:48.000Z</time>
        <extensions>
          <ns3:TrackPointExtension>
            <ns3:atemp>17.0</ns3:atemp>
          </ns3:TrackPointExtension>
        </extensions>
      </trkpt>
      <trkpt lat="46.7534933052957057952880859375" lon="6.915687359869480133056640625">
        <ele>435.20001220703125</ele>
        <time>2013-09-01T16:19:49.000Z</time>
        <extensions>
          <ns3:TrackPointExtension>
            <ns3:atemp>17.0</ns3:atemp>
          </ns3:TrackPointExtension>
        </extensions>
      </trkpt>
      <trkpt lat="46.75348944962024688720703125" lon="6.91566732712090015411376953125">
        <ele>434.399993896484375</ele>
        <time>2013-09-01T16:19:50.000Z</time>
        <extensions>
          <ns3:TrackPointExtension>
            <ns3:atemp>17.0</ns3:atemp>
          </ns3:TrackPointExtension>
        </extensions>
      </trkpt>
      <trkpt lat="46.75349070690572261810302734375" lon="6.9156486354768276214599609375">
        <ele>433.79998779296875</ele>
        <time>2013-09-01T16:19:51.000Z</time>
        <extensions>
          <ns3:TrackPointExtension>
            <ns3:atemp>17.0</ns3:atemp>
          </ns3:TrackPointExtension>
        </extensions>
      </trkpt>
      <trkpt lat="46.75349758006632328033447265625" lon="6.9156419299542903900146484375">
        <ele>433.399993896484375</ele>
        <time>2013-09-01T16:19:52.000Z</time>
        <extensions>
          <ns3:TrackPointExtension>
            <ns3:atemp>17.0</ns3:atemp>
          </ns3:TrackPointExtension>
        </extensions>
      </trkpt>
      <trkpt lat="46.75350596196949481964111328125" lon="6.91564033739268779754638671875">
        <ele>433</ele>
        <time>2013-09-01T16:19:53.000Z</time>
        <extensions>
          <ns3:TrackPointExtension>
            <ns3:atemp>17.0</ns3:atemp>
          </ns3:TrackPointExtension>
        </extensions>
      </trkpt>
      <trkpt lat="46.753523312509059906005859375" lon="6.91563849337399005889892578125">
        <ele>432.79998779296875</ele>
        <time>2013-09-01T16:19:54.000Z</time>
        <extensions>
          <ns3:TrackPointExtension>
            <ns3:atemp>17.0</ns3:atemp>
          </ns3:TrackPointExtension>
        </extensions>
      </trkpt>
      <trkpt lat="46.75354971550405025482177734375" lon="6.9156610406935214996337890625">
        <ele>432.20001220703125</ele>
        <time>2013-09-01T16:19:55.000Z</time>
        <extensions>
          <ns3:TrackPointExtension>
            <ns3:atemp>17.0</ns3:atemp>
          </ns3:TrackPointExtension>
        </extensions>
      </trkpt>
      <trkpt lat="46.7535731010138988494873046875" lon="6.9156831689178943634033203125">
        <ele>431.79998779296875</ele>
        <time>2013-09-01T16:19:56.000Z</time>
        <extensions>
          <ns3:TrackPointExtension>
            <ns3:atemp>17.0</ns3:atemp>
          </ns3:TrackPointExtension>
        </extensions>
      </trkpt>
      <trkpt lat="46.75359782762825489044189453125" lon="6.91570722497999668121337890625">
        <ele>431.20001220703125</ele>
        <time>2013-09-01T16:19:57.000Z</time>
        <extensions>
          <ns3:TrackPointExtension>
            <ns3:atemp>17.0</ns3:atemp>
          </ns3:TrackPointExtension>
        </extensions>
      </trkpt>
      <trkpt lat="46.7536180280148983001708984375" lon="6.91572281531989574432373046875">
        <ele>430.600006103515625</ele>
        <time>2013-09-01T16:19:58.000Z</time>
        <extensions>
          <ns3:TrackPointExtension>
            <ns3:atemp>17.0</ns3:atemp>
          </ns3:TrackPointExtension>
        </extensions>
      </trkpt>
      <trkpt lat="46.75363831222057342529296875" lon="6.91575131379067897796630859375">
        <ele>430</ele>
        <time>2013-09-01T16:19:59.000Z</time>
        <extensions>
          <ns3:TrackPointExtension>
            <ns3:atemp>17.0</ns3:atemp>
          </ns3:TrackPointExtension>
        </extensions>
      </trkpt>
      <trkpt lat="46.75365666858851909637451171875" lon="6.91577478311955928802490234375">
        <ele>429.399993896484375</ele>
        <time>2013-09-01T16:20:00.000Z</time>
        <extensions>
          <ns3:TrackPointExtension>
            <ns3:atemp>17.0</ns3:atemp>
          </ns3:TrackPointExtension>
        </extensions>
      </trkpt>
      <trkpt lat="46.75367326475679874420166015625" lon="6.915786601603031158447265625">
        <ele>428.79998779296875</ele>
        <time>2013-09-01T16:20:01.000Z</time>
        <extensions>
          <ns3:TrackPointExtension>
            <ns3:atemp>17.0</ns3:atemp>
          </ns3:TrackPointExtension>
        </extensions>
      </trkpt>
      <trkpt lat="46.75368902273476123809814453125" lon="6.91579858772456645965576171875">
        <ele>427.600006103515625</ele>
        <time>2013-09-01T16:20:02.000Z</time>
        <extensions>
          <ns3:TrackPointExtension>
            <ns3:atemp>17.0</ns3:atemp>
          </ns3:TrackPointExtension>
        </extensions>
      </trkpt>
      <trkpt lat="46.75370126031339168548583984375" lon="6.91580512560904026031494140625">
        <ele>427</ele>
        <time>2013-09-01T16:20:03.000Z</time>
        <extensions>
          <ns3:TrackPointExtension>
            <ns3:atemp>17.0</ns3:atemp>
          </ns3:TrackPointExtension>
        </extensions>
      </trkpt>
      <trkpt lat="46.7537152580916881561279296875" lon="6.9158156029880046844482421875">
        <ele>426.399993896484375</ele>
        <time>2013-09-01T16:20:04.000Z</time>
        <extensions>
          <ns3:TrackPointExtension>
            <ns3:atemp>17.0</ns3:atemp>
          </ns3:TrackPointExtension>
        </extensions>
      </trkpt>
      <trkpt lat="46.75372682511806488037109375" lon="6.9158253259956836700439453125">
        <ele>426.20001220703125</ele>
        <time>2013-09-01T16:20:05.000Z</time>
        <extensions>
          <ns3:TrackPointExtension>
            <ns3:atemp>17.0</ns3:atemp>
          </ns3:TrackPointExtension>
        </extensions>
      </trkpt>
      <trkpt lat="46.75374015234410762786865234375" lon="6.915835551917552947998046875">
        <ele>425.79998779296875</ele>
        <time>2013-09-01T16:20:06.000Z</time>
        <extensions>
          <ns3:TrackPointExtension>
            <ns3:atemp>17.0</ns3:atemp>
          </ns3:TrackPointExtension>
        </extensions>
      </trkpt>
      <trkpt lat="46.75375859253108501434326171875" lon="6.91585340537130832672119140625">
        <ele>425.399993896484375</ele>
        <time>2013-09-01T16:20:07.000Z</time>
        <extensions>
          <ns3:TrackPointExtension>
            <ns3:atemp>17.0</ns3:atemp>
          </ns3:TrackPointExtension>
        </extensions>
      </trkpt>
      <trkpt lat="46.75377753563225269317626953125" lon="6.9158635474741458892822265625">
        <ele>425</ele>
        <time>2013-09-01T16:20:08.000Z</time>
        <extensions>
          <ns3:TrackPointExtension>
            <ns3:atemp>17.0</ns3:atemp>
          </ns3:TrackPointExtension>
        </extensions>
      </trkpt>
      <trkpt lat="46.7537932097911834716796875" lon="6.9158675707876682281494140625">
        <ele>424.600006103515625</ele>
        <time>2013-09-01T16:20:09.000Z</time>
        <extensions>
          <ns3:TrackPointExtension>
            <ns3:atemp>17.0</ns3:atemp>
          </ns3:TrackPointExtension>
        </extensions>
      </trkpt>
      <trkpt lat="46.753814332187175750732421875" lon="6.91587402485311031341552734375">
        <ele>424.20001220703125</ele>
        <time>2013-09-01T16:20:10.000Z</time>
        <extensions>
          <ns3:TrackPointExtension>
            <ns3:atemp>17.0</ns3:atemp>
          </ns3:TrackPointExtension>
        </extensions>
      </trkpt>
      <trkpt lat="46.753834784030914306640625" lon="6.91587871871888637542724609375">
        <ele>423.600006103515625</ele>
        <time>2013-09-01T16:20:11.000Z</time>
        <extensions>
          <ns3:TrackPointExtension>
            <ns3:atemp>17.0</ns3:atemp>
          </ns3:TrackPointExtension>
        </extensions>
      </trkpt>
      <trkpt lat="46.7538535594940185546875" lon="6.91587737761437892913818359375">
        <ele>423.399993896484375</ele>
        <time>2013-09-01T16:20:12.000Z</time>
        <extensions>
          <ns3:TrackPointExtension>
            <ns3:atemp>17.0</ns3:atemp>
          </ns3:TrackPointExtension>
        </extensions>
      </trkpt>
      <trkpt lat="46.753845177590847015380859375" lon="6.915876455605030059814453125">
        <ele>423</ele>
        <time>2013-09-01T16:20:13.000Z</time>
        <extensions>
          <ns3:TrackPointExtension>
            <ns3:atemp>17.0</ns3:atemp>
          </ns3:TrackPointExtension>
        </extensions>
      </trkpt>
      <trkpt lat="46.7538818903267383575439453125" lon="6.91587335430085659027099609375">
        <ele>422.399993896484375</ele>
        <time>2013-09-01T16:20:14.000Z</time>
        <extensions>
          <ns3:TrackPointExtension>
            <ns3:atemp>17.0</ns3:atemp>
          </ns3:TrackPointExtension>
        </extensions>
      </trkpt>
      <trkpt lat="46.75389521755278110504150390625" lon="6.91587385721504688262939453125">
        <ele>421.79998779296875</ele>
        <time>2013-09-01T16:20:15.000Z</time>
        <extensions>
          <ns3:TrackPointExtension>
            <ns3:atemp>17.0</ns3:atemp>
          </ns3:TrackPointExtension>
        </extensions>
      </trkpt>
      <trkpt lat="46.7539254762232303619384765625" lon="6.9158761203289031982421875">
        <ele>420.79998779296875</ele>
        <time>2013-09-01T16:20:16.000Z</time>
        <extensions>
          <ns3:TrackPointExtension>
            <ns3:atemp>17.0</ns3:atemp>
          </ns3:TrackPointExtension>
        </extensions>
      </trkpt>
      <trkpt lat="46.75394869409501552581787109375" lon="6.9158752821385860443115234375">
        <ele>420</ele>
        <time>2013-09-01T16:20:17.000Z</time>
        <extensions>
          <ns3:TrackPointExtension>
            <ns3:atemp>17.0</ns3:atemp>
          </ns3:TrackPointExtension>
        </extensions>
      </trkpt>
      <trkpt lat="46.7539744265377521514892578125" lon="6.91587771289050579071044921875">
        <ele>419.399993896484375</ele>
        <time>2013-09-01T16:20:18.000Z</time>
        <extensions>
          <ns3:TrackPointExtension>
            <ns3:atemp>17.0</ns3:atemp>
          </ns3:TrackPointExtension>
        </extensions>
      </trkpt>
      <trkpt lat="46.75399839878082275390625" lon="6.91587637178599834442138671875">
        <ele>419</ele>
        <time>2013-09-01T16:20:19.000Z</time>
        <extensions>
          <ns3:TrackPointExtension>
            <ns3:atemp>17.0</ns3:atemp>
          </ns3:TrackPointExtension>
        </extensions>
      </trkpt>
      <trkpt lat="46.7539888434112071990966796875" lon="6.915867738425731658935546875">
        <ele>418.600006103515625</ele>
        <time>2013-09-01T16:20:20.000Z</time>
        <extensions>
          <ns3:TrackPointExtension>
            <ns3:atemp>17.0</ns3:atemp>
          </ns3:TrackPointExtension>
        </extensions>
      </trkpt>
      <trkpt lat="46.75398557446897029876708984375" lon="6.91587771289050579071044921875">
        <ele>418.399993896484375</ele>
        <time>2013-09-01T16:20:21.000Z</time>
        <extensions>
          <ns3:TrackPointExtension>
            <ns3:atemp>17.0</ns3:atemp>
          </ns3:TrackPointExtension>
        </extensions>
      </trkpt>
      <trkpt lat="46.75395607016980648040771484375" lon="6.91585709340870380401611328125">
        <ele>418.20001220703125</ele>
        <time>2013-09-01T16:20:22.000Z</time>
        <extensions>
          <ns3:TrackPointExtension>
            <ns3:atemp>17.0</ns3:atemp>
          </ns3:TrackPointExtension>
        </extensions>
      </trkpt>
      <trkpt lat="46.75394483841955661773681640625" lon="6.915856339037418365478515625">
        <ele>418.20001220703125</ele>
        <time>2013-09-01T16:20:23.000Z</time>
        <extensions>
          <ns3:TrackPointExtension>
            <ns3:atemp>17.0</ns3:atemp>
          </ns3:TrackPointExtension>
        </extensions>
      </trkpt>
      <trkpt lat="46.75392773933708667755126953125" lon="6.91584150306880474090576171875">
        <ele>418</ele>
        <time>2013-09-01T16:20:24.000Z</time>
        <extensions>
          <ns3:TrackPointExtension>
            <ns3:atemp>17.0</ns3:atemp>
          </ns3:TrackPointExtension>
        </extensions>
      </trkpt>
      <trkpt lat="46.75389789976179599761962890625" lon="6.91583094187080860137939453125">
        <ele>418</ele>
        <time>2013-09-01T16:20:25.000Z</time>
        <extensions>
          <ns3:TrackPointExtension>
            <ns3:atemp>17.0</ns3:atemp>
          </ns3:TrackPointExtension>
        </extensions>
      </trkpt>
      <trkpt lat="46.7538656294345855712890625" lon="6.91581484861671924591064453125">
        <ele>417.600006103515625</ele>
        <time>2013-09-01T16:20:26.000Z</time>
        <extensions>
          <ns3:TrackPointExtension>
            <ns3:atemp>17.0</ns3:atemp>
          </ns3:TrackPointExtension>
        </extensions>
      </trkpt>
      <trkpt lat="46.753840148448944091796875" lon="6.9157904572784900665283203125">
        <ele>417.600006103515625</ele>
        <time>2013-09-01T16:20:27.000Z</time>
        <extensions>
          <ns3:TrackPointExtension>
            <ns3:atemp>17.0</ns3:atemp>
          </ns3:TrackPointExtension>
        </extensions>
      </trkpt>
      <trkpt lat="46.7538118176162242889404296875" lon="6.91577143035829067230224609375">
        <ele>417.399993896484375</ele>
        <time>2013-09-01T16:20:28.000Z</time>
        <extensions>
          <ns3:TrackPointExtension>
            <ns3:atemp>17.0</ns3:atemp>
          </ns3:TrackPointExtension>
        </extensions>
      </trkpt>
      <trkpt lat="46.7537833191454410552978515625" lon="6.91574494354426860809326171875">
        <ele>417.600006103515625</ele>
        <time>2013-09-01T16:20:29.000Z</time>
        <extensions>
          <ns3:TrackPointExtension>
            <ns3:atemp>17.0</ns3:atemp>
          </ns3:TrackPointExtension>
        </extensions>
      </trkpt>
      <trkpt lat="46.7537575028836727142333984375" lon="6.9157227315008640289306640625">
        <ele>417.600006103515625</ele>
        <time>2013-09-01T16:20:30.000Z</time>
        <extensions>
          <ns3:TrackPointExtension>
            <ns3:atemp>17.0</ns3:atemp>
          </ns3:TrackPointExtension>
        </extensions>
      </trkpt>
      <trkpt lat="46.75373462028801441192626953125" lon="6.9156990945339202880859375">
        <ele>417.399993896484375</ele>
        <time>2013-09-01T16:20:31.000Z</time>
        <extensions>
          <ns3:TrackPointExtension>
            <ns3:atemp>17.0</ns3:atemp>
          </ns3:TrackPointExtension>
        </extensions>
      </trkpt>
      <trkpt lat="46.75371835939586162567138671875" lon="6.915665902197360992431640625">
        <ele>417.399993896484375</ele>
        <time>2013-09-01T16:20:32.000Z</time>
        <extensions>
          <ns3:TrackPointExtension>
            <ns3:atemp>17.0</ns3:atemp>
          </ns3:TrackPointExtension>
        </extensions>
      </trkpt>
      <trkpt lat="46.75370243377983570098876953125" lon="6.91564050503075122833251953125">
        <ele>417.399993896484375</ele>
        <time>2013-09-01T16:20:33.000Z</time>
        <extensions>
          <ns3:TrackPointExtension>
            <ns3:atemp>17.0</ns3:atemp>
          </ns3:TrackPointExtension>
        </extensions>
      </trkpt>
      <trkpt lat="46.7536884360015392303466796875" lon="6.9156298600137233734130859375">
        <ele>417.20001220703125</ele>
        <time>2013-09-01T16:20:34.000Z</time>
        <extensions>
          <ns3:TrackPointExtension>
            <ns3:atemp>17.0</ns3:atemp>
          </ns3:TrackPointExtension>
        </extensions>
      </trkpt>
      <trkpt lat="46.7536756955087184906005859375" lon="6.915622316300868988037109375">
        <ele>417</ele>
        <time>2013-09-01T16:20:35.000Z</time>
        <extensions>
          <ns3:TrackPointExtension>
            <ns3:atemp>17.0</ns3:atemp>
          </ns3:TrackPointExtension>
        </extensions>
      </trkpt>
      <trkpt lat="46.75367075018584728240966796875" lon="6.91561753861606121063232421875">
        <ele>416.79998779296875</ele>
        <time>2013-09-01T16:20:36.000Z</time>
        <extensions>
          <ns3:TrackPointExtension>
            <ns3:atemp>17.0</ns3:atemp>
          </ns3:TrackPointExtension>
        </extensions>
      </trkpt>
      <trkpt lat="46.75365172326564788818359375" lon="6.91561267711222171783447265625">
        <ele>417</ele>
        <time>2013-09-01T16:20:37.000Z</time>
        <extensions>
          <ns3:TrackPointExtension>
            <ns3:atemp>17.0</ns3:atemp>
          </ns3:TrackPointExtension>
        </extensions>
      </trkpt>
      <trkpt lat="46.75363101996481418609619140625" lon="6.91559222526848316192626953125">
        <ele>417</ele>
        <time>2013-09-01T16:20:38.000Z</time>
        <extensions>
          <ns3:TrackPointExtension>
            <ns3:atemp>17.0</ns3:atemp>
          </ns3:TrackPointExtension>
        </extensions>
      </trkpt>
      <trkpt lat="46.753613837063312530517578125" lon="6.9155703485012054443359375">
        <ele>417.20001220703125</ele>
        <time>2013-09-01T16:20:39.000Z</time>
        <extensions>
          <ns3:TrackPointExtension>
            <ns3:atemp>17.0</ns3:atemp>
          </ns3:TrackPointExtension>
        </extensions>
      </trkpt>
      <trkpt lat="46.7535999231040477752685546875" lon="6.91556238569319248199462890625">
        <ele>417.399993896484375</ele>
        <time>2013-09-01T16:20:40.000Z</time>
        <extensions>
          <ns3:TrackPointExtension>
            <ns3:atemp>17.0</ns3:atemp>
          </ns3:TrackPointExtension>
        </extensions>
      </trkpt>
      <trkpt lat="46.75358843989670276641845703125" lon="6.91553522832691669464111328125">
        <ele>417.600006103515625</ele>
        <time>2013-09-01T16:20:41.000Z</time>
        <extensions>
          <ns3:TrackPointExtension>
            <ns3:atemp>17.0</ns3:atemp>
          </ns3:TrackPointExtension>
        </extensions>
      </trkpt>
      <trkpt lat="46.7535754479467868804931640625" lon="6.9155128486454486846923828125">
        <ele>417.600006103515625</ele>
        <time>2013-09-01T16:20:42.000Z</time>
        <extensions>
          <ns3:TrackPointExtension>
            <ns3:atemp>17.0</ns3:atemp>
          </ns3:TrackPointExtension>
        </extensions>
      </trkpt>
      <trkpt lat="46.7535643838346004486083984375" lon="6.9154920615255832672119140625">
        <ele>417.600006103515625</ele>
        <time>2013-09-01T16:20:43.000Z</time>
        <extensions>
          <ns3:TrackPointExtension>
            <ns3:atemp>17.0</ns3:atemp>
          </ns3:TrackPointExtension>
        </extensions>
      </trkpt>
      <trkpt lat="46.753552816808223724365234375" lon="6.91546062938868999481201171875">
        <ele>417.600006103515625</ele>
        <time>2013-09-01T16:20:44.000Z</time>
        <extensions>
          <ns3:TrackPointExtension>
            <ns3:atemp>17.0</ns3:atemp>
          </ns3:TrackPointExtension>
        </extensions>
      </trkpt>
      <trkpt lat="46.75354016013443470001220703125" lon="6.91543422639369964599609375">
        <ele>417.399993896484375</ele>
        <time>2013-09-01T16:20:45.000Z</time>
        <extensions>
          <ns3:TrackPointExtension>
            <ns3:atemp>17.0</ns3:atemp>
          </ns3:TrackPointExtension>
        </extensions>
      </trkpt>
      <trkpt lat="46.75353613682091236114501953125" lon="6.91540338099002838134765625">
        <ele>417.399993896484375</ele>
        <time>2013-09-01T16:20:46.000Z</time>
        <extensions>
          <ns3:TrackPointExtension>
            <ns3:atemp>17.0</ns3:atemp>
          </ns3:TrackPointExtension>
        </extensions>
      </trkpt>
      <trkpt lat="46.753534041345119476318359375" lon="6.915384940803050994873046875">
        <ele>417.20001220703125</ele>
        <time>2013-09-01T16:20:47.000Z</time>
        <extensions>
          <ns3:TrackPointExtension>
            <ns3:atemp>17.0</ns3:atemp>
          </ns3:TrackPointExtension>
        </extensions>
      </trkpt>
      <trkpt lat="46.7535276710987091064453125" lon="6.9153777323663234710693359375">
        <ele>416.79998779296875</ele>
        <time>2013-09-01T16:20:48.000Z</time>
        <extensions>
          <ns3:TrackPointExtension>
            <ns3:atemp>17.0</ns3:atemp>
          </ns3:TrackPointExtension>
        </extensions>
      </trkpt>
      <trkpt lat="46.753523647785186767578125" lon="6.91536448895931243896484375">
        <ele>416.600006103515625</ele>
        <time>2013-09-01T16:20:49.000Z</time>
        <extensions>
          <ns3:TrackPointExtension>
            <ns3:atemp>17.0</ns3:atemp>
          </ns3:TrackPointExtension>
        </extensions>
      </trkpt>
      <trkpt lat="46.75351266749203205108642578125" lon="6.91534948535263538360595703125">
        <ele>416</ele>
        <time>2013-09-01T16:20:50.000Z</time>
        <extensions>
          <ns3:TrackPointExtension>
            <ns3:atemp>17.0</ns3:atemp>
          </ns3:TrackPointExtension>
        </extensions>
      </trkpt>
      <trkpt lat="46.75350478850305080413818359375" lon="6.91533473320305347442626953125">
        <ele>415.79998779296875</ele>
        <time>2013-09-01T16:20:51.000Z</time>
        <extensions>
          <ns3:TrackPointExtension>
            <ns3:atemp>17.0</ns3:atemp>
          </ns3:TrackPointExtension>
        </extensions>
      </trkpt>
      <trkpt lat="46.75349204801023006439208984375" lon="6.915317885577678680419921875">
        <ele>415.399993896484375</ele>
        <time>2013-09-01T16:20:52.000Z</time>
        <extensions>
          <ns3:TrackPointExtension>
            <ns3:atemp>17.0</ns3:atemp>
          </ns3:TrackPointExtension>
        </extensions>
      </trkpt>
      <trkpt lat="46.75348316319286823272705078125" lon="6.9153012894093990325927734375">
        <ele>415.399993896484375</ele>
        <time>2013-09-01T16:20:53.000Z</time>
        <extensions>
          <ns3:TrackPointExtension>
            <ns3:atemp>17.0</ns3:atemp>
          </ns3:TrackPointExtension>
        </extensions>
      </trkpt>
      <trkpt lat="46.753474362194538116455078125" lon="6.9152915664017200469970703125">
        <ele>415.20001220703125</ele>
        <time>2013-09-01T16:20:54.000Z</time>
        <extensions>
          <ns3:TrackPointExtension>
            <ns3:atemp>17.0</ns3:atemp>
          </ns3:TrackPointExtension>
        </extensions>
      </trkpt>
      <trkpt lat="46.7534668184816837310791015625" lon="6.9152835197746753692626953125">
        <ele>415.20001220703125</ele>
        <time>2013-09-01T16:20:55.000Z</time>
        <extensions>
          <ns3:TrackPointExtension>
            <ns3:atemp>17.0</ns3:atemp>
          </ns3:TrackPointExtension>
        </extensions>
      </trkpt>
      <trkpt lat="46.75347469747066497802734375" lon="6.91528670489788055419921875">
        <ele>415.399993896484375</ele>
        <time>2013-09-01T16:20:56.000Z</time>
        <extensions>
          <ns3:TrackPointExtension>
            <ns3:atemp>17.0</ns3:atemp>
          </ns3:TrackPointExtension>
        </extensions>
      </trkpt>
      <trkpt lat="46.75346338190138339996337890625" lon="6.91525292582809925079345703125">
        <ele>415.600006103515625</ele>
        <time>2013-09-01T16:20:57.000Z</time>
        <extensions>
          <ns3:TrackPointExtension>
            <ns3:atemp>17.0</ns3:atemp>
          </ns3:TrackPointExtension>
        </extensions>
      </trkpt>
      <trkpt lat="46.75345852039754390716552734375" lon="6.9152459688484668731689453125">
        <ele>415.79998779296875</ele>
        <time>2013-09-01T16:20:58.000Z</time>
        <extensions>
          <ns3:TrackPointExtension>
            <ns3:atemp>17.0</ns3:atemp>
          </ns3:TrackPointExtension>
        </extensions>
      </trkpt>
      <trkpt lat="46.7534641362726688385009765625" lon="6.91525460220873355865478515625">
        <ele>415.79998779296875</ele>
        <time>2013-09-01T16:20:59.000Z</time>
        <extensions>
          <ns3:TrackPointExtension>
            <ns3:atemp>17.0</ns3:atemp>
          </ns3:TrackPointExtension>
        </extensions>
      </trkpt>
      <trkpt lat="46.75345684401690959930419921875" lon="6.915242113173007965087890625">
        <ele>416</ele>
        <time>2013-09-01T16:21:00.000Z</time>
        <extensions>
          <ns3:TrackPointExtension>
            <ns3:atemp>17.0</ns3:atemp>
          </ns3:TrackPointExtension>
        </extensions>
      </trkpt>
      <trkpt lat="46.7534472048282623291015625" lon="6.915236078202724456787109375">
        <ele>416.20001220703125</ele>
        <time>2013-09-01T16:21:01.000Z</time>
        <extensions>
          <ns3:TrackPointExtension>
            <ns3:atemp>17.0</ns3:atemp>
          </ns3:TrackPointExtension>
        </extensions>
      </trkpt>
      <trkpt lat="46.753437481820583343505859375" lon="6.91522744484245777130126953125">
        <ele>416.399993896484375</ele>
        <time>2013-09-01T16:21:02.000Z</time>
        <extensions>
          <ns3:TrackPointExtension>
            <ns3:atemp>17.0</ns3:atemp>
          </ns3:TrackPointExtension>
        </extensions>
      </trkpt>
      <trkpt lat="46.75344544462859630584716796875" lon="6.91523482091724872589111328125">
        <ele>416.600006103515625</ele>
        <time>2013-09-01T16:21:03.000Z</time>
        <extensions>
          <ns3:TrackPointExtension>
            <ns3:atemp>17.0</ns3:atemp>
          </ns3:TrackPointExtension>
        </extensions>
      </trkpt>
      <trkpt lat="46.75342775881290435791015625" lon="6.91521856002509593963623046875">
        <ele>416.79998779296875</ele>
        <time>2013-09-01T16:21:04.000Z</time>
        <extensions>
          <ns3:TrackPointExtension>
            <ns3:atemp>17.0</ns3:atemp>
          </ns3:TrackPointExtension>
        </extensions>
      </trkpt>
      <trkpt lat="46.75342331640422344207763671875" lon="6.9152080826461315155029296875">
        <ele>417</ele>
        <time>2013-09-01T16:21:05.000Z</time>
        <extensions>
          <ns3:TrackPointExtension>
            <ns3:atemp>17.0</ns3:atemp>
          </ns3:TrackPointExtension>
        </extensions>
      </trkpt>
      <trkpt lat="46.75341795198619365692138671875" lon="6.9151909835636615753173828125">
        <ele>417</ele>
        <time>2013-09-01T16:21:06.000Z</time>
        <extensions>
          <ns3:TrackPointExtension>
            <ns3:atemp>17.0</ns3:atemp>
          </ns3:TrackPointExtension>
        </extensions>
      </trkpt>
      <trkpt lat="46.753416024148464202880859375" lon="6.91518369130790233612060546875">
        <ele>417.20001220703125</ele>
        <time>2013-09-01T16:21:07.000Z</time>
        <extensions>
          <ns3:TrackPointExtension>
            <ns3:atemp>17.0</ns3:atemp>
          </ns3:TrackPointExtension>
        </extensions>
      </trkpt>
      <trkpt lat="46.75340898334980010986328125" lon="6.91517313010990619659423828125">
        <ele>417.20001220703125</ele>
        <time>2013-09-01T16:21:08.000Z</time>
        <extensions>
          <ns3:TrackPointExtension>
            <ns3:atemp>17.0</ns3:atemp>
          </ns3:TrackPointExtension>
        </extensions>
      </trkpt>
      <trkpt lat="46.753407306969165802001953125" lon="6.91516332328319549560546875">
        <ele>417.20001220703125</ele>
        <time>2013-09-01T16:21:09.000Z</time>
        <extensions>
          <ns3:TrackPointExtension>
            <ns3:atemp>17.0</ns3:atemp>
          </ns3:TrackPointExtension>
        </extensions>
      </trkpt>
      <trkpt lat="46.75340764224529266357421875" lon="6.91515167243778705596923828125">
        <ele>417.20001220703125</ele>
        <time>2013-09-01T16:21:10.000Z</time>
        <extensions>
          <ns3:TrackPointExtension>
            <ns3:atemp>17.0</ns3:atemp>
          </ns3:TrackPointExtension>
        </extensions>
      </trkpt>
      <trkpt lat="46.75340822897851467132568359375" lon="6.91513457335531711578369140625">
        <ele>417.20001220703125</ele>
        <time>2013-09-01T16:21:11.000Z</time>
        <extensions>
          <ns3:TrackPointExtension>
            <ns3:atemp>17.0</ns3:atemp>
          </ns3:TrackPointExtension>
        </extensions>
      </trkpt>
      <trkpt lat="46.753397248685359954833984375" lon="6.915116719901561737060546875">
        <ele>417</ele>
        <time>2013-09-01T16:21:12.000Z</time>
        <extensions>
          <ns3:TrackPointExtension>
            <ns3:atemp>17.0</ns3:atemp>
          </ns3:TrackPointExtension>
        </extensions>
      </trkpt>
      <trkpt lat="46.7533908784389495849609375" lon="6.915099285542964935302734375">
        <ele>416.79998779296875</ele>
        <time>2013-09-01T16:21:13.000Z</time>
        <extensions>
          <ns3:TrackPointExtension>
            <ns3:atemp>17.0</ns3:atemp>
          </ns3:TrackPointExtension>
        </extensions>
      </trkpt>
      <trkpt lat="46.75338794477283954620361328125" lon="6.9150800071656703948974609375">
        <ele>416.399993896484375</ele>
        <time>2013-09-01T16:21:14.000Z</time>
        <extensions>
          <ns3:TrackPointExtension>
            <ns3:atemp>17.0</ns3:atemp>
          </ns3:TrackPointExtension>
        </extensions>
      </trkpt>
      <trkpt lat="46.753383167088031768798828125" lon="6.9150582142174243927001953125">
        <ele>416.399993896484375</ele>
        <time>2013-09-01T16:21:15.000Z</time>
        <extensions>
          <ns3:TrackPointExtension>
            <ns3:atemp>17.0</ns3:atemp>
          </ns3:TrackPointExtension>
        </extensions>
      </trkpt>
      <trkpt lat="46.753377132117748260498046875" lon="6.9150417856872081756591796875">
        <ele>416.20001220703125</ele>
        <time>2013-09-01T16:21:16.000Z</time>
        <extensions>
          <ns3:TrackPointExtension>
            <ns3:atemp>17.0</ns3:atemp>
          </ns3:TrackPointExtension>
        </extensions>
      </trkpt>
      <trkpt lat="46.75337352789938449859619140625" lon="6.91503281705081462860107421875">
        <ele>416.20001220703125</ele>
        <time>2013-09-01T16:21:17.000Z</time>
        <extensions>
          <ns3:TrackPointExtension>
            <ns3:atemp>17.0</ns3:atemp>
          </ns3:TrackPointExtension>
        </extensions>
      </trkpt>
      <trkpt lat="46.753379143774509429931640625" lon="6.91504287533462047576904296875">
        <ele>416</ele>
        <time>2013-09-01T16:21:18.000Z</time>
        <extensions>
          <ns3:TrackPointExtension>
            <ns3:atemp>17.0</ns3:atemp>
          </ns3:TrackPointExtension>
        </extensions>
      </trkpt>
      <trkpt lat="46.75336916930973529815673828125" lon="6.91502812318503856658935546875">
        <ele>416</ele>
        <time>2013-09-01T16:21:19.000Z</time>
        <extensions>
          <ns3:TrackPointExtension>
            <ns3:atemp>17.0</ns3:atemp>
          </ns3:TrackPointExtension>
        </extensions>
      </trkpt>
      <trkpt lat="46.7533669061958789825439453125" lon="6.91502108238637447357177734375">
        <ele>416</ele>
        <time>2013-09-01T16:21:20.000Z</time>
        <extensions>
          <ns3:TrackPointExtension>
            <ns3:atemp>17.0</ns3:atemp>
          </ns3:TrackPointExtension>
        </extensions>
      </trkpt>
      <trkpt lat="46.7533588595688343048095703125" lon="6.9149978645145893096923828125">
        <ele>415.79998779296875</ele>
        <time>2013-09-01T16:21:21.000Z</time>
        <extensions>
          <ns3:TrackPointExtension>
            <ns3:atemp>17.0</ns3:atemp>
          </ns3:TrackPointExtension>
        </extensions>
      </trkpt>
      <trkpt lat="46.753355003893375396728515625" lon="6.9149775803089141845703125">
        <ele>415.600006103515625</ele>
        <time>2013-09-01T16:21:22.000Z</time>
        <extensions>
          <ns3:TrackPointExtension>
            <ns3:atemp>17.0</ns3:atemp>
          </ns3:TrackPointExtension>
        </extensions>
      </trkpt>
      <trkpt lat="46.7533452808856964111328125" lon="6.91494648344814777374267578125">
        <ele>415.20001220703125</ele>
        <time>2013-09-01T16:21:23.000Z</time>
        <extensions>
          <ns3:TrackPointExtension>
            <ns3:atemp>17.0</ns3:atemp>
          </ns3:TrackPointExtension>
        </extensions>
      </trkpt>
      <trkpt lat="46.753328852355480194091796875" lon="6.91490893252193927764892578125">
        <ele>414.79998779296875</ele>
        <time>2013-09-01T16:21:24.000Z</time>
        <extensions>
          <ns3:TrackPointExtension>
            <ns3:atemp>17.0</ns3:atemp>
          </ns3:TrackPointExtension>
        </extensions>
      </trkpt>
      <trkpt lat="46.753298006951808929443359375" lon="6.9148587249219417572021484375">
        <ele>414.399993896484375</ele>
        <time>2013-09-01T16:21:25.000Z</time>
        <extensions>
          <ns3:TrackPointExtension>
            <ns3:atemp>17.0</ns3:atemp>
          </ns3:TrackPointExtension>
        </extensions>
      </trkpt>
      <trkpt lat="46.7532696761190891265869140625" lon="6.9148030690848827362060546875">
        <ele>414</ele>
        <time>2013-09-01T16:21:26.000Z</time>
        <extensions>
          <ns3:TrackPointExtension>
            <ns3:atemp>17.0</ns3:atemp>
          </ns3:TrackPointExtension>
        </extensions>
      </trkpt>
      <trkpt lat="46.75323891453444957733154296875" lon="6.91475437022745609283447265625">
        <ele>413.399993896484375</ele>
        <time>2013-09-01T16:21:27.000Z</time>
        <extensions>
          <ns3:TrackPointExtension>
            <ns3:atemp>17.0</ns3:atemp>
          </ns3:TrackPointExtension>
        </extensions>
      </trkpt>
      <trkpt lat="46.75321527756750583648681640625" lon="6.91472050733864307403564453125">
        <ele>412.600006103515625</ele>
        <time>2013-09-01T16:21:28.000Z</time>
        <extensions>
          <ns3:TrackPointExtension>
            <ns3:atemp>17.0</ns3:atemp>
          </ns3:TrackPointExtension>
        </extensions>
      </trkpt>
      <trkpt lat="46.7531892098486423492431640625" lon="6.9146884046494960784912109375">
        <ele>412</ele>
        <time>2013-09-01T16:21:29.000Z</time>
        <extensions>
          <ns3:TrackPointExtension>
            <ns3:atemp>17.0</ns3:atemp>
          </ns3:TrackPointExtension>
        </extensions>
      </trkpt>
      <trkpt lat="46.75317571498453617095947265625" lon="6.9146662764251232147216796875">
        <ele>411.600006103515625</ele>
        <time>2013-09-01T16:21:30.000Z</time>
        <extensions>
          <ns3:TrackPointExtension>
            <ns3:atemp>17.0</ns3:atemp>
          </ns3:TrackPointExtension>
        </extensions>
      </trkpt>
      <trkpt lat="46.753166578710079193115234375" lon="6.91466317512094974517822265625">
        <ele>411.20001220703125</ele>
        <time>2013-09-01T16:21:31.000Z</time>
        <extensions>
          <ns3:TrackPointExtension>
            <ns3:atemp>17.0</ns3:atemp>
          </ns3:TrackPointExtension>
        </extensions>
      </trkpt>
      <trkpt lat="46.7531580291688442230224609375" lon="6.9146535359323024749755859375">
        <ele>411</ele>
        <time>2013-09-01T16:21:32.000Z</time>
        <extensions>
          <ns3:TrackPointExtension>
            <ns3:atemp>17.0</ns3:atemp>
          </ns3:TrackPointExtension>
        </extensions>
      </trkpt>
      <trkpt lat="46.7531669139862060546875" lon="6.9146609120070934295654296875">
        <ele>411</ele>
        <time>2013-09-01T16:21:33.000Z</time>
        <extensions>
          <ns3:TrackPointExtension>
            <ns3:atemp>17.0</ns3:atemp>
          </ns3:TrackPointExtension>
        </extensions>
      </trkpt>
      <trkpt lat="46.75315442495048046112060546875" lon="6.91464322619140148162841796875">
        <ele>411</ele>
        <time>2013-09-01T16:21:34.000Z</time>
        <extensions>
          <ns3:TrackPointExtension>
            <ns3:atemp>17.0</ns3:atemp>
          </ns3:TrackPointExtension>
        </extensions>
      </trkpt>
      <trkpt lat="46.75315073691308498382568359375" lon="6.91463702358305454254150390625">
        <ele>411</ele>
        <time>2013-09-01T16:21:35.000Z</time>
        <extensions>
          <ns3:TrackPointExtension>
            <ns3:atemp>17.0</ns3:atemp>
          </ns3:TrackPointExtension>
        </extensions>
      </trkpt>
      <trkpt lat="46.75314436666667461395263671875" lon="6.9146357662975788116455078125">
        <ele>411</ele>
        <time>2013-09-01T16:21:36.000Z</time>
        <extensions>
          <ns3:TrackPointExtension>
            <ns3:atemp>17.0</ns3:atemp>
          </ns3:TrackPointExtension>
        </extensions>
      </trkpt>
      <trkpt lat="46.75314503721892833709716796875" lon="6.91464121453464031219482421875">
        <ele>411.20001220703125</ele>
        <time>2013-09-01T16:21:37.000Z</time>
        <extensions>
          <ns3:TrackPointExtension>
            <ns3:atemp>17.0</ns3:atemp>
          </ns3:TrackPointExtension>
        </extensions>
      </trkpt>
      <trkpt lat="46.75314503721892833709716796875" lon="6.91464121453464031219482421875">
        <ele>411.399993896484375</ele>
        <time>2013-09-01T16:21:38.000Z</time>
        <extensions>
          <ns3:TrackPointExtension>
            <ns3:atemp>17.0</ns3:atemp>
          </ns3:TrackPointExtension>
        </extensions>
      </trkpt>
      <trkpt lat="46.75314503721892833709716796875" lon="6.91464121453464031219482421875">
        <ele>411.399993896484375</ele>
        <time>2013-09-01T16:21:39.000Z</time>
        <extensions>
          <ns3:TrackPointExtension>
            <ns3:atemp>17.0</ns3:atemp>
          </ns3:TrackPointExtension>
        </extensions>
      </trkpt>
      <trkpt lat="46.75313984043896198272705078125" lon="6.9146438129246234893798828125">
        <ele>411.399993896484375</ele>
        <time>2013-09-01T16:21:40.000Z</time>
        <extensions>
          <ns3:TrackPointExtension>
            <ns3:atemp>17.0</ns3:atemp>
          </ns3:TrackPointExtension>
        </extensions>
      </trkpt>
      <trkpt lat="46.75313984043896198272705078125" lon="6.9146438129246234893798828125">
        <ele>411.399993896484375</ele>
        <time>2013-09-01T16:21:41.000Z</time>
        <extensions>
          <ns3:TrackPointExtension>
            <ns3:atemp>17.0</ns3:atemp>
          </ns3:TrackPointExtension>
        </extensions>
      </trkpt>
      <trkpt lat="46.7531318776309490203857421875" lon="6.91464691422879695892333984375">
        <ele>411.399993896484375</ele>
        <time>2013-09-01T16:21:42.000Z</time>
        <extensions>
          <ns3:TrackPointExtension>
            <ns3:atemp>17.0</ns3:atemp>
          </ns3:TrackPointExtension>
        </extensions>
      </trkpt>
      <trkpt lat="46.7531318776309490203857421875" lon="6.91464691422879695892333984375">
        <ele>411.399993896484375</ele>
        <time>2013-09-01T16:21:43.000Z</time>
        <extensions>
          <ns3:TrackPointExtension>
            <ns3:atemp>17.0</ns3:atemp>
          </ns3:TrackPointExtension>
        </extensions>
      </trkpt>
      <trkpt lat="46.75313145853579044342041015625" lon="6.91464574076235294342041015625">
        <ele>411.20001220703125</ele>
        <time>2013-09-01T16:21:44.000Z</time>
        <extensions>
          <ns3:TrackPointExtension>
            <ns3:atemp>17.0</ns3:atemp>
          </ns3:TrackPointExtension>
        </extensions>
      </trkpt>
      <trkpt lat="46.75313145853579044342041015625" lon="6.91464574076235294342041015625">
        <ele>411.20001220703125</ele>
        <time>2013-09-01T16:21:45.000Z</time>
        <extensions>
          <ns3:TrackPointExtension>
            <ns3:atemp>17.0</ns3:atemp>
          </ns3:TrackPointExtension>
        </extensions>
      </trkpt>
      <trkpt lat="46.75313145853579044342041015625" lon="6.91464574076235294342041015625">
        <ele>411</ele>
        <time>2013-09-01T16:21:46.000Z</time>
        <extensions>
          <ns3:TrackPointExtension>
            <ns3:atemp>17.0</ns3:atemp>
          </ns3:TrackPointExtension>
        </extensions>
      </trkpt>
      <trkpt lat="46.75313145853579044342041015625" lon="6.91464574076235294342041015625">
        <ele>411</ele>
        <time>2013-09-01T16:21:47.000Z</time>
        <extensions>
          <ns3:TrackPointExtension>
            <ns3:atemp>17.0</ns3:atemp>
          </ns3:TrackPointExtension>
        </extensions>
      </trkpt>
      <trkpt lat="46.75311863422393798828125" lon="6.91464641131460666656494140625">
        <ele>410.79998779296875</ele>
        <time>2013-09-01T16:21:48.000Z</time>
        <extensions>
          <ns3:TrackPointExtension>
            <ns3:atemp>17.0</ns3:atemp>
          </ns3:TrackPointExtension>
        </extensions>
      </trkpt>
      <trkpt lat="46.7531097494065761566162109375" lon="6.9146421365439891815185546875">
        <ele>410.79998779296875</ele>
        <time>2013-09-01T16:21:49.000Z</time>
        <extensions>
          <ns3:TrackPointExtension>
            <ns3:atemp>17.0</ns3:atemp>
          </ns3:TrackPointExtension>
        </extensions>
      </trkpt>
      <trkpt lat="46.75310455262660980224609375" lon="6.91463249735534191131591796875">
        <ele>410.600006103515625</ele>
        <time>2013-09-01T16:21:50.000Z</time>
        <extensions>
          <ns3:TrackPointExtension>
            <ns3:atemp>17.0</ns3:atemp>
          </ns3:TrackPointExtension>
        </extensions>
      </trkpt>
      <trkpt lat="46.753096841275691986083984375" lon="6.91462160088121891021728515625">
        <ele>410.600006103515625</ele>
        <time>2013-09-01T16:21:51.000Z</time>
        <extensions>
          <ns3:TrackPointExtension>
            <ns3:atemp>17.0</ns3:atemp>
          </ns3:TrackPointExtension>
        </extensions>
      </trkpt>
      <trkpt lat="46.753096841275691986083984375" lon="6.91462160088121891021728515625">
        <ele>410.600006103515625</ele>
        <time>2013-09-01T16:21:52.000Z</time>
        <extensions>
          <ns3:TrackPointExtension>
            <ns3:atemp>17.0</ns3:atemp>
          </ns3:TrackPointExtension>
        </extensions>
      </trkpt>
      <trkpt lat="46.753096841275691986083984375" lon="6.91462160088121891021728515625">
        <ele>410.600006103515625</ele>
        <time>2013-09-01T16:21:53.000Z</time>
        <extensions>
          <ns3:TrackPointExtension>
            <ns3:atemp>17.0</ns3:atemp>
          </ns3:TrackPointExtension>
        </extensions>
      </trkpt>
      <trkpt lat="46.753096841275691986083984375" lon="6.91462160088121891021728515625">
        <ele>410.399993896484375</ele>
        <time>2013-09-01T16:21:54.000Z</time>
        <extensions>
          <ns3:TrackPointExtension>
            <ns3:atemp>17.0</ns3:atemp>
          </ns3:TrackPointExtension>
        </extensions>
      </trkpt>
      <trkpt lat="46.753096841275691986083984375" lon="6.91462160088121891021728515625">
        <ele>410.399993896484375</ele>
        <time>2013-09-01T16:21:55.000Z</time>
        <extensions>
          <ns3:TrackPointExtension>
            <ns3:atemp>17.0</ns3:atemp>
          </ns3:TrackPointExtension>
        </extensions>
      </trkpt>
      <trkpt lat="46.753096841275691986083984375" lon="6.91462160088121891021728515625">
        <ele>410.399993896484375</ele>
        <time>2013-09-01T16:21:56.000Z</time>
        <extensions>
          <ns3:TrackPointExtension>
            <ns3:atemp>17.0</ns3:atemp>
          </ns3:TrackPointExtension>
        </extensions>
      </trkpt>
      <trkpt lat="46.753096841275691986083984375" lon="6.91462160088121891021728515625">
        <ele>410.399993896484375</ele>
        <time>2013-09-01T16:21:57.000Z</time>
        <extensions>
          <ns3:TrackPointExtension>
            <ns3:atemp>17.0</ns3:atemp>
          </ns3:TrackPointExtension>
        </extensions>
      </trkpt>
      <trkpt lat="46.753096841275691986083984375" lon="6.91462160088121891021728515625">
        <ele>410.399993896484375</ele>
        <time>2013-09-01T16:21:58.000Z</time>
        <extensions>
          <ns3:TrackPointExtension>
            <ns3:atemp>17.0</ns3:atemp>
          </ns3:TrackPointExtension>
        </extensions>
      </trkpt>
      <trkpt lat="46.753096841275691986083984375" lon="6.91462160088121891021728515625">
        <ele>410.399993896484375</ele>
        <time>2013-09-01T16:21:59.000Z</time>
        <extensions>
          <ns3:TrackPointExtension>
            <ns3:atemp>17.0</ns3:atemp>
          </ns3:TrackPointExtension>
        </extensions>
      </trkpt>
      <trkpt lat="46.753096841275691986083984375" lon="6.91462160088121891021728515625">
        <ele>410.399993896484375</ele>
        <time>2013-09-01T16:22:00.000Z</time>
        <extensions>
          <ns3:TrackPointExtension>
            <ns3:atemp>17.0</ns3:atemp>
          </ns3:TrackPointExtension>
        </extensions>
      </trkpt>
      <trkpt lat="46.753096841275691986083984375" lon="6.91462160088121891021728515625">
        <ele>410.399993896484375</ele>
        <time>2013-09-01T16:22:01.000Z</time>
        <extensions>
          <ns3:TrackPointExtension>
            <ns3:atemp>17.0</ns3:atemp>
          </ns3:TrackPointExtension>
        </extensions>
      </trkpt>
      <trkpt lat="46.753096841275691986083984375" lon="6.91462160088121891021728515625">
        <ele>410.399993896484375</ele>
        <time>2013-09-01T16:22:02.000Z</time>
        <extensions>
          <ns3:TrackPointExtension>
            <ns3:atemp>17.0</ns3:atemp>
          </ns3:TrackPointExtension>
        </extensions>
      </trkpt>
      <trkpt lat="46.753096841275691986083984375" lon="6.91462160088121891021728515625">
        <ele>410.399993896484375</ele>
        <time>2013-09-01T16:22:03.000Z</time>
        <extensions>
          <ns3:TrackPointExtension>
            <ns3:atemp>17.0</ns3:atemp>
          </ns3:TrackPointExtension>
        </extensions>
      </trkpt>
      <trkpt lat="46.753096841275691986083984375" lon="6.91462160088121891021728515625">
        <ele>410.399993896484375</ele>
        <time>2013-09-01T16:22:04.000Z</time>
        <extensions>
          <ns3:TrackPointExtension>
            <ns3:atemp>17.0</ns3:atemp>
          </ns3:TrackPointExtension>
        </extensions>
      </trkpt>
      <trkpt lat="46.753096841275691986083984375" lon="6.91462160088121891021728515625">
        <ele>410.399993896484375</ele>
        <time>2013-09-01T16:22:05.000Z</time>
        <extensions>
          <ns3:TrackPointExtension>
            <ns3:atemp>17.0</ns3:atemp>
          </ns3:TrackPointExtension>
        </extensions>
      </trkpt>
      <trkpt lat="46.753096841275691986083984375" lon="6.91462160088121891021728515625">
        <ele>410.399993896484375</ele>
        <time>2013-09-01T16:22:06.000Z</time>
        <extensions>
          <ns3:TrackPointExtension>
            <ns3:atemp>17.0</ns3:atemp>
          </ns3:TrackPointExtension>
        </extensions>
      </trkpt>
      <trkpt lat="46.753096841275691986083984375" lon="6.91462160088121891021728515625">
        <ele>410.399993896484375</ele>
        <time>2013-09-01T16:22:07.000Z</time>
        <extensions>
          <ns3:TrackPointExtension>
            <ns3:atemp>17.0</ns3:atemp>
          </ns3:TrackPointExtension>
        </extensions>
      </trkpt>
      <trkpt lat="46.753096841275691986083984375" lon="6.91462160088121891021728515625">
        <ele>410.399993896484375</ele>
        <time>2013-09-01T16:22:08.000Z</time>
        <extensions>
          <ns3:TrackPointExtension>
            <ns3:atemp>17.0</ns3:atemp>
          </ns3:TrackPointExtension>
        </extensions>
      </trkpt>
      <trkpt lat="46.753096841275691986083984375" lon="6.91462160088121891021728515625">
        <ele>410.399993896484375</ele>
        <time>2013-09-01T16:22:09.000Z</time>
        <extensions>
          <ns3:TrackPointExtension>
            <ns3:atemp>17.0</ns3:atemp>
          </ns3:TrackPointExtension>
        </extensions>
      </trkpt>
      <trkpt lat="46.753096841275691986083984375" lon="6.91462160088121891021728515625">
        <ele>410.399993896484375</ele>
        <time>2013-09-01T16:22:10.000Z</time>
        <extensions>
          <ns3:TrackPointExtension>
            <ns3:atemp>17.0</ns3:atemp>
          </ns3:TrackPointExtension>
        </extensions>
      </trkpt>
      <trkpt lat="46.753096841275691986083984375" lon="6.91462160088121891021728515625">
        <ele>410.399993896484375</ele>
        <time>2013-09-01T16:22:11.000Z</time>
        <extensions>
          <ns3:TrackPointExtension>
            <ns3:atemp>17.0</ns3:atemp>
          </ns3:TrackPointExtension>
        </extensions>
      </trkpt>
      <trkpt lat="46.753096841275691986083984375" lon="6.91462160088121891021728515625">
        <ele>410.399993896484375</ele>
        <time>2013-09-01T16:22:12.000Z</time>
        <extensions>
          <ns3:TrackPointExtension>
            <ns3:atemp>17.0</ns3:atemp>
          </ns3:TrackPointExtension>
        </extensions>
      </trkpt>
      <trkpt lat="46.753096841275691986083984375" lon="6.91462160088121891021728515625">
        <ele>410.399993896484375</ele>
        <time>2013-09-01T16:22:13.000Z</time>
        <extensions>
          <ns3:TrackPointExtension>
            <ns3:atemp>16.0</ns3:atemp>
          </ns3:TrackPointExtension>
        </extensions>
      </trkpt>
      <trkpt lat="46.753096841275691986083984375" lon="6.91462160088121891021728515625">
        <ele>410.399993896484375</ele>
        <time>2013-09-01T16:22:14.000Z</time>
        <extensions>
          <ns3:TrackPointExtension>
            <ns3:atemp>16.0</ns3:atemp>
          </ns3:TrackPointExtension>
        </extensions>
      </trkpt>
      <trkpt lat="46.753096841275691986083984375" lon="6.91462160088121891021728515625">
        <ele>410.399993896484375</ele>
        <time>2013-09-01T16:22:15.000Z</time>
        <extensions>
          <ns3:TrackPointExtension>
            <ns3:atemp>16.0</ns3:atemp>
          </ns3:TrackPointExtension>
        </extensions>
      </trkpt>
      <trkpt lat="46.753096841275691986083984375" lon="6.91462160088121891021728515625">
        <ele>410.399993896484375</ele>
        <time>2013-09-01T16:22:16.000Z</time>
        <extensions>
          <ns3:TrackPointExtension>
            <ns3:atemp>16.0</ns3:atemp>
          </ns3:TrackPointExtension>
        </extensions>
      </trkpt>
      <trkpt lat="46.753096841275691986083984375" lon="6.91462160088121891021728515625">
        <ele>410.399993896484375</ele>
        <time>2013-09-01T16:22:17.000Z</time>
        <extensions>
          <ns3:TrackPointExtension>
            <ns3:atemp>16.0</ns3:atemp>
          </ns3:TrackPointExtension>
        </extensions>
      </trkpt>
      <trkpt lat="46.753096841275691986083984375" lon="6.91462160088121891021728515625">
        <ele>410.20001220703125</ele>
        <time>2013-09-01T16:22:18.000Z</time>
        <extensions>
          <ns3:TrackPointExtension>
            <ns3:atemp>16.0</ns3:atemp>
          </ns3:TrackPointExtension>
        </extensions>
      </trkpt>
      <trkpt lat="46.753096841275691986083984375" lon="6.91462160088121891021728515625">
        <ele>410.20001220703125</ele>
        <time>2013-09-01T16:22:19.000Z</time>
        <extensions>
          <ns3:TrackPointExtension>
            <ns3:atemp>16.0</ns3:atemp>
          </ns3:TrackPointExtension>
        </extensions>
      </trkpt>
      <trkpt lat="46.753096841275691986083984375" lon="6.91462160088121891021728515625">
        <ele>410.399993896484375</ele>
        <time>2013-09-01T16:22:20.000Z</time>
        <extensions>
          <ns3:TrackPointExtension>
            <ns3:atemp>16.0</ns3:atemp>
          </ns3:TrackPointExtension>
        </extensions>
      </trkpt>
      <trkpt lat="46.753096841275691986083984375" lon="6.91462160088121891021728515625">
        <ele>410.399993896484375</ele>
        <time>2013-09-01T16:22:21.000Z</time>
        <extensions>
          <ns3:TrackPointExtension>
            <ns3:atemp>16.0</ns3:atemp>
          </ns3:TrackPointExtension>
        </extensions>
      </trkpt>
      <trkpt lat="46.753096841275691986083984375" lon="6.91462160088121891021728515625">
        <ele>410.399993896484375</ele>
        <time>2013-09-01T16:22:22.000Z</time>
        <extensions>
          <ns3:TrackPointExtension>
            <ns3:atemp>16.0</ns3:atemp>
          </ns3:TrackPointExtension>
        </extensions>
      </trkpt>
      <trkpt lat="46.753096841275691986083984375" lon="6.91462160088121891021728515625">
        <ele>410.399993896484375</ele>
        <time>2013-09-01T16:22:23.000Z</time>
        <extensions>
          <ns3:TrackPointExtension>
            <ns3:atemp>16.0</ns3:atemp>
          </ns3:TrackPointExtension>
        </extensions>
      </trkpt>
      <trkpt lat="46.753096841275691986083984375" lon="6.91462160088121891021728515625">
        <ele>410.399993896484375</ele>
        <time>2013-09-01T16:22:24.000Z</time>
        <extensions>
          <ns3:TrackPointExtension>
            <ns3:atemp>16.0</ns3:atemp>
          </ns3:TrackPointExtension>
        </extensions>
      </trkpt>
      <trkpt lat="46.753096841275691986083984375" lon="6.91462160088121891021728515625">
        <ele>410.399993896484375</ele>
        <time>2013-09-01T16:22:25.000Z</time>
        <extensions>
          <ns3:TrackPointExtension>
            <ns3:atemp>16.0</ns3:atemp>
          </ns3:TrackPointExtension>
        </extensions>
      </trkpt>
      <trkpt lat="46.753096841275691986083984375" lon="6.91462160088121891021728515625">
        <ele>410.399993896484375</ele>
        <time>2013-09-01T16:22:26.000Z</time>
        <extensions>
          <ns3:TrackPointExtension>
            <ns3:atemp>16.0</ns3:atemp>
          </ns3:TrackPointExtension>
        </extensions>
      </trkpt>
      <trkpt lat="46.753096841275691986083984375" lon="6.91462160088121891021728515625">
        <ele>410.399993896484375</ele>
        <time>2013-09-01T16:22:27.000Z</time>
        <extensions>
          <ns3:TrackPointExtension>
            <ns3:atemp>16.0</ns3:atemp>
          </ns3:TrackPointExtension>
        </extensions>
      </trkpt>
      <trkpt lat="46.753096841275691986083984375" lon="6.91462160088121891021728515625">
        <ele>410.399993896484375</ele>
        <time>2013-09-01T16:22:28.000Z</time>
        <extensions>
          <ns3:TrackPointExtension>
            <ns3:atemp>16.0</ns3:atemp>
          </ns3:TrackPointExtension>
        </extensions>
      </trkpt>
      <trkpt lat="46.753096841275691986083984375" lon="6.91462160088121891021728515625">
        <ele>410.399993896484375</ele>
        <time>2013-09-01T16:22:29.000Z</time>
        <extensions>
          <ns3:TrackPointExtension>
            <ns3:atemp>16.0</ns3:atemp>
          </ns3:TrackPointExtension>
        </extensions>
      </trkpt>
      <trkpt lat="46.753096841275691986083984375" lon="6.91462160088121891021728515625">
        <ele>410.399993896484375</ele>
        <time>2013-09-01T16:22:30.000Z</time>
        <extensions>
          <ns3:TrackPointExtension>
            <ns3:atemp>16.0</ns3:atemp>
          </ns3:TrackPointExtension>
        </extensions>
      </trkpt>
      <trkpt lat="46.75309717655181884765625" lon="6.91462160088121891021728515625">
        <ele>410.20001220703125</ele>
        <time>2013-09-01T16:22:31.000Z</time>
        <extensions>
          <ns3:TrackPointExtension>
            <ns3:atemp>16.0</ns3:atemp>
          </ns3:TrackPointExtension>
        </extensions>
      </trkpt>
      <trkpt lat="46.75309717655181884765625" lon="6.91462160088121891021728515625">
        <ele>410.399993896484375</ele>
        <time>2013-09-01T16:22:32.000Z</time>
        <extensions>
          <ns3:TrackPointExtension>
            <ns3:atemp>16.0</ns3:atemp>
          </ns3:TrackPointExtension>
        </extensions>
      </trkpt>
      <trkpt lat="46.75309717655181884765625" lon="6.91462160088121891021728515625">
        <ele>410.399993896484375</ele>
        <time>2013-09-01T16:22:33.000Z</time>
        <extensions>
          <ns3:TrackPointExtension>
            <ns3:atemp>16.0</ns3:atemp>
          </ns3:TrackPointExtension>
        </extensions>
      </trkpt>
      <trkpt lat="46.75309717655181884765625" lon="6.91462160088121891021728515625">
        <ele>410.399993896484375</ele>
        <time>2013-09-01T16:22:34.000Z</time>
        <extensions>
          <ns3:TrackPointExtension>
            <ns3:atemp>16.0</ns3:atemp>
          </ns3:TrackPointExtension>
        </extensions>
      </trkpt>
      <trkpt lat="46.75309717655181884765625" lon="6.91462160088121891021728515625">
        <ele>410.399993896484375</ele>
        <time>2013-09-01T16:22:35.000Z</time>
        <extensions>
          <ns3:TrackPointExtension>
            <ns3:atemp>16.0</ns3:atemp>
          </ns3:TrackPointExtension>
        </extensions>
      </trkpt>
      <trkpt lat="46.75309717655181884765625" lon="6.91462160088121891021728515625">
        <ele>410.399993896484375</ele>
        <time>2013-09-01T16:22:36.000Z</time>
        <extensions>
          <ns3:TrackPointExtension>
            <ns3:atemp>16.0</ns3:atemp>
          </ns3:TrackPointExtension>
        </extensions>
      </trkpt>
      <trkpt lat="46.75309717655181884765625" lon="6.91462160088121891021728515625">
        <ele>410.399993896484375</ele>
        <time>2013-09-01T16:22:37.000Z</time>
        <extensions>
          <ns3:TrackPointExtension>
            <ns3:atemp>16.0</ns3:atemp>
          </ns3:TrackPointExtension>
        </extensions>
      </trkpt>
      <trkpt lat="46.75309717655181884765625" lon="6.91462160088121891021728515625">
        <ele>410.399993896484375</ele>
        <time>2013-09-01T16:22:38.000Z</time>
        <extensions>
          <ns3:TrackPointExtension>
            <ns3:atemp>16.0</ns3:atemp>
          </ns3:TrackPointExtension>
        </extensions>
      </trkpt>
      <trkpt lat="46.75309717655181884765625" lon="6.91462160088121891021728515625">
        <ele>410.20001220703125</ele>
        <time>2013-09-01T16:22:39.000Z</time>
        <extensions>
          <ns3:TrackPointExtension>
            <ns3:atemp>16.0</ns3:atemp>
          </ns3:TrackPointExtension>
        </extensions>
      </trkpt>
      <trkpt lat="46.75309717655181884765625" lon="6.91462160088121891021728515625">
        <ele>410.20001220703125</ele>
        <time>2013-09-01T16:22:40.000Z</time>
        <extensions>
          <ns3:TrackPointExtension>
            <ns3:atemp>16.0</ns3:atemp>
          </ns3:TrackPointExtension>
        </extensions>
      </trkpt>
      <trkpt lat="46.75309717655181884765625" lon="6.91462160088121891021728515625">
        <ele>410.399993896484375</ele>
        <time>2013-09-01T16:22:41.000Z</time>
        <extensions>
          <ns3:TrackPointExtension>
            <ns3:atemp>16.0</ns3:atemp>
          </ns3:TrackPointExtension>
        </extensions>
      </trkpt>
      <trkpt lat="46.75309717655181884765625" lon="6.91462160088121891021728515625">
        <ele>410.399993896484375</ele>
        <time>2013-09-01T16:22:42.000Z</time>
        <extensions>
          <ns3:TrackPointExtension>
            <ns3:atemp>16.0</ns3:atemp>
          </ns3:TrackPointExtension>
        </extensions>
      </trkpt>
      <trkpt lat="46.75309717655181884765625" lon="6.91462160088121891021728515625">
        <ele>410.399993896484375</ele>
        <time>2013-09-01T16:22:43.000Z</time>
        <extensions>
          <ns3:TrackPointExtension>
            <ns3:atemp>16.0</ns3:atemp>
          </ns3:TrackPointExtension>
        </extensions>
      </trkpt>
      <trkpt lat="46.75309717655181884765625" lon="6.91462160088121891021728515625">
        <ele>410.399993896484375</ele>
        <time>2013-09-01T16:22:44.000Z</time>
        <extensions>
          <ns3:TrackPointExtension>
            <ns3:atemp>16.0</ns3:atemp>
          </ns3:TrackPointExtension>
        </extensions>
      </trkpt>
      <trkpt lat="46.75309717655181884765625" lon="6.91462160088121891021728515625">
        <ele>410.20001220703125</ele>
        <time>2013-09-01T16:22:45.000Z</time>
        <extensions>
          <ns3:TrackPointExtension>
            <ns3:atemp>16.0</ns3:atemp>
          </ns3:TrackPointExtension>
        </extensions>
      </trkpt>
      <trkpt lat="46.75309717655181884765625" lon="6.91462160088121891021728515625">
        <ele>410.20001220703125</ele>
        <time>2013-09-01T16:22:46.000Z</time>
        <extensions>
          <ns3:TrackPointExtension>
            <ns3:atemp>16.0</ns3:atemp>
          </ns3:TrackPointExtension>
        </extensions>
      </trkpt>
      <trkpt lat="46.75309717655181884765625" lon="6.91462160088121891021728515625">
        <ele>410.20001220703125</ele>
        <time>2013-09-01T16:22:47.000Z</time>
        <extensions>
          <ns3:TrackPointExtension>
            <ns3:atemp>16.0</ns3:atemp>
          </ns3:TrackPointExtension>
        </extensions>
      </trkpt>
      <trkpt lat="46.7530892975628376007080078125" lon="6.9145566411316394805908203125">
        <ele>410.20001220703125</ele>
        <time>2013-09-01T16:22:48.000Z</time>
        <extensions>
          <ns3:TrackPointExtension>
            <ns3:atemp>16.0</ns3:atemp>
          </ns3:TrackPointExtension>
        </extensions>
      </trkpt>
      <trkpt lat="46.75307446159422397613525390625" lon="6.914504505693912506103515625">
        <ele>410.20001220703125</ele>
        <time>2013-09-01T16:22:49.000Z</time>
        <extensions>
          <ns3:TrackPointExtension>
            <ns3:atemp>16.0</ns3:atemp>
          </ns3:TrackPointExtension>
        </extensions>
      </trkpt>
      <trkpt lat="46.75305551849305629730224609375" lon="6.91446301527321338653564453125">
        <ele>410</ele>
        <time>2013-09-01T16:22:50.000Z</time>
        <extensions>
          <ns3:TrackPointExtension>
            <ns3:atemp>16.0</ns3:atemp>
          </ns3:TrackPointExtension>
        </extensions>
      </trkpt>
      <trkpt lat="46.75304244272410869598388671875" lon="6.91443233750760555267333984375">
        <ele>410</ele>
        <time>2013-09-01T16:22:51.000Z</time>
        <extensions>
          <ns3:TrackPointExtension>
            <ns3:atemp>16.0</ns3:atemp>
          </ns3:TrackPointExtension>
        </extensions>
      </trkpt>
      <trkpt lat="46.75303204916417598724365234375" lon="6.914403922855854034423828125">
        <ele>410</ele>
        <time>2013-09-01T16:22:52.000Z</time>
        <extensions>
          <ns3:TrackPointExtension>
            <ns3:atemp>16.0</ns3:atemp>
          </ns3:TrackPointExtension>
        </extensions>
      </trkpt>
      <trkpt lat="46.7530168779194355010986328125" lon="6.9143745861947536468505859375">
        <ele>410.20001220703125</ele>
        <time>2013-09-01T16:22:53.000Z</time>
        <extensions>
          <ns3:TrackPointExtension>
            <ns3:atemp>16.0</ns3:atemp>
          </ns3:TrackPointExtension>
        </extensions>
      </trkpt>
      <trkpt lat="46.75300740636885166168212890625" lon="6.91433309577405452728271484375">
        <ele>410.399993896484375</ele>
        <time>2013-09-01T16:22:54.000Z</time>
        <extensions>
          <ns3:TrackPointExtension>
            <ns3:atemp>16.0</ns3:atemp>
          </ns3:TrackPointExtension>
        </extensions>
      </trkpt>
      <trkpt lat="46.75299164839088916778564453125" lon="6.914288587868213653564453125">
        <ele>410.600006103515625</ele>
        <time>2013-09-01T16:22:55.000Z</time>
        <extensions>
          <ns3:TrackPointExtension>
            <ns3:atemp>16.0</ns3:atemp>
          </ns3:TrackPointExtension>
        </extensions>
      </trkpt>
      <trkpt lat="46.752982847392559051513671875" lon="6.91424340941011905670166015625">
        <ele>410.600006103515625</ele>
        <time>2013-09-01T16:22:56.000Z</time>
        <extensions>
          <ns3:TrackPointExtension>
            <ns3:atemp>16.0</ns3:atemp>
          </ns3:TrackPointExtension>
        </extensions>
      </trkpt>
      <trkpt lat="46.7529729567468166351318359375" lon="6.91419043578207492828369140625">
        <ele>411</ele>
        <time>2013-09-01T16:22:57.000Z</time>
        <extensions>
          <ns3:TrackPointExtension>
            <ns3:atemp>16.0</ns3:atemp>
          </ns3:TrackPointExtension>
        </extensions>
      </trkpt>
      <trkpt lat="46.75296465866267681121826171875" lon="6.91413327120244503021240234375">
        <ele>411.20001220703125</ele>
        <time>2013-09-01T16:22:58.000Z</time>
        <extensions>
          <ns3:TrackPointExtension>
            <ns3:atemp>16.0</ns3:atemp>
          </ns3:TrackPointExtension>
        </extensions>
      </trkpt>
      <trkpt lat="46.752972118556499481201171875" lon="6.91409253515303134918212890625">
        <ele>411.399993896484375</ele>
        <time>2013-09-01T16:22:59.000Z</time>
        <extensions>
          <ns3:TrackPointExtension>
            <ns3:atemp>16.0</ns3:atemp>
          </ns3:TrackPointExtension>
        </extensions>
      </trkpt>
      <trkpt lat="46.7529706098139286041259765625" lon="6.91405129618942737579345703125">
        <ele>411.600006103515625</ele>
        <time>2013-09-01T16:23:00.000Z</time>
        <extensions>
          <ns3:TrackPointExtension>
            <ns3:atemp>16.0</ns3:atemp>
          </ns3:TrackPointExtension>
        </extensions>
      </trkpt>
      <trkpt lat="46.752968765795230865478515625" lon="6.91400636918842792510986328125">
        <ele>411.600006103515625</ele>
        <time>2013-09-01T16:23:01.000Z</time>
        <extensions>
          <ns3:TrackPointExtension>
            <ns3:atemp>16.0</ns3:atemp>
          </ns3:TrackPointExtension>
        </extensions>
      </trkpt>
      <trkpt lat="46.75296641886234283447265625" lon="6.9139450974762439727783203125">
        <ele>411.20001220703125</ele>
        <time>2013-09-01T16:23:02.000Z</time>
        <extensions>
          <ns3:TrackPointExtension>
            <ns3:atemp>16.0</ns3:atemp>
          </ns3:TrackPointExtension>
        </extensions>
      </trkpt>
      <trkpt lat="46.75295527093112468719482421875" lon="6.91389195621013641357421875">
        <ele>411.20001220703125</ele>
        <time>2013-09-01T16:23:03.000Z</time>
        <extensions>
          <ns3:TrackPointExtension>
            <ns3:atemp>16.0</ns3:atemp>
          </ns3:TrackPointExtension>
        </extensions>
      </trkpt>
      <trkpt lat="46.75293515436351299285888671875" lon="6.913845352828502655029296875">
        <ele>411</ele>
        <time>2013-09-01T16:23:04.000Z</time>
        <extensions>
          <ns3:TrackPointExtension>
            <ns3:atemp>16.0</ns3:atemp>
          </ns3:TrackPointExtension>
        </extensions>
      </trkpt>
      <trkpt lat="46.75291889347136020660400390625" lon="6.91379179246723651885986328125">
        <ele>410.79998779296875</ele>
        <time>2013-09-01T16:23:05.000Z</time>
        <extensions>
          <ns3:TrackPointExtension>
            <ns3:atemp>16.0</ns3:atemp>
          </ns3:TrackPointExtension>
        </extensions>
      </trkpt>
      <trkpt lat="46.752897687256336212158203125" lon="6.9137295149266719818115234375">
        <ele>410.600006103515625</ele>
        <time>2013-09-01T16:23:06.000Z</time>
        <extensions>
          <ns3:TrackPointExtension>
            <ns3:atemp>16.0</ns3:atemp>
          </ns3:TrackPointExtension>
        </extensions>
      </trkpt>
      <trkpt lat="46.7528820969164371490478515625" lon="6.91364745609462261199951171875">
        <ele>409.79998779296875</ele>
        <time>2013-09-01T16:23:07.000Z</time>
        <extensions>
          <ns3:TrackPointExtension>
            <ns3:atemp>16.0</ns3:atemp>
          </ns3:TrackPointExtension>
        </extensions>
      </trkpt>
      <trkpt lat="46.752879582345485687255859375" lon="6.91354888491332530975341796875">
        <ele>409.399993896484375</ele>
        <time>2013-09-01T16:23:08.000Z</time>
        <extensions>
          <ns3:TrackPointExtension>
            <ns3:atemp>16.0</ns3:atemp>
          </ns3:TrackPointExtension>
        </extensions>
      </trkpt>
      <trkpt lat="46.75287120044231414794921875" lon="6.9134515710175037384033203125">
        <ele>408.79998779296875</ele>
        <time>2013-09-01T16:23:09.000Z</time>
        <extensions>
          <ns3:TrackPointExtension>
            <ns3:atemp>16.0</ns3:atemp>
          </ns3:TrackPointExtension>
        </extensions>
      </trkpt>
      <trkpt lat="46.752858795225620269775390625" lon="6.91335090436041355133056640625">
        <ele>408.600006103515625</ele>
        <time>2013-09-01T16:23:10.000Z</time>
        <extensions>
          <ns3:TrackPointExtension>
            <ns3:atemp>16.0</ns3:atemp>
          </ns3:TrackPointExtension>
        </extensions>
      </trkpt>
      <trkpt lat="46.7528398521244525909423828125" lon="6.91325015388429164886474609375">
        <ele>408.20001220703125</ele>
        <time>2013-09-01T16:23:11.000Z</time>
        <extensions>
          <ns3:TrackPointExtension>
            <ns3:atemp>16.0</ns3:atemp>
          </ns3:TrackPointExtension>
        </extensions>
      </trkpt>
      <trkpt lat="46.75281847827136516571044921875" lon="6.91314940340816974639892578125">
        <ele>407.399993896484375</ele>
        <time>2013-09-01T16:23:12.000Z</time>
        <extensions>
          <ns3:TrackPointExtension>
            <ns3:atemp>16.0</ns3:atemp>
          </ns3:TrackPointExtension>
        </extensions>
      </trkpt>
      <trkpt lat="46.75279249437153339385986328125" lon="6.91304580308496952056884765625">
        <ele>406.79998779296875</ele>
        <time>2013-09-01T16:23:13.000Z</time>
        <extensions>
          <ns3:TrackPointExtension>
            <ns3:atemp>16.0</ns3:atemp>
          </ns3:TrackPointExtension>
        </extensions>
      </trkpt>
      <trkpt lat="46.75277254544198513031005859375" lon="6.9129603914916515350341796875">
        <ele>406.20001220703125</ele>
        <time>2013-09-01T16:23:14.000Z</time>
        <extensions>
          <ns3:TrackPointExtension>
            <ns3:atemp>16.0</ns3:atemp>
          </ns3:TrackPointExtension>
        </extensions>
      </trkpt>
      <trkpt lat="46.75273415632545948028564453125" lon="6.91287539899349212646484375">
        <ele>406</ele>
        <time>2013-09-01T16:23:15.000Z</time>
        <extensions>
          <ns3:TrackPointExtension>
            <ns3:atemp>16.0</ns3:atemp>
          </ns3:TrackPointExtension>
        </extensions>
      </trkpt>
      <trkpt lat="46.75269694067537784576416015625" lon="6.9128185696899890899658203125">
        <ele>405.79998779296875</ele>
        <time>2013-09-01T16:23:16.000Z</time>
        <extensions>
          <ns3:TrackPointExtension>
            <ns3:atemp>16.0</ns3:atemp>
          </ns3:TrackPointExtension>
        </extensions>
      </trkpt>
      <trkpt lat="46.75265930593013763427734375" lon="6.9127615727484226226806640625">
        <ele>405.79998779296875</ele>
        <time>2013-09-01T16:23:17.000Z</time>
        <extensions>
          <ns3:TrackPointExtension>
            <ns3:atemp>16.0</ns3:atemp>
          </ns3:TrackPointExtension>
        </extensions>
      </trkpt>
      <trkpt lat="46.75261882133781909942626953125" lon="6.91271438263356685638427734375">
        <ele>405.79998779296875</ele>
        <time>2013-09-01T16:23:18.000Z</time>
        <extensions>
          <ns3:TrackPointExtension>
            <ns3:atemp>16.0</ns3:atemp>
          </ns3:TrackPointExtension>
        </extensions>
      </trkpt>
      <trkpt lat="46.75257959403097629547119140625" lon="6.91267046146094799041748046875">
        <ele>406</ele>
        <time>2013-09-01T16:23:19.000Z</time>
        <extensions>
          <ns3:TrackPointExtension>
            <ns3:atemp>16.0</ns3:atemp>
          </ns3:TrackPointExtension>
        </extensions>
      </trkpt>
      <trkpt lat="46.7525446414947509765625" lon="6.91261656582355499267578125">
        <ele>406</ele>
        <time>2013-09-01T16:23:20.000Z</time>
        <extensions>
          <ns3:TrackPointExtension>
            <ns3:atemp>16.0</ns3:atemp>
          </ns3:TrackPointExtension>
        </extensions>
      </trkpt>
      <trkpt lat="46.7525226809084415435791015625" lon="6.91254406236112117767333984375">
        <ele>405.79998779296875</ele>
        <time>2013-09-01T16:23:21.000Z</time>
        <extensions>
          <ns3:TrackPointExtension>
            <ns3:atemp>16.0</ns3:atemp>
          </ns3:TrackPointExtension>
        </extensions>
      </trkpt>
      <trkpt lat="46.75249845720827579498291015625" lon="6.91248136572539806365966796875">
        <ele>406</ele>
        <time>2013-09-01T16:23:22.000Z</time>
        <extensions>
          <ns3:TrackPointExtension>
            <ns3:atemp>16.0</ns3:atemp>
          </ns3:TrackPointExtension>
        </extensions>
      </trkpt>
      <trkpt lat="46.752462498843669891357421875" lon="6.91232915036380290985107421875">
        <ele>406</ele>
        <time>2013-09-01T16:23:24.000Z</time>
        <extensions>
          <ns3:TrackPointExtension>
            <ns3:atemp>16.0</ns3:atemp>
          </ns3:TrackPointExtension>
        </extensions>
      </trkpt>
      <trkpt lat="46.7524499259889125823974609375" lon="6.9122385419905185699462890625">
        <ele>406</ele>
        <time>2013-09-01T16:23:25.000Z</time>
        <extensions>
          <ns3:TrackPointExtension>
            <ns3:atemp>16.0</ns3:atemp>
          </ns3:TrackPointExtension>
        </extensions>
      </trkpt>
      <trkpt lat="46.7524355091154575347900390625" lon="6.9121424853801727294921875">
        <ele>406</ele>
        <time>2013-09-01T16:23:26.000Z</time>
        <extensions>
          <ns3:TrackPointExtension>
            <ns3:atemp>16.0</ns3:atemp>
          </ns3:TrackPointExtension>
        </extensions>
      </trkpt>
      <trkpt lat="46.7524231038987636566162109375" lon="6.91203611902892589569091796875">
        <ele>406</ele>
        <time>2013-09-01T16:23:27.000Z</time>
        <extensions>
          <ns3:TrackPointExtension>
            <ns3:atemp>16.0</ns3:atemp>
          </ns3:TrackPointExtension>
        </extensions>
      </trkpt>
      <trkpt lat="46.752418577671051025390625" lon="6.9119320996105670928955078125">
        <ele>405.79998779296875</ele>
        <time>2013-09-01T16:23:28.000Z</time>
        <extensions>
          <ns3:TrackPointExtension>
            <ns3:atemp>16.0</ns3:atemp>
          </ns3:TrackPointExtension>
        </extensions>
      </trkpt>
      <trkpt lat="46.7524167336523532867431640625" lon="6.9118274934589862823486328125">
        <ele>405.79998779296875</ele>
        <time>2013-09-01T16:23:29.000Z</time>
        <extensions>
          <ns3:TrackPointExtension>
            <ns3:atemp>16.0</ns3:atemp>
          </ns3:TrackPointExtension>
        </extensions>
      </trkpt>
      <trkpt lat="46.75241983495652675628662109375" lon="6.91172732971608638763427734375">
        <ele>405.79998779296875</ele>
        <time>2013-09-01T16:23:30.000Z</time>
        <extensions>
          <ns3:TrackPointExtension>
            <ns3:atemp>16.0</ns3:atemp>
          </ns3:TrackPointExtension>
        </extensions>
      </trkpt>
      <trkpt lat="46.752424277365207672119140625" lon="6.91164434887468814849853515625">
        <ele>406</ele>
        <time>2013-09-01T16:23:31.000Z</time>
        <extensions>
          <ns3:TrackPointExtension>
            <ns3:atemp>16.0</ns3:atemp>
          </ns3:TrackPointExtension>
        </extensions>
      </trkpt>
      <trkpt lat="46.75242838449776172637939453125" lon="6.91156891174614429473876953125">
        <ele>406.20001220703125</ele>
        <time>2013-09-01T16:23:32.000Z</time>
        <extensions>
          <ns3:TrackPointExtension>
            <ns3:atemp>16.0</ns3:atemp>
          </ns3:TrackPointExtension>
        </extensions>
      </trkpt>
      <trkpt lat="46.752426624298095703125" lon="6.9114868529140949249267578125">
        <ele>406.20001220703125</ele>
        <time>2013-09-01T16:23:33.000Z</time>
        <extensions>
          <ns3:TrackPointExtension>
            <ns3:atemp>16.0</ns3:atemp>
          </ns3:TrackPointExtension>
        </extensions>
      </trkpt>
      <trkpt lat="46.7524220980703830718994140625" lon="6.9113976694643497467041015625">
        <ele>406.20001220703125</ele>
        <time>2013-09-01T16:23:34.000Z</time>
        <extensions>
          <ns3:TrackPointExtension>
            <ns3:atemp>16.0</ns3:atemp>
          </ns3:TrackPointExtension>
        </extensions>
      </trkpt>
      <trkpt lat="46.75241061486303806304931640625" lon="6.91130521707236766815185546875">
        <ele>406</ele>
        <time>2013-09-01T16:23:35.000Z</time>
        <extensions>
          <ns3:TrackPointExtension>
            <ns3:atemp>16.0</ns3:atemp>
          </ns3:TrackPointExtension>
        </extensions>
      </trkpt>
      <trkpt lat="46.75239921547472476959228515625" lon="6.91120815463364124298095703125">
        <ele>405.79998779296875</ele>
        <time>2013-09-01T16:23:36.000Z</time>
        <extensions>
          <ns3:TrackPointExtension>
            <ns3:atemp>16.0</ns3:atemp>
          </ns3:TrackPointExtension>
        </extensions>
      </trkpt>
      <trkpt lat="46.75238429568707942962646484375" lon="6.9111053086817264556884765625">
        <ele>406</ele>
        <time>2013-09-01T16:23:37.000Z</time>
        <extensions>
          <ns3:TrackPointExtension>
            <ns3:atemp>16.0</ns3:atemp>
          </ns3:TrackPointExtension>
        </extensions>
      </trkpt>
      <trkpt lat="46.7523662745952606201171875" lon="6.910998523235321044921875">
        <ele>405.79998779296875</ele>
        <time>2013-09-01T16:23:38.000Z</time>
        <extensions>
          <ns3:TrackPointExtension>
            <ns3:atemp>16.0</ns3:atemp>
          </ns3:TrackPointExtension>
        </extensions>
      </trkpt>
      <trkpt lat="46.7523503489792346954345703125" lon="6.91089634783565998077392578125">
        <ele>405.79998779296875</ele>
        <time>2013-09-01T16:23:39.000Z</time>
        <extensions>
          <ns3:TrackPointExtension>
            <ns3:atemp>16.0</ns3:atemp>
          </ns3:TrackPointExtension>
        </extensions>
      </trkpt>
      <trkpt lat="46.75233668647706508636474609375" lon="6.9107928313314914703369140625">
        <ele>405.600006103515625</ele>
        <time>2013-09-01T16:23:40.000Z</time>
        <extensions>
          <ns3:TrackPointExtension>
            <ns3:atemp>16.0</ns3:atemp>
          </ns3:TrackPointExtension>
        </extensions>
      </trkpt>
      <trkpt lat="46.7523288913071155548095703125" lon="6.9106909073889255523681640625">
        <ele>405.399993896484375</ele>
        <time>2013-09-01T16:23:41.000Z</time>
        <extensions>
          <ns3:TrackPointExtension>
            <ns3:atemp>16.0</ns3:atemp>
          </ns3:TrackPointExtension>
        </extensions>
      </trkpt>
      <trkpt lat="46.75233744084835052490234375" lon="6.91057833842933177947998046875">
        <ele>405.399993896484375</ele>
        <time>2013-09-01T16:23:42.000Z</time>
        <extensions>
          <ns3:TrackPointExtension>
            <ns3:atemp>16.0</ns3:atemp>
          </ns3:TrackPointExtension>
        </extensions>
      </trkpt>
      <trkpt lat="46.75234280526638031005859375" lon="6.910473816096782684326171875">
        <ele>405.20001220703125</ele>
        <time>2013-09-01T16:23:43.000Z</time>
        <extensions>
          <ns3:TrackPointExtension>
            <ns3:atemp>16.0</ns3:atemp>
          </ns3:TrackPointExtension>
        </extensions>
      </trkpt>
      <trkpt lat="46.75234288908541202545166015625" lon="6.91037289798259735107421875">
        <ele>405.20001220703125</ele>
        <time>2013-09-01T16:23:44.000Z</time>
        <extensions>
          <ns3:TrackPointExtension>
            <ns3:atemp>16.0</ns3:atemp>
          </ns3:TrackPointExtension>
        </extensions>
      </trkpt>
      <trkpt lat="46.75232495181262493133544921875" lon="6.9102823734283447265625">
        <ele>405</ele>
        <time>2013-09-01T16:23:45.000Z</time>
        <extensions>
          <ns3:TrackPointExtension>
            <ns3:atemp>16.0</ns3:atemp>
          </ns3:TrackPointExtension>
        </extensions>
      </trkpt>
      <trkpt lat="46.75228874199092388153076171875" lon="6.91020249389111995697021484375">
        <ele>405</ele>
        <time>2013-09-01T16:23:46.000Z</time>
        <extensions>
          <ns3:TrackPointExtension>
            <ns3:atemp>16.0</ns3:atemp>
          </ns3:TrackPointExtension>
        </extensions>
      </trkpt>
      <trkpt lat="46.75223895348608493804931640625" lon="6.91014222800731658935546875">
        <ele>405</ele>
        <time>2013-09-01T16:23:47.000Z</time>
        <extensions>
          <ns3:TrackPointExtension>
            <ns3:atemp>16.0</ns3:atemp>
          </ns3:TrackPointExtension>
        </extensions>
      </trkpt>
      <trkpt lat="46.75218857824802398681640625" lon="6.910080201923847198486328125">
        <ele>405</ele>
        <time>2013-09-01T16:23:48.000Z</time>
        <extensions>
          <ns3:TrackPointExtension>
            <ns3:atemp>16.0</ns3:atemp>
          </ns3:TrackPointExtension>
        </extensions>
      </trkpt>
      <trkpt lat="46.75214356742799282073974609375" lon="6.9100196845829486846923828125">
        <ele>405.20001220703125</ele>
        <time>2013-09-01T16:23:49.000Z</time>
        <extensions>
          <ns3:TrackPointExtension>
            <ns3:atemp>16.0</ns3:atemp>
          </ns3:TrackPointExtension>
        </extensions>
      </trkpt>
      <trkpt lat="46.75211054272949695587158203125" lon="6.90995070151984691619873046875">
        <ele>405.399993896484375</ele>
        <time>2013-09-01T16:23:50.000Z</time>
        <extensions>
          <ns3:TrackPointExtension>
            <ns3:atemp>16.0</ns3:atemp>
          </ns3:TrackPointExtension>
        </extensions>
      </trkpt>
      <trkpt lat="46.75209159962832927703857421875" lon="6.909868977963924407958984375">
        <ele>405.399993896484375</ele>
        <time>2013-09-01T16:23:51.000Z</time>
        <extensions>
          <ns3:TrackPointExtension>
            <ns3:atemp>16.0</ns3:atemp>
          </ns3:TrackPointExtension>
        </extensions>
      </trkpt>
      <trkpt lat="46.75207936204969882965087890625" lon="6.9097802974283695220947265625">
        <ele>405.399993896484375</ele>
        <time>2013-09-01T16:23:52.000Z</time>
        <extensions>
          <ns3:TrackPointExtension>
            <ns3:atemp>16.0</ns3:atemp>
          </ns3:TrackPointExtension>
        </extensions>
      </trkpt>
      <trkpt lat="46.75207215361297130584716796875" lon="6.90968683920800685882568359375">
        <ele>405.399993896484375</ele>
        <time>2013-09-01T16:23:53.000Z</time>
        <extensions>
          <ns3:TrackPointExtension>
            <ns3:atemp>16.0</ns3:atemp>
          </ns3:TrackPointExtension>
        </extensions>
      </trkpt>
      <trkpt lat="46.7520747520029544830322265625" lon="6.9095955602824687957763671875">
        <ele>405.399993896484375</ele>
        <time>2013-09-01T16:23:54.000Z</time>
        <extensions>
          <ns3:TrackPointExtension>
            <ns3:atemp>16.0</ns3:atemp>
          </ns3:TrackPointExtension>
        </extensions>
      </trkpt>
      <trkpt lat="46.752077601850032806396484375" lon="6.90950277261435985565185546875">
        <ele>405.399993896484375</ele>
        <time>2013-09-01T16:23:55.000Z</time>
        <extensions>
          <ns3:TrackPointExtension>
            <ns3:atemp>16.0</ns3:atemp>
          </ns3:TrackPointExtension>
        </extensions>
      </trkpt>
      <trkpt lat="46.752094365656375885009765625" lon="6.909426413476467132568359375">
        <ele>405.600006103515625</ele>
        <time>2013-09-01T16:23:56.000Z</time>
        <extensions>
          <ns3:TrackPointExtension>
            <ns3:atemp>16.0</ns3:atemp>
          </ns3:TrackPointExtension>
        </extensions>
      </trkpt>
      <trkpt lat="46.7521159909665584564208984375" lon="6.90935508348047733306884765625">
        <ele>405.600006103515625</ele>
        <time>2013-09-01T16:23:57.000Z</time>
        <extensions>
          <ns3:TrackPointExtension>
            <ns3:atemp>16.0</ns3:atemp>
          </ns3:TrackPointExtension>
        </extensions>
      </trkpt>
      <trkpt lat="46.7521448247134685516357421875" lon="6.9092871062457561492919921875">
        <ele>406</ele>
        <time>2013-09-01T16:23:58.000Z</time>
        <extensions>
          <ns3:TrackPointExtension>
            <ns3:atemp>16.0</ns3:atemp>
          </ns3:TrackPointExtension>
        </extensions>
      </trkpt>
      <trkpt lat="46.75217558629810810089111328125" lon="6.9092291034758090972900390625">
        <ele>406</ele>
        <time>2013-09-01T16:23:59.000Z</time>
        <extensions>
          <ns3:TrackPointExtension>
            <ns3:atemp>16.0</ns3:atemp>
          </ns3:TrackPointExtension>
        </extensions>
      </trkpt>
      <trkpt lat="46.75220659933984279632568359375" lon="6.909157522022724151611328125">
        <ele>406</ele>
        <time>2013-09-01T16:24:00.000Z</time>
        <extensions>
          <ns3:TrackPointExtension>
            <ns3:atemp>16.0</ns3:atemp>
          </ns3:TrackPointExtension>
        </extensions>
      </trkpt>
      <trkpt lat="46.752229146659374237060546875" lon="6.90907873213291168212890625">
        <ele>406</ele>
        <time>2013-09-01T16:24:01.000Z</time>
        <extensions>
          <ns3:TrackPointExtension>
            <ns3:atemp>16.0</ns3:atemp>
          </ns3:TrackPointExtension>
        </extensions>
      </trkpt>
      <trkpt lat="46.7522400431334972381591796875" lon="6.90899549983441829681396484375">
        <ele>406.20001220703125</ele>
        <time>2013-09-01T16:24:02.000Z</time>
        <extensions>
          <ns3:TrackPointExtension>
            <ns3:atemp>16.0</ns3:atemp>
          </ns3:TrackPointExtension>
        </extensions>
      </trkpt>
      <trkpt lat="46.75224632956087589263916015625" lon="6.90890212543308734893798828125">
        <ele>406.20001220703125</ele>
        <time>2013-09-01T16:24:03.000Z</time>
        <extensions>
          <ns3:TrackPointExtension>
            <ns3:atemp>16.0</ns3:atemp>
          </ns3:TrackPointExtension>
        </extensions>
      </trkpt>
      <trkpt lat="46.75226074643433094024658203125" lon="6.90880740992724895477294921875">
        <ele>405.79998779296875</ele>
        <time>2013-09-01T16:24:04.000Z</time>
        <extensions>
          <ns3:TrackPointExtension>
            <ns3:atemp>16.0</ns3:atemp>
          </ns3:TrackPointExtension>
        </extensions>
      </trkpt>
      <trkpt lat="46.7522839643061161041259765625" lon="6.908714286983013153076171875">
        <ele>405.600006103515625</ele>
        <time>2013-09-01T16:24:05.000Z</time>
        <extensions>
          <ns3:TrackPointExtension>
            <ns3:atemp>16.0</ns3:atemp>
          </ns3:TrackPointExtension>
        </extensions>
      </trkpt>
      <trkpt lat="46.75230533815920352935791015625" lon="6.9086246006190776824951171875">
        <ele>405.600006103515625</ele>
        <time>2013-09-01T16:24:06.000Z</time>
        <extensions>
          <ns3:TrackPointExtension>
            <ns3:atemp>16.0</ns3:atemp>
          </ns3:TrackPointExtension>
        </extensions>
      </trkpt>
      <trkpt lat="46.75234003923833370208740234375" lon="6.90853198058903217315673828125">
        <ele>405.600006103515625</ele>
        <time>2013-09-01T16:24:07.000Z</time>
        <extensions>
          <ns3:TrackPointExtension>
            <ns3:atemp>16.0</ns3:atemp>
          </ns3:TrackPointExtension>
        </extensions>
      </trkpt>
      <trkpt lat="46.75237423740327358245849609375" lon="6.90844581462442874908447265625">
        <ele>405.600006103515625</ele>
        <time>2013-09-01T16:24:08.000Z</time>
        <extensions>
          <ns3:TrackPointExtension>
            <ns3:atemp>16.0</ns3:atemp>
          </ns3:TrackPointExtension>
        </extensions>
      </trkpt>
      <trkpt lat="46.7524106986820697784423828125" lon="6.90836467780172824859619140625">
        <ele>405.399993896484375</ele>
        <time>2013-09-01T16:24:09.000Z</time>
        <extensions>
          <ns3:TrackPointExtension>
            <ns3:atemp>16.0</ns3:atemp>
          </ns3:TrackPointExtension>
        </extensions>
      </trkpt>
      <trkpt lat="46.75244632177054882049560546875" lon="6.90828572027385234832763671875">
        <ele>405.600006103515625</ele>
        <time>2013-09-01T16:24:10.000Z</time>
        <extensions>
          <ns3:TrackPointExtension>
            <ns3:atemp>16.0</ns3:atemp>
          </ns3:TrackPointExtension>
        </extensions>
      </trkpt>
      <trkpt lat="46.752488650381565093994140625" lon="6.9082028232514858245849609375">
        <ele>405.399993896484375</ele>
        <time>2013-09-01T16:24:11.000Z</time>
        <extensions>
          <ns3:TrackPointExtension>
            <ns3:atemp>16.0</ns3:atemp>
          </ns3:TrackPointExtension>
        </extensions>
      </trkpt>
      <trkpt lat="46.75253055989742279052734375" lon="6.90812763758003711700439453125">
        <ele>405.600006103515625</ele>
        <time>2013-09-01T16:24:12.000Z</time>
        <extensions>
          <ns3:TrackPointExtension>
            <ns3:atemp>16.0</ns3:atemp>
          </ns3:TrackPointExtension>
        </extensions>
      </trkpt>
      <trkpt lat="46.75256920047104358673095703125" lon="6.9080532900989055633544921875">
        <ele>405.399993896484375</ele>
        <time>2013-09-01T16:24:13.000Z</time>
        <extensions>
          <ns3:TrackPointExtension>
            <ns3:atemp>16.0</ns3:atemp>
          </ns3:TrackPointExtension>
        </extensions>
      </trkpt>
      <trkpt lat="46.75260926596820354461669921875" lon="6.90798497758805751800537109375">
        <ele>405.399993896484375</ele>
        <time>2013-09-01T16:24:14.000Z</time>
        <extensions>
          <ns3:TrackPointExtension>
            <ns3:atemp>16.0</ns3:atemp>
          </ns3:TrackPointExtension>
        </extensions>
      </trkpt>
      <trkpt lat="46.752653606235980987548828125" lon="6.90791524015367031097412109375">
        <ele>405.20001220703125</ele>
        <time>2013-09-01T16:24:15.000Z</time>
        <extensions>
          <ns3:TrackPointExtension>
            <ns3:atemp>16.0</ns3:atemp>
          </ns3:TrackPointExtension>
        </extensions>
      </trkpt>
      <trkpt lat="46.75269777886569499969482421875" lon="6.90784952603280544281005859375">
        <ele>405.20001220703125</ele>
        <time>2013-09-01T16:24:16.000Z</time>
        <extensions>
          <ns3:TrackPointExtension>
            <ns3:atemp>16.0</ns3:atemp>
          </ns3:TrackPointExtension>
        </extensions>
      </trkpt>
      <trkpt lat="46.75274672918021678924560546875" lon="6.90778431482613086700439453125">
        <ele>405</ele>
        <time>2013-09-01T16:24:17.000Z</time>
        <extensions>
          <ns3:TrackPointExtension>
            <ns3:atemp>16.0</ns3:atemp>
          </ns3:TrackPointExtension>
        </extensions>
      </trkpt>
      <trkpt lat="46.752793751657009124755859375" lon="6.9077222049236297607421875">
        <ele>405</ele>
        <time>2013-09-01T16:24:18.000Z</time>
        <extensions>
          <ns3:TrackPointExtension>
            <ns3:atemp>16.0</ns3:atemp>
          </ns3:TrackPointExtension>
        </extensions>
      </trkpt>
      <trkpt lat="46.7528490722179412841796875" lon="6.90766529180109500885009765625">
        <ele>405</ele>
        <time>2013-09-01T16:24:19.000Z</time>
        <extensions>
          <ns3:TrackPointExtension>
            <ns3:atemp>16.0</ns3:atemp>
          </ns3:TrackPointExtension>
        </extensions>
      </trkpt>
      <trkpt lat="46.752898693084716796875" lon="6.907613910734653472900390625">
        <ele>404.79998779296875</ele>
        <time>2013-09-01T16:24:20.000Z</time>
        <extensions>
          <ns3:TrackPointExtension>
            <ns3:atemp>16.0</ns3:atemp>
          </ns3:TrackPointExtension>
        </extensions>
      </trkpt>
      <trkpt lat="46.7529457993805408477783203125" lon="6.90754995681345462799072265625">
        <ele>405</ele>
        <time>2013-09-01T16:24:21.000Z</time>
        <extensions>
          <ns3:TrackPointExtension>
            <ns3:atemp>16.0</ns3:atemp>
          </ns3:TrackPointExtension>
        </extensions>
      </trkpt>
      <trkpt lat="46.75298527814447879791259765625" lon="6.90747736953198909759521484375">
        <ele>405</ele>
        <time>2013-09-01T16:24:22.000Z</time>
        <extensions>
          <ns3:TrackPointExtension>
            <ns3:atemp>16.0</ns3:atemp>
          </ns3:TrackPointExtension>
        </extensions>
      </trkpt>
      <trkpt lat="46.75302735529839992523193359375" lon="6.9074018485844135284423828125">
        <ele>404.79998779296875</ele>
        <time>2013-09-01T16:24:23.000Z</time>
        <extensions>
          <ns3:TrackPointExtension>
            <ns3:atemp>16.0</ns3:atemp>
          </ns3:TrackPointExtension>
        </extensions>
      </trkpt>
      <trkpt lat="46.753067672252655029296875" lon="6.90732188522815704345703125">
        <ele>404.79998779296875</ele>
        <time>2013-09-01T16:24:24.000Z</time>
        <extensions>
          <ns3:TrackPointExtension>
            <ns3:atemp>16.0</ns3:atemp>
          </ns3:TrackPointExtension>
        </extensions>
      </trkpt>
      <trkpt lat="46.753108240664005279541015625" lon="6.90724167041480541229248046875">
        <ele>404.600006103515625</ele>
        <time>2013-09-01T16:24:25.000Z</time>
        <extensions>
          <ns3:TrackPointExtension>
            <ns3:atemp>16.0</ns3:atemp>
          </ns3:TrackPointExtension>
        </extensions>
      </trkpt>
      <trkpt lat="46.7531546764075756072998046875" lon="6.907157264649868011474609375">
        <ele>404.600006103515625</ele>
        <time>2013-09-01T16:24:26.000Z</time>
        <extensions>
          <ns3:TrackPointExtension>
            <ns3:atemp>16.0</ns3:atemp>
          </ns3:TrackPointExtension>
        </extensions>
      </trkpt>
      <trkpt lat="46.75319063477218151092529296875" lon="6.90708342008292675018310546875">
        <ele>404.79998779296875</ele>
        <time>2013-09-01T16:24:27.000Z</time>
        <extensions>
          <ns3:TrackPointExtension>
            <ns3:atemp>16.0</ns3:atemp>
          </ns3:TrackPointExtension>
        </extensions>
      </trkpt>
      <trkpt lat="46.753228940069675445556640625" lon="6.90700471401214599609375">
        <ele>404.79998779296875</ele>
        <time>2013-09-01T16:24:28.000Z</time>
        <extensions>
          <ns3:TrackPointExtension>
            <ns3:atemp>16.0</ns3:atemp>
          </ns3:TrackPointExtension>
        </extensions>
      </trkpt>
      <trkpt lat="46.75326682627201080322265625" lon="6.90692231990396976470947265625">
        <ele>404.79998779296875</ele>
        <time>2013-09-01T16:24:29.000Z</time>
        <extensions>
          <ns3:TrackPointExtension>
            <ns3:atemp>16.0</ns3:atemp>
          </ns3:TrackPointExtension>
        </extensions>
      </trkpt>
      <trkpt lat="46.75329993478953838348388671875" lon="6.90684051252901554107666015625">
        <ele>404.600006103515625</ele>
        <time>2013-09-01T16:24:30.000Z</time>
        <extensions>
          <ns3:TrackPointExtension>
            <ns3:atemp>16.0</ns3:atemp>
          </ns3:TrackPointExtension>
        </extensions>
      </trkpt>
      <trkpt lat="46.7533357255160808563232421875" lon="6.90676054917275905609130859375">
        <ele>404.600006103515625</ele>
        <time>2013-09-01T16:24:31.000Z</time>
        <extensions>
          <ns3:TrackPointExtension>
            <ns3:atemp>16.0</ns3:atemp>
          </ns3:TrackPointExtension>
        </extensions>
      </trkpt>
      <trkpt lat="46.75336606800556182861328125" lon="6.9066783227026462554931640625">
        <ele>404.399993896484375</ele>
        <time>2013-09-01T16:24:32.000Z</time>
        <extensions>
          <ns3:TrackPointExtension>
            <ns3:atemp>16.0</ns3:atemp>
          </ns3:TrackPointExtension>
        </extensions>
      </trkpt>
      <trkpt lat="46.753381825983524322509765625" lon="6.90659425221383571624755859375">
        <ele>404.399993896484375</ele>
        <time>2013-09-01T16:24:33.000Z</time>
        <extensions>
          <ns3:TrackPointExtension>
            <ns3:atemp>16.0</ns3:atemp>
          </ns3:TrackPointExtension>
        </extensions>
      </trkpt>
      <trkpt lat="46.75340118817985057830810546875" lon="6.90650909207761287689208984375">
        <ele>404.399993896484375</ele>
        <time>2013-09-01T16:24:34.000Z</time>
        <extensions>
          <ns3:TrackPointExtension>
            <ns3:atemp>16.0</ns3:atemp>
          </ns3:TrackPointExtension>
        </extensions>
      </trkpt>
      <trkpt lat="46.7534148506820201873779296875" lon="6.90643549896776676177978515625">
        <ele>404.399993896484375</ele>
        <time>2013-09-01T16:24:35.000Z</time>
        <extensions>
          <ns3:TrackPointExtension>
            <ns3:atemp>16.0</ns3:atemp>
          </ns3:TrackPointExtension>
        </extensions>
      </trkpt>
      <trkpt lat="46.75342465750873088836669921875" lon="6.9063510932028293609619140625">
        <ele>404.20001220703125</ele>
        <time>2013-09-01T16:24:36.000Z</time>
        <extensions>
          <ns3:TrackPointExtension>
            <ns3:atemp>16.0</ns3:atemp>
          </ns3:TrackPointExtension>
        </extensions>
      </trkpt>
      <trkpt lat="46.75343714654445648193359375" lon="6.90625973045825958251953125">
        <ele>404.20001220703125</ele>
        <time>2013-09-01T16:24:37.000Z</time>
        <extensions>
          <ns3:TrackPointExtension>
            <ns3:atemp>16.0</ns3:atemp>
          </ns3:TrackPointExtension>
        </extensions>
      </trkpt>
      <trkpt lat="46.753452904522418975830078125" lon="6.9061718881130218505859375">
        <ele>404.20001220703125</ele>
        <time>2013-09-01T16:24:38.000Z</time>
        <extensions>
          <ns3:TrackPointExtension>
            <ns3:atemp>16.0</ns3:atemp>
          </ns3:TrackPointExtension>
        </extensions>
      </trkpt>
      <trkpt lat="46.753470003604888916015625" lon="6.90607876516878604888916015625">
        <ele>404.20001220703125</ele>
        <time>2013-09-01T16:24:39.000Z</time>
        <extensions>
          <ns3:TrackPointExtension>
            <ns3:atemp>16.0</ns3:atemp>
          </ns3:TrackPointExtension>
        </extensions>
      </trkpt>
      <trkpt lat="46.7534926347434520721435546875" lon="6.9059802778065204620361328125">
        <ele>403.79998779296875</ele>
        <time>2013-09-01T16:24:40.000Z</time>
        <extensions>
          <ns3:TrackPointExtension>
            <ns3:atemp>16.0</ns3:atemp>
          </ns3:TrackPointExtension>
        </extensions>
      </trkpt>
      <trkpt lat="46.753516606986522674560546875" lon="6.905883885920047760009765625">
        <ele>403.600006103515625</ele>
        <time>2013-09-01T16:24:41.000Z</time>
        <extensions>
          <ns3:TrackPointExtension>
            <ns3:atemp>16.0</ns3:atemp>
          </ns3:TrackPointExtension>
        </extensions>
      </trkpt>
      <trkpt lat="46.75353814847767353057861328125" lon="6.90578305162489414215087890625">
        <ele>403.399993896484375</ele>
        <time>2013-09-01T16:24:42.000Z</time>
        <extensions>
          <ns3:TrackPointExtension>
            <ns3:atemp>16.0</ns3:atemp>
          </ns3:TrackPointExtension>
        </extensions>
      </trkpt>
      <trkpt lat="46.75355709157884120941162109375" lon="6.90568045713007450103759765625">
        <ele>403.20001220703125</ele>
        <time>2013-09-01T16:24:43.000Z</time>
        <extensions>
          <ns3:TrackPointExtension>
            <ns3:atemp>16.0</ns3:atemp>
          </ns3:TrackPointExtension>
        </extensions>
      </trkpt>
      <trkpt lat="46.75358123145997524261474609375" lon="6.90558356232941150665283203125">
        <ele>403.20001220703125</ele>
        <time>2013-09-01T16:24:44.000Z</time>
        <extensions>
          <ns3:TrackPointExtension>
            <ns3:atemp>16.0</ns3:atemp>
          </ns3:TrackPointExtension>
        </extensions>
      </trkpt>
      <trkpt lat="46.753607131540775299072265625" lon="6.9054879248142242431640625">
        <ele>403.20001220703125</ele>
        <time>2013-09-01T16:24:45.000Z</time>
        <extensions>
          <ns3:TrackPointExtension>
            <ns3:atemp>16.0</ns3:atemp>
          </ns3:TrackPointExtension>
        </extensions>
      </trkpt>
      <trkpt lat="46.75363470800220966339111328125" lon="6.9053928740322589874267578125">
        <ele>403</ele>
        <time>2013-09-01T16:24:46.000Z</time>
        <extensions>
          <ns3:TrackPointExtension>
            <ns3:atemp>16.0</ns3:atemp>
          </ns3:TrackPointExtension>
        </extensions>
      </trkpt>
      <trkpt lat="46.75367225892841815948486328125" lon="6.9052946381270885467529296875">
        <ele>403.20001220703125</ele>
        <time>2013-09-01T16:24:47.000Z</time>
        <extensions>
          <ns3:TrackPointExtension>
            <ns3:atemp>16.0</ns3:atemp>
          </ns3:TrackPointExtension>
        </extensions>
      </trkpt>
      <trkpt lat="46.75370863638818264007568359375" lon="6.9052017666399478912353515625">
        <ele>402.79998779296875</ele>
        <time>2013-09-01T16:24:48.000Z</time>
        <extensions>
          <ns3:TrackPointExtension>
            <ns3:atemp>16.0</ns3:atemp>
          </ns3:TrackPointExtension>
        </extensions>
      </trkpt>
      <trkpt lat="46.753745935857295989990234375" lon="6.9051082246005535125732421875">
        <ele>402.79998779296875</ele>
        <time>2013-09-01T16:24:49.000Z</time>
        <extensions>
          <ns3:TrackPointExtension>
            <ns3:atemp>16.0</ns3:atemp>
          </ns3:TrackPointExtension>
        </extensions>
      </trkpt>
      <trkpt lat="46.75378658808767795562744140625" lon="6.90502147190272808074951171875">
        <ele>402.79998779296875</ele>
        <time>2013-09-01T16:24:50.000Z</time>
        <extensions>
          <ns3:TrackPointExtension>
            <ns3:atemp>16.0</ns3:atemp>
          </ns3:TrackPointExtension>
        </extensions>
      </trkpt>
      <trkpt lat="46.75383101217448711395263671875" lon="6.9049439392983913421630859375">
        <ele>402.600006103515625</ele>
        <time>2013-09-01T16:24:51.000Z</time>
        <extensions>
          <ns3:TrackPointExtension>
            <ns3:atemp>16.0</ns3:atemp>
          </ns3:TrackPointExtension>
        </extensions>
      </trkpt>
      <trkpt lat="46.75388247705996036529541015625" lon="6.90488132648169994354248046875">
        <ele>402.600006103515625</ele>
        <time>2013-09-01T16:24:52.000Z</time>
        <extensions>
          <ns3:TrackPointExtension>
            <ns3:atemp>16.0</ns3:atemp>
          </ns3:TrackPointExtension>
        </extensions>
      </trkpt>
      <trkpt lat="46.753937713801860809326171875" lon="6.90481544472277164459228515625">
        <ele>402.600006103515625</ele>
        <time>2013-09-01T16:24:53.000Z</time>
        <extensions>
          <ns3:TrackPointExtension>
            <ns3:atemp>16.0</ns3:atemp>
          </ns3:TrackPointExtension>
        </extensions>
      </trkpt>
      <trkpt lat="46.75398297607898712158203125" lon="6.904735900461673736572265625">
        <ele>402.600006103515625</ele>
        <time>2013-09-01T16:24:54.000Z</time>
        <extensions>
          <ns3:TrackPointExtension>
            <ns3:atemp>16.0</ns3:atemp>
          </ns3:TrackPointExtension>
        </extensions>
      </trkpt>
      <trkpt lat="46.75403133966028690338134765625" lon="6.90466155298054218292236328125">
        <ele>402.399993896484375</ele>
        <time>2013-09-01T16:24:55.000Z</time>
        <extensions>
          <ns3:TrackPointExtension>
            <ns3:atemp>16.0</ns3:atemp>
          </ns3:TrackPointExtension>
        </extensions>
      </trkpt>
      <trkpt lat="46.75407350063323974609375" lon="6.904585026204586029052734375">
        <ele>402.600006103515625</ele>
        <time>2013-09-01T16:24:56.000Z</time>
        <extensions>
          <ns3:TrackPointExtension>
            <ns3:atemp>16.0</ns3:atemp>
          </ns3:TrackPointExtension>
        </extensions>
      </trkpt>
      <trkpt lat="46.75412219949066638946533203125" lon="6.90451805479824542999267578125">
        <ele>402.399993896484375</ele>
        <time>2013-09-01T16:24:57.000Z</time>
        <extensions>
          <ns3:TrackPointExtension>
            <ns3:atemp>16.0</ns3:atemp>
          </ns3:TrackPointExtension>
        </extensions>
      </trkpt>
      <trkpt lat="46.75417534075677394866943359375" lon="6.90445804037153720855712890625">
        <ele>402.399993896484375</ele>
        <time>2013-09-01T16:24:58.000Z</time>
        <extensions>
          <ns3:TrackPointExtension>
            <ns3:atemp>16.0</ns3:atemp>
          </ns3:TrackPointExtension>
        </extensions>
      </trkpt>
      <trkpt lat="46.75422764383256435394287109375" lon="6.9043962657451629638671875">
        <ele>402.20001220703125</ele>
        <time>2013-09-01T16:24:59.000Z</time>
        <extensions>
          <ns3:TrackPointExtension>
            <ns3:atemp>16.0</ns3:atemp>
          </ns3:TrackPointExtension>
        </extensions>
      </trkpt>
      <trkpt lat="46.75428296439349651336669921875" lon="6.90434035845100879669189453125">
        <ele>402.20001220703125</ele>
        <time>2013-09-01T16:25:00.000Z</time>
        <extensions>
          <ns3:TrackPointExtension>
            <ns3:atemp>16.0</ns3:atemp>
          </ns3:TrackPointExtension>
        </extensions>
      </trkpt>
      <trkpt lat="46.75433577038347721099853515625" lon="6.90427246503531932830810546875">
        <ele>402.399993896484375</ele>
        <time>2013-09-01T16:25:01.000Z</time>
        <extensions>
          <ns3:TrackPointExtension>
            <ns3:atemp>16.0</ns3:atemp>
          </ns3:TrackPointExtension>
        </extensions>
      </trkpt>
      <trkpt lat="46.75438136793673038482666015625" lon="6.90419686026871204376220703125">
        <ele>402.20001220703125</ele>
        <time>2013-09-01T16:25:02.000Z</time>
        <extensions>
          <ns3:TrackPointExtension>
            <ns3:atemp>16.0</ns3:atemp>
          </ns3:TrackPointExtension>
        </extensions>
      </trkpt>
      <trkpt lat="46.75442361272871494293212890625" lon="6.9041225127875804901123046875">
        <ele>402.20001220703125</ele>
        <time>2013-09-01T16:25:03.000Z</time>
        <extensions>
          <ns3:TrackPointExtension>
            <ns3:atemp>16.0</ns3:atemp>
          </ns3:TrackPointExtension>
        </extensions>
      </trkpt>
      <trkpt lat="46.75446284003555774688720703125" lon="6.90405051223933696746826171875">
        <ele>402.20001220703125</ele>
        <time>2013-09-01T16:25:04.000Z</time>
        <extensions>
          <ns3:TrackPointExtension>
            <ns3:atemp>16.0</ns3:atemp>
          </ns3:TrackPointExtension>
        </extensions>
      </trkpt>
      <trkpt lat="46.75450625829398632049560546875" lon="6.9039823673665523529052734375">
        <ele>402.399993896484375</ele>
        <time>2013-09-01T16:25:05.000Z</time>
        <extensions>
          <ns3:TrackPointExtension>
            <ns3:atemp>16.0</ns3:atemp>
          </ns3:TrackPointExtension>
        </extensions>
      </trkpt>
      <trkpt lat="46.75455571152269840240478515625" lon="6.9039161503314971923828125">
        <ele>402.399993896484375</ele>
        <time>2013-09-01T16:25:06.000Z</time>
        <extensions>
          <ns3:TrackPointExtension>
            <ns3:atemp>16.0</ns3:atemp>
          </ns3:TrackPointExtension>
        </extensions>
      </trkpt>
      <trkpt lat="46.7546124570071697235107421875" lon="6.90384917892515659332275390625">
        <ele>402.20001220703125</ele>
        <time>2013-09-01T16:25:07.000Z</time>
        <extensions>
          <ns3:TrackPointExtension>
            <ns3:atemp>16.0</ns3:atemp>
          </ns3:TrackPointExtension>
        </extensions>
      </trkpt>
      <trkpt lat="46.7546664364635944366455078125" lon="6.90377977676689624786376953125">
        <ele>402.20001220703125</ele>
        <time>2013-09-01T16:25:08.000Z</time>
        <extensions>
          <ns3:TrackPointExtension>
            <ns3:atemp>16.0</ns3:atemp>
          </ns3:TrackPointExtension>
        </extensions>
      </trkpt>
      <trkpt lat="46.75471664406359195709228515625" lon="6.9037077762186527252197265625">
        <ele>402.600006103515625</ele>
        <time>2013-09-01T16:25:09.000Z</time>
        <extensions>
          <ns3:TrackPointExtension>
            <ns3:atemp>16.0</ns3:atemp>
          </ns3:TrackPointExtension>
        </extensions>
      </trkpt>
      <trkpt lat="46.75476391799747943878173828125" lon="6.90364214591681957244873046875">
        <ele>402.399993896484375</ele>
        <time>2013-09-01T16:25:10.000Z</time>
        <extensions>
          <ns3:TrackPointExtension>
            <ns3:atemp>16.0</ns3:atemp>
          </ns3:TrackPointExtension>
        </extensions>
      </trkpt>
      <trkpt lat="46.75481085665524005889892578125" lon="6.90357685089111328125">
        <ele>402.20001220703125</ele>
        <time>2013-09-01T16:25:11.000Z</time>
        <extensions>
          <ns3:TrackPointExtension>
            <ns3:atemp>16.0</ns3:atemp>
          </ns3:TrackPointExtension>
        </extensions>
      </trkpt>
      <trkpt lat="46.75486165098845958709716796875" lon="6.903515495359897613525390625">
        <ele>402</ele>
        <time>2013-09-01T16:25:12.000Z</time>
        <extensions>
          <ns3:TrackPointExtension>
            <ns3:atemp>16.0</ns3:atemp>
          </ns3:TrackPointExtension>
        </extensions>
      </trkpt>
      <trkpt lat="46.754917390644550323486328125" lon="6.9034673832356929779052734375">
        <ele>402.20001220703125</ele>
        <time>2013-09-01T16:25:13.000Z</time>
        <extensions>
          <ns3:TrackPointExtension>
            <ns3:atemp>16.0</ns3:atemp>
          </ns3:TrackPointExtension>
        </extensions>
      </trkpt>
      <trkpt lat="46.75497329793870449066162109375" lon="6.90342119894921779632568359375">
        <ele>402</ele>
        <time>2013-09-01T16:25:14.000Z</time>
        <extensions>
          <ns3:TrackPointExtension>
            <ns3:atemp>16.0</ns3:atemp>
          </ns3:TrackPointExtension>
        </extensions>
      </trkpt>
      <trkpt lat="46.75502845086157321929931640625" lon="6.90337275154888629913330078125">
        <ele>401.79998779296875</ele>
        <time>2013-09-01T16:25:15.000Z</time>
        <extensions>
          <ns3:TrackPointExtension>
            <ns3:atemp>16.0</ns3:atemp>
          </ns3:TrackPointExtension>
        </extensions>
      </trkpt>
      <trkpt lat="46.75508662126958370208740234375" lon="6.90333620645105838775634765625">
        <ele>401.79998779296875</ele>
        <time>2013-09-01T16:25:16.000Z</time>
        <extensions>
          <ns3:TrackPointExtension>
            <ns3:atemp>16.0</ns3:atemp>
          </ns3:TrackPointExtension>
        </extensions>
      </trkpt>
      <trkpt lat="46.755145378410816192626953125" lon="6.90330804325640201568603515625">
        <ele>401.79998779296875</ele>
        <time>2013-09-01T16:25:17.000Z</time>
        <extensions>
          <ns3:TrackPointExtension>
            <ns3:atemp>16.0</ns3:atemp>
          </ns3:TrackPointExtension>
        </extensions>
      </trkpt>
      <trkpt lat="46.75520447082817554473876953125" lon="6.9032809697091579437255859375">
        <ele>402</ele>
        <time>2013-09-01T16:25:18.000Z</time>
        <extensions>
          <ns3:TrackPointExtension>
            <ns3:atemp>16.0</ns3:atemp>
          </ns3:TrackPointExtension>
        </extensions>
      </trkpt>
      <trkpt lat="46.75526565872132778167724609375" lon="6.90325389616191387176513671875">
        <ele>402</ele>
        <time>2013-09-01T16:25:19.000Z</time>
        <extensions>
          <ns3:TrackPointExtension>
            <ns3:atemp>16.0</ns3:atemp>
          </ns3:TrackPointExtension>
        </extensions>
      </trkpt>
      <trkpt lat="46.75532676279544830322265625" lon="6.9032279960811138153076171875">
        <ele>401.79998779296875</ele>
        <time>2013-09-01T16:25:20.000Z</time>
        <extensions>
          <ns3:TrackPointExtension>
            <ns3:atemp>16.0</ns3:atemp>
          </ns3:TrackPointExtension>
        </extensions>
      </trkpt>
      <trkpt lat="46.7553872801363468170166015625" lon="6.90319932997226715087890625">
        <ele>402</ele>
        <time>2013-09-01T16:25:21.000Z</time>
        <extensions>
          <ns3:TrackPointExtension>
            <ns3:atemp>16.0</ns3:atemp>
          </ns3:TrackPointExtension>
        </extensions>
      </trkpt>
      <trkpt lat="46.75544586963951587677001953125" lon="6.90316739492118358612060546875">
        <ele>402</ele>
        <time>2013-09-01T16:25:22.000Z</time>
        <extensions>
          <ns3:TrackPointExtension>
            <ns3:atemp>16.0</ns3:atemp>
          </ns3:TrackPointExtension>
        </extensions>
      </trkpt>
      <trkpt lat="46.755506806075572967529296875" lon="6.9031321071088314056396484375">
        <ele>402</ele>
        <time>2013-09-01T16:25:23.000Z</time>
        <extensions>
          <ns3:TrackPointExtension>
            <ns3:atemp>16.0</ns3:atemp>
          </ns3:TrackPointExtension>
        </extensions>
      </trkpt>
      <trkpt lat="46.75556690432131290435791015625" lon="6.90309665165841579437255859375">
        <ele>401.79998779296875</ele>
        <time>2013-09-01T16:25:24.000Z</time>
        <extensions>
          <ns3:TrackPointExtension>
            <ns3:atemp>16.0</ns3:atemp>
          </ns3:TrackPointExtension>
        </extensions>
      </trkpt>
      <trkpt lat="46.755628176033496856689453125" lon="6.90306999720633029937744140625">
        <ele>401.79998779296875</ele>
        <time>2013-09-01T16:25:25.000Z</time>
        <extensions>
          <ns3:TrackPointExtension>
            <ns3:atemp>16.0</ns3:atemp>
          </ns3:TrackPointExtension>
        </extensions>
      </trkpt>
      <trkpt lat="46.75568089820444583892822265625" lon="6.9030489586293697357177734375">
        <ele>402</ele>
        <time>2013-09-01T16:25:26.000Z</time>
        <extensions>
          <ns3:TrackPointExtension>
            <ns3:atemp>16.0</ns3:atemp>
          </ns3:TrackPointExtension>
        </extensions>
      </trkpt>
      <trkpt lat="46.7557393200695514678955078125" lon="6.903042085468769073486328125">
        <ele>402.20001220703125</ele>
        <time>2013-09-01T16:25:27.000Z</time>
        <extensions>
          <ns3:TrackPointExtension>
            <ns3:atemp>16.0</ns3:atemp>
          </ns3:TrackPointExtension>
        </extensions>
      </trkpt>
      <trkpt lat="46.75580226816236972808837890625" lon="6.90304376184940338134765625">
        <ele>402.20001220703125</ele>
        <time>2013-09-01T16:25:28.000Z</time>
        <extensions>
          <ns3:TrackPointExtension>
            <ns3:atemp>16.0</ns3:atemp>
          </ns3:TrackPointExtension>
        </extensions>
      </trkpt>
      <trkpt lat="46.755860187113285064697265625" lon="6.9030435942113399505615234375">
        <ele>402.20001220703125</ele>
        <time>2013-09-01T16:25:29.000Z</time>
        <extensions>
          <ns3:TrackPointExtension>
            <ns3:atemp>16.0</ns3:atemp>
          </ns3:TrackPointExtension>
        </extensions>
      </trkpt>
      <trkpt lat="46.75591072998940944671630859375" lon="6.9030446000397205352783203125">
        <ele>402.20001220703125</ele>
        <time>2013-09-01T16:25:30.000Z</time>
        <extensions>
          <ns3:TrackPointExtension>
            <ns3:atemp>16.0</ns3:atemp>
          </ns3:TrackPointExtension>
        </extensions>
      </trkpt>
      <trkpt lat="46.7559720017015933990478515625" lon="6.9030600227415561676025390625">
        <ele>402</ele>
        <time>2013-09-01T16:25:31.000Z</time>
        <extensions>
          <ns3:TrackPointExtension>
            <ns3:atemp>16.0</ns3:atemp>
          </ns3:TrackPointExtension>
        </extensions>
      </trkpt>
      <trkpt lat="46.756042577326297760009765625" lon="6.90308441407978534698486328125">
        <ele>401.600006103515625</ele>
        <time>2013-09-01T16:25:32.000Z</time>
        <extensions>
          <ns3:TrackPointExtension>
            <ns3:atemp>16.0</ns3:atemp>
          </ns3:TrackPointExtension>
        </extensions>
      </trkpt>
      <trkpt lat="46.7561272345483303070068359375" lon="6.90314258448779582977294921875">
        <ele>401.20001220703125</ele>
        <time>2013-09-01T16:25:33.000Z</time>
        <extensions>
          <ns3:TrackPointExtension>
            <ns3:atemp>16.0</ns3:atemp>
          </ns3:TrackPointExtension>
        </extensions>
      </trkpt>
      <trkpt lat="46.7562140710651874542236328125" lon="6.90318985842168331146240234375">
        <ele>400.600006103515625</ele>
        <time>2013-09-01T16:25:34.000Z</time>
        <extensions>
          <ns3:TrackPointExtension>
            <ns3:atemp>16.0</ns3:atemp>
          </ns3:TrackPointExtension>
        </extensions>
      </trkpt>
      <trkpt lat="46.756305433809757232666015625" lon="6.90324199385941028594970703125">
        <ele>400.399993896484375</ele>
        <time>2013-09-01T16:25:35.000Z</time>
        <extensions>
          <ns3:TrackPointExtension>
            <ns3:atemp>16.0</ns3:atemp>
          </ns3:TrackPointExtension>
        </extensions>
      </trkpt>
      <trkpt lat="46.7563884146511554718017578125" lon="6.90326227806508541107177734375">
        <ele>400.20001220703125</ele>
        <time>2013-09-01T16:25:36.000Z</time>
        <extensions>
          <ns3:TrackPointExtension>
            <ns3:atemp>16.0</ns3:atemp>
          </ns3:TrackPointExtension>
        </extensions>
      </trkpt>
      <trkpt lat="46.75646795891225337982177734375" lon="6.9032719172537326812744140625">
        <ele>399.600006103515625</ele>
        <time>2013-09-01T16:25:37.000Z</time>
        <extensions>
          <ns3:TrackPointExtension>
            <ns3:atemp>16.0</ns3:atemp>
          </ns3:TrackPointExtension>
        </extensions>
      </trkpt>
      <trkpt lat="46.7565463297069072723388671875" lon="6.9032632000744342803955078125">
        <ele>397.79998779296875</ele>
        <time>2013-09-01T16:25:38.000Z</time>
        <extensions>
          <ns3:TrackPointExtension>
            <ns3:atemp>16.0</ns3:atemp>
          </ns3:TrackPointExtension>
        </extensions>
      </trkpt>
      <trkpt lat="46.75662151537835597991943359375" lon="6.90324090421199798583984375">
        <ele>397</ele>
        <time>2013-09-01T16:25:39.000Z</time>
        <extensions>
          <ns3:TrackPointExtension>
            <ns3:atemp>16.0</ns3:atemp>
          </ns3:TrackPointExtension>
        </extensions>
      </trkpt>
      <trkpt lat="46.75670273602008819580078125" lon="6.90321517176926136016845703125">
        <ele>396.20001220703125</ele>
        <time>2013-09-01T16:25:40.000Z</time>
        <extensions>
          <ns3:TrackPointExtension>
            <ns3:atemp>16.0</ns3:atemp>
          </ns3:TrackPointExtension>
        </extensions>
      </trkpt>
      <trkpt lat="46.75679401494562625885009765625" lon="6.90317829139530658721923828125">
        <ele>395</ele>
        <time>2013-09-01T16:25:41.000Z</time>
        <extensions>
          <ns3:TrackPointExtension>
            <ns3:atemp>16.0</ns3:atemp>
          </ns3:TrackPointExtension>
        </extensions>
      </trkpt>
      <trkpt lat="46.7568750679492950439453125" lon="6.903138644993305206298828125">
        <ele>393.399993896484375</ele>
        <time>2013-09-01T16:25:42.000Z</time>
        <extensions>
          <ns3:TrackPointExtension>
            <ns3:atemp>16.0</ns3:atemp>
          </ns3:TrackPointExtension>
        </extensions>
      </trkpt>
      <trkpt lat="46.75692737102508544921875" lon="6.90304166637361049652099609375">
        <ele>391.600006103515625</ele>
        <time>2013-09-01T16:25:43.000Z</time>
        <extensions>
          <ns3:TrackPointExtension>
            <ns3:atemp>16.0</ns3:atemp>
          </ns3:TrackPointExtension>
        </extensions>
      </trkpt>
      <trkpt lat="46.75695846788585186004638671875" lon="6.90291325561702251434326171875">
        <ele>390</ele>
        <time>2013-09-01T16:25:44.000Z</time>
        <extensions>
          <ns3:TrackPointExtension>
            <ns3:atemp>16.0</ns3:atemp>
          </ns3:TrackPointExtension>
        </extensions>
      </trkpt>
      <trkpt lat="46.75698361359536647796630859375" lon="6.90276841633021831512451171875">
        <ele>388.600006103515625</ele>
        <time>2013-09-01T16:25:45.000Z</time>
        <extensions>
          <ns3:TrackPointExtension>
            <ns3:atemp>16.0</ns3:atemp>
          </ns3:TrackPointExtension>
        </extensions>
      </trkpt>
      <trkpt lat="46.75700171850621700286865234375" lon="6.90264637582004070281982421875">
        <ele>387.600006103515625</ele>
        <time>2013-09-01T16:25:46.000Z</time>
        <extensions>
          <ns3:TrackPointExtension>
            <ns3:atemp>16.0</ns3:atemp>
          </ns3:TrackPointExtension>
        </extensions>
      </trkpt>
      <trkpt lat="46.757015548646450042724609375" lon="6.90253087319433689117431640625">
        <ele>386.399993896484375</ele>
        <time>2013-09-01T16:25:47.000Z</time>
        <extensions>
          <ns3:TrackPointExtension>
            <ns3:atemp>16.0</ns3:atemp>
          </ns3:TrackPointExtension>
        </extensions>
      </trkpt>
      <trkpt lat="46.75701630301773548126220703125" lon="6.902415454387664794921875">
        <ele>385</ele>
        <time>2013-09-01T16:25:48.000Z</time>
        <extensions>
          <ns3:TrackPointExtension>
            <ns3:atemp>16.0</ns3:atemp>
          </ns3:TrackPointExtension>
        </extensions>
      </trkpt>
      <trkpt lat="46.75696031190454959869384765625" lon="6.90232300199568271636962890625">
        <ele>383.79998779296875</ele>
        <time>2013-09-01T16:25:49.000Z</time>
        <extensions>
          <ns3:TrackPointExtension>
            <ns3:atemp>16.0</ns3:atemp>
          </ns3:TrackPointExtension>
        </extensions>
      </trkpt>
      <trkpt lat="46.75690515898168087005615234375" lon="6.90224287100136280059814453125">
        <ele>382.600006103515625</ele>
        <time>2013-09-01T16:25:50.000Z</time>
        <extensions>
          <ns3:TrackPointExtension>
            <ns3:atemp>16.0</ns3:atemp>
          </ns3:TrackPointExtension>
        </extensions>
      </trkpt>
      <trkpt lat="46.75684531219303607940673828125" lon="6.90216609276831150054931640625">
        <ele>381.600006103515625</ele>
        <time>2013-09-01T16:25:51.000Z</time>
        <extensions>
          <ns3:TrackPointExtension>
            <ns3:atemp>16.0</ns3:atemp>
          </ns3:TrackPointExtension>
        </extensions>
      </trkpt>
      <trkpt lat="46.75673961639404296875" lon="6.90204908140003681182861328125">
        <ele>380.79998779296875</ele>
        <time>2013-09-01T16:25:52.000Z</time>
        <extensions>
          <ns3:TrackPointExtension>
            <ns3:atemp>16.0</ns3:atemp>
          </ns3:TrackPointExtension>
        </extensions>
      </trkpt>
      <trkpt lat="46.75665034912526607513427734375" lon="6.9019063375890254974365234375">
        <ele>380</ele>
        <time>2013-09-01T16:25:53.000Z</time>
        <extensions>
          <ns3:TrackPointExtension>
            <ns3:atemp>16.0</ns3:atemp>
          </ns3:TrackPointExtension>
        </extensions>
      </trkpt>
      <trkpt lat="46.75657424144446849822998046875" lon="6.90177298150956630706787109375">
        <ele>379.399993896484375</ele>
        <time>2013-09-01T16:25:54.000Z</time>
        <extensions>
          <ns3:TrackPointExtension>
            <ns3:atemp>16.0</ns3:atemp>
          </ns3:TrackPointExtension>
        </extensions>
      </trkpt>
      <trkpt lat="46.75649226643145084381103515625" lon="6.90164901316165924072265625">
        <ele>378.600006103515625</ele>
        <time>2013-09-01T16:25:55.000Z</time>
        <extensions>
          <ns3:TrackPointExtension>
            <ns3:atemp>16.0</ns3:atemp>
          </ns3:TrackPointExtension>
        </extensions>
      </trkpt>
      <trkpt lat="46.75639939494431018829345703125" lon="6.90154633484780788421630859375">
        <ele>377.399993896484375</ele>
        <time>2013-09-01T16:25:56.000Z</time>
        <extensions>
          <ns3:TrackPointExtension>
            <ns3:atemp>16.0</ns3:atemp>
          </ns3:TrackPointExtension>
        </extensions>
      </trkpt>
      <trkpt lat="46.75630509853363037109375" lon="6.901457570493221282958984375">
        <ele>375.79998779296875</ele>
        <time>2013-09-01T16:25:57.000Z</time>
        <extensions>
          <ns3:TrackPointExtension>
            <ns3:atemp>16.0</ns3:atemp>
          </ns3:TrackPointExtension>
        </extensions>
      </trkpt>
      <trkpt lat="46.75621884874999523162841796875" lon="6.90137542784214019775390625">
        <ele>373.600006103515625</ele>
        <time>2013-09-01T16:25:58.000Z</time>
        <extensions>
          <ns3:TrackPointExtension>
            <ns3:atemp>16.0</ns3:atemp>
          </ns3:TrackPointExtension>
        </extensions>
      </trkpt>
      <trkpt lat="46.75613972358405590057373046875" lon="6.90130359493196010589599609375">
        <ele>371.79998779296875</ele>
        <time>2013-09-01T16:25:59.000Z</time>
        <extensions>
          <ns3:TrackPointExtension>
            <ns3:atemp>16.0</ns3:atemp>
          </ns3:TrackPointExtension>
        </extensions>
      </trkpt>
      <trkpt lat="46.756069399416446685791015625" lon="6.90123997628688812255859375">
        <ele>370.399993896484375</ele>
        <time>2013-09-01T16:26:00.000Z</time>
        <extensions>
          <ns3:TrackPointExtension>
            <ns3:atemp>16.0</ns3:atemp>
          </ns3:TrackPointExtension>
        </extensions>
      </trkpt>
      <trkpt lat="46.756037883460521697998046875" lon="6.90118758939206600189208984375">
        <ele>369.600006103515625</ele>
        <time>2013-09-01T16:26:01.000Z</time>
        <extensions>
          <ns3:TrackPointExtension>
            <ns3:atemp>16.0</ns3:atemp>
          </ns3:TrackPointExtension>
        </extensions>
      </trkpt>
      <trkpt lat="46.756010390818119049072265625" lon="6.9011199474334716796875">
        <ele>367.79998779296875</ele>
        <time>2013-09-01T16:26:02.000Z</time>
        <extensions>
          <ns3:TrackPointExtension>
            <ns3:atemp>16.0</ns3:atemp>
          </ns3:TrackPointExtension>
        </extensions>
      </trkpt>
      <trkpt lat="46.75603578798472881317138671875" lon="6.90105850808322429656982421875">
        <ele>367.20001220703125</ele>
        <time>2013-09-01T16:26:03.000Z</time>
        <extensions>
          <ns3:TrackPointExtension>
            <ns3:atemp>16.0</ns3:atemp>
          </ns3:TrackPointExtension>
        </extensions>
      </trkpt>
      <trkpt lat="46.75606478936970233917236328125" lon="6.90100796520709991455078125">
        <ele>366.600006103515625</ele>
        <time>2013-09-01T16:26:04.000Z</time>
        <extensions>
          <ns3:TrackPointExtension>
            <ns3:atemp>16.0</ns3:atemp>
          </ns3:TrackPointExtension>
        </extensions>
      </trkpt>
      <trkpt lat="46.75609798170626163482666015625" lon="6.90095272846519947052001953125">
        <ele>366.79998779296875</ele>
        <time>2013-09-01T16:26:05.000Z</time>
        <extensions>
          <ns3:TrackPointExtension>
            <ns3:atemp>16.0</ns3:atemp>
          </ns3:TrackPointExtension>
        </extensions>
      </trkpt>
      <trkpt lat="46.7561372928321361541748046875" lon="6.90089673735201358795166015625">
        <ele>366.79998779296875</ele>
        <time>2013-09-01T16:26:06.000Z</time>
        <extensions>
          <ns3:TrackPointExtension>
            <ns3:atemp>16.0</ns3:atemp>
          </ns3:TrackPointExtension>
        </extensions>
      </trkpt>
      <trkpt lat="46.75618146546185016632080078125" lon="6.90083269961178302764892578125">
        <ele>367</ele>
        <time>2013-09-01T16:26:07.000Z</time>
        <extensions>
          <ns3:TrackPointExtension>
            <ns3:atemp>16.0</ns3:atemp>
          </ns3:TrackPointExtension>
        </extensions>
      </trkpt>
      <trkpt lat="46.75622530281543731689453125" lon="6.900766231119632720947265625">
        <ele>367.20001220703125</ele>
        <time>2013-09-01T16:26:08.000Z</time>
        <extensions>
          <ns3:TrackPointExtension>
            <ns3:atemp>16.0</ns3:atemp>
          </ns3:TrackPointExtension>
        </extensions>
      </trkpt>
      <trkpt lat="46.756267212331295013427734375" lon="6.9007016904652118682861328125">
        <ele>366.79998779296875</ele>
        <time>2013-09-01T16:26:09.000Z</time>
        <extensions>
          <ns3:TrackPointExtension>
            <ns3:atemp>16.0</ns3:atemp>
          </ns3:TrackPointExtension>
        </extensions>
      </trkpt>
      <trkpt lat="46.756313480436801910400390625" lon="6.90063782036304473876953125">
        <ele>366.600006103515625</ele>
        <time>2013-09-01T16:26:10.000Z</time>
        <extensions>
          <ns3:TrackPointExtension>
            <ns3:atemp>16.0</ns3:atemp>
          </ns3:TrackPointExtension>
        </extensions>
      </trkpt>
      <trkpt lat="46.75636067055165767669677734375" lon="6.90056950785219669342041015625">
        <ele>366.399993896484375</ele>
        <time>2013-09-01T16:26:11.000Z</time>
        <extensions>
          <ns3:TrackPointExtension>
            <ns3:atemp>16.0</ns3:atemp>
          </ns3:TrackPointExtension>
        </extensions>
      </trkpt>
      <trkpt lat="46.75641163252294063568115234375" lon="6.90050278790295124053955078125">
        <ele>366.600006103515625</ele>
        <time>2013-09-01T16:26:12.000Z</time>
        <extensions>
          <ns3:TrackPointExtension>
            <ns3:atemp>16.0</ns3:atemp>
          </ns3:TrackPointExtension>
        </extensions>
      </trkpt>
      <trkpt lat="46.7564628459513187408447265625" lon="6.90043657086789608001708984375">
        <ele>366.600006103515625</ele>
        <time>2013-09-01T16:26:13.000Z</time>
        <extensions>
          <ns3:TrackPointExtension>
            <ns3:atemp>16.0</ns3:atemp>
          </ns3:TrackPointExtension>
        </extensions>
      </trkpt>
      <trkpt lat="46.7565144784748554229736328125" lon="6.90037219785153865814208984375">
        <ele>366.79998779296875</ele>
        <time>2013-09-01T16:26:14.000Z</time>
        <extensions>
          <ns3:TrackPointExtension>
            <ns3:atemp>16.0</ns3:atemp>
          </ns3:TrackPointExtension>
        </extensions>
      </trkpt>
      <trkpt lat="46.75656259059906005859375" lon="6.900312602519989013671875">
        <ele>366.600006103515625</ele>
        <time>2013-09-01T16:26:15.000Z</time>
        <extensions>
          <ns3:TrackPointExtension>
            <ns3:atemp>16.0</ns3:atemp>
          </ns3:TrackPointExtension>
        </extensions>
      </trkpt>
      <trkpt lat="46.75661296583712100982666015625" lon="6.90025367774069309234619140625">
        <ele>366.399993896484375</ele>
        <time>2013-09-01T16:26:16.000Z</time>
        <extensions>
          <ns3:TrackPointExtension>
            <ns3:atemp>16.0</ns3:atemp>
          </ns3:TrackPointExtension>
        </extensions>
      </trkpt>
      <trkpt lat="46.7566660232841968536376953125" lon="6.90019114874303340911865234375">
        <ele>366.399993896484375</ele>
        <time>2013-09-01T16:26:17.000Z</time>
        <extensions>
          <ns3:TrackPointExtension>
            <ns3:atemp>16.0</ns3:atemp>
          </ns3:TrackPointExtension>
        </extensions>
      </trkpt>
      <trkpt lat="46.756717152893543243408203125" lon="6.900122500956058502197265625">
        <ele>366.20001220703125</ele>
        <time>2013-09-01T16:26:18.000Z</time>
        <extensions>
          <ns3:TrackPointExtension>
            <ns3:atemp>16.0</ns3:atemp>
          </ns3:TrackPointExtension>
        </extensions>
      </trkpt>
      <trkpt lat="46.7567706294357776641845703125" lon="6.900054775178432464599609375">
        <ele>366</ele>
        <time>2013-09-01T16:26:19.000Z</time>
        <extensions>
          <ns3:TrackPointExtension>
            <ns3:atemp>16.0</ns3:atemp>
          </ns3:TrackPointExtension>
        </extensions>
      </trkpt>
      <trkpt lat="46.75682787783443927764892578125" lon="6.899987049400806427001953125">
        <ele>366</ele>
        <time>2013-09-01T16:26:20.000Z</time>
        <extensions>
          <ns3:TrackPointExtension>
            <ns3:atemp>16.0</ns3:atemp>
          </ns3:TrackPointExtension>
        </extensions>
      </trkpt>
      <trkpt lat="46.7568765766918659210205078125" lon="6.8999087624251842498779296875">
        <ele>366</ele>
        <time>2013-09-01T16:26:21.000Z</time>
        <extensions>
          <ns3:TrackPointExtension>
            <ns3:atemp>16.0</ns3:atemp>
          </ns3:TrackPointExtension>
        </extensions>
      </trkpt>
      <trkpt lat="46.75692745484411716461181640625" lon="6.89983374439179897308349609375">
        <ele>365.600006103515625</ele>
        <time>2013-09-01T16:26:22.000Z</time>
        <extensions>
          <ns3:TrackPointExtension>
            <ns3:atemp>16.0</ns3:atemp>
          </ns3:TrackPointExtension>
        </extensions>
      </trkpt>
      <trkpt lat="46.75697841681540012359619140625" lon="6.8997645936906337738037109375">
        <ele>365.20001220703125</ele>
        <time>2013-09-01T16:26:23.000Z</time>
        <extensions>
          <ns3:TrackPointExtension>
            <ns3:atemp>16.0</ns3:atemp>
          </ns3:TrackPointExtension>
        </extensions>
      </trkpt>
      <trkpt lat="46.7570318095386028289794921875" lon="6.89970047213137149810791015625">
        <ele>365.600006103515625</ele>
        <time>2013-09-01T16:26:24.000Z</time>
        <extensions>
          <ns3:TrackPointExtension>
            <ns3:atemp>16.0</ns3:atemp>
          </ns3:TrackPointExtension>
        </extensions>
      </trkpt>
      <trkpt lat="46.7570831067860126495361328125" lon="6.8996351771056652069091796875">
        <ele>365.79998779296875</ele>
        <time>2013-09-01T16:26:25.000Z</time>
        <extensions>
          <ns3:TrackPointExtension>
            <ns3:atemp>16.0</ns3:atemp>
          </ns3:TrackPointExtension>
        </extensions>
      </trkpt>
      <trkpt lat="46.75712627358734607696533203125" lon="6.8995897471904754638671875">
        <ele>364.79998779296875</ele>
        <time>2013-09-01T16:26:26.000Z</time>
        <extensions>
          <ns3:TrackPointExtension>
            <ns3:atemp>16.0</ns3:atemp>
          </ns3:TrackPointExtension>
        </extensions>
      </trkpt>
      <trkpt lat="46.7571593821048736572265625" lon="6.8995396234095096588134765625">
        <ele>364</ele>
        <time>2013-09-01T16:26:27.000Z</time>
        <extensions>
          <ns3:TrackPointExtension>
            <ns3:atemp>16.0</ns3:atemp>
          </ns3:TrackPointExtension>
        </extensions>
      </trkpt>
      <trkpt lat="46.757180504500865936279296875" lon="6.89948153682053089141845703125">
        <ele>363.20001220703125</ele>
        <time>2013-09-01T16:26:28.000Z</time>
        <extensions>
          <ns3:TrackPointExtension>
            <ns3:atemp>16.0</ns3:atemp>
          </ns3:TrackPointExtension>
        </extensions>
      </trkpt>
      <trkpt lat="46.75717673264443874359130859375" lon="6.8994356878101825714111328125">
        <ele>362.399993896484375</ele>
        <time>2013-09-01T16:26:29.000Z</time>
        <extensions>
          <ns3:TrackPointExtension>
            <ns3:atemp>16.0</ns3:atemp>
          </ns3:TrackPointExtension>
        </extensions>
      </trkpt>
      <trkpt lat="46.75715812481939792633056640625" lon="6.89939620904624462127685546875">
        <ele>362</ele>
        <time>2013-09-01T16:26:30.000Z</time>
        <extensions>
          <ns3:TrackPointExtension>
            <ns3:atemp>16.0</ns3:atemp>
          </ns3:TrackPointExtension>
        </extensions>
      </trkpt>
      <trkpt lat="46.75713180564343929290771484375" lon="6.899358071386814117431640625">
        <ele>361.79998779296875</ele>
        <time>2013-09-01T16:26:31.000Z</time>
        <extensions>
          <ns3:TrackPointExtension>
            <ns3:atemp>16.0</ns3:atemp>
          </ns3:TrackPointExtension>
        </extensions>
      </trkpt>
      <trkpt lat="46.7571002058684825897216796875" lon="6.8993213586509227752685546875">
        <ele>361.79998779296875</ele>
        <time>2013-09-01T16:26:32.000Z</time>
        <extensions>
          <ns3:TrackPointExtension>
            <ns3:atemp>16.0</ns3:atemp>
          </ns3:TrackPointExtension>
        </extensions>
      </trkpt>
      <trkpt lat="46.7570750601589679718017578125" lon="6.8992814607918262481689453125">
        <ele>362</ele>
        <time>2013-09-01T16:26:33.000Z</time>
        <extensions>
          <ns3:TrackPointExtension>
            <ns3:atemp>16.0</ns3:atemp>
          </ns3:TrackPointExtension>
        </extensions>
      </trkpt>
      <trkpt lat="46.75706491805613040924072265625" lon="6.8992351926863193511962890625">
        <ele>362</ele>
        <time>2013-09-01T16:26:34.000Z</time>
        <extensions>
          <ns3:TrackPointExtension>
            <ns3:atemp>16.0</ns3:atemp>
          </ns3:TrackPointExtension>
        </extensions>
      </trkpt>
      <trkpt lat="46.75706659443676471710205078125" lon="6.8991882540285587310791015625">
        <ele>362</ele>
        <time>2013-09-01T16:26:35.000Z</time>
        <extensions>
          <ns3:TrackPointExtension>
            <ns3:atemp>16.0</ns3:atemp>
          </ns3:TrackPointExtension>
        </extensions>
      </trkpt>
      <trkpt lat="46.75707288086414337158203125" lon="6.8991325981914997100830078125">
        <ele>362</ele>
        <time>2013-09-01T16:26:36.000Z</time>
        <extensions>
          <ns3:TrackPointExtension>
            <ns3:atemp>16.0</ns3:atemp>
          </ns3:TrackPointExtension>
        </extensions>
      </trkpt>
      <trkpt lat="46.757061146199703216552734375" lon="6.89906495623290538787841796875">
        <ele>362.20001220703125</ele>
        <time>2013-09-01T16:26:37.000Z</time>
        <extensions>
          <ns3:TrackPointExtension>
            <ns3:atemp>16.0</ns3:atemp>
          </ns3:TrackPointExtension>
        </extensions>
      </trkpt>
      <trkpt lat="46.75703993998467922210693359375" lon="6.89899471588432788848876953125">
        <ele>362.399993896484375</ele>
        <time>2013-09-01T16:26:38.000Z</time>
        <extensions>
          <ns3:TrackPointExtension>
            <ns3:atemp>16.0</ns3:atemp>
          </ns3:TrackPointExtension>
        </extensions>
      </trkpt>
      <trkpt lat="46.75703155808150768280029296875" lon="6.89891827292740345001220703125">
        <ele>362.600006103515625</ele>
        <time>2013-09-01T16:26:39.000Z</time>
        <extensions>
          <ns3:TrackPointExtension>
            <ns3:atemp>16.0</ns3:atemp>
          </ns3:TrackPointExtension>
        </extensions>
      </trkpt>
      <trkpt lat="46.75703608430922031402587890625" lon="6.89884082414209842681884765625">
        <ele>362.79998779296875</ele>
        <time>2013-09-01T16:26:40.000Z</time>
        <extensions>
          <ns3:TrackPointExtension>
            <ns3:atemp>16.0</ns3:atemp>
          </ns3:TrackPointExtension>
        </extensions>
      </trkpt>
      <trkpt lat="46.75704798661172389984130859375" lon="6.89875516109168529510498046875">
        <ele>362.79998779296875</ele>
        <time>2013-09-01T16:26:41.000Z</time>
        <extensions>
          <ns3:TrackPointExtension>
            <ns3:atemp>16.0</ns3:atemp>
          </ns3:TrackPointExtension>
        </extensions>
      </trkpt>
      <trkpt lat="46.757063828408718109130859375" lon="6.89867368899285793304443359375">
        <ele>363</ele>
        <time>2013-09-01T16:26:42.000Z</time>
        <extensions>
          <ns3:TrackPointExtension>
            <ns3:atemp>16.0</ns3:atemp>
          </ns3:TrackPointExtension>
        </extensions>
      </trkpt>
      <trkpt lat="46.7570878006517887115478515625" lon="6.898590624332427978515625">
        <ele>363.20001220703125</ele>
        <time>2013-09-01T16:26:43.000Z</time>
        <extensions>
          <ns3:TrackPointExtension>
            <ns3:atemp>16.0</ns3:atemp>
          </ns3:TrackPointExtension>
        </extensions>
      </trkpt>
      <trkpt lat="46.75711872987449169158935546875" lon="6.89850906841456890106201171875">
        <ele>363.399993896484375</ele>
        <time>2013-09-01T16:26:44.000Z</time>
        <extensions>
          <ns3:TrackPointExtension>
            <ns3:atemp>16.0</ns3:atemp>
          </ns3:TrackPointExtension>
        </extensions>
      </trkpt>
      <trkpt lat="46.75715343095362186431884765625" lon="6.89842843450605869293212890625">
        <ele>363.399993896484375</ele>
        <time>2013-09-01T16:26:45.000Z</time>
        <extensions>
          <ns3:TrackPointExtension>
            <ns3:atemp>16.0</ns3:atemp>
          </ns3:TrackPointExtension>
        </extensions>
      </trkpt>
      <trkpt lat="46.75719299353659152984619140625" lon="6.8983500637114048004150390625">
        <ele>363.399993896484375</ele>
        <time>2013-09-01T16:26:46.000Z</time>
        <extensions>
          <ns3:TrackPointExtension>
            <ns3:atemp>16.0</ns3:atemp>
          </ns3:TrackPointExtension>
        </extensions>
      </trkpt>
      <trkpt lat="46.7572329752147197723388671875" lon="6.89827269874513149261474609375">
        <ele>363.399993896484375</ele>
        <time>2013-09-01T16:26:47.000Z</time>
        <extensions>
          <ns3:TrackPointExtension>
            <ns3:atemp>16.0</ns3:atemp>
          </ns3:TrackPointExtension>
        </extensions>
      </trkpt>
      <trkpt lat="46.75727413035929203033447265625" lon="6.8981948308646678924560546875">
        <ele>363.399993896484375</ele>
        <time>2013-09-01T16:26:48.000Z</time>
        <extensions>
          <ns3:TrackPointExtension>
            <ns3:atemp>16.0</ns3:atemp>
          </ns3:TrackPointExtension>
        </extensions>
      </trkpt>
      <trkpt lat="46.75731872208416461944580078125" lon="6.8981143645942211151123046875">
        <ele>363.399993896484375</ele>
        <time>2013-09-01T16:26:49.000Z</time>
        <extensions>
          <ns3:TrackPointExtension>
            <ns3:atemp>16.0</ns3:atemp>
          </ns3:TrackPointExtension>
        </extensions>
      </trkpt>
      <trkpt lat="46.75736390054225921630859375" lon="6.898035071790218353271484375">
        <ele>363.20001220703125</ele>
        <time>2013-09-01T16:26:50.000Z</time>
        <extensions>
          <ns3:TrackPointExtension>
            <ns3:atemp>16.0</ns3:atemp>
          </ns3:TrackPointExtension>
        </extensions>
      </trkpt>
      <trkpt lat="46.7574103362858295440673828125" lon="6.89794982783496379852294921875">
        <ele>362.600006103515625</ele>
        <time>2013-09-01T16:26:51.000Z</time>
        <extensions>
          <ns3:TrackPointExtension>
            <ns3:atemp>16.0</ns3:atemp>
          </ns3:TrackPointExtension>
        </extensions>
      </trkpt>
      <trkpt lat="46.75745283253490924835205078125" lon="6.8978592194616794586181640625">
        <ele>362.399993896484375</ele>
        <time>2013-09-01T16:26:52.000Z</time>
        <extensions>
          <ns3:TrackPointExtension>
            <ns3:atemp>16.0</ns3:atemp>
          </ns3:TrackPointExtension>
        </extensions>
      </trkpt>
      <trkpt lat="46.7575000226497650146484375" lon="6.8977737240493297576904296875">
        <ele>362.399993896484375</ele>
        <time>2013-09-01T16:26:53.000Z</time>
        <extensions>
          <ns3:TrackPointExtension>
            <ns3:atemp>16.0</ns3:atemp>
          </ns3:TrackPointExtension>
        </extensions>
      </trkpt>
      <trkpt lat="46.757547967135906219482421875" lon="6.89768965356051921844482421875">
        <ele>362.20001220703125</ele>
        <time>2013-09-01T16:26:54.000Z</time>
        <extensions>
          <ns3:TrackPointExtension>
            <ns3:atemp>16.0</ns3:atemp>
          </ns3:TrackPointExtension>
        </extensions>
      </trkpt>
      <trkpt lat="46.75759725272655487060546875" lon="6.89760633744299411773681640625">
        <ele>362.399993896484375</ele>
        <time>2013-09-01T16:26:55.000Z</time>
        <extensions>
          <ns3:TrackPointExtension>
            <ns3:atemp>16.0</ns3:atemp>
          </ns3:TrackPointExtension>
        </extensions>
      </trkpt>
      <trkpt lat="46.75764016807079315185546875" lon="6.89751975238323211669921875">
        <ele>362.399993896484375</ele>
        <time>2013-09-01T16:26:56.000Z</time>
        <extensions>
          <ns3:TrackPointExtension>
            <ns3:atemp>16.0</ns3:atemp>
          </ns3:TrackPointExtension>
        </extensions>
      </trkpt>
      <trkpt lat="46.757685430347919464111328125" lon="6.8974324129521846771240234375">
        <ele>362.600006103515625</ele>
        <time>2013-09-01T16:26:57.000Z</time>
        <extensions>
          <ns3:TrackPointExtension>
            <ns3:atemp>16.0</ns3:atemp>
          </ns3:TrackPointExtension>
        </extensions>
      </trkpt>
      <trkpt lat="46.75773178227245807647705078125" lon="6.89734540879726409912109375">
        <ele>362.399993896484375</ele>
        <time>2013-09-01T16:26:58.000Z</time>
        <extensions>
          <ns3:TrackPointExtension>
            <ns3:atemp>16.0</ns3:atemp>
          </ns3:TrackPointExtension>
        </extensions>
      </trkpt>
      <trkpt lat="46.7577794753015041351318359375" lon="6.8972563929855823516845703125">
        <ele>362.20001220703125</ele>
        <time>2013-09-01T16:26:59.000Z</time>
        <extensions>
          <ns3:TrackPointExtension>
            <ns3:atemp>16.0</ns3:atemp>
          </ns3:TrackPointExtension>
        </extensions>
      </trkpt>
      <trkpt lat="46.75782817415893077850341796875" lon="6.89716511406004428863525390625">
        <ele>362</ele>
        <time>2013-09-01T16:27:00.000Z</time>
        <extensions>
          <ns3:TrackPointExtension>
            <ns3:atemp>16.0</ns3:atemp>
          </ns3:TrackPointExtension>
        </extensions>
      </trkpt>
      <trkpt lat="46.7578787170350551605224609375" lon="6.8970736674964427947998046875">
        <ele>361.600006103515625</ele>
        <time>2013-09-01T16:27:01.000Z</time>
        <extensions>
          <ns3:TrackPointExtension>
            <ns3:atemp>16.0</ns3:atemp>
          </ns3:TrackPointExtension>
        </extensions>
      </trkpt>
      <trkpt lat="46.75792791880667209625244140625" lon="6.89698188565671443939208984375">
        <ele>361.20001220703125</ele>
        <time>2013-09-01T16:27:02.000Z</time>
        <extensions>
          <ns3:TrackPointExtension>
            <ns3:atemp>16.0</ns3:atemp>
          </ns3:TrackPointExtension>
        </extensions>
      </trkpt>
      <trkpt lat="46.7579779587686061859130859375" lon="6.89688918180763721466064453125">
        <ele>361.20001220703125</ele>
        <time>2013-09-01T16:27:03.000Z</time>
        <extensions>
          <ns3:TrackPointExtension>
            <ns3:atemp>16.0</ns3:atemp>
          </ns3:TrackPointExtension>
        </extensions>
      </trkpt>
      <trkpt lat="46.75802799873054027557373046875" lon="6.89679681323468685150146484375">
        <ele>361.20001220703125</ele>
        <time>2013-09-01T16:27:04.000Z</time>
        <extensions>
          <ns3:TrackPointExtension>
            <ns3:atemp>16.0</ns3:atemp>
          </ns3:TrackPointExtension>
        </extensions>
      </trkpt>
      <trkpt lat="46.7580782063305377960205078125" lon="6.89670461229979991912841796875">
        <ele>361</ele>
        <time>2013-09-01T16:27:05.000Z</time>
        <extensions>
          <ns3:TrackPointExtension>
            <ns3:atemp>16.0</ns3:atemp>
          </ns3:TrackPointExtension>
        </extensions>
      </trkpt>
      <trkpt lat="46.75812841393053531646728515625" lon="6.89661450684070587158203125">
        <ele>361</ele>
        <time>2013-09-01T16:27:06.000Z</time>
        <extensions>
          <ns3:TrackPointExtension>
            <ns3:atemp>16.0</ns3:atemp>
          </ns3:TrackPointExtension>
        </extensions>
      </trkpt>
      <trkpt lat="46.7581801302731037139892578125" lon="6.89652624540030956268310546875">
        <ele>360.600006103515625</ele>
        <time>2013-09-01T16:27:07.000Z</time>
        <extensions>
          <ns3:TrackPointExtension>
            <ns3:atemp>16.0</ns3:atemp>
          </ns3:TrackPointExtension>
        </extensions>
      </trkpt>
      <trkpt lat="46.75822681747376918792724609375" lon="6.8964410014450550079345703125">
        <ele>360.600006103515625</ele>
        <time>2013-09-01T16:27:08.000Z</time>
        <extensions>
          <ns3:TrackPointExtension>
            <ns3:atemp>16.0</ns3:atemp>
          </ns3:TrackPointExtension>
        </extensions>
      </trkpt>
      <trkpt lat="46.75827660597860813140869140625" lon="6.89635257236659526824951171875">
        <ele>360.600006103515625</ele>
        <time>2013-09-01T16:27:09.000Z</time>
        <extensions>
          <ns3:TrackPointExtension>
            <ns3:atemp>16.0</ns3:atemp>
          </ns3:TrackPointExtension>
        </extensions>
      </trkpt>
      <trkpt lat="46.7583269812166690826416015625" lon="6.89626674167811870574951171875">
        <ele>361.20001220703125</ele>
        <time>2013-09-01T16:27:10.000Z</time>
        <extensions>
          <ns3:TrackPointExtension>
            <ns3:atemp>16.0</ns3:atemp>
          </ns3:TrackPointExtension>
        </extensions>
      </trkpt>
      <trkpt lat="46.758376099169254302978515625" lon="6.89617956988513469696044921875">
        <ele>361.399993896484375</ele>
        <time>2013-09-01T16:27:11.000Z</time>
        <extensions>
          <ns3:TrackPointExtension>
            <ns3:atemp>16.0</ns3:atemp>
          </ns3:TrackPointExtension>
        </extensions>
      </trkpt>
      <trkpt lat="46.7584268935024738311767578125" lon="6.8960939906537532806396484375">
        <ele>361.399993896484375</ele>
        <time>2013-09-01T16:27:12.000Z</time>
        <extensions>
          <ns3:TrackPointExtension>
            <ns3:atemp>16.0</ns3:atemp>
          </ns3:TrackPointExtension>
        </extensions>
      </trkpt>
      <trkpt lat="46.75847567617893218994140625" lon="6.89600790850818157196044921875">
        <ele>360.79998779296875</ele>
        <time>2013-09-01T16:27:13.000Z</time>
        <extensions>
          <ns3:TrackPointExtension>
            <ns3:atemp>16.0</ns3:atemp>
          </ns3:TrackPointExtension>
        </extensions>
      </trkpt>
      <trkpt lat="46.7585231177508831024169921875" lon="6.89591771923005580902099609375">
        <ele>359.20001220703125</ele>
        <time>2013-09-01T16:27:14.000Z</time>
        <extensions>
          <ns3:TrackPointExtension>
            <ns3:atemp>16.0</ns3:atemp>
          </ns3:TrackPointExtension>
        </extensions>
      </trkpt>
      <trkpt lat="46.7585702240467071533203125" lon="6.89582803286612033843994140625">
        <ele>358.79998779296875</ele>
        <time>2013-09-01T16:27:15.000Z</time>
        <extensions>
          <ns3:TrackPointExtension>
            <ns3:atemp>16.0</ns3:atemp>
          </ns3:TrackPointExtension>
        </extensions>
      </trkpt>
      <trkpt lat="46.7586149834096431732177734375" lon="6.89573817886412143707275390625">
        <ele>359</ele>
        <time>2013-09-01T16:27:16.000Z</time>
        <extensions>
          <ns3:TrackPointExtension>
            <ns3:atemp>16.0</ns3:atemp>
          </ns3:TrackPointExtension>
        </extensions>
      </trkpt>
      <trkpt lat="46.7586614191532135009765625" lon="6.89564966596662998199462890625">
        <ele>358.79998779296875</ele>
        <time>2013-09-01T16:27:17.000Z</time>
        <extensions>
          <ns3:TrackPointExtension>
            <ns3:atemp>16.0</ns3:atemp>
          </ns3:TrackPointExtension>
        </extensions>
      </trkpt>
      <trkpt lat="46.7587075196206569671630859375" lon="6.8955598957836627960205078125">
        <ele>358.600006103515625</ele>
        <time>2013-09-01T16:27:18.000Z</time>
        <extensions>
          <ns3:TrackPointExtension>
            <ns3:atemp>16.0</ns3:atemp>
          </ns3:TrackPointExtension>
        </extensions>
      </trkpt>
      <trkpt lat="46.75875437445938587188720703125" lon="6.8954703770577907562255859375">
        <ele>358.399993896484375</ele>
        <time>2013-09-01T16:27:19.000Z</time>
        <extensions>
          <ns3:TrackPointExtension>
            <ns3:atemp>16.0</ns3:atemp>
          </ns3:TrackPointExtension>
        </extensions>
      </trkpt>
      <trkpt lat="46.75879955291748046875" lon="6.89538312144577503204345703125">
        <ele>358.600006103515625</ele>
        <time>2013-09-01T16:27:20.000Z</time>
        <extensions>
          <ns3:TrackPointExtension>
            <ns3:atemp>16.0</ns3:atemp>
          </ns3:TrackPointExtension>
        </extensions>
      </trkpt>
      <trkpt lat="46.7588476650416851043701171875" lon="6.89529745839536190032958984375">
        <ele>358.600006103515625</ele>
        <time>2013-09-01T16:27:21.000Z</time>
        <extensions>
          <ns3:TrackPointExtension>
            <ns3:atemp>16.0</ns3:atemp>
          </ns3:TrackPointExtension>
        </extensions>
      </trkpt>
      <trkpt lat="46.75889234058558940887451171875" lon="6.89521045424044132232666015625">
        <ele>358.600006103515625</ele>
        <time>2013-09-01T16:27:22.000Z</time>
        <extensions>
          <ns3:TrackPointExtension>
            <ns3:atemp>16.0</ns3:atemp>
          </ns3:TrackPointExtension>
        </extensions>
      </trkpt>
      <trkpt lat="46.75893810577690601348876953125" lon="6.89512529410421848297119140625">
        <ele>358.399993896484375</ele>
        <time>2013-09-01T16:27:23.000Z</time>
        <extensions>
          <ns3:TrackPointExtension>
            <ns3:atemp>16.0</ns3:atemp>
          </ns3:TrackPointExtension>
        </extensions>
      </trkpt>
      <trkpt lat="46.758982948958873748779296875" lon="6.8950412236154079437255859375">
        <ele>358.399993896484375</ele>
        <time>2013-09-01T16:27:24.000Z</time>
        <extensions>
          <ns3:TrackPointExtension>
            <ns3:atemp>16.0</ns3:atemp>
          </ns3:TrackPointExtension>
        </extensions>
      </trkpt>
      <trkpt lat="46.7590273730456829071044921875" lon="6.8949587456881999969482421875">
        <ele>358.399993896484375</ele>
        <time>2013-09-01T16:27:25.000Z</time>
        <extensions>
          <ns3:TrackPointExtension>
            <ns3:atemp>16.0</ns3:atemp>
          </ns3:TrackPointExtension>
        </extensions>
      </trkpt>
      <trkpt lat="46.75907389260828495025634765625" lon="6.8948762677609920501708984375">
        <ele>358.399993896484375</ele>
        <time>2013-09-01T16:27:26.000Z</time>
        <extensions>
          <ns3:TrackPointExtension>
            <ns3:atemp>16.0</ns3:atemp>
          </ns3:TrackPointExtension>
        </extensions>
      </trkpt>
      <trkpt lat="46.75912066362798213958740234375" lon="6.89479202963411808013916015625">
        <ele>358.399993896484375</ele>
        <time>2013-09-01T16:27:27.000Z</time>
        <extensions>
          <ns3:TrackPointExtension>
            <ns3:atemp>16.0</ns3:atemp>
          </ns3:TrackPointExtension>
        </extensions>
      </trkpt>
      <trkpt lat="46.75916525535285472869873046875" lon="6.8947076238691806793212890625">
        <ele>358</ele>
        <time>2013-09-01T16:27:28.000Z</time>
        <extensions>
          <ns3:TrackPointExtension>
            <ns3:atemp>16.0</ns3:atemp>
          </ns3:TrackPointExtension>
        </extensions>
      </trkpt>
      <trkpt lat="46.75920967943966388702392578125" lon="6.89462623558938503265380859375">
        <ele>357.399993896484375</ele>
        <time>2013-09-01T16:27:29.000Z</time>
        <extensions>
          <ns3:TrackPointExtension>
            <ns3:atemp>16.0</ns3:atemp>
          </ns3:TrackPointExtension>
        </extensions>
      </trkpt>
      <trkpt lat="46.7592530138790607452392578125" lon="6.89454786479473114013671875">
        <ele>357</ele>
        <time>2013-09-01T16:27:30.000Z</time>
        <extensions>
          <ns3:TrackPointExtension>
            <ns3:atemp>16.0</ns3:atemp>
          </ns3:TrackPointExtension>
        </extensions>
      </trkpt>
      <trkpt lat="46.75929517485201358795166015625" lon="6.894469074904918670654296875">
        <ele>356.79998779296875</ele>
        <time>2013-09-01T16:27:31.000Z</time>
        <extensions>
          <ns3:TrackPointExtension>
            <ns3:atemp>16.0</ns3:atemp>
          </ns3:TrackPointExtension>
        </extensions>
      </trkpt>
      <trkpt lat="46.75933708436787128448486328125" lon="6.89438785426318645477294921875">
        <ele>356.600006103515625</ele>
        <time>2013-09-01T16:27:32.000Z</time>
        <extensions>
          <ns3:TrackPointExtension>
            <ns3:atemp>16.0</ns3:atemp>
          </ns3:TrackPointExtension>
        </extensions>
      </trkpt>
      <trkpt lat="46.75937916152179241180419921875" lon="6.89430512487888336181640625">
        <ele>356.79998779296875</ele>
        <time>2013-09-01T16:27:33.000Z</time>
        <extensions>
          <ns3:TrackPointExtension>
            <ns3:atemp>16.0</ns3:atemp>
          </ns3:TrackPointExtension>
        </extensions>
      </trkpt>
      <trkpt lat="46.75942224450409412384033203125" lon="6.89422256313264369964599609375">
        <ele>357.399993896484375</ele>
        <time>2013-09-01T16:27:34.000Z</time>
        <extensions>
          <ns3:TrackPointExtension>
            <ns3:atemp>16.0</ns3:atemp>
          </ns3:TrackPointExtension>
        </extensions>
      </trkpt>
      <trkpt lat="46.7594714462757110595703125" lon="6.89414025284349918365478515625">
        <ele>357.79998779296875</ele>
        <time>2013-09-01T16:27:35.000Z</time>
        <extensions>
          <ns3:TrackPointExtension>
            <ns3:atemp>16.0</ns3:atemp>
          </ns3:TrackPointExtension>
        </extensions>
      </trkpt>
      <trkpt lat="46.7595111764967441558837890625" lon="6.8940692581236362457275390625">
        <ele>357.600006103515625</ele>
        <time>2013-09-01T16:27:36.000Z</time>
        <extensions>
          <ns3:TrackPointExtension>
            <ns3:atemp>16.0</ns3:atemp>
          </ns3:TrackPointExtension>
        </extensions>
      </trkpt>
      <trkpt lat="46.75955316983163356781005859375" lon="6.89402609132230281829833984375">
        <ele>357.20001220703125</ele>
        <time>2013-09-01T16:27:37.000Z</time>
        <extensions>
          <ns3:TrackPointExtension>
            <ns3:atemp>16.0</ns3:atemp>
          </ns3:TrackPointExtension>
        </extensions>
      </trkpt>
      <trkpt lat="46.75959189422428607940673828125" lon="6.89402944408357143402099609375">
        <ele>356.20001220703125</ele>
        <time>2013-09-01T16:27:38.000Z</time>
        <extensions>
          <ns3:TrackPointExtension>
            <ns3:atemp>16.0</ns3:atemp>
          </ns3:TrackPointExtension>
        </extensions>
      </trkpt>
      <trkpt lat="46.7596241645514965057373046875" lon="6.89407420344650745391845703125">
        <ele>355.79998779296875</ele>
        <time>2013-09-01T16:27:39.000Z</time>
        <extensions>
          <ns3:TrackPointExtension>
            <ns3:atemp>16.0</ns3:atemp>
          </ns3:TrackPointExtension>
        </extensions>
      </trkpt>
      <trkpt lat="46.75965962000191211700439453125" lon="6.8941309489309787750244140625">
        <ele>356</ele>
        <time>2013-09-01T16:27:40.000Z</time>
        <extensions>
          <ns3:TrackPointExtension>
            <ns3:atemp>16.0</ns3:atemp>
          </ns3:TrackPointExtension>
        </extensions>
      </trkpt>
      <trkpt lat="46.7597016133368015289306640625" lon="6.89418819732964038848876953125">
        <ele>356</ele>
        <time>2013-09-01T16:27:41.000Z</time>
        <extensions>
          <ns3:TrackPointExtension>
            <ns3:atemp>16.0</ns3:atemp>
          </ns3:TrackPointExtension>
        </extensions>
      </trkpt>
      <trkpt lat="46.759747378528118133544921875" lon="6.89424888230860233306884765625">
        <ele>356</ele>
        <time>2013-09-01T16:27:42.000Z</time>
        <extensions>
          <ns3:TrackPointExtension>
            <ns3:atemp>16.0</ns3:atemp>
          </ns3:TrackPointExtension>
        </extensions>
      </trkpt>
      <trkpt lat="46.75979389809072017669677734375" lon="6.89430839382112026214599609375">
        <ele>356</ele>
        <time>2013-09-01T16:27:43.000Z</time>
        <extensions>
          <ns3:TrackPointExtension>
            <ns3:atemp>17.0</ns3:atemp>
          </ns3:TrackPointExtension>
        </extensions>
      </trkpt>
      <trkpt lat="46.75984016619622707366943359375" lon="6.89436681568622589111328125">
        <ele>356.20001220703125</ele>
        <time>2013-09-01T16:27:44.000Z</time>
        <extensions>
          <ns3:TrackPointExtension>
            <ns3:atemp>17.0</ns3:atemp>
          </ns3:TrackPointExtension>
        </extensions>
      </trkpt>
      <trkpt lat="46.75988676957786083221435546875" lon="6.89441517926752567291259765625">
        <ele>356.399993896484375</ele>
        <time>2013-09-01T16:27:45.000Z</time>
        <extensions>
          <ns3:TrackPointExtension>
            <ns3:atemp>17.0</ns3:atemp>
          </ns3:TrackPointExtension>
        </extensions>
      </trkpt>
      <trkpt lat="46.759933792054653167724609375" lon="6.89443529583513736724853515625">
        <ele>356.600006103515625</ele>
        <time>2013-09-01T16:27:46.000Z</time>
        <extensions>
          <ns3:TrackPointExtension>
            <ns3:atemp>17.0</ns3:atemp>
          </ns3:TrackPointExtension>
        </extensions>
      </trkpt>
      <trkpt lat="46.75997997634112834930419921875" lon="6.89441719092428684234619140625">
        <ele>356.20001220703125</ele>
        <time>2013-09-01T16:27:47.000Z</time>
        <extensions>
          <ns3:TrackPointExtension>
            <ns3:atemp>17.0</ns3:atemp>
          </ns3:TrackPointExtension>
        </extensions>
      </trkpt>
      <trkpt lat="46.760018952190876007080078125" lon="6.8943648040294647216796875">
        <ele>355.399993896484375</ele>
        <time>2013-09-01T16:27:48.000Z</time>
        <extensions>
          <ns3:TrackPointExtension>
            <ns3:atemp>17.0</ns3:atemp>
          </ns3:TrackPointExtension>
        </extensions>
      </trkpt>
      <trkpt lat="46.76005088724195957183837890625" lon="6.89429665915668010711669921875">
        <ele>355</ele>
        <time>2013-09-01T16:27:49.000Z</time>
        <extensions>
          <ns3:TrackPointExtension>
            <ns3:atemp>17.0</ns3:atemp>
          </ns3:TrackPointExtension>
        </extensions>
      </trkpt>
      <trkpt lat="46.76008391194045543670654296875" lon="6.894228346645832061767578125">
        <ele>355.20001220703125</ele>
        <time>2013-09-01T16:27:50.000Z</time>
        <extensions>
          <ns3:TrackPointExtension>
            <ns3:atemp>17.0</ns3:atemp>
          </ns3:TrackPointExtension>
        </extensions>
      </trkpt>
      <trkpt lat="46.76012095995247364044189453125" lon="6.89416305162012577056884765625">
        <ele>355</ele>
        <time>2013-09-01T16:27:51.000Z</time>
        <extensions>
          <ns3:TrackPointExtension>
            <ns3:atemp>17.0</ns3:atemp>
          </ns3:TrackPointExtension>
        </extensions>
      </trkpt>
      <trkpt lat="46.76015851087868213653564453125" lon="6.89409725368022918701171875">
        <ele>355.20001220703125</ele>
        <time>2013-09-01T16:27:52.000Z</time>
        <extensions>
          <ns3:TrackPointExtension>
            <ns3:atemp>17.0</ns3:atemp>
          </ns3:TrackPointExtension>
        </extensions>
      </trkpt>
      <trkpt lat="46.7601964809000492095947265625" lon="6.89402894116938114166259765625">
        <ele>355.20001220703125</ele>
        <time>2013-09-01T16:27:53.000Z</time>
        <extensions>
          <ns3:TrackPointExtension>
            <ns3:atemp>17.0</ns3:atemp>
          </ns3:TrackPointExtension>
        </extensions>
      </trkpt>
      <trkpt lat="46.7602358758449554443359375" lon="6.89396020956337451934814453125">
        <ele>355.399993896484375</ele>
        <time>2013-09-01T16:27:54.000Z</time>
        <extensions>
          <ns3:TrackPointExtension>
            <ns3:atemp>17.0</ns3:atemp>
          </ns3:TrackPointExtension>
        </extensions>
      </trkpt>
      <trkpt lat="46.7602769471704959869384765625" lon="6.89389181323349475860595703125">
        <ele>355.20001220703125</ele>
        <time>2013-09-01T16:27:55.000Z</time>
        <extensions>
          <ns3:TrackPointExtension>
            <ns3:atemp>17.0</ns3:atemp>
          </ns3:TrackPointExtension>
        </extensions>
      </trkpt>
      <trkpt lat="46.76031759940087795257568359375" lon="6.8938235007226467132568359375">
        <ele>355</ele>
        <time>2013-09-01T16:27:56.000Z</time>
        <extensions>
          <ns3:TrackPointExtension>
            <ns3:atemp>17.0</ns3:atemp>
          </ns3:TrackPointExtension>
        </extensions>
      </trkpt>
      <trkpt lat="46.76035917364060878753662109375" lon="6.8937544338405132293701171875">
        <ele>355</ele>
        <time>2013-09-01T16:27:57.000Z</time>
        <extensions>
          <ns3:TrackPointExtension>
            <ns3:atemp>17.0</ns3:atemp>
          </ns3:TrackPointExtension>
        </extensions>
      </trkpt>
      <trkpt lat="46.760400831699371337890625" lon="6.8936862051486968994140625">
        <ele>354.600006103515625</ele>
        <time>2013-09-01T16:27:58.000Z</time>
        <extensions>
          <ns3:TrackPointExtension>
            <ns3:atemp>17.0</ns3:atemp>
          </ns3:TrackPointExtension>
        </extensions>
      </trkpt>
      <trkpt lat="46.7604405619204044342041015625" lon="6.89361956901848316192626953125">
        <ele>354.399993896484375</ele>
        <time>2013-09-01T16:27:59.000Z</time>
        <extensions>
          <ns3:TrackPointExtension>
            <ns3:atemp>17.0</ns3:atemp>
          </ns3:TrackPointExtension>
        </extensions>
      </trkpt>
      <trkpt lat="46.76048020832240581512451171875" lon="6.89355301670730113983154296875">
        <ele>354.399993896484375</ele>
        <time>2013-09-01T16:28:00.000Z</time>
        <extensions>
          <ns3:TrackPointExtension>
            <ns3:atemp>17.0</ns3:atemp>
          </ns3:TrackPointExtension>
        </extensions>
      </trkpt>
      <trkpt lat="46.76052220165729522705078125" lon="6.89348445273935794830322265625">
        <ele>354.399993896484375</ele>
        <time>2013-09-01T16:28:01.000Z</time>
        <extensions>
          <ns3:TrackPointExtension>
            <ns3:atemp>17.0</ns3:atemp>
          </ns3:TrackPointExtension>
        </extensions>
      </trkpt>
      <trkpt lat="46.760563440620899200439453125" lon="6.89341689459979534149169921875">
        <ele>354.20001220703125</ele>
        <time>2013-09-01T16:28:02.000Z</time>
        <extensions>
          <ns3:TrackPointExtension>
            <ns3:atemp>17.0</ns3:atemp>
          </ns3:TrackPointExtension>
        </extensions>
      </trkpt>
      <trkpt lat="46.76060543395578861236572265625" lon="6.89334967173635959625244140625">
        <ele>354.399993896484375</ele>
        <time>2013-09-01T16:28:03.000Z</time>
        <extensions>
          <ns3:TrackPointExtension>
            <ns3:atemp>17.0</ns3:atemp>
          </ns3:TrackPointExtension>
        </extensions>
      </trkpt>
      <trkpt lat="46.7606474272906780242919921875" lon="6.89328186213970184326171875">
        <ele>354.399993896484375</ele>
        <time>2013-09-01T16:28:04.000Z</time>
        <extensions>
          <ns3:TrackPointExtension>
            <ns3:atemp>17.0</ns3:atemp>
          </ns3:TrackPointExtension>
        </extensions>
      </trkpt>
      <trkpt lat="46.760690174996852874755859375" lon="6.89321405254304409027099609375">
        <ele>354.20001220703125</ele>
        <time>2013-09-01T16:28:05.000Z</time>
        <extensions>
          <ns3:TrackPointExtension>
            <ns3:atemp>17.0</ns3:atemp>
          </ns3:TrackPointExtension>
        </extensions>
      </trkpt>
      <trkpt lat="46.76073015667498111724853515625" lon="6.89314599148929119110107421875">
        <ele>354.20001220703125</ele>
        <time>2013-09-01T16:28:06.000Z</time>
        <extensions>
          <ns3:TrackPointExtension>
            <ns3:atemp>17.0</ns3:atemp>
          </ns3:TrackPointExtension>
        </extensions>
      </trkpt>
      <trkpt lat="46.76076955161988735198974609375" lon="6.89307667315006256103515625">
        <ele>353.79998779296875</ele>
        <time>2013-09-01T16:28:07.000Z</time>
        <extensions>
          <ns3:TrackPointExtension>
            <ns3:atemp>17.0</ns3:atemp>
          </ns3:TrackPointExtension>
        </extensions>
      </trkpt>
      <trkpt lat="46.7608093656599521636962890625" lon="6.89300836063921451568603515625">
        <ele>353.79998779296875</ele>
        <time>2013-09-01T16:28:08.000Z</time>
        <extensions>
          <ns3:TrackPointExtension>
            <ns3:atemp>17.0</ns3:atemp>
          </ns3:TrackPointExtension>
        </extensions>
      </trkpt>
      <trkpt lat="46.7608495987951755523681640625" lon="6.892941556870937347412109375">
        <ele>353.79998779296875</ele>
        <time>2013-09-01T16:28:09.000Z</time>
        <extensions>
          <ns3:TrackPointExtension>
            <ns3:atemp>17.0</ns3:atemp>
          </ns3:TrackPointExtension>
        </extensions>
      </trkpt>
      <trkpt lat="46.76089008338749408721923828125" lon="6.8928761780261993408203125">
        <ele>354</ele>
        <time>2013-09-01T16:28:10.000Z</time>
        <extensions>
          <ns3:TrackPointExtension>
            <ns3:atemp>17.0</ns3:atemp>
          </ns3:TrackPointExtension>
        </extensions>
      </trkpt>
      <trkpt lat="46.7609304003417491912841796875" lon="6.89281239174306392669677734375">
        <ele>354.20001220703125</ele>
        <time>2013-09-01T16:28:11.000Z</time>
        <extensions>
          <ns3:TrackPointExtension>
            <ns3:atemp>17.0</ns3:atemp>
          </ns3:TrackPointExtension>
        </extensions>
      </trkpt>
      <trkpt lat="46.76097105257213115692138671875" lon="6.89274919219315052032470703125">
        <ele>354.20001220703125</ele>
        <time>2013-09-01T16:28:12.000Z</time>
        <extensions>
          <ns3:TrackPointExtension>
            <ns3:atemp>17.0</ns3:atemp>
          </ns3:TrackPointExtension>
        </extensions>
      </trkpt>
      <trkpt lat="46.76100977696478366851806640625" lon="6.89268515445291996002197265625">
        <ele>354.20001220703125</ele>
        <time>2013-09-01T16:28:13.000Z</time>
        <extensions>
          <ns3:TrackPointExtension>
            <ns3:atemp>17.0</ns3:atemp>
          </ns3:TrackPointExtension>
        </extensions>
      </trkpt>
      <trkpt lat="46.7610487528145313262939453125" lon="6.892626397311687469482421875">
        <ele>354.20001220703125</ele>
        <time>2013-09-01T16:28:14.000Z</time>
        <extensions>
          <ns3:TrackPointExtension>
            <ns3:atemp>17.0</ns3:atemp>
          </ns3:TrackPointExtension>
        </extensions>
      </trkpt>
      <trkpt lat="46.76109560765326023101806640625" lon="6.8925846554338932037353515625">
        <ele>354.20001220703125</ele>
        <time>2013-09-01T16:28:15.000Z</time>
        <extensions>
          <ns3:TrackPointExtension>
            <ns3:atemp>17.0</ns3:atemp>
          </ns3:TrackPointExtension>
        </extensions>
      </trkpt>
      <trkpt lat="46.7611490003764629364013671875" lon="6.8925776146352291107177734375">
        <ele>354.399993896484375</ele>
        <time>2013-09-01T16:28:16.000Z</time>
        <extensions>
          <ns3:TrackPointExtension>
            <ns3:atemp>17.0</ns3:atemp>
          </ns3:TrackPointExtension>
        </extensions>
      </trkpt>
      <trkpt lat="46.76120306365191936492919921875" lon="6.8926027603447437286376953125">
        <ele>354.399993896484375</ele>
        <time>2013-09-01T16:28:17.000Z</time>
        <extensions>
          <ns3:TrackPointExtension>
            <ns3:atemp>17.0</ns3:atemp>
          </ns3:TrackPointExtension>
        </extensions>
      </trkpt>
      <trkpt lat="46.7612551152706146240234375" lon="6.8926493637263774871826171875">
        <ele>354.79998779296875</ele>
        <time>2013-09-01T16:28:18.000Z</time>
        <extensions>
          <ns3:TrackPointExtension>
            <ns3:atemp>17.0</ns3:atemp>
          </ns3:TrackPointExtension>
        </extensions>
      </trkpt>
      <trkpt lat="46.7613033950328826904296875" lon="6.89270862378180027008056640625">
        <ele>354.79998779296875</ele>
        <time>2013-09-01T16:28:19.000Z</time>
        <extensions>
          <ns3:TrackPointExtension>
            <ns3:atemp>17.0</ns3:atemp>
          </ns3:TrackPointExtension>
        </extensions>
      </trkpt>
      <trkpt lat="46.7613518424332141876220703125" lon="6.89276754856109619140625">
        <ele>354.79998779296875</ele>
        <time>2013-09-01T16:28:20.000Z</time>
        <extensions>
          <ns3:TrackPointExtension>
            <ns3:atemp>17.0</ns3:atemp>
          </ns3:TrackPointExtension>
        </extensions>
      </trkpt>
      <trkpt lat="46.761401630938053131103515625" lon="6.8928267247974872589111328125">
        <ele>355</ele>
        <time>2013-09-01T16:28:21.000Z</time>
        <extensions>
          <ns3:TrackPointExtension>
            <ns3:atemp>17.0</ns3:atemp>
          </ns3:TrackPointExtension>
        </extensions>
      </trkpt>
      <trkpt lat="46.76145267672836780548095703125" lon="6.8928857333958148956298828125">
        <ele>355</ele>
        <time>2013-09-01T16:28:22.000Z</time>
        <extensions>
          <ns3:TrackPointExtension>
            <ns3:atemp>17.0</ns3:atemp>
          </ns3:TrackPointExtension>
        </extensions>
      </trkpt>
      <trkpt lat="46.76150581799447536468505859375" lon="6.89294122159481048583984375">
        <ele>355.20001220703125</ele>
        <time>2013-09-01T16:28:23.000Z</time>
        <extensions>
          <ns3:TrackPointExtension>
            <ns3:atemp>17.0</ns3:atemp>
          </ns3:TrackPointExtension>
        </extensions>
      </trkpt>
      <trkpt lat="46.76155946217477321624755859375" lon="6.892995871603488922119140625">
        <ele>355</ele>
        <time>2013-09-01T16:28:24.000Z</time>
        <extensions>
          <ns3:TrackPointExtension>
            <ns3:atemp>17.0</ns3:atemp>
          </ns3:TrackPointExtension>
        </extensions>
      </trkpt>
      <trkpt lat="46.76161226816475391387939453125" lon="6.89305446110665798187255859375">
        <ele>354.79998779296875</ele>
        <time>2013-09-01T16:28:25.000Z</time>
        <extensions>
          <ns3:TrackPointExtension>
            <ns3:atemp>17.0</ns3:atemp>
          </ns3:TrackPointExtension>
        </extensions>
      </trkpt>
      <trkpt lat="46.7616656608879566192626953125" lon="6.8931160680949687957763671875">
        <ele>354.600006103515625</ele>
        <time>2013-09-01T16:28:26.000Z</time>
        <extensions>
          <ns3:TrackPointExtension>
            <ns3:atemp>17.0</ns3:atemp>
          </ns3:TrackPointExtension>
        </extensions>
      </trkpt>
      <trkpt lat="46.7617209814488887786865234375" lon="6.8931770883500576019287109375">
        <ele>354.600006103515625</ele>
        <time>2013-09-01T16:28:27.000Z</time>
        <extensions>
          <ns3:TrackPointExtension>
            <ns3:atemp>17.0</ns3:atemp>
          </ns3:TrackPointExtension>
        </extensions>
      </trkpt>
      <trkpt lat="46.76177990622818470001220703125" lon="6.89323760569095611572265625">
        <ele>354.79998779296875</ele>
        <time>2013-09-01T16:28:28.000Z</time>
        <extensions>
          <ns3:TrackPointExtension>
            <ns3:atemp>17.0</ns3:atemp>
          </ns3:TrackPointExtension>
        </extensions>
      </trkpt>
      <trkpt lat="46.76183925010263919830322265625" lon="6.89329653047025203704833984375">
        <ele>354.79998779296875</ele>
        <time>2013-09-01T16:28:29.000Z</time>
        <extensions>
          <ns3:TrackPointExtension>
            <ns3:atemp>17.0</ns3:atemp>
          </ns3:TrackPointExtension>
        </extensions>
      </trkpt>
      <trkpt lat="46.76189809106290340423583984375" lon="6.89335486851632595062255859375">
        <ele>354.600006103515625</ele>
        <time>2013-09-01T16:28:30.000Z</time>
        <extensions>
          <ns3:TrackPointExtension>
            <ns3:atemp>17.0</ns3:atemp>
          </ns3:TrackPointExtension>
        </extensions>
      </trkpt>
      <trkpt lat="46.7619556747376918792724609375" lon="6.8934153020381927490234375">
        <ele>354.399993896484375</ele>
        <time>2013-09-01T16:28:31.000Z</time>
        <extensions>
          <ns3:TrackPointExtension>
            <ns3:atemp>17.0</ns3:atemp>
          </ns3:TrackPointExtension>
        </extensions>
      </trkpt>
      <trkpt lat="46.7620113305747509002685546875" lon="6.8934761546552181243896484375">
        <ele>354.20001220703125</ele>
        <time>2013-09-01T16:28:32.000Z</time>
        <extensions>
          <ns3:TrackPointExtension>
            <ns3:atemp>17.0</ns3:atemp>
          </ns3:TrackPointExtension>
        </extensions>
      </trkpt>
      <trkpt lat="46.76206723786890506744384765625" lon="6.8935365043580532073974609375">
        <ele>354</ele>
        <time>2013-09-01T16:28:33.000Z</time>
        <extensions>
          <ns3:TrackPointExtension>
            <ns3:atemp>17.0</ns3:atemp>
          </ns3:TrackPointExtension>
        </extensions>
      </trkpt>
      <trkpt lat="46.762123815715312957763671875" lon="6.89359526149928569793701171875">
        <ele>353.79998779296875</ele>
        <time>2013-09-01T16:28:34.000Z</time>
        <extensions>
          <ns3:TrackPointExtension>
            <ns3:atemp>17.0</ns3:atemp>
          </ns3:TrackPointExtension>
        </extensions>
      </trkpt>
      <trkpt lat="46.762180142104625701904296875" lon="6.89365209080278873443603515625">
        <ele>353.79998779296875</ele>
        <time>2013-09-01T16:28:35.000Z</time>
        <extensions>
          <ns3:TrackPointExtension>
            <ns3:atemp>17.0</ns3:atemp>
          </ns3:TrackPointExtension>
        </extensions>
      </trkpt>
      <trkpt lat="46.7622352950274944305419921875" lon="6.8937091715633869171142578125">
        <ele>353.79998779296875</ele>
        <time>2013-09-01T16:28:36.000Z</time>
        <extensions>
          <ns3:TrackPointExtension>
            <ns3:atemp>17.0</ns3:atemp>
          </ns3:TrackPointExtension>
        </extensions>
      </trkpt>
      <trkpt lat="46.76229002885520458221435546875" lon="6.89376792870461940765380859375">
        <ele>353.79998779296875</ele>
        <time>2013-09-01T16:28:37.000Z</time>
        <extensions>
          <ns3:TrackPointExtension>
            <ns3:atemp>17.0</ns3:atemp>
          </ns3:TrackPointExtension>
        </extensions>
      </trkpt>
      <trkpt lat="46.76234400831162929534912109375" lon="6.89382777549326419830322265625">
        <ele>353.79998779296875</ele>
        <time>2013-09-01T16:28:38.000Z</time>
        <extensions>
          <ns3:TrackPointExtension>
            <ns3:atemp>17.0</ns3:atemp>
          </ns3:TrackPointExtension>
        </extensions>
      </trkpt>
      <trkpt lat="46.76239865832030773162841796875" lon="6.89388862811028957366943359375">
        <ele>353.79998779296875</ele>
        <time>2013-09-01T16:28:39.000Z</time>
        <extensions>
          <ns3:TrackPointExtension>
            <ns3:atemp>17.0</ns3:atemp>
          </ns3:TrackPointExtension>
        </extensions>
      </trkpt>
      <trkpt lat="46.76245330832898616790771484375" lon="6.8939505703747272491455078125">
        <ele>353.600006103515625</ele>
        <time>2013-09-01T16:28:40.000Z</time>
        <extensions>
          <ns3:TrackPointExtension>
            <ns3:atemp>17.0</ns3:atemp>
          </ns3:TrackPointExtension>
        </extensions>
      </trkpt>
      <trkpt lat="46.76250661723315715789794921875" lon="6.894013769924640655517578125">
        <ele>353.600006103515625</ele>
        <time>2013-09-01T16:28:41.000Z</time>
        <extensions>
          <ns3:TrackPointExtension>
            <ns3:atemp>17.0</ns3:atemp>
          </ns3:TrackPointExtension>
        </extensions>
      </trkpt>
      <trkpt lat="46.7625591717660427093505859375" lon="6.8940778076648712158203125">
        <ele>353.399993896484375</ele>
        <time>2013-09-01T16:28:42.000Z</time>
        <extensions>
          <ns3:TrackPointExtension>
            <ns3:atemp>17.0</ns3:atemp>
          </ns3:TrackPointExtension>
        </extensions>
      </trkpt>
      <trkpt lat="46.76261289976537227630615234375" lon="6.8941410072147846221923828125">
        <ele>353.20001220703125</ele>
        <time>2013-09-01T16:28:43.000Z</time>
        <extensions>
          <ns3:TrackPointExtension>
            <ns3:atemp>17.0</ns3:atemp>
          </ns3:TrackPointExtension>
        </extensions>
      </trkpt>
      <trkpt lat="46.76266604103147983551025390625" lon="6.89420596696436405181884765625">
        <ele>353.20001220703125</ele>
        <time>2013-09-01T16:28:44.000Z</time>
        <extensions>
          <ns3:TrackPointExtension>
            <ns3:atemp>17.0</ns3:atemp>
          </ns3:TrackPointExtension>
        </extensions>
      </trkpt>
      <trkpt lat="46.76271893084049224853515625" lon="6.89426983706653118133544921875">
        <ele>353.20001220703125</ele>
        <time>2013-09-01T16:28:45.000Z</time>
        <extensions>
          <ns3:TrackPointExtension>
            <ns3:atemp>17.0</ns3:atemp>
          </ns3:TrackPointExtension>
        </extensions>
      </trkpt>
      <trkpt lat="46.762770898640155792236328125" lon="6.894333623349666595458984375">
        <ele>353.20001220703125</ele>
        <time>2013-09-01T16:28:46.000Z</time>
        <extensions>
          <ns3:TrackPointExtension>
            <ns3:atemp>17.0</ns3:atemp>
          </ns3:TrackPointExtension>
        </extensions>
      </trkpt>
      <trkpt lat="46.76282177679240703582763671875" lon="6.8943996727466583251953125">
        <ele>353.20001220703125</ele>
        <time>2013-09-01T16:28:47.000Z</time>
        <extensions>
          <ns3:TrackPointExtension>
            <ns3:atemp>17.0</ns3:atemp>
          </ns3:TrackPointExtension>
        </extensions>
      </trkpt>
      <trkpt lat="46.7628733254969120025634765625" lon="6.89446605741977691650390625">
        <ele>353.20001220703125</ele>
        <time>2013-09-01T16:28:48.000Z</time>
        <extensions>
          <ns3:TrackPointExtension>
            <ns3:atemp>17.0</ns3:atemp>
          </ns3:TrackPointExtension>
        </extensions>
      </trkpt>
      <trkpt lat="46.76292487420141696929931640625" lon="6.8945312686264514923095703125">
        <ele>353.20001220703125</ele>
        <time>2013-09-01T16:28:49.000Z</time>
        <extensions>
          <ns3:TrackPointExtension>
            <ns3:atemp>17.0</ns3:atemp>
          </ns3:TrackPointExtension>
        </extensions>
      </trkpt>
      <trkpt lat="46.76297684200108051300048828125" lon="6.8945969827473163604736328125">
        <ele>353.20001220703125</ele>
        <time>2013-09-01T16:28:50.000Z</time>
        <extensions>
          <ns3:TrackPointExtension>
            <ns3:atemp>17.0</ns3:atemp>
          </ns3:TrackPointExtension>
        </extensions>
      </trkpt>
      <trkpt lat="46.76302872598171234130859375" lon="6.89466227777302265167236328125">
        <ele>353</ele>
        <time>2013-09-01T16:28:51.000Z</time>
        <extensions>
          <ns3:TrackPointExtension>
            <ns3:atemp>17.0</ns3:atemp>
          </ns3:TrackPointExtension>
        </extensions>
      </trkpt>
      <trkpt lat="46.763079352676868438720703125" lon="6.89472748897969722747802734375">
        <ele>352.79998779296875</ele>
        <time>2013-09-01T16:28:52.000Z</time>
        <extensions>
          <ns3:TrackPointExtension>
            <ns3:atemp>17.0</ns3:atemp>
          </ns3:TrackPointExtension>
        </extensions>
      </trkpt>
      <trkpt lat="46.76312956027686595916748046875" lon="6.8947921134531497955322265625">
        <ele>352.79998779296875</ele>
        <time>2013-09-01T16:28:53.000Z</time>
        <extensions>
          <ns3:TrackPointExtension>
            <ns3:atemp>17.0</ns3:atemp>
          </ns3:TrackPointExtension>
        </extensions>
      </trkpt>
      <trkpt lat="46.763179600238800048828125" lon="6.894858665764331817626953125">
        <ele>352.600006103515625</ele>
        <time>2013-09-01T16:28:54.000Z</time>
        <extensions>
          <ns3:TrackPointExtension>
            <ns3:atemp>17.0</ns3:atemp>
          </ns3:TrackPointExtension>
        </extensions>
      </trkpt>
      <trkpt lat="46.76322913728654384613037109375" lon="6.89492647536098957061767578125">
        <ele>352.600006103515625</ele>
        <time>2013-09-01T16:28:55.000Z</time>
        <extensions>
          <ns3:TrackPointExtension>
            <ns3:atemp>17.0</ns3:atemp>
          </ns3:TrackPointExtension>
        </extensions>
      </trkpt>
      <trkpt lat="46.76327808760106563568115234375" lon="6.89499369822442531585693359375">
        <ele>352.600006103515625</ele>
        <time>2013-09-01T16:28:56.000Z</time>
        <extensions>
          <ns3:TrackPointExtension>
            <ns3:atemp>17.0</ns3:atemp>
          </ns3:TrackPointExtension>
        </extensions>
      </trkpt>
      <trkpt lat="46.76332837902009487152099609375" lon="6.89505957998335361480712890625">
        <ele>352.600006103515625</ele>
        <time>2013-09-01T16:28:57.000Z</time>
        <extensions>
          <ns3:TrackPointExtension>
            <ns3:atemp>17.0</ns3:atemp>
          </ns3:TrackPointExtension>
        </extensions>
      </trkpt>
      <trkpt lat="46.76337682642042636871337890625" lon="6.89512898214161396026611328125">
        <ele>352.600006103515625</ele>
        <time>2013-09-01T16:28:58.000Z</time>
        <extensions>
          <ns3:TrackPointExtension>
            <ns3:atemp>17.0</ns3:atemp>
          </ns3:TrackPointExtension>
        </extensions>
      </trkpt>
      <trkpt lat="46.76342435181140899658203125" lon="6.8952008150517940521240234375">
        <ele>352.600006103515625</ele>
        <time>2013-09-01T16:28:59.000Z</time>
        <extensions>
          <ns3:TrackPointExtension>
            <ns3:atemp>17.0</ns3:atemp>
          </ns3:TrackPointExtension>
        </extensions>
      </trkpt>
      <trkpt lat="46.76347263157367706298828125" lon="6.8952722288668155670166015625">
        <ele>352.79998779296875</ele>
        <time>2013-09-01T16:29:00.000Z</time>
        <extensions>
          <ns3:TrackPointExtension>
            <ns3:atemp>17.0</ns3:atemp>
          </ns3:TrackPointExtension>
        </extensions>
      </trkpt>
      <trkpt lat="46.76352024078369140625" lon="6.895344816148281097412109375">
        <ele>352.79998779296875</ele>
        <time>2013-09-01T16:29:01.000Z</time>
        <extensions>
          <ns3:TrackPointExtension>
            <ns3:atemp>17.0</ns3:atemp>
          </ns3:TrackPointExtension>
        </extensions>
      </trkpt>
      <trkpt lat="46.76356810145080089569091796875" lon="6.89541715197265148162841796875">
        <ele>352.79998779296875</ele>
        <time>2013-09-01T16:29:02.000Z</time>
        <extensions>
          <ns3:TrackPointExtension>
            <ns3:atemp>17.0</ns3:atemp>
          </ns3:TrackPointExtension>
        </extensions>
      </trkpt>
      <trkpt lat="46.7636168003082275390625" lon="6.89548990689218044281005859375">
        <ele>352.600006103515625</ele>
        <time>2013-09-01T16:29:03.000Z</time>
        <extensions>
          <ns3:TrackPointExtension>
            <ns3:atemp>17.0</ns3:atemp>
          </ns3:TrackPointExtension>
        </extensions>
      </trkpt>
      <trkpt lat="46.7636665888130664825439453125" lon="6.8955635838210582733154296875">
        <ele>352.399993896484375</ele>
        <time>2013-09-01T16:29:04.000Z</time>
        <extensions>
          <ns3:TrackPointExtension>
            <ns3:atemp>17.0</ns3:atemp>
          </ns3:TrackPointExtension>
        </extensions>
      </trkpt>
      <trkpt lat="46.7637168802320957183837890625" lon="6.8956356681883335113525390625">
        <ele>352.399993896484375</ele>
        <time>2013-09-01T16:29:05.000Z</time>
        <extensions>
          <ns3:TrackPointExtension>
            <ns3:atemp>17.0</ns3:atemp>
          </ns3:TrackPointExtension>
        </extensions>
      </trkpt>
      <trkpt lat="46.763767339289188385009765625" lon="6.89570632763206958770751953125">
        <ele>352.20001220703125</ele>
        <time>2013-09-01T16:29:06.000Z</time>
        <extensions>
          <ns3:TrackPointExtension>
            <ns3:atemp>17.0</ns3:atemp>
          </ns3:TrackPointExtension>
        </extensions>
      </trkpt>
      <trkpt lat="46.763816960155963897705078125" lon="6.89577589742839336395263671875">
        <ele>352.20001220703125</ele>
        <time>2013-09-01T16:29:07.000Z</time>
        <extensions>
          <ns3:TrackPointExtension>
            <ns3:atemp>17.0</ns3:atemp>
          </ns3:TrackPointExtension>
        </extensions>
      </trkpt>
      <trkpt lat="46.76386498846113681793212890625" lon="6.8958462215960025787353515625">
        <ele>352.20001220703125</ele>
        <time>2013-09-01T16:29:08.000Z</time>
        <extensions>
          <ns3:TrackPointExtension>
            <ns3:atemp>17.0</ns3:atemp>
          </ns3:TrackPointExtension>
        </extensions>
      </trkpt>
      <trkpt lat="46.7639113403856754302978515625" lon="6.8959176354110240936279296875">
        <ele>352.20001220703125</ele>
        <time>2013-09-01T16:29:09.000Z</time>
        <extensions>
          <ns3:TrackPointExtension>
            <ns3:atemp>17.0</ns3:atemp>
          </ns3:TrackPointExtension>
        </extensions>
      </trkpt>
      <trkpt lat="46.7639562673866748809814453125" lon="6.89599164761602878570556640625">
        <ele>352.399993896484375</ele>
        <time>2013-09-01T16:29:10.000Z</time>
        <extensions>
          <ns3:TrackPointExtension>
            <ns3:atemp>17.0</ns3:atemp>
          </ns3:TrackPointExtension>
        </extensions>
      </trkpt>
      <trkpt lat="46.76400295458734035491943359375" lon="6.896064318716526031494140625">
        <ele>352.399993896484375</ele>
        <time>2013-09-01T16:29:11.000Z</time>
        <extensions>
          <ns3:TrackPointExtension>
            <ns3:atemp>17.0</ns3:atemp>
          </ns3:TrackPointExtension>
        </extensions>
      </trkpt>
      <trkpt lat="46.76404955796897411346435546875" lon="6.89613640308380126953125">
        <ele>352.399993896484375</ele>
        <time>2013-09-01T16:29:12.000Z</time>
        <extensions>
          <ns3:TrackPointExtension>
            <ns3:atemp>17.0</ns3:atemp>
          </ns3:TrackPointExtension>
        </extensions>
      </trkpt>
      <trkpt lat="46.7640947364270687103271484375" lon="6.8962140195071697235107421875">
        <ele>352.600006103515625</ele>
        <time>2013-09-01T16:29:13.000Z</time>
        <extensions>
          <ns3:TrackPointExtension>
            <ns3:atemp>17.0</ns3:atemp>
          </ns3:TrackPointExtension>
        </extensions>
      </trkpt>
      <trkpt lat="46.76413941197097301483154296875" lon="6.8962914682924747467041015625">
        <ele>352.399993896484375</ele>
        <time>2013-09-01T16:29:14.000Z</time>
        <extensions>
          <ns3:TrackPointExtension>
            <ns3:atemp>17.0</ns3:atemp>
          </ns3:TrackPointExtension>
        </extensions>
      </trkpt>
      <trkpt lat="46.7641845904290676116943359375" lon="6.89636849798262119293212890625">
        <ele>352.20001220703125</ele>
        <time>2013-09-01T16:29:15.000Z</time>
        <extensions>
          <ns3:TrackPointExtension>
            <ns3:atemp>17.0</ns3:atemp>
          </ns3:TrackPointExtension>
        </extensions>
      </trkpt>
      <trkpt lat="46.76422943361103534698486328125" lon="6.89644628204405307769775390625">
        <ele>352.20001220703125</ele>
        <time>2013-09-01T16:29:16.000Z</time>
        <extensions>
          <ns3:TrackPointExtension>
            <ns3:atemp>17.0</ns3:atemp>
          </ns3:TrackPointExtension>
        </extensions>
      </trkpt>
      <trkpt lat="46.76427553407847881317138671875" lon="6.89652389846742153167724609375">
        <ele>352</ele>
        <time>2013-09-01T16:29:17.000Z</time>
        <extensions>
          <ns3:TrackPointExtension>
            <ns3:atemp>17.0</ns3:atemp>
          </ns3:TrackPointExtension>
        </extensions>
      </trkpt>
      <trkpt lat="46.76432364620268344879150390625" lon="6.89659782685339450836181640625">
        <ele>351.79998779296875</ele>
        <time>2013-09-01T16:29:18.000Z</time>
        <extensions>
          <ns3:TrackPointExtension>
            <ns3:atemp>17.0</ns3:atemp>
          </ns3:TrackPointExtension>
        </extensions>
      </trkpt>
      <trkpt lat="46.7643706686794757843017578125" lon="6.89667309634387493133544921875">
        <ele>352</ele>
        <time>2013-09-01T16:29:19.000Z</time>
        <extensions>
          <ns3:TrackPointExtension>
            <ns3:atemp>17.0</ns3:atemp>
          </ns3:TrackPointExtension>
        </extensions>
      </trkpt>
      <trkpt lat="46.76441752351820468902587890625" lon="6.89675088040530681610107421875">
        <ele>352</ele>
        <time>2013-09-01T16:29:20.000Z</time>
        <extensions>
          <ns3:TrackPointExtension>
            <ns3:atemp>17.0</ns3:atemp>
          </ns3:TrackPointExtension>
        </extensions>
      </trkpt>
      <trkpt lat="46.76446395926177501678466796875" lon="6.89682866446673870086669921875">
        <ele>352.20001220703125</ele>
        <time>2013-09-01T16:29:21.000Z</time>
        <extensions>
          <ns3:TrackPointExtension>
            <ns3:atemp>17.0</ns3:atemp>
          </ns3:TrackPointExtension>
        </extensions>
      </trkpt>
      <trkpt lat="46.7645104788243770599365234375" lon="6.8969040177762508392333984375">
        <ele>352.20001220703125</ele>
        <time>2013-09-01T16:29:22.000Z</time>
        <extensions>
          <ns3:TrackPointExtension>
            <ns3:atemp>17.0</ns3:atemp>
          </ns3:TrackPointExtension>
        </extensions>
      </trkpt>
      <trkpt lat="46.76455750130116939544677734375" lon="6.8969794549047946929931640625">
        <ele>352.20001220703125</ele>
        <time>2013-09-01T16:29:23.000Z</time>
        <extensions>
          <ns3:TrackPointExtension>
            <ns3:atemp>17.0</ns3:atemp>
          </ns3:TrackPointExtension>
        </extensions>
      </trkpt>
      <trkpt lat="46.76460309885442256927490234375" lon="6.89705665223300457000732421875">
        <ele>352</ele>
        <time>2013-09-01T16:29:24.000Z</time>
        <extensions>
          <ns3:TrackPointExtension>
            <ns3:atemp>17.0</ns3:atemp>
          </ns3:TrackPointExtension>
        </extensions>
      </trkpt>
      <trkpt lat="46.76464903168380260467529296875" lon="6.89713460393249988555908203125">
        <ele>352</ele>
        <time>2013-09-01T16:29:25.000Z</time>
        <extensions>
          <ns3:TrackPointExtension>
            <ns3:atemp>17.0</ns3:atemp>
          </ns3:TrackPointExtension>
        </extensions>
      </trkpt>
      <trkpt lat="46.76469697616994380950927734375" lon="6.897211633622646331787109375">
        <ele>352</ele>
        <time>2013-09-01T16:29:26.000Z</time>
        <extensions>
          <ns3:TrackPointExtension>
            <ns3:atemp>17.0</ns3:atemp>
          </ns3:TrackPointExtension>
        </extensions>
      </trkpt>
      <trkpt lat="46.76474425010383129119873046875" lon="6.897287070751190185546875">
        <ele>352</ele>
        <time>2013-09-01T16:29:27.000Z</time>
        <extensions>
          <ns3:TrackPointExtension>
            <ns3:atemp>17.0</ns3:atemp>
          </ns3:TrackPointExtension>
        </extensions>
      </trkpt>
      <trkpt lat="46.764791272580623626708984375" lon="6.89736141823232173919677734375">
        <ele>352</ele>
        <time>2013-09-01T16:29:28.000Z</time>
        <extensions>
          <ns3:TrackPointExtension>
            <ns3:atemp>17.0</ns3:atemp>
          </ns3:TrackPointExtension>
        </extensions>
      </trkpt>
      <trkpt lat="46.76483779214322566986083984375" lon="6.89743501134216785430908203125">
        <ele>352</ele>
        <time>2013-09-01T16:29:29.000Z</time>
        <extensions>
          <ns3:TrackPointExtension>
            <ns3:atemp>17.0</ns3:atemp>
          </ns3:TrackPointExtension>
        </extensions>
      </trkpt>
      <trkpt lat="46.76488271914422512054443359375" lon="6.897509358823299407958984375">
        <ele>352</ele>
        <time>2013-09-01T16:29:30.000Z</time>
        <extensions>
          <ns3:TrackPointExtension>
            <ns3:atemp>17.0</ns3:atemp>
          </ns3:TrackPointExtension>
        </extensions>
      </trkpt>
      <trkpt lat="46.7649292387068271636962890625" lon="6.8975834548473358154296875">
        <ele>352</ele>
        <time>2013-09-01T16:29:31.000Z</time>
        <extensions>
          <ns3:TrackPointExtension>
            <ns3:atemp>17.0</ns3:atemp>
          </ns3:TrackPointExtension>
        </extensions>
      </trkpt>
      <trkpt lat="46.76497592590749263763427734375" lon="6.89765654504299163818359375">
        <ele>352</ele>
        <time>2013-09-01T16:29:32.000Z</time>
        <extensions>
          <ns3:TrackPointExtension>
            <ns3:atemp>17.0</ns3:atemp>
          </ns3:TrackPointExtension>
        </extensions>
      </trkpt>
      <trkpt lat="46.7650224454700946807861328125" lon="6.89773072488605976104736328125">
        <ele>351.79998779296875</ele>
        <time>2013-09-01T16:29:33.000Z</time>
        <extensions>
          <ns3:TrackPointExtension>
            <ns3:atemp>17.0</ns3:atemp>
          </ns3:TrackPointExtension>
        </extensions>
      </trkpt>
      <trkpt lat="46.76506678573787212371826171875" lon="6.8978045694530010223388671875">
        <ele>352</ele>
        <time>2013-09-01T16:29:34.000Z</time>
        <extensions>
          <ns3:TrackPointExtension>
            <ns3:atemp>17.0</ns3:atemp>
          </ns3:TrackPointExtension>
        </extensions>
      </trkpt>
      <trkpt lat="46.76511271856725215911865234375" lon="6.897876150906085968017578125">
        <ele>351.79998779296875</ele>
        <time>2013-09-01T16:29:35.000Z</time>
        <extensions>
          <ns3:TrackPointExtension>
            <ns3:atemp>17.0</ns3:atemp>
          </ns3:TrackPointExtension>
        </extensions>
      </trkpt>
      <trkpt lat="46.7651592381298542022705078125" lon="6.89794882200658321380615234375">
        <ele>351.79998779296875</ele>
        <time>2013-09-01T16:29:36.000Z</time>
        <extensions>
          <ns3:TrackPointExtension>
            <ns3:atemp>17.0</ns3:atemp>
          </ns3:TrackPointExtension>
        </extensions>
      </trkpt>
      <trkpt lat="46.76520676352083683013916015625" lon="6.8980208225548267364501953125">
        <ele>351.79998779296875</ele>
        <time>2013-09-01T16:29:37.000Z</time>
        <extensions>
          <ns3:TrackPointExtension>
            <ns3:atemp>17.0</ns3:atemp>
          </ns3:TrackPointExtension>
        </extensions>
      </trkpt>
      <trkpt lat="46.76525370217859745025634765625" lon="6.89809114672243595123291015625">
        <ele>351.600006103515625</ele>
        <time>2013-09-01T16:29:38.000Z</time>
        <extensions>
          <ns3:TrackPointExtension>
            <ns3:atemp>17.0</ns3:atemp>
          </ns3:TrackPointExtension>
        </extensions>
      </trkpt>
      <trkpt lat="46.7652998864650726318359375" lon="6.898160465061664581298828125">
        <ele>351.600006103515625</ele>
        <time>2013-09-01T16:29:39.000Z</time>
        <extensions>
          <ns3:TrackPointExtension>
            <ns3:atemp>17.0</ns3:atemp>
          </ns3:TrackPointExtension>
        </extensions>
      </trkpt>
      <trkpt lat="46.76534615457057952880859375" lon="6.898231208324432373046875">
        <ele>351.600006103515625</ele>
        <time>2013-09-01T16:29:40.000Z</time>
        <extensions>
          <ns3:TrackPointExtension>
            <ns3:atemp>17.0</ns3:atemp>
          </ns3:TrackPointExtension>
        </extensions>
      </trkpt>
      <trkpt lat="46.76539351232349872589111328125" lon="6.898301951587200164794921875">
        <ele>351.600006103515625</ele>
        <time>2013-09-01T16:29:41.000Z</time>
        <extensions>
          <ns3:TrackPointExtension>
            <ns3:atemp>17.0</ns3:atemp>
          </ns3:TrackPointExtension>
        </extensions>
      </trkpt>
      <trkpt lat="46.76544078625738620758056640625" lon="6.89837244339287281036376953125">
        <ele>351.79998779296875</ele>
        <time>2013-09-01T16:29:42.000Z</time>
        <extensions>
          <ns3:TrackPointExtension>
            <ns3:atemp>17.0</ns3:atemp>
          </ns3:TrackPointExtension>
        </extensions>
      </trkpt>
      <trkpt lat="46.76548755727708339691162109375" lon="6.8984425999224185943603515625">
        <ele>351.79998779296875</ele>
        <time>2013-09-01T16:29:43.000Z</time>
        <extensions>
          <ns3:TrackPointExtension>
            <ns3:atemp>17.0</ns3:atemp>
          </ns3:TrackPointExtension>
        </extensions>
      </trkpt>
      <trkpt lat="46.76553416065871715545654296875" lon="6.89851258881390094757080078125">
        <ele>351.79998779296875</ele>
        <time>2013-09-01T16:29:44.000Z</time>
        <extensions>
          <ns3:TrackPointExtension>
            <ns3:atemp>17.0</ns3:atemp>
          </ns3:TrackPointExtension>
        </extensions>
      </trkpt>
      <trkpt lat="46.7655800096690654754638671875" lon="6.89858349971473217010498046875">
        <ele>351.399993896484375</ele>
        <time>2013-09-01T16:29:45.000Z</time>
        <extensions>
          <ns3:TrackPointExtension>
            <ns3:atemp>17.0</ns3:atemp>
          </ns3:TrackPointExtension>
        </extensions>
      </trkpt>
      <trkpt lat="46.765627451241016387939453125" lon="6.89865298569202423095703125">
        <ele>351.20001220703125</ele>
        <time>2013-09-01T16:29:46.000Z</time>
        <extensions>
          <ns3:TrackPointExtension>
            <ns3:atemp>17.0</ns3:atemp>
          </ns3:TrackPointExtension>
        </extensions>
      </trkpt>
      <trkpt lat="46.76567564718425273895263671875" lon="6.8987222202122211456298828125">
        <ele>351.399993896484375</ele>
        <time>2013-09-01T16:29:47.000Z</time>
        <extensions>
          <ns3:TrackPointExtension>
            <ns3:atemp>17.0</ns3:atemp>
          </ns3:TrackPointExtension>
        </extensions>
      </trkpt>
      <trkpt lat="46.76572325639426708221435546875" lon="6.898790113627910614013671875">
        <ele>351.399993896484375</ele>
        <time>2013-09-01T16:29:48.000Z</time>
        <extensions>
          <ns3:TrackPointExtension>
            <ns3:atemp>17.0</ns3:atemp>
          </ns3:TrackPointExtension>
        </extensions>
      </trkpt>
      <trkpt lat="46.76577120088040828704833984375" lon="6.8988590128719806671142578125">
        <ele>351.399993896484375</ele>
        <time>2013-09-01T16:29:49.000Z</time>
        <extensions>
          <ns3:TrackPointExtension>
            <ns3:atemp>17.0</ns3:atemp>
          </ns3:TrackPointExtension>
        </extensions>
      </trkpt>
      <trkpt lat="46.76581956446170806884765625" lon="6.89892883412539958953857421875">
        <ele>351.20001220703125</ele>
        <time>2013-09-01T16:29:50.000Z</time>
        <extensions>
          <ns3:TrackPointExtension>
            <ns3:atemp>17.0</ns3:atemp>
          </ns3:TrackPointExtension>
        </extensions>
      </trkpt>
      <trkpt lat="46.7658670060336589813232421875" lon="6.898997984826564788818359375">
        <ele>351.20001220703125</ele>
        <time>2013-09-01T16:29:51.000Z</time>
        <extensions>
          <ns3:TrackPointExtension>
            <ns3:atemp>17.0</ns3:atemp>
          </ns3:TrackPointExtension>
        </extensions>
      </trkpt>
      <trkpt lat="46.76591553725302219390869140625" lon="6.8990658782422542572021484375">
        <ele>351.20001220703125</ele>
        <time>2013-09-01T16:29:52.000Z</time>
        <extensions>
          <ns3:TrackPointExtension>
            <ns3:atemp>17.0</ns3:atemp>
          </ns3:TrackPointExtension>
        </extensions>
      </trkpt>
      <trkpt lat="46.765964068472385406494140625" lon="6.89913217909634113311767578125">
        <ele>351.20001220703125</ele>
        <time>2013-09-01T16:29:53.000Z</time>
        <extensions>
          <ns3:TrackPointExtension>
            <ns3:atemp>17.0</ns3:atemp>
          </ns3:TrackPointExtension>
        </extensions>
      </trkpt>
      <trkpt lat="46.766013018786907196044921875" lon="6.8991993181407451629638671875">
        <ele>351</ele>
        <time>2013-09-01T16:29:54.000Z</time>
        <extensions>
          <ns3:TrackPointExtension>
            <ns3:atemp>17.0</ns3:atemp>
          </ns3:TrackPointExtension>
        </extensions>
      </trkpt>
      <trkpt lat="46.766061969101428985595703125" lon="6.89926696009933948516845703125">
        <ele>351</ele>
        <time>2013-09-01T16:29:55.000Z</time>
        <extensions>
          <ns3:TrackPointExtension>
            <ns3:atemp>17.0</ns3:atemp>
          </ns3:TrackPointExtension>
        </extensions>
      </trkpt>
      <trkpt lat="46.76611066795885562896728515625" lon="6.89933426678180694580078125">
        <ele>350.79998779296875</ele>
        <time>2013-09-01T16:29:56.000Z</time>
        <extensions>
          <ns3:TrackPointExtension>
            <ns3:atemp>17.0</ns3:atemp>
          </ns3:TrackPointExtension>
        </extensions>
      </trkpt>
      <trkpt lat="46.7661608755588531494140625" lon="6.89940090291202068328857421875">
        <ele>350.79998779296875</ele>
        <time>2013-09-01T16:29:57.000Z</time>
        <extensions>
          <ns3:TrackPointExtension>
            <ns3:atemp>17.0</ns3:atemp>
          </ns3:TrackPointExtension>
        </extensions>
      </trkpt>
      <trkpt lat="46.76621074788272380828857421875" lon="6.8994675390422344207763671875">
        <ele>350.79998779296875</ele>
        <time>2013-09-01T16:29:58.000Z</time>
        <extensions>
          <ns3:TrackPointExtension>
            <ns3:atemp>17.0</ns3:atemp>
          </ns3:TrackPointExtension>
        </extensions>
      </trkpt>
      <trkpt lat="46.76625969819724559783935546875" lon="6.8995334208011627197265625">
        <ele>351</ele>
        <time>2013-09-01T16:29:59.000Z</time>
        <extensions>
          <ns3:TrackPointExtension>
            <ns3:atemp>17.0</ns3:atemp>
          </ns3:TrackPointExtension>
        </extensions>
      </trkpt>
      <trkpt lat="46.7663099057972431182861328125" lon="6.89959955401718616485595703125">
        <ele>351</ele>
        <time>2013-09-01T16:30:00.000Z</time>
        <extensions>
          <ns3:TrackPointExtension>
            <ns3:atemp>17.0</ns3:atemp>
          </ns3:TrackPointExtension>
        </extensions>
      </trkpt>
      <trkpt lat="46.76636061631143093109130859375" lon="6.89966459758579730987548828125">
        <ele>351</ele>
        <time>2013-09-01T16:30:01.000Z</time>
        <extensions>
          <ns3:TrackPointExtension>
            <ns3:atemp>17.0</ns3:atemp>
          </ns3:TrackPointExtension>
        </extensions>
      </trkpt>
      <trkpt lat="46.766411326825618743896484375" lon="6.8997290544211864471435546875">
        <ele>350.79998779296875</ele>
        <time>2013-09-01T16:30:02.000Z</time>
        <extensions>
          <ns3:TrackPointExtension>
            <ns3:atemp>17.0</ns3:atemp>
          </ns3:TrackPointExtension>
        </extensions>
      </trkpt>
      <trkpt lat="46.76646170206367969512939453125" lon="6.899792253971099853515625">
        <ele>350.79998779296875</ele>
        <time>2013-09-01T16:30:03.000Z</time>
        <extensions>
          <ns3:TrackPointExtension>
            <ns3:atemp>17.0</ns3:atemp>
          </ns3:TrackPointExtension>
        </extensions>
      </trkpt>
      <trkpt lat="46.76651199348270893096923828125" lon="6.89985503442585468292236328125">
        <ele>350.600006103515625</ele>
        <time>2013-09-01T16:30:04.000Z</time>
        <extensions>
          <ns3:TrackPointExtension>
            <ns3:atemp>17.0</ns3:atemp>
          </ns3:TrackPointExtension>
        </extensions>
      </trkpt>
      <trkpt lat="46.76656295545399188995361328125" lon="6.89991907216608524322509765625">
        <ele>350.600006103515625</ele>
        <time>2013-09-01T16:30:05.000Z</time>
        <extensions>
          <ns3:TrackPointExtension>
            <ns3:atemp>17.0</ns3:atemp>
          </ns3:TrackPointExtension>
        </extensions>
      </trkpt>
      <trkpt lat="46.76661576144397258758544921875" lon="6.899981014430522918701171875">
        <ele>350.79998779296875</ele>
        <time>2013-09-01T16:30:06.000Z</time>
        <extensions>
          <ns3:TrackPointExtension>
            <ns3:atemp>17.0</ns3:atemp>
          </ns3:TrackPointExtension>
        </extensions>
      </trkpt>
      <trkpt lat="46.76666848361492156982421875" lon="6.90004211850464344024658203125">
        <ele>350.79998779296875</ele>
        <time>2013-09-01T16:30:07.000Z</time>
        <extensions>
          <ns3:TrackPointExtension>
            <ns3:atemp>17.0</ns3:atemp>
          </ns3:TrackPointExtension>
        </extensions>
      </trkpt>
      <trkpt lat="46.76672154106199741363525390625" lon="6.90010615624487400054931640625">
        <ele>350.79998779296875</ele>
        <time>2013-09-01T16:30:08.000Z</time>
        <extensions>
          <ns3:TrackPointExtension>
            <ns3:atemp>17.0</ns3:atemp>
          </ns3:TrackPointExtension>
        </extensions>
      </trkpt>
      <trkpt lat="46.76677308976650238037109375" lon="6.90016969107091426849365234375">
        <ele>350.600006103515625</ele>
        <time>2013-09-01T16:30:09.000Z</time>
        <extensions>
          <ns3:TrackPointExtension>
            <ns3:atemp>17.0</ns3:atemp>
          </ns3:TrackPointExtension>
        </extensions>
      </trkpt>
      <trkpt lat="46.76682514138519763946533203125" lon="6.9002306275069713592529296875">
        <ele>350.79998779296875</ele>
        <time>2013-09-01T16:30:10.000Z</time>
        <extensions>
          <ns3:TrackPointExtension>
            <ns3:atemp>17.0</ns3:atemp>
          </ns3:TrackPointExtension>
        </extensions>
      </trkpt>
      <trkpt lat="46.7668770253658294677734375" lon="6.90029181540012359619140625">
        <ele>351</ele>
        <time>2013-09-01T16:30:11.000Z</time>
        <extensions>
          <ns3:TrackPointExtension>
            <ns3:atemp>17.0</ns3:atemp>
          </ns3:TrackPointExtension>
        </extensions>
      </trkpt>
      <trkpt lat="46.7669291608035564422607421875" lon="6.9003514945507049560546875">
        <ele>351</ele>
        <time>2013-09-01T16:30:12.000Z</time>
        <extensions>
          <ns3:TrackPointExtension>
            <ns3:atemp>17.0</ns3:atemp>
          </ns3:TrackPointExtension>
        </extensions>
      </trkpt>
      <trkpt lat="46.76698138006031513214111328125" lon="6.900410838425159454345703125">
        <ele>351</ele>
        <time>2013-09-01T16:30:13.000Z</time>
        <extensions>
          <ns3:TrackPointExtension>
            <ns3:atemp>17.0</ns3:atemp>
          </ns3:TrackPointExtension>
        </extensions>
      </trkpt>
      <trkpt lat="46.76703418605029582977294921875" lon="6.90047043375670909881591796875">
        <ele>351</ele>
        <time>2013-09-01T16:30:14.000Z</time>
        <extensions>
          <ns3:TrackPointExtension>
            <ns3:atemp>17.0</ns3:atemp>
          </ns3:TrackPointExtension>
        </extensions>
      </trkpt>
      <trkpt lat="46.76708648912608623504638671875" lon="6.90053028054535388946533203125">
        <ele>350.79998779296875</ele>
        <time>2013-09-01T16:30:15.000Z</time>
        <extensions>
          <ns3:TrackPointExtension>
            <ns3:atemp>17.0</ns3:atemp>
          </ns3:TrackPointExtension>
        </extensions>
      </trkpt>
      <trkpt lat="46.76713778637349605560302734375" lon="6.90059079788625240325927734375">
        <ele>351</ele>
        <time>2013-09-01T16:30:16.000Z</time>
        <extensions>
          <ns3:TrackPointExtension>
            <ns3:atemp>17.0</ns3:atemp>
          </ns3:TrackPointExtension>
        </extensions>
      </trkpt>
      <trkpt lat="46.76718925125896930694580078125" lon="6.90065148286521434783935546875">
        <ele>351</ele>
        <time>2013-09-01T16:30:17.000Z</time>
        <extensions>
          <ns3:TrackPointExtension>
            <ns3:atemp>17.0</ns3:atemp>
          </ns3:TrackPointExtension>
        </extensions>
      </trkpt>
      <trkpt lat="46.767240799963474273681640625" lon="6.9007124193012714385986328125">
        <ele>351.20001220703125</ele>
        <time>2013-09-01T16:30:18.000Z</time>
        <extensions>
          <ns3:TrackPointExtension>
            <ns3:atemp>17.0</ns3:atemp>
          </ns3:TrackPointExtension>
        </extensions>
      </trkpt>
      <trkpt lat="46.7672919295728206634521484375" lon="6.9007726013660430908203125">
        <ele>351</ele>
        <time>2013-09-01T16:30:19.000Z</time>
        <extensions>
          <ns3:TrackPointExtension>
            <ns3:atemp>17.0</ns3:atemp>
          </ns3:TrackPointExtension>
        </extensions>
      </trkpt>
      <trkpt lat="46.767344065010547637939453125" lon="6.9008316099643707275390625">
        <ele>350.600006103515625</ele>
        <time>2013-09-01T16:30:20.000Z</time>
        <extensions>
          <ns3:TrackPointExtension>
            <ns3:atemp>17.0</ns3:atemp>
          </ns3:TrackPointExtension>
        </extensions>
      </trkpt>
      <trkpt lat="46.76739745773375034332275390625" lon="6.90088919363915920257568359375">
        <ele>350.399993896484375</ele>
        <time>2013-09-01T16:30:21.000Z</time>
        <extensions>
          <ns3:TrackPointExtension>
            <ns3:atemp>17.0</ns3:atemp>
          </ns3:TrackPointExtension>
        </extensions>
      </trkpt>
      <trkpt lat="46.76745168864727020263671875" lon="6.90094786696135997772216796875">
        <ele>350.20001220703125</ele>
        <time>2013-09-01T16:30:22.000Z</time>
        <extensions>
          <ns3:TrackPointExtension>
            <ns3:atemp>17.0</ns3:atemp>
          </ns3:TrackPointExtension>
        </extensions>
      </trkpt>
      <trkpt lat="46.76750608719885349273681640625" lon="6.9010064564645290374755859375">
        <ele>350.20001220703125</ele>
        <time>2013-09-01T16:30:23.000Z</time>
        <extensions>
          <ns3:TrackPointExtension>
            <ns3:atemp>17.0</ns3:atemp>
          </ns3:TrackPointExtension>
        </extensions>
      </trkpt>
      <trkpt lat="46.7675598151981830596923828125" lon="6.90106420777738094329833984375">
        <ele>350.20001220703125</ele>
        <time>2013-09-01T16:30:24.000Z</time>
        <extensions>
          <ns3:TrackPointExtension>
            <ns3:atemp>17.0</ns3:atemp>
          </ns3:TrackPointExtension>
        </extensions>
      </trkpt>
      <trkpt lat="46.7676134593784809112548828125" lon="6.90112053416669368743896484375">
        <ele>350.399993896484375</ele>
        <time>2013-09-01T16:30:25.000Z</time>
        <extensions>
          <ns3:TrackPointExtension>
            <ns3:atemp>17.0</ns3:atemp>
          </ns3:TrackPointExtension>
        </extensions>
      </trkpt>
      <trkpt lat="46.7676674388349056243896484375" lon="6.9011781178414821624755859375">
        <ele>350.399993896484375</ele>
        <time>2013-09-01T16:30:26.000Z</time>
        <extensions>
          <ns3:TrackPointExtension>
            <ns3:atemp>17.0</ns3:atemp>
          </ns3:TrackPointExtension>
        </extensions>
      </trkpt>
      <trkpt lat="46.767721585929393768310546875" lon="6.90123721025884151458740234375">
        <ele>350.20001220703125</ele>
        <time>2013-09-01T16:30:27.000Z</time>
        <extensions>
          <ns3:TrackPointExtension>
            <ns3:atemp>17.0</ns3:atemp>
          </ns3:TrackPointExtension>
        </extensions>
      </trkpt>
      <trkpt lat="46.7677764035761356353759765625" lon="6.901295296847820281982421875">
        <ele>350.399993896484375</ele>
        <time>2013-09-01T16:30:28.000Z</time>
        <extensions>
          <ns3:TrackPointExtension>
            <ns3:atemp>17.0</ns3:atemp>
          </ns3:TrackPointExtension>
        </extensions>
      </trkpt>
      <trkpt lat="46.76783113740384578704833984375" lon="6.90135070122778415679931640625">
        <ele>350.399993896484375</ele>
        <time>2013-09-01T16:30:29.000Z</time>
        <extensions>
          <ns3:TrackPointExtension>
            <ns3:atemp>17.0</ns3:atemp>
          </ns3:TrackPointExtension>
        </extensions>
      </trkpt>
      <trkpt lat="46.76788662560284137725830078125" lon="6.90140635706484317779541015625">
        <ele>350.399993896484375</ele>
        <time>2013-09-01T16:30:30.000Z</time>
        <extensions>
          <ns3:TrackPointExtension>
            <ns3:atemp>17.0</ns3:atemp>
          </ns3:TrackPointExtension>
        </extensions>
      </trkpt>
      <trkpt lat="46.7679413594305515289306640625" lon="6.90145933069288730621337890625">
        <ele>350.399993896484375</ele>
        <time>2013-09-01T16:30:31.000Z</time>
        <extensions>
          <ns3:TrackPointExtension>
            <ns3:atemp>17.0</ns3:atemp>
          </ns3:TrackPointExtension>
        </extensions>
      </trkpt>
      <trkpt lat="46.76799659617245197296142578125" lon="6.9015110470354557037353515625">
        <ele>350.399993896484375</ele>
        <time>2013-09-01T16:30:32.000Z</time>
        <extensions>
          <ns3:TrackPointExtension>
            <ns3:atemp>17.0</ns3:atemp>
          </ns3:TrackPointExtension>
        </extensions>
      </trkpt>
      <trkpt lat="46.76805124618113040924072265625" lon="6.90156544558703899383544921875">
        <ele>350.600006103515625</ele>
        <time>2013-09-01T16:30:33.000Z</time>
        <extensions>
          <ns3:TrackPointExtension>
            <ns3:atemp>17.0</ns3:atemp>
          </ns3:TrackPointExtension>
        </extensions>
      </trkpt>
      <trkpt lat="46.768105812370777130126953125" lon="6.9016201794147491455078125">
        <ele>350.399993896484375</ele>
        <time>2013-09-01T16:30:34.000Z</time>
        <extensions>
          <ns3:TrackPointExtension>
            <ns3:atemp>17.0</ns3:atemp>
          </ns3:TrackPointExtension>
        </extensions>
      </trkpt>
      <trkpt lat="46.76816054619848728179931640625" lon="6.90167449414730072021484375">
        <ele>350.399993896484375</ele>
        <time>2013-09-01T16:30:35.000Z</time>
        <extensions>
          <ns3:TrackPointExtension>
            <ns3:atemp>17.0</ns3:atemp>
          </ns3:TrackPointExtension>
        </extensions>
      </trkpt>
      <trkpt lat="46.76821620203554630279541015625" lon="6.90172704868018627166748046875">
        <ele>350.20001220703125</ele>
        <time>2013-09-01T16:30:36.000Z</time>
        <extensions>
          <ns3:TrackPointExtension>
            <ns3:atemp>17.0</ns3:atemp>
          </ns3:TrackPointExtension>
        </extensions>
      </trkpt>
      <trkpt lat="46.7682716064155101776123046875" lon="6.9017799384891986846923828125">
        <ele>350.20001220703125</ele>
        <time>2013-09-01T16:30:37.000Z</time>
        <extensions>
          <ns3:TrackPointExtension>
            <ns3:atemp>17.0</ns3:atemp>
          </ns3:TrackPointExtension>
        </extensions>
      </trkpt>
      <trkpt lat="46.76832550205290317535400390625" lon="6.90183634869754314422607421875">
        <ele>350.399993896484375</ele>
        <time>2013-09-01T16:30:38.000Z</time>
        <extensions>
          <ns3:TrackPointExtension>
            <ns3:atemp>17.0</ns3:atemp>
          </ns3:TrackPointExtension>
        </extensions>
      </trkpt>
      <trkpt lat="46.7683799006044864654541015625" lon="6.90189200453460216522216796875">
        <ele>350.399993896484375</ele>
        <time>2013-09-01T16:30:39.000Z</time>
        <extensions>
          <ns3:TrackPointExtension>
            <ns3:atemp>17.0</ns3:atemp>
          </ns3:TrackPointExtension>
        </extensions>
      </trkpt>
      <trkpt lat="46.7684345506131649017333984375" lon="6.90194481052458286285400390625">
        <ele>350.20001220703125</ele>
        <time>2013-09-01T16:30:40.000Z</time>
        <extensions>
          <ns3:TrackPointExtension>
            <ns3:atemp>17.0</ns3:atemp>
          </ns3:TrackPointExtension>
        </extensions>
      </trkpt>
      <trkpt lat="46.7684890329837799072265625" lon="6.90199878998100757598876953125">
        <ele>350</ele>
        <time>2013-09-01T16:30:41.000Z</time>
        <extensions>
          <ns3:TrackPointExtension>
            <ns3:atemp>17.0</ns3:atemp>
          </ns3:TrackPointExtension>
        </extensions>
      </trkpt>
      <trkpt lat="46.768544353544712066650390625" lon="6.9020528532564640045166015625">
        <ele>350</ele>
        <time>2013-09-01T16:30:42.000Z</time>
        <extensions>
          <ns3:TrackPointExtension>
            <ns3:atemp>17.0</ns3:atemp>
          </ns3:TrackPointExtension>
        </extensions>
      </trkpt>
      <trkpt lat="46.76859925501048564910888671875" lon="6.90210775472223758697509765625">
        <ele>350</ele>
        <time>2013-09-01T16:30:43.000Z</time>
        <extensions>
          <ns3:TrackPointExtension>
            <ns3:atemp>17.0</ns3:atemp>
          </ns3:TrackPointExtension>
        </extensions>
      </trkpt>
      <trkpt lat="46.76865424029529094696044921875" lon="6.90216391347348690032958984375">
        <ele>350</ele>
        <time>2013-09-01T16:30:44.000Z</time>
        <extensions>
          <ns3:TrackPointExtension>
            <ns3:atemp>17.0</ns3:atemp>
          </ns3:TrackPointExtension>
        </extensions>
      </trkpt>
      <trkpt lat="46.76870905794203281402587890625" lon="6.90222241915762424468994140625">
        <ele>350</ele>
        <time>2013-09-01T16:30:45.000Z</time>
        <extensions>
          <ns3:TrackPointExtension>
            <ns3:atemp>17.0</ns3:atemp>
          </ns3:TrackPointExtension>
        </extensions>
      </trkpt>
      <trkpt lat="46.7687627859413623809814453125" lon="6.90227991901338100433349609375">
        <ele>350</ele>
        <time>2013-09-01T16:30:46.000Z</time>
        <extensions>
          <ns3:TrackPointExtension>
            <ns3:atemp>17.0</ns3:atemp>
          </ns3:TrackPointExtension>
        </extensions>
      </trkpt>
      <trkpt lat="46.7688181065022945404052734375" lon="6.902335993945598602294921875">
        <ele>350</ele>
        <time>2013-09-01T16:30:47.000Z</time>
        <extensions>
          <ns3:TrackPointExtension>
            <ns3:atemp>17.0</ns3:atemp>
          </ns3:TrackPointExtension>
        </extensions>
      </trkpt>
      <trkpt lat="46.76887401379644870758056640625" lon="6.90239223651587963104248046875">
        <ele>350</ele>
        <time>2013-09-01T16:30:48.000Z</time>
        <extensions>
          <ns3:TrackPointExtension>
            <ns3:atemp>17.0</ns3:atemp>
          </ns3:TrackPointExtension>
        </extensions>
      </trkpt>
      <trkpt lat="46.76893000490963459014892578125" lon="6.90245107747614383697509765625">
        <ele>350</ele>
        <time>2013-09-01T16:30:49.000Z</time>
        <extensions>
          <ns3:TrackPointExtension>
            <ns3:atemp>17.0</ns3:atemp>
          </ns3:TrackPointExtension>
        </extensions>
      </trkpt>
      <trkpt lat="46.768984235823154449462890625" lon="6.90250790677964687347412109375">
        <ele>350.20001220703125</ele>
        <time>2013-09-01T16:30:50.000Z</time>
        <extensions>
          <ns3:TrackPointExtension>
            <ns3:atemp>17.0</ns3:atemp>
          </ns3:TrackPointExtension>
        </extensions>
      </trkpt>
      <trkpt lat="46.76903880201280117034912109375" lon="6.90256406553089618682861328125">
        <ele>350.20001220703125</ele>
        <time>2013-09-01T16:30:51.000Z</time>
        <extensions>
          <ns3:TrackPointExtension>
            <ns3:atemp>17.0</ns3:atemp>
          </ns3:TrackPointExtension>
        </extensions>
      </trkpt>
      <trkpt lat="46.76909462548792362213134765625" lon="6.9026187993586063385009765625">
        <ele>350</ele>
        <time>2013-09-01T16:30:52.000Z</time>
        <extensions>
          <ns3:TrackPointExtension>
            <ns3:atemp>17.0</ns3:atemp>
          </ns3:TrackPointExtension>
        </extensions>
      </trkpt>
      <trkpt lat="46.7691517062485218048095703125" lon="6.902673952281475067138671875">
        <ele>349.79998779296875</ele>
        <time>2013-09-01T16:30:53.000Z</time>
        <extensions>
          <ns3:TrackPointExtension>
            <ns3:atemp>17.0</ns3:atemp>
          </ns3:TrackPointExtension>
        </extensions>
      </trkpt>
      <trkpt lat="46.7692093737423419952392578125" lon="6.90272994339466094970703125">
        <ele>350</ele>
        <time>2013-09-01T16:30:54.000Z</time>
        <extensions>
          <ns3:TrackPointExtension>
            <ns3:atemp>17.0</ns3:atemp>
          </ns3:TrackPointExtension>
        </extensions>
      </trkpt>
      <trkpt lat="46.7692668735980987548828125" lon="6.90278802998363971710205078125">
        <ele>350.20001220703125</ele>
        <time>2013-09-01T16:30:55.000Z</time>
        <extensions>
          <ns3:TrackPointExtension>
            <ns3:atemp>17.0</ns3:atemp>
          </ns3:TrackPointExtension>
        </extensions>
      </trkpt>
      <trkpt lat="46.76932428963482379913330078125" lon="6.90284469164907932281494140625">
        <ele>350.20001220703125</ele>
        <time>2013-09-01T16:30:56.000Z</time>
        <extensions>
          <ns3:TrackPointExtension>
            <ns3:atemp>17.0</ns3:atemp>
          </ns3:TrackPointExtension>
        </extensions>
      </trkpt>
      <trkpt lat="46.76938178949058055877685546875" lon="6.90290101803839206695556640625">
        <ele>350.600006103515625</ele>
        <time>2013-09-01T16:30:57.000Z</time>
        <extensions>
          <ns3:TrackPointExtension>
            <ns3:atemp>17.0</ns3:atemp>
          </ns3:TrackPointExtension>
        </extensions>
      </trkpt>
      <trkpt lat="46.7694393731653690338134765625" lon="6.90295885317027568817138671875">
        <ele>350.399993896484375</ele>
        <time>2013-09-01T16:30:58.000Z</time>
        <extensions>
          <ns3:TrackPointExtension>
            <ns3:atemp>17.0</ns3:atemp>
          </ns3:TrackPointExtension>
        </extensions>
      </trkpt>
      <trkpt lat="46.7694956995546817779541015625" lon="6.90301551483571529388427734375">
        <ele>350.399993896484375</ele>
        <time>2013-09-01T16:30:59.000Z</time>
        <extensions>
          <ns3:TrackPointExtension>
            <ns3:atemp>17.0</ns3:atemp>
          </ns3:TrackPointExtension>
        </extensions>
      </trkpt>
      <trkpt lat="46.76955093629658222198486328125" lon="6.90307184122502803802490234375">
        <ele>350</ele>
        <time>2013-09-01T16:31:00.000Z</time>
        <extensions>
          <ns3:TrackPointExtension>
            <ns3:atemp>17.0</ns3:atemp>
          </ns3:TrackPointExtension>
        </extensions>
      </trkpt>
      <trkpt lat="46.769605167210102081298828125" lon="6.9031267426908016204833984375">
        <ele>349.600006103515625</ele>
        <time>2013-09-01T16:31:01.000Z</time>
        <extensions>
          <ns3:TrackPointExtension>
            <ns3:atemp>17.0</ns3:atemp>
          </ns3:TrackPointExtension>
        </extensions>
      </trkpt>
      <trkpt lat="46.769661493599414825439453125" lon="6.903176195919513702392578125">
        <ele>349.20001220703125</ele>
        <time>2013-09-01T16:31:02.000Z</time>
        <extensions>
          <ns3:TrackPointExtension>
            <ns3:atemp>17.0</ns3:atemp>
          </ns3:TrackPointExtension>
        </extensions>
      </trkpt>
      <trkpt lat="46.7697189934551715850830078125" lon="6.90322707407176494598388671875">
        <ele>348.79998779296875</ele>
        <time>2013-09-01T16:31:03.000Z</time>
        <extensions>
          <ns3:TrackPointExtension>
            <ns3:atemp>17.0</ns3:atemp>
          </ns3:TrackPointExtension>
        </extensions>
      </trkpt>
      <trkpt lat="46.76977540366351604461669921875" lon="6.90328189171850681304931640625">
        <ele>348.600006103515625</ele>
        <time>2013-09-01T16:31:04.000Z</time>
        <extensions>
          <ns3:TrackPointExtension>
            <ns3:atemp>17.0</ns3:atemp>
          </ns3:TrackPointExtension>
        </extensions>
      </trkpt>
      <trkpt lat="46.7698316462337970733642578125" lon="6.903338469564914703369140625">
        <ele>348.79998779296875</ele>
        <time>2013-09-01T16:31:05.000Z</time>
        <extensions>
          <ns3:TrackPointExtension>
            <ns3:atemp>17.0</ns3:atemp>
          </ns3:TrackPointExtension>
        </extensions>
      </trkpt>
      <trkpt lat="46.76988721825182437896728515625" lon="6.90339420922100543975830078125">
        <ele>349.20001220703125</ele>
        <time>2013-09-01T16:31:06.000Z</time>
        <extensions>
          <ns3:TrackPointExtension>
            <ns3:atemp>17.0</ns3:atemp>
          </ns3:TrackPointExtension>
        </extensions>
      </trkpt>
      <trkpt lat="46.76994270645081996917724609375" lon="6.90344919450581073760986328125">
        <ele>349.399993896484375</ele>
        <time>2013-09-01T16:31:07.000Z</time>
        <extensions>
          <ns3:TrackPointExtension>
            <ns3:atemp>17.0</ns3:atemp>
          </ns3:TrackPointExtension>
        </extensions>
      </trkpt>
      <trkpt lat="46.76999668590724468231201171875" lon="6.903506778180599212646484375">
        <ele>349.600006103515625</ele>
        <time>2013-09-01T16:31:08.000Z</time>
        <extensions>
          <ns3:TrackPointExtension>
            <ns3:atemp>17.0</ns3:atemp>
          </ns3:TrackPointExtension>
        </extensions>
      </trkpt>
      <trkpt lat="46.77004815079271793365478515625" lon="6.9035674631595611572265625">
        <ele>349.600006103515625</ele>
        <time>2013-09-01T16:31:09.000Z</time>
        <extensions>
          <ns3:TrackPointExtension>
            <ns3:atemp>17.0</ns3:atemp>
          </ns3:TrackPointExtension>
        </extensions>
      </trkpt>
      <trkpt lat="46.7701008729636669158935546875" lon="6.90362580120563507080078125">
        <ele>349.600006103515625</ele>
        <time>2013-09-01T16:31:10.000Z</time>
        <extensions>
          <ns3:TrackPointExtension>
            <ns3:atemp>17.0</ns3:atemp>
          </ns3:TrackPointExtension>
        </extensions>
      </trkpt>
      <trkpt lat="46.77015426568686962127685546875" lon="6.90368120558559894561767578125">
        <ele>349.600006103515625</ele>
        <time>2013-09-01T16:31:11.000Z</time>
        <extensions>
          <ns3:TrackPointExtension>
            <ns3:atemp>17.0</ns3:atemp>
          </ns3:TrackPointExtension>
        </extensions>
      </trkpt>
      <trkpt lat="46.7702083289623260498046875" lon="6.90373686142265796661376953125">
        <ele>349.600006103515625</ele>
        <time>2013-09-01T16:31:12.000Z</time>
        <extensions>
          <ns3:TrackPointExtension>
            <ns3:atemp>17.0</ns3:atemp>
          </ns3:TrackPointExtension>
        </extensions>
      </trkpt>
      <trkpt lat="46.77026390098035335540771484375" lon="6.90379151143133640289306640625">
        <ele>349.399993896484375</ele>
        <time>2013-09-01T16:31:13.000Z</time>
        <extensions>
          <ns3:TrackPointExtension>
            <ns3:atemp>17.0</ns3:atemp>
          </ns3:TrackPointExtension>
        </extensions>
      </trkpt>
      <trkpt lat="46.7703184671700000762939453125" lon="6.90384381450712680816650390625">
        <ele>349</ele>
        <time>2013-09-01T16:31:14.000Z</time>
        <extensions>
          <ns3:TrackPointExtension>
            <ns3:atemp>17.0</ns3:atemp>
          </ns3:TrackPointExtension>
        </extensions>
      </trkpt>
      <trkpt lat="46.7703741230070590972900390625" lon="6.9038948602974414825439453125">
        <ele>349</ele>
        <time>2013-09-01T16:31:15.000Z</time>
        <extensions>
          <ns3:TrackPointExtension>
            <ns3:atemp>17.0</ns3:atemp>
          </ns3:TrackPointExtension>
        </extensions>
      </trkpt>
      <trkpt lat="46.7704311199486255645751953125" lon="6.90394506789743900299072265625">
        <ele>349</ele>
        <time>2013-09-01T16:31:16.000Z</time>
        <extensions>
          <ns3:TrackPointExtension>
            <ns3:atemp>17.0</ns3:atemp>
          </ns3:TrackPointExtension>
        </extensions>
      </trkpt>
      <trkpt lat="46.7704887874424457550048828125" lon="6.90399720333516597747802734375">
        <ele>349</ele>
        <time>2013-09-01T16:31:17.000Z</time>
        <extensions>
          <ns3:TrackPointExtension>
            <ns3:atemp>17.0</ns3:atemp>
          </ns3:TrackPointExtension>
        </extensions>
      </trkpt>
      <trkpt lat="46.77054695785045623779296875" lon="6.90405067987740039825439453125">
        <ele>349</ele>
        <time>2013-09-01T16:31:18.000Z</time>
        <extensions>
          <ns3:TrackPointExtension>
            <ns3:atemp>17.0</ns3:atemp>
          </ns3:TrackPointExtension>
        </extensions>
      </trkpt>
      <trkpt lat="46.770603619515895843505859375" lon="6.90410600043833255767822265625">
        <ele>349</ele>
        <time>2013-09-01T16:31:19.000Z</time>
        <extensions>
          <ns3:TrackPointExtension>
            <ns3:atemp>17.0</ns3:atemp>
          </ns3:TrackPointExtension>
        </extensions>
      </trkpt>
      <trkpt lat="46.77065952681005001068115234375" lon="6.90416282974183559417724609375">
        <ele>349</ele>
        <time>2013-09-01T16:31:20.000Z</time>
        <extensions>
          <ns3:TrackPointExtension>
            <ns3:atemp>17.0</ns3:atemp>
          </ns3:TrackPointExtension>
        </extensions>
      </trkpt>
      <trkpt lat="46.77071484737098217010498046875" lon="6.9042197428643703460693359375">
        <ele>349</ele>
        <time>2013-09-01T16:31:21.000Z</time>
        <extensions>
          <ns3:TrackPointExtension>
            <ns3:atemp>17.0</ns3:atemp>
          </ns3:TrackPointExtension>
        </extensions>
      </trkpt>
      <trkpt lat="46.77076983265578746795654296875" lon="6.904275901615619659423828125">
        <ele>349.20001220703125</ele>
        <time>2013-09-01T16:31:22.000Z</time>
        <extensions>
          <ns3:TrackPointExtension>
            <ns3:atemp>17.0</ns3:atemp>
          </ns3:TrackPointExtension>
        </extensions>
      </trkpt>
      <trkpt lat="46.7708243988454341888427734375" lon="6.90433281473815441131591796875">
        <ele>349</ele>
        <time>2013-09-01T16:31:23.000Z</time>
        <extensions>
          <ns3:TrackPointExtension>
            <ns3:atemp>17.0</ns3:atemp>
          </ns3:TrackPointExtension>
        </extensions>
      </trkpt>
      <trkpt lat="46.770879216492176055908203125" lon="6.90438780002295970916748046875">
        <ele>349</ele>
        <time>2013-09-01T16:31:24.000Z</time>
        <extensions>
          <ns3:TrackPointExtension>
            <ns3:atemp>17.0</ns3:atemp>
          </ns3:TrackPointExtension>
        </extensions>
      </trkpt>
      <trkpt lat="46.770934201776981353759765625" lon="6.90444395877420902252197265625">
        <ele>349</ele>
        <time>2013-09-01T16:31:25.000Z</time>
        <extensions>
          <ns3:TrackPointExtension>
            <ns3:atemp>17.0</ns3:atemp>
          </ns3:TrackPointExtension>
        </extensions>
      </trkpt>
      <trkpt lat="46.7709893546998500823974609375" lon="6.90449911169707775115966796875">
        <ele>349.20001220703125</ele>
        <time>2013-09-01T16:31:26.000Z</time>
        <extensions>
          <ns3:TrackPointExtension>
            <ns3:atemp>17.0</ns3:atemp>
          </ns3:TrackPointExtension>
        </extensions>
      </trkpt>
      <trkpt lat="46.77104509435594081878662109375" lon="6.90455325879156589508056640625">
        <ele>349</ele>
        <time>2013-09-01T16:31:27.000Z</time>
        <extensions>
          <ns3:TrackPointExtension>
            <ns3:atemp>17.0</ns3:atemp>
          </ns3:TrackPointExtension>
        </extensions>
      </trkpt>
      <trkpt lat="46.77110125310719013214111328125" lon="6.9046081602573394775390625">
        <ele>349</ele>
        <time>2013-09-01T16:31:28.000Z</time>
        <extensions>
          <ns3:TrackPointExtension>
            <ns3:atemp>17.0</ns3:atemp>
          </ns3:TrackPointExtension>
        </extensions>
      </trkpt>
      <trkpt lat="46.7711569927632808685302734375" lon="6.90466322936117649078369140625">
        <ele>349.20001220703125</ele>
        <time>2013-09-01T16:31:29.000Z</time>
        <extensions>
          <ns3:TrackPointExtension>
            <ns3:atemp>17.0</ns3:atemp>
          </ns3:TrackPointExtension>
        </extensions>
      </trkpt>
      <trkpt lat="46.771211810410022735595703125" lon="6.90471821464598178863525390625">
        <ele>349.20001220703125</ele>
        <time>2013-09-01T16:31:30.000Z</time>
        <extensions>
          <ns3:TrackPointExtension>
            <ns3:atemp>17.0</ns3:atemp>
          </ns3:TrackPointExtension>
        </extensions>
      </trkpt>
      <trkpt lat="46.77126805298030376434326171875" lon="6.90477286465466022491455078125">
        <ele>349.20001220703125</ele>
        <time>2013-09-01T16:31:31.000Z</time>
        <extensions>
          <ns3:TrackPointExtension>
            <ns3:atemp>17.0</ns3:atemp>
          </ns3:TrackPointExtension>
        </extensions>
      </trkpt>
      <trkpt lat="46.77132303826510906219482421875" lon="6.9048255868256092071533203125">
        <ele>349</ele>
        <time>2013-09-01T16:31:32.000Z</time>
        <extensions>
          <ns3:TrackPointExtension>
            <ns3:atemp>17.0</ns3:atemp>
          </ns3:TrackPointExtension>
        </extensions>
      </trkpt>
      <trkpt lat="46.77137802354991436004638671875" lon="6.90487763844430446624755859375">
        <ele>348.600006103515625</ele>
        <time>2013-09-01T16:31:33.000Z</time>
        <extensions>
          <ns3:TrackPointExtension>
            <ns3:atemp>17.0</ns3:atemp>
          </ns3:TrackPointExtension>
        </extensions>
      </trkpt>
      <trkpt lat="46.7714339308440685272216796875" lon="6.90493077971041202545166015625">
        <ele>348.399993896484375</ele>
        <time>2013-09-01T16:31:34.000Z</time>
        <extensions>
          <ns3:TrackPointExtension>
            <ns3:atemp>17.0</ns3:atemp>
          </ns3:TrackPointExtension>
        </extensions>
      </trkpt>
      <trkpt lat="46.77148883230984210968017578125" lon="6.9049841724336147308349609375">
        <ele>348.399993896484375</ele>
        <time>2013-09-01T16:31:35.000Z</time>
        <extensions>
          <ns3:TrackPointExtension>
            <ns3:atemp>17.0</ns3:atemp>
          </ns3:TrackPointExtension>
        </extensions>
      </trkpt>
      <trkpt lat="46.771544404327869415283203125" lon="6.9050378166139125823974609375">
        <ele>348.399993896484375</ele>
        <time>2013-09-01T16:31:36.000Z</time>
        <extensions>
          <ns3:TrackPointExtension>
            <ns3:atemp>17.0</ns3:atemp>
          </ns3:TrackPointExtension>
        </extensions>
      </trkpt>
      <trkpt lat="46.7715985514223575592041015625" lon="6.90509070642292499542236328125">
        <ele>348.399993896484375</ele>
        <time>2013-09-01T16:31:37.000Z</time>
        <extensions>
          <ns3:TrackPointExtension>
            <ns3:atemp>17.0</ns3:atemp>
          </ns3:TrackPointExtension>
        </extensions>
      </trkpt>
      <trkpt lat="46.77165202796459197998046875" lon="6.905145943164825439453125">
        <ele>348.600006103515625</ele>
        <time>2013-09-01T16:31:38.000Z</time>
        <extensions>
          <ns3:TrackPointExtension>
            <ns3:atemp>17.0</ns3:atemp>
          </ns3:TrackPointExtension>
        </extensions>
      </trkpt>
      <trkpt lat="46.7717038281261920928955078125" lon="6.90520570613443851470947265625">
        <ele>348.600006103515625</ele>
        <time>2013-09-01T16:31:39.000Z</time>
        <extensions>
          <ns3:TrackPointExtension>
            <ns3:atemp>17.0</ns3:atemp>
          </ns3:TrackPointExtension>
        </extensions>
      </trkpt>
      <trkpt lat="46.77175604738295078277587890625" lon="6.905265636742115020751953125">
        <ele>348.79998779296875</ele>
        <time>2013-09-01T16:31:40.000Z</time>
        <extensions>
          <ns3:TrackPointExtension>
            <ns3:atemp>17.0</ns3:atemp>
          </ns3:TrackPointExtension>
        </extensions>
      </trkpt>
      <trkpt lat="46.77180952392518520355224609375" lon="6.90532288514077663421630859375">
        <ele>348.79998779296875</ele>
        <time>2013-09-01T16:31:41.000Z</time>
        <extensions>
          <ns3:TrackPointExtension>
            <ns3:atemp>17.0</ns3:atemp>
          </ns3:TrackPointExtension>
        </extensions>
      </trkpt>
      <trkpt lat="46.7718630842864513397216796875" lon="6.90537787042558193206787109375">
        <ele>349</ele>
        <time>2013-09-01T16:31:42.000Z</time>
        <extensions>
          <ns3:TrackPointExtension>
            <ns3:atemp>17.0</ns3:atemp>
          </ns3:TrackPointExtension>
        </extensions>
      </trkpt>
      <trkpt lat="46.771916560828685760498046875" lon="6.90543000586330890655517578125">
        <ele>348.79998779296875</ele>
        <time>2013-09-01T16:31:43.000Z</time>
        <extensions>
          <ns3:TrackPointExtension>
            <ns3:atemp>17.0</ns3:atemp>
          </ns3:TrackPointExtension>
        </extensions>
      </trkpt>
      <trkpt lat="46.77196986973285675048828125" lon="6.9054825603961944580078125">
        <ele>349</ele>
        <time>2013-09-01T16:31:44.000Z</time>
        <extensions>
          <ns3:TrackPointExtension>
            <ns3:atemp>17.0</ns3:atemp>
          </ns3:TrackPointExtension>
        </extensions>
      </trkpt>
      <trkpt lat="46.77202242426574230194091796875" lon="6.905537545680999755859375">
        <ele>348.79998779296875</ele>
        <time>2013-09-01T16:31:45.000Z</time>
        <extensions>
          <ns3:TrackPointExtension>
            <ns3:atemp>17.0</ns3:atemp>
          </ns3:TrackPointExtension>
        </extensions>
      </trkpt>
      <trkpt lat="46.7720749787986278533935546875" lon="6.90559077076613903045654296875">
        <ele>349</ele>
        <time>2013-09-01T16:31:46.000Z</time>
        <extensions>
          <ns3:TrackPointExtension>
            <ns3:atemp>17.0</ns3:atemp>
          </ns3:TrackPointExtension>
        </extensions>
      </trkpt>
      <trkpt lat="46.77212736569344997406005859375" lon="6.905643828213214874267578125">
        <ele>349</ele>
        <time>2013-09-01T16:31:47.000Z</time>
        <extensions>
          <ns3:TrackPointExtension>
            <ns3:atemp>17.0</ns3:atemp>
          </ns3:TrackPointExtension>
        </extensions>
      </trkpt>
      <trkpt lat="46.77218042314052581787109375" lon="6.90569470636546611785888671875">
        <ele>348.79998779296875</ele>
        <time>2013-09-01T16:31:48.000Z</time>
        <extensions>
          <ns3:TrackPointExtension>
            <ns3:atemp>17.0</ns3:atemp>
          </ns3:TrackPointExtension>
        </extensions>
      </trkpt>
      <trkpt lat="46.77223398350179195404052734375" lon="6.9057435728609561920166015625">
        <ele>348.600006103515625</ele>
        <time>2013-09-01T16:31:49.000Z</time>
        <extensions>
          <ns3:TrackPointExtension>
            <ns3:atemp>17.0</ns3:atemp>
          </ns3:TrackPointExtension>
        </extensions>
      </trkpt>
      <trkpt lat="46.772288046777248382568359375" lon="6.90579235553741455078125">
        <ele>348.79998779296875</ele>
        <time>2013-09-01T16:31:50.000Z</time>
        <extensions>
          <ns3:TrackPointExtension>
            <ns3:atemp>17.0</ns3:atemp>
          </ns3:TrackPointExtension>
        </extensions>
      </trkpt>
      <trkpt lat="46.772342026233673095703125" lon="6.90584138967096805572509765625">
        <ele>348.79998779296875</ele>
        <time>2013-09-01T16:31:51.000Z</time>
        <extensions>
          <ns3:TrackPointExtension>
            <ns3:atemp>17.0</ns3:atemp>
          </ns3:TrackPointExtension>
        </extensions>
      </trkpt>
      <trkpt lat="46.772394664585590362548828125" lon="6.90588665194809436798095703125">
        <ele>348.79998779296875</ele>
        <time>2013-09-01T16:31:52.000Z</time>
        <extensions>
          <ns3:TrackPointExtension>
            <ns3:atemp>17.0</ns3:atemp>
          </ns3:TrackPointExtension>
        </extensions>
      </trkpt>
      <trkpt lat="46.77244604565203189849853515625" lon="6.90592822618782520294189453125">
        <ele>348.600006103515625</ele>
        <time>2013-09-01T16:31:53.000Z</time>
        <extensions>
          <ns3:TrackPointExtension>
            <ns3:atemp>17.0</ns3:atemp>
          </ns3:TrackPointExtension>
        </extensions>
      </trkpt>
      <trkpt lat="46.77249466069042682647705078125" lon="6.90596493892371654510498046875">
        <ele>348.600006103515625</ele>
        <time>2013-09-01T16:31:54.000Z</time>
        <extensions>
          <ns3:TrackPointExtension>
            <ns3:atemp>17.0</ns3:atemp>
          </ns3:TrackPointExtension>
        </extensions>
      </trkpt>
      <trkpt lat="46.77254009060561656951904296875" lon="6.9059933535754680633544921875">
        <ele>348.399993896484375</ele>
        <time>2013-09-01T16:31:55.000Z</time>
        <extensions>
          <ns3:TrackPointExtension>
            <ns3:atemp>17.0</ns3:atemp>
          </ns3:TrackPointExtension>
        </extensions>
      </trkpt>
      <trkpt lat="46.7725778929889202117919921875" lon="6.90601556561887264251708984375">
        <ele>348.399993896484375</ele>
        <time>2013-09-01T16:31:56.000Z</time>
        <extensions>
          <ns3:TrackPointExtension>
            <ns3:atemp>17.0</ns3:atemp>
          </ns3:TrackPointExtension>
        </extensions>
      </trkpt>
      <trkpt lat="46.77261116914451122283935546875" lon="6.90604272298514842987060546875">
        <ele>348.20001220703125</ele>
        <time>2013-09-01T16:31:57.000Z</time>
        <extensions>
          <ns3:TrackPointExtension>
            <ns3:atemp>17.0</ns3:atemp>
          </ns3:TrackPointExtension>
        </extensions>
      </trkpt>
      <trkpt lat="46.77264620549976825714111328125" lon="6.90607574768364429473876953125">
        <ele>348.600006103515625</ele>
        <time>2013-09-01T16:31:58.000Z</time>
        <extensions>
          <ns3:TrackPointExtension>
            <ns3:atemp>17.0</ns3:atemp>
          </ns3:TrackPointExtension>
        </extensions>
      </trkpt>
      <trkpt lat="46.77268157713115215301513671875" lon="6.906117908656597137451171875">
        <ele>348.79998779296875</ele>
        <time>2013-09-01T16:31:59.000Z</time>
        <extensions>
          <ns3:TrackPointExtension>
            <ns3:atemp>17.0</ns3:atemp>
          </ns3:TrackPointExtension>
        </extensions>
      </trkpt>
      <trkpt lat="46.772719882428646087646484375" lon="6.9061665236949920654296875">
        <ele>349</ele>
        <time>2013-09-01T16:32:00.000Z</time>
        <extensions>
          <ns3:TrackPointExtension>
            <ns3:atemp>17.0</ns3:atemp>
          </ns3:TrackPointExtension>
        </extensions>
      </trkpt>
      <trkpt lat="46.7727606184780597686767578125" lon="6.9062200002372264862060546875">
        <ele>349</ele>
        <time>2013-09-01T16:32:01.000Z</time>
        <extensions>
          <ns3:TrackPointExtension>
            <ns3:atemp>17.0</ns3:atemp>
          </ns3:TrackPointExtension>
        </extensions>
      </trkpt>
      <trkpt lat="46.77280445583164691925048828125" lon="6.9062793441116809844970703125">
        <ele>349</ele>
        <time>2013-09-01T16:32:02.000Z</time>
        <extensions>
          <ns3:TrackPointExtension>
            <ns3:atemp>17.0</ns3:atemp>
          </ns3:TrackPointExtension>
        </extensions>
      </trkpt>
      <trkpt lat="46.772851981222629547119140625" lon="6.90634447149932384490966796875">
        <ele>349</ele>
        <time>2013-09-01T16:32:03.000Z</time>
        <extensions>
          <ns3:TrackPointExtension>
            <ns3:atemp>17.0</ns3:atemp>
          </ns3:TrackPointExtension>
        </extensions>
      </trkpt>
      <trkpt lat="46.77290420047938823699951171875" lon="6.90641286782920360565185546875">
        <ele>348.79998779296875</ele>
        <time>2013-09-01T16:32:04.000Z</time>
        <extensions>
          <ns3:TrackPointExtension>
            <ns3:atemp>17.0</ns3:atemp>
          </ns3:TrackPointExtension>
        </extensions>
      </trkpt>
      <trkpt lat="46.77295868285000324249267578125" lon="6.90647942014038562774658203125">
        <ele>348.600006103515625</ele>
        <time>2013-09-01T16:32:05.000Z</time>
        <extensions>
          <ns3:TrackPointExtension>
            <ns3:atemp>17.0</ns3:atemp>
          </ns3:TrackPointExtension>
        </extensions>
      </trkpt>
      <trkpt lat="46.7730144225060939788818359375" lon="6.90654194913804531097412109375">
        <ele>348.399993896484375</ele>
        <time>2013-09-01T16:32:06.000Z</time>
        <extensions>
          <ns3:TrackPointExtension>
            <ns3:atemp>17.0</ns3:atemp>
          </ns3:TrackPointExtension>
        </extensions>
      </trkpt>
      <trkpt lat="46.77307133562862873077392578125" lon="6.906600706279277801513671875">
        <ele>348.20001220703125</ele>
        <time>2013-09-01T16:32:07.000Z</time>
        <extensions>
          <ns3:TrackPointExtension>
            <ns3:atemp>17.0</ns3:atemp>
          </ns3:TrackPointExtension>
        </extensions>
      </trkpt>
      <trkpt lat="46.77312866784632205963134765625" lon="6.90665728412568569183349609375">
        <ele>348</ele>
        <time>2013-09-01T16:32:08.000Z</time>
        <extensions>
          <ns3:TrackPointExtension>
            <ns3:atemp>17.0</ns3:atemp>
          </ns3:TrackPointExtension>
        </extensions>
      </trkpt>
      <trkpt lat="46.7731864191591739654541015625" lon="6.906711347401142120361328125">
        <ele>348</ele>
        <time>2013-09-01T16:32:09.000Z</time>
        <extensions>
          <ns3:TrackPointExtension>
            <ns3:atemp>17.0</ns3:atemp>
          </ns3:TrackPointExtension>
        </extensions>
      </trkpt>
      <trkpt lat="46.7732444219291210174560546875" lon="6.9067638181149959564208984375">
        <ele>348</ele>
        <time>2013-09-01T16:32:10.000Z</time>
        <extensions>
          <ns3:TrackPointExtension>
            <ns3:atemp>17.0</ns3:atemp>
          </ns3:TrackPointExtension>
        </extensions>
      </trkpt>
      <trkpt lat="46.7733014188706874847412109375" lon="6.90681670792400836944580078125">
        <ele>348.20001220703125</ele>
        <time>2013-09-01T16:32:11.000Z</time>
        <extensions>
          <ns3:TrackPointExtension>
            <ns3:atemp>17.0</ns3:atemp>
          </ns3:TrackPointExtension>
        </extensions>
      </trkpt>
      <trkpt lat="46.77335816435515880584716796875" lon="6.90686725080013275146484375">
        <ele>348.20001220703125</ele>
        <time>2013-09-01T16:32:12.000Z</time>
        <extensions>
          <ns3:TrackPointExtension>
            <ns3:atemp>17.0</ns3:atemp>
          </ns3:TrackPointExtension>
        </extensions>
      </trkpt>
      <trkpt lat="46.7734144069254398345947265625" lon="6.90691662020981311798095703125">
        <ele>348</ele>
        <time>2013-09-01T16:32:13.000Z</time>
        <extensions>
          <ns3:TrackPointExtension>
            <ns3:atemp>17.0</ns3:atemp>
          </ns3:TrackPointExtension>
        </extensions>
      </trkpt>
      <trkpt lat="46.77347048185765743255615234375" lon="6.906964480876922607421875">
        <ele>348.20001220703125</ele>
        <time>2013-09-01T16:32:14.000Z</time>
        <extensions>
          <ns3:TrackPointExtension>
            <ns3:atemp>17.0</ns3:atemp>
          </ns3:TrackPointExtension>
        </extensions>
      </trkpt>
      <trkpt lat="46.77352488040924072265625" lon="6.9070119224488735198974609375">
        <ele>348.399993896484375</ele>
        <time>2013-09-01T16:32:15.000Z</time>
        <extensions>
          <ns3:TrackPointExtension>
            <ns3:atemp>17.0</ns3:atemp>
          </ns3:TrackPointExtension>
        </extensions>
      </trkpt>
      <trkpt lat="46.77357894368469715118408203125" lon="6.907056681811809539794921875">
        <ele>348.600006103515625</ele>
        <time>2013-09-01T16:32:16.000Z</time>
        <extensions>
          <ns3:TrackPointExtension>
            <ns3:atemp>17.0</ns3:atemp>
          </ns3:TrackPointExtension>
        </extensions>
      </trkpt>
      <trkpt lat="46.773634850978851318359375" lon="6.90709683112800121307373046875">
        <ele>348.399993896484375</ele>
        <time>2013-09-01T16:32:17.000Z</time>
        <extensions>
          <ns3:TrackPointExtension>
            <ns3:atemp>17.0</ns3:atemp>
          </ns3:TrackPointExtension>
        </extensions>
      </trkpt>
      <trkpt lat="46.77369184792041778564453125" lon="6.90714326687157154083251953125">
        <ele>348</ele>
        <time>2013-09-01T16:32:18.000Z</time>
        <extensions>
          <ns3:TrackPointExtension>
            <ns3:atemp>17.0</ns3:atemp>
          </ns3:TrackPointExtension>
        </extensions>
      </trkpt>
      <trkpt lat="46.77374792285263538360595703125" lon="6.9071929715573787689208984375">
        <ele>347.79998779296875</ele>
        <time>2013-09-01T16:32:19.000Z</time>
        <extensions>
          <ns3:TrackPointExtension>
            <ns3:atemp>17.0</ns3:atemp>
          </ns3:TrackPointExtension>
        </extensions>
      </trkpt>
      <trkpt lat="46.77380441688001155853271484375" lon="6.90723898820579051971435546875">
        <ele>348</ele>
        <time>2013-09-01T16:32:20.000Z</time>
        <extensions>
          <ns3:TrackPointExtension>
            <ns3:atemp>17.0</ns3:atemp>
          </ns3:TrackPointExtension>
        </extensions>
      </trkpt>
      <trkpt lat="46.77386057563126087188720703125" lon="6.90728366374969482421875">
        <ele>348.399993896484375</ele>
        <time>2013-09-01T16:32:21.000Z</time>
        <extensions>
          <ns3:TrackPointExtension>
            <ns3:atemp>17.0</ns3:atemp>
          </ns3:TrackPointExtension>
        </extensions>
      </trkpt>
      <trkpt lat="46.77391673438251018524169921875" lon="6.90732951276004314422607421875">
        <ele>348.600006103515625</ele>
        <time>2013-09-01T16:32:22.000Z</time>
        <extensions>
          <ns3:TrackPointExtension>
            <ns3:atemp>17.0</ns3:atemp>
          </ns3:TrackPointExtension>
        </extensions>
      </trkpt>
      <trkpt lat="46.7739726416766643524169921875" lon="6.90737578086555004119873046875">
        <ele>348.399993896484375</ele>
        <time>2013-09-01T16:32:23.000Z</time>
        <extensions>
          <ns3:TrackPointExtension>
            <ns3:atemp>17.0</ns3:atemp>
          </ns3:TrackPointExtension>
        </extensions>
      </trkpt>
      <trkpt lat="46.77402838133275508880615234375" lon="6.90741785801947116851806640625">
        <ele>348.399993896484375</ele>
        <time>2013-09-01T16:32:24.000Z</time>
        <extensions>
          <ns3:TrackPointExtension>
            <ns3:atemp>17.0</ns3:atemp>
          </ns3:TrackPointExtension>
        </extensions>
      </trkpt>
      <trkpt lat="46.77408370189368724822998046875" lon="6.9074581749737262725830078125">
        <ele>348.399993896484375</ele>
        <time>2013-09-01T16:32:25.000Z</time>
        <extensions>
          <ns3:TrackPointExtension>
            <ns3:atemp>17.0</ns3:atemp>
          </ns3:TrackPointExtension>
        </extensions>
      </trkpt>
      <trkpt lat="46.77413843572139739990234375" lon="6.90749966539442539215087890625">
        <ele>348.399993896484375</ele>
        <time>2013-09-01T16:32:26.000Z</time>
        <extensions>
          <ns3:TrackPointExtension>
            <ns3:atemp>17.0</ns3:atemp>
          </ns3:TrackPointExtension>
        </extensions>
      </trkpt>
      <trkpt lat="46.77419476211071014404296875" lon="6.9075376354157924652099609375">
        <ele>347.79998779296875</ele>
        <time>2013-09-01T16:32:27.000Z</time>
        <extensions>
          <ns3:TrackPointExtension>
            <ns3:atemp>17.0</ns3:atemp>
          </ns3:TrackPointExtension>
        </extensions>
      </trkpt>
      <trkpt lat="46.77425234578549861907958984375" lon="6.907571665942668914794921875">
        <ele>348</ele>
        <time>2013-09-01T16:32:28.000Z</time>
        <extensions>
          <ns3:TrackPointExtension>
            <ns3:atemp>17.0</ns3:atemp>
          </ns3:TrackPointExtension>
        </extensions>
      </trkpt>
      <trkpt lat="46.774309761822223663330078125" lon="6.90760930068790912628173828125">
        <ele>348</ele>
        <time>2013-09-01T16:32:29.000Z</time>
        <extensions>
          <ns3:TrackPointExtension>
            <ns3:atemp>17.0</ns3:atemp>
          </ns3:TrackPointExtension>
        </extensions>
      </trkpt>
      <trkpt lat="46.774366758763790130615234375" lon="6.90764802508056163787841796875">
        <ele>347.79998779296875</ele>
        <time>2013-09-01T16:32:30.000Z</time>
        <extensions>
          <ns3:TrackPointExtension>
            <ns3:atemp>17.0</ns3:atemp>
          </ns3:TrackPointExtension>
        </extensions>
      </trkpt>
      <trkpt lat="46.77442451007664203643798828125" lon="6.90768591128289699554443359375">
        <ele>347.79998779296875</ele>
        <time>2013-09-01T16:32:31.000Z</time>
        <extensions>
          <ns3:TrackPointExtension>
            <ns3:atemp>17.0</ns3:atemp>
          </ns3:TrackPointExtension>
        </extensions>
      </trkpt>
      <trkpt lat="46.7744809202849864959716796875" lon="6.90772689878940582275390625">
        <ele>347.79998779296875</ele>
        <time>2013-09-01T16:32:32.000Z</time>
        <extensions>
          <ns3:TrackPointExtension>
            <ns3:atemp>17.0</ns3:atemp>
          </ns3:TrackPointExtension>
        </extensions>
      </trkpt>
      <trkpt lat="46.7745369113981723785400390625" lon="6.907770149409770965576171875">
        <ele>348</ele>
        <time>2013-09-01T16:32:33.000Z</time>
        <extensions>
          <ns3:TrackPointExtension>
            <ns3:atemp>17.0</ns3:atemp>
          </ns3:TrackPointExtension>
        </extensions>
      </trkpt>
      <trkpt lat="46.7745915614068508148193359375" lon="6.90781415440142154693603515625">
        <ele>348</ele>
        <time>2013-09-01T16:32:34.000Z</time>
        <extensions>
          <ns3:TrackPointExtension>
            <ns3:atemp>17.0</ns3:atemp>
          </ns3:TrackPointExtension>
        </extensions>
      </trkpt>
      <trkpt lat="46.774643361568450927734375" lon="6.90785975195467472076416015625">
        <ele>348</ele>
        <time>2013-09-01T16:32:35.000Z</time>
        <extensions>
          <ns3:TrackPointExtension>
            <ns3:atemp>17.0</ns3:atemp>
          </ns3:TrackPointExtension>
        </extensions>
      </trkpt>
      <trkpt lat="46.7746971733868122100830078125" lon="6.9079045951366424560546875">
        <ele>347.79998779296875</ele>
        <time>2013-09-01T16:32:36.000Z</time>
        <extensions>
          <ns3:TrackPointExtension>
            <ns3:atemp>17.0</ns3:atemp>
          </ns3:TrackPointExtension>
        </extensions>
      </trkpt>
      <trkpt lat="46.77475266158580780029296875" lon="6.90794474445283412933349609375">
        <ele>347.79998779296875</ele>
        <time>2013-09-01T16:32:37.000Z</time>
        <extensions>
          <ns3:TrackPointExtension>
            <ns3:atemp>17.0</ns3:atemp>
          </ns3:TrackPointExtension>
        </extensions>
      </trkpt>
      <trkpt lat="46.774807982146739959716796875" lon="6.9079838879406452178955078125">
        <ele>347.600006103515625</ele>
        <time>2013-09-01T16:32:38.000Z</time>
        <extensions>
          <ns3:TrackPointExtension>
            <ns3:atemp>17.0</ns3:atemp>
          </ns3:TrackPointExtension>
        </extensions>
      </trkpt>
      <trkpt lat="46.77486305125057697296142578125" lon="6.9080226123332977294921875">
        <ele>347.79998779296875</ele>
        <time>2013-09-01T16:32:39.000Z</time>
        <extensions>
          <ns3:TrackPointExtension>
            <ns3:atemp>17.0</ns3:atemp>
          </ns3:TrackPointExtension>
        </extensions>
      </trkpt>
      <trkpt lat="46.774917282164096832275390625" lon="6.90806217491626739501953125">
        <ele>347.79998779296875</ele>
        <time>2013-09-01T16:32:40.000Z</time>
        <extensions>
          <ns3:TrackPointExtension>
            <ns3:atemp>17.0</ns3:atemp>
          </ns3:TrackPointExtension>
        </extensions>
      </trkpt>
      <trkpt lat="46.77497067488729953765869140625" lon="6.90809972584247589111328125">
        <ele>348</ele>
        <time>2013-09-01T16:32:41.000Z</time>
        <extensions>
          <ns3:TrackPointExtension>
            <ns3:atemp>17.0</ns3:atemp>
          </ns3:TrackPointExtension>
        </extensions>
      </trkpt>
      <trkpt lat="46.77502482198178768157958984375" lon="6.90813601948320865631103515625">
        <ele>347.79998779296875</ele>
        <time>2013-09-01T16:32:42.000Z</time>
        <extensions>
          <ns3:TrackPointExtension>
            <ns3:atemp>17.0</ns3:atemp>
          </ns3:TrackPointExtension>
        </extensions>
      </trkpt>
      <trkpt lat="46.7750790528953075408935546875" lon="6.908173151314258575439453125">
        <ele>347.399993896484375</ele>
        <time>2013-09-01T16:32:43.000Z</time>
        <extensions>
          <ns3:TrackPointExtension>
            <ns3:atemp>17.0</ns3:atemp>
          </ns3:TrackPointExtension>
        </extensions>
      </trkpt>
      <trkpt lat="46.77513328380882740020751953125" lon="6.90821162424981594085693359375">
        <ele>347.399993896484375</ele>
        <time>2013-09-01T16:32:44.000Z</time>
        <extensions>
          <ns3:TrackPointExtension>
            <ns3:atemp>17.0</ns3:atemp>
          </ns3:TrackPointExtension>
        </extensions>
      </trkpt>
      <trkpt lat="46.7751880176365375518798828125" lon="6.9082477502524852752685546875">
        <ele>347.399993896484375</ele>
        <time>2013-09-01T16:32:45.000Z</time>
        <extensions>
          <ns3:TrackPointExtension>
            <ns3:atemp>17.0</ns3:atemp>
          </ns3:TrackPointExtension>
        </extensions>
      </trkpt>
      <trkpt lat="46.7752428352832794189453125" lon="6.90828354097902774810791015625">
        <ele>347.600006103515625</ele>
        <time>2013-09-01T16:32:46.000Z</time>
        <extensions>
          <ns3:TrackPointExtension>
            <ns3:atemp>17.0</ns3:atemp>
          </ns3:TrackPointExtension>
        </extensions>
      </trkpt>
      <trkpt lat="46.77529823966324329376220703125" lon="6.90832125954329967498779296875">
        <ele>347.79998779296875</ele>
        <time>2013-09-01T16:32:47.000Z</time>
        <extensions>
          <ns3:TrackPointExtension>
            <ns3:atemp>17.0</ns3:atemp>
          </ns3:TrackPointExtension>
        </extensions>
      </trkpt>
      <trkpt lat="46.77535322494804859161376953125" lon="6.90835797227919101715087890625">
        <ele>347.79998779296875</ele>
        <time>2013-09-01T16:32:48.000Z</time>
        <extensions>
          <ns3:TrackPointExtension>
            <ns3:atemp>17.0</ns3:atemp>
          </ns3:TrackPointExtension>
        </extensions>
      </trkpt>
      <trkpt lat="46.77540804259479045867919921875" lon="6.90839736722409725189208984375">
        <ele>347.600006103515625</ele>
        <time>2013-09-01T16:32:49.000Z</time>
        <extensions>
          <ns3:TrackPointExtension>
            <ns3:atemp>17.0</ns3:atemp>
          </ns3:TrackPointExtension>
        </extensions>
      </trkpt>
      <trkpt lat="46.77546151913702487945556640625" lon="6.908437348902225494384765625">
        <ele>347.600006103515625</ele>
        <time>2013-09-01T16:32:50.000Z</time>
        <extensions>
          <ns3:TrackPointExtension>
            <ns3:atemp>17.0</ns3:atemp>
          </ns3:TrackPointExtension>
        </extensions>
      </trkpt>
      <trkpt lat="46.77551575005054473876953125" lon="6.9084760732948780059814453125">
        <ele>347.600006103515625</ele>
        <time>2013-09-01T16:32:51.000Z</time>
        <extensions>
          <ns3:TrackPointExtension>
            <ns3:atemp>17.0</ns3:atemp>
          </ns3:TrackPointExtension>
        </extensions>
      </trkpt>
      <trkpt lat="46.77556964568793773651123046875" lon="6.90851437859237194061279296875">
        <ele>347.79998779296875</ele>
        <time>2013-09-01T16:32:52.000Z</time>
        <extensions>
          <ns3:TrackPointExtension>
            <ns3:atemp>17.0</ns3:atemp>
          </ns3:TrackPointExtension>
        </extensions>
      </trkpt>
      <trkpt lat="46.7756232060492038726806640625" lon="6.9085505045950412750244140625">
        <ele>347.600006103515625</ele>
        <time>2013-09-01T16:32:53.000Z</time>
        <extensions>
          <ns3:TrackPointExtension>
            <ns3:atemp>17.0</ns3:atemp>
          </ns3:TrackPointExtension>
        </extensions>
      </trkpt>
      <trkpt lat="46.77567609585821628570556640625" lon="6.9085840322077274322509765625">
        <ele>347.399993896484375</ele>
        <time>2013-09-01T16:32:54.000Z</time>
        <extensions>
          <ns3:TrackPointExtension>
            <ns3:atemp>17.0</ns3:atemp>
          </ns3:TrackPointExtension>
        </extensions>
      </trkpt>
      <trkpt lat="46.77572806365787982940673828125" lon="6.908617056906223297119140625">
        <ele>347.399993896484375</ele>
        <time>2013-09-01T16:32:55.000Z</time>
        <extensions>
          <ns3:TrackPointExtension>
            <ns3:atemp>17.0</ns3:atemp>
          </ns3:TrackPointExtension>
        </extensions>
      </trkpt>
      <trkpt lat="46.7757774330675601959228515625" lon="6.9086502492427825927734375">
        <ele>347.399993896484375</ele>
        <time>2013-09-01T16:32:56.000Z</time>
        <extensions>
          <ns3:TrackPointExtension>
            <ns3:atemp>17.0</ns3:atemp>
          </ns3:TrackPointExtension>
        </extensions>
      </trkpt>
      <trkpt lat="46.77582546137273311614990234375" lon="6.908682771027088165283203125">
        <ele>347.600006103515625</ele>
        <time>2013-09-01T16:32:57.000Z</time>
        <extensions>
          <ns3:TrackPointExtension>
            <ns3:atemp>17.0</ns3:atemp>
          </ns3:TrackPointExtension>
        </extensions>
      </trkpt>
      <trkpt lat="46.77587240003049373626708984375" lon="6.9087171368300914764404296875">
        <ele>347.399993896484375</ele>
        <time>2013-09-01T16:32:58.000Z</time>
        <extensions>
          <ns3:TrackPointExtension>
            <ns3:atemp>17.0</ns3:atemp>
          </ns3:TrackPointExtension>
        </extensions>
      </trkpt>
      <trkpt lat="46.77591833285987377166748046875" lon="6.90875141881406307220458984375">
        <ele>347.20001220703125</ele>
        <time>2013-09-01T16:32:59.000Z</time>
        <extensions>
          <ns3:TrackPointExtension>
            <ns3:atemp>17.0</ns3:atemp>
          </ns3:TrackPointExtension>
        </extensions>
      </trkpt>
      <trkpt lat="46.7759628407657146453857421875" lon="6.90878410823643207550048828125">
        <ele>347</ele>
        <time>2013-09-01T16:33:00.000Z</time>
        <extensions>
          <ns3:TrackPointExtension>
            <ns3:atemp>17.0</ns3:atemp>
          </ns3:TrackPointExtension>
        </extensions>
      </trkpt>
      <trkpt lat="46.77600684575736522674560546875" lon="6.90881587564945220947265625">
        <ele>347.20001220703125</ele>
        <time>2013-09-01T16:33:01.000Z</time>
        <extensions>
          <ns3:TrackPointExtension>
            <ns3:atemp>17.0</ns3:atemp>
          </ns3:TrackPointExtension>
        </extensions>
      </trkpt>
      <trkpt lat="46.77604825235903263092041015625" lon="6.908847056329250335693359375">
        <ele>347</ele>
        <time>2013-09-01T16:33:02.000Z</time>
        <extensions>
          <ns3:TrackPointExtension>
            <ns3:atemp>17.0</ns3:atemp>
          </ns3:TrackPointExtension>
        </extensions>
      </trkpt>
      <trkpt lat="46.77609049715101718902587890625" lon="6.90887899138033390045166015625">
        <ele>346.79998779296875</ele>
        <time>2013-09-01T16:33:03.000Z</time>
        <extensions>
          <ns3:TrackPointExtension>
            <ns3:atemp>17.0</ns3:atemp>
          </ns3:TrackPointExtension>
        </extensions>
      </trkpt>
      <trkpt lat="46.77613475359976291656494140625" lon="6.90890816040337085723876953125">
        <ele>346.20001220703125</ele>
        <time>2013-09-01T16:33:04.000Z</time>
        <extensions>
          <ns3:TrackPointExtension>
            <ns3:atemp>17.0</ns3:atemp>
          </ns3:TrackPointExtension>
        </extensions>
      </trkpt>
      <trkpt lat="46.77617984823882579803466796875" lon="6.908938586711883544921875">
        <ele>346</ele>
        <time>2013-09-01T16:33:05.000Z</time>
        <extensions>
          <ns3:TrackPointExtension>
            <ns3:atemp>17.0</ns3:atemp>
          </ns3:TrackPointExtension>
        </extensions>
      </trkpt>
      <trkpt lat="46.7762253619730472564697265625" lon="6.9089702703058719635009765625">
        <ele>346</ele>
        <time>2013-09-01T16:33:06.000Z</time>
        <extensions>
          <ns3:TrackPointExtension>
            <ns3:atemp>17.0</ns3:atemp>
          </ns3:TrackPointExtension>
        </extensions>
      </trkpt>
      <trkpt lat="46.7762729711830615997314453125" lon="6.9090017862617969512939453125">
        <ele>346.20001220703125</ele>
        <time>2013-09-01T16:33:07.000Z</time>
        <extensions>
          <ns3:TrackPointExtension>
            <ns3:atemp>17.0</ns3:atemp>
          </ns3:TrackPointExtension>
        </extensions>
      </trkpt>
      <trkpt lat="46.77632234059274196624755859375" lon="6.90903774462640285491943359375">
        <ele>346.20001220703125</ele>
        <time>2013-09-01T16:33:08.000Z</time>
        <extensions>
          <ns3:TrackPointExtension>
            <ns3:atemp>17.0</ns3:atemp>
          </ns3:TrackPointExtension>
        </extensions>
      </trkpt>
      <trkpt lat="46.77637229673564434051513671875" lon="6.9090735353529453277587890625">
        <ele>346.399993896484375</ele>
        <time>2013-09-01T16:33:09.000Z</time>
        <extensions>
          <ns3:TrackPointExtension>
            <ns3:atemp>17.0</ns3:atemp>
          </ns3:TrackPointExtension>
        </extensions>
      </trkpt>
      <trkpt lat="46.77642191760241985321044921875" lon="6.9091060571372509002685546875">
        <ele>346.600006103515625</ele>
        <time>2013-09-01T16:33:10.000Z</time>
        <extensions>
          <ns3:TrackPointExtension>
            <ns3:atemp>17.0</ns3:atemp>
          </ns3:TrackPointExtension>
        </extensions>
      </trkpt>
      <trkpt lat="46.77647137083113193511962890625" lon="6.9091342203319072723388671875">
        <ele>346.600006103515625</ele>
        <time>2013-09-01T16:33:11.000Z</time>
        <extensions>
          <ns3:TrackPointExtension>
            <ns3:atemp>17.0</ns3:atemp>
          </ns3:TrackPointExtension>
        </extensions>
      </trkpt>
      <trkpt lat="46.776517890393733978271484375" lon="6.90916858613491058349609375">
        <ele>346.600006103515625</ele>
        <time>2013-09-01T16:33:12.000Z</time>
        <extensions>
          <ns3:TrackPointExtension>
            <ns3:atemp>17.0</ns3:atemp>
          </ns3:TrackPointExtension>
        </extensions>
      </trkpt>
      <trkpt lat="46.77656122483313083648681640625" lon="6.90920471213757991790771484375">
        <ele>346.600006103515625</ele>
        <time>2013-09-01T16:33:13.000Z</time>
        <extensions>
          <ns3:TrackPointExtension>
            <ns3:atemp>17.0</ns3:atemp>
          </ns3:TrackPointExtension>
        </extensions>
      </trkpt>
      <trkpt lat="46.77660179324448108673095703125" lon="6.9092448614537715911865234375">
        <ele>346.600006103515625</ele>
        <time>2013-09-01T16:33:14.000Z</time>
        <extensions>
          <ns3:TrackPointExtension>
            <ns3:atemp>17.0</ns3:atemp>
          </ns3:TrackPointExtension>
        </extensions>
      </trkpt>
      <trkpt lat="46.7766400985419750213623046875" lon="6.90928794443607330322265625">
        <ele>346.20001220703125</ele>
        <time>2013-09-01T16:33:15.000Z</time>
        <extensions>
          <ns3:TrackPointExtension>
            <ns3:atemp>17.0</ns3:atemp>
          </ns3:TrackPointExtension>
        </extensions>
      </trkpt>
      <trkpt lat="46.77667471580207347869873046875" lon="6.90933178178966045379638671875">
        <ele>346</ele>
        <time>2013-09-01T16:33:16.000Z</time>
        <extensions>
          <ns3:TrackPointExtension>
            <ns3:atemp>17.0</ns3:atemp>
          </ns3:TrackPointExtension>
        </extensions>
      </trkpt>
      <trkpt lat="46.77670924924314022064208984375" lon="6.9093699194490909576416015625">
        <ele>346.20001220703125</ele>
        <time>2013-09-01T16:33:17.000Z</time>
        <extensions>
          <ns3:TrackPointExtension>
            <ns3:atemp>17.0</ns3:atemp>
          </ns3:TrackPointExtension>
        </extensions>
      </trkpt>
      <trkpt lat="46.77674696780741214752197265625" lon="6.9093903712928295135498046875">
        <ele>346</ele>
        <time>2013-09-01T16:33:18.000Z</time>
        <extensions>
          <ns3:TrackPointExtension>
            <ns3:atemp>17.0</ns3:atemp>
          </ns3:TrackPointExtension>
        </extensions>
      </trkpt>
      <trkpt lat="46.77678837440907955169677734375" lon="6.90940336324274539947509765625">
        <ele>346</ele>
        <time>2013-09-01T16:33:19.000Z</time>
        <extensions>
          <ns3:TrackPointExtension>
            <ns3:atemp>17.0</ns3:atemp>
          </ns3:TrackPointExtension>
        </extensions>
      </trkpt>
      <trkpt lat="46.776831038296222686767578125" lon="6.90941744484007358551025390625">
        <ele>345.79998779296875</ele>
        <time>2013-09-01T16:33:20.000Z</time>
        <extensions>
          <ns3:TrackPointExtension>
            <ns3:atemp>17.0</ns3:atemp>
          </ns3:TrackPointExtension>
        </extensions>
      </trkpt>
      <trkpt lat="46.776874624192714691162109375" lon="6.90943504683673381805419921875">
        <ele>346</ele>
        <time>2013-09-01T16:33:21.000Z</time>
        <extensions>
          <ns3:TrackPointExtension>
            <ns3:atemp>17.0</ns3:atemp>
          </ns3:TrackPointExtension>
        </extensions>
      </trkpt>
      <trkpt lat="46.7769192159175872802734375" lon="6.90944560803472995758056640625">
        <ele>346</ele>
        <time>2013-09-01T16:33:22.000Z</time>
        <extensions>
          <ns3:TrackPointExtension>
            <ns3:atemp>17.0</ns3:atemp>
          </ns3:TrackPointExtension>
        </extensions>
      </trkpt>
      <trkpt lat="46.77696070633828639984130859375" lon="6.90944611094892024993896484375">
        <ele>346</ele>
        <time>2013-09-01T16:33:23.000Z</time>
        <extensions>
          <ns3:TrackPointExtension>
            <ns3:atemp>17.0</ns3:atemp>
          </ns3:TrackPointExtension>
        </extensions>
      </trkpt>
      <trkpt lat="46.77699373103678226470947265625" lon="6.9094463624060153961181640625">
        <ele>345.79998779296875</ele>
        <time>2013-09-01T16:33:24.000Z</time>
        <extensions>
          <ns3:TrackPointExtension>
            <ns3:atemp>17.0</ns3:atemp>
          </ns3:TrackPointExtension>
        </extensions>
      </trkpt>
      <trkpt lat="46.77701870910823345184326171875" lon="6.90945088863372802734375">
        <ele>345.79998779296875</ele>
        <time>2013-09-01T16:33:25.000Z</time>
        <extensions>
          <ns3:TrackPointExtension>
            <ns3:atemp>17.0</ns3:atemp>
          </ns3:TrackPointExtension>
        </extensions>
      </trkpt>
      <trkpt lat="46.77703949622809886932373046875" lon="6.90945398993790149688720703125">
        <ele>346</ele>
        <time>2013-09-01T16:33:26.000Z</time>
        <extensions>
          <ns3:TrackPointExtension>
            <ns3:atemp>17.0</ns3:atemp>
          </ns3:TrackPointExtension>
        </extensions>
      </trkpt>
      <trkpt lat="46.77705290727317333221435546875" lon="6.909451894462108612060546875">
        <ele>346.20001220703125</ele>
        <time>2013-09-01T16:33:27.000Z</time>
        <extensions>
          <ns3:TrackPointExtension>
            <ns3:atemp>17.0</ns3:atemp>
          </ns3:TrackPointExtension>
        </extensions>
      </trkpt>
      <trkpt lat="46.77705458365380764007568359375" lon="6.90944015979766845703125">
        <ele>346.399993896484375</ele>
        <time>2013-09-01T16:33:28.000Z</time>
        <extensions>
          <ns3:TrackPointExtension>
            <ns3:atemp>17.0</ns3:atemp>
          </ns3:TrackPointExtension>
        </extensions>
      </trkpt>
      <trkpt lat="46.7770434357225894927978515625" lon="6.9094265811145305633544921875">
        <ele>346.600006103515625</ele>
        <time>2013-09-01T16:33:29.000Z</time>
        <extensions>
          <ns3:TrackPointExtension>
            <ns3:atemp>17.0</ns3:atemp>
          </ns3:TrackPointExtension>
        </extensions>
      </trkpt>
      <trkpt lat="46.7770253308117389678955078125" lon="6.9094121642410755157470703125">
        <ele>346.399993896484375</ele>
        <time>2013-09-01T16:33:30.000Z</time>
        <extensions>
          <ns3:TrackPointExtension>
            <ns3:atemp>17.0</ns3:atemp>
          </ns3:TrackPointExtension>
        </extensions>
      </trkpt>
      <trkpt lat="46.77700194530189037322998046875" lon="6.909395568072795867919921875">
        <ele>346.600006103515625</ele>
        <time>2013-09-01T16:33:31.000Z</time>
        <extensions>
          <ns3:TrackPointExtension>
            <ns3:atemp>17.0</ns3:atemp>
          </ns3:TrackPointExtension>
        </extensions>
      </trkpt>
      <trkpt lat="46.77697143517434597015380859375" lon="6.90937645733356475830078125">
        <ele>346.600006103515625</ele>
        <time>2013-09-01T16:33:32.000Z</time>
        <extensions>
          <ns3:TrackPointExtension>
            <ns3:atemp>17.0</ns3:atemp>
          </ns3:TrackPointExtension>
        </extensions>
      </trkpt>
      <trkpt lat="46.776937656104564666748046875" lon="6.9093534909188747406005859375">
        <ele>346.600006103515625</ele>
        <time>2013-09-01T16:33:33.000Z</time>
        <extensions>
          <ns3:TrackPointExtension>
            <ns3:atemp>17.0</ns3:atemp>
          </ns3:TrackPointExtension>
        </extensions>
      </trkpt>
      <trkpt lat="46.77690085954964160919189453125" lon="6.9093296863138675689697265625">
        <ele>346.600006103515625</ele>
        <time>2013-09-01T16:33:34.000Z</time>
        <extensions>
          <ns3:TrackPointExtension>
            <ns3:atemp>17.0</ns3:atemp>
          </ns3:TrackPointExtension>
        </extensions>
      </trkpt>
      <trkpt lat="46.7768633924424648284912109375" lon="6.90930831246078014373779296875">
        <ele>346.79998779296875</ele>
        <time>2013-09-01T16:33:35.000Z</time>
        <extensions>
          <ns3:TrackPointExtension>
            <ns3:atemp>17.0</ns3:atemp>
          </ns3:TrackPointExtension>
        </extensions>
      </trkpt>
      <trkpt lat="46.77682936191558837890625" lon="6.90928534604609012603759765625">
        <ele>346.79998779296875</ele>
        <time>2013-09-01T16:33:36.000Z</time>
        <extensions>
          <ns3:TrackPointExtension>
            <ns3:atemp>17.0</ns3:atemp>
          </ns3:TrackPointExtension>
        </extensions>
      </trkpt>
      <trkpt lat="46.77679658867418766021728515625" lon="6.90926590003073215484619140625">
        <ele>346.79998779296875</ele>
        <time>2013-09-01T16:33:37.000Z</time>
        <extensions>
          <ns3:TrackPointExtension>
            <ns3:atemp>17.0</ns3:atemp>
          </ns3:TrackPointExtension>
        </extensions>
      </trkpt>
      <trkpt lat="46.7767681740224361419677734375" lon="6.90925064496695995330810546875">
        <ele>346.79998779296875</ele>
        <time>2013-09-01T16:33:38.000Z</time>
        <extensions>
          <ns3:TrackPointExtension>
            <ns3:atemp>17.0</ns3:atemp>
          </ns3:TrackPointExtension>
        </extensions>
      </trkpt>
      <trkpt lat="46.7767488956451416015625" lon="6.90923974849283695220947265625">
        <ele>346.79998779296875</ele>
        <time>2013-09-01T16:33:39.000Z</time>
        <extensions>
          <ns3:TrackPointExtension>
            <ns3:atemp>17.0</ns3:atemp>
          </ns3:TrackPointExtension>
        </extensions>
      </trkpt>
      <trkpt lat="46.77675182931125164031982421875" lon="6.90924142487347126007080078125">
        <ele>346.600006103515625</ele>
        <time>2013-09-01T16:33:40.000Z</time>
        <extensions>
          <ns3:TrackPointExtension>
            <ns3:atemp>17.0</ns3:atemp>
          </ns3:TrackPointExtension>
        </extensions>
      </trkpt>
      <trkpt lat="46.77673892118036746978759765625" lon="6.90923773683607578277587890625">
        <ele>346.79998779296875</ele>
        <time>2013-09-01T16:33:41.000Z</time>
        <extensions>
          <ns3:TrackPointExtension>
            <ns3:atemp>17.0</ns3:atemp>
          </ns3:TrackPointExtension>
        </extensions>
      </trkpt>
      <trkpt lat="46.77673892118036746978759765625" lon="6.90923773683607578277587890625">
        <ele>347</ele>
        <time>2013-09-01T16:33:42.000Z</time>
        <extensions>
          <ns3:TrackPointExtension>
            <ns3:atemp>17.0</ns3:atemp>
          </ns3:TrackPointExtension>
        </extensions>
      </trkpt>
      <trkpt lat="46.77673892118036746978759765625" lon="6.90923773683607578277587890625">
        <ele>347</ele>
        <time>2013-09-01T16:33:43.000Z</time>
        <extensions>
          <ns3:TrackPointExtension>
            <ns3:atemp>17.0</ns3:atemp>
          </ns3:TrackPointExtension>
        </extensions>
      </trkpt>
      <trkpt lat="46.77674009464681148529052734375" lon="6.9092280976474285125732421875">
        <ele>347</ele>
        <time>2013-09-01T16:33:44.000Z</time>
        <extensions>
          <ns3:TrackPointExtension>
            <ns3:atemp>17.0</ns3:atemp>
          </ns3:TrackPointExtension>
        </extensions>
      </trkpt>
      <trkpt lat="46.77673942409455776214599609375" lon="6.90923019312322139739990234375">
        <ele>347</ele>
        <time>2013-09-01T16:33:45.000Z</time>
        <extensions>
          <ns3:TrackPointExtension>
            <ns3:atemp>17.0</ns3:atemp>
          </ns3:TrackPointExtension>
        </extensions>
      </trkpt>
      <trkpt lat="46.77674311213195323944091796875" lon="6.90921259112656116485595703125">
        <ele>347.20001220703125</ele>
        <time>2013-09-01T16:33:46.000Z</time>
        <extensions>
          <ns3:TrackPointExtension>
            <ns3:atemp>17.0</ns3:atemp>
          </ns3:TrackPointExtension>
        </extensions>
      </trkpt>
      <trkpt lat="46.7767450399696826934814453125" lon="6.90920739434659481048583984375">
        <ele>347.20001220703125</ele>
        <time>2013-09-01T16:33:47.000Z</time>
        <extensions>
          <ns3:TrackPointExtension>
            <ns3:atemp>17.0</ns3:atemp>
          </ns3:TrackPointExtension>
        </extensions>
      </trkpt>
      <trkpt lat="46.77674864418804645538330078125" lon="6.909202449023723602294921875">
        <ele>347.600006103515625</ele>
        <time>2013-09-01T16:33:48.000Z</time>
        <extensions>
          <ns3:TrackPointExtension>
            <ns3:atemp>17.0</ns3:atemp>
          </ns3:TrackPointExtension>
        </extensions>
      </trkpt>
      <trkpt lat="46.7767529189586639404296875" lon="6.9091938994824886322021484375">
        <ele>347.600006103515625</ele>
        <time>2013-09-01T16:33:49.000Z</time>
        <extensions>
          <ns3:TrackPointExtension>
            <ns3:atemp>17.0</ns3:atemp>
          </ns3:TrackPointExtension>
        </extensions>
      </trkpt>
      <trkpt lat="46.77675233222544193267822265625" lon="6.90919532440602779388427734375">
        <ele>347.600006103515625</ele>
        <time>2013-09-01T16:33:50.000Z</time>
        <extensions>
          <ns3:TrackPointExtension>
            <ns3:atemp>17.0</ns3:atemp>
          </ns3:TrackPointExtension>
        </extensions>
      </trkpt>
      <trkpt lat="46.7767577804625034332275390625" lon="6.909174285829067230224609375">
        <ele>347.600006103515625</ele>
        <time>2013-09-01T16:33:51.000Z</time>
        <extensions>
          <ns3:TrackPointExtension>
            <ns3:atemp>17.0</ns3:atemp>
          </ns3:TrackPointExtension>
        </extensions>
      </trkpt>
      <trkpt lat="46.7767611332237720489501953125" lon="6.909156851470470428466796875">
        <ele>347.600006103515625</ele>
        <time>2013-09-01T16:33:52.000Z</time>
        <extensions>
          <ns3:TrackPointExtension>
            <ns3:atemp>17.0</ns3:atemp>
          </ns3:TrackPointExtension>
        </extensions>
      </trkpt>
      <trkpt lat="46.77676607854664325714111328125" lon="6.9091385789215564727783203125">
        <ele>347.600006103515625</ele>
        <time>2013-09-01T16:33:53.000Z</time>
        <extensions>
          <ns3:TrackPointExtension>
            <ns3:atemp>17.0</ns3:atemp>
          </ns3:TrackPointExtension>
        </extensions>
      </trkpt>
      <trkpt lat="46.7767715267837047576904296875" lon="6.90911871381103992462158203125">
        <ele>347.79998779296875</ele>
        <time>2013-09-01T16:33:54.000Z</time>
        <extensions>
          <ns3:TrackPointExtension>
            <ns3:atemp>17.0</ns3:atemp>
          </ns3:TrackPointExtension>
        </extensions>
      </trkpt>
      <trkpt lat="46.776776053011417388916015625" lon="6.90910127945244312286376953125">
        <ele>347.79998779296875</ele>
        <time>2013-09-01T16:33:55.000Z</time>
        <extensions>
          <ns3:TrackPointExtension>
            <ns3:atemp>17.0</ns3:atemp>
          </ns3:TrackPointExtension>
        </extensions>
      </trkpt>
      <trkpt lat="46.77678217180073261260986328125" lon="6.90908317454159259796142578125">
        <ele>347.79998779296875</ele>
        <time>2013-09-01T16:33:56.000Z</time>
        <extensions>
          <ns3:TrackPointExtension>
            <ns3:atemp>17.0</ns3:atemp>
          </ns3:TrackPointExtension>
        </extensions>
      </trkpt>
      <trkpt lat="46.7767896316945552825927734375" lon="6.9090648181736469268798828125">
        <ele>347.79998779296875</ele>
        <time>2013-09-01T16:33:57.000Z</time>
        <extensions>
          <ns3:TrackPointExtension>
            <ns3:atemp>17.0</ns3:atemp>
          </ns3:TrackPointExtension>
        </extensions>
      </trkpt>
      <trkpt lat="46.77679709158837795257568359375" lon="6.909048892557621002197265625">
        <ele>347.79998779296875</ele>
        <time>2013-09-01T16:33:58.000Z</time>
        <extensions>
          <ns3:TrackPointExtension>
            <ns3:atemp>17.0</ns3:atemp>
          </ns3:TrackPointExtension>
        </extensions>
      </trkpt>
      <trkpt lat="46.77680396474897861480712890625" lon="6.90903774462640285491943359375">
        <ele>347.79998779296875</ele>
        <time>2013-09-01T16:33:59.000Z</time>
        <extensions>
          <ns3:TrackPointExtension>
            <ns3:atemp>17.0</ns3:atemp>
          </ns3:TrackPointExtension>
        </extensions>
      </trkpt>
      <trkpt lat="46.77681184373795986175537109375" lon="6.9090242497622966766357421875">
        <ele>347.79998779296875</ele>
        <time>2013-09-01T16:34:00.000Z</time>
        <extensions>
          <ns3:TrackPointExtension>
            <ns3:atemp>17.0</ns3:atemp>
          </ns3:TrackPointExtension>
        </extensions>
      </trkpt>
      <trkpt lat="46.776818297803401947021484375" lon="6.90900824032723903656005859375">
        <ele>347.79998779296875</ele>
        <time>2013-09-01T16:34:01.000Z</time>
        <extensions>
          <ns3:TrackPointExtension>
            <ns3:atemp>17.0</ns3:atemp>
          </ns3:TrackPointExtension>
        </extensions>
      </trkpt>
      <trkpt lat="46.77682399749755859375" lon="6.9089893810451030731201171875">
        <ele>347.79998779296875</ele>
        <time>2013-09-01T16:34:02.000Z</time>
        <extensions>
          <ns3:TrackPointExtension>
            <ns3:atemp>17.0</ns3:atemp>
          </ns3:TrackPointExtension>
        </extensions>
      </trkpt>
      <trkpt lat="46.7768285237252712249755859375" lon="6.908970437943935394287109375">
        <ele>347.79998779296875</ele>
        <time>2013-09-01T16:34:03.000Z</time>
        <extensions>
          <ns3:TrackPointExtension>
            <ns3:atemp>17.0</ns3:atemp>
          </ns3:TrackPointExtension>
        </extensions>
      </trkpt>
      <trkpt lat="46.776833049952983856201171875" lon="6.90894939936697483062744140625">
        <ele>347.600006103515625</ele>
        <time>2013-09-01T16:34:04.000Z</time>
        <extensions>
          <ns3:TrackPointExtension>
            <ns3:atemp>17.0</ns3:atemp>
          </ns3:TrackPointExtension>
        </extensions>
      </trkpt>
      <trkpt lat="46.77683682180941104888916015625" lon="6.90892894752323627471923828125">
        <ele>347.79998779296875</ele>
        <time>2013-09-01T16:34:05.000Z</time>
        <extensions>
          <ns3:TrackPointExtension>
            <ns3:atemp>17.0</ns3:atemp>
          </ns3:TrackPointExtension>
        </extensions>
      </trkpt>
      <trkpt lat="46.7768419347703456878662109375" lon="6.90890832804143428802490234375">
        <ele>347.79998779296875</ele>
        <time>2013-09-01T16:34:06.000Z</time>
        <extensions>
          <ns3:TrackPointExtension>
            <ns3:atemp>17.0</ns3:atemp>
          </ns3:TrackPointExtension>
        </extensions>
      </trkpt>
      <trkpt lat="46.77684746682643890380859375" lon="6.908885948359966278076171875">
        <ele>347.79998779296875</ele>
        <time>2013-09-01T16:34:07.000Z</time>
        <extensions>
          <ns3:TrackPointExtension>
            <ns3:atemp>17.0</ns3:atemp>
          </ns3:TrackPointExtension>
        </extensions>
      </trkpt>
      <trkpt lat="46.77685241214931011199951171875" lon="6.90886038355529308319091796875">
        <ele>347.79998779296875</ele>
        <time>2013-09-01T16:34:08.000Z</time>
        <extensions>
          <ns3:TrackPointExtension>
            <ns3:atemp>17.0</ns3:atemp>
          </ns3:TrackPointExtension>
        </extensions>
      </trkpt>
      <trkpt lat="46.776857189834117889404296875" lon="6.90883406437933444976806640625">
        <ele>347.600006103515625</ele>
        <time>2013-09-01T16:34:09.000Z</time>
        <extensions>
          <ns3:TrackPointExtension>
            <ns3:atemp>17.0</ns3:atemp>
          </ns3:TrackPointExtension>
        </extensions>
      </trkpt>
      <trkpt lat="46.77686263807117938995361328125" lon="6.9088106788694858551025390625">
        <ele>347.79998779296875</ele>
        <time>2013-09-01T16:34:10.000Z</time>
        <extensions>
          <ns3:TrackPointExtension>
            <ns3:atemp>17.0</ns3:atemp>
          </ns3:TrackPointExtension>
        </extensions>
      </trkpt>
      <trkpt lat="46.77686917595565319061279296875" lon="6.908789388835430145263671875">
        <ele>347.79998779296875</ele>
        <time>2013-09-01T16:34:11.000Z</time>
        <extensions>
          <ns3:TrackPointExtension>
            <ns3:atemp>17.0</ns3:atemp>
          </ns3:TrackPointExtension>
        </extensions>
      </trkpt>
      <trkpt lat="46.7768761329352855682373046875" lon="6.90876818262040615081787109375">
        <ele>347.79998779296875</ele>
        <time>2013-09-01T16:34:12.000Z</time>
        <extensions>
          <ns3:TrackPointExtension>
            <ns3:atemp>17.0</ns3:atemp>
          </ns3:TrackPointExtension>
        </extensions>
      </trkpt>
      <trkpt lat="46.77688275463879108428955078125" lon="6.90874756313860416412353515625">
        <ele>347.79998779296875</ele>
        <time>2013-09-01T16:34:13.000Z</time>
        <extensions>
          <ns3:TrackPointExtension>
            <ns3:atemp>17.0</ns3:atemp>
          </ns3:TrackPointExtension>
        </extensions>
      </trkpt>
      <trkpt lat="46.776889376342296600341796875" lon="6.90872794948518276214599609375">
        <ele>347.600006103515625</ele>
        <time>2013-09-01T16:34:14.000Z</time>
        <extensions>
          <ns3:TrackPointExtension>
            <ns3:atemp>17.0</ns3:atemp>
          </ns3:TrackPointExtension>
        </extensions>
      </trkpt>
      <trkpt lat="46.77689599804580211639404296875" lon="6.90871101804077625274658203125">
        <ele>347.600006103515625</ele>
        <time>2013-09-01T16:34:15.000Z</time>
        <extensions>
          <ns3:TrackPointExtension>
            <ns3:atemp>17.0</ns3:atemp>
          </ns3:TrackPointExtension>
        </extensions>
      </trkpt>
      <trkpt lat="46.7769032903015613555908203125" lon="6.90869542770087718963623046875">
        <ele>347.600006103515625</ele>
        <time>2013-09-01T16:34:16.000Z</time>
        <extensions>
          <ns3:TrackPointExtension>
            <ns3:atemp>17.0</ns3:atemp>
          </ns3:TrackPointExtension>
        </extensions>
      </trkpt>
      <trkpt lat="46.77691041491925716400146484375" lon="6.90867849625647068023681640625">
        <ele>347.399993896484375</ele>
        <time>2013-09-01T16:34:17.000Z</time>
        <extensions>
          <ns3:TrackPointExtension>
            <ns3:atemp>17.0</ns3:atemp>
          </ns3:TrackPointExtension>
        </extensions>
      </trkpt>
      <trkpt lat="46.7769156955182552337646484375" lon="6.9086663424968719482421875">
        <ele>347.399993896484375</ele>
        <time>2013-09-01T16:34:18.000Z</time>
        <extensions>
          <ns3:TrackPointExtension>
            <ns3:atemp>17.0</ns3:atemp>
          </ns3:TrackPointExtension>
        </extensions>
      </trkpt>
      <trkpt lat="46.7769203893840312957763671875" lon="6.9086554460227489471435546875">
        <ele>347.399993896484375</ele>
        <time>2013-09-01T16:34:19.000Z</time>
        <extensions>
          <ns3:TrackPointExtension>
            <ns3:atemp>17.0</ns3:atemp>
          </ns3:TrackPointExtension>
        </extensions>
      </trkpt>
      <trkpt lat="46.77691980265080928802490234375" lon="6.90865703858435153961181640625">
        <ele>347.399993896484375</ele>
        <time>2013-09-01T16:34:20.000Z</time>
        <extensions>
          <ns3:TrackPointExtension>
            <ns3:atemp>17.0</ns3:atemp>
          </ns3:TrackPointExtension>
        </extensions>
      </trkpt>
      <trkpt lat="46.7769326269626617431640625" lon="6.90863725729286670684814453125">
        <ele>347.20001220703125</ele>
        <time>2013-09-01T16:34:21.000Z</time>
        <extensions>
          <ns3:TrackPointExtension>
            <ns3:atemp>17.0</ns3:atemp>
          </ns3:TrackPointExtension>
        </extensions>
      </trkpt>
      <trkpt lat="46.77693120203912258148193359375" lon="6.90863910131156444549560546875">
        <ele>347</ele>
        <time>2013-09-01T16:34:22.000Z</time>
        <extensions>
          <ns3:TrackPointExtension>
            <ns3:atemp>17.0</ns3:atemp>
          </ns3:TrackPointExtension>
        </extensions>
      </trkpt>
      <trkpt lat="46.77694109268486499786376953125" lon="6.908638179302215576171875">
        <ele>346.79998779296875</ele>
        <time>2013-09-01T16:34:23.000Z</time>
        <extensions>
          <ns3:TrackPointExtension>
            <ns3:atemp>17.0</ns3:atemp>
          </ns3:TrackPointExtension>
        </extensions>
      </trkpt>
      <trkpt lat="46.77694109268486499786376953125" lon="6.908638179302215576171875">
        <ele>346.600006103515625</ele>
        <time>2013-09-01T16:34:24.000Z</time>
        <extensions>
          <ns3:TrackPointExtension>
            <ns3:atemp>17.0</ns3:atemp>
          </ns3:TrackPointExtension>
        </extensions>
      </trkpt>
      <trkpt lat="46.77694243378937244415283203125" lon="6.90863926894962787628173828125">
        <ele>346.600006103515625</ele>
        <time>2013-09-01T16:34:25.000Z</time>
        <extensions>
          <ns3:TrackPointExtension>
            <ns3:atemp>17.0</ns3:atemp>
          </ns3:TrackPointExtension>
        </extensions>
      </trkpt>
      <trkpt lat="46.77695534192025661468505859375" lon="6.9086440466344356536865234375">
        <ele>346.600006103515625</ele>
        <time>2013-09-01T16:34:26.000Z</time>
        <extensions>
          <ns3:TrackPointExtension>
            <ns3:atemp>17.0</ns3:atemp>
          </ns3:TrackPointExtension>
        </extensions>
      </trkpt>
      <trkpt lat="46.7769720219075679779052734375" lon="6.90864932723343372344970703125">
        <ele>346.399993896484375</ele>
        <time>2013-09-01T16:34:27.000Z</time>
        <extensions>
          <ns3:TrackPointExtension>
            <ns3:atemp>17.0</ns3:atemp>
          </ns3:TrackPointExtension>
        </extensions>
      </trkpt>
      <trkpt lat="46.77699138410389423370361328125" lon="6.90866223536431789398193359375">
        <ele>346.399993896484375</ele>
        <time>2013-09-01T16:34:28.000Z</time>
        <extensions>
          <ns3:TrackPointExtension>
            <ns3:atemp>17.0</ns3:atemp>
          </ns3:TrackPointExtension>
        </extensions>
      </trkpt>
      <trkpt lat="46.77701753564178943634033203125" lon="6.9086824357509613037109375">
        <ele>346.399993896484375</ele>
        <time>2013-09-01T16:34:29.000Z</time>
        <extensions>
          <ns3:TrackPointExtension>
            <ns3:atemp>17.0</ns3:atemp>
          </ns3:TrackPointExtension>
        </extensions>
      </trkpt>
      <trkpt lat="46.7770477943122386932373046875" lon="6.9087060727179050445556640625">
        <ele>346.600006103515625</ele>
        <time>2013-09-01T16:34:30.000Z</time>
        <extensions>
          <ns3:TrackPointExtension>
            <ns3:atemp>17.0</ns3:atemp>
          </ns3:TrackPointExtension>
        </extensions>
      </trkpt>
      <trkpt lat="46.7770826630294322967529296875" lon="6.9087333977222442626953125">
        <ele>347</ele>
        <time>2013-09-01T16:34:31.000Z</time>
        <extensions>
          <ns3:TrackPointExtension>
            <ns3:atemp>17.0</ns3:atemp>
          </ns3:TrackPointExtension>
        </extensions>
      </trkpt>
      <trkpt lat="46.77712013013660907745361328125" lon="6.90876315347850322723388671875">
        <ele>347</ele>
        <time>2013-09-01T16:34:32.000Z</time>
        <extensions>
          <ns3:TrackPointExtension>
            <ns3:atemp>17.0</ns3:atemp>
          </ns3:TrackPointExtension>
        </extensions>
      </trkpt>
      <trkpt lat="46.777159608900547027587890625" lon="6.9087915681302547454833984375">
        <ele>347.20001220703125</ele>
        <time>2013-09-01T16:34:33.000Z</time>
        <extensions>
          <ns3:TrackPointExtension>
            <ns3:atemp>17.0</ns3:atemp>
          </ns3:TrackPointExtension>
        </extensions>
      </trkpt>
      <trkpt lat="46.77720160223543643951416015625" lon="6.908819563686847686767578125">
        <ele>347.20001220703125</ele>
        <time>2013-09-01T16:34:34.000Z</time>
        <extensions>
          <ns3:TrackPointExtension>
            <ns3:atemp>17.0</ns3:atemp>
          </ns3:TrackPointExtension>
        </extensions>
      </trkpt>
      <trkpt lat="46.77724535576999187469482421875" lon="6.90884496085345745086669921875">
        <ele>347.399993896484375</ele>
        <time>2013-09-01T16:34:35.000Z</time>
        <extensions>
          <ns3:TrackPointExtension>
            <ns3:atemp>17.0</ns3:atemp>
          </ns3:TrackPointExtension>
        </extensions>
      </trkpt>
      <trkpt lat="46.77729095332324504852294921875" lon="6.90886641852557659149169921875">
        <ele>347.20001220703125</ele>
        <time>2013-09-01T16:34:36.000Z</time>
        <extensions>
          <ns3:TrackPointExtension>
            <ns3:atemp>17.0</ns3:atemp>
          </ns3:TrackPointExtension>
        </extensions>
      </trkpt>
      <trkpt lat="46.77733965218067169189453125" lon="6.9088884629309177398681640625">
        <ele>347.20001220703125</ele>
        <time>2013-09-01T16:34:37.000Z</time>
        <extensions>
          <ns3:TrackPointExtension>
            <ns3:atemp>17.0</ns3:atemp>
          </ns3:TrackPointExtension>
        </extensions>
      </trkpt>
      <trkpt lat="46.7773874290287494659423828125" lon="6.9089179672300815582275390625">
        <ele>347.20001220703125</ele>
        <time>2013-09-01T16:34:38.000Z</time>
        <extensions>
          <ns3:TrackPointExtension>
            <ns3:atemp>17.0</ns3:atemp>
          </ns3:TrackPointExtension>
        </extensions>
      </trkpt>
      <trkpt lat="46.77743311040103435516357421875" lon="6.9089521653950214385986328125">
        <ele>347.20001220703125</ele>
        <time>2013-09-01T16:34:39.000Z</time>
        <extensions>
          <ns3:TrackPointExtension>
            <ns3:atemp>17.0</ns3:atemp>
          </ns3:TrackPointExtension>
        </extensions>
      </trkpt>
      <trkpt lat="46.7774776183068752288818359375" lon="6.90898879431188106536865234375">
        <ele>347</ele>
        <time>2013-09-01T16:34:40.000Z</time>
        <extensions>
          <ns3:TrackPointExtension>
            <ns3:atemp>17.0</ns3:atemp>
          </ns3:TrackPointExtension>
        </extensions>
      </trkpt>
      <trkpt lat="46.77752329967916011810302734375" lon="6.90902785398066043853759765625">
        <ele>347.20001220703125</ele>
        <time>2013-09-01T16:34:41.000Z</time>
        <extensions>
          <ns3:TrackPointExtension>
            <ns3:atemp>17.0</ns3:atemp>
          </ns3:TrackPointExtension>
        </extensions>
      </trkpt>
      <trkpt lat="46.77756990306079387664794921875" lon="6.9090675003826618194580078125">
        <ele>347.399993896484375</ele>
        <time>2013-09-01T16:34:42.000Z</time>
        <extensions>
          <ns3:TrackPointExtension>
            <ns3:atemp>17.0</ns3:atemp>
          </ns3:TrackPointExtension>
        </extensions>
      </trkpt>
      <trkpt lat="46.77761667408049106597900390625" lon="6.90910664387047290802001953125">
        <ele>347.79998779296875</ele>
        <time>2013-09-01T16:34:43.000Z</time>
        <extensions>
          <ns3:TrackPointExtension>
            <ns3:atemp>17.0</ns3:atemp>
          </ns3:TrackPointExtension>
        </extensions>
      </trkpt>
      <trkpt lat="46.7776626907289028167724609375" lon="6.9091452844440937042236328125">
        <ele>348</ele>
        <time>2013-09-01T16:34:44.000Z</time>
        <extensions>
          <ns3:TrackPointExtension>
            <ns3:atemp>17.0</ns3:atemp>
          </ns3:TrackPointExtension>
        </extensions>
      </trkpt>
      <trkpt lat="46.77771038375794887542724609375" lon="6.90918258391320705413818359375">
        <ele>348.20001220703125</ele>
        <time>2013-09-01T16:34:45.000Z</time>
        <extensions>
          <ns3:TrackPointExtension>
            <ns3:atemp>17.0</ns3:atemp>
          </ns3:TrackPointExtension>
        </extensions>
      </trkpt>
      <trkpt lat="46.77775883115828037261962890625" lon="6.90921795554459095001220703125">
        <ele>348.20001220703125</ele>
        <time>2013-09-01T16:34:46.000Z</time>
        <extensions>
          <ns3:TrackPointExtension>
            <ns3:atemp>17.0</ns3:atemp>
          </ns3:TrackPointExtension>
        </extensions>
      </trkpt>
      <trkpt lat="46.77780727855861186981201171875" lon="6.90925332717597484588623046875">
        <ele>348</ele>
        <time>2013-09-01T16:34:47.000Z</time>
        <extensions>
          <ns3:TrackPointExtension>
            <ns3:atemp>17.0</ns3:atemp>
          </ns3:TrackPointExtension>
        </extensions>
      </trkpt>
      <trkpt lat="46.77785639651119709014892578125" lon="6.90928660333156585693359375">
        <ele>347.79998779296875</ele>
        <time>2013-09-01T16:34:48.000Z</time>
        <extensions>
          <ns3:TrackPointExtension>
            <ns3:atemp>17.0</ns3:atemp>
          </ns3:TrackPointExtension>
        </extensions>
      </trkpt>
      <trkpt lat="46.77790559828281402587890625" lon="6.90931753255426883697509765625">
        <ele>347.399993896484375</ele>
        <time>2013-09-01T16:34:49.000Z</time>
        <extensions>
          <ns3:TrackPointExtension>
            <ns3:atemp>17.0</ns3:atemp>
          </ns3:TrackPointExtension>
        </extensions>
      </trkpt>
      <trkpt lat="46.77795345894992351531982421875" lon="6.90935022197663784027099609375">
        <ele>347.399993896484375</ele>
        <time>2013-09-01T16:34:50.000Z</time>
        <extensions>
          <ns3:TrackPointExtension>
            <ns3:atemp>17.0</ns3:atemp>
          </ns3:TrackPointExtension>
        </extensions>
      </trkpt>
      <trkpt lat="46.77800190635025501251220703125" lon="6.9093836657702922821044921875">
        <ele>347.20001220703125</ele>
        <time>2013-09-01T16:34:51.000Z</time>
        <extensions>
          <ns3:TrackPointExtension>
            <ns3:atemp>17.0</ns3:atemp>
          </ns3:TrackPointExtension>
        </extensions>
      </trkpt>
      <trkpt lat="46.7780512757599353790283203125" lon="6.9094198755919933319091796875">
        <ele>347.399993896484375</ele>
        <time>2013-09-01T16:34:52.000Z</time>
        <extensions>
          <ns3:TrackPointExtension>
            <ns3:atemp>17.0</ns3:atemp>
          </ns3:TrackPointExtension>
        </extensions>
      </trkpt>
      <trkpt lat="46.77810030989348888397216796875" lon="6.909457929432392120361328125">
        <ele>347.20001220703125</ele>
        <time>2013-09-01T16:34:53.000Z</time>
        <extensions>
          <ns3:TrackPointExtension>
            <ns3:atemp>17.0</ns3:atemp>
          </ns3:TrackPointExtension>
        </extensions>
      </trkpt>
      <trkpt lat="46.77814967930316925048828125" lon="6.9094979949295520782470703125">
        <ele>347.20001220703125</ele>
        <time>2013-09-01T16:34:54.000Z</time>
        <extensions>
          <ns3:TrackPointExtension>
            <ns3:atemp>17.0</ns3:atemp>
          </ns3:TrackPointExtension>
        </extensions>
      </trkpt>
      <trkpt lat="46.7782004736363887786865234375" lon="6.90953671932220458984375">
        <ele>347.20001220703125</ele>
        <time>2013-09-01T16:34:55.000Z</time>
        <extensions>
          <ns3:TrackPointExtension>
            <ns3:atemp>17.0</ns3:atemp>
          </ns3:TrackPointExtension>
        </extensions>
      </trkpt>
      <trkpt lat="46.778251938521862030029296875" lon="6.9095761142671108245849609375">
        <ele>347.399993896484375</ele>
        <time>2013-09-01T16:34:56.000Z</time>
        <extensions>
          <ns3:TrackPointExtension>
            <ns3:atemp>17.0</ns3:atemp>
          </ns3:TrackPointExtension>
        </extensions>
      </trkpt>
      <trkpt lat="46.77830331958830356597900390625" lon="6.909614503383636474609375">
        <ele>347.399993896484375</ele>
        <time>2013-09-01T16:34:57.000Z</time>
        <extensions>
          <ns3:TrackPointExtension>
            <ns3:atemp>17.0</ns3:atemp>
          </ns3:TrackPointExtension>
        </extensions>
      </trkpt>
      <trkpt lat="46.77835428155958652496337890625" lon="6.90965113230049610137939453125">
        <ele>347.20001220703125</ele>
        <time>2013-09-01T16:34:58.000Z</time>
        <extensions>
          <ns3:TrackPointExtension>
            <ns3:atemp>17.0</ns3:atemp>
          </ns3:TrackPointExtension>
        </extensions>
      </trkpt>
      <trkpt lat="46.77840541116893291473388671875" lon="6.90968750976026058197021484375">
        <ele>347.20001220703125</ele>
        <time>2013-09-01T16:34:59.000Z</time>
        <extensions>
          <ns3:TrackPointExtension>
            <ns3:atemp>17.0</ns3:atemp>
          </ns3:TrackPointExtension>
        </extensions>
      </trkpt>
      <trkpt lat="46.77845670841634273529052734375" lon="6.90972288139164447784423828125">
        <ele>347.399993896484375</ele>
        <time>2013-09-01T16:35:00.000Z</time>
        <extensions>
          <ns3:TrackPointExtension>
            <ns3:atemp>17.0</ns3:atemp>
          </ns3:TrackPointExtension>
        </extensions>
      </trkpt>
      <trkpt lat="46.77850834093987941741943359375" lon="6.909759677946567535400390625">
        <ele>347.399993896484375</ele>
        <time>2013-09-01T16:35:01.000Z</time>
        <extensions>
          <ns3:TrackPointExtension>
            <ns3:atemp>17.0</ns3:atemp>
          </ns3:TrackPointExtension>
        </extensions>
      </trkpt>
      <trkpt lat="46.7785605601966381072998046875" lon="6.90979714505374431610107421875">
        <ele>347.399993896484375</ele>
        <time>2013-09-01T16:35:02.000Z</time>
        <extensions>
          <ns3:TrackPointExtension>
            <ns3:atemp>17.0</ns3:atemp>
          </ns3:TrackPointExtension>
        </extensions>
      </trkpt>
      <trkpt lat="46.77861127071082592010498046875" lon="6.90983704291284084320068359375">
        <ele>347.399993896484375</ele>
        <time>2013-09-01T16:35:03.000Z</time>
        <extensions>
          <ns3:TrackPointExtension>
            <ns3:atemp>17.0</ns3:atemp>
          </ns3:TrackPointExtension>
        </extensions>
      </trkpt>
      <trkpt lat="46.7786624841392040252685546875" lon="6.90987492911517620086669921875">
        <ele>347.399993896484375</ele>
        <time>2013-09-01T16:35:04.000Z</time>
        <extensions>
          <ns3:TrackPointExtension>
            <ns3:atemp>17.0</ns3:atemp>
          </ns3:TrackPointExtension>
        </extensions>
      </trkpt>
      <trkpt lat="46.77871570922434329986572265625" lon="6.90991331823170185089111328125">
        <ele>347.399993896484375</ele>
        <time>2013-09-01T16:35:05.000Z</time>
        <extensions>
          <ns3:TrackPointExtension>
            <ns3:atemp>17.0</ns3:atemp>
          </ns3:TrackPointExtension>
        </extensions>
      </trkpt>
      <trkpt lat="46.7787684313952922821044921875" lon="6.90995137207210063934326171875">
        <ele>347.399993896484375</ele>
        <time>2013-09-01T16:35:06.000Z</time>
        <extensions>
          <ns3:TrackPointExtension>
            <ns3:atemp>17.0</ns3:atemp>
          </ns3:TrackPointExtension>
        </extensions>
      </trkpt>
      <trkpt lat="46.778820566833019256591796875" lon="6.90998892299830913543701171875">
        <ele>347.600006103515625</ele>
        <time>2013-09-01T16:35:07.000Z</time>
        <extensions>
          <ns3:TrackPointExtension>
            <ns3:atemp>17.0</ns3:atemp>
          </ns3:TrackPointExtension>
        </extensions>
      </trkpt>
      <trkpt lat="46.7788723669946193695068359375" lon="6.91002597101032733917236328125">
        <ele>347.600006103515625</ele>
        <time>2013-09-01T16:35:08.000Z</time>
        <extensions>
          <ns3:TrackPointExtension>
            <ns3:atemp>17.0</ns3:atemp>
          </ns3:TrackPointExtension>
        </extensions>
      </trkpt>
      <trkpt lat="46.7789253406226634979248046875" lon="6.91006243228912353515625">
        <ele>347.399993896484375</ele>
        <time>2013-09-01T16:35:09.000Z</time>
        <extensions>
          <ns3:TrackPointExtension>
            <ns3:atemp>17.0</ns3:atemp>
          </ns3:TrackPointExtension>
        </extensions>
      </trkpt>
      <trkpt lat="46.77897823043167591094970703125" lon="6.9100998155772686004638671875">
        <ele>347.20001220703125</ele>
        <time>2013-09-01T16:35:10.000Z</time>
        <extensions>
          <ns3:TrackPointExtension>
            <ns3:atemp>17.0</ns3:atemp>
          </ns3:TrackPointExtension>
        </extensions>
      </trkpt>
      <trkpt lat="46.7790299467742443084716796875" lon="6.9101377017796039581298828125">
        <ele>347</ele>
        <time>2013-09-01T16:35:11.000Z</time>
        <extensions>
          <ns3:TrackPointExtension>
            <ns3:atemp>17.0</ns3:atemp>
          </ns3:TrackPointExtension>
        </extensions>
      </trkpt>
      <trkpt lat="46.77908199839293956756591796875" lon="6.9101749174296855926513671875">
        <ele>346.79998779296875</ele>
        <time>2013-09-01T16:35:12.000Z</time>
        <extensions>
          <ns3:TrackPointExtension>
            <ns3:atemp>17.0</ns3:atemp>
          </ns3:TrackPointExtension>
        </extensions>
      </trkpt>
      <trkpt lat="46.7791352234780788421630859375" lon="6.91021003760397434234619140625">
        <ele>346.79998779296875</ele>
        <time>2013-09-01T16:35:13.000Z</time>
        <extensions>
          <ns3:TrackPointExtension>
            <ns3:atemp>17.0</ns3:atemp>
          </ns3:TrackPointExtension>
        </extensions>
      </trkpt>
      <trkpt lat="46.77918828092515468597412109375" lon="6.91024549305438995361328125">
        <ele>346.79998779296875</ele>
        <time>2013-09-01T16:35:14.000Z</time>
        <extensions>
          <ns3:TrackPointExtension>
            <ns3:atemp>17.0</ns3:atemp>
          </ns3:TrackPointExtension>
        </extensions>
      </trkpt>
      <trkpt lat="46.7792405001819133758544921875" lon="6.91028128378093242645263671875">
        <ele>347.399993896484375</ele>
        <time>2013-09-01T16:35:15.000Z</time>
        <extensions>
          <ns3:TrackPointExtension>
            <ns3:atemp>17.0</ns3:atemp>
          </ns3:TrackPointExtension>
        </extensions>
      </trkpt>
      <trkpt lat="46.7792928032577037811279296875" lon="6.91031967289745807647705078125">
        <ele>347.600006103515625</ele>
        <time>2013-09-01T16:35:16.000Z</time>
        <extensions>
          <ns3:TrackPointExtension>
            <ns3:atemp>17.0</ns3:atemp>
          </ns3:TrackPointExtension>
        </extensions>
      </trkpt>
      <trkpt lat="46.7793461121618747711181640625" lon="6.91035688854753971099853515625">
        <ele>348</ele>
        <time>2013-09-01T16:35:17.000Z</time>
        <extensions>
          <ns3:TrackPointExtension>
            <ns3:atemp>17.0</ns3:atemp>
          </ns3:TrackPointExtension>
        </extensions>
      </trkpt>
      <trkpt lat="46.77939749322831630706787109375" lon="6.91039502620697021484375">
        <ele>347.79998779296875</ele>
        <time>2013-09-01T16:35:18.000Z</time>
        <extensions>
          <ns3:TrackPointExtension>
            <ns3:atemp>17.0</ns3:atemp>
          </ns3:TrackPointExtension>
        </extensions>
      </trkpt>
      <trkpt lat="46.77944996394217014312744140625" lon="6.9104324094951152801513671875">
        <ele>347.600006103515625</ele>
        <time>2013-09-01T16:35:19.000Z</time>
        <extensions>
          <ns3:TrackPointExtension>
            <ns3:atemp>17.0</ns3:atemp>
          </ns3:TrackPointExtension>
        </extensions>
      </trkpt>
      <trkpt lat="46.77950293757021427154541015625" lon="6.9104702956974506378173828125">
        <ele>347.399993896484375</ele>
        <time>2013-09-01T16:35:20.000Z</time>
        <extensions>
          <ns3:TrackPointExtension>
            <ns3:atemp>17.0</ns3:atemp>
          </ns3:TrackPointExtension>
        </extensions>
      </trkpt>
      <trkpt lat="46.779555492103099822998046875" lon="6.9105078466236591339111328125">
        <ele>347.399993896484375</ele>
        <time>2013-09-01T16:35:21.000Z</time>
        <extensions>
          <ns3:TrackPointExtension>
            <ns3:atemp>17.0</ns3:atemp>
          </ns3:TrackPointExtension>
        </extensions>
      </trkpt>
      <trkpt lat="46.7796079628169536590576171875" lon="6.91054455935955047607421875">
        <ele>347.600006103515625</ele>
        <time>2013-09-01T16:35:22.000Z</time>
        <extensions>
          <ns3:TrackPointExtension>
            <ns3:atemp>17.0</ns3:atemp>
          </ns3:TrackPointExtension>
        </extensions>
      </trkpt>
      <trkpt lat="46.7796609364449977874755859375" lon="6.9105809368193149566650390625">
        <ele>347.600006103515625</ele>
        <time>2013-09-01T16:35:23.000Z</time>
        <extensions>
          <ns3:TrackPointExtension>
            <ns3:atemp>17.0</ns3:atemp>
          </ns3:TrackPointExtension>
        </extensions>
      </trkpt>
      <trkpt lat="46.77971298806369304656982421875" lon="6.91061572171747684478759765625">
        <ele>347.600006103515625</ele>
        <time>2013-09-01T16:35:24.000Z</time>
        <extensions>
          <ns3:TrackPointExtension>
            <ns3:atemp>17.0</ns3:atemp>
          </ns3:TrackPointExtension>
        </extensions>
      </trkpt>
      <trkpt lat="46.77976378239691257476806640625" lon="6.9106500037014484405517578125">
        <ele>347.399993896484375</ele>
        <time>2013-09-01T16:35:25.000Z</time>
        <extensions>
          <ns3:TrackPointExtension>
            <ns3:atemp>17.0</ns3:atemp>
          </ns3:TrackPointExtension>
        </extensions>
      </trkpt>
      <trkpt lat="46.77981239743530750274658203125" lon="6.9106785021722316741943359375">
        <ele>347.20001220703125</ele>
        <time>2013-09-01T16:35:26.000Z</time>
        <extensions>
          <ns3:TrackPointExtension>
            <ns3:atemp>17.0</ns3:atemp>
          </ns3:TrackPointExtension>
        </extensions>
      </trkpt>
      <trkpt lat="46.7798597551882266998291015625" lon="6.91069476306438446044921875">
        <ele>347</ele>
        <time>2013-09-01T16:35:27.000Z</time>
        <extensions>
          <ns3:TrackPointExtension>
            <ns3:atemp>17.0</ns3:atemp>
          </ns3:TrackPointExtension>
        </extensions>
      </trkpt>
      <trkpt lat="46.77991499193012714385986328125" lon="6.91069082356989383697509765625">
        <ele>346.600006103515625</ele>
        <time>2013-09-01T16:35:28.000Z</time>
        <extensions>
          <ns3:TrackPointExtension>
            <ns3:atemp>17.0</ns3:atemp>
          </ns3:TrackPointExtension>
        </extensions>
      </trkpt>
      <trkpt lat="46.7799742519855499267578125" lon="6.91069920547306537628173828125">
        <ele>346.20001220703125</ele>
        <time>2013-09-01T16:35:29.000Z</time>
        <extensions>
          <ns3:TrackPointExtension>
            <ns3:atemp>17.0</ns3:atemp>
          </ns3:TrackPointExtension>
        </extensions>
      </trkpt>
      <trkpt lat="46.7800324223935604095458984375" lon="6.9107291288673877716064453125">
        <ele>346</ele>
        <time>2013-09-01T16:35:30.000Z</time>
        <extensions>
          <ns3:TrackPointExtension>
            <ns3:atemp>17.0</ns3:atemp>
          </ns3:TrackPointExtension>
        </extensions>
      </trkpt>
      <trkpt lat="46.780088245868682861328125" lon="6.91076810471713542938232421875">
        <ele>346</ele>
        <time>2013-09-01T16:35:31.000Z</time>
        <extensions>
          <ns3:TrackPointExtension>
            <ns3:atemp>17.0</ns3:atemp>
          </ns3:TrackPointExtension>
        </extensions>
      </trkpt>
      <trkpt lat="46.78014348261058330535888671875" lon="6.9108085893094539642333984375">
        <ele>346</ele>
        <time>2013-09-01T16:35:32.000Z</time>
        <extensions>
          <ns3:TrackPointExtension>
            <ns3:atemp>17.0</ns3:atemp>
          </ns3:TrackPointExtension>
        </extensions>
      </trkpt>
      <trkpt lat="46.78020014427602291107177734375" lon="6.91085007973015308380126953125">
        <ele>346</ele>
        <time>2013-09-01T16:35:33.000Z</time>
        <extensions>
          <ns3:TrackPointExtension>
            <ns3:atemp>17.0</ns3:atemp>
          </ns3:TrackPointExtension>
        </extensions>
      </trkpt>
      <trkpt lat="46.7802560515701770782470703125" lon="6.91089685074985027313232421875">
        <ele>346</ele>
        <time>2013-09-01T16:35:34.000Z</time>
        <extensions>
          <ns3:TrackPointExtension>
            <ns3:atemp>17.0</ns3:atemp>
          </ns3:TrackPointExtension>
        </extensions>
      </trkpt>
      <trkpt lat="46.7803093604743480682373046875" lon="6.9109433703124523162841796875">
        <ele>346.20001220703125</ele>
        <time>2013-09-01T16:35:35.000Z</time>
        <extensions>
          <ns3:TrackPointExtension>
            <ns3:atemp>17.0</ns3:atemp>
          </ns3:TrackPointExtension>
        </extensions>
      </trkpt>
      <trkpt lat="46.78036258555948734283447265625" lon="6.91098402254283428192138671875">
        <ele>346.20001220703125</ele>
        <time>2013-09-01T16:35:36.000Z</time>
        <extensions>
          <ns3:TrackPointExtension>
            <ns3:atemp>17.0</ns3:atemp>
          </ns3:TrackPointExtension>
        </extensions>
      </trkpt>
      <trkpt lat="46.78041572682559490203857421875" lon="6.91102475859224796295166015625">
        <ele>346</ele>
        <time>2013-09-01T16:35:37.000Z</time>
        <extensions>
          <ns3:TrackPointExtension>
            <ns3:atemp>17.0</ns3:atemp>
          </ns3:TrackPointExtension>
        </extensions>
      </trkpt>
      <trkpt lat="46.7804706282913684844970703125" lon="6.9110674224793910980224609375">
        <ele>346</ele>
        <time>2013-09-01T16:35:38.000Z</time>
        <extensions>
          <ns3:TrackPointExtension>
            <ns3:atemp>17.0</ns3:atemp>
          </ns3:TrackPointExtension>
        </extensions>
      </trkpt>
      <trkpt lat="46.78052972070872783660888671875" lon="6.9111167080700397491455078125">
        <ele>345.79998779296875</ele>
        <time>2013-09-01T16:35:39.000Z</time>
        <extensions>
          <ns3:TrackPointExtension>
            <ns3:atemp>17.0</ns3:atemp>
          </ns3:TrackPointExtension>
        </extensions>
      </trkpt>
      <trkpt lat="46.78058772347867488861083984375" lon="6.91117311827838420867919921875">
        <ele>345.600006103515625</ele>
        <time>2013-09-01T16:35:40.000Z</time>
        <extensions>
          <ns3:TrackPointExtension>
            <ns3:atemp>17.0</ns3:atemp>
          </ns3:TrackPointExtension>
        </extensions>
      </trkpt>
      <trkpt lat="46.78064388222992420196533203125" lon="6.91123112104833126068115234375">
        <ele>345.600006103515625</ele>
        <time>2013-09-01T16:35:41.000Z</time>
        <extensions>
          <ns3:TrackPointExtension>
            <ns3:atemp>17.0</ns3:atemp>
          </ns3:TrackPointExtension>
        </extensions>
      </trkpt>
      <trkpt lat="46.7806971073150634765625" lon="6.91128476522862911224365234375">
        <ele>345.600006103515625</ele>
        <time>2013-09-01T16:35:42.000Z</time>
        <extensions>
          <ns3:TrackPointExtension>
            <ns3:atemp>17.0</ns3:atemp>
          </ns3:TrackPointExtension>
        </extensions>
      </trkpt>
      <trkpt lat="46.780748404562473297119140625" lon="6.9113337993621826171875">
        <ele>345.600006103515625</ele>
        <time>2013-09-01T16:35:43.000Z</time>
        <extensions>
          <ns3:TrackPointExtension>
            <ns3:atemp>17.0</ns3:atemp>
          </ns3:TrackPointExtension>
        </extensions>
      </trkpt>
      <trkpt lat="46.780798025429248809814453125" lon="6.91138199530541896820068359375">
        <ele>345.600006103515625</ele>
        <time>2013-09-01T16:35:44.000Z</time>
        <extensions>
          <ns3:TrackPointExtension>
            <ns3:atemp>17.0</ns3:atemp>
          </ns3:TrackPointExtension>
        </extensions>
      </trkpt>
      <trkpt lat="46.7808431200683116912841796875" lon="6.91143278963863849639892578125">
        <ele>346</ele>
        <time>2013-09-01T16:35:45.000Z</time>
        <extensions>
          <ns3:TrackPointExtension>
            <ns3:atemp>17.0</ns3:atemp>
          </ns3:TrackPointExtension>
        </extensions>
      </trkpt>
      <trkpt lat="46.7808850295841693878173828125" lon="6.91148341633379459381103515625">
        <ele>346.20001220703125</ele>
        <time>2013-09-01T16:35:46.000Z</time>
        <extensions>
          <ns3:TrackPointExtension>
            <ns3:atemp>17.0</ns3:atemp>
          </ns3:TrackPointExtension>
        </extensions>
      </trkpt>
      <trkpt lat="46.7809249274432659149169921875" lon="6.91153119318187236785888671875">
        <ele>346.600006103515625</ele>
        <time>2013-09-01T16:35:47.000Z</time>
        <extensions>
          <ns3:TrackPointExtension>
            <ns3:atemp>17.0</ns3:atemp>
          </ns3:TrackPointExtension>
        </extensions>
      </trkpt>
      <trkpt lat="46.78096658550202846527099609375" lon="6.91156690008938312530517578125">
        <ele>346</ele>
        <time>2013-09-01T16:35:48.000Z</time>
        <extensions>
          <ns3:TrackPointExtension>
            <ns3:atemp>17.0</ns3:atemp>
          </ns3:TrackPointExtension>
        </extensions>
      </trkpt>
      <trkpt lat="46.78100849501788616180419921875" lon="6.9115953147411346435546875">
        <ele>345.600006103515625</ele>
        <time>2013-09-01T16:35:49.000Z</time>
        <extensions>
          <ns3:TrackPointExtension>
            <ns3:atemp>17.0</ns3:atemp>
          </ns3:TrackPointExtension>
        </extensions>
      </trkpt>
      <trkpt lat="46.78105375729501247406005859375" lon="6.91162339411675930023193359375">
        <ele>345</ele>
        <time>2013-09-01T16:35:50.000Z</time>
        <extensions>
          <ns3:TrackPointExtension>
            <ns3:atemp>17.0</ns3:atemp>
          </ns3:TrackPointExtension>
        </extensions>
      </trkpt>
      <trkpt lat="46.7811032943427562713623046875" lon="6.911649294197559356689453125">
        <ele>345</ele>
        <time>2013-09-01T16:35:51.000Z</time>
        <extensions>
          <ns3:TrackPointExtension>
            <ns3:atemp>17.0</ns3:atemp>
          </ns3:TrackPointExtension>
        </extensions>
      </trkpt>
      <trkpt lat="46.7811517417430877685546875" lon="6.91166882403194904327392578125">
        <ele>345</ele>
        <time>2013-09-01T16:35:52.000Z</time>
        <extensions>
          <ns3:TrackPointExtension>
            <ns3:atemp>17.0</ns3:atemp>
          </ns3:TrackPointExtension>
        </extensions>
      </trkpt>
      <trkpt lat="46.7812011949717998504638671875" lon="6.91168290562927722930908203125">
        <ele>345</ele>
        <time>2013-09-01T16:35:53.000Z</time>
        <extensions>
          <ns3:TrackPointExtension>
            <ns3:atemp>17.0</ns3:atemp>
          </ns3:TrackPointExtension>
        </extensions>
      </trkpt>
      <trkpt lat="46.78125458769500255584716796875" lon="6.91169195808470249176025390625">
        <ele>345.20001220703125</ele>
        <time>2013-09-01T16:35:54.000Z</time>
        <extensions>
          <ns3:TrackPointExtension>
            <ns3:atemp>17.0</ns3:atemp>
          </ns3:TrackPointExtension>
        </extensions>
      </trkpt>
      <trkpt lat="46.78130873478949069976806640625" lon="6.91169983707368373870849609375">
        <ele>345.399993896484375</ele>
        <time>2013-09-01T16:35:55.000Z</time>
        <extensions>
          <ns3:TrackPointExtension>
            <ns3:atemp>17.0</ns3:atemp>
          </ns3:TrackPointExtension>
        </extensions>
      </trkpt>
      <trkpt lat="46.781365312635898590087890625" lon="6.9117106497287750244140625">
        <ele>345.600006103515625</ele>
        <time>2013-09-01T16:35:56.000Z</time>
        <extensions>
          <ns3:TrackPointExtension>
            <ns3:atemp>17.0</ns3:atemp>
          </ns3:TrackPointExtension>
        </extensions>
      </trkpt>
      <trkpt lat="46.78142222575843334197998046875" lon="6.91172213293612003326416015625">
        <ele>345.600006103515625</ele>
        <time>2013-09-01T16:35:57.000Z</time>
        <extensions>
          <ns3:TrackPointExtension>
            <ns3:atemp>17.0</ns3:atemp>
          </ns3:TrackPointExtension>
        </extensions>
      </trkpt>
      <trkpt lat="46.7814801447093486785888671875" lon="6.911731772124767303466796875">
        <ele>345.600006103515625</ele>
        <time>2013-09-01T16:35:58.000Z</time>
        <extensions>
          <ns3:TrackPointExtension>
            <ns3:atemp>17.0</ns3:atemp>
          </ns3:TrackPointExtension>
        </extensions>
      </trkpt>
      <trkpt lat="46.78153873421251773834228515625" lon="6.91174216568470001220703125">
        <ele>345.20001220703125</ele>
        <time>2013-09-01T16:35:59.000Z</time>
        <extensions>
          <ns3:TrackPointExtension>
            <ns3:atemp>17.0</ns3:atemp>
          </ns3:TrackPointExtension>
        </extensions>
      </trkpt>
      <trkpt lat="46.781593970954418182373046875" lon="6.91175498999655246734619140625">
        <ele>345.20001220703125</ele>
        <time>2013-09-01T16:36:00.000Z</time>
        <extensions>
          <ns3:TrackPointExtension>
            <ns3:atemp>17.0</ns3:atemp>
          </ns3:TrackPointExtension>
        </extensions>
      </trkpt>
      <trkpt lat="46.7816397361457347869873046875" lon="6.911779381334781646728515625">
        <ele>345</ele>
        <time>2013-09-01T16:36:01.000Z</time>
        <extensions>
          <ns3:TrackPointExtension>
            <ns3:atemp>17.0</ns3:atemp>
          </ns3:TrackPointExtension>
        </extensions>
      </trkpt>
      <trkpt lat="46.7816796340048313140869140625" lon="6.91180729307234287261962890625">
        <ele>345.20001220703125</ele>
        <time>2013-09-01T16:36:02.000Z</time>
        <extensions>
          <ns3:TrackPointExtension>
            <ns3:atemp>17.0</ns3:atemp>
          </ns3:TrackPointExtension>
        </extensions>
      </trkpt>
      <trkpt lat="46.78171726875007152557373046875" lon="6.911838054656982421875">
        <ele>345.20001220703125</ele>
        <time>2013-09-01T16:36:03.000Z</time>
        <extensions>
          <ns3:TrackPointExtension>
            <ns3:atemp>17.0</ns3:atemp>
          </ns3:TrackPointExtension>
        </extensions>
      </trkpt>
      <trkpt lat="46.78175448440015316009521484375" lon="6.91187049262225627899169921875">
        <ele>345</ele>
        <time>2013-09-01T16:36:04.000Z</time>
        <extensions>
          <ns3:TrackPointExtension>
            <ns3:atemp>17.0</ns3:atemp>
          </ns3:TrackPointExtension>
        </extensions>
      </trkpt>
      <trkpt lat="46.7817927896976470947265625" lon="6.9119042716920375823974609375">
        <ele>345</ele>
        <time>2013-09-01T16:36:05.000Z</time>
        <extensions>
          <ns3:TrackPointExtension>
            <ns3:atemp>17.0</ns3:atemp>
          </ns3:TrackPointExtension>
        </extensions>
      </trkpt>
      <trkpt lat="46.78183176554739475250244140625" lon="6.9119542278349399566650390625">
        <ele>344.79998779296875</ele>
        <time>2013-09-01T16:36:06.000Z</time>
        <extensions>
          <ns3:TrackPointExtension>
            <ns3:atemp>17.0</ns3:atemp>
          </ns3:TrackPointExtension>
        </extensions>
      </trkpt>
      <trkpt lat="46.78187451325356960296630859375" lon="6.9120112247765064239501953125">
        <ele>344.79998779296875</ele>
        <time>2013-09-01T16:36:07.000Z</time>
        <extensions>
          <ns3:TrackPointExtension>
            <ns3:atemp>17.0</ns3:atemp>
          </ns3:TrackPointExtension>
        </extensions>
      </trkpt>
      <trkpt lat="46.78191944025456905364990234375" lon="6.912073753774166107177734375">
        <ele>345</ele>
        <time>2013-09-01T16:36:08.000Z</time>
        <extensions>
          <ns3:TrackPointExtension>
            <ns3:atemp>17.0</ns3:atemp>
          </ns3:TrackPointExtension>
        </extensions>
      </trkpt>
      <trkpt lat="46.781964115798473358154296875" lon="6.9121399708092212677001953125">
        <ele>345.399993896484375</ele>
        <time>2013-09-01T16:36:09.000Z</time>
        <extensions>
          <ns3:TrackPointExtension>
            <ns3:atemp>17.0</ns3:atemp>
          </ns3:TrackPointExtension>
        </extensions>
      </trkpt>
      <trkpt lat="46.78200996480882167816162109375" lon="6.9122140668332576751708984375">
        <ele>345.399993896484375</ele>
        <time>2013-09-01T16:36:10.000Z</time>
        <extensions>
          <ns3:TrackPointExtension>
            <ns3:atemp>17.0</ns3:atemp>
          </ns3:TrackPointExtension>
        </extensions>
      </trkpt>
      <trkpt lat="46.78205740638077259063720703125" lon="6.9122972153127193450927734375">
        <ele>345.399993896484375</ele>
        <time>2013-09-01T16:36:11.000Z</time>
        <extensions>
          <ns3:TrackPointExtension>
            <ns3:atemp>17.0</ns3:atemp>
          </ns3:TrackPointExtension>
        </extensions>
      </trkpt>
      <trkpt lat="46.78210417740046977996826171875" lon="6.9123847223818302154541015625">
        <ele>345.399993896484375</ele>
        <time>2013-09-01T16:36:12.000Z</time>
        <extensions>
          <ns3:TrackPointExtension>
            <ns3:atemp>17.0</ns3:atemp>
          </ns3:TrackPointExtension>
        </extensions>
      </trkpt>
      <trkpt lat="46.78214994259178638458251953125" lon="6.9124678708612918853759765625">
        <ele>345.399993896484375</ele>
        <time>2013-09-01T16:36:13.000Z</time>
        <extensions>
          <ns3:TrackPointExtension>
            <ns3:atemp>17.0</ns3:atemp>
          </ns3:TrackPointExtension>
        </extensions>
      </trkpt>
      <trkpt lat="46.782192103564739227294921875" lon="6.912547163665294647216796875">
        <ele>345.399993896484375</ele>
        <time>2013-09-01T16:36:14.000Z</time>
        <extensions>
          <ns3:TrackPointExtension>
            <ns3:atemp>17.0</ns3:atemp>
          </ns3:TrackPointExtension>
        </extensions>
      </trkpt>
      <trkpt lat="46.78223040886223316192626953125" lon="6.91262654028832912445068359375">
        <ele>345.399993896484375</ele>
        <time>2013-09-01T16:36:15.000Z</time>
        <extensions>
          <ns3:TrackPointExtension>
            <ns3:atemp>17.0</ns3:atemp>
          </ns3:TrackPointExtension>
        </extensions>
      </trkpt>
      <trkpt lat="46.7822626791894435882568359375" lon="6.91270566545426845550537109375">
        <ele>345.399993896484375</ele>
        <time>2013-09-01T16:36:16.000Z</time>
        <extensions>
          <ns3:TrackPointExtension>
            <ns3:atemp>17.0</ns3:atemp>
          </ns3:TrackPointExtension>
        </extensions>
      </trkpt>
      <trkpt lat="46.78229101002216339111328125" lon="6.91279032267630100250244140625">
        <ele>345.399993896484375</ele>
        <time>2013-09-01T16:36:17.000Z</time>
        <extensions>
          <ns3:TrackPointExtension>
            <ns3:atemp>17.0</ns3:atemp>
          </ns3:TrackPointExtension>
        </extensions>
      </trkpt>
      <trkpt lat="46.78231456317007541656494140625" lon="6.9128787517547607421875">
        <ele>345.399993896484375</ele>
        <time>2013-09-01T16:36:18.000Z</time>
        <extensions>
          <ns3:TrackPointExtension>
            <ns3:atemp>17.0</ns3:atemp>
          </ns3:TrackPointExtension>
        </extensions>
      </trkpt>
      <trkpt lat="46.7823414690792560577392578125" lon="6.912970952689647674560546875">
        <ele>345.20001220703125</ele>
        <time>2013-09-01T16:36:19.000Z</time>
        <extensions>
          <ns3:TrackPointExtension>
            <ns3:atemp>17.0</ns3:atemp>
          </ns3:TrackPointExtension>
        </extensions>
      </trkpt>
      <trkpt lat="46.782379858195781707763671875" lon="6.91306441091001033782958984375">
        <ele>345.20001220703125</ele>
        <time>2013-09-01T16:36:20.000Z</time>
        <extensions>
          <ns3:TrackPointExtension>
            <ns3:atemp>17.0</ns3:atemp>
          </ns3:TrackPointExtension>
        </extensions>
      </trkpt>
      <trkpt lat="46.78242319263517856597900390625" lon="6.9131528399884700775146484375">
        <ele>345.20001220703125</ele>
        <time>2013-09-01T16:36:21.000Z</time>
        <extensions>
          <ns3:TrackPointExtension>
            <ns3:atemp>17.0</ns3:atemp>
          </ns3:TrackPointExtension>
        </extensions>
      </trkpt>
      <trkpt lat="46.78246761672198772430419921875" lon="6.91324076615273952484130859375">
        <ele>345.20001220703125</ele>
        <time>2013-09-01T16:36:22.000Z</time>
        <extensions>
          <ns3:TrackPointExtension>
            <ns3:atemp>17.0</ns3:atemp>
          </ns3:TrackPointExtension>
        </extensions>
      </trkpt>
      <trkpt lat="46.782510615885257720947265625" lon="6.91332575865089893341064453125">
        <ele>345.399993896484375</ele>
        <time>2013-09-01T16:36:23.000Z</time>
        <extensions>
          <ns3:TrackPointExtension>
            <ns3:atemp>17.0</ns3:atemp>
          </ns3:TrackPointExtension>
        </extensions>
      </trkpt>
      <trkpt lat="46.7825518548488616943359375" lon="6.9134123437106609344482421875">
        <ele>345.600006103515625</ele>
        <time>2013-09-01T16:36:24.000Z</time>
        <extensions>
          <ns3:TrackPointExtension>
            <ns3:atemp>17.0</ns3:atemp>
          </ns3:TrackPointExtension>
        </extensions>
      </trkpt>
      <trkpt lat="46.782593093812465667724609375" lon="6.9135021977126598358154296875">
        <ele>345.600006103515625</ele>
        <time>2013-09-01T16:36:25.000Z</time>
        <extensions>
          <ns3:TrackPointExtension>
            <ns3:atemp>17.0</ns3:atemp>
          </ns3:TrackPointExtension>
        </extensions>
      </trkpt>
      <trkpt lat="46.78263240493834018707275390625" lon="6.913593225181102752685546875">
        <ele>345.399993896484375</ele>
        <time>2013-09-01T16:36:26.000Z</time>
        <extensions>
          <ns3:TrackPointExtension>
            <ns3:atemp>17.0</ns3:atemp>
          </ns3:TrackPointExtension>
        </extensions>
      </trkpt>
      <trkpt lat="46.7826703749597072601318359375" lon="6.9136832468211650848388671875">
        <ele>345.20001220703125</ele>
        <time>2013-09-01T16:36:27.000Z</time>
        <extensions>
          <ns3:TrackPointExtension>
            <ns3:atemp>17.0</ns3:atemp>
          </ns3:TrackPointExtension>
        </extensions>
      </trkpt>
      <trkpt lat="46.78270432166755199432373046875" lon="6.913771592080593109130859375">
        <ele>345</ele>
        <time>2013-09-01T16:36:28.000Z</time>
        <extensions>
          <ns3:TrackPointExtension>
            <ns3:atemp>17.0</ns3:atemp>
          </ns3:TrackPointExtension>
        </extensions>
      </trkpt>
      <trkpt lat="46.78273533470928668975830078125" lon="6.91386085934937000274658203125">
        <ele>345</ele>
        <time>2013-09-01T16:36:29.000Z</time>
        <extensions>
          <ns3:TrackPointExtension>
            <ns3:atemp>17.0</ns3:atemp>
          </ns3:TrackPointExtension>
        </extensions>
      </trkpt>
      <trkpt lat="46.78276433609426021575927734375" lon="6.91395356319844722747802734375">
        <ele>345</ele>
        <time>2013-09-01T16:36:30.000Z</time>
        <extensions>
          <ns3:TrackPointExtension>
            <ns3:atemp>17.0</ns3:atemp>
          </ns3:TrackPointExtension>
        </extensions>
      </trkpt>
      <trkpt lat="46.7827893979847431182861328125" lon="6.91404894925653934478759765625">
        <ele>345</ele>
        <time>2013-09-01T16:36:31.000Z</time>
        <extensions>
          <ns3:TrackPointExtension>
            <ns3:atemp>17.0</ns3:atemp>
          </ns3:TrackPointExtension>
        </extensions>
      </trkpt>
      <trkpt lat="46.78281613625586032867431640625" lon="6.9141422398388385772705078125">
        <ele>345</ele>
        <time>2013-09-01T16:36:32.000Z</time>
        <extensions>
          <ns3:TrackPointExtension>
            <ns3:atemp>17.0</ns3:atemp>
          </ns3:TrackPointExtension>
        </extensions>
      </trkpt>
      <trkpt lat="46.782844550907611846923828125" lon="6.91423787735402584075927734375">
        <ele>344.600006103515625</ele>
        <time>2013-09-01T16:36:33.000Z</time>
        <extensions>
          <ns3:TrackPointExtension>
            <ns3:atemp>17.0</ns3:atemp>
          </ns3:TrackPointExtension>
        </extensions>
      </trkpt>
      <trkpt lat="46.78287615068256855010986328125" lon="6.9143310002982616424560546875">
        <ele>344.600006103515625</ele>
        <time>2013-09-01T16:36:34.000Z</time>
        <extensions>
          <ns3:TrackPointExtension>
            <ns3:atemp>17.0</ns3:atemp>
          </ns3:TrackPointExtension>
        </extensions>
      </trkpt>
      <trkpt lat="46.78291437216103076934814453125" lon="6.914416663348674774169921875">
        <ele>344.600006103515625</ele>
        <time>2013-09-01T16:36:35.000Z</time>
        <extensions>
          <ns3:TrackPointExtension>
            <ns3:atemp>17.0</ns3:atemp>
          </ns3:TrackPointExtension>
        </extensions>
      </trkpt>
      <trkpt lat="46.78295477293431758880615234375" lon="6.91449788399040699005126953125">
        <ele>344.600006103515625</ele>
        <time>2013-09-01T16:36:36.000Z</time>
        <extensions>
          <ns3:TrackPointExtension>
            <ns3:atemp>17.0</ns3:atemp>
          </ns3:TrackPointExtension>
        </extensions>
      </trkpt>
      <trkpt lat="46.78299483843147754669189453125" lon="6.91457265056669712066650390625">
        <ele>344.600006103515625</ele>
        <time>2013-09-01T16:36:37.000Z</time>
        <extensions>
          <ns3:TrackPointExtension>
            <ns3:atemp>17.0</ns3:atemp>
          </ns3:TrackPointExtension>
        </extensions>
      </trkpt>
      <trkpt lat="46.78303540684282779693603515625" lon="6.91464305855333805084228515625">
        <ele>344.600006103515625</ele>
        <time>2013-09-01T16:36:38.000Z</time>
        <extensions>
          <ns3:TrackPointExtension>
            <ns3:atemp>17.0</ns3:atemp>
          </ns3:TrackPointExtension>
        </extensions>
      </trkpt>
      <trkpt lat="46.7830767296254634857177734375" lon="6.9147115387022495269775390625">
        <ele>344.600006103515625</ele>
        <time>2013-09-01T16:36:39.000Z</time>
        <extensions>
          <ns3:TrackPointExtension>
            <ns3:atemp>17.0</ns3:atemp>
          </ns3:TrackPointExtension>
        </extensions>
      </trkpt>
      <trkpt lat="46.7831186391413211822509765625" lon="6.91477951593697071075439453125">
        <ele>344.600006103515625</ele>
        <time>2013-09-01T16:36:40.000Z</time>
        <extensions>
          <ns3:TrackPointExtension>
            <ns3:atemp>17.0</ns3:atemp>
          </ns3:TrackPointExtension>
        </extensions>
      </trkpt>
      <trkpt lat="46.783158369362354278564453125" lon="6.914849840104579925537109375">
        <ele>344.600006103515625</ele>
        <time>2013-09-01T16:36:41.000Z</time>
        <extensions>
          <ns3:TrackPointExtension>
            <ns3:atemp>17.0</ns3:atemp>
          </ns3:TrackPointExtension>
        </extensions>
      </trkpt>
      <trkpt lat="46.7831970937550067901611328125" lon="6.91492049954831600189208984375">
        <ele>344.399993896484375</ele>
        <time>2013-09-01T16:36:42.000Z</time>
        <extensions>
          <ns3:TrackPointExtension>
            <ns3:atemp>17.0</ns3:atemp>
          </ns3:TrackPointExtension>
        </extensions>
      </trkpt>
      <trkpt lat="46.78323640488088130950927734375" lon="6.914991326630115509033203125">
        <ele>344.399993896484375</ele>
        <time>2013-09-01T16:36:43.000Z</time>
        <extensions>
          <ns3:TrackPointExtension>
            <ns3:atemp>17.0</ns3:atemp>
          </ns3:TrackPointExtension>
        </extensions>
      </trkpt>
      <trkpt lat="46.78327445872128009796142578125" lon="6.9150635786354541778564453125">
        <ele>344.399993896484375</ele>
        <time>2013-09-01T16:36:44.000Z</time>
        <extensions>
          <ns3:TrackPointExtension>
            <ns3:atemp>17.0</ns3:atemp>
          </ns3:TrackPointExtension>
        </extensions>
      </trkpt>
      <trkpt lat="46.7833127640187740325927734375" lon="6.91513608209788799285888671875">
        <ele>344.399993896484375</ele>
        <time>2013-09-01T16:36:45.000Z</time>
        <extensions>
          <ns3:TrackPointExtension>
            <ns3:atemp>17.0</ns3:atemp>
          </ns3:TrackPointExtension>
        </extensions>
      </trkpt>
      <trkpt lat="46.7833484709262847900390625" lon="6.9152134470641613006591796875">
        <ele>344.600006103515625</ele>
        <time>2013-09-01T16:36:46.000Z</time>
        <extensions>
          <ns3:TrackPointExtension>
            <ns3:atemp>17.0</ns3:atemp>
          </ns3:TrackPointExtension>
        </extensions>
      </trkpt>
      <trkpt lat="46.78338191471993923187255859375" lon="6.9152913987636566162109375">
        <ele>344.399993896484375</ele>
        <time>2013-09-01T16:36:47.000Z</time>
        <extensions>
          <ns3:TrackPointExtension>
            <ns3:atemp>17.0</ns3:atemp>
          </ns3:TrackPointExtension>
        </extensions>
      </trkpt>
      <trkpt lat="46.78341661579906940460205078125" lon="6.91536406986415386199951171875">
        <ele>344.20001220703125</ele>
        <time>2013-09-01T16:36:48.000Z</time>
        <extensions>
          <ns3:TrackPointExtension>
            <ns3:atemp>17.0</ns3:atemp>
          </ns3:TrackPointExtension>
        </extensions>
      </trkpt>
      <trkpt lat="46.78345601074397563934326171875" lon="6.9154387526214122772216796875">
        <ele>344</ele>
        <time>2013-09-01T16:36:49.000Z</time>
        <extensions>
          <ns3:TrackPointExtension>
            <ns3:atemp>17.0</ns3:atemp>
          </ns3:TrackPointExtension>
        </extensions>
      </trkpt>
      <trkpt lat="46.78349842317402362823486328125" lon="6.91551201045513153076171875">
        <ele>344</ele>
        <time>2013-09-01T16:36:50.000Z</time>
        <extensions>
          <ns3:TrackPointExtension>
            <ns3:atemp>17.0</ns3:atemp>
          </ns3:TrackPointExtension>
        </extensions>
      </trkpt>
      <trkpt lat="46.783548295497894287109375" lon="6.91557772457599639892578125">
        <ele>344.20001220703125</ele>
        <time>2013-09-01T16:36:51.000Z</time>
        <extensions>
          <ns3:TrackPointExtension>
            <ns3:atemp>17.0</ns3:atemp>
          </ns3:TrackPointExtension>
        </extensions>
      </trkpt>
      <trkpt lat="46.7836061306297779083251953125" lon="6.91563539206981658935546875">
        <ele>344.399993896484375</ele>
        <time>2013-09-01T16:36:52.000Z</time>
        <extensions>
          <ns3:TrackPointExtension>
            <ns3:atemp>17.0</ns3:atemp>
          </ns3:TrackPointExtension>
        </extensions>
      </trkpt>
      <trkpt lat="46.783663965761661529541015625" lon="6.91568543203175067901611328125">
        <ele>344.20001220703125</ele>
        <time>2013-09-01T16:36:53.000Z</time>
        <extensions>
          <ns3:TrackPointExtension>
            <ns3:atemp>17.0</ns3:atemp>
          </ns3:TrackPointExtension>
        </extensions>
      </trkpt>
      <trkpt lat="46.78371752612292766571044921875" lon="6.91572683863341808319091796875">
        <ele>344</ele>
        <time>2013-09-01T16:36:54.000Z</time>
        <extensions>
          <ns3:TrackPointExtension>
            <ns3:atemp>17.0</ns3:atemp>
          </ns3:TrackPointExtension>
        </extensions>
      </trkpt>
      <trkpt lat="46.783771924674510955810546875" lon="6.9157639704644680023193359375">
        <ele>343.79998779296875</ele>
        <time>2013-09-01T16:36:55.000Z</time>
        <extensions>
          <ns3:TrackPointExtension>
            <ns3:atemp>17.0</ns3:atemp>
          </ns3:TrackPointExtension>
        </extensions>
      </trkpt>
      <trkpt lat="46.78382950834929943084716796875" lon="6.91580034792423248291015625">
        <ele>343.79998779296875</ele>
        <time>2013-09-01T16:36:56.000Z</time>
        <extensions>
          <ns3:TrackPointExtension>
            <ns3:atemp>17.0</ns3:atemp>
          </ns3:TrackPointExtension>
        </extensions>
      </trkpt>
      <trkpt lat="46.78389019332826137542724609375" lon="6.91583563573658466339111328125">
        <ele>344</ele>
        <time>2013-09-01T16:36:57.000Z</time>
        <extensions>
          <ns3:TrackPointExtension>
            <ns3:atemp>17.0</ns3:atemp>
          </ns3:TrackPointExtension>
        </extensions>
      </trkpt>
      <trkpt lat="46.78395540453493595123291015625" lon="6.91587469540536403656005859375">
        <ele>344.399993896484375</ele>
        <time>2013-09-01T16:36:58.000Z</time>
        <extensions>
          <ns3:TrackPointExtension>
            <ns3:atemp>17.0</ns3:atemp>
          </ns3:TrackPointExtension>
        </extensions>
      </trkpt>
      <trkpt lat="46.78402145393192768096923828125" lon="6.91591258160769939422607421875">
        <ele>344.600006103515625</ele>
        <time>2013-09-01T16:36:59.000Z</time>
        <extensions>
          <ns3:TrackPointExtension>
            <ns3:atemp>17.0</ns3:atemp>
          </ns3:TrackPointExtension>
        </extensions>
      </trkpt>
      <trkpt lat="46.7840874195098876953125" lon="6.91595164127647876739501953125">
        <ele>344.79998779296875</ele>
        <time>2013-09-01T16:37:00.000Z</time>
        <extensions>
          <ns3:TrackPointExtension>
            <ns3:atemp>17.0</ns3:atemp>
          </ns3:TrackPointExtension>
        </extensions>
      </trkpt>
      <trkpt lat="46.78415204398334026336669921875" lon="6.9159926287829875946044921875">
        <ele>344.79998779296875</ele>
        <time>2013-09-01T16:37:01.000Z</time>
        <extensions>
          <ns3:TrackPointExtension>
            <ns3:atemp>17.0</ns3:atemp>
          </ns3:TrackPointExtension>
        </extensions>
      </trkpt>
      <trkpt lat="46.78421440534293651580810546875" lon="6.9160311855375766754150390625">
        <ele>344.79998779296875</ele>
        <time>2013-09-01T16:37:02.000Z</time>
        <extensions>
          <ns3:TrackPointExtension>
            <ns3:atemp>17.0</ns3:atemp>
          </ns3:TrackPointExtension>
        </extensions>
      </trkpt>
      <trkpt lat="46.78427576087415218353271484375" lon="6.91606882028281688690185546875">
        <ele>344.79998779296875</ele>
        <time>2013-09-01T16:37:03.000Z</time>
        <extensions>
          <ns3:TrackPointExtension>
            <ns3:atemp>17.0</ns3:atemp>
          </ns3:TrackPointExtension>
        </extensions>
      </trkpt>
      <trkpt lat="46.78433644585311412811279296875" lon="6.9161059521138668060302734375">
        <ele>344.600006103515625</ele>
        <time>2013-09-01T16:37:04.000Z</time>
        <extensions>
          <ns3:TrackPointExtension>
            <ns3:atemp>17.0</ns3:atemp>
          </ns3:TrackPointExtension>
        </extensions>
      </trkpt>
      <trkpt lat="46.78439863957464694976806640625" lon="6.91614090465009212493896484375">
        <ele>344.600006103515625</ele>
        <time>2013-09-01T16:37:05.000Z</time>
        <extensions>
          <ns3:TrackPointExtension>
            <ns3:atemp>17.0</ns3:atemp>
          </ns3:TrackPointExtension>
        </extensions>
      </trkpt>
      <trkpt lat="46.7844624258577823638916015625" lon="6.91617049276828765869140625">
        <ele>344.399993896484375</ele>
        <time>2013-09-01T16:37:06.000Z</time>
        <extensions>
          <ns3:TrackPointExtension>
            <ns3:atemp>17.0</ns3:atemp>
          </ns3:TrackPointExtension>
        </extensions>
      </trkpt>
      <trkpt lat="46.7845291458070278167724609375" lon="6.91620259545743465423583984375">
        <ele>344.399993896484375</ele>
        <time>2013-09-01T16:37:07.000Z</time>
        <extensions>
          <ns3:TrackPointExtension>
            <ns3:atemp>17.0</ns3:atemp>
          </ns3:TrackPointExtension>
        </extensions>
      </trkpt>
      <trkpt lat="46.78459946997463703155517578125" lon="6.91623360849916934967041015625">
        <ele>344.399993896484375</ele>
        <time>2013-09-01T16:37:08.000Z</time>
        <extensions>
          <ns3:TrackPointExtension>
            <ns3:atemp>17.0</ns3:atemp>
          </ns3:TrackPointExtension>
        </extensions>
      </trkpt>
      <trkpt lat="46.7846666090190410614013671875" lon="6.9162688963115215301513671875">
        <ele>344.399993896484375</ele>
        <time>2013-09-01T16:37:09.000Z</time>
        <extensions>
          <ns3:TrackPointExtension>
            <ns3:atemp>17.0</ns3:atemp>
          </ns3:TrackPointExtension>
        </extensions>
      </trkpt>
      <trkpt lat="46.78473341278731822967529296875" lon="6.91630183719098567962646484375">
        <ele>344.20001220703125</ele>
        <time>2013-09-01T16:37:10.000Z</time>
        <extensions>
          <ns3:TrackPointExtension>
            <ns3:atemp>17.0</ns3:atemp>
          </ns3:TrackPointExtension>
        </extensions>
      </trkpt>
      <trkpt lat="46.78480264730751514434814453125" lon="6.91633410751819610595703125">
        <ele>344.399993896484375</ele>
        <time>2013-09-01T16:37:11.000Z</time>
        <extensions>
          <ns3:TrackPointExtension>
            <ns3:atemp>17.0</ns3:atemp>
          </ns3:TrackPointExtension>
        </extensions>
      </trkpt>
      <trkpt lat="46.78487339057028293609619140625" lon="6.9163651205599308013916015625">
        <ele>344.399993896484375</ele>
        <time>2013-09-01T16:37:12.000Z</time>
        <extensions>
          <ns3:TrackPointExtension>
            <ns3:atemp>17.0</ns3:atemp>
          </ns3:TrackPointExtension>
        </extensions>
      </trkpt>
      <trkpt lat="46.78494371473789215087890625" lon="6.916393451392650604248046875">
        <ele>344.600006103515625</ele>
        <time>2013-09-01T16:37:13.000Z</time>
        <extensions>
          <ns3:TrackPointExtension>
            <ns3:atemp>17.0</ns3:atemp>
          </ns3:TrackPointExtension>
        </extensions>
      </trkpt>
      <trkpt lat="46.7850159667432308197021484375" lon="6.9164197705686092376708984375">
        <ele>344.399993896484375</ele>
        <time>2013-09-01T16:37:14.000Z</time>
        <extensions>
          <ns3:TrackPointExtension>
            <ns3:atemp>17.0</ns3:atemp>
          </ns3:TrackPointExtension>
        </extensions>
      </trkpt>
      <trkpt lat="46.7850870452821254730224609375" lon="6.91644399426877498626708984375">
        <ele>344.399993896484375</ele>
        <time>2013-09-01T16:37:15.000Z</time>
        <extensions>
          <ns3:TrackPointExtension>
            <ns3:atemp>17.0</ns3:atemp>
          </ns3:TrackPointExtension>
        </extensions>
      </trkpt>
      <trkpt lat="46.7851567827165126800537109375" lon="6.91646821796894073486328125">
        <ele>344.399993896484375</ele>
        <time>2013-09-01T16:37:16.000Z</time>
        <extensions>
          <ns3:TrackPointExtension>
            <ns3:atemp>17.0</ns3:atemp>
          </ns3:TrackPointExtension>
        </extensions>
      </trkpt>
      <trkpt lat="46.7852260172367095947265625" lon="6.916498057544231414794921875">
        <ele>344</ele>
        <time>2013-09-01T16:37:17.000Z</time>
        <extensions>
          <ns3:TrackPointExtension>
            <ns3:atemp>17.0</ns3:atemp>
          </ns3:TrackPointExtension>
        </extensions>
      </trkpt>
      <trkpt lat="46.785295419394969940185546875" lon="6.91653569228947162628173828125">
        <ele>344</ele>
        <time>2013-09-01T16:37:18.000Z</time>
        <extensions>
          <ns3:TrackPointExtension>
            <ns3:atemp>17.0</ns3:atemp>
          </ns3:TrackPointExtension>
        </extensions>
      </trkpt>
      <trkpt lat="46.785361468791961669921875" lon="6.9165708124637603759765625">
        <ele>344</ele>
        <time>2013-09-01T16:37:19.000Z</time>
        <extensions>
          <ns3:TrackPointExtension>
            <ns3:atemp>17.0</ns3:atemp>
          </ns3:TrackPointExtension>
        </extensions>
      </trkpt>
      <trkpt lat="46.7854246683418750762939453125" lon="6.9165941141545772552490234375">
        <ele>344.20001220703125</ele>
        <time>2013-09-01T16:37:20.000Z</time>
        <extensions>
          <ns3:TrackPointExtension>
            <ns3:atemp>17.0</ns3:atemp>
          </ns3:TrackPointExtension>
        </extensions>
      </trkpt>
      <trkpt lat="46.7854887060821056365966796875" lon="6.91661481745541095733642578125">
        <ele>344</ele>
        <time>2013-09-01T16:37:21.000Z</time>
        <extensions>
          <ns3:TrackPointExtension>
            <ns3:atemp>17.0</ns3:atemp>
          </ns3:TrackPointExtension>
        </extensions>
      </trkpt>
      <trkpt lat="46.78555232472717761993408203125" lon="6.9166405498981475830078125">
        <ele>344</ele>
        <time>2013-09-01T16:37:22.000Z</time>
        <extensions>
          <ns3:TrackPointExtension>
            <ns3:atemp>17.0</ns3:atemp>
          </ns3:TrackPointExtension>
        </extensions>
      </trkpt>
      <trkpt lat="46.78561200387775897979736328125" lon="6.91666376776993274688720703125">
        <ele>344.20001220703125</ele>
        <time>2013-09-01T16:37:23.000Z</time>
        <extensions>
          <ns3:TrackPointExtension>
            <ns3:atemp>17.0</ns3:atemp>
          </ns3:TrackPointExtension>
        </extensions>
      </trkpt>
      <trkpt lat="46.78566916845738887786865234375" lon="6.9166769273579120635986328125">
        <ele>344.20001220703125</ele>
        <time>2013-09-01T16:37:24.000Z</time>
        <extensions>
          <ns3:TrackPointExtension>
            <ns3:atemp>17.0</ns3:atemp>
          </ns3:TrackPointExtension>
        </extensions>
      </trkpt>
      <trkpt lat="46.7857220582664012908935546875" lon="6.916674412786960601806640625">
        <ele>344.20001220703125</ele>
        <time>2013-09-01T16:37:25.000Z</time>
        <extensions>
          <ns3:TrackPointExtension>
            <ns3:atemp>16.0</ns3:atemp>
          </ns3:TrackPointExtension>
        </extensions>
      </trkpt>
      <trkpt lat="46.78577410988509654998779296875" lon="6.91665991209447383880615234375">
        <ele>344</ele>
        <time>2013-09-01T16:37:26.000Z</time>
        <extensions>
          <ns3:TrackPointExtension>
            <ns3:atemp>16.0</ns3:atemp>
          </ns3:TrackPointExtension>
        </extensions>
      </trkpt>
      <trkpt lat="46.7858273349702358245849609375" lon="6.91664298065006732940673828125">
        <ele>343.79998779296875</ele>
        <time>2013-09-01T16:37:27.000Z</time>
        <extensions>
          <ns3:TrackPointExtension>
            <ns3:atemp>16.0</ns3:atemp>
          </ns3:TrackPointExtension>
        </extensions>
      </trkpt>
      <trkpt lat="46.78588273935019969940185546875" lon="6.91662051714956760406494140625">
        <ele>343.79998779296875</ele>
        <time>2013-09-01T16:37:28.000Z</time>
        <extensions>
          <ns3:TrackPointExtension>
            <ns3:atemp>16.0</ns3:atemp>
          </ns3:TrackPointExtension>
        </extensions>
      </trkpt>
      <trkpt lat="46.785935461521148681640625" lon="6.91659486852586269378662109375">
        <ele>344</ele>
        <time>2013-09-01T16:37:29.000Z</time>
        <extensions>
          <ns3:TrackPointExtension>
            <ns3:atemp>16.0</ns3:atemp>
          </ns3:TrackPointExtension>
        </extensions>
      </trkpt>
      <trkpt lat="46.78599170409142971038818359375" lon="6.9165790267288684844970703125">
        <ele>343.79998779296875</ele>
        <time>2013-09-01T16:37:30.000Z</time>
        <extensions>
          <ns3:TrackPointExtension>
            <ns3:atemp>16.0</ns3:atemp>
          </ns3:TrackPointExtension>
        </extensions>
      </trkpt>
      <trkpt lat="46.7860519699752330780029296875" lon="6.9165790267288684844970703125">
        <ele>343.79998779296875</ele>
        <time>2013-09-01T16:37:31.000Z</time>
        <extensions>
          <ns3:TrackPointExtension>
            <ns3:atemp>16.0</ns3:atemp>
          </ns3:TrackPointExtension>
        </extensions>
      </trkpt>
      <trkpt lat="46.78611340932548046112060546875" lon="6.91657491959631443023681640625">
        <ele>343.600006103515625</ele>
        <time>2013-09-01T16:37:32.000Z</time>
        <extensions>
          <ns3:TrackPointExtension>
            <ns3:atemp>16.0</ns3:atemp>
          </ns3:TrackPointExtension>
        </extensions>
      </trkpt>
      <trkpt lat="46.78616814315319061279296875" lon="6.9165595807135105133056640625">
        <ele>343.399993896484375</ele>
        <time>2013-09-01T16:37:33.000Z</time>
        <extensions>
          <ns3:TrackPointExtension>
            <ns3:atemp>16.0</ns3:atemp>
          </ns3:TrackPointExtension>
        </extensions>
      </trkpt>
      <trkpt lat="46.7862202785909175872802734375" lon="6.9165397994220256805419921875">
        <ele>343.399993896484375</ele>
        <time>2013-09-01T16:37:34.000Z</time>
        <extensions>
          <ns3:TrackPointExtension>
            <ns3:atemp>16.0</ns3:atemp>
          </ns3:TrackPointExtension>
        </extensions>
      </trkpt>
      <trkpt lat="46.78627182729542255401611328125" lon="6.91652077250182628631591796875">
        <ele>343.20001220703125</ele>
        <time>2013-09-01T16:37:35.000Z</time>
        <extensions>
          <ns3:TrackPointExtension>
            <ns3:atemp>16.0</ns3:atemp>
          </ns3:TrackPointExtension>
        </extensions>
      </trkpt>
      <trkpt lat="46.78631943650543689727783203125" lon="6.91649579443037509918212890625">
        <ele>343.20001220703125</ele>
        <time>2013-09-01T16:37:36.000Z</time>
        <extensions>
          <ns3:TrackPointExtension>
            <ns3:atemp>16.0</ns3:atemp>
          </ns3:TrackPointExtension>
        </extensions>
      </trkpt>
      <trkpt lat="46.78636335767805576324462890625" lon="6.9164673797786235809326171875">
        <ele>343</ele>
        <time>2013-09-01T16:37:37.000Z</time>
        <extensions>
          <ns3:TrackPointExtension>
            <ns3:atemp>16.0</ns3:atemp>
          </ns3:TrackPointExtension>
        </extensions>
      </trkpt>
      <trkpt lat="46.78640426136553287506103515625" lon="6.91643695347011089324951171875">
        <ele>342.79998779296875</ele>
        <time>2013-09-01T16:37:38.000Z</time>
        <extensions>
          <ns3:TrackPointExtension>
            <ns3:atemp>16.0</ns3:atemp>
          </ns3:TrackPointExtension>
        </extensions>
      </trkpt>
      <trkpt lat="46.78644617088139057159423828125" lon="6.91641147248446941375732421875">
        <ele>342.79998779296875</ele>
        <time>2013-09-01T16:37:39.000Z</time>
        <extensions>
          <ns3:TrackPointExtension>
            <ns3:atemp>16.0</ns3:atemp>
          </ns3:TrackPointExtension>
        </extensions>
      </trkpt>
      <trkpt lat="46.78649277426302433013916015625" lon="6.91639739088714122772216796875">
        <ele>342.79998779296875</ele>
        <time>2013-09-01T16:37:40.000Z</time>
        <extensions>
          <ns3:TrackPointExtension>
            <ns3:atemp>16.0</ns3:atemp>
          </ns3:TrackPointExtension>
        </extensions>
      </trkpt>
      <trkpt lat="46.7865444906055927276611328125" lon="6.91638884134590625762939453125">
        <ele>342.79998779296875</ele>
        <time>2013-09-01T16:37:41.000Z</time>
        <extensions>
          <ns3:TrackPointExtension>
            <ns3:atemp>16.0</ns3:atemp>
          </ns3:TrackPointExtension>
        </extensions>
      </trkpt>
      <trkpt lat="46.786600984632968902587890625" lon="6.9163775257766246795654296875">
        <ele>342.600006103515625</ele>
        <time>2013-09-01T16:37:42.000Z</time>
        <extensions>
          <ns3:TrackPointExtension>
            <ns3:atemp>16.0</ns3:atemp>
          </ns3:TrackPointExtension>
        </extensions>
      </trkpt>
      <trkpt lat="46.78665957413613796234130859375" lon="6.91636218689382076263427734375">
        <ele>342.79998779296875</ele>
        <time>2013-09-01T16:37:43.000Z</time>
        <extensions>
          <ns3:TrackPointExtension>
            <ns3:atemp>16.0</ns3:atemp>
          </ns3:TrackPointExtension>
        </extensions>
      </trkpt>
      <trkpt lat="46.78672327660024166107177734375" lon="6.91635330207645893096923828125">
        <ele>342.79998779296875</ele>
        <time>2013-09-01T16:37:44.000Z</time>
        <extensions>
          <ns3:TrackPointExtension>
            <ns3:atemp>16.0</ns3:atemp>
          </ns3:TrackPointExtension>
        </extensions>
      </trkpt>
      <trkpt lat="46.7867889069020748138427734375" lon="6.91633922047913074493408203125">
        <ele>342.79998779296875</ele>
        <time>2013-09-01T16:37:45.000Z</time>
        <extensions>
          <ns3:TrackPointExtension>
            <ns3:atemp>16.0</ns3:atemp>
          </ns3:TrackPointExtension>
        </extensions>
      </trkpt>
      <trkpt lat="46.786849088966846466064453125" lon="6.9163104705512523651123046875">
        <ele>342.399993896484375</ele>
        <time>2013-09-01T16:37:46.000Z</time>
        <extensions>
          <ns3:TrackPointExtension>
            <ns3:atemp>16.0</ns3:atemp>
          </ns3:TrackPointExtension>
        </extensions>
      </trkpt>
      <trkpt lat="46.78690767847001552581787109375" lon="6.91626696847379207611083984375">
        <ele>342.20001220703125</ele>
        <time>2013-09-01T16:37:47.000Z</time>
        <extensions>
          <ns3:TrackPointExtension>
            <ns3:atemp>16.0</ns3:atemp>
          </ns3:TrackPointExtension>
        </extensions>
      </trkpt>
      <trkpt lat="46.78696811199188232421875" lon="6.91622053273022174835205078125">
        <ele>341.79998779296875</ele>
        <time>2013-09-01T16:37:48.000Z</time>
        <extensions>
          <ns3:TrackPointExtension>
            <ns3:atemp>16.0</ns3:atemp>
          </ns3:TrackPointExtension>
        </extensions>
      </trkpt>
      <trkpt lat="46.78703357465565204620361328125" lon="6.91619505174458026885986328125">
        <ele>341.79998779296875</ele>
        <time>2013-09-01T16:37:49.000Z</time>
        <extensions>
          <ns3:TrackPointExtension>
            <ns3:atemp>16.0</ns3:atemp>
          </ns3:TrackPointExtension>
        </extensions>
      </trkpt>
      <trkpt lat="46.78710021078586578369140625" lon="6.91619689576327800750732421875">
        <ele>341.79998779296875</ele>
        <time>2013-09-01T16:37:50.000Z</time>
        <extensions>
          <ns3:TrackPointExtension>
            <ns3:atemp>16.0</ns3:atemp>
          </ns3:TrackPointExtension>
        </extensions>
      </trkpt>
      <trkpt lat="46.78716667927801609039306640625" lon="6.91620410420000553131103515625">
        <ele>342.399993896484375</ele>
        <time>2013-09-01T16:37:51.000Z</time>
        <extensions>
          <ns3:TrackPointExtension>
            <ns3:atemp>16.0</ns3:atemp>
          </ns3:TrackPointExtension>
        </extensions>
      </trkpt>
      <trkpt lat="46.78722870536148548126220703125" lon="6.9162115640938282012939453125">
        <ele>342.600006103515625</ele>
        <time>2013-09-01T16:37:52.000Z</time>
        <extensions>
          <ns3:TrackPointExtension>
            <ns3:atemp>16.0</ns3:atemp>
          </ns3:TrackPointExtension>
        </extensions>
      </trkpt>
      <trkpt lat="46.78728922270238399505615234375" lon="6.9162253104150295257568359375">
        <ele>342.79998779296875</ele>
        <time>2013-09-01T16:37:53.000Z</time>
        <extensions>
          <ns3:TrackPointExtension>
            <ns3:atemp>16.0</ns3:atemp>
          </ns3:TrackPointExtension>
        </extensions>
      </trkpt>
      <trkpt lat="46.78734605200588703155517578125" lon="6.91623293794691562652587890625">
        <ele>342.79998779296875</ele>
        <time>2013-09-01T16:37:54.000Z</time>
        <extensions>
          <ns3:TrackPointExtension>
            <ns3:atemp>16.0</ns3:atemp>
          </ns3:TrackPointExtension>
        </extensions>
      </trkpt>
      <trkpt lat="46.7873991094529628753662109375" lon="6.91623008809983730316162109375">
        <ele>343</ele>
        <time>2013-09-01T16:37:55.000Z</time>
        <extensions>
          <ns3:TrackPointExtension>
            <ns3:atemp>16.0</ns3:atemp>
          </ns3:TrackPointExtension>
        </extensions>
      </trkpt>
      <trkpt lat="46.78745149634778499603271484375" lon="6.91622103564441204071044921875">
        <ele>343</ele>
        <time>2013-09-01T16:37:56.000Z</time>
        <extensions>
          <ns3:TrackPointExtension>
            <ns3:atemp>16.0</ns3:atemp>
          </ns3:TrackPointExtension>
        </extensions>
      </trkpt>
      <trkpt lat="46.7875006981194019317626953125" lon="6.91621064208447933197021484375">
        <ele>343</ele>
        <time>2013-09-01T16:37:57.000Z</time>
        <extensions>
          <ns3:TrackPointExtension>
            <ns3:atemp>16.0</ns3:atemp>
          </ns3:TrackPointExtension>
        </extensions>
      </trkpt>
      <trkpt lat="46.78755006752908229827880859375" lon="6.91620511002838611602783203125">
        <ele>343</ele>
        <time>2013-09-01T16:37:58.000Z</time>
        <extensions>
          <ns3:TrackPointExtension>
            <ns3:atemp>16.0</ns3:atemp>
          </ns3:TrackPointExtension>
        </extensions>
      </trkpt>
      <trkpt lat="46.78760069422423839569091796875" lon="6.91620259545743465423583984375">
        <ele>343.20001220703125</ele>
        <time>2013-09-01T16:37:59.000Z</time>
        <extensions>
          <ns3:TrackPointExtension>
            <ns3:atemp>16.0</ns3:atemp>
          </ns3:TrackPointExtension>
        </extensions>
      </trkpt>
      <trkpt lat="46.78765031509101390838623046875" lon="6.91619941033422946929931640625">
        <ele>343.20001220703125</ele>
        <time>2013-09-01T16:38:00.000Z</time>
        <extensions>
          <ns3:TrackPointExtension>
            <ns3:atemp>16.0</ns3:atemp>
          </ns3:TrackPointExtension>
        </extensions>
      </trkpt>
      <trkpt lat="46.78769943304359912872314453125" lon="6.9161917828023433685302734375">
        <ele>343</ele>
        <time>2013-09-01T16:38:01.000Z</time>
        <extensions>
          <ns3:TrackPointExtension>
            <ns3:atemp>16.0</ns3:atemp>
          </ns3:TrackPointExtension>
        </extensions>
      </trkpt>
      <trkpt lat="46.78775089792907238006591796875" lon="6.91618926823139190673828125">
        <ele>342.79998779296875</ele>
        <time>2013-09-01T16:38:02.000Z</time>
        <extensions>
          <ns3:TrackPointExtension>
            <ns3:atemp>16.0</ns3:atemp>
          </ns3:TrackPointExtension>
        </extensions>
      </trkpt>
      <trkpt lat="46.78780672140419483184814453125" lon="6.91618918441236019134521484375">
        <ele>342.79998779296875</ele>
        <time>2013-09-01T16:38:03.000Z</time>
        <extensions>
          <ns3:TrackPointExtension>
            <ns3:atemp>16.0</ns3:atemp>
          </ns3:TrackPointExtension>
        </extensions>
      </trkpt>
      <trkpt lat="46.7878654785454273223876953125" lon="6.9161857478320598602294921875">
        <ele>342.79998779296875</ele>
        <time>2013-09-01T16:38:04.000Z</time>
        <extensions>
          <ns3:TrackPointExtension>
            <ns3:atemp>16.0</ns3:atemp>
          </ns3:TrackPointExtension>
        </extensions>
      </trkpt>
      <trkpt lat="46.7879251576960086822509765625" lon="6.91618214361369609832763671875">
        <ele>342.79998779296875</ele>
        <time>2013-09-01T16:38:05.000Z</time>
        <extensions>
          <ns3:TrackPointExtension>
            <ns3:atemp>16.0</ns3:atemp>
          </ns3:TrackPointExtension>
        </extensions>
      </trkpt>
      <trkpt lat="46.78799011744558811187744140625" lon="6.91618097014725208282470703125">
        <ele>343</ele>
        <time>2013-09-01T16:38:06.000Z</time>
        <extensions>
          <ns3:TrackPointExtension>
            <ns3:atemp>16.0</ns3:atemp>
          </ns3:TrackPointExtension>
        </extensions>
      </trkpt>
      <trkpt lat="46.78805734030902385711669921875" lon="6.916183568537235260009765625">
        <ele>343</ele>
        <time>2013-09-01T16:38:07.000Z</time>
        <extensions>
          <ns3:TrackPointExtension>
            <ns3:atemp>16.0</ns3:atemp>
          </ns3:TrackPointExtension>
        </extensions>
      </trkpt>
      <trkpt lat="46.78812079131603240966796875" lon="6.9161891005933284759521484375">
        <ele>342.79998779296875</ele>
        <time>2013-09-01T16:38:08.000Z</time>
        <extensions>
          <ns3:TrackPointExtension>
            <ns3:atemp>16.0</ns3:atemp>
          </ns3:TrackPointExtension>
        </extensions>
      </trkpt>
      <trkpt lat="46.78818658925592899322509765625" lon="6.9161914475262165069580078125">
        <ele>342.399993896484375</ele>
        <time>2013-09-01T16:38:09.000Z</time>
        <extensions>
          <ns3:TrackPointExtension>
            <ns3:atemp>16.0</ns3:atemp>
          </ns3:TrackPointExtension>
        </extensions>
      </trkpt>
      <trkpt lat="46.78825498558580875396728515625" lon="6.916198991239070892333984375">
        <ele>342.399993896484375</ele>
        <time>2013-09-01T16:38:10.000Z</time>
        <extensions>
          <ns3:TrackPointExtension>
            <ns3:atemp>16.0</ns3:atemp>
          </ns3:TrackPointExtension>
        </extensions>
      </trkpt>
      <trkpt lat="46.78832530975341796875" lon="6.9162092171609401702880859375">
        <ele>342.20001220703125</ele>
        <time>2013-09-01T16:38:11.000Z</time>
        <extensions>
          <ns3:TrackPointExtension>
            <ns3:atemp>16.0</ns3:atemp>
          </ns3:TrackPointExtension>
        </extensions>
      </trkpt>
      <trkpt lat="46.78839144296944141387939453125" lon="6.91621969453990459442138671875">
        <ele>342.20001220703125</ele>
        <time>2013-09-01T16:38:12.000Z</time>
        <extensions>
          <ns3:TrackPointExtension>
            <ns3:atemp>16.0</ns3:atemp>
          </ns3:TrackPointExtension>
        </extensions>
      </trkpt>
      <trkpt lat="46.7884562350809574127197265625" lon="6.91623151302337646484375">
        <ele>342.20001220703125</ele>
        <time>2013-09-01T16:38:13.000Z</time>
        <extensions>
          <ns3:TrackPointExtension>
            <ns3:atemp>16.0</ns3:atemp>
          </ns3:TrackPointExtension>
        </extensions>
      </trkpt>
      <trkpt lat="46.78852203302085399627685546875" lon="6.91625037230551242828369140625">
        <ele>342.20001220703125</ele>
        <time>2013-09-01T16:38:14.000Z</time>
        <extensions>
          <ns3:TrackPointExtension>
            <ns3:atemp>16.0</ns3:atemp>
          </ns3:TrackPointExtension>
        </extensions>
      </trkpt>
      <trkpt lat="46.78858724422752857208251953125" lon="6.9162665493786334991455078125">
        <ele>342.399993896484375</ele>
        <time>2013-09-01T16:38:15.000Z</time>
        <extensions>
          <ns3:TrackPointExtension>
            <ns3:atemp>16.0</ns3:atemp>
          </ns3:TrackPointExtension>
        </extensions>
      </trkpt>
      <trkpt lat="46.7886565625667572021484375" lon="6.9162816368043422698974609375">
        <ele>342.600006103515625</ele>
        <time>2013-09-01T16:38:16.000Z</time>
        <extensions>
          <ns3:TrackPointExtension>
            <ns3:atemp>16.0</ns3:atemp>
          </ns3:TrackPointExtension>
        </extensions>
      </trkpt>
      <trkpt lat="46.78872319869697093963623046875" lon="6.91630099900066852569580078125">
        <ele>342.79998779296875</ele>
        <time>2013-09-01T16:38:17.000Z</time>
        <extensions>
          <ns3:TrackPointExtension>
            <ns3:atemp>16.0</ns3:atemp>
          </ns3:TrackPointExtension>
        </extensions>
      </trkpt>
      <trkpt lat="46.7887871526181697845458984375" lon="6.9163262285292148590087890625">
        <ele>342.600006103515625</ele>
        <time>2013-09-01T16:38:18.000Z</time>
        <extensions>
          <ns3:TrackPointExtension>
            <ns3:atemp>16.0</ns3:atemp>
          </ns3:TrackPointExtension>
        </extensions>
      </trkpt>
      <trkpt lat="46.78885093890130519866943359375" lon="6.9163587503135204315185546875">
        <ele>342.399993896484375</ele>
        <time>2013-09-01T16:38:19.000Z</time>
        <extensions>
          <ns3:TrackPointExtension>
            <ns3:atemp>16.0</ns3:atemp>
          </ns3:TrackPointExtension>
        </extensions>
      </trkpt>
      <trkpt lat="46.78891447372734546661376953125" lon="6.91639336757361888885498046875">
        <ele>342.399993896484375</ele>
        <time>2013-09-01T16:38:20.000Z</time>
        <extensions>
          <ns3:TrackPointExtension>
            <ns3:atemp>16.0</ns3:atemp>
          </ns3:TrackPointExtension>
        </extensions>
      </trkpt>
      <trkpt lat="46.78898018784821033477783203125" lon="6.9164247997105121612548828125">
        <ele>342.399993896484375</ele>
        <time>2013-09-01T16:38:21.000Z</time>
        <extensions>
          <ns3:TrackPointExtension>
            <ns3:atemp>16.0</ns3:atemp>
          </ns3:TrackPointExtension>
        </extensions>
      </trkpt>
      <trkpt lat="46.78904347121715545654296875" lon="6.916453801095485687255859375">
        <ele>342.600006103515625</ele>
        <time>2013-09-01T16:38:22.000Z</time>
        <extensions>
          <ns3:TrackPointExtension>
            <ns3:atemp>16.0</ns3:atemp>
          </ns3:TrackPointExtension>
        </extensions>
      </trkpt>
      <trkpt lat="46.78910457529127597808837890625" lon="6.9164861552417278289794921875">
        <ele>342.79998779296875</ele>
        <time>2013-09-01T16:38:23.000Z</time>
        <extensions>
          <ns3:TrackPointExtension>
            <ns3:atemp>16.0</ns3:atemp>
          </ns3:TrackPointExtension>
        </extensions>
      </trkpt>
      <trkpt lat="46.7891623266041278839111328125" lon="6.916528902947902679443359375">
        <ele>343</ele>
        <time>2013-09-01T16:38:24.000Z</time>
        <extensions>
          <ns3:TrackPointExtension>
            <ns3:atemp>16.0</ns3:atemp>
          </ns3:TrackPointExtension>
        </extensions>
      </trkpt>
      <trkpt lat="46.78921856917440891265869140625" lon="6.9165654480457305908203125">
        <ele>343</ele>
        <time>2013-09-01T16:38:25.000Z</time>
        <extensions>
          <ns3:TrackPointExtension>
            <ns3:atemp>16.0</ns3:atemp>
          </ns3:TrackPointExtension>
        </extensions>
      </trkpt>
      <trkpt lat="46.78927506320178508758544921875" lon="6.9165998138487339019775390625">
        <ele>343</ele>
        <time>2013-09-01T16:38:26.000Z</time>
        <extensions>
          <ns3:TrackPointExtension>
            <ns3:atemp>16.0</ns3:atemp>
          </ns3:TrackPointExtension>
        </extensions>
      </trkpt>
      <trkpt lat="46.78933046758174896240234375" lon="6.91663778387010097503662109375">
        <ele>343.20001220703125</ele>
        <time>2013-09-01T16:38:27.000Z</time>
        <extensions>
          <ns3:TrackPointExtension>
            <ns3:atemp>16.0</ns3:atemp>
          </ns3:TrackPointExtension>
        </extensions>
      </trkpt>
      <trkpt lat="46.7893876321613788604736328125" lon="6.91667013801634311676025390625">
        <ele>343.20001220703125</ele>
        <time>2013-09-01T16:38:28.000Z</time>
        <extensions>
          <ns3:TrackPointExtension>
            <ns3:atemp>16.0</ns3:atemp>
          </ns3:TrackPointExtension>
        </extensions>
      </trkpt>
      <trkpt lat="46.7894432879984378814697265625" lon="6.916703917086124420166015625">
        <ele>343</ele>
        <time>2013-09-01T16:38:29.000Z</time>
        <extensions>
          <ns3:TrackPointExtension>
            <ns3:atemp>16.0</ns3:atemp>
          </ns3:TrackPointExtension>
        </extensions>
      </trkpt>
      <trkpt lat="46.789497435092926025390625" lon="6.9167449884116649627685546875">
        <ele>342.79998779296875</ele>
        <time>2013-09-01T16:38:30.000Z</time>
        <extensions>
          <ns3:TrackPointExtension>
            <ns3:atemp>16.0</ns3:atemp>
          </ns3:TrackPointExtension>
        </extensions>
      </trkpt>
      <trkpt lat="46.7895535938441753387451171875" lon="6.9167959503829479217529296875">
        <ele>342.79998779296875</ele>
        <time>2013-09-01T16:38:31.000Z</time>
        <extensions>
          <ns3:TrackPointExtension>
            <ns3:atemp>16.0</ns3:atemp>
          </ns3:TrackPointExtension>
        </extensions>
      </trkpt>
      <trkpt lat="46.78960765711963176727294921875" lon="6.91685353405773639678955078125">
        <ele>342.79998779296875</ele>
        <time>2013-09-01T16:38:32.000Z</time>
        <extensions>
          <ns3:TrackPointExtension>
            <ns3:atemp>16.0</ns3:atemp>
          </ns3:TrackPointExtension>
        </extensions>
      </trkpt>
      <trkpt lat="46.7896635644137859344482421875" lon="6.91691103391349315643310546875">
        <ele>342.79998779296875</ele>
        <time>2013-09-01T16:38:33.000Z</time>
        <extensions>
          <ns3:TrackPointExtension>
            <ns3:atemp>16.0</ns3:atemp>
          </ns3:TrackPointExtension>
        </extensions>
      </trkpt>
      <trkpt lat="46.7897195555269718170166015625" lon="6.91696853376924991607666015625">
        <ele>342.79998779296875</ele>
        <time>2013-09-01T16:38:34.000Z</time>
        <extensions>
          <ns3:TrackPointExtension>
            <ns3:atemp>16.0</ns3:atemp>
          </ns3:TrackPointExtension>
        </extensions>
      </trkpt>
      <trkpt lat="46.7897752113640308380126953125" lon="6.9170229323208332061767578125">
        <ele>342.79998779296875</ele>
        <time>2013-09-01T16:38:35.000Z</time>
        <extensions>
          <ns3:TrackPointExtension>
            <ns3:atemp>16.0</ns3:atemp>
          </ns3:TrackPointExtension>
        </extensions>
      </trkpt>
      <trkpt lat="46.78982726298272609710693359375" lon="6.91708118654787540435791015625">
        <ele>343</ele>
        <time>2013-09-01T16:38:36.000Z</time>
        <extensions>
          <ns3:TrackPointExtension>
            <ns3:atemp>16.0</ns3:atemp>
          </ns3:TrackPointExtension>
        </extensions>
      </trkpt>
      <trkpt lat="46.7898761294782161712646484375" lon="6.917143799364566802978515625">
        <ele>343.20001220703125</ele>
        <time>2013-09-01T16:38:37.000Z</time>
        <extensions>
          <ns3:TrackPointExtension>
            <ns3:atemp>16.0</ns3:atemp>
          </ns3:TrackPointExtension>
        </extensions>
      </trkpt>
      <trkpt lat="46.78992415778338909149169921875" lon="6.91720473580062389373779296875">
        <ele>343.20001220703125</ele>
        <time>2013-09-01T16:38:38.000Z</time>
        <extensions>
          <ns3:TrackPointExtension>
            <ns3:atemp>16.0</ns3:atemp>
          </ns3:TrackPointExtension>
        </extensions>
      </trkpt>
      <trkpt lat="46.78997218608856201171875" lon="6.9172663427889347076416015625">
        <ele>342.79998779296875</ele>
        <time>2013-09-01T16:38:39.000Z</time>
        <extensions>
          <ns3:TrackPointExtension>
            <ns3:atemp>16.0</ns3:atemp>
          </ns3:TrackPointExtension>
        </extensions>
      </trkpt>
      <trkpt lat="46.79002105258405208587646484375" lon="6.91732811741530895233154296875">
        <ele>342.600006103515625</ele>
        <time>2013-09-01T16:38:40.000Z</time>
        <extensions>
          <ns3:TrackPointExtension>
            <ns3:atemp>16.0</ns3:atemp>
          </ns3:TrackPointExtension>
        </extensions>
      </trkpt>
      <trkpt lat="46.79007000289857387542724609375" lon="6.91738821566104888916015625">
        <ele>342.600006103515625</ele>
        <time>2013-09-01T16:38:41.000Z</time>
        <extensions>
          <ns3:TrackPointExtension>
            <ns3:atemp>16.0</ns3:atemp>
          </ns3:TrackPointExtension>
        </extensions>
      </trkpt>
      <trkpt lat="46.7901178635656833648681640625" lon="6.9174494035542011260986328125">
        <ele>342.600006103515625</ele>
        <time>2013-09-01T16:38:42.000Z</time>
        <extensions>
          <ns3:TrackPointExtension>
            <ns3:atemp>16.0</ns3:atemp>
          </ns3:TrackPointExtension>
        </extensions>
      </trkpt>
      <trkpt lat="46.79016807116568088531494140625" lon="6.91750145517289638519287109375">
        <ele>342.399993896484375</ele>
        <time>2013-09-01T16:38:43.000Z</time>
        <extensions>
          <ns3:TrackPointExtension>
            <ns3:atemp>16.0</ns3:atemp>
          </ns3:TrackPointExtension>
        </extensions>
      </trkpt>
      <trkpt lat="46.79021827876567840576171875" lon="6.9175570271909236907958984375">
        <ele>342.600006103515625</ele>
        <time>2013-09-01T16:38:44.000Z</time>
        <extensions>
          <ns3:TrackPointExtension>
            <ns3:atemp>16.0</ns3:atemp>
          </ns3:TrackPointExtension>
        </extensions>
      </trkpt>
      <trkpt lat="46.79026513360440731048583984375" lon="6.91762232221662998199462890625">
        <ele>342.600006103515625</ele>
        <time>2013-09-01T16:38:45.000Z</time>
        <extensions>
          <ns3:TrackPointExtension>
            <ns3:atemp>16.0</ns3:atemp>
          </ns3:TrackPointExtension>
        </extensions>
      </trkpt>
      <trkpt lat="46.790311820805072784423828125" lon="6.9176861084997653961181640625">
        <ele>342.79998779296875</ele>
        <time>2013-09-01T16:38:46.000Z</time>
        <extensions>
          <ns3:TrackPointExtension>
            <ns3:atemp>16.0</ns3:atemp>
          </ns3:TrackPointExtension>
        </extensions>
      </trkpt>
      <trkpt lat="46.7903575859963893890380859375" lon="6.91774955950677394866943359375">
        <ele>342.600006103515625</ele>
        <time>2013-09-01T16:38:47.000Z</time>
        <extensions>
          <ns3:TrackPointExtension>
            <ns3:atemp>16.0</ns3:atemp>
          </ns3:TrackPointExtension>
        </extensions>
      </trkpt>
      <trkpt lat="46.79040335118770599365234375" lon="6.9178099930286407470703125">
        <ele>342.399993896484375</ele>
        <time>2013-09-01T16:38:48.000Z</time>
        <extensions>
          <ns3:TrackPointExtension>
            <ns3:atemp>16.0</ns3:atemp>
          </ns3:TrackPointExtension>
        </extensions>
      </trkpt>
      <trkpt lat="46.79045205004513263702392578125" lon="6.91786707378923892974853515625">
        <ele>342.399993896484375</ele>
        <time>2013-09-01T16:38:49.000Z</time>
        <extensions>
          <ns3:TrackPointExtension>
            <ns3:atemp>16.0</ns3:atemp>
          </ns3:TrackPointExtension>
        </extensions>
      </trkpt>
      <trkpt lat="46.7904984019696712493896484375" lon="6.9179234839975833892822265625">
        <ele>342.399993896484375</ele>
        <time>2013-09-01T16:38:50.000Z</time>
        <extensions>
          <ns3:TrackPointExtension>
            <ns3:atemp>16.0</ns3:atemp>
          </ns3:TrackPointExtension>
        </extensions>
      </trkpt>
      <trkpt lat="46.7905416525900363922119140625" lon="6.91797587089240550994873046875">
        <ele>342.20001220703125</ele>
        <time>2013-09-01T16:38:51.000Z</time>
        <extensions>
          <ns3:TrackPointExtension>
            <ns3:atemp>16.0</ns3:atemp>
          </ns3:TrackPointExtension>
        </extensions>
      </trkpt>
      <trkpt lat="46.79058515466749668121337890625" lon="6.91802616231143474578857421875">
        <ele>342</ele>
        <time>2013-09-01T16:38:52.000Z</time>
        <extensions>
          <ns3:TrackPointExtension>
            <ns3:atemp>16.0</ns3:atemp>
          </ns3:TrackPointExtension>
        </extensions>
      </trkpt>
      <trkpt lat="46.790631003677845001220703125" lon="6.9180783815681934356689453125">
        <ele>341.79998779296875</ele>
        <time>2013-09-01T16:38:53.000Z</time>
        <extensions>
          <ns3:TrackPointExtension>
            <ns3:atemp>16.0</ns3:atemp>
          </ns3:TrackPointExtension>
        </extensions>
      </trkpt>
      <trkpt lat="46.79067987017333507537841796875" lon="6.91812758333981037139892578125">
        <ele>341.600006103515625</ele>
        <time>2013-09-01T16:38:54.000Z</time>
        <extensions>
          <ns3:TrackPointExtension>
            <ns3:atemp>16.0</ns3:atemp>
          </ns3:TrackPointExtension>
        </extensions>
      </trkpt>
      <trkpt lat="46.79073133505880832672119140625" lon="6.9181809760630130767822265625">
        <ele>341.79998779296875</ele>
        <time>2013-09-01T16:38:55.000Z</time>
        <extensions>
          <ns3:TrackPointExtension>
            <ns3:atemp>16.0</ns3:atemp>
          </ns3:TrackPointExtension>
        </extensions>
      </trkpt>
      <trkpt lat="46.7907833866775035858154296875" lon="6.91823168657720088958740234375">
        <ele>342.20001220703125</ele>
        <time>2013-09-01T16:38:56.000Z</time>
        <extensions>
          <ns3:TrackPointExtension>
            <ns3:atemp>16.0</ns3:atemp>
          </ns3:TrackPointExtension>
        </extensions>
      </trkpt>
      <trkpt lat="46.790842227637767791748046875" lon="6.9182775355875492095947265625">
        <ele>342.399993896484375</ele>
        <time>2013-09-01T16:38:57.000Z</time>
        <extensions>
          <ns3:TrackPointExtension>
            <ns3:atemp>16.0</ns3:atemp>
          </ns3:TrackPointExtension>
        </extensions>
      </trkpt>
      <trkpt lat="46.79090559482574462890625" lon="6.91832036711275577545166015625">
        <ele>342.399993896484375</ele>
        <time>2013-09-01T16:38:58.000Z</time>
        <extensions>
          <ns3:TrackPointExtension>
            <ns3:atemp>16.0</ns3:atemp>
          </ns3:TrackPointExtension>
        </extensions>
      </trkpt>
      <trkpt lat="46.7909686267375946044921875" lon="6.9183580018579959869384765625">
        <ele>342.399993896484375</ele>
        <time>2013-09-01T16:38:59.000Z</time>
        <extensions>
          <ns3:TrackPointExtension>
            <ns3:atemp>16.0</ns3:atemp>
          </ns3:TrackPointExtension>
        </extensions>
      </trkpt>
      <trkpt lat="46.79103174246847629547119140625" lon="6.91839127801358699798583984375">
        <ele>342.399993896484375</ele>
        <time>2013-09-01T16:39:00.000Z</time>
        <extensions>
          <ns3:TrackPointExtension>
            <ns3:atemp>16.0</ns3:atemp>
          </ns3:TrackPointExtension>
        </extensions>
      </trkpt>
      <trkpt lat="46.79109645076096057891845703125" lon="6.91842597909271717071533203125">
        <ele>342.399993896484375</ele>
        <time>2013-09-01T16:39:01.000Z</time>
        <extensions>
          <ns3:TrackPointExtension>
            <ns3:atemp>16.0</ns3:atemp>
          </ns3:TrackPointExtension>
        </extensions>
      </trkpt>
      <trkpt lat="46.79116115905344486236572265625" lon="6.91846369765698909759521484375">
        <ele>342.399993896484375</ele>
        <time>2013-09-01T16:39:02.000Z</time>
        <extensions>
          <ns3:TrackPointExtension>
            <ns3:atemp>16.0</ns3:atemp>
          </ns3:TrackPointExtension>
        </extensions>
      </trkpt>
      <trkpt lat="46.7912249453365802764892578125" lon="6.9185020029544830322265625">
        <ele>342.20001220703125</ele>
        <time>2013-09-01T16:39:03.000Z</time>
        <extensions>
          <ns3:TrackPointExtension>
            <ns3:atemp>16.0</ns3:atemp>
          </ns3:TrackPointExtension>
        </extensions>
      </trkpt>
      <trkpt lat="46.7912869714200496673583984375" lon="6.9185397215187549591064453125">
        <ele>342.20001220703125</ele>
        <time>2013-09-01T16:39:04.000Z</time>
        <extensions>
          <ns3:TrackPointExtension>
            <ns3:atemp>16.0</ns3:atemp>
          </ns3:TrackPointExtension>
        </extensions>
      </trkpt>
      <trkpt lat="46.79135176353156566619873046875" lon="6.91857333295047283172607421875">
        <ele>342</ele>
        <time>2013-09-01T16:39:05.000Z</time>
        <extensions>
          <ns3:TrackPointExtension>
            <ns3:atemp>16.0</ns3:atemp>
          </ns3:TrackPointExtension>
        </extensions>
      </trkpt>
      <trkpt lat="46.79141529835760593414306640625" lon="6.91860317252576351165771484375">
        <ele>342</ele>
        <time>2013-09-01T16:39:06.000Z</time>
        <extensions>
          <ns3:TrackPointExtension>
            <ns3:atemp>16.0</ns3:atemp>
          </ns3:TrackPointExtension>
        </extensions>
      </trkpt>
      <trkpt lat="46.79148000665009021759033203125" lon="6.91862739622592926025390625">
        <ele>342</ele>
        <time>2013-09-01T16:39:07.000Z</time>
        <extensions>
          <ns3:TrackPointExtension>
            <ns3:atemp>16.0</ns3:atemp>
          </ns3:TrackPointExtension>
        </extensions>
      </trkpt>
      <trkpt lat="46.79154622368514537811279296875" lon="6.91864642314612865447998046875">
        <ele>342.20001220703125</ele>
        <time>2013-09-01T16:39:08.000Z</time>
        <extensions>
          <ns3:TrackPointExtension>
            <ns3:atemp>16.0</ns3:atemp>
          </ns3:TrackPointExtension>
        </extensions>
      </trkpt>
      <trkpt lat="46.79161244072020053863525390625" lon="6.91867022775113582611083984375">
        <ele>342</ele>
        <time>2013-09-01T16:39:09.000Z</time>
        <extensions>
          <ns3:TrackPointExtension>
            <ns3:atemp>16.0</ns3:atemp>
          </ns3:TrackPointExtension>
        </extensions>
      </trkpt>
      <trkpt lat="46.79167798720300197601318359375" lon="6.91869637928903102874755859375">
        <ele>342</ele>
        <time>2013-09-01T16:39:10.000Z</time>
        <extensions>
          <ns3:TrackPointExtension>
            <ns3:atemp>16.0</ns3:atemp>
          </ns3:TrackPointExtension>
        </extensions>
      </trkpt>
      <trkpt lat="46.79174420423805713653564453125" lon="6.91872705705463886260986328125">
        <ele>341.79998779296875</ele>
        <time>2013-09-01T16:39:11.000Z</time>
        <extensions>
          <ns3:TrackPointExtension>
            <ns3:atemp>16.0</ns3:atemp>
          </ns3:TrackPointExtension>
        </extensions>
      </trkpt>
      <trkpt lat="46.79181092418730258941650390625" lon="6.918749101459980010986328125">
        <ele>341.79998779296875</ele>
        <time>2013-09-01T16:39:12.000Z</time>
        <extensions>
          <ns3:TrackPointExtension>
            <ns3:atemp>16.0</ns3:atemp>
          </ns3:TrackPointExtension>
        </extensions>
      </trkpt>
      <trkpt lat="46.7918757162988185882568359375" lon="6.91876812838017940521240234375">
        <ele>341.79998779296875</ele>
        <time>2013-09-01T16:39:13.000Z</time>
        <extensions>
          <ns3:TrackPointExtension>
            <ns3:atemp>16.0</ns3:atemp>
          </ns3:TrackPointExtension>
        </extensions>
      </trkpt>
      <trkpt lat="46.791938580572605133056640625" lon="6.91879360936582088470458984375">
        <ele>341.79998779296875</ele>
        <time>2013-09-01T16:39:14.000Z</time>
        <extensions>
          <ns3:TrackPointExtension>
            <ns3:atemp>16.0</ns3:atemp>
          </ns3:TrackPointExtension>
        </extensions>
      </trkpt>
      <trkpt lat="46.79200337268412113189697265625" lon="6.91882722079753875732421875">
        <ele>341.79998779296875</ele>
        <time>2013-09-01T16:39:15.000Z</time>
        <extensions>
          <ns3:TrackPointExtension>
            <ns3:atemp>16.0</ns3:atemp>
          </ns3:TrackPointExtension>
        </extensions>
      </trkpt>
      <trkpt lat="46.79206690751016139984130859375" lon="6.9188587367534637451171875">
        <ele>341.600006103515625</ele>
        <time>2013-09-01T16:39:16.000Z</time>
        <extensions>
          <ns3:TrackPointExtension>
            <ns3:atemp>16.0</ns3:atemp>
          </ns3:TrackPointExtension>
        </extensions>
      </trkpt>
      <trkpt lat="46.792131699621677398681640625" lon="6.91888488829135894775390625">
        <ele>341.600006103515625</ele>
        <time>2013-09-01T16:39:17.000Z</time>
        <extensions>
          <ns3:TrackPointExtension>
            <ns3:atemp>16.0</ns3:atemp>
          </ns3:TrackPointExtension>
        </extensions>
      </trkpt>
      <trkpt lat="46.7921945638954639434814453125" lon="6.918911375105381011962890625">
        <ele>341.399993896484375</ele>
        <time>2013-09-01T16:39:18.000Z</time>
        <extensions>
          <ns3:TrackPointExtension>
            <ns3:atemp>16.0</ns3:atemp>
          </ns3:TrackPointExtension>
        </extensions>
      </trkpt>
      <trkpt lat="46.79225717671215534210205078125" lon="6.91894230432808399200439453125">
        <ele>341.399993896484375</ele>
        <time>2013-09-01T16:39:19.000Z</time>
        <extensions>
          <ns3:TrackPointExtension>
            <ns3:atemp>16.0</ns3:atemp>
          </ns3:TrackPointExtension>
        </extensions>
      </trkpt>
      <trkpt lat="46.79231844842433929443359375" lon="6.91897633485496044158935546875">
        <ele>341.399993896484375</ele>
        <time>2013-09-01T16:39:20.000Z</time>
        <extensions>
          <ns3:TrackPointExtension>
            <ns3:atemp>16.0</ns3:atemp>
          </ns3:TrackPointExtension>
        </extensions>
      </trkpt>
      <trkpt lat="46.79238005541265010833740234375" lon="6.9190084375441074371337890625">
        <ele>341.399993896484375</ele>
        <time>2013-09-01T16:39:21.000Z</time>
        <extensions>
          <ns3:TrackPointExtension>
            <ns3:atemp>16.0</ns3:atemp>
          </ns3:TrackPointExtension>
        </extensions>
      </trkpt>
      <trkpt lat="46.79244241677224636077880859375" lon="6.91903836093842983245849609375">
        <ele>341.399993896484375</ele>
        <time>2013-09-01T16:39:22.000Z</time>
        <extensions>
          <ns3:TrackPointExtension>
            <ns3:atemp>16.0</ns3:atemp>
          </ns3:TrackPointExtension>
        </extensions>
      </trkpt>
      <trkpt lat="46.792503185570240020751953125" lon="6.9190706312656402587890625">
        <ele>341.399993896484375</ele>
        <time>2013-09-01T16:39:23.000Z</time>
        <extensions>
          <ns3:TrackPointExtension>
            <ns3:atemp>16.0</ns3:atemp>
          </ns3:TrackPointExtension>
        </extensions>
      </trkpt>
      <trkpt lat="46.7925653792917728424072265625" lon="6.919105164706707000732421875">
        <ele>341.600006103515625</ele>
        <time>2013-09-01T16:39:24.000Z</time>
        <extensions>
          <ns3:TrackPointExtension>
            <ns3:atemp>16.0</ns3:atemp>
          </ns3:TrackPointExtension>
        </extensions>
      </trkpt>
      <trkpt lat="46.79262824356555938720703125" lon="6.91914263181388378143310546875">
        <ele>341.600006103515625</ele>
        <time>2013-09-01T16:39:25.000Z</time>
        <extensions>
          <ns3:TrackPointExtension>
            <ns3:atemp>16.0</ns3:atemp>
          </ns3:TrackPointExtension>
        </extensions>
      </trkpt>
      <trkpt lat="46.79269052110612392425537109375" lon="6.91917917691171169281005859375">
        <ele>341.600006103515625</ele>
        <time>2013-09-01T16:39:26.000Z</time>
        <extensions>
          <ns3:TrackPointExtension>
            <ns3:atemp>16.0</ns3:atemp>
          </ns3:TrackPointExtension>
        </extensions>
      </trkpt>
      <trkpt lat="46.792753301560878753662109375" lon="6.919207759201526641845703125">
        <ele>341.600006103515625</ele>
        <time>2013-09-01T16:39:27.000Z</time>
        <extensions>
          <ns3:TrackPointExtension>
            <ns3:atemp>16.0</ns3:atemp>
          </ns3:TrackPointExtension>
        </extensions>
      </trkpt>
      <trkpt lat="46.7928161658346652984619140625" lon="6.919234581291675567626953125">
        <ele>341.600006103515625</ele>
        <time>2013-09-01T16:39:28.000Z</time>
        <extensions>
          <ns3:TrackPointExtension>
            <ns3:atemp>16.0</ns3:atemp>
          </ns3:TrackPointExtension>
        </extensions>
      </trkpt>
      <trkpt lat="46.792876012623310089111328125" lon="6.919268779456615447998046875">
        <ele>341.399993896484375</ele>
        <time>2013-09-01T16:39:29.000Z</time>
        <extensions>
          <ns3:TrackPointExtension>
            <ns3:atemp>16.0</ns3:atemp>
          </ns3:TrackPointExtension>
        </extensions>
      </trkpt>
      <trkpt lat="46.792933680117130279541015625" lon="6.91931311972439289093017578125">
        <ele>341.600006103515625</ele>
        <time>2013-09-01T16:39:30.000Z</time>
        <extensions>
          <ns3:TrackPointExtension>
            <ns3:atemp>16.0</ns3:atemp>
          </ns3:TrackPointExtension>
        </extensions>
      </trkpt>
      <trkpt lat="46.79299226962029933929443359375" lon="6.91935452632606029510498046875">
        <ele>341.600006103515625</ele>
        <time>2013-09-01T16:39:31.000Z</time>
        <extensions>
          <ns3:TrackPointExtension>
            <ns3:atemp>16.0</ns3:atemp>
          </ns3:TrackPointExtension>
        </extensions>
      </trkpt>
      <trkpt lat="46.79305337369441986083984375" lon="6.9193936698138713836669921875">
        <ele>341.399993896484375</ele>
        <time>2013-09-01T16:39:32.000Z</time>
        <extensions>
          <ns3:TrackPointExtension>
            <ns3:atemp>16.0</ns3:atemp>
          </ns3:TrackPointExtension>
        </extensions>
      </trkpt>
      <trkpt lat="46.7931172437965869903564453125" lon="6.91942191682755947113037109375">
        <ele>341.399993896484375</ele>
        <time>2013-09-01T16:39:33.000Z</time>
        <extensions>
          <ns3:TrackPointExtension>
            <ns3:atemp>16.0</ns3:atemp>
          </ns3:TrackPointExtension>
        </extensions>
      </trkpt>
      <trkpt lat="46.793177425861358642578125" lon="6.91945510916411876678466796875">
        <ele>341.20001220703125</ele>
        <time>2013-09-01T16:39:34.000Z</time>
        <extensions>
          <ns3:TrackPointExtension>
            <ns3:atemp>16.0</ns3:atemp>
          </ns3:TrackPointExtension>
        </extensions>
      </trkpt>
      <trkpt lat="46.79323576390743255615234375" lon="6.91950204782187938690185546875">
        <ele>341.600006103515625</ele>
        <time>2013-09-01T16:39:35.000Z</time>
        <extensions>
          <ns3:TrackPointExtension>
            <ns3:atemp>16.0</ns3:atemp>
          </ns3:TrackPointExtension>
        </extensions>
      </trkpt>
      <trkpt lat="46.79329519160091876983642578125" lon="6.91954932175576686859130859375">
        <ele>341.399993896484375</ele>
        <time>2013-09-01T16:39:36.000Z</time>
        <extensions>
          <ns3:TrackPointExtension>
            <ns3:atemp>16.0</ns3:atemp>
          </ns3:TrackPointExtension>
        </extensions>
      </trkpt>
      <trkpt lat="46.79335520602762699127197265625" lon="6.919587962329387664794921875">
        <ele>341.20001220703125</ele>
        <time>2013-09-01T16:39:37.000Z</time>
        <extensions>
          <ns3:TrackPointExtension>
            <ns3:atemp>16.0</ns3:atemp>
          </ns3:TrackPointExtension>
        </extensions>
      </trkpt>
      <trkpt lat="46.79341505281627178192138671875" lon="6.91961637698113918304443359375">
        <ele>341</ele>
        <time>2013-09-01T16:39:38.000Z</time>
        <extensions>
          <ns3:TrackPointExtension>
            <ns3:atemp>16.0</ns3:atemp>
          </ns3:TrackPointExtension>
        </extensions>
      </trkpt>
      <trkpt lat="46.7934716306626796722412109375" lon="6.9196528382599353790283203125">
        <ele>341</ele>
        <time>2013-09-01T16:39:39.000Z</time>
        <extensions>
          <ns3:TrackPointExtension>
            <ns3:atemp>16.0</ns3:atemp>
          </ns3:TrackPointExtension>
        </extensions>
      </trkpt>
      <trkpt lat="46.7935246042907238006591796875" lon="6.91970069892704486846923828125">
        <ele>341</ele>
        <time>2013-09-01T16:39:40.000Z</time>
        <extensions>
          <ns3:TrackPointExtension>
            <ns3:atemp>16.0</ns3:atemp>
          </ns3:TrackPointExtension>
        </extensions>
      </trkpt>
      <trkpt lat="46.79357967339456081390380859375" lon="6.91974453628063201904296875">
        <ele>340.79998779296875</ele>
        <time>2013-09-01T16:39:41.000Z</time>
        <extensions>
          <ns3:TrackPointExtension>
            <ns3:atemp>16.0</ns3:atemp>
          </ns3:TrackPointExtension>
        </extensions>
      </trkpt>
      <trkpt lat="46.793635077774524688720703125" lon="6.91978150047361850738525390625">
        <ele>340.79998779296875</ele>
        <time>2013-09-01T16:39:42.000Z</time>
        <extensions>
          <ns3:TrackPointExtension>
            <ns3:atemp>16.0</ns3:atemp>
          </ns3:TrackPointExtension>
        </extensions>
      </trkpt>
      <trkpt lat="46.7936892248690128326416015625" lon="6.9198177941143512725830078125">
        <ele>340.79998779296875</ele>
        <time>2013-09-01T16:39:43.000Z</time>
        <extensions>
          <ns3:TrackPointExtension>
            <ns3:atemp>16.0</ns3:atemp>
          </ns3:TrackPointExtension>
        </extensions>
      </trkpt>
      <trkpt lat="46.79374144412577152252197265625" lon="6.91985375247895717620849609375">
        <ele>341.20001220703125</ele>
        <time>2013-09-01T16:39:44.000Z</time>
        <extensions>
          <ns3:TrackPointExtension>
            <ns3:atemp>16.0</ns3:atemp>
          </ns3:TrackPointExtension>
        </extensions>
      </trkpt>
      <trkpt lat="46.79379223845899105072021484375" lon="6.9198835082352161407470703125">
        <ele>341.20001220703125</ele>
        <time>2013-09-01T16:39:45.000Z</time>
        <extensions>
          <ns3:TrackPointExtension>
            <ns3:atemp>16.0</ns3:atemp>
          </ns3:TrackPointExtension>
        </extensions>
      </trkpt>
      <trkpt lat="46.793844960629940032958984375" lon="6.9198982603847980499267578125">
        <ele>341.399993896484375</ele>
        <time>2013-09-01T16:39:46.000Z</time>
        <extensions>
          <ns3:TrackPointExtension>
            <ns3:atemp>16.0</ns3:atemp>
          </ns3:TrackPointExtension>
        </extensions>
      </trkpt>
      <trkpt lat="46.79389533586800098419189453125" lon="6.91990773193538188934326171875">
        <ele>341.20001220703125</ele>
        <time>2013-09-01T16:39:47.000Z</time>
        <extensions>
          <ns3:TrackPointExtension>
            <ns3:atemp>16.0</ns3:atemp>
          </ns3:TrackPointExtension>
        </extensions>
      </trkpt>
      <trkpt lat="46.79394059814512729644775390625" lon="6.9199170358479022979736328125">
        <ele>341</ele>
        <time>2013-09-01T16:39:48.000Z</time>
        <extensions>
          <ns3:TrackPointExtension>
            <ns3:atemp>16.0</ns3:atemp>
          </ns3:TrackPointExtension>
        </extensions>
      </trkpt>
      <trkpt lat="46.7939839325845241546630859375" lon="6.91992181353271007537841796875">
        <ele>340.79998779296875</ele>
        <time>2013-09-01T16:39:49.000Z</time>
        <extensions>
          <ns3:TrackPointExtension>
            <ns3:atemp>16.0</ns3:atemp>
          </ns3:TrackPointExtension>
        </extensions>
      </trkpt>
      <trkpt lat="46.79402492009103298187255859375" lon="6.9199063070118427276611328125">
        <ele>340.600006103515625</ele>
        <time>2013-09-01T16:39:50.000Z</time>
        <extensions>
          <ns3:TrackPointExtension>
            <ns3:atemp>16.0</ns3:atemp>
          </ns3:TrackPointExtension>
        </extensions>
      </trkpt>
      <trkpt lat="46.794062890112400054931640625" lon="6.91986364312469959259033203125">
        <ele>340.399993896484375</ele>
        <time>2013-09-01T16:39:51.000Z</time>
        <extensions>
          <ns3:TrackPointExtension>
            <ns3:atemp>16.0</ns3:atemp>
          </ns3:TrackPointExtension>
        </extensions>
      </trkpt>
      <trkpt lat="46.794091723859310150146484375" lon="6.9198027066886425018310546875">
        <ele>340.20001220703125</ele>
        <time>2013-09-01T16:39:52.000Z</time>
        <extensions>
          <ns3:TrackPointExtension>
            <ns3:atemp>16.0</ns3:atemp>
          </ns3:TrackPointExtension>
        </extensions>
      </trkpt>
      <trkpt lat="46.7941180430352687835693359375" lon="6.91973271779716014862060546875">
        <ele>339.79998779296875</ele>
        <time>2013-09-01T16:39:53.000Z</time>
        <extensions>
          <ns3:TrackPointExtension>
            <ns3:atemp>16.0</ns3:atemp>
          </ns3:TrackPointExtension>
        </extensions>
      </trkpt>
      <trkpt lat="46.7941465415060520172119140625" lon="6.91966230981051921844482421875">
        <ele>339.600006103515625</ele>
        <time>2013-09-01T16:39:54.000Z</time>
        <extensions>
          <ns3:TrackPointExtension>
            <ns3:atemp>16.0</ns3:atemp>
          </ns3:TrackPointExtension>
        </extensions>
      </trkpt>
      <trkpt lat="46.79417277686297893524169921875" lon="6.91958787851035594940185546875">
        <ele>339.600006103515625</ele>
        <time>2013-09-01T16:39:55.000Z</time>
        <extensions>
          <ns3:TrackPointExtension>
            <ns3:atemp>16.0</ns3:atemp>
          </ns3:TrackPointExtension>
        </extensions>
      </trkpt>
      <trkpt lat="46.7942005209624767303466796875" lon="6.9195090048015117645263671875">
        <ele>339.600006103515625</ele>
        <time>2013-09-01T16:39:56.000Z</time>
        <extensions>
          <ns3:TrackPointExtension>
            <ns3:atemp>16.0</ns3:atemp>
          </ns3:TrackPointExtension>
        </extensions>
      </trkpt>
      <trkpt lat="46.7942283488810062408447265625" lon="6.91942845471203327178955078125">
        <ele>339.79998779296875</ele>
        <time>2013-09-01T16:39:57.000Z</time>
        <extensions>
          <ns3:TrackPointExtension>
            <ns3:atemp>16.0</ns3:atemp>
          </ns3:TrackPointExtension>
        </extensions>
      </trkpt>
      <trkpt lat="46.7942570149898529052734375" lon="6.919348575174808502197265625">
        <ele>340</ele>
        <time>2013-09-01T16:39:58.000Z</time>
        <extensions>
          <ns3:TrackPointExtension>
            <ns3:atemp>16.0</ns3:atemp>
          </ns3:TrackPointExtension>
        </extensions>
      </trkpt>
      <trkpt lat="46.79428559727966785430908203125" lon="6.91926844418048858642578125">
        <ele>340.399993896484375</ele>
        <time>2013-09-01T16:39:59.000Z</time>
        <extensions>
          <ns3:TrackPointExtension>
            <ns3:atemp>16.0</ns3:atemp>
          </ns3:TrackPointExtension>
        </extensions>
      </trkpt>
      <trkpt lat="46.79431401193141937255859375" lon="6.9191886484622955322265625">
        <ele>340.600006103515625</ele>
        <time>2013-09-01T16:40:00.000Z</time>
        <extensions>
          <ns3:TrackPointExtension>
            <ns3:atemp>16.0</ns3:atemp>
          </ns3:TrackPointExtension>
        </extensions>
      </trkpt>
      <trkpt lat="46.794341169297695159912109375" lon="6.9191086851060390472412109375">
        <ele>340.600006103515625</ele>
        <time>2013-09-01T16:40:01.000Z</time>
        <extensions>
          <ns3:TrackPointExtension>
            <ns3:atemp>16.0</ns3:atemp>
          </ns3:TrackPointExtension>
        </extensions>
      </trkpt>
      <trkpt lat="46.79436673410236835479736328125" lon="6.91902880556881427764892578125">
        <ele>340.399993896484375</ele>
        <time>2013-09-01T16:40:02.000Z</time>
        <extensions>
          <ns3:TrackPointExtension>
            <ns3:atemp>16.0</ns3:atemp>
          </ns3:TrackPointExtension>
        </extensions>
      </trkpt>
      <trkpt lat="46.7943926341831684112548828125" lon="6.91894917748868465423583984375">
        <ele>340.20001220703125</ele>
        <time>2013-09-01T16:40:03.000Z</time>
        <extensions>
          <ns3:TrackPointExtension>
            <ns3:atemp>16.0</ns3:atemp>
          </ns3:TrackPointExtension>
        </extensions>
      </trkpt>
      <trkpt lat="46.79441995918750762939453125" lon="6.91887189634144306182861328125">
        <ele>340</ele>
        <time>2013-09-01T16:40:04.000Z</time>
        <extensions>
          <ns3:TrackPointExtension>
            <ns3:atemp>16.0</ns3:atemp>
          </ns3:TrackPointExtension>
        </extensions>
      </trkpt>
      <trkpt lat="46.79444619454443454742431640625" lon="6.91879528574645519256591796875">
        <ele>340</ele>
        <time>2013-09-01T16:40:05.000Z</time>
        <extensions>
          <ns3:TrackPointExtension>
            <ns3:atemp>16.0</ns3:atemp>
          </ns3:TrackPointExtension>
        </extensions>
      </trkpt>
      <trkpt lat="46.794473268091678619384765625" lon="6.91871901042759418487548828125">
        <ele>340</ele>
        <time>2013-09-01T16:40:06.000Z</time>
        <extensions>
          <ns3:TrackPointExtension>
            <ns3:atemp>16.0</ns3:atemp>
          </ns3:TrackPointExtension>
        </extensions>
      </trkpt>
      <trkpt lat="46.7945019342005252838134765625" lon="6.9186443276703357696533203125">
        <ele>340.20001220703125</ele>
        <time>2013-09-01T16:40:07.000Z</time>
        <extensions>
          <ns3:TrackPointExtension>
            <ns3:atemp>16.0</ns3:atemp>
          </ns3:TrackPointExtension>
        </extensions>
      </trkpt>
      <trkpt lat="46.79452850483357906341552734375" lon="6.91857065074145793914794921875">
        <ele>340.399993896484375</ele>
        <time>2013-09-01T16:40:08.000Z</time>
        <extensions>
          <ns3:TrackPointExtension>
            <ns3:atemp>16.0</ns3:atemp>
          </ns3:TrackPointExtension>
        </extensions>
      </trkpt>
      <trkpt lat="46.794554404914379119873046875" lon="6.91849596798419952392578125">
        <ele>340.600006103515625</ele>
        <time>2013-09-01T16:40:09.000Z</time>
        <extensions>
          <ns3:TrackPointExtension>
            <ns3:atemp>16.0</ns3:atemp>
          </ns3:TrackPointExtension>
        </extensions>
      </trkpt>
      <trkpt lat="46.794580556452274322509765625" lon="6.918421201407909393310546875">
        <ele>340.399993896484375</ele>
        <time>2013-09-01T16:40:10.000Z</time>
        <extensions>
          <ns3:TrackPointExtension>
            <ns3:atemp>16.0</ns3:atemp>
          </ns3:TrackPointExtension>
        </extensions>
      </trkpt>
      <trkpt lat="46.794607378542423248291015625" lon="6.9183476082980632781982421875">
        <ele>340.600006103515625</ele>
        <time>2013-09-01T16:40:11.000Z</time>
        <extensions>
          <ns3:TrackPointExtension>
            <ns3:atemp>16.0</ns3:atemp>
          </ns3:TrackPointExtension>
        </extensions>
      </trkpt>
      <trkpt lat="46.79463244043290615081787109375" lon="6.9182735122740268707275390625">
        <ele>340.600006103515625</ele>
        <time>2013-09-01T16:40:12.000Z</time>
        <extensions>
          <ns3:TrackPointExtension>
            <ns3:atemp>16.0</ns3:atemp>
          </ns3:TrackPointExtension>
        </extensions>
      </trkpt>
      <trkpt lat="46.79465725086629390716552734375" lon="6.91820050589740276336669921875">
        <ele>340.79998779296875</ele>
        <time>2013-09-01T16:40:13.000Z</time>
        <extensions>
          <ns3:TrackPointExtension>
            <ns3:atemp>16.0</ns3:atemp>
          </ns3:TrackPointExtension>
        </extensions>
      </trkpt>
      <trkpt lat="46.79468407295644283294677734375" lon="6.91812858916819095611572265625">
        <ele>340.79998779296875</ele>
        <time>2013-09-01T16:40:14.000Z</time>
        <extensions>
          <ns3:TrackPointExtension>
            <ns3:atemp>16.0</ns3:atemp>
          </ns3:TrackPointExtension>
        </extensions>
      </trkpt>
      <trkpt lat="46.794711984694004058837890625" lon="6.9180549122393131256103515625">
        <ele>341</ele>
        <time>2013-09-01T16:40:15.000Z</time>
        <extensions>
          <ns3:TrackPointExtension>
            <ns3:atemp>16.0</ns3:atemp>
          </ns3:TrackPointExtension>
        </extensions>
      </trkpt>
      <trkpt lat="46.7947398126125335693359375" lon="6.91798207350075244903564453125">
        <ele>341</ele>
        <time>2013-09-01T16:40:16.000Z</time>
        <extensions>
          <ns3:TrackPointExtension>
            <ns3:atemp>16.0</ns3:atemp>
          </ns3:TrackPointExtension>
        </extensions>
      </trkpt>
      <trkpt lat="46.794765628874301910400390625" lon="6.917907893657684326171875">
        <ele>341</ele>
        <time>2013-09-01T16:40:17.000Z</time>
        <extensions>
          <ns3:TrackPointExtension>
            <ns3:atemp>16.0</ns3:atemp>
          </ns3:TrackPointExtension>
        </extensions>
      </trkpt>
      <trkpt lat="46.7947912774980068206787109375" lon="6.91783321090042591094970703125">
        <ele>341.20001220703125</ele>
        <time>2013-09-01T16:40:18.000Z</time>
        <extensions>
          <ns3:TrackPointExtension>
            <ns3:atemp>16.0</ns3:atemp>
          </ns3:TrackPointExtension>
        </extensions>
      </trkpt>
      <trkpt lat="46.79481768049299716949462890625" lon="6.917759366333484649658203125">
        <ele>341</ele>
        <time>2013-09-01T16:40:19.000Z</time>
        <extensions>
          <ns3:TrackPointExtension>
            <ns3:atemp>16.0</ns3:atemp>
          </ns3:TrackPointExtension>
        </extensions>
      </trkpt>
      <trkpt lat="46.79484374821186065673828125" lon="6.9176866114139556884765625">
        <ele>341.20001220703125</ele>
        <time>2013-09-01T16:40:20.000Z</time>
        <extensions>
          <ns3:TrackPointExtension>
            <ns3:atemp>16.0</ns3:atemp>
          </ns3:TrackPointExtension>
        </extensions>
      </trkpt>
      <trkpt lat="46.79486914537847042083740234375" lon="6.91761310212314128875732421875">
        <ele>341.20001220703125</ele>
        <time>2013-09-01T16:40:21.000Z</time>
        <extensions>
          <ns3:TrackPointExtension>
            <ns3:atemp>16.0</ns3:atemp>
          </ns3:TrackPointExtension>
        </extensions>
      </trkpt>
      <trkpt lat="46.79489445872604846954345703125" lon="6.91753976047039031982421875">
        <ele>341.399993896484375</ele>
        <time>2013-09-01T16:40:22.000Z</time>
        <extensions>
          <ns3:TrackPointExtension>
            <ns3:atemp>16.0</ns3:atemp>
          </ns3:TrackPointExtension>
        </extensions>
      </trkpt>
      <trkpt lat="46.79491943679749965667724609375" lon="6.91746641881763935089111328125">
        <ele>341.399993896484375</ele>
        <time>2013-09-01T16:40:23.000Z</time>
        <extensions>
          <ns3:TrackPointExtension>
            <ns3:atemp>16.0</ns3:atemp>
          </ns3:TrackPointExtension>
        </extensions>
      </trkpt>
      <trkpt lat="46.79494525305926799774169921875" lon="6.9173930771648883819580078125">
        <ele>341.399993896484375</ele>
        <time>2013-09-01T16:40:24.000Z</time>
        <extensions>
          <ns3:TrackPointExtension>
            <ns3:atemp>16.0</ns3:atemp>
          </ns3:TrackPointExtension>
        </extensions>
      </trkpt>
      <trkpt lat="46.7949723266065120697021484375" lon="6.91732057370245456695556640625">
        <ele>341.399993896484375</ele>
        <time>2013-09-01T16:40:25.000Z</time>
        <extensions>
          <ns3:TrackPointExtension>
            <ns3:atemp>16.0</ns3:atemp>
          </ns3:TrackPointExtension>
        </extensions>
      </trkpt>
      <trkpt lat="46.79499822668731212615966796875" lon="6.91724429838359355926513671875">
        <ele>341.600006103515625</ele>
        <time>2013-09-01T16:40:26.000Z</time>
        <extensions>
          <ns3:TrackPointExtension>
            <ns3:atemp>16.0</ns3:atemp>
          </ns3:TrackPointExtension>
        </extensions>
      </trkpt>
      <trkpt lat="46.79502538405358791351318359375" lon="6.91716902889311313629150390625">
        <ele>341.20001220703125</ele>
        <time>2013-09-01T16:40:27.000Z</time>
        <extensions>
          <ns3:TrackPointExtension>
            <ns3:atemp>16.0</ns3:atemp>
          </ns3:TrackPointExtension>
        </extensions>
      </trkpt>
      <trkpt lat="46.7950536310672760009765625" lon="6.91709660924971103668212890625">
        <ele>341.20001220703125</ele>
        <time>2013-09-01T16:40:28.000Z</time>
        <extensions>
          <ns3:TrackPointExtension>
            <ns3:atemp>16.0</ns3:atemp>
          </ns3:TrackPointExtension>
        </extensions>
      </trkpt>
      <trkpt lat="46.7950809560716152191162109375" lon="6.917023770511150360107421875">
        <ele>341.600006103515625</ele>
        <time>2013-09-01T16:40:29.000Z</time>
        <extensions>
          <ns3:TrackPointExtension>
            <ns3:atemp>16.0</ns3:atemp>
          </ns3:TrackPointExtension>
        </extensions>
      </trkpt>
      <trkpt lat="46.79510668851435184478759765625" lon="6.91695026122033596038818359375">
        <ele>342</ele>
        <time>2013-09-01T16:40:30.000Z</time>
        <extensions>
          <ns3:TrackPointExtension>
            <ns3:atemp>16.0</ns3:atemp>
          </ns3:TrackPointExtension>
        </extensions>
      </trkpt>
      <trkpt lat="46.795133091509342193603515625" lon="6.9168760813772678375244140625">
        <ele>342.600006103515625</ele>
        <time>2013-09-01T16:40:31.000Z</time>
        <extensions>
          <ns3:TrackPointExtension>
            <ns3:atemp>16.0</ns3:atemp>
          </ns3:TrackPointExtension>
        </extensions>
      </trkpt>
      <trkpt lat="46.7951600812375545501708984375" lon="6.91680240444839000701904296875">
        <ele>342.600006103515625</ele>
        <time>2013-09-01T16:40:32.000Z</time>
        <extensions>
          <ns3:TrackPointExtension>
            <ns3:atemp>16.0</ns3:atemp>
          </ns3:TrackPointExtension>
        </extensions>
      </trkpt>
      <trkpt lat="46.79518648423254489898681640625" lon="6.9167282246053218841552734375">
        <ele>342.600006103515625</ele>
        <time>2013-09-01T16:40:33.000Z</time>
        <extensions>
          <ns3:TrackPointExtension>
            <ns3:atemp>16.0</ns3:atemp>
          </ns3:TrackPointExtension>
        </extensions>
      </trkpt>
      <trkpt lat="46.79521230049431324005126953125" lon="6.91665404476225376129150390625">
        <ele>342.20001220703125</ele>
        <time>2013-09-01T16:40:34.000Z</time>
        <extensions>
          <ns3:TrackPointExtension>
            <ns3:atemp>16.0</ns3:atemp>
          </ns3:TrackPointExtension>
        </extensions>
      </trkpt>
      <trkpt lat="46.7952361889183521270751953125" lon="6.916579864919185638427734375">
        <ele>341.79998779296875</ele>
        <time>2013-09-01T16:40:35.000Z</time>
        <extensions>
          <ns3:TrackPointExtension>
            <ns3:atemp>16.0</ns3:atemp>
          </ns3:TrackPointExtension>
        </extensions>
      </trkpt>
      <trkpt lat="46.79526074789464473724365234375" lon="6.91650669090449810028076171875">
        <ele>341.600006103515625</ele>
        <time>2013-09-01T16:40:36.000Z</time>
        <extensions>
          <ns3:TrackPointExtension>
            <ns3:atemp>16.0</ns3:atemp>
          </ns3:TrackPointExtension>
        </extensions>
      </trkpt>
      <trkpt lat="46.79528472013771533966064453125" lon="6.91643376834690570831298828125">
        <ele>341.79998779296875</ele>
        <time>2013-09-01T16:40:37.000Z</time>
        <extensions>
          <ns3:TrackPointExtension>
            <ns3:atemp>16.0</ns3:atemp>
          </ns3:TrackPointExtension>
        </extensions>
      </trkpt>
      <trkpt lat="46.795309446752071380615234375" lon="6.91636051051318645477294921875">
        <ele>341.600006103515625</ele>
        <time>2013-09-01T16:40:38.000Z</time>
        <extensions>
          <ns3:TrackPointExtension>
            <ns3:atemp>16.0</ns3:atemp>
          </ns3:TrackPointExtension>
        </extensions>
      </trkpt>
      <trkpt lat="46.79533685557544231414794921875" lon="6.91628850996494293212890625">
        <ele>341.399993896484375</ele>
        <time>2013-09-01T16:40:39.000Z</time>
        <extensions>
          <ns3:TrackPointExtension>
            <ns3:atemp>16.0</ns3:atemp>
          </ns3:TrackPointExtension>
        </extensions>
      </trkpt>
      <trkpt lat="46.79536317475140094757080078125" lon="6.91621634177863597869873046875">
        <ele>341.20001220703125</ele>
        <time>2013-09-01T16:40:40.000Z</time>
        <extensions>
          <ns3:TrackPointExtension>
            <ns3:atemp>16.0</ns3:atemp>
          </ns3:TrackPointExtension>
        </extensions>
      </trkpt>
      <trkpt lat="46.7953884042799472808837890625" lon="6.9161451794207096099853515625">
        <ele>341.20001220703125</ele>
        <time>2013-09-01T16:40:41.000Z</time>
        <extensions>
          <ns3:TrackPointExtension>
            <ns3:atemp>16.0</ns3:atemp>
          </ns3:TrackPointExtension>
        </extensions>
      </trkpt>
      <trkpt lat="46.7954135499894618988037109375" lon="6.9160747714340686798095703125">
        <ele>341.20001220703125</ele>
        <time>2013-09-01T16:40:42.000Z</time>
        <extensions>
          <ns3:TrackPointExtension>
            <ns3:atemp>16.0</ns3:atemp>
          </ns3:TrackPointExtension>
        </extensions>
      </trkpt>
      <trkpt lat="46.795440204441547393798828125" lon="6.91600495018064975738525390625">
        <ele>341.20001220703125</ele>
        <time>2013-09-01T16:40:43.000Z</time>
        <extensions>
          <ns3:TrackPointExtension>
            <ns3:atemp>16.0</ns3:atemp>
          </ns3:TrackPointExtension>
        </extensions>
      </trkpt>
      <trkpt lat="46.79546467959880828857421875" lon="6.915933787822723388671875">
        <ele>341.20001220703125</ele>
        <time>2013-09-01T16:40:44.000Z</time>
        <extensions>
          <ns3:TrackPointExtension>
            <ns3:atemp>16.0</ns3:atemp>
          </ns3:TrackPointExtension>
        </extensions>
      </trkpt>
      <trkpt lat="46.7954873107373714447021484375" lon="6.91586212255060672760009765625">
        <ele>341.20001220703125</ele>
        <time>2013-09-01T16:40:45.000Z</time>
        <extensions>
          <ns3:TrackPointExtension>
            <ns3:atemp>16.0</ns3:atemp>
          </ns3:TrackPointExtension>
        </extensions>
      </trkpt>
      <trkpt lat="46.79551161825656890869140625" lon="6.91578953526914119720458984375">
        <ele>341.20001220703125</ele>
        <time>2013-09-01T16:40:46.000Z</time>
        <extensions>
          <ns3:TrackPointExtension>
            <ns3:atemp>16.0</ns3:atemp>
          </ns3:TrackPointExtension>
        </extensions>
      </trkpt>
      <trkpt lat="46.79553818888962268829345703125" lon="6.915716864168643951416015625">
        <ele>341.399993896484375</ele>
        <time>2013-09-01T16:40:47.000Z</time>
        <extensions>
          <ns3:TrackPointExtension>
            <ns3:atemp>16.0</ns3:atemp>
          </ns3:TrackPointExtension>
        </extensions>
      </trkpt>
      <trkpt lat="46.79556526243686676025390625" lon="6.91564419306814670562744140625">
        <ele>341.79998779296875</ele>
        <time>2013-09-01T16:40:48.000Z</time>
        <extensions>
          <ns3:TrackPointExtension>
            <ns3:atemp>16.0</ns3:atemp>
          </ns3:TrackPointExtension>
        </extensions>
      </trkpt>
      <trkpt lat="46.79559200070798397064208984375" lon="6.9155705161392688751220703125">
        <ele>342</ele>
        <time>2013-09-01T16:40:49.000Z</time>
        <extensions>
          <ns3:TrackPointExtension>
            <ns3:atemp>16.0</ns3:atemp>
          </ns3:TrackPointExtension>
        </extensions>
      </trkpt>
      <trkpt lat="46.79561865516006946563720703125" lon="6.91549591720104217529296875">
        <ele>342.20001220703125</ele>
        <time>2013-09-01T16:40:50.000Z</time>
        <extensions>
          <ns3:TrackPointExtension>
            <ns3:atemp>16.0</ns3:atemp>
          </ns3:TrackPointExtension>
        </extensions>
      </trkpt>
      <trkpt lat="46.79564480669796466827392578125" lon="6.915423832833766937255859375">
        <ele>342.20001220703125</ele>
        <time>2013-09-01T16:40:51.000Z</time>
        <extensions>
          <ns3:TrackPointExtension>
            <ns3:atemp>16.0</ns3:atemp>
          </ns3:TrackPointExtension>
        </extensions>
      </trkpt>
      <trkpt lat="46.79567012004554271697998046875" lon="6.91535149700939655303955078125">
        <ele>342.600006103515625</ele>
        <time>2013-09-01T16:40:52.000Z</time>
        <extensions>
          <ns3:TrackPointExtension>
            <ns3:atemp>16.0</ns3:atemp>
          </ns3:TrackPointExtension>
        </extensions>
      </trkpt>
      <trkpt lat="46.79569534957408905029296875" lon="6.91527874208986759185791015625">
        <ele>342.600006103515625</ele>
        <time>2013-09-01T16:40:53.000Z</time>
        <extensions>
          <ns3:TrackPointExtension>
            <ns3:atemp>16.0</ns3:atemp>
          </ns3:TrackPointExtension>
        </extensions>
      </trkpt>
      <trkpt lat="46.7957193218171596527099609375" lon="6.9152054004371166229248046875">
        <ele>342.399993896484375</ele>
        <time>2013-09-01T16:40:54.000Z</time>
        <extensions>
          <ns3:TrackPointExtension>
            <ns3:atemp>16.0</ns3:atemp>
          </ns3:TrackPointExtension>
        </extensions>
      </trkpt>
      <trkpt lat="46.79574362933635711669921875" lon="6.9151326455175876617431640625">
        <ele>342.399993896484375</ele>
        <time>2013-09-01T16:40:55.000Z</time>
        <extensions>
          <ns3:TrackPointExtension>
            <ns3:atemp>16.0</ns3:atemp>
          </ns3:TrackPointExtension>
        </extensions>
      </trkpt>
      <trkpt lat="46.7957706190645694732666015625" lon="6.91506081260740756988525390625">
        <ele>342.399993896484375</ele>
        <time>2013-09-01T16:40:56.000Z</time>
        <extensions>
          <ns3:TrackPointExtension>
            <ns3:atemp>16.0</ns3:atemp>
          </ns3:TrackPointExtension>
        </extensions>
      </trkpt>
      <trkpt lat="46.7957961000502109527587890625" lon="6.91498763859272003173828125">
        <ele>342.399993896484375</ele>
        <time>2013-09-01T16:40:57.000Z</time>
        <extensions>
          <ns3:TrackPointExtension>
            <ns3:atemp>16.0</ns3:atemp>
          </ns3:TrackPointExtension>
        </extensions>
      </trkpt>
      <trkpt lat="46.79582267068326473236083984375" lon="6.91491597332060337066650390625">
        <ele>342.600006103515625</ele>
        <time>2013-09-01T16:40:58.000Z</time>
        <extensions>
          <ns3:TrackPointExtension>
            <ns3:atemp>16.0</ns3:atemp>
          </ns3:TrackPointExtension>
        </extensions>
      </trkpt>
      <trkpt lat="46.79585183970630168914794921875" lon="6.9148463197052478790283203125">
        <ele>342.79998779296875</ele>
        <time>2013-09-01T16:40:59.000Z</time>
        <extensions>
          <ns3:TrackPointExtension>
            <ns3:atemp>16.0</ns3:atemp>
          </ns3:TrackPointExtension>
        </extensions>
      </trkpt>
      <trkpt lat="46.7958822660148143768310546875" lon="6.914780102670192718505859375">
        <ele>343</ele>
        <time>2013-09-01T16:41:00.000Z</time>
        <extensions>
          <ns3:TrackPointExtension>
            <ns3:atemp>16.0</ns3:atemp>
          </ns3:TrackPointExtension>
        </extensions>
      </trkpt>
      <trkpt lat="46.79591068066656589508056640625" lon="6.914711706340312957763671875">
        <ele>343.20001220703125</ele>
        <time>2013-09-01T16:41:01.000Z</time>
        <extensions>
          <ns3:TrackPointExtension>
            <ns3:atemp>16.0</ns3:atemp>
          </ns3:TrackPointExtension>
        </extensions>
      </trkpt>
      <trkpt lat="46.79593649692833423614501953125" lon="6.9146471656858921051025390625">
        <ele>343.20001220703125</ele>
        <time>2013-09-01T16:41:02.000Z</time>
        <extensions>
          <ns3:TrackPointExtension>
            <ns3:atemp>16.0</ns3:atemp>
          </ns3:TrackPointExtension>
        </extensions>
      </trkpt>
      <trkpt lat="46.7959607206284999847412109375" lon="6.91458723507821559906005859375">
        <ele>343.20001220703125</ele>
        <time>2013-09-01T16:41:03.000Z</time>
        <extensions>
          <ns3:TrackPointExtension>
            <ns3:atemp>16.0</ns3:atemp>
          </ns3:TrackPointExtension>
        </extensions>
      </trkpt>
      <trkpt lat="46.795986033976078033447265625" lon="6.914534009993076324462890625">
        <ele>343.20001220703125</ele>
        <time>2013-09-01T16:41:04.000Z</time>
        <extensions>
          <ns3:TrackPointExtension>
            <ns3:atemp>16.0</ns3:atemp>
          </ns3:TrackPointExtension>
        </extensions>
      </trkpt>
      <trkpt lat="46.79600916802883148193359375" lon="6.9144838862121105194091796875">
        <ele>343.399993896484375</ele>
        <time>2013-09-01T16:41:05.000Z</time>
        <extensions>
          <ns3:TrackPointExtension>
            <ns3:atemp>16.0</ns3:atemp>
          </ns3:TrackPointExtension>
        </extensions>
      </trkpt>
      <trkpt lat="46.79602651856839656829833984375" lon="6.91443384625017642974853515625">
        <ele>343</ele>
        <time>2013-09-01T16:41:06.000Z</time>
        <extensions>
          <ns3:TrackPointExtension>
            <ns3:atemp>16.0</ns3:atemp>
          </ns3:TrackPointExtension>
        </extensions>
      </trkpt>
      <trkpt lat="46.796034984290599822998046875" lon="6.91437953151762485504150390625">
        <ele>342.600006103515625</ele>
        <time>2013-09-01T16:41:07.000Z</time>
        <extensions>
          <ns3:TrackPointExtension>
            <ns3:atemp>16.0</ns3:atemp>
          </ns3:TrackPointExtension>
        </extensions>
      </trkpt>
      <trkpt lat="46.79603205062448978424072265625" lon="6.91431918181478977203369140625">
        <ele>342.399993896484375</ele>
        <time>2013-09-01T16:41:08.000Z</time>
        <extensions>
          <ns3:TrackPointExtension>
            <ns3:atemp>16.0</ns3:atemp>
          </ns3:TrackPointExtension>
        </extensions>
      </trkpt>
      <trkpt lat="46.7960219085216522216796875" lon="6.91425313241779804229736328125">
        <ele>342.399993896484375</ele>
        <time>2013-09-01T16:41:09.000Z</time>
        <extensions>
          <ns3:TrackPointExtension>
            <ns3:atemp>16.0</ns3:atemp>
          </ns3:TrackPointExtension>
        </extensions>
      </trkpt>
      <trkpt lat="46.79600740782916545867919921875" lon="6.9141828082501888275146484375">
        <ele>342.399993896484375</ele>
        <time>2013-09-01T16:41:10.000Z</time>
        <extensions>
          <ns3:TrackPointExtension>
            <ns3:atemp>16.0</ns3:atemp>
          </ns3:TrackPointExtension>
        </extensions>
      </trkpt>
      <trkpt lat="46.7959895543754100799560546875" lon="6.914109550416469573974609375">
        <ele>342.399993896484375</ele>
        <time>2013-09-01T16:41:11.000Z</time>
        <extensions>
          <ns3:TrackPointExtension>
            <ns3:atemp>16.0</ns3:atemp>
          </ns3:TrackPointExtension>
        </extensions>
      </trkpt>
      <trkpt lat="46.79596868343651294708251953125" lon="6.9140334427356719970703125">
        <ele>342.399993896484375</ele>
        <time>2013-09-01T16:41:12.000Z</time>
        <extensions>
          <ns3:TrackPointExtension>
            <ns3:atemp>16.0</ns3:atemp>
          </ns3:TrackPointExtension>
        </extensions>
      </trkpt>
      <trkpt lat="46.79594856686890125274658203125" lon="6.9139548204839229583740234375">
        <ele>342.600006103515625</ele>
        <time>2013-09-01T16:41:13.000Z</time>
        <extensions>
          <ns3:TrackPointExtension>
            <ns3:atemp>16.0</ns3:atemp>
          </ns3:TrackPointExtension>
        </extensions>
      </trkpt>
      <trkpt lat="46.79592979140579700469970703125" lon="6.91387359984219074249267578125">
        <ele>342.600006103515625</ele>
        <time>2013-09-01T16:41:14.000Z</time>
        <extensions>
          <ns3:TrackPointExtension>
            <ns3:atemp>16.0</ns3:atemp>
          </ns3:TrackPointExtension>
        </extensions>
      </trkpt>
      <trkpt lat="46.795913279056549072265625" lon="6.91379229538142681121826171875">
        <ele>343</ele>
        <time>2013-09-01T16:41:15.000Z</time>
        <extensions>
          <ns3:TrackPointExtension>
            <ns3:atemp>16.0</ns3:atemp>
          </ns3:TrackPointExtension>
        </extensions>
      </trkpt>
      <trkpt lat="46.795898191630840301513671875" lon="6.91370897926390171051025390625">
        <ele>343.399993896484375</ele>
        <time>2013-09-01T16:41:16.000Z</time>
        <extensions>
          <ns3:TrackPointExtension>
            <ns3:atemp>16.0</ns3:atemp>
          </ns3:TrackPointExtension>
        </extensions>
      </trkpt>
      <trkpt lat="46.79588469676673412322998046875" lon="6.91362566314637660980224609375">
        <ele>343.600006103515625</ele>
        <time>2013-09-01T16:41:17.000Z</time>
        <extensions>
          <ns3:TrackPointExtension>
            <ns3:atemp>16.0</ns3:atemp>
          </ns3:TrackPointExtension>
        </extensions>
      </trkpt>
      <trkpt lat="46.79587396793067455291748046875" lon="6.91354083828628063201904296875">
        <ele>343.600006103515625</ele>
        <time>2013-09-01T16:41:18.000Z</time>
        <extensions>
          <ns3:TrackPointExtension>
            <ns3:atemp>16.0</ns3:atemp>
          </ns3:TrackPointExtension>
        </extensions>
      </trkpt>
      <trkpt lat="46.79586508311331272125244140625" lon="6.91345752216875553131103515625">
        <ele>343.600006103515625</ele>
        <time>2013-09-01T16:41:19.000Z</time>
        <extensions>
          <ns3:TrackPointExtension>
            <ns3:atemp>16.0</ns3:atemp>
          </ns3:TrackPointExtension>
        </extensions>
      </trkpt>
      <trkpt lat="46.795855276286602020263671875" lon="6.91337437368929386138916015625">
        <ele>343.399993896484375</ele>
        <time>2013-09-01T16:41:20.000Z</time>
        <extensions>
          <ns3:TrackPointExtension>
            <ns3:atemp>16.0</ns3:atemp>
          </ns3:TrackPointExtension>
        </extensions>
      </trkpt>
      <trkpt lat="46.79585150443017482757568359375" lon="6.9132876209914684295654296875">
        <ele>343.399993896484375</ele>
        <time>2013-09-01T16:41:21.000Z</time>
        <extensions>
          <ns3:TrackPointExtension>
            <ns3:atemp>16.0</ns3:atemp>
          </ns3:TrackPointExtension>
        </extensions>
      </trkpt>
      <trkpt lat="46.79586441256105899810791015625" lon="6.9132046401500701904296875">
        <ele>343.399993896484375</ele>
        <time>2013-09-01T16:41:22.000Z</time>
        <extensions>
          <ns3:TrackPointExtension>
            <ns3:atemp>16.0</ns3:atemp>
          </ns3:TrackPointExtension>
        </extensions>
      </trkpt>
      <trkpt lat="46.79589592851698398590087890625" lon="6.91313699819147586822509765625">
        <ele>343.399993896484375</ele>
        <time>2013-09-01T16:41:23.000Z</time>
        <extensions>
          <ns3:TrackPointExtension>
            <ns3:atemp>16.0</ns3:atemp>
          </ns3:TrackPointExtension>
        </extensions>
      </trkpt>
      <trkpt lat="46.79594337008893489837646484375" lon="6.913094334304332733154296875">
        <ele>343.399993896484375</ele>
        <time>2013-09-01T16:41:24.000Z</time>
        <extensions>
          <ns3:TrackPointExtension>
            <ns3:atemp>16.0</ns3:atemp>
          </ns3:TrackPointExtension>
        </extensions>
      </trkpt>
      <trkpt lat="46.79599039256572723388671875" lon="6.91306457854807376861572265625">
        <ele>343.399993896484375</ele>
        <time>2013-09-01T16:41:25.000Z</time>
        <extensions>
          <ns3:TrackPointExtension>
            <ns3:atemp>16.0</ns3:atemp>
          </ns3:TrackPointExtension>
        </extensions>
      </trkpt>
      <trkpt lat="46.7960353195667266845703125" lon="6.91304127685725688934326171875">
        <ele>343.600006103515625</ele>
        <time>2013-09-01T16:41:26.000Z</time>
        <extensions>
          <ns3:TrackPointExtension>
            <ns3:atemp>16.0</ns3:atemp>
          </ns3:TrackPointExtension>
        </extensions>
      </trkpt>
      <trkpt lat="46.79607412777841091156005859375" lon="6.913014538586139678955078125">
        <ele>344</ele>
        <time>2013-09-01T16:41:27.000Z</time>
        <extensions>
          <ns3:TrackPointExtension>
            <ns3:atemp>16.0</ns3:atemp>
          </ns3:TrackPointExtension>
        </extensions>
      </trkpt>
      <trkpt lat="46.79610840976238250732421875" lon="6.912987716495990753173828125">
        <ele>344.399993896484375</ele>
        <time>2013-09-01T16:41:28.000Z</time>
        <extensions>
          <ns3:TrackPointExtension>
            <ns3:atemp>16.0</ns3:atemp>
          </ns3:TrackPointExtension>
        </extensions>
      </trkpt>
      <trkpt lat="46.796141602098941802978515625" lon="6.91296257078647613525390625">
        <ele>344.79998779296875</ele>
        <time>2013-09-01T16:41:29.000Z</time>
        <extensions>
          <ns3:TrackPointExtension>
            <ns3:atemp>16.0</ns3:atemp>
          </ns3:TrackPointExtension>
        </extensions>
      </trkpt>
      <trkpt lat="46.79617437534034252166748046875" lon="6.91293683834373950958251953125">
        <ele>344.79998779296875</ele>
        <time>2013-09-01T16:41:30.000Z</time>
        <extensions>
          <ns3:TrackPointExtension>
            <ns3:atemp>16.0</ns3:atemp>
          </ns3:TrackPointExtension>
        </extensions>
      </trkpt>
      <trkpt lat="46.79620991460978984832763671875" lon="6.91291521303355693817138671875">
        <ele>345.20001220703125</ele>
        <time>2013-09-01T16:41:31.000Z</time>
        <extensions>
          <ns3:TrackPointExtension>
            <ns3:atemp>16.0</ns3:atemp>
          </ns3:TrackPointExtension>
        </extensions>
      </trkpt>
      <trkpt lat="46.7962430231273174285888671875" lon="6.91289685666561126708984375">
        <ele>345.20001220703125</ele>
        <time>2013-09-01T16:41:32.000Z</time>
        <extensions>
          <ns3:TrackPointExtension>
            <ns3:atemp>16.0</ns3:atemp>
          </ns3:TrackPointExtension>
        </extensions>
      </trkpt>
      <trkpt lat="46.79627629928290843963623046875" lon="6.91287699155509471893310546875">
        <ele>345.600006103515625</ele>
        <time>2013-09-01T16:41:33.000Z</time>
        <extensions>
          <ns3:TrackPointExtension>
            <ns3:atemp>16.0</ns3:atemp>
          </ns3:TrackPointExtension>
        </extensions>
      </trkpt>
      <trkpt lat="46.79630982689559459686279296875" lon="6.9128571264445781707763671875">
        <ele>345.79998779296875</ele>
        <time>2013-09-01T16:41:34.000Z</time>
        <extensions>
          <ns3:TrackPointExtension>
            <ns3:atemp>16.0</ns3:atemp>
          </ns3:TrackPointExtension>
        </extensions>
      </trkpt>
      <trkpt lat="46.7963432706892490386962890625" lon="6.9128313101828098297119140625">
        <ele>346.20001220703125</ele>
        <time>2013-09-01T16:41:35.000Z</time>
        <extensions>
          <ns3:TrackPointExtension>
            <ns3:atemp>16.0</ns3:atemp>
          </ns3:TrackPointExtension>
        </extensions>
      </trkpt>
      <trkpt lat="46.796370930969715118408203125" lon="6.9128028117120265960693359375">
        <ele>346.600006103515625</ele>
        <time>2013-09-01T16:41:36.000Z</time>
        <extensions>
          <ns3:TrackPointExtension>
            <ns3:atemp>16.0</ns3:atemp>
          </ns3:TrackPointExtension>
        </extensions>
      </trkpt>
      <trkpt lat="46.79640236310660839080810546875" lon="6.9127783365547657012939453125">
        <ele>347.20001220703125</ele>
        <time>2013-09-01T16:41:37.000Z</time>
        <extensions>
          <ns3:TrackPointExtension>
            <ns3:atemp>16.0</ns3:atemp>
          </ns3:TrackPointExtension>
        </extensions>
      </trkpt>
      <trkpt lat="46.796433627605438232421875" lon="6.91275528632104396820068359375">
        <ele>347.600006103515625</ele>
        <time>2013-09-01T16:41:38.000Z</time>
        <extensions>
          <ns3:TrackPointExtension>
            <ns3:atemp>16.0</ns3:atemp>
          </ns3:TrackPointExtension>
        </extensions>
      </trkpt>
      <trkpt lat="46.7964643053710460662841796875" lon="6.9127310626208782196044921875">
        <ele>348</ele>
        <time>2013-09-01T16:41:39.000Z</time>
        <extensions>
          <ns3:TrackPointExtension>
            <ns3:atemp>16.0</ns3:atemp>
          </ns3:TrackPointExtension>
        </extensions>
      </trkpt>
      <trkpt lat="46.7964951507747173309326171875" lon="6.9127109460532665252685546875">
        <ele>348.399993896484375</ele>
        <time>2013-09-01T16:41:40.000Z</time>
        <extensions>
          <ns3:TrackPointExtension>
            <ns3:atemp>16.0</ns3:atemp>
          </ns3:TrackPointExtension>
        </extensions>
      </trkpt>
      <trkpt lat="46.7965263314545154571533203125" lon="6.91269426606595516204833984375">
        <ele>348.600006103515625</ele>
        <time>2013-09-01T16:41:41.000Z</time>
        <extensions>
          <ns3:TrackPointExtension>
            <ns3:atemp>16.0</ns3:atemp>
          </ns3:TrackPointExtension>
        </extensions>
      </trkpt>
      <trkpt lat="46.79656304419040679931640625" lon="6.9126814417541027069091796875">
        <ele>348.79998779296875</ele>
        <time>2013-09-01T16:41:42.000Z</time>
        <extensions>
          <ns3:TrackPointExtension>
            <ns3:atemp>16.0</ns3:atemp>
          </ns3:TrackPointExtension>
        </extensions>
      </trkpt>
      <trkpt lat="46.79660067893564701080322265625" lon="6.91266861744225025177001953125">
        <ele>349</ele>
        <time>2013-09-01T16:41:43.000Z</time>
        <extensions>
          <ns3:TrackPointExtension>
            <ns3:atemp>16.0</ns3:atemp>
          </ns3:TrackPointExtension>
        </extensions>
      </trkpt>
      <trkpt lat="46.79663705639541149139404296875" lon="6.91265654750168323516845703125">
        <ele>349.20001220703125</ele>
        <time>2013-09-01T16:41:44.000Z</time>
        <extensions>
          <ns3:TrackPointExtension>
            <ns3:atemp>16.0</ns3:atemp>
          </ns3:TrackPointExtension>
        </extensions>
      </trkpt>
      <trkpt lat="46.79667108692228794097900390625" lon="6.91264070570468902587890625">
        <ele>349.399993896484375</ele>
        <time>2013-09-01T16:41:45.000Z</time>
        <extensions>
          <ns3:TrackPointExtension>
            <ns3:atemp>16.0</ns3:atemp>
          </ns3:TrackPointExtension>
        </extensions>
      </trkpt>
      <trkpt lat="46.79670612327754497528076171875" lon="6.9126252830028533935546875">
        <ele>349.79998779296875</ele>
        <time>2013-09-01T16:41:46.000Z</time>
        <extensions>
          <ns3:TrackPointExtension>
            <ns3:atemp>16.0</ns3:atemp>
          </ns3:TrackPointExtension>
        </extensions>
      </trkpt>
      <trkpt lat="46.7967395670711994171142578125" lon="6.91260516643524169921875">
        <ele>350.20001220703125</ele>
        <time>2013-09-01T16:41:47.000Z</time>
        <extensions>
          <ns3:TrackPointExtension>
            <ns3:atemp>16.0</ns3:atemp>
          </ns3:TrackPointExtension>
        </extensions>
      </trkpt>
      <trkpt lat="46.796771921217441558837890625" lon="6.91258303821086883544921875">
        <ele>350.399993896484375</ele>
        <time>2013-09-01T16:41:48.000Z</time>
        <extensions>
          <ns3:TrackPointExtension>
            <ns3:atemp>16.0</ns3:atemp>
          </ns3:TrackPointExtension>
        </extensions>
      </trkpt>
      <trkpt lat="46.796803772449493408203125" lon="6.91256451420485973358154296875">
        <ele>350.600006103515625</ele>
        <time>2013-09-01T16:41:49.000Z</time>
        <extensions>
          <ns3:TrackPointExtension>
            <ns3:atemp>16.0</ns3:atemp>
          </ns3:TrackPointExtension>
        </extensions>
      </trkpt>
      <trkpt lat="46.79683386348187923431396484375" lon="6.912546493113040924072265625">
        <ele>351</ele>
        <time>2013-09-01T16:41:50.000Z</time>
        <extensions>
          <ns3:TrackPointExtension>
            <ns3:atemp>16.0</ns3:atemp>
          </ns3:TrackPointExtension>
        </extensions>
      </trkpt>
      <trkpt lat="46.79686303250491619110107421875" lon="6.91253199242055416107177734375">
        <ele>351.600006103515625</ele>
        <time>2013-09-01T16:41:51.000Z</time>
        <extensions>
          <ns3:TrackPointExtension>
            <ns3:atemp>16.0</ns3:atemp>
          </ns3:TrackPointExtension>
        </extensions>
      </trkpt>
      <trkpt lat="46.79689169861376285552978515625" lon="6.91251271404325962066650390625">
        <ele>352.20001220703125</ele>
        <time>2013-09-01T16:41:52.000Z</time>
        <extensions>
          <ns3:TrackPointExtension>
            <ns3:atemp>16.0</ns3:atemp>
          </ns3:TrackPointExtension>
        </extensions>
      </trkpt>
      <trkpt lat="46.79691952653229236602783203125" lon="6.91249108873307704925537109375">
        <ele>352.600006103515625</ele>
        <time>2013-09-01T16:41:53.000Z</time>
        <extensions>
          <ns3:TrackPointExtension>
            <ns3:atemp>16.0</ns3:atemp>
          </ns3:TrackPointExtension>
        </extensions>
      </trkpt>
      <trkpt lat="46.79694768972694873809814453125" lon="6.91247113980352878570556640625">
        <ele>352.79998779296875</ele>
        <time>2013-09-01T16:41:54.000Z</time>
        <extensions>
          <ns3:TrackPointExtension>
            <ns3:atemp>16.0</ns3:atemp>
          </ns3:TrackPointExtension>
        </extensions>
      </trkpt>
      <trkpt lat="46.79697618819773197174072265625" lon="6.912449263036251068115234375">
        <ele>353</ele>
        <time>2013-09-01T16:41:55.000Z</time>
        <extensions>
          <ns3:TrackPointExtension>
            <ns3:atemp>16.0</ns3:atemp>
          </ns3:TrackPointExtension>
        </extensions>
      </trkpt>
      <trkpt lat="46.79700502194464206695556640625" lon="6.91242487169802188873291015625">
        <ele>353.20001220703125</ele>
        <time>2013-09-01T16:41:56.000Z</time>
        <extensions>
          <ns3:TrackPointExtension>
            <ns3:atemp>16.0</ns3:atemp>
          </ns3:TrackPointExtension>
        </extensions>
      </trkpt>
      <trkpt lat="46.79703435860574245452880859375" lon="6.91240324638783931732177734375">
        <ele>353.399993896484375</ele>
        <time>2013-09-01T16:41:57.000Z</time>
        <extensions>
          <ns3:TrackPointExtension>
            <ns3:atemp>16.0</ns3:atemp>
          </ns3:TrackPointExtension>
        </extensions>
      </trkpt>
      <trkpt lat="46.7970644496381282806396484375" lon="6.9123833812773227691650390625">
        <ele>353.79998779296875</ele>
        <time>2013-09-01T16:41:58.000Z</time>
        <extensions>
          <ns3:TrackPointExtension>
            <ns3:atemp>16.0</ns3:atemp>
          </ns3:TrackPointExtension>
        </extensions>
      </trkpt>
      <trkpt lat="46.7970959655940532684326171875" lon="6.91236041486263275146484375">
        <ele>354.20001220703125</ele>
        <time>2013-09-01T16:41:59.000Z</time>
        <extensions>
          <ns3:TrackPointExtension>
            <ns3:atemp>16.0</ns3:atemp>
          </ns3:TrackPointExtension>
        </extensions>
      </trkpt>
      <trkpt lat="46.7971321754157543182373046875" lon="6.91234054975211620330810546875">
        <ele>354.399993896484375</ele>
        <time>2013-09-01T16:42:00.000Z</time>
        <extensions>
          <ns3:TrackPointExtension>
            <ns3:atemp>16.0</ns3:atemp>
          </ns3:TrackPointExtension>
        </extensions>
      </trkpt>
      <trkpt lat="46.79716981016099452972412109375" lon="6.9123230315744876861572265625">
        <ele>354.79998779296875</ele>
        <time>2013-09-01T16:42:01.000Z</time>
        <extensions>
          <ns3:TrackPointExtension>
            <ns3:atemp>16.0</ns3:atemp>
          </ns3:TrackPointExtension>
        </extensions>
      </trkpt>
      <trkpt lat="46.797207780182361602783203125" lon="6.91230677068233489990234375">
        <ele>355.20001220703125</ele>
        <time>2013-09-01T16:42:02.000Z</time>
        <extensions>
          <ns3:TrackPointExtension>
            <ns3:atemp>16.0</ns3:atemp>
          </ns3:TrackPointExtension>
        </extensions>
      </trkpt>
      <trkpt lat="46.7972461692988872528076171875" lon="6.91228740848600864410400390625">
        <ele>355.79998779296875</ele>
        <time>2013-09-01T16:42:03.000Z</time>
        <extensions>
          <ns3:TrackPointExtension>
            <ns3:atemp>16.0</ns3:atemp>
          </ns3:TrackPointExtension>
        </extensions>
      </trkpt>
      <trkpt lat="46.7972827143967151641845703125" lon="6.91226611845195293426513671875">
        <ele>356.79998779296875</ele>
        <time>2013-09-01T16:42:04.000Z</time>
        <extensions>
          <ns3:TrackPointExtension>
            <ns3:atemp>16.0</ns3:atemp>
          </ns3:TrackPointExtension>
        </extensions>
      </trkpt>
      <trkpt lat="46.79731951095163822174072265625" lon="6.91224684007465839385986328125">
        <ele>357</ele>
        <time>2013-09-01T16:42:05.000Z</time>
        <extensions>
          <ns3:TrackPointExtension>
            <ns3:atemp>16.0</ns3:atemp>
          </ns3:TrackPointExtension>
        </extensions>
      </trkpt>
      <trkpt lat="46.79735739715397357940673828125" lon="6.91222471185028553009033203125">
        <ele>357</ele>
        <time>2013-09-01T16:42:06.000Z</time>
        <extensions>
          <ns3:TrackPointExtension>
            <ns3:atemp>16.0</ns3:atemp>
          </ns3:TrackPointExtension>
        </extensions>
      </trkpt>
      <trkpt lat="46.79739427752792835235595703125" lon="6.91219948232173919677734375">
        <ele>356.79998779296875</ele>
        <time>2013-09-01T16:42:07.000Z</time>
        <extensions>
          <ns3:TrackPointExtension>
            <ns3:atemp>16.0</ns3:atemp>
          </ns3:TrackPointExtension>
        </extensions>
      </trkpt>
      <trkpt lat="46.79743342101573944091796875" lon="6.91217458806931972503662109375">
        <ele>356.79998779296875</ele>
        <time>2013-09-01T16:42:08.000Z</time>
        <extensions>
          <ns3:TrackPointExtension>
            <ns3:atemp>16.0</ns3:atemp>
          </ns3:TrackPointExtension>
        </extensions>
      </trkpt>
      <trkpt lat="46.7974718101322650909423828125" lon="6.91214709542691707611083984375">
        <ele>356.79998779296875</ele>
        <time>2013-09-01T16:42:09.000Z</time>
        <extensions>
          <ns3:TrackPointExtension>
            <ns3:atemp>16.0</ns3:atemp>
          </ns3:TrackPointExtension>
        </extensions>
      </trkpt>
      <trkpt lat="46.79751330055296421051025390625" lon="6.9121210277080535888671875">
        <ele>356.600006103515625</ele>
        <time>2013-09-01T16:42:10.000Z</time>
        <extensions>
          <ns3:TrackPointExtension>
            <ns3:atemp>16.0</ns3:atemp>
          </ns3:TrackPointExtension>
        </extensions>
      </trkpt>
      <trkpt lat="46.79755839519202709197998046875" lon="6.91209563054144382476806640625">
        <ele>356.600006103515625</ele>
        <time>2013-09-01T16:42:11.000Z</time>
        <extensions>
          <ns3:TrackPointExtension>
            <ns3:atemp>16.0</ns3:atemp>
          </ns3:TrackPointExtension>
        </extensions>
      </trkpt>
      <trkpt lat="46.7976032383739948272705078125" lon="6.91206931136548519134521484375">
        <ele>356.20001220703125</ele>
        <time>2013-09-01T16:42:12.000Z</time>
        <extensions>
          <ns3:TrackPointExtension>
            <ns3:atemp>16.0</ns3:atemp>
          </ns3:TrackPointExtension>
        </extensions>
      </trkpt>
      <trkpt lat="46.79764942266047000885009765625" lon="6.9120378792285919189453125">
        <ele>356</ele>
        <time>2013-09-01T16:42:13.000Z</time>
        <extensions>
          <ns3:TrackPointExtension>
            <ns3:atemp>16.0</ns3:atemp>
          </ns3:TrackPointExtension>
        </extensions>
      </trkpt>
      <trkpt lat="46.79769761860370635986328125" lon="6.9120025075972080230712890625">
        <ele>356</ele>
        <time>2013-09-01T16:42:14.000Z</time>
        <extensions>
          <ns3:TrackPointExtension>
            <ns3:atemp>16.0</ns3:atemp>
          </ns3:TrackPointExtension>
        </extensions>
      </trkpt>
      <trkpt lat="46.797751598060131072998046875" lon="6.911967135965824127197265625">
        <ele>355.79998779296875</ele>
        <time>2013-09-01T16:42:15.000Z</time>
        <extensions>
          <ns3:TrackPointExtension>
            <ns3:atemp>16.0</ns3:atemp>
          </ns3:TrackPointExtension>
        </extensions>
      </trkpt>
      <trkpt lat="46.79780717007815837860107421875" lon="6.911930926144123077392578125">
        <ele>355.600006103515625</ele>
        <time>2013-09-01T16:42:16.000Z</time>
        <extensions>
          <ns3:TrackPointExtension>
            <ns3:atemp>16.0</ns3:atemp>
          </ns3:TrackPointExtension>
        </extensions>
      </trkpt>
      <trkpt lat="46.79786391556262969970703125" lon="6.91189412958920001983642578125">
        <ele>355.399993896484375</ele>
        <time>2013-09-01T16:42:17.000Z</time>
        <extensions>
          <ns3:TrackPointExtension>
            <ns3:atemp>16.0</ns3:atemp>
          </ns3:TrackPointExtension>
        </extensions>
      </trkpt>
      <trkpt lat="46.79792149923741817474365234375" lon="6.911855824291706085205078125">
        <ele>355.20001220703125</ele>
        <time>2013-09-01T16:42:18.000Z</time>
        <extensions>
          <ns3:TrackPointExtension>
            <ns3:atemp>16.0</ns3:atemp>
          </ns3:TrackPointExtension>
        </extensions>
      </trkpt>
      <trkpt lat="46.79797916673123836517333984375" lon="6.91181500442326068878173828125">
        <ele>355</ele>
        <time>2013-09-01T16:42:19.000Z</time>
        <extensions>
          <ns3:TrackPointExtension>
            <ns3:atemp>16.0</ns3:atemp>
          </ns3:TrackPointExtension>
        </extensions>
      </trkpt>
      <trkpt lat="46.798037588596343994140625" lon="6.91177091561257839202880859375">
        <ele>354.600006103515625</ele>
        <time>2013-09-01T16:42:20.000Z</time>
        <extensions>
          <ns3:TrackPointExtension>
            <ns3:atemp>16.0</ns3:atemp>
          </ns3:TrackPointExtension>
        </extensions>
      </trkpt>
      <trkpt lat="46.79809768684208393096923828125" lon="6.91172196529805660247802734375">
        <ele>354.20001220703125</ele>
        <time>2013-09-01T16:42:21.000Z</time>
        <extensions>
          <ns3:TrackPointExtension>
            <ns3:atemp>16.0</ns3:atemp>
          </ns3:TrackPointExtension>
        </extensions>
      </trkpt>
      <trkpt lat="46.7981547676026821136474609375" lon="6.911662034690380096435546875">
        <ele>353.600006103515625</ele>
        <time>2013-09-01T16:42:22.000Z</time>
        <extensions>
          <ns3:TrackPointExtension>
            <ns3:atemp>16.0</ns3:atemp>
          </ns3:TrackPointExtension>
        </extensions>
      </trkpt>
      <trkpt lat="46.7982120998203754425048828125" lon="6.91159238107502460479736328125">
        <ele>353.399993896484375</ele>
        <time>2013-09-01T16:42:23.000Z</time>
        <extensions>
          <ns3:TrackPointExtension>
            <ns3:atemp>16.0</ns3:atemp>
          </ns3:TrackPointExtension>
        </extensions>
      </trkpt>
      <trkpt lat="46.79827102459967136383056640625" lon="6.9115175306797027587890625">
        <ele>353</ele>
        <time>2013-09-01T16:42:24.000Z</time>
        <extensions>
          <ns3:TrackPointExtension>
            <ns3:atemp>16.0</ns3:atemp>
          </ns3:TrackPointExtension>
        </extensions>
      </trkpt>
      <trkpt lat="46.79833036847412586212158203125" lon="6.91143639385700225830078125">
        <ele>352.399993896484375</ele>
        <time>2013-09-01T16:42:25.000Z</time>
        <extensions>
          <ns3:TrackPointExtension>
            <ns3:atemp>16.0</ns3:atemp>
          </ns3:TrackPointExtension>
        </extensions>
      </trkpt>
      <trkpt lat="46.79839105345308780670166015625" lon="6.91135299392044544219970703125">
        <ele>351.600006103515625</ele>
        <time>2013-09-01T16:42:26.000Z</time>
        <extensions>
          <ns3:TrackPointExtension>
            <ns3:atemp>16.0</ns3:atemp>
          </ns3:TrackPointExtension>
        </extensions>
      </trkpt>
      <trkpt lat="46.7984538339078426361083984375" lon="6.911270432174205780029296875">
        <ele>350.79998779296875</ele>
        <time>2013-09-01T16:42:27.000Z</time>
        <extensions>
          <ns3:TrackPointExtension>
            <ns3:atemp>16.0</ns3:atemp>
          </ns3:TrackPointExtension>
        </extensions>
      </trkpt>
      <trkpt lat="46.79851594381034374237060546875" lon="6.9111881218850612640380859375">
        <ele>349.79998779296875</ele>
        <time>2013-09-01T16:42:28.000Z</time>
        <extensions>
          <ns3:TrackPointExtension>
            <ns3:atemp>16.0</ns3:atemp>
          </ns3:TrackPointExtension>
        </extensions>
      </trkpt>
      <trkpt lat="46.798577718436717987060546875" lon="6.91110379993915557861328125">
        <ele>349.399993896484375</ele>
        <time>2013-09-01T16:42:29.000Z</time>
        <extensions>
          <ns3:TrackPointExtension>
            <ns3:atemp>16.0</ns3:atemp>
          </ns3:TrackPointExtension>
        </extensions>
      </trkpt>
      <trkpt lat="46.79863882251083850860595703125" lon="6.91101922653615474700927734375">
        <ele>348.600006103515625</ele>
        <time>2013-09-01T16:42:30.000Z</time>
        <extensions>
          <ns3:TrackPointExtension>
            <ns3:atemp>16.0</ns3:atemp>
          </ns3:TrackPointExtension>
        </extensions>
      </trkpt>
      <trkpt lat="46.7986989207565784454345703125" lon="6.91093146800994873046875">
        <ele>348</ele>
        <time>2013-09-01T16:42:31.000Z</time>
        <extensions>
          <ns3:TrackPointExtension>
            <ns3:atemp>16.0</ns3:atemp>
          </ns3:TrackPointExtension>
        </extensions>
      </trkpt>
      <trkpt lat="46.79875968955457210540771484375" lon="6.91084220074117183685302734375">
        <ele>347.399993896484375</ele>
        <time>2013-09-01T16:42:32.000Z</time>
        <extensions>
          <ns3:TrackPointExtension>
            <ns3:atemp>16.0</ns3:atemp>
          </ns3:TrackPointExtension>
        </extensions>
      </trkpt>
      <trkpt lat="46.798821799457073211669921875" lon="6.910751760005950927734375">
        <ele>347</ele>
        <time>2013-09-01T16:42:33.000Z</time>
        <extensions>
          <ns3:TrackPointExtension>
            <ns3:atemp>16.0</ns3:atemp>
          </ns3:TrackPointExtension>
        </extensions>
      </trkpt>
      <trkpt lat="46.7988873459398746490478515625" lon="6.91066198982298374176025390625">
        <ele>346.79998779296875</ele>
        <time>2013-09-01T16:42:34.000Z</time>
        <extensions>
          <ns3:TrackPointExtension>
            <ns3:atemp>16.0</ns3:atemp>
          </ns3:TrackPointExtension>
        </extensions>
      </trkpt>
      <trkpt lat="46.798952557146549224853515625" lon="6.91057448275387287139892578125">
        <ele>347</ele>
        <time>2013-09-01T16:42:35.000Z</time>
        <extensions>
          <ns3:TrackPointExtension>
            <ns3:atemp>16.0</ns3:atemp>
          </ns3:TrackPointExtension>
        </extensions>
      </trkpt>
      <trkpt lat="46.7990167625248432159423828125" lon="6.9104880653321743011474609375">
        <ele>347.20001220703125</ele>
        <time>2013-09-01T16:42:36.000Z</time>
        <extensions>
          <ns3:TrackPointExtension>
            <ns3:atemp>16.0</ns3:atemp>
          </ns3:TrackPointExtension>
        </extensions>
      </trkpt>
      <trkpt lat="46.79907904006540775299072265625" lon="6.9104015640914440155029296875">
        <ele>347.399993896484375</ele>
        <time>2013-09-01T16:42:37.000Z</time>
        <extensions>
          <ns3:TrackPointExtension>
            <ns3:atemp>16.0</ns3:atemp>
          </ns3:TrackPointExtension>
        </extensions>
      </trkpt>
      <trkpt lat="46.7991401441395282745361328125" lon="6.9103167392313480377197265625">
        <ele>346.600006103515625</ele>
        <time>2013-09-01T16:42:38.000Z</time>
        <extensions>
          <ns3:TrackPointExtension>
            <ns3:atemp>16.0</ns3:atemp>
          </ns3:TrackPointExtension>
        </extensions>
      </trkpt>
      <trkpt lat="46.79920191876590251922607421875" lon="6.910235099494457244873046875">
        <ele>345.399993896484375</ele>
        <time>2013-09-01T16:42:39.000Z</time>
        <extensions>
          <ns3:TrackPointExtension>
            <ns3:atemp>16.0</ns3:atemp>
          </ns3:TrackPointExtension>
        </extensions>
      </trkpt>
      <trkpt lat="46.79926243610680103302001953125" lon="6.9101527892053127288818359375">
        <ele>344.20001220703125</ele>
        <time>2013-09-01T16:42:40.000Z</time>
        <extensions>
          <ns3:TrackPointExtension>
            <ns3:atemp>16.0</ns3:atemp>
          </ns3:TrackPointExtension>
        </extensions>
      </trkpt>
      <trkpt lat="46.79932278580963611602783203125" lon="6.9100723229348659515380859375">
        <ele>343.79998779296875</ele>
        <time>2013-09-01T16:42:41.000Z</time>
        <extensions>
          <ns3:TrackPointExtension>
            <ns3:atemp>16.0</ns3:atemp>
          </ns3:TrackPointExtension>
        </extensions>
      </trkpt>
      <trkpt lat="46.79938397370278835296630859375" lon="6.9099972210824489593505859375">
        <ele>344.20001220703125</ele>
        <time>2013-09-01T16:42:42.000Z</time>
        <extensions>
          <ns3:TrackPointExtension>
            <ns3:atemp>16.0</ns3:atemp>
          </ns3:TrackPointExtension>
        </extensions>
      </trkpt>
      <trkpt lat="46.7994435690343379974365234375" lon="6.90992404706776142120361328125">
        <ele>344.600006103515625</ele>
        <time>2013-09-01T16:42:43.000Z</time>
        <extensions>
          <ns3:TrackPointExtension>
            <ns3:atemp>16.0</ns3:atemp>
          </ns3:TrackPointExtension>
        </extensions>
      </trkpt>
      <trkpt lat="46.79950064979493618011474609375" lon="6.9098493643105030059814453125">
        <ele>344.79998779296875</ele>
        <time>2013-09-01T16:42:44.000Z</time>
        <extensions>
          <ns3:TrackPointExtension>
            <ns3:atemp>16.0</ns3:atemp>
          </ns3:TrackPointExtension>
        </extensions>
      </trkpt>
      <trkpt lat="46.799556724727153778076171875" lon="6.90977401100099086761474609375">
        <ele>344.600006103515625</ele>
        <time>2013-09-01T16:42:45.000Z</time>
        <extensions>
          <ns3:TrackPointExtension>
            <ns3:atemp>16.0</ns3:atemp>
          </ns3:TrackPointExtension>
        </extensions>
      </trkpt>
      <trkpt lat="46.7996095307171344757080078125" lon="6.90969756804406642913818359375">
        <ele>344.20001220703125</ele>
        <time>2013-09-01T16:42:46.000Z</time>
        <extensions>
          <ns3:TrackPointExtension>
            <ns3:atemp>16.0</ns3:atemp>
          </ns3:TrackPointExtension>
        </extensions>
      </trkpt>
      <trkpt lat="46.7996616661548614501953125" lon="6.90962363965809345245361328125">
        <ele>344</ele>
        <time>2013-09-01T16:42:47.000Z</time>
        <extensions>
          <ns3:TrackPointExtension>
            <ns3:atemp>16.0</ns3:atemp>
          </ns3:TrackPointExtension>
        </extensions>
      </trkpt>
      <trkpt lat="46.79971371777355670928955078125" lon="6.9095553271472454071044921875">
        <ele>344</ele>
        <time>2013-09-01T16:42:48.000Z</time>
        <extensions>
          <ns3:TrackPointExtension>
            <ns3:atemp>16.0</ns3:atemp>
          </ns3:TrackPointExtension>
        </extensions>
      </trkpt>
      <trkpt lat="46.79976417683064937591552734375" lon="6.909491121768951416015625">
        <ele>344</ele>
        <time>2013-09-01T16:42:49.000Z</time>
        <extensions>
          <ns3:TrackPointExtension>
            <ns3:atemp>16.0</ns3:atemp>
          </ns3:TrackPointExtension>
        </extensions>
      </trkpt>
      <trkpt lat="46.79980977438390254974365234375" lon="6.90942968241870403289794921875">
        <ele>344.20001220703125</ele>
        <time>2013-09-01T16:42:50.000Z</time>
        <extensions>
          <ns3:TrackPointExtension>
            <ns3:atemp>16.0</ns3:atemp>
          </ns3:TrackPointExtension>
        </extensions>
      </trkpt>
      <trkpt lat="46.7998509295284748077392578125" lon="6.90936765633523464202880859375">
        <ele>344.20001220703125</ele>
        <time>2013-09-01T16:42:51.000Z</time>
        <extensions>
          <ns3:TrackPointExtension>
            <ns3:atemp>16.0</ns3:atemp>
          </ns3:TrackPointExtension>
        </extensions>
      </trkpt>
      <trkpt lat="46.79988990537822246551513671875" lon="6.90930948592722415924072265625">
        <ele>344.20001220703125</ele>
        <time>2013-09-01T16:42:52.000Z</time>
        <extensions>
          <ns3:TrackPointExtension>
            <ns3:atemp>16.0</ns3:atemp>
          </ns3:TrackPointExtension>
        </extensions>
      </trkpt>
      <trkpt lat="46.79992728866636753082275390625" lon="6.909257434308528900146484375">
        <ele>344.399993896484375</ele>
        <time>2013-09-01T16:42:53.000Z</time>
        <extensions>
          <ns3:TrackPointExtension>
            <ns3:atemp>16.0</ns3:atemp>
          </ns3:TrackPointExtension>
        </extensions>
      </trkpt>
      <trkpt lat="46.7999598942697048187255859375" lon="6.90921544097363948822021484375">
        <ele>344.600006103515625</ele>
        <time>2013-09-01T16:42:54.000Z</time>
        <extensions>
          <ns3:TrackPointExtension>
            <ns3:atemp>16.0</ns3:atemp>
          </ns3:TrackPointExtension>
        </extensions>
      </trkpt>
      <trkpt lat="46.7999914102256298065185546875" lon="6.9091794826090335845947265625">
        <ele>344.600006103515625</ele>
        <time>2013-09-01T16:42:55.000Z</time>
        <extensions>
          <ns3:TrackPointExtension>
            <ns3:atemp>16.0</ns3:atemp>
          </ns3:TrackPointExtension>
        </extensions>
      </trkpt>
      <trkpt lat="46.800022087991237640380859375" lon="6.90914603881537914276123046875">
        <ele>344.79998779296875</ele>
        <time>2013-09-01T16:42:56.000Z</time>
        <extensions>
          <ns3:TrackPointExtension>
            <ns3:atemp>16.0</ns3:atemp>
          </ns3:TrackPointExtension>
        </extensions>
      </trkpt>
      <trkpt lat="46.80004999972879886627197265625" lon="6.9091120921075344085693359375">
        <ele>345.20001220703125</ele>
        <time>2013-09-01T16:42:57.000Z</time>
        <extensions>
          <ns3:TrackPointExtension>
            <ns3:atemp>16.0</ns3:atemp>
          </ns3:TrackPointExtension>
        </extensions>
      </trkpt>
      <trkpt lat="46.80007447488605976104736328125" lon="6.9090772233903408050537109375">
        <ele>345.600006103515625</ele>
        <time>2013-09-01T16:42:58.000Z</time>
        <extensions>
          <ns3:TrackPointExtension>
            <ns3:atemp>16.0</ns3:atemp>
          </ns3:TrackPointExtension>
        </extensions>
      </trkpt>
      <trkpt lat="46.80009643547236919403076171875" lon="6.9090445339679718017578125">
        <ele>346</ele>
        <time>2013-09-01T16:42:59.000Z</time>
        <extensions>
          <ns3:TrackPointExtension>
            <ns3:atemp>16.0</ns3:atemp>
          </ns3:TrackPointExtension>
        </extensions>
      </trkpt>
      <trkpt lat="46.80011889897286891937255859375" lon="6.90901310183107852935791015625">
        <ele>346.600006103515625</ele>
        <time>2013-09-01T16:43:00.000Z</time>
        <extensions>
          <ns3:TrackPointExtension>
            <ns3:atemp>16.0</ns3:atemp>
          </ns3:TrackPointExtension>
        </extensions>
      </trkpt>
      <trkpt lat="46.80014236830174922943115234375" lon="6.90898091532289981842041015625">
        <ele>347</ele>
        <time>2013-09-01T16:43:01.000Z</time>
        <extensions>
          <ns3:TrackPointExtension>
            <ns3:atemp>16.0</ns3:atemp>
          </ns3:TrackPointExtension>
        </extensions>
      </trkpt>
      <trkpt lat="46.80016851983964443206787109375" lon="6.908949315547943115234375">
        <ele>347.399993896484375</ele>
        <time>2013-09-01T16:43:02.000Z</time>
        <extensions>
          <ns3:TrackPointExtension>
            <ns3:atemp>16.0</ns3:atemp>
          </ns3:TrackPointExtension>
        </extensions>
      </trkpt>
      <trkpt lat="46.80019341409206390380859375" lon="6.90891486592590808868408203125">
        <ele>348</ele>
        <time>2013-09-01T16:43:03.000Z</time>
        <extensions>
          <ns3:TrackPointExtension>
            <ns3:atemp>16.0</ns3:atemp>
          </ns3:TrackPointExtension>
        </extensions>
      </trkpt>
      <trkpt lat="46.80021562613546848297119140625" lon="6.90887949429452419281005859375">
        <ele>348.399993896484375</ele>
        <time>2013-09-01T16:43:04.000Z</time>
        <extensions>
          <ns3:TrackPointExtension>
            <ns3:atemp>16.0</ns3:atemp>
          </ns3:TrackPointExtension>
        </extensions>
      </trkpt>
      <trkpt lat="46.80023523978888988494873046875" lon="6.908841021358966827392578125">
        <ele>348.600006103515625</ele>
        <time>2013-09-01T16:43:05.000Z</time>
        <extensions>
          <ns3:TrackPointExtension>
            <ns3:atemp>16.0</ns3:atemp>
          </ns3:TrackPointExtension>
        </extensions>
      </trkpt>
      <trkpt lat="46.8002450466156005859375" lon="6.90879450179636478424072265625">
        <ele>348.79998779296875</ele>
        <time>2013-09-01T16:43:06.000Z</time>
        <extensions>
          <ns3:TrackPointExtension>
            <ns3:atemp>16.0</ns3:atemp>
          </ns3:TrackPointExtension>
        </extensions>
      </trkpt>
      <trkpt lat="46.80023540742695331573486328125" lon="6.9087389297783374786376953125">
        <ele>348.79998779296875</ele>
        <time>2013-09-01T16:43:07.000Z</time>
        <extensions>
          <ns3:TrackPointExtension>
            <ns3:atemp>16.0</ns3:atemp>
          </ns3:TrackPointExtension>
        </extensions>
      </trkpt>
      <trkpt lat="46.8002100102603435516357421875" lon="6.90868453122675418853759765625">
        <ele>349</ele>
        <time>2013-09-01T16:43:08.000Z</time>
        <extensions>
          <ns3:TrackPointExtension>
            <ns3:atemp>16.0</ns3:atemp>
          </ns3:TrackPointExtension>
        </extensions>
      </trkpt>
      <trkpt lat="46.80017489008605480194091796875" lon="6.908641867339611053466796875">
        <ele>349.20001220703125</ele>
        <time>2013-09-01T16:43:09.000Z</time>
        <extensions>
          <ns3:TrackPointExtension>
            <ns3:atemp>16.0</ns3:atemp>
          </ns3:TrackPointExtension>
        </extensions>
      </trkpt>
      <trkpt lat="46.80013834498822689056396484375" lon="6.90859970636665821075439453125">
        <ele>349.20001220703125</ele>
        <time>2013-09-01T16:43:10.000Z</time>
        <extensions>
          <ns3:TrackPointExtension>
            <ns3:atemp>16.0</ns3:atemp>
          </ns3:TrackPointExtension>
        </extensions>
      </trkpt>
      <trkpt lat="46.80009978823363780975341796875" lon="6.90855436027050018310546875">
        <ele>349</ele>
        <time>2013-09-01T16:43:11.000Z</time>
        <extensions>
          <ns3:TrackPointExtension>
            <ns3:atemp>16.0</ns3:atemp>
          </ns3:TrackPointExtension>
        </extensions>
      </trkpt>
      <trkpt lat="46.80005921982228755950927734375" lon="6.908505074679851531982421875">
        <ele>349</ele>
        <time>2013-09-01T16:43:12.000Z</time>
        <extensions>
          <ns3:TrackPointExtension>
            <ns3:atemp>16.0</ns3:atemp>
          </ns3:TrackPointExtension>
        </extensions>
      </trkpt>
      <trkpt lat="46.8000138737261295318603515625" lon="6.90845109522342681884765625">
        <ele>349</ele>
        <time>2013-09-01T16:43:13.000Z</time>
        <extensions>
          <ns3:TrackPointExtension>
            <ns3:atemp>16.0</ns3:atemp>
          </ns3:TrackPointExtension>
        </extensions>
      </trkpt>
      <trkpt lat="46.79996534250676631927490234375" lon="6.90839367918670177459716796875">
        <ele>348.79998779296875</ele>
        <time>2013-09-01T16:43:14.000Z</time>
        <extensions>
          <ns3:TrackPointExtension>
            <ns3:atemp>16.0</ns3:atemp>
          </ns3:TrackPointExtension>
        </extensions>
      </trkpt>
      <trkpt lat="46.79991387762129306793212890625" lon="6.90833047963678836822509765625">
        <ele>348.399993896484375</ele>
        <time>2013-09-01T16:43:15.000Z</time>
        <extensions>
          <ns3:TrackPointExtension>
            <ns3:atemp>16.0</ns3:atemp>
          </ns3:TrackPointExtension>
        </extensions>
      </trkpt>
      <trkpt lat="46.79985922761261463165283203125" lon="6.90826199948787689208984375">
        <ele>348.20001220703125</ele>
        <time>2013-09-01T16:43:16.000Z</time>
        <extensions>
          <ns3:TrackPointExtension>
            <ns3:atemp>16.0</ns3:atemp>
          </ns3:TrackPointExtension>
        </extensions>
      </trkpt>
      <trkpt lat="46.799802817404270172119140625" lon="6.90819083712995052337646484375">
        <ele>348</ele>
        <time>2013-09-01T16:43:17.000Z</time>
        <extensions>
          <ns3:TrackPointExtension>
            <ns3:atemp>16.0</ns3:atemp>
          </ns3:TrackPointExtension>
        </extensions>
      </trkpt>
      <trkpt lat="46.79974489845335483551025390625" lon="6.9081186689436435699462890625">
        <ele>347.79998779296875</ele>
        <time>2013-09-01T16:43:18.000Z</time>
        <extensions>
          <ns3:TrackPointExtension>
            <ns3:atemp>16.0</ns3:atemp>
          </ns3:TrackPointExtension>
        </extensions>
      </trkpt>
      <trkpt lat="46.79968538694083690643310546875" lon="6.9080467522144317626953125">
        <ele>347.399993896484375</ele>
        <time>2013-09-01T16:43:19.000Z</time>
        <extensions>
          <ns3:TrackPointExtension>
            <ns3:atemp>16.0</ns3:atemp>
          </ns3:TrackPointExtension>
        </extensions>
      </trkpt>
      <trkpt lat="46.79962478578090667724609375" lon="6.90797190181910991668701171875">
        <ele>347.20001220703125</ele>
        <time>2013-09-01T16:43:20.000Z</time>
        <extensions>
          <ns3:TrackPointExtension>
            <ns3:atemp>16.0</ns3:atemp>
          </ns3:TrackPointExtension>
        </extensions>
      </trkpt>
      <trkpt lat="46.79956435225903987884521484375" lon="6.90790032036602497100830078125">
        <ele>347</ele>
        <time>2013-09-01T16:43:21.000Z</time>
        <extensions>
          <ns3:TrackPointExtension>
            <ns3:atemp>16.0</ns3:atemp>
          </ns3:TrackPointExtension>
        </extensions>
      </trkpt>
      <trkpt lat="46.79950383491814136505126953125" lon="6.90783460624516010284423828125">
        <ele>347</ele>
        <time>2013-09-01T16:43:22.000Z</time>
        <extensions>
          <ns3:TrackPointExtension>
            <ns3:atemp>16.0</ns3:atemp>
          </ns3:TrackPointExtension>
        </extensions>
      </trkpt>
      <trkpt lat="46.799443401396274566650390625" lon="6.907770149409770965576171875">
        <ele>347.20001220703125</ele>
        <time>2013-09-01T16:43:23.000Z</time>
        <extensions>
          <ns3:TrackPointExtension>
            <ns3:atemp>16.0</ns3:atemp>
          </ns3:TrackPointExtension>
        </extensions>
      </trkpt>
      <trkpt lat="46.79938615299761295318603515625" lon="6.90770410001277923583984375">
        <ele>347.20001220703125</ele>
        <time>2013-09-01T16:43:24.000Z</time>
        <extensions>
          <ns3:TrackPointExtension>
            <ns3:atemp>16.0</ns3:atemp>
          </ns3:TrackPointExtension>
        </extensions>
      </trkpt>
      <trkpt lat="46.79933049716055393218994140625" lon="6.9076390564441680908203125">
        <ele>347.20001220703125</ele>
        <time>2013-09-01T16:43:25.000Z</time>
        <extensions>
          <ns3:TrackPointExtension>
            <ns3:atemp>16.0</ns3:atemp>
          </ns3:TrackPointExtension>
        </extensions>
      </trkpt>
      <trkpt lat="46.79927475750446319580078125" lon="6.90757493488490581512451171875">
        <ele>346.79998779296875</ele>
        <time>2013-09-01T16:43:26.000Z</time>
        <extensions>
          <ns3:TrackPointExtension>
            <ns3:atemp>16.0</ns3:atemp>
          </ns3:TrackPointExtension>
        </extensions>
      </trkpt>
      <trkpt lat="46.799220778048038482666015625" lon="6.90751357935369014739990234375">
        <ele>346.399993896484375</ele>
        <time>2013-09-01T16:43:27.000Z</time>
        <extensions>
          <ns3:TrackPointExtension>
            <ns3:atemp>16.0</ns3:atemp>
          </ns3:TrackPointExtension>
        </extensions>
      </trkpt>
      <trkpt lat="46.7991662956774234771728515625" lon="6.9074534811079502105712890625">
        <ele>346.20001220703125</ele>
        <time>2013-09-01T16:43:28.000Z</time>
        <extensions>
          <ns3:TrackPointExtension>
            <ns3:atemp>16.0</ns3:atemp>
          </ns3:TrackPointExtension>
        </extensions>
      </trkpt>
      <trkpt lat="46.799115836620330810546875" lon="6.90739204175770282745361328125">
        <ele>346.20001220703125</ele>
        <time>2013-09-01T16:43:29.000Z</time>
        <extensions>
          <ns3:TrackPointExtension>
            <ns3:atemp>16.0</ns3:atemp>
          </ns3:TrackPointExtension>
        </extensions>
      </trkpt>
      <trkpt lat="46.7990824766457080841064453125" lon="6.907312162220478057861328125">
        <ele>346.20001220703125</ele>
        <time>2013-09-01T16:43:30.000Z</time>
        <extensions>
          <ns3:TrackPointExtension>
            <ns3:atemp>16.0</ns3:atemp>
          </ns3:TrackPointExtension>
        </extensions>
      </trkpt>
      <trkpt lat="46.7990764416754245758056640625" lon="6.9072254933416843414306640625">
        <ele>346.399993896484375</ele>
        <time>2013-09-01T16:43:31.000Z</time>
        <extensions>
          <ns3:TrackPointExtension>
            <ns3:atemp>16.0</ns3:atemp>
          </ns3:TrackPointExtension>
        </extensions>
      </trkpt>
      <trkpt lat="46.79908691905438899993896484375" lon="6.90714142285287380218505859375">
        <ele>346.600006103515625</ele>
        <time>2013-09-01T16:43:32.000Z</time>
        <extensions>
          <ns3:TrackPointExtension>
            <ns3:atemp>16.0</ns3:atemp>
          </ns3:TrackPointExtension>
        </extensions>
      </trkpt>
      <trkpt lat="46.79910636506974697113037109375" lon="6.9070628844201564788818359375">
        <ele>346.600006103515625</ele>
        <time>2013-09-01T16:43:33.000Z</time>
        <extensions>
          <ns3:TrackPointExtension>
            <ns3:atemp>16.0</ns3:atemp>
          </ns3:TrackPointExtension>
        </extensions>
      </trkpt>
      <trkpt lat="46.79912589490413665771484375" lon="6.90699071623384952545166015625">
        <ele>346.79998779296875</ele>
        <time>2013-09-01T16:43:34.000Z</time>
        <extensions>
          <ns3:TrackPointExtension>
            <ns3:atemp>16.0</ns3:atemp>
          </ns3:TrackPointExtension>
        </extensions>
      </trkpt>
      <trkpt lat="46.7991465143859386444091796875" lon="6.90692248754203319549560546875">
        <ele>347</ele>
        <time>2013-09-01T16:43:35.000Z</time>
        <extensions>
          <ns3:TrackPointExtension>
            <ns3:atemp>16.0</ns3:atemp>
          </ns3:TrackPointExtension>
        </extensions>
      </trkpt>
      <trkpt lat="46.79916738532483577728271484375" lon="6.90685895271599292755126953125">
        <ele>347</ele>
        <time>2013-09-01T16:43:36.000Z</time>
        <extensions>
          <ns3:TrackPointExtension>
            <ns3:atemp>16.0</ns3:atemp>
          </ns3:TrackPointExtension>
        </extensions>
      </trkpt>
      <trkpt lat="46.799189262092113494873046875" lon="6.9067990221083164215087890625">
        <ele>347.20001220703125</ele>
        <time>2013-09-01T16:43:37.000Z</time>
        <extensions>
          <ns3:TrackPointExtension>
            <ns3:atemp>16.0</ns3:atemp>
          </ns3:TrackPointExtension>
        </extensions>
      </trkpt>
      <trkpt lat="46.79921046830713748931884765625" lon="6.9067390076816082000732421875">
        <ele>347.399993896484375</ele>
        <time>2013-09-01T16:43:38.000Z</time>
        <extensions>
          <ns3:TrackPointExtension>
            <ns3:atemp>16.0</ns3:atemp>
          </ns3:TrackPointExtension>
        </extensions>
      </trkpt>
      <trkpt lat="46.7992299981415271759033203125" lon="6.9066799990832805633544921875">
        <ele>347.600006103515625</ele>
        <time>2013-09-01T16:43:39.000Z</time>
        <extensions>
          <ns3:TrackPointExtension>
            <ns3:atemp>16.0</ns3:atemp>
          </ns3:TrackPointExtension>
        </extensions>
      </trkpt>
      <trkpt lat="46.79925003089010715484619140625" lon="6.90662140958011150360107421875">
        <ele>348.20001220703125</ele>
        <time>2013-09-01T16:43:40.000Z</time>
        <extensions>
          <ns3:TrackPointExtension>
            <ns3:atemp>16.0</ns3:atemp>
          </ns3:TrackPointExtension>
        </extensions>
      </trkpt>
      <trkpt lat="46.79926981218159198760986328125" lon="6.906560473144054412841796875">
        <ele>348.399993896484375</ele>
        <time>2013-09-01T16:43:41.000Z</time>
        <extensions>
          <ns3:TrackPointExtension>
            <ns3:atemp>16.0</ns3:atemp>
          </ns3:TrackPointExtension>
        </extensions>
      </trkpt>
      <trkpt lat="46.7992890067398548126220703125" lon="6.90650045871734619140625">
        <ele>348.399993896484375</ele>
        <time>2013-09-01T16:43:42.000Z</time>
        <extensions>
          <ns3:TrackPointExtension>
            <ns3:atemp>16.0</ns3:atemp>
          </ns3:TrackPointExtension>
        </extensions>
      </trkpt>
      <trkpt lat="46.7993077822029590606689453125" lon="6.90644019283354282379150390625">
        <ele>348.399993896484375</ele>
        <time>2013-09-01T16:43:43.000Z</time>
        <extensions>
          <ns3:TrackPointExtension>
            <ns3:atemp>16.0</ns3:atemp>
          </ns3:TrackPointExtension>
        </extensions>
      </trkpt>
      <trkpt lat="46.79932714439928531646728515625" lon="6.9063789211213588714599609375">
        <ele>348.399993896484375</ele>
        <time>2013-09-01T16:43:44.000Z</time>
        <extensions>
          <ns3:TrackPointExtension>
            <ns3:atemp>16.0</ns3:atemp>
          </ns3:TrackPointExtension>
        </extensions>
      </trkpt>
      <trkpt lat="46.7993470095098018646240234375" lon="6.90631831996142864227294921875">
        <ele>348.600006103515625</ele>
        <time>2013-09-01T16:43:45.000Z</time>
        <extensions>
          <ns3:TrackPointExtension>
            <ns3:atemp>16.0</ns3:atemp>
          </ns3:TrackPointExtension>
        </extensions>
      </trkpt>
      <trkpt lat="46.7993671260774135589599609375" lon="6.90625838935375213623046875">
        <ele>348.79998779296875</ele>
        <time>2013-09-01T16:43:46.000Z</time>
        <extensions>
          <ns3:TrackPointExtension>
            <ns3:atemp>16.0</ns3:atemp>
          </ns3:TrackPointExtension>
        </extensions>
      </trkpt>
      <trkpt lat="46.7993848957121372222900390625" lon="6.90619762055575847625732421875">
        <ele>349</ele>
        <time>2013-09-01T16:43:47.000Z</time>
        <extensions>
          <ns3:TrackPointExtension>
            <ns3:atemp>16.0</ns3:atemp>
          </ns3:TrackPointExtension>
        </extensions>
      </trkpt>
      <trkpt lat="46.7994013242423534393310546875" lon="6.9061348401010036468505859375">
        <ele>349.20001220703125</ele>
        <time>2013-09-01T16:43:48.000Z</time>
        <extensions>
          <ns3:TrackPointExtension>
            <ns3:atemp>16.0</ns3:atemp>
          </ns3:TrackPointExtension>
        </extensions>
      </trkpt>
      <trkpt lat="46.79941850714385509490966796875" lon="6.90607038326561450958251953125">
        <ele>349.20001220703125</ele>
        <time>2013-09-01T16:43:49.000Z</time>
        <extensions>
          <ns3:TrackPointExtension>
            <ns3:atemp>16.0</ns3:atemp>
          </ns3:TrackPointExtension>
        </extensions>
      </trkpt>
      <trkpt lat="46.79943434894084930419921875" lon="6.9060057587921619415283203125">
        <ele>349.600006103515625</ele>
        <time>2013-09-01T16:43:50.000Z</time>
        <extensions>
          <ns3:TrackPointExtension>
            <ns3:atemp>16.0</ns3:atemp>
          </ns3:TrackPointExtension>
        </extensions>
      </trkpt>
      <trkpt lat="46.79944901727139949798583984375" lon="6.905941553413867950439453125">
        <ele>349.600006103515625</ele>
        <time>2013-09-01T16:43:51.000Z</time>
        <extensions>
          <ns3:TrackPointExtension>
            <ns3:atemp>16.0</ns3:atemp>
          </ns3:TrackPointExtension>
        </extensions>
      </trkpt>
      <trkpt lat="46.79946259595453739166259765625" lon="6.9058773480355739593505859375">
        <ele>349.79998779296875</ele>
        <time>2013-09-01T16:43:52.000Z</time>
        <extensions>
          <ns3:TrackPointExtension>
            <ns3:atemp>16.0</ns3:atemp>
          </ns3:TrackPointExtension>
        </extensions>
      </trkpt>
      <trkpt lat="46.79947483353316783905029296875" lon="6.90581473521888256072998046875">
        <ele>349.79998779296875</ele>
        <time>2013-09-01T16:43:53.000Z</time>
        <extensions>
          <ns3:TrackPointExtension>
            <ns3:atemp>16.0</ns3:atemp>
          </ns3:TrackPointExtension>
        </extensions>
      </trkpt>
      <trkpt lat="46.79948673583567142486572265625" lon="6.90575052984058856964111328125">
        <ele>349.79998779296875</ele>
        <time>2013-09-01T16:43:54.000Z</time>
        <extensions>
          <ns3:TrackPointExtension>
            <ns3:atemp>16.0</ns3:atemp>
          </ns3:TrackPointExtension>
        </extensions>
      </trkpt>
      <trkpt lat="46.7994985543191432952880859375" lon="6.90568615682423114776611328125">
        <ele>350</ele>
        <time>2013-09-01T16:43:55.000Z</time>
        <extensions>
          <ns3:TrackPointExtension>
            <ns3:atemp>16.0</ns3:atemp>
          </ns3:TrackPointExtension>
        </extensions>
      </trkpt>
      <trkpt lat="46.7995106242597103118896484375" lon="6.905622370541095733642578125">
        <ele>350</ele>
        <time>2013-09-01T16:43:56.000Z</time>
        <extensions>
          <ns3:TrackPointExtension>
            <ns3:atemp>16.0</ns3:atemp>
          </ns3:TrackPointExtension>
        </extensions>
      </trkpt>
      <trkpt lat="46.7995223589241504669189453125" lon="6.9055578298866748809814453125">
        <ele>350.20001220703125</ele>
        <time>2013-09-01T16:43:57.000Z</time>
        <extensions>
          <ns3:TrackPointExtension>
            <ns3:atemp>16.0</ns3:atemp>
          </ns3:TrackPointExtension>
        </extensions>
      </trkpt>
      <trkpt lat="46.79953350685536861419677734375" lon="6.90549622289836406707763671875">
        <ele>350.399993896484375</ele>
        <time>2013-09-01T16:43:58.000Z</time>
        <extensions>
          <ns3:TrackPointExtension>
            <ns3:atemp>16.0</ns3:atemp>
          </ns3:TrackPointExtension>
        </extensions>
      </trkpt>
      <trkpt lat="46.799543984234333038330078125" lon="6.9054334424436092376708984375">
        <ele>350.600006103515625</ele>
        <time>2013-09-01T16:43:59.000Z</time>
        <extensions>
          <ns3:TrackPointExtension>
            <ns3:atemp>16.0</ns3:atemp>
          </ns3:TrackPointExtension>
        </extensions>
      </trkpt>
      <trkpt lat="46.7995532043278217315673828125" lon="6.90537200309336185455322265625">
        <ele>350.600006103515625</ele>
        <time>2013-09-01T16:44:00.000Z</time>
        <extensions>
          <ns3:TrackPointExtension>
            <ns3:atemp>16.0</ns3:atemp>
          </ns3:TrackPointExtension>
        </extensions>
      </trkpt>
      <trkpt lat="46.79955932311713695526123046875" lon="6.905311904847621917724609375">
        <ele>351</ele>
        <time>2013-09-01T16:44:01.000Z</time>
        <extensions>
          <ns3:TrackPointExtension>
            <ns3:atemp>16.0</ns3:atemp>
          </ns3:TrackPointExtension>
        </extensions>
      </trkpt>
      <trkpt lat="46.7995659448206424713134765625" lon="6.9052545726299285888671875">
        <ele>351.20001220703125</ele>
        <time>2013-09-01T16:44:02.000Z</time>
        <extensions>
          <ns3:TrackPointExtension>
            <ns3:atemp>16.0</ns3:atemp>
          </ns3:TrackPointExtension>
        </extensions>
      </trkpt>
      <trkpt lat="46.7995743267238140106201171875" lon="6.90520000644028186798095703125">
        <ele>351.20001220703125</ele>
        <time>2013-09-01T16:44:03.000Z</time>
        <extensions>
          <ns3:TrackPointExtension>
            <ns3:atemp>16.0</ns3:atemp>
          </ns3:TrackPointExtension>
        </extensions>
      </trkpt>
      <trkpt lat="46.7995857261121273040771484375" lon="6.90514787100255489349365234375">
        <ele>351.399993896484375</ele>
        <time>2013-09-01T16:44:04.000Z</time>
        <extensions>
          <ns3:TrackPointExtension>
            <ns3:atemp>16.0</ns3:atemp>
          </ns3:TrackPointExtension>
        </extensions>
      </trkpt>
      <trkpt lat="46.79959586821496486663818359375" lon="6.90509506501257419586181640625">
        <ele>351.600006103515625</ele>
        <time>2013-09-01T16:44:05.000Z</time>
        <extensions>
          <ns3:TrackPointExtension>
            <ns3:atemp>16.0</ns3:atemp>
          </ns3:TrackPointExtension>
        </extensions>
      </trkpt>
      <trkpt lat="46.7996031604707241058349609375" lon="6.90504410304129123687744140625">
        <ele>352</ele>
        <time>2013-09-01T16:44:06.000Z</time>
        <extensions>
          <ns3:TrackPointExtension>
            <ns3:atemp>16.0</ns3:atemp>
          </ns3:TrackPointExtension>
        </extensions>
      </trkpt>
      <trkpt lat="46.79960944689810276031494140625" lon="6.9049943983554840087890625">
        <ele>352.20001220703125</ele>
        <time>2013-09-01T16:44:07.000Z</time>
        <extensions>
          <ns3:TrackPointExtension>
            <ns3:atemp>16.0</ns3:atemp>
          </ns3:TrackPointExtension>
        </extensions>
      </trkpt>
      <trkpt lat="46.79961782880127429962158203125" lon="6.904947459697723388671875">
        <ele>352.399993896484375</ele>
        <time>2013-09-01T16:44:08.000Z</time>
        <extensions>
          <ns3:TrackPointExtension>
            <ns3:atemp>16.0</ns3:atemp>
          </ns3:TrackPointExtension>
        </extensions>
      </trkpt>
      <trkpt lat="46.79962906055152416229248046875" lon="6.9049000181257724761962890625">
        <ele>352.600006103515625</ele>
        <time>2013-09-01T16:44:09.000Z</time>
        <extensions>
          <ns3:TrackPointExtension>
            <ns3:atemp>16.0</ns3:atemp>
          </ns3:TrackPointExtension>
        </extensions>
      </trkpt>
      <trkpt lat="46.79963811300694942474365234375" lon="6.904851235449314117431640625">
        <ele>352.79998779296875</ele>
        <time>2013-09-01T16:44:10.000Z</time>
        <extensions>
          <ns3:TrackPointExtension>
            <ns3:atemp>16.0</ns3:atemp>
          </ns3:TrackPointExtension>
        </extensions>
      </trkpt>
      <trkpt lat="46.7996443994343280792236328125" lon="6.9048021174967288970947265625">
        <ele>353.20001220703125</ele>
        <time>2013-09-01T16:44:11.000Z</time>
        <extensions>
          <ns3:TrackPointExtension>
            <ns3:atemp>16.0</ns3:atemp>
          </ns3:TrackPointExtension>
        </extensions>
      </trkpt>
      <trkpt lat="46.79965085349977016448974609375" lon="6.90474973060190677642822265625">
        <ele>353.399993896484375</ele>
        <time>2013-09-01T16:44:12.000Z</time>
        <extensions>
          <ns3:TrackPointExtension>
            <ns3:atemp>16.0</ns3:atemp>
          </ns3:TrackPointExtension>
        </extensions>
      </trkpt>
      <trkpt lat="46.79965940304100513458251953125" lon="6.904701031744480133056640625">
        <ele>353.79998779296875</ele>
        <time>2013-09-01T16:44:13.000Z</time>
        <extensions>
          <ns3:TrackPointExtension>
            <ns3:atemp>16.0</ns3:atemp>
          </ns3:TrackPointExtension>
        </extensions>
      </trkpt>
      <trkpt lat="46.79966904222965240478515625" lon="6.9046435318887233734130859375">
        <ele>354</ele>
        <time>2013-09-01T16:44:14.000Z</time>
        <extensions>
          <ns3:TrackPointExtension>
            <ns3:atemp>16.0</ns3:atemp>
          </ns3:TrackPointExtension>
        </extensions>
      </trkpt>
      <trkpt lat="46.79967834614217281341552734375" lon="6.90458795987069606781005859375">
        <ele>354.399993896484375</ele>
        <time>2013-09-01T16:44:15.000Z</time>
        <extensions>
          <ns3:TrackPointExtension>
            <ns3:atemp>16.0</ns3:atemp>
          </ns3:TrackPointExtension>
        </extensions>
      </trkpt>
      <trkpt lat="46.79968873970210552215576171875" lon="6.9045328907668590545654296875">
        <ele>354.79998779296875</ele>
        <time>2013-09-01T16:44:16.000Z</time>
        <extensions>
          <ns3:TrackPointExtension>
            <ns3:atemp>16.0</ns3:atemp>
          </ns3:TrackPointExtension>
        </extensions>
      </trkpt>
      <trkpt lat="46.79969863034784793853759765625" lon="6.90447832457721233367919921875">
        <ele>355.20001220703125</ele>
        <time>2013-09-01T16:44:17.000Z</time>
        <extensions>
          <ns3:TrackPointExtension>
            <ns3:atemp>16.0</ns3:atemp>
          </ns3:TrackPointExtension>
        </extensions>
      </trkpt>
      <trkpt lat="46.79970801807940006256103515625" lon="6.90442350693047046661376953125">
        <ele>355.20001220703125</ele>
        <time>2013-09-01T16:44:18.000Z</time>
        <extensions>
          <ns3:TrackPointExtension>
            <ns3:atemp>16.0</ns3:atemp>
          </ns3:TrackPointExtension>
        </extensions>
      </trkpt>
      <trkpt lat="46.7997178249061107635498046875" lon="6.9043699465692043304443359375">
        <ele>355.399993896484375</ele>
        <time>2013-09-01T16:44:19.000Z</time>
        <extensions>
          <ns3:TrackPointExtension>
            <ns3:atemp>16.0</ns3:atemp>
          </ns3:TrackPointExtension>
        </extensions>
      </trkpt>
      <trkpt lat="46.79972796700894832611083984375" lon="6.904318816959857940673828125">
        <ele>355.600006103515625</ele>
        <time>2013-09-01T16:44:20.000Z</time>
        <extensions>
          <ns3:TrackPointExtension>
            <ns3:atemp>16.0</ns3:atemp>
          </ns3:TrackPointExtension>
        </extensions>
      </trkpt>
      <trkpt lat="46.7997379414737224578857421875" lon="6.9042673520743846893310546875">
        <ele>355.79998779296875</ele>
        <time>2013-09-01T16:44:21.000Z</time>
        <extensions>
          <ns3:TrackPointExtension>
            <ns3:atemp>16.0</ns3:atemp>
          </ns3:TrackPointExtension>
        </extensions>
      </trkpt>
      <trkpt lat="46.79974640719592571258544921875" lon="6.90421580336987972259521484375">
        <ele>356</ele>
        <time>2013-09-01T16:44:22.000Z</time>
        <extensions>
          <ns3:TrackPointExtension>
            <ns3:atemp>16.0</ns3:atemp>
          </ns3:TrackPointExtension>
        </extensions>
      </trkpt>
      <trkpt lat="46.7997536994516849517822265625" lon="6.90416065044701099395751953125">
        <ele>356</ele>
        <time>2013-09-01T16:44:23.000Z</time>
        <extensions>
          <ns3:TrackPointExtension>
            <ns3:atemp>16.0</ns3:atemp>
          </ns3:TrackPointExtension>
        </extensions>
      </trkpt>
      <trkpt lat="46.799761243164539337158203125" lon="6.904106251895427703857421875">
        <ele>356.399993896484375</ele>
        <time>2013-09-01T16:44:24.000Z</time>
        <extensions>
          <ns3:TrackPointExtension>
            <ns3:atemp>16.0</ns3:atemp>
          </ns3:TrackPointExtension>
        </extensions>
      </trkpt>
      <trkpt lat="46.7997701279819011688232421875" lon="6.90405436791479587554931640625">
        <ele>356.79998779296875</ele>
        <time>2013-09-01T16:44:25.000Z</time>
        <extensions>
          <ns3:TrackPointExtension>
            <ns3:atemp>16.0</ns3:atemp>
          </ns3:TrackPointExtension>
        </extensions>
      </trkpt>
      <trkpt lat="46.79977876134216785430908203125" lon="6.90400223247706890106201171875">
        <ele>357</ele>
        <time>2013-09-01T16:44:26.000Z</time>
        <extensions>
          <ns3:TrackPointExtension>
            <ns3:atemp>16.0</ns3:atemp>
          </ns3:TrackPointExtension>
        </extensions>
      </trkpt>
      <trkpt lat="46.79978705942630767822265625" lon="6.903950013220310211181640625">
        <ele>357.20001220703125</ele>
        <time>2013-09-01T16:44:27.000Z</time>
        <extensions>
          <ns3:TrackPointExtension>
            <ns3:atemp>16.0</ns3:atemp>
          </ns3:TrackPointExtension>
        </extensions>
      </trkpt>
      <trkpt lat="46.799796782433986663818359375" lon="6.90389804542064666748046875">
        <ele>357.399993896484375</ele>
        <time>2013-09-01T16:44:28.000Z</time>
        <extensions>
          <ns3:TrackPointExtension>
            <ns3:atemp>16.0</ns3:atemp>
          </ns3:TrackPointExtension>
        </extensions>
      </trkpt>
      <trkpt lat="46.79980675689876079559326171875" lon="6.90384666435420513153076171875">
        <ele>357.79998779296875</ele>
        <time>2013-09-01T16:44:29.000Z</time>
        <extensions>
          <ns3:TrackPointExtension>
            <ns3:atemp>16.0</ns3:atemp>
          </ns3:TrackPointExtension>
        </extensions>
      </trkpt>
      <trkpt lat="46.799816899001598358154296875" lon="6.9037927687168121337890625">
        <ele>358</ele>
        <time>2013-09-01T16:44:30.000Z</time>
        <extensions>
          <ns3:TrackPointExtension>
            <ns3:atemp>16.0</ns3:atemp>
          </ns3:TrackPointExtension>
        </extensions>
      </trkpt>
      <trkpt lat="46.7998264543712139129638671875" lon="6.90374113619327545166015625">
        <ele>358.20001220703125</ele>
        <time>2013-09-01T16:44:31.000Z</time>
        <extensions>
          <ns3:TrackPointExtension>
            <ns3:atemp>16.0</ns3:atemp>
          </ns3:TrackPointExtension>
        </extensions>
      </trkpt>
      <trkpt lat="46.79983668029308319091796875" lon="6.90368958748877048492431640625">
        <ele>358.20001220703125</ele>
        <time>2013-09-01T16:44:32.000Z</time>
        <extensions>
          <ns3:TrackPointExtension>
            <ns3:atemp>16.0</ns3:atemp>
          </ns3:TrackPointExtension>
        </extensions>
      </trkpt>
      <trkpt lat="46.79984581656754016876220703125" lon="6.9036380387842655181884765625">
        <ele>358.20001220703125</ele>
        <time>2013-09-01T16:44:33.000Z</time>
        <extensions>
          <ns3:TrackPointExtension>
            <ns3:atemp>16.0</ns3:atemp>
          </ns3:TrackPointExtension>
        </extensions>
      </trkpt>
      <trkpt lat="46.79985352791845798492431640625" lon="6.903584897518157958984375">
        <ele>358.399993896484375</ele>
        <time>2013-09-01T16:44:34.000Z</time>
        <extensions>
          <ns3:TrackPointExtension>
            <ns3:atemp>16.0</ns3:atemp>
          </ns3:TrackPointExtension>
        </extensions>
      </trkpt>
      <trkpt lat="46.799862496554851531982421875" lon="6.903533600270748138427734375">
        <ele>358.399993896484375</ele>
        <time>2013-09-01T16:44:35.000Z</time>
        <extensions>
          <ns3:TrackPointExtension>
            <ns3:atemp>16.0</ns3:atemp>
          </ns3:TrackPointExtension>
        </extensions>
      </trkpt>
      <trkpt lat="46.79987280629575252532958984375" lon="6.90348188392817974090576171875">
        <ele>358.399993896484375</ele>
        <time>2013-09-01T16:44:36.000Z</time>
        <extensions>
          <ns3:TrackPointExtension>
            <ns3:atemp>16.0</ns3:atemp>
          </ns3:TrackPointExtension>
        </extensions>
      </trkpt>
      <trkpt lat="46.79988135583698749542236328125" lon="6.90342874266207218170166015625">
        <ele>358.600006103515625</ele>
        <time>2013-09-01T16:44:37.000Z</time>
        <extensions>
          <ns3:TrackPointExtension>
            <ns3:atemp>16.0</ns3:atemp>
          </ns3:TrackPointExtension>
        </extensions>
      </trkpt>
      <trkpt lat="46.7998901568353176116943359375" lon="6.903375685214996337890625">
        <ele>359</ele>
        <time>2013-09-01T16:44:38.000Z</time>
        <extensions>
          <ns3:TrackPointExtension>
            <ns3:atemp>16.0</ns3:atemp>
          </ns3:TrackPointExtension>
        </extensions>
      </trkpt>
      <trkpt lat="46.79990147240459918975830078125" lon="6.90332346595823764801025390625">
        <ele>359.399993896484375</ele>
        <time>2013-09-01T16:44:39.000Z</time>
        <extensions>
          <ns3:TrackPointExtension>
            <ns3:atemp>16.0</ns3:atemp>
          </ns3:TrackPointExtension>
        </extensions>
      </trkpt>
      <trkpt lat="46.799910105764865875244140625" lon="6.9032709114253520965576171875">
        <ele>359.399993896484375</ele>
        <time>2013-09-01T16:44:40.000Z</time>
        <extensions>
          <ns3:TrackPointExtension>
            <ns3:atemp>16.0</ns3:atemp>
          </ns3:TrackPointExtension>
        </extensions>
      </trkpt>
      <trkpt lat="46.79991907440125942230224609375" lon="6.9032179377973079681396484375">
        <ele>359.600006103515625</ele>
        <time>2013-09-01T16:44:41.000Z</time>
        <extensions>
          <ns3:TrackPointExtension>
            <ns3:atemp>16.0</ns3:atemp>
          </ns3:TrackPointExtension>
        </extensions>
      </trkpt>
      <trkpt lat="46.799930222332477569580078125" lon="6.9031669758260250091552734375">
        <ele>359.600006103515625</ele>
        <time>2013-09-01T16:44:42.000Z</time>
        <extensions>
          <ns3:TrackPointExtension>
            <ns3:atemp>16.0</ns3:atemp>
          </ns3:TrackPointExtension>
        </extensions>
      </trkpt>
      <trkpt lat="46.7999394424259662628173828125" lon="6.90311752259731292724609375">
        <ele>359.600006103515625</ele>
        <time>2013-09-01T16:44:43.000Z</time>
        <extensions>
          <ns3:TrackPointExtension>
            <ns3:atemp>16.0</ns3:atemp>
          </ns3:TrackPointExtension>
        </extensions>
      </trkpt>
      <trkpt lat="46.799948997795581817626953125" lon="6.903066895902156829833984375">
        <ele>359.399993896484375</ele>
        <time>2013-09-01T16:44:44.000Z</time>
        <extensions>
          <ns3:TrackPointExtension>
            <ns3:atemp>16.0</ns3:atemp>
          </ns3:TrackPointExtension>
        </extensions>
      </trkpt>
      <trkpt lat="46.79995863698422908782958984375" lon="6.90301786176860332489013671875">
        <ele>359.399993896484375</ele>
        <time>2013-09-01T16:44:45.000Z</time>
        <extensions>
          <ns3:TrackPointExtension>
            <ns3:atemp>16.0</ns3:atemp>
          </ns3:TrackPointExtension>
        </extensions>
      </trkpt>
      <trkpt lat="46.7999722994863986968994140625" lon="6.90296824090182781219482421875">
        <ele>359.399993896484375</ele>
        <time>2013-09-01T16:44:46.000Z</time>
        <extensions>
          <ns3:TrackPointExtension>
            <ns3:atemp>16.0</ns3:atemp>
          </ns3:TrackPointExtension>
        </extensions>
      </trkpt>
      <trkpt lat="46.79998445324599742889404296875" lon="6.90291778184473514556884765625">
        <ele>359.399993896484375</ele>
        <time>2013-09-01T16:44:47.000Z</time>
        <extensions>
          <ns3:TrackPointExtension>
            <ns3:atemp>16.0</ns3:atemp>
          </ns3:TrackPointExtension>
        </extensions>
      </trkpt>
      <trkpt lat="46.79999283514916896820068359375" lon="6.90286514349281787872314453125">
        <ele>359.600006103515625</ele>
        <time>2013-09-01T16:44:48.000Z</time>
        <extensions>
          <ns3:TrackPointExtension>
            <ns3:atemp>16.0</ns3:atemp>
          </ns3:TrackPointExtension>
        </extensions>
      </trkpt>
      <trkpt lat="46.8000041507184505462646484375" lon="6.9028137624263763427734375">
        <ele>360</ele>
        <time>2013-09-01T16:44:49.000Z</time>
        <extensions>
          <ns3:TrackPointExtension>
            <ns3:atemp>16.0</ns3:atemp>
          </ns3:TrackPointExtension>
        </extensions>
      </trkpt>
      <trkpt lat="46.8000158853828907012939453125" lon="6.90276254899799823760986328125">
        <ele>360.20001220703125</ele>
        <time>2013-09-01T16:44:50.000Z</time>
        <extensions>
          <ns3:TrackPointExtension>
            <ns3:atemp>16.0</ns3:atemp>
          </ns3:TrackPointExtension>
        </extensions>
      </trkpt>
      <trkpt lat="46.80002267472445964813232421875" lon="6.90270907245576381683349609375">
        <ele>360.399993896484375</ele>
        <time>2013-09-01T16:44:51.000Z</time>
        <extensions>
          <ns3:TrackPointExtension>
            <ns3:atemp>16.0</ns3:atemp>
          </ns3:TrackPointExtension>
        </extensions>
      </trkpt>
      <trkpt lat="46.80003122426569461822509765625" lon="6.9026563502848148345947265625">
        <ele>360.600006103515625</ele>
        <time>2013-09-01T16:44:52.000Z</time>
        <extensions>
          <ns3:TrackPointExtension>
            <ns3:atemp>16.0</ns3:atemp>
          </ns3:TrackPointExtension>
        </extensions>
      </trkpt>
      <trkpt lat="46.8000400252640247344970703125" lon="6.9026045501232147216796875">
        <ele>361</ele>
        <time>2013-09-01T16:44:53.000Z</time>
        <extensions>
          <ns3:TrackPointExtension>
            <ns3:atemp>16.0</ns3:atemp>
          </ns3:TrackPointExtension>
        </extensions>
      </trkpt>
      <trkpt lat="46.800046227872371673583984375" lon="6.90255350433290004730224609375">
        <ele>361.20001220703125</ele>
        <time>2013-09-01T16:44:54.000Z</time>
        <extensions>
          <ns3:TrackPointExtension>
            <ns3:atemp>16.0</ns3:atemp>
          </ns3:TrackPointExtension>
        </extensions>
      </trkpt>
      <trkpt lat="46.8000527657568454742431640625" lon="6.9025017879903316497802734375">
        <ele>361.399993896484375</ele>
        <time>2013-09-01T16:44:55.000Z</time>
        <extensions>
          <ns3:TrackPointExtension>
            <ns3:atemp>16.0</ns3:atemp>
          </ns3:TrackPointExtension>
        </extensions>
      </trkpt>
      <trkpt lat="46.8000611476600170135498046875" lon="6.90244956873357295989990234375">
        <ele>361.600006103515625</ele>
        <time>2013-09-01T16:44:56.000Z</time>
        <extensions>
          <ns3:TrackPointExtension>
            <ns3:atemp>16.0</ns3:atemp>
          </ns3:TrackPointExtension>
        </extensions>
      </trkpt>
      <trkpt lat="46.8000702001154422760009765625" lon="6.902398355305194854736328125">
        <ele>361.600006103515625</ele>
        <time>2013-09-01T16:44:57.000Z</time>
        <extensions>
          <ns3:TrackPointExtension>
            <ns3:atemp>16.0</ns3:atemp>
          </ns3:TrackPointExtension>
        </extensions>
      </trkpt>
      <trkpt lat="46.80007866583764553070068359375" lon="6.90234596841037273406982421875">
        <ele>361.79998779296875</ele>
        <time>2013-09-01T16:44:58.000Z</time>
        <extensions>
          <ns3:TrackPointExtension>
            <ns3:atemp>16.0</ns3:atemp>
          </ns3:TrackPointExtension>
        </extensions>
      </trkpt>
      <trkpt lat="46.800086796283721923828125" lon="6.9022959284484386444091796875">
        <ele>362</ele>
        <time>2013-09-01T16:44:59.000Z</time>
        <extensions>
          <ns3:TrackPointExtension>
            <ns3:atemp>16.0</ns3:atemp>
          </ns3:TrackPointExtension>
        </extensions>
      </trkpt>
      <trkpt lat="46.8000948429107666015625" lon="6.9022459723055362701416015625">
        <ele>362.399993896484375</ele>
        <time>2013-09-01T16:45:00.000Z</time>
        <extensions>
          <ns3:TrackPointExtension>
            <ns3:atemp>16.0</ns3:atemp>
          </ns3:TrackPointExtension>
        </extensions>
      </trkpt>
      <trkpt lat="46.80010297335684299468994140625" lon="6.90219660289585590362548828125">
        <ele>362.600006103515625</ele>
        <time>2013-09-01T16:45:01.000Z</time>
        <extensions>
          <ns3:TrackPointExtension>
            <ns3:atemp>16.0</ns3:atemp>
          </ns3:TrackPointExtension>
        </extensions>
      </trkpt>
      <trkpt lat="46.80011319927871227264404296875" lon="6.9021467305719852447509765625">
        <ele>362.79998779296875</ele>
        <time>2013-09-01T16:45:02.000Z</time>
        <extensions>
          <ns3:TrackPointExtension>
            <ns3:atemp>16.0</ns3:atemp>
          </ns3:TrackPointExtension>
        </extensions>
      </trkpt>
      <trkpt lat="46.80012392811477184295654296875" lon="6.90209602005779743194580078125">
        <ele>363.20001220703125</ele>
        <time>2013-09-01T16:45:03.000Z</time>
        <extensions>
          <ns3:TrackPointExtension>
            <ns3:atemp>16.0</ns3:atemp>
          </ns3:TrackPointExtension>
        </extensions>
      </trkpt>
      <trkpt lat="46.8001339025795459747314453125" lon="6.9020458124577999114990234375">
        <ele>363.399993896484375</ele>
        <time>2013-09-01T16:45:04.000Z</time>
        <extensions>
          <ns3:TrackPointExtension>
            <ns3:atemp>16.0</ns3:atemp>
          </ns3:TrackPointExtension>
        </extensions>
      </trkpt>
      <trkpt lat="46.80014471523463726043701171875" lon="6.90199610777199268341064453125">
        <ele>363.79998779296875</ele>
        <time>2013-09-01T16:45:05.000Z</time>
        <extensions>
          <ns3:TrackPointExtension>
            <ns3:atemp>16.0</ns3:atemp>
          </ns3:TrackPointExtension>
        </extensions>
      </trkpt>
      <trkpt lat="46.80015175603330135345458984375" lon="6.90194313414394855499267578125">
        <ele>364</ele>
        <time>2013-09-01T16:45:06.000Z</time>
        <extensions>
          <ns3:TrackPointExtension>
            <ns3:atemp>16.0</ns3:atemp>
          </ns3:TrackPointExtension>
        </extensions>
      </trkpt>
      <trkpt lat="46.80015795864164829254150390625" lon="6.90189041197299957275390625">
        <ele>364.399993896484375</ele>
        <time>2013-09-01T16:45:07.000Z</time>
        <extensions>
          <ns3:TrackPointExtension>
            <ns3:atemp>16.0</ns3:atemp>
          </ns3:TrackPointExtension>
        </extensions>
      </trkpt>
      <trkpt lat="46.80016667582094669342041015625" lon="6.90184020437300205230712890625">
        <ele>364.600006103515625</ele>
        <time>2013-09-01T16:45:08.000Z</time>
        <extensions>
          <ns3:TrackPointExtension>
            <ns3:atemp>16.0</ns3:atemp>
          </ns3:TrackPointExtension>
        </extensions>
      </trkpt>
      <trkpt lat="46.80017505772411823272705078125" lon="6.90178957767784595489501953125">
        <ele>364.79998779296875</ele>
        <time>2013-09-01T16:45:09.000Z</time>
        <extensions>
          <ns3:TrackPointExtension>
            <ns3:atemp>16.0</ns3:atemp>
          </ns3:TrackPointExtension>
        </extensions>
      </trkpt>
      <trkpt lat="46.80018268525600433349609375" lon="6.90173861570656299591064453125">
        <ele>365</ele>
        <time>2013-09-01T16:45:10.000Z</time>
        <extensions>
          <ns3:TrackPointExtension>
            <ns3:atemp>16.0</ns3:atemp>
          </ns3:TrackPointExtension>
        </extensions>
      </trkpt>
      <trkpt lat="46.80019073188304901123046875" lon="6.90168865956366062164306640625">
        <ele>365</ele>
        <time>2013-09-01T16:45:11.000Z</time>
        <extensions>
          <ns3:TrackPointExtension>
            <ns3:atemp>16.0</ns3:atemp>
          </ns3:TrackPointExtension>
        </extensions>
      </trkpt>
      <trkpt lat="46.80020087398588657379150390625" lon="6.90163719467818737030029296875">
        <ele>365.399993896484375</ele>
        <time>2013-09-01T16:45:12.000Z</time>
        <extensions>
          <ns3:TrackPointExtension>
            <ns3:atemp>16.0</ns3:atemp>
          </ns3:TrackPointExtension>
        </extensions>
      </trkpt>
      <trkpt lat="46.8002093397080898284912109375" lon="6.90158732235431671142578125">
        <ele>365.399993896484375</ele>
        <time>2013-09-01T16:45:13.000Z</time>
        <extensions>
          <ns3:TrackPointExtension>
            <ns3:atemp>16.0</ns3:atemp>
          </ns3:TrackPointExtension>
        </extensions>
      </trkpt>
      <trkpt lat="46.80021747015416622161865234375" lon="6.901538707315921783447265625">
        <ele>365.79998779296875</ele>
        <time>2013-09-01T16:45:14.000Z</time>
        <extensions>
          <ns3:TrackPointExtension>
            <ns3:atemp>16.0</ns3:atemp>
          </ns3:TrackPointExtension>
        </extensions>
      </trkpt>
      <trkpt lat="46.80022451095283031463623046875" lon="6.9014916010200977325439453125">
        <ele>365.79998779296875</ele>
        <time>2013-09-01T16:45:15.000Z</time>
        <extensions>
          <ns3:TrackPointExtension>
            <ns3:atemp>16.0</ns3:atemp>
          </ns3:TrackPointExtension>
        </extensions>
      </trkpt>
      <trkpt lat="46.8002348206937313079833984375" lon="6.90144591964781284332275390625">
        <ele>366.20001220703125</ele>
        <time>2013-09-01T16:45:16.000Z</time>
        <extensions>
          <ns3:TrackPointExtension>
            <ns3:atemp>16.0</ns3:atemp>
          </ns3:TrackPointExtension>
        </extensions>
      </trkpt>
      <trkpt lat="46.80024395696818828582763671875" lon="6.90140132792294025421142578125">
        <ele>366.399993896484375</ele>
        <time>2013-09-01T16:45:17.000Z</time>
        <extensions>
          <ns3:TrackPointExtension>
            <ns3:atemp>16.0</ns3:atemp>
          </ns3:TrackPointExtension>
        </extensions>
      </trkpt>
      <trkpt lat="46.800254099071025848388671875" lon="6.9013595022261142730712890625">
        <ele>366.600006103515625</ele>
        <time>2013-09-01T16:45:18.000Z</time>
        <extensions>
          <ns3:TrackPointExtension>
            <ns3:atemp>16.0</ns3:atemp>
          </ns3:TrackPointExtension>
        </extensions>
      </trkpt>
      <trkpt lat="46.8002624809741973876953125" lon="6.901319436728954315185546875">
        <ele>367</ele>
        <time>2013-09-01T16:45:19.000Z</time>
        <extensions>
          <ns3:TrackPointExtension>
            <ns3:atemp>16.0</ns3:atemp>
          </ns3:TrackPointExtension>
        </extensions>
      </trkpt>
      <trkpt lat="46.80027186870574951171875" lon="6.90127794630825519561767578125">
        <ele>367.20001220703125</ele>
        <time>2013-09-01T16:45:20.000Z</time>
        <extensions>
          <ns3:TrackPointExtension>
            <ns3:atemp>16.0</ns3:atemp>
          </ns3:TrackPointExtension>
        </extensions>
      </trkpt>
      <trkpt lat="46.8002780713140964508056640625" lon="6.90123721025884151458740234375">
        <ele>367.399993896484375</ele>
        <time>2013-09-01T16:45:21.000Z</time>
        <extensions>
          <ns3:TrackPointExtension>
            <ns3:atemp>16.0</ns3:atemp>
          </ns3:TrackPointExtension>
        </extensions>
      </trkpt>
      <trkpt lat="46.80028460919857025146484375" lon="6.9011968933045864105224609375">
        <ele>367.600006103515625</ele>
        <time>2013-09-01T16:45:22.000Z</time>
        <extensions>
          <ns3:TrackPointExtension>
            <ns3:atemp>17.0</ns3:atemp>
          </ns3:TrackPointExtension>
        </extensions>
      </trkpt>
      <trkpt lat="46.80029039271175861358642578125" lon="6.90115858800709247589111328125">
        <ele>367.79998779296875</ele>
        <time>2013-09-01T16:45:23.000Z</time>
        <extensions>
          <ns3:TrackPointExtension>
            <ns3:atemp>17.0</ns3:atemp>
          </ns3:TrackPointExtension>
        </extensions>
      </trkpt>
      <trkpt lat="46.80029408074915409088134765625" lon="6.90112053416669368743896484375">
        <ele>368</ele>
        <time>2013-09-01T16:45:24.000Z</time>
        <extensions>
          <ns3:TrackPointExtension>
            <ns3:atemp>17.0</ns3:atemp>
          </ns3:TrackPointExtension>
        </extensions>
      </trkpt>
      <trkpt lat="46.8003028817474842071533203125" lon="6.90108516253530979156494140625">
        <ele>368</ele>
        <time>2013-09-01T16:45:25.000Z</time>
        <extensions>
          <ns3:TrackPointExtension>
            <ns3:atemp>17.0</ns3:atemp>
          </ns3:TrackPointExtension>
        </extensions>
      </trkpt>
      <trkpt lat="46.8003156222403049468994140625" lon="6.9010601006448268890380859375">
        <ele>368.20001220703125</ele>
        <time>2013-09-01T16:45:26.000Z</time>
        <extensions>
          <ns3:TrackPointExtension>
            <ns3:atemp>17.0</ns3:atemp>
          </ns3:TrackPointExtension>
        </extensions>
      </trkpt>
      <trkpt lat="46.8003323860466480255126953125" lon="6.901033781468868255615234375">
        <ele>368.399993896484375</ele>
        <time>2013-09-01T16:45:27.000Z</time>
        <extensions>
          <ns3:TrackPointExtension>
            <ns3:atemp>17.0</ns3:atemp>
          </ns3:TrackPointExtension>
        </extensions>
      </trkpt>
      <trkpt lat="46.80035091005265712738037109375" lon="6.9010101445019245147705078125">
        <ele>368.600006103515625</ele>
        <time>2013-09-01T16:45:28.000Z</time>
        <extensions>
          <ns3:TrackPointExtension>
            <ns3:atemp>17.0</ns3:atemp>
          </ns3:TrackPointExtension>
        </extensions>
      </trkpt>
      <trkpt lat="46.800366081297397613525390625" lon="6.90098927356302738189697265625">
        <ele>368.79998779296875</ele>
        <time>2013-09-01T16:45:29.000Z</time>
        <extensions>
          <ns3:TrackPointExtension>
            <ns3:atemp>17.0</ns3:atemp>
          </ns3:TrackPointExtension>
        </extensions>
      </trkpt>
      <trkpt lat="46.80038192309439182281494140625" lon="6.90097234211862087249755859375">
        <ele>369.20001220703125</ele>
        <time>2013-09-01T16:45:30.000Z</time>
        <extensions>
          <ns3:TrackPointExtension>
            <ns3:atemp>17.0</ns3:atemp>
          </ns3:TrackPointExtension>
        </extensions>
      </trkpt>
      <trkpt lat="46.80040656588971614837646484375" lon="6.90096312202513217926025390625">
        <ele>369.399993896484375</ele>
        <time>2013-09-01T16:45:31.000Z</time>
        <extensions>
          <ns3:TrackPointExtension>
            <ns3:atemp>17.0</ns3:atemp>
          </ns3:TrackPointExtension>
        </extensions>
      </trkpt>
      <trkpt lat="46.80043003521859645843505859375" lon="6.90096613951027393341064453125">
        <ele>369.600006103515625</ele>
        <time>2013-09-01T16:45:32.000Z</time>
        <extensions>
          <ns3:TrackPointExtension>
            <ns3:atemp>17.0</ns3:atemp>
          </ns3:TrackPointExtension>
        </extensions>
      </trkpt>
      <trkpt lat="46.80045350454747676849365234375" lon="6.9009764492511749267578125">
        <ele>370</ele>
        <time>2013-09-01T16:45:33.000Z</time>
        <extensions>
          <ns3:TrackPointExtension>
            <ns3:atemp>17.0</ns3:atemp>
          </ns3:TrackPointExtension>
        </extensions>
      </trkpt>
      <trkpt lat="46.800476722419261932373046875" lon="6.9009836576879024505615234375">
        <ele>370</ele>
        <time>2013-09-01T16:45:34.000Z</time>
        <extensions>
          <ns3:TrackPointExtension>
            <ns3:atemp>17.0</ns3:atemp>
          </ns3:TrackPointExtension>
        </extensions>
      </trkpt>
      <trkpt lat="46.800498850643634796142578125" lon="6.9009920395910739898681640625">
        <ele>370.20001220703125</ele>
        <time>2013-09-01T16:45:35.000Z</time>
        <extensions>
          <ns3:TrackPointExtension>
            <ns3:atemp>17.0</ns3:atemp>
          </ns3:TrackPointExtension>
        </extensions>
      </trkpt>
      <trkpt lat="46.80052039213478565216064453125" lon="6.9010010920464992523193359375">
        <ele>370.399993896484375</ele>
        <time>2013-09-01T16:45:36.000Z</time>
        <extensions>
          <ns3:TrackPointExtension>
            <ns3:atemp>17.0</ns3:atemp>
          </ns3:TrackPointExtension>
        </extensions>
      </trkpt>
      <trkpt lat="46.8005405925214290618896484375" lon="6.9010077975690364837646484375">
        <ele>370.600006103515625</ele>
        <time>2013-09-01T16:45:37.000Z</time>
        <extensions>
          <ns3:TrackPointExtension>
            <ns3:atemp>17.0</ns3:atemp>
          </ns3:TrackPointExtension>
        </extensions>
      </trkpt>
      <trkpt lat="46.8005597032606601715087890625" lon="6.90101467072963714599609375">
        <ele>370.79998779296875</ele>
        <time>2013-09-01T16:45:38.000Z</time>
        <extensions>
          <ns3:TrackPointExtension>
            <ns3:atemp>17.0</ns3:atemp>
          </ns3:TrackPointExtension>
        </extensions>
      </trkpt>
      <trkpt lat="46.8005798198282718658447265625" lon="6.90102179534733295440673828125">
        <ele>371.20001220703125</ele>
        <time>2013-09-01T16:45:39.000Z</time>
        <extensions>
          <ns3:TrackPointExtension>
            <ns3:atemp>17.0</ns3:atemp>
          </ns3:TrackPointExtension>
        </extensions>
      </trkpt>
      <trkpt lat="46.80060002021491527557373046875" lon="6.9010269083082675933837890625">
        <ele>371.79998779296875</ele>
        <time>2013-09-01T16:45:40.000Z</time>
        <extensions>
          <ns3:TrackPointExtension>
            <ns3:atemp>17.0</ns3:atemp>
          </ns3:TrackPointExtension>
        </extensions>
      </trkpt>
      <trkpt lat="46.8006190471351146697998046875" lon="6.9010305963456630706787109375">
        <ele>372</ele>
        <time>2013-09-01T16:45:41.000Z</time>
        <extensions>
          <ns3:TrackPointExtension>
            <ns3:atemp>17.0</ns3:atemp>
          </ns3:TrackPointExtension>
        </extensions>
      </trkpt>
      <trkpt lat="46.8006364814937114715576171875" lon="6.901033110916614532470703125">
        <ele>372.399993896484375</ele>
        <time>2013-09-01T16:45:42.000Z</time>
        <extensions>
          <ns3:TrackPointExtension>
            <ns3:atemp>17.0</ns3:atemp>
          </ns3:TrackPointExtension>
        </extensions>
      </trkpt>
      <trkpt lat="46.80065198801457881927490234375" lon="6.9010327756404876708984375">
        <ele>372.600006103515625</ele>
        <time>2013-09-01T16:45:43.000Z</time>
        <extensions>
          <ns3:TrackPointExtension>
            <ns3:atemp>17.0</ns3:atemp>
          </ns3:TrackPointExtension>
        </extensions>
      </trkpt>
      <trkpt lat="46.8006659857928752899169921875" lon="6.90103185363113880157470703125">
        <ele>372.79998779296875</ele>
        <time>2013-09-01T16:45:44.000Z</time>
        <extensions>
          <ns3:TrackPointExtension>
            <ns3:atemp>17.0</ns3:atemp>
          </ns3:TrackPointExtension>
        </extensions>
      </trkpt>
      <trkpt lat="46.8006827495992183685302734375" lon="6.901035122573375701904296875">
        <ele>373.20001220703125</ele>
        <time>2013-09-01T16:45:45.000Z</time>
        <extensions>
          <ns3:TrackPointExtension>
            <ns3:atemp>17.0</ns3:atemp>
          </ns3:TrackPointExtension>
        </extensions>
      </trkpt>
      <trkpt lat="46.80070043541491031646728515625" lon="6.9010403193533420562744140625">
        <ele>373.399993896484375</ele>
        <time>2013-09-01T16:45:46.000Z</time>
        <extensions>
          <ns3:TrackPointExtension>
            <ns3:atemp>17.0</ns3:atemp>
          </ns3:TrackPointExtension>
        </extensions>
      </trkpt>
      <trkpt lat="46.800719462335109710693359375" lon="6.90104551613330841064453125">
        <ele>373.600006103515625</ele>
        <time>2013-09-01T16:45:47.000Z</time>
        <extensions>
          <ns3:TrackPointExtension>
            <ns3:atemp>17.0</ns3:atemp>
          </ns3:TrackPointExtension>
        </extensions>
      </trkpt>
      <trkpt lat="46.80073731578886508941650390625" lon="6.90105381421744823455810546875">
        <ele>374</ele>
        <time>2013-09-01T16:45:48.000Z</time>
        <extensions>
          <ns3:TrackPointExtension>
            <ns3:atemp>17.0</ns3:atemp>
          </ns3:TrackPointExtension>
        </extensions>
      </trkpt>
      <trkpt lat="46.800756342709064483642578125" lon="6.901061274111270904541015625">
        <ele>374.399993896484375</ele>
        <time>2013-09-01T16:45:49.000Z</time>
        <extensions>
          <ns3:TrackPointExtension>
            <ns3:atemp>17.0</ns3:atemp>
          </ns3:TrackPointExtension>
        </extensions>
      </trkpt>
      <trkpt lat="46.80077486671507358551025390625" lon="6.90107124857604503631591796875">
        <ele>374.600006103515625</ele>
        <time>2013-09-01T16:45:50.000Z</time>
        <extensions>
          <ns3:TrackPointExtension>
            <ns3:atemp>17.0</ns3:atemp>
          </ns3:TrackPointExtension>
        </extensions>
      </trkpt>
      <trkpt lat="46.80079020559787750244140625" lon="6.90107326023280620574951171875">
        <ele>375</ele>
        <time>2013-09-01T16:45:51.000Z</time>
        <extensions>
          <ns3:TrackPointExtension>
            <ns3:atemp>17.0</ns3:atemp>
          </ns3:TrackPointExtension>
        </extensions>
      </trkpt>
      <trkpt lat="46.800807975232601165771484375" lon="6.90107258968055248260498046875">
        <ele>375.20001220703125</ele>
        <time>2013-09-01T16:45:52.000Z</time>
        <extensions>
          <ns3:TrackPointExtension>
            <ns3:atemp>17.0</ns3:atemp>
          </ns3:TrackPointExtension>
        </extensions>
      </trkpt>
      <trkpt lat="46.800823397934436798095703125" lon="6.9010775350034236907958984375">
        <ele>375.399993896484375</ele>
        <time>2013-09-01T16:45:53.000Z</time>
        <extensions>
          <ns3:TrackPointExtension>
            <ns3:atemp>17.0</ns3:atemp>
          </ns3:TrackPointExtension>
        </extensions>
      </trkpt>
      <trkpt lat="46.80084175430238246917724609375" lon="6.90108574926853179931640625">
        <ele>375.600006103515625</ele>
        <time>2013-09-01T16:45:54.000Z</time>
        <extensions>
          <ns3:TrackPointExtension>
            <ns3:atemp>17.0</ns3:atemp>
          </ns3:TrackPointExtension>
        </extensions>
      </trkpt>
      <trkpt lat="46.8008574284613132476806640625" lon="6.9010929577052593231201171875">
        <ele>375.79998779296875</ele>
        <time>2013-09-01T16:45:55.000Z</time>
        <extensions>
          <ns3:TrackPointExtension>
            <ns3:atemp>17.0</ns3:atemp>
          </ns3:TrackPointExtension>
        </extensions>
      </trkpt>
      <trkpt lat="46.80085231550037860870361328125" lon="6.9010906107723712921142578125">
        <ele>376.20001220703125</ele>
        <time>2013-09-01T16:45:56.000Z</time>
        <extensions>
          <ns3:TrackPointExtension>
            <ns3:atemp>17.0</ns3:atemp>
          </ns3:TrackPointExtension>
        </extensions>
      </trkpt>
      <trkpt lat="46.8008815683424472808837890625" lon="6.9010922871530055999755859375">
        <ele>376.600006103515625</ele>
        <time>2013-09-01T16:45:57.000Z</time>
        <extensions>
          <ns3:TrackPointExtension>
            <ns3:atemp>16.0</ns3:atemp>
          </ns3:TrackPointExtension>
        </extensions>
      </trkpt>
      <trkpt lat="46.80089238099753856658935546875" lon="6.9010864198207855224609375">
        <ele>377</ele>
        <time>2013-09-01T16:45:58.000Z</time>
        <extensions>
          <ns3:TrackPointExtension>
            <ns3:atemp>16.0</ns3:atemp>
          </ns3:TrackPointExtension>
        </extensions>
      </trkpt>
      <trkpt lat="46.80090419948101043701171875" lon="6.90108113922178745269775390625">
        <ele>377.20001220703125</ele>
        <time>2013-09-01T16:45:59.000Z</time>
        <extensions>
          <ns3:TrackPointExtension>
            <ns3:atemp>16.0</ns3:atemp>
          </ns3:TrackPointExtension>
        </extensions>
      </trkpt>
      <trkpt lat="46.80091484449803829193115234375" lon="6.9010751880705356597900390625">
        <ele>377.399993896484375</ele>
        <time>2013-09-01T16:46:00.000Z</time>
        <extensions>
          <ns3:TrackPointExtension>
            <ns3:atemp>16.0</ns3:atemp>
          </ns3:TrackPointExtension>
        </extensions>
      </trkpt>
      <trkpt lat="46.80092657916247844696044921875" lon="6.90106487832963466644287109375">
        <ele>377.79998779296875</ele>
        <time>2013-09-01T16:46:01.000Z</time>
        <extensions>
          <ns3:TrackPointExtension>
            <ns3:atemp>16.0</ns3:atemp>
          </ns3:TrackPointExtension>
        </extensions>
      </trkpt>
      <trkpt lat="46.8009410798549652099609375" lon="6.90105230547487735748291015625">
        <ele>378</ele>
        <time>2013-09-01T16:46:02.000Z</time>
        <extensions>
          <ns3:TrackPointExtension>
            <ns3:atemp>16.0</ns3:atemp>
          </ns3:TrackPointExtension>
        </extensions>
      </trkpt>
      <trkpt lat="46.8009573407471179962158203125" lon="6.9010408222675323486328125">
        <ele>378.20001220703125</ele>
        <time>2013-09-01T16:46:03.000Z</time>
        <extensions>
          <ns3:TrackPointExtension>
            <ns3:atemp>16.0</ns3:atemp>
          </ns3:TrackPointExtension>
        </extensions>
      </trkpt>
      <trkpt lat="46.80097393691539764404296875" lon="6.901031434535980224609375">
        <ele>379</ele>
        <time>2013-09-01T16:46:04.000Z</time>
        <extensions>
          <ns3:TrackPointExtension>
            <ns3:atemp>16.0</ns3:atemp>
          </ns3:TrackPointExtension>
        </extensions>
      </trkpt>
      <trkpt lat="46.80099195800721645355224609375" lon="6.90102213062345981597900390625">
        <ele>379.20001220703125</ele>
        <time>2013-09-01T16:46:05.000Z</time>
        <extensions>
          <ns3:TrackPointExtension>
            <ns3:atemp>16.0</ns3:atemp>
          </ns3:TrackPointExtension>
        </extensions>
      </trkpt>
      <trkpt lat="46.80100989528000354766845703125" lon="6.9010131619870662689208984375">
        <ele>379.600006103515625</ele>
        <time>2013-09-01T16:46:06.000Z</time>
        <extensions>
          <ns3:TrackPointExtension>
            <ns3:atemp>16.0</ns3:atemp>
          </ns3:TrackPointExtension>
        </extensions>
      </trkpt>
      <trkpt lat="46.80102598853409290313720703125" lon="6.90100452862679958343505859375">
        <ele>380</ele>
        <time>2013-09-01T16:46:07.000Z</time>
        <extensions>
          <ns3:TrackPointExtension>
            <ns3:atemp>16.0</ns3:atemp>
          </ns3:TrackPointExtension>
        </extensions>
      </trkpt>
      <trkpt lat="46.80104057304561138153076171875" lon="6.90099497325718402862548828125">
        <ele>380.20001220703125</ele>
        <time>2013-09-01T16:46:08.000Z</time>
        <extensions>
          <ns3:TrackPointExtension>
            <ns3:atemp>16.0</ns3:atemp>
          </ns3:TrackPointExtension>
        </extensions>
      </trkpt>
      <trkpt lat="46.80105440318584442138671875" lon="6.9009863398969173431396484375">
        <ele>380.600006103515625</ele>
        <time>2013-09-01T16:46:09.000Z</time>
        <extensions>
          <ns3:TrackPointExtension>
            <ns3:atemp>16.0</ns3:atemp>
          </ns3:TrackPointExtension>
        </extensions>
      </trkpt>
      <trkpt lat="46.8010706640779972076416015625" lon="6.90097577869892120361328125">
        <ele>380.79998779296875</ele>
        <time>2013-09-01T16:46:10.000Z</time>
        <extensions>
          <ns3:TrackPointExtension>
            <ns3:atemp>16.0</ns3:atemp>
          </ns3:TrackPointExtension>
        </extensions>
      </trkpt>
      <trkpt lat="46.8010840751230716705322265625" lon="6.90096236765384674072265625">
        <ele>381.20001220703125</ele>
        <time>2013-09-01T16:46:11.000Z</time>
        <extensions>
          <ns3:TrackPointExtension>
            <ns3:atemp>16.0</ns3:atemp>
          </ns3:TrackPointExtension>
        </extensions>
      </trkpt>
      <trkpt lat="46.801098994910717010498046875" lon="6.90094769932329654693603515625">
        <ele>381.399993896484375</ele>
        <time>2013-09-01T16:46:12.000Z</time>
        <extensions>
          <ns3:TrackPointExtension>
            <ns3:atemp>16.0</ns3:atemp>
          </ns3:TrackPointExtension>
        </extensions>
      </trkpt>
      <trkpt lat="46.8011154234409332275390625" lon="6.9009350426495075225830078125">
        <ele>381.79998779296875</ele>
        <time>2013-09-01T16:46:13.000Z</time>
        <extensions>
          <ns3:TrackPointExtension>
            <ns3:atemp>16.0</ns3:atemp>
          </ns3:TrackPointExtension>
        </extensions>
      </trkpt>
      <trkpt lat="46.8011320196092128753662109375" lon="6.9009233079850673675537109375">
        <ele>382</ele>
        <time>2013-09-01T16:46:14.000Z</time>
        <extensions>
          <ns3:TrackPointExtension>
            <ns3:atemp>16.0</ns3:atemp>
          </ns3:TrackPointExtension>
        </extensions>
      </trkpt>
      <trkpt lat="46.801152639091014862060546875" lon="6.900911740958690643310546875">
        <ele>382.20001220703125</ele>
        <time>2013-09-01T16:46:15.000Z</time>
        <extensions>
          <ns3:TrackPointExtension>
            <ns3:atemp>16.0</ns3:atemp>
          </ns3:TrackPointExtension>
        </extensions>
      </trkpt>
      <trkpt lat="46.8011709116399288177490234375" lon="6.9009015150368213653564453125">
        <ele>382.399993896484375</ele>
        <time>2013-09-01T16:46:16.000Z</time>
        <extensions>
          <ns3:TrackPointExtension>
            <ns3:atemp>16.0</ns3:atemp>
          </ns3:TrackPointExtension>
        </extensions>
      </trkpt>
      <trkpt lat="46.80118809454143047332763671875" lon="6.90089128911495208740234375">
        <ele>382.600006103515625</ele>
        <time>2013-09-01T16:46:17.000Z</time>
        <extensions>
          <ns3:TrackPointExtension>
            <ns3:atemp>16.0</ns3:atemp>
          </ns3:TrackPointExtension>
        </extensions>
      </trkpt>
      <trkpt lat="46.80120184086263179779052734375" lon="6.900879554450511932373046875">
        <ele>382.79998779296875</ele>
        <time>2013-09-01T16:46:18.000Z</time>
        <extensions>
          <ns3:TrackPointExtension>
            <ns3:atemp>16.0</ns3:atemp>
          </ns3:TrackPointExtension>
        </extensions>
      </trkpt>
      <trkpt lat="46.80121667683124542236328125" lon="6.90086673013865947723388671875">
        <ele>383</ele>
        <time>2013-09-01T16:46:19.000Z</time>
        <extensions>
          <ns3:TrackPointExtension>
            <ns3:atemp>16.0</ns3:atemp>
          </ns3:TrackPointExtension>
        </extensions>
      </trkpt>
      <trkpt lat="46.80123008787631988525390625" lon="6.9008522294461727142333984375">
        <ele>383.20001220703125</ele>
        <time>2013-09-01T16:46:20.000Z</time>
        <extensions>
          <ns3:TrackPointExtension>
            <ns3:atemp>16.0</ns3:atemp>
          </ns3:TrackPointExtension>
        </extensions>
      </trkpt>
      <trkpt lat="46.8012480251491069793701171875" lon="6.90083454363048076629638671875">
        <ele>383.399993896484375</ele>
        <time>2013-09-01T16:46:21.000Z</time>
        <extensions>
          <ns3:TrackPointExtension>
            <ns3:atemp>16.0</ns3:atemp>
          </ns3:TrackPointExtension>
        </extensions>
      </trkpt>
      <trkpt lat="46.80126789025962352752685546875" lon="6.900816522538661956787109375">
        <ele>383.79998779296875</ele>
        <time>2013-09-01T16:46:22.000Z</time>
        <extensions>
          <ns3:TrackPointExtension>
            <ns3:atemp>16.0</ns3:atemp>
          </ns3:TrackPointExtension>
        </extensions>
      </trkpt>
      <trkpt lat="46.80128666572272777557373046875" lon="6.900799088180065155029296875">
        <ele>384</ele>
        <time>2013-09-01T16:46:23.000Z</time>
        <extensions>
          <ns3:TrackPointExtension>
            <ns3:atemp>16.0</ns3:atemp>
          </ns3:TrackPointExtension>
        </extensions>
      </trkpt>
      <trkpt lat="46.80130762048065662384033203125" lon="6.90077637322247028350830078125">
        <ele>384.20001220703125</ele>
        <time>2013-09-01T16:46:24.000Z</time>
        <extensions>
          <ns3:TrackPointExtension>
            <ns3:atemp>16.0</ns3:atemp>
          </ns3:TrackPointExtension>
        </extensions>
      </trkpt>
      <trkpt lat="46.80132354609668254852294921875" lon="6.9007546640932559967041015625">
        <ele>384.20001220703125</ele>
        <time>2013-09-01T16:46:25.000Z</time>
        <extensions>
          <ns3:TrackPointExtension>
            <ns3:atemp>16.0</ns3:atemp>
          </ns3:TrackPointExtension>
        </extensions>
      </trkpt>
      <trkpt lat="46.80134005844593048095703125" lon="6.90074284560978412628173828125">
        <ele>384.399993896484375</ele>
        <time>2013-09-01T16:46:26.000Z</time>
        <extensions>
          <ns3:TrackPointExtension>
            <ns3:atemp>16.0</ns3:atemp>
          </ns3:TrackPointExtension>
        </extensions>
      </trkpt>
      <trkpt lat="46.80136017501354217529296875" lon="6.9007362239062786102294921875">
        <ele>384.600006103515625</ele>
        <time>2013-09-01T16:46:27.000Z</time>
        <extensions>
          <ns3:TrackPointExtension>
            <ns3:atemp>16.0</ns3:atemp>
          </ns3:TrackPointExtension>
        </extensions>
      </trkpt>
      <trkpt lat="46.80138071067631244659423828125" lon="6.90072792582213878631591796875">
        <ele>385</ele>
        <time>2013-09-01T16:46:28.000Z</time>
        <extensions>
          <ns3:TrackPointExtension>
            <ns3:atemp>16.0</ns3:atemp>
          </ns3:TrackPointExtension>
        </extensions>
      </trkpt>
      <trkpt lat="46.80139772593975067138671875" lon="6.90071987919509410858154296875">
        <ele>385.20001220703125</ele>
        <time>2013-09-01T16:46:29.000Z</time>
        <extensions>
          <ns3:TrackPointExtension>
            <ns3:atemp>16.0</ns3:atemp>
          </ns3:TrackPointExtension>
        </extensions>
      </trkpt>
      <trkpt lat="46.8014159984886646270751953125" lon="6.90071024000644683837890625">
        <ele>385.399993896484375</ele>
        <time>2013-09-01T16:46:30.000Z</time>
        <extensions>
          <ns3:TrackPointExtension>
            <ns3:atemp>16.0</ns3:atemp>
          </ns3:TrackPointExtension>
        </extensions>
      </trkpt>
      <trkpt lat="46.80143485777080059051513671875" lon="6.90069909207522869110107421875">
        <ele>385.600006103515625</ele>
        <time>2013-09-01T16:46:31.000Z</time>
        <extensions>
          <ns3:TrackPointExtension>
            <ns3:atemp>16.0</ns3:atemp>
          </ns3:TrackPointExtension>
        </extensions>
      </trkpt>
      <trkpt lat="46.80145480670034885406494140625" lon="6.90068769268691539764404296875">
        <ele>385.79998779296875</ele>
        <time>2013-09-01T16:46:32.000Z</time>
        <extensions>
          <ns3:TrackPointExtension>
            <ns3:atemp>16.0</ns3:atemp>
          </ns3:TrackPointExtension>
        </extensions>
      </trkpt>
      <trkpt lat="46.80147827602922916412353515625" lon="6.900675706565380096435546875">
        <ele>385.79998779296875</ele>
        <time>2013-09-01T16:46:33.000Z</time>
        <extensions>
          <ns3:TrackPointExtension>
            <ns3:atemp>16.0</ns3:atemp>
          </ns3:TrackPointExtension>
        </extensions>
      </trkpt>
      <trkpt lat="46.801504008471965789794921875" lon="6.900661624968051910400390625">
        <ele>385.79998779296875</ele>
        <time>2013-09-01T16:46:34.000Z</time>
        <extensions>
          <ns3:TrackPointExtension>
            <ns3:atemp>16.0</ns3:atemp>
          </ns3:TrackPointExtension>
        </extensions>
      </trkpt>
      <trkpt lat="46.80153317749500274658203125" lon="6.90064595080912113189697265625">
        <ele>386</ele>
        <time>2013-09-01T16:46:35.000Z</time>
        <extensions>
          <ns3:TrackPointExtension>
            <ns3:atemp>16.0</ns3:atemp>
          </ns3:TrackPointExtension>
        </extensions>
      </trkpt>
      <trkpt lat="46.80156243033707141876220703125" lon="6.9006302766501903533935546875">
        <ele>386.20001220703125</ele>
        <time>2013-09-01T16:46:36.000Z</time>
        <extensions>
          <ns3:TrackPointExtension>
            <ns3:atemp>16.0</ns3:atemp>
          </ns3:TrackPointExtension>
        </extensions>
      </trkpt>
      <trkpt lat="46.801591850817203521728515625" lon="6.9006138481199741363525390625">
        <ele>386.20001220703125</ele>
        <time>2013-09-01T16:46:37.000Z</time>
        <extensions>
          <ns3:TrackPointExtension>
            <ns3:atemp>16.0</ns3:atemp>
          </ns3:TrackPointExtension>
        </extensions>
      </trkpt>
      <trkpt lat="46.80162579752504825592041015625" lon="6.90059465356171131134033203125">
        <ele>386.20001220703125</ele>
        <time>2013-09-01T16:46:38.000Z</time>
        <extensions>
          <ns3:TrackPointExtension>
            <ns3:atemp>16.0</ns3:atemp>
          </ns3:TrackPointExtension>
        </extensions>
      </trkpt>
      <trkpt lat="46.80165932513773441314697265625" lon="6.900575123727321624755859375">
        <ele>386.399993896484375</ele>
        <time>2013-09-01T16:46:39.000Z</time>
        <extensions>
          <ns3:TrackPointExtension>
            <ns3:atemp>16.0</ns3:atemp>
          </ns3:TrackPointExtension>
        </extensions>
      </trkpt>
      <trkpt lat="46.80169134400784969329833984375" lon="6.9005571864545345306396484375">
        <ele>386.399993896484375</ele>
        <time>2013-09-01T16:46:40.000Z</time>
        <extensions>
          <ns3:TrackPointExtension>
            <ns3:atemp>16.0</ns3:atemp>
          </ns3:TrackPointExtension>
        </extensions>
      </trkpt>
      <trkpt lat="46.80172386579215526580810546875" lon="6.90053447149693965911865234375">
        <ele>386.399993896484375</ele>
        <time>2013-09-01T16:46:41.000Z</time>
        <extensions>
          <ns3:TrackPointExtension>
            <ns3:atemp>16.0</ns3:atemp>
          </ns3:TrackPointExtension>
        </extensions>
      </trkpt>
      <trkpt lat="46.80176024325191974639892578125" lon="6.9005095772445201873779296875">
        <ele>386.600006103515625</ele>
        <time>2013-09-01T16:46:42.000Z</time>
        <extensions>
          <ns3:TrackPointExtension>
            <ns3:atemp>16.0</ns3:atemp>
          </ns3:TrackPointExtension>
        </extensions>
      </trkpt>
      <trkpt lat="46.80180148221552371978759765625" lon="6.90047512762248516082763671875">
        <ele>386.600006103515625</ele>
        <time>2013-09-01T16:46:43.000Z</time>
        <extensions>
          <ns3:TrackPointExtension>
            <ns3:atemp>16.0</ns3:atemp>
          </ns3:TrackPointExtension>
        </extensions>
      </trkpt>
      <trkpt lat="46.80184691213071346282958984375" lon="6.90043070353567600250244140625">
        <ele>386.600006103515625</ele>
        <time>2013-09-01T16:46:44.000Z</time>
        <extensions>
          <ns3:TrackPointExtension>
            <ns3:atemp>16.0</ns3:atemp>
          </ns3:TrackPointExtension>
        </extensions>
      </trkpt>
      <trkpt lat="46.8018905818462371826171875" lon="6.90038979984819889068603515625">
        <ele>386.600006103515625</ele>
        <time>2013-09-01T16:46:45.000Z</time>
        <extensions>
          <ns3:TrackPointExtension>
            <ns3:atemp>16.0</ns3:atemp>
          </ns3:TrackPointExtension>
        </extensions>
      </trkpt>
      <trkpt lat="46.80193576030433177947998046875" lon="6.90036716870963573455810546875">
        <ele>386.600006103515625</ele>
        <time>2013-09-01T16:46:46.000Z</time>
        <extensions>
          <ns3:TrackPointExtension>
            <ns3:atemp>16.0</ns3:atemp>
          </ns3:TrackPointExtension>
        </extensions>
      </trkpt>
      <trkpt lat="46.8019822798669338226318359375" lon="6.9003550149500370025634765625">
        <ele>386.79998779296875</ele>
        <time>2013-09-01T16:46:47.000Z</time>
        <extensions>
          <ns3:TrackPointExtension>
            <ns3:atemp>16.0</ns3:atemp>
          </ns3:TrackPointExtension>
        </extensions>
      </trkpt>
      <trkpt lat="46.8020273745059967041015625" lon="6.9003419391810894012451171875">
        <ele>387</ele>
        <time>2013-09-01T16:46:48.000Z</time>
        <extensions>
          <ns3:TrackPointExtension>
            <ns3:atemp>16.0</ns3:atemp>
          </ns3:TrackPointExtension>
        </extensions>
      </trkpt>
      <trkpt lat="46.80207272060215473175048828125" lon="6.9003327190876007080078125">
        <ele>387</ele>
        <time>2013-09-01T16:46:49.000Z</time>
        <extensions>
          <ns3:TrackPointExtension>
            <ns3:atemp>16.0</ns3:atemp>
          </ns3:TrackPointExtension>
        </extensions>
      </trkpt>
      <trkpt lat="46.8021177314221858978271484375" lon="6.90032660029828548431396484375">
        <ele>387</ele>
        <time>2013-09-01T16:46:50.000Z</time>
        <extensions>
          <ns3:TrackPointExtension>
            <ns3:atemp>16.0</ns3:atemp>
          </ns3:TrackPointExtension>
        </extensions>
      </trkpt>
      <trkpt lat="46.802162490785121917724609375" lon="6.90032064914703369140625">
        <ele>387.20001220703125</ele>
        <time>2013-09-01T16:46:51.000Z</time>
        <extensions>
          <ns3:TrackPointExtension>
            <ns3:atemp>16.0</ns3:atemp>
          </ns3:TrackPointExtension>
        </extensions>
      </trkpt>
      <trkpt lat="46.80220532231032848358154296875" lon="6.9003166258335113525390625">
        <ele>387.399993896484375</ele>
        <time>2013-09-01T16:46:52.000Z</time>
        <extensions>
          <ns3:TrackPointExtension>
            <ns3:atemp>16.0</ns3:atemp>
          </ns3:TrackPointExtension>
        </extensions>
      </trkpt>
      <trkpt lat="46.80224807001650333404541015625" lon="6.90031402744352817535400390625">
        <ele>387.600006103515625</ele>
        <time>2013-09-01T16:46:53.000Z</time>
        <extensions>
          <ns3:TrackPointExtension>
            <ns3:atemp>16.0</ns3:atemp>
          </ns3:TrackPointExtension>
        </extensions>
      </trkpt>
      <trkpt lat="46.80229266174137592315673828125" lon="6.900316290557384490966796875">
        <ele>387.600006103515625</ele>
        <time>2013-09-01T16:46:54.000Z</time>
        <extensions>
          <ns3:TrackPointExtension>
            <ns3:atemp>16.0</ns3:atemp>
          </ns3:TrackPointExtension>
        </extensions>
      </trkpt>
      <trkpt lat="46.802338175475597381591796875" lon="6.90031335689127445220947265625">
        <ele>387.399993896484375</ele>
        <time>2013-09-01T16:46:55.000Z</time>
        <extensions>
          <ns3:TrackPointExtension>
            <ns3:atemp>16.0</ns3:atemp>
          </ns3:TrackPointExtension>
        </extensions>
      </trkpt>
      <trkpt lat="46.80238368920981884002685546875" lon="6.9003085792064666748046875">
        <ele>387.399993896484375</ele>
        <time>2013-09-01T16:46:56.000Z</time>
        <extensions>
          <ns3:TrackPointExtension>
            <ns3:atemp>16.0</ns3:atemp>
          </ns3:TrackPointExtension>
        </extensions>
      </trkpt>
      <trkpt lat="46.80242769420146942138671875" lon="6.9003033824265003204345703125">
        <ele>387.399993896484375</ele>
        <time>2013-09-01T16:46:57.000Z</time>
        <extensions>
          <ns3:TrackPointExtension>
            <ns3:atemp>16.0</ns3:atemp>
          </ns3:TrackPointExtension>
        </extensions>
      </trkpt>
      <trkpt lat="46.80247337557375431060791015625" lon="6.900296844542026519775390625">
        <ele>387.399993896484375</ele>
        <time>2013-09-01T16:46:58.000Z</time>
        <extensions>
          <ns3:TrackPointExtension>
            <ns3:atemp>16.0</ns3:atemp>
          </ns3:TrackPointExtension>
        </extensions>
      </trkpt>
      <trkpt lat="46.80251888930797576904296875" lon="6.9002856127917766571044921875">
        <ele>387.399993896484375</ele>
        <time>2013-09-01T16:46:59.000Z</time>
        <extensions>
          <ns3:TrackPointExtension>
            <ns3:atemp>16.0</ns3:atemp>
          </ns3:TrackPointExtension>
        </extensions>
      </trkpt>
      <trkpt lat="46.8025633133947849273681640625" lon="6.9002711959183216094970703125">
        <ele>387.399993896484375</ele>
        <time>2013-09-01T16:47:00.000Z</time>
        <extensions>
          <ns3:TrackPointExtension>
            <ns3:atemp>16.0</ns3:atemp>
          </ns3:TrackPointExtension>
        </extensions>
      </trkpt>
      <trkpt lat="46.80260664783418178558349609375" lon="6.9002621434628963470458984375">
        <ele>387.600006103515625</ele>
        <time>2013-09-01T16:47:01.000Z</time>
        <extensions>
          <ns3:TrackPointExtension>
            <ns3:atemp>16.0</ns3:atemp>
          </ns3:TrackPointExtension>
        </extensions>
      </trkpt>
      <trkpt lat="46.80264361202716827392578125" lon="6.90023993141949176788330078125">
        <ele>387.600006103515625</ele>
        <time>2013-09-01T16:47:02.000Z</time>
        <extensions>
          <ns3:TrackPointExtension>
            <ns3:atemp>16.0</ns3:atemp>
          </ns3:TrackPointExtension>
        </extensions>
      </trkpt>
      <trkpt lat="46.80267772637307643890380859375" lon="6.9002051465213298797607421875">
        <ele>387.79998779296875</ele>
        <time>2013-09-01T16:47:03.000Z</time>
        <extensions>
          <ns3:TrackPointExtension>
            <ns3:atemp>16.0</ns3:atemp>
          </ns3:TrackPointExtension>
        </extensions>
      </trkpt>
      <trkpt lat="46.8026952445507049560546875" lon="6.90016441047191619873046875">
        <ele>387.79998779296875</ele>
        <time>2013-09-01T16:47:04.000Z</time>
        <extensions>
          <ns3:TrackPointExtension>
            <ns3:atemp>16.0</ns3:atemp>
          </ns3:TrackPointExtension>
        </extensions>
      </trkpt>
      <trkpt lat="46.8026930652558803558349609375" lon="6.900121830403804779052734375">
        <ele>387.600006103515625</ele>
        <time>2013-09-01T16:47:05.000Z</time>
        <extensions>
          <ns3:TrackPointExtension>
            <ns3:atemp>16.0</ns3:atemp>
          </ns3:TrackPointExtension>
        </extensions>
      </trkpt>
      <trkpt lat="46.8026706017553806304931640625" lon="6.90006659366190433502197265625">
        <ele>387.600006103515625</ele>
        <time>2013-09-01T16:47:06.000Z</time>
        <extensions>
          <ns3:TrackPointExtension>
            <ns3:atemp>16.0</ns3:atemp>
          </ns3:TrackPointExtension>
        </extensions>
      </trkpt>
      <trkpt lat="46.80264889262616634368896484375" lon="6.90000523813068866729736328125">
        <ele>388</ele>
        <time>2013-09-01T16:47:07.000Z</time>
        <extensions>
          <ns3:TrackPointExtension>
            <ns3:atemp>16.0</ns3:atemp>
          </ns3:TrackPointExtension>
        </extensions>
      </trkpt>
      <trkpt lat="46.80263346992433071136474609375" lon="6.899938769638538360595703125">
        <ele>388.20001220703125</ele>
        <time>2013-09-01T16:47:08.000Z</time>
        <extensions>
          <ns3:TrackPointExtension>
            <ns3:atemp>16.0</ns3:atemp>
          </ns3:TrackPointExtension>
        </extensions>
      </trkpt>
      <trkpt lat="46.80262089706957340240478515625" lon="6.899870373308658599853515625">
        <ele>388.399993896484375</ele>
        <time>2013-09-01T16:47:09.000Z</time>
        <extensions>
          <ns3:TrackPointExtension>
            <ns3:atemp>16.0</ns3:atemp>
          </ns3:TrackPointExtension>
        </extensions>
      </trkpt>
      <trkpt lat="46.80260949768126010894775390625" lon="6.89980407245457172393798828125">
        <ele>388.399993896484375</ele>
        <time>2013-09-01T16:47:10.000Z</time>
        <extensions>
          <ns3:TrackPointExtension>
            <ns3:atemp>16.0</ns3:atemp>
          </ns3:TrackPointExtension>
        </extensions>
      </trkpt>
      <trkpt lat="46.80259876884520053863525390625" lon="6.89973835833370685577392578125">
        <ele>388.600006103515625</ele>
        <time>2013-09-01T16:47:11.000Z</time>
        <extensions>
          <ns3:TrackPointExtension>
            <ns3:atemp>16.0</ns3:atemp>
          </ns3:TrackPointExtension>
        </extensions>
      </trkpt>
      <trkpt lat="46.802591644227504730224609375" lon="6.89966820180416107177734375">
        <ele>388.600006103515625</ele>
        <time>2013-09-01T16:47:12.000Z</time>
        <extensions>
          <ns3:TrackPointExtension>
            <ns3:atemp>16.0</ns3:atemp>
          </ns3:TrackPointExtension>
        </extensions>
      </trkpt>
      <trkpt lat="46.8025857768952846527099609375" lon="6.899602822959423065185546875">
        <ele>388.600006103515625</ele>
        <time>2013-09-01T16:47:13.000Z</time>
        <extensions>
          <ns3:TrackPointExtension>
            <ns3:atemp>16.0</ns3:atemp>
          </ns3:TrackPointExtension>
        </extensions>
      </trkpt>
      <trkpt lat="46.8025810830295085906982421875" lon="6.89953769557178020477294921875">
        <ele>388.399993896484375</ele>
        <time>2013-09-01T16:47:14.000Z</time>
        <extensions>
          <ns3:TrackPointExtension>
            <ns3:atemp>16.0</ns3:atemp>
          </ns3:TrackPointExtension>
        </extensions>
      </trkpt>
      <trkpt lat="46.80257647298276424407958984375" lon="6.899473406374454498291015625">
        <ele>388.399993896484375</ele>
        <time>2013-09-01T16:47:15.000Z</time>
        <extensions>
          <ns3:TrackPointExtension>
            <ns3:atemp>16.0</ns3:atemp>
          </ns3:TrackPointExtension>
        </extensions>
      </trkpt>
      <trkpt lat="46.802574209868907928466796875" lon="6.89940794371068477630615234375">
        <ele>388.600006103515625</ele>
        <time>2013-09-01T16:47:16.000Z</time>
        <extensions>
          <ns3:TrackPointExtension>
            <ns3:atemp>16.0</ns3:atemp>
          </ns3:TrackPointExtension>
        </extensions>
      </trkpt>
      <trkpt lat="46.80258032865822315216064453125" lon="6.8993418104946613311767578125">
        <ele>388.79998779296875</ele>
        <time>2013-09-01T16:47:17.000Z</time>
        <extensions>
          <ns3:TrackPointExtension>
            <ns3:atemp>16.0</ns3:atemp>
          </ns3:TrackPointExtension>
        </extensions>
      </trkpt>
      <trkpt lat="46.80259290151298046112060546875" lon="6.89927718602120876312255859375">
        <ele>389</ele>
        <time>2013-09-01T16:47:18.000Z</time>
        <extensions>
          <ns3:TrackPointExtension>
            <ns3:atemp>16.0</ns3:atemp>
          </ns3:TrackPointExtension>
        </extensions>
      </trkpt>
      <trkpt lat="46.80262039415538311004638671875" lon="6.89922806806862354278564453125">
        <ele>389.20001220703125</ele>
        <time>2013-09-01T16:47:19.000Z</time>
        <extensions>
          <ns3:TrackPointExtension>
            <ns3:atemp>16.0</ns3:atemp>
          </ns3:TrackPointExtension>
        </extensions>
      </trkpt>
      <trkpt lat="46.80264629423618316650390625" lon="6.89918967895209789276123046875">
        <ele>389.20001220703125</ele>
        <time>2013-09-01T16:47:20.000Z</time>
        <extensions>
          <ns3:TrackPointExtension>
            <ns3:atemp>16.0</ns3:atemp>
          </ns3:TrackPointExtension>
        </extensions>
      </trkpt>
      <trkpt lat="46.80266934446990489959716796875" lon="6.89915497787296772003173828125">
        <ele>389.20001220703125</ele>
        <time>2013-09-01T16:47:21.000Z</time>
        <extensions>
          <ns3:TrackPointExtension>
            <ns3:atemp>16.0</ns3:atemp>
          </ns3:TrackPointExtension>
        </extensions>
      </trkpt>
      <trkpt lat="46.80269583128392696380615234375" lon="6.8991279043257236480712890625">
        <ele>389.20001220703125</ele>
        <time>2013-09-01T16:47:22.000Z</time>
        <extensions>
          <ns3:TrackPointExtension>
            <ns3:atemp>16.0</ns3:atemp>
          </ns3:TrackPointExtension>
        </extensions>
      </trkpt>
      <trkpt lat="46.8027301132678985595703125" lon="6.89910535700619220733642578125">
        <ele>389</ele>
        <time>2013-09-01T16:47:23.000Z</time>
        <extensions>
          <ns3:TrackPointExtension>
            <ns3:atemp>16.0</ns3:atemp>
          </ns3:TrackPointExtension>
        </extensions>
      </trkpt>
      <trkpt lat="46.8027899600565433502197265625" lon="6.899084150791168212890625">
        <ele>388.79998779296875</ele>
        <time>2013-09-01T16:47:24.000Z</time>
        <extensions>
          <ns3:TrackPointExtension>
            <ns3:atemp>16.0</ns3:atemp>
          </ns3:TrackPointExtension>
        </extensions>
      </trkpt>
      <trkpt lat="46.802851818501949310302734375" lon="6.8990652076900005340576171875">
        <ele>388.399993896484375</ele>
        <time>2013-09-01T16:47:25.000Z</time>
        <extensions>
          <ns3:TrackPointExtension>
            <ns3:atemp>16.0</ns3:atemp>
          </ns3:TrackPointExtension>
        </extensions>
      </trkpt>
      <trkpt lat="46.80293790064752101898193359375" lon="6.89904584549367427825927734375">
        <ele>388</ele>
        <time>2013-09-01T16:47:26.000Z</time>
        <extensions>
          <ns3:TrackPointExtension>
            <ns3:atemp>16.0</ns3:atemp>
          </ns3:TrackPointExtension>
        </extensions>
      </trkpt>
      <trkpt lat="46.8030192889273166656494140625" lon="6.899022795259952545166015625">
        <ele>387.20001220703125</ele>
        <time>2013-09-01T16:47:27.000Z</time>
        <extensions>
          <ns3:TrackPointExtension>
            <ns3:atemp>16.0</ns3:atemp>
          </ns3:TrackPointExtension>
        </extensions>
      </trkpt>
      <trkpt lat="46.80310000665485858917236328125" lon="6.89900209195911884307861328125">
        <ele>386.399993896484375</ele>
        <time>2013-09-01T16:47:28.000Z</time>
        <extensions>
          <ns3:TrackPointExtension>
            <ns3:atemp>16.0</ns3:atemp>
          </ns3:TrackPointExtension>
        </extensions>
      </trkpt>
      <trkpt lat="46.80317938327789306640625" lon="6.89898599870502948760986328125">
        <ele>385.399993896484375</ele>
        <time>2013-09-01T16:47:29.000Z</time>
        <extensions>
          <ns3:TrackPointExtension>
            <ns3:atemp>16.0</ns3:atemp>
          </ns3:TrackPointExtension>
        </extensions>
      </trkpt>
      <trkpt lat="46.80326060391962528228759765625" lon="6.8989760242402553558349609375">
        <ele>384.399993896484375</ele>
        <time>2013-09-01T16:47:30.000Z</time>
        <extensions>
          <ns3:TrackPointExtension>
            <ns3:atemp>16.0</ns3:atemp>
          </ns3:TrackPointExtension>
        </extensions>
      </trkpt>
      <trkpt lat="46.80334257893264293670654296875" lon="6.8989733420312404632568359375">
        <ele>383.399993896484375</ele>
        <time>2013-09-01T16:47:31.000Z</time>
        <extensions>
          <ns3:TrackPointExtension>
            <ns3:atemp>16.0</ns3:atemp>
          </ns3:TrackPointExtension>
        </extensions>
      </trkpt>
      <trkpt lat="46.803425811231136322021484375" lon="6.89897811971604824066162109375">
        <ele>382.399993896484375</ele>
        <time>2013-09-01T16:47:32.000Z</time>
        <extensions>
          <ns3:TrackPointExtension>
            <ns3:atemp>16.0</ns3:atemp>
          </ns3:TrackPointExtension>
        </extensions>
      </trkpt>
      <trkpt lat="46.803514324128627777099609375" lon="6.898983232676982879638671875">
        <ele>381.399993896484375</ele>
        <time>2013-09-01T16:47:33.000Z</time>
        <extensions>
          <ns3:TrackPointExtension>
            <ns3:atemp>16.0</ns3:atemp>
          </ns3:TrackPointExtension>
        </extensions>
      </trkpt>
      <trkpt lat="46.8036093749105930328369140625" lon="6.898989938199520111083984375">
        <ele>380.399993896484375</ele>
        <time>2013-09-01T16:47:34.000Z</time>
        <extensions>
          <ns3:TrackPointExtension>
            <ns3:atemp>16.0</ns3:atemp>
          </ns3:TrackPointExtension>
        </extensions>
      </trkpt>
      <trkpt lat="46.80375312454998493194580078125" lon="6.89904886297881603240966796875">
        <ele>379.399993896484375</ele>
        <time>2013-09-01T16:47:35.000Z</time>
        <extensions>
          <ns3:TrackPointExtension>
            <ns3:atemp>16.0</ns3:atemp>
          </ns3:TrackPointExtension>
        </extensions>
      </trkpt>
      <trkpt lat="46.8038883246481418609619140625" lon="6.89907249994575977325439453125">
        <ele>378.600006103515625</ele>
        <time>2013-09-01T16:47:36.000Z</time>
        <extensions>
          <ns3:TrackPointExtension>
            <ns3:atemp>16.0</ns3:atemp>
          </ns3:TrackPointExtension>
        </extensions>
      </trkpt>
      <trkpt lat="46.80401463992893695831298828125" lon="6.8990819714963436126708984375">
        <ele>378</ele>
        <time>2013-09-01T16:47:37.000Z</time>
        <extensions>
          <ns3:TrackPointExtension>
            <ns3:atemp>16.0</ns3:atemp>
          </ns3:TrackPointExtension>
        </extensions>
      </trkpt>
      <trkpt lat="46.80413492023944854736328125" lon="6.89907300285995006561279296875">
        <ele>377.399993896484375</ele>
        <time>2013-09-01T16:47:38.000Z</time>
        <extensions>
          <ns3:TrackPointExtension>
            <ns3:atemp>16.0</ns3:atemp>
          </ns3:TrackPointExtension>
        </extensions>
      </trkpt>
      <trkpt lat="46.80424681864678859710693359375" lon="6.8990481086075305938720703125">
        <ele>377.20001220703125</ele>
        <time>2013-09-01T16:47:39.000Z</time>
        <extensions>
          <ns3:TrackPointExtension>
            <ns3:atemp>16.0</ns3:atemp>
          </ns3:TrackPointExtension>
        </extensions>
      </trkpt>
      <trkpt lat="46.804352514445781707763671875" lon="6.899014748632907867431640625">
        <ele>376.79998779296875</ele>
        <time>2013-09-01T16:47:40.000Z</time>
        <extensions>
          <ns3:TrackPointExtension>
            <ns3:atemp>16.0</ns3:atemp>
          </ns3:TrackPointExtension>
        </extensions>
      </trkpt>
      <trkpt lat="46.804449073970317840576171875" lon="6.8989790417253971099853515625">
        <ele>376.79998779296875</ele>
        <time>2013-09-01T16:47:41.000Z</time>
        <extensions>
          <ns3:TrackPointExtension>
            <ns3:atemp>16.0</ns3:atemp>
          </ns3:TrackPointExtension>
        </extensions>
      </trkpt>
      <trkpt lat="46.8045407719910144805908203125" lon="6.89894258044660091400146484375">
        <ele>377</ele>
        <time>2013-09-01T16:47:42.000Z</time>
        <extensions>
          <ns3:TrackPointExtension>
            <ns3:atemp>16.0</ns3:atemp>
          </ns3:TrackPointExtension>
        </extensions>
      </trkpt>
      <trkpt lat="46.80462467484176158905029296875" lon="6.89890603534877300262451171875">
        <ele>377.399993896484375</ele>
        <time>2013-09-01T16:47:43.000Z</time>
        <extensions>
          <ns3:TrackPointExtension>
            <ns3:atemp>16.0</ns3:atemp>
          </ns3:TrackPointExtension>
        </extensions>
      </trkpt>
      <trkpt lat="46.80469877086579799652099609375" lon="6.898868568241596221923828125">
        <ele>377.399993896484375</ele>
        <time>2013-09-01T16:47:44.000Z</time>
        <extensions>
          <ns3:TrackPointExtension>
            <ns3:atemp>16.0</ns3:atemp>
          </ns3:TrackPointExtension>
        </extensions>
      </trkpt>
      <trkpt lat="46.80476850830018520355224609375" lon="6.8988325260579586029052734375">
        <ele>377.600006103515625</ele>
        <time>2013-09-01T16:47:45.000Z</time>
        <extensions>
          <ns3:TrackPointExtension>
            <ns3:atemp>16.0</ns3:atemp>
          </ns3:TrackPointExtension>
        </extensions>
      </trkpt>
      <trkpt lat="46.80483841337263584136962890625" lon="6.89879539422690868377685546875">
        <ele>377.600006103515625</ele>
        <time>2013-09-01T16:47:46.000Z</time>
        <extensions>
          <ns3:TrackPointExtension>
            <ns3:atemp>16.0</ns3:atemp>
          </ns3:TrackPointExtension>
        </extensions>
      </trkpt>
      <trkpt lat="46.8048975057899951934814453125" lon="6.89874778501689434051513671875">
        <ele>377.79998779296875</ele>
        <time>2013-09-01T16:47:47.000Z</time>
        <extensions>
          <ns3:TrackPointExtension>
            <ns3:atemp>16.0</ns3:atemp>
          </ns3:TrackPointExtension>
        </extensions>
      </trkpt>
      <trkpt lat="46.80495324544608592987060546875" lon="6.89870051108300685882568359375">
        <ele>377.600006103515625</ele>
        <time>2013-09-01T16:47:48.000Z</time>
        <extensions>
          <ns3:TrackPointExtension>
            <ns3:atemp>16.0</ns3:atemp>
          </ns3:TrackPointExtension>
        </extensions>
      </trkpt>
      <trkpt lat="46.80500797927379608154296875" lon="6.8986484594643115997314453125">
        <ele>377.600006103515625</ele>
        <time>2013-09-01T16:47:49.000Z</time>
        <extensions>
          <ns3:TrackPointExtension>
            <ns3:atemp>16.0</ns3:atemp>
          </ns3:TrackPointExtension>
        </extensions>
      </trkpt>
      <trkpt lat="46.80506204254925251007080078125" lon="6.89859054051339626312255859375">
        <ele>377.600006103515625</ele>
        <time>2013-09-01T16:47:50.000Z</time>
        <extensions>
          <ns3:TrackPointExtension>
            <ns3:atemp>16.0</ns3:atemp>
          </ns3:TrackPointExtension>
        </extensions>
      </trkpt>
      <trkpt lat="46.80511149577796459197998046875" lon="6.898524574935436248779296875">
        <ele>377.399993896484375</ele>
        <time>2013-09-01T16:47:51.000Z</time>
        <extensions>
          <ns3:TrackPointExtension>
            <ns3:atemp>16.0</ns3:atemp>
          </ns3:TrackPointExtension>
        </extensions>
      </trkpt>
      <trkpt lat="46.80515893734991550445556640625" lon="6.89845240674912929534912109375">
        <ele>377.399993896484375</ele>
        <time>2013-09-01T16:47:52.000Z</time>
        <extensions>
          <ns3:TrackPointExtension>
            <ns3:atemp>16.0</ns3:atemp>
          </ns3:TrackPointExtension>
        </extensions>
      </trkpt>
      <trkpt lat="46.80520118214190006256103515625" lon="6.8983768858015537261962890625">
        <ele>377.20001220703125</ele>
        <time>2013-09-01T16:47:53.000Z</time>
        <extensions>
          <ns3:TrackPointExtension>
            <ns3:atemp>16.0</ns3:atemp>
          </ns3:TrackPointExtension>
        </extensions>
      </trkpt>
      <trkpt lat="46.80524225346744060516357421875" lon="6.8982877023518085479736328125">
        <ele>377.20001220703125</ele>
        <time>2013-09-01T16:47:54.000Z</time>
        <extensions>
          <ns3:TrackPointExtension>
            <ns3:atemp>16.0</ns3:atemp>
          </ns3:TrackPointExtension>
        </extensions>
      </trkpt>
      <trkpt lat="46.80527879856526851654052734375" lon="6.89819491468369960784912109375">
        <ele>377</ele>
        <time>2013-09-01T16:47:55.000Z</time>
        <extensions>
          <ns3:TrackPointExtension>
            <ns3:atemp>16.0</ns3:atemp>
          </ns3:TrackPointExtension>
        </extensions>
      </trkpt>
      <trkpt lat="46.805310733616352081298828125" lon="6.898100785911083221435546875">
        <ele>377</ele>
        <time>2013-09-01T16:47:56.000Z</time>
        <extensions>
          <ns3:TrackPointExtension>
            <ns3:atemp>16.0</ns3:atemp>
          </ns3:TrackPointExtension>
        </extensions>
      </trkpt>
      <trkpt lat="46.80533395148813724517822265625" lon="6.898006908595561981201171875">
        <ele>377.20001220703125</ele>
        <time>2013-09-01T16:47:57.000Z</time>
        <extensions>
          <ns3:TrackPointExtension>
            <ns3:atemp>16.0</ns3:atemp>
          </ns3:TrackPointExtension>
        </extensions>
      </trkpt>
      <trkpt lat="46.805353648960590362548828125" lon="6.897915042936801910400390625">
        <ele>377.399993896484375</ele>
        <time>2013-09-01T16:47:58.000Z</time>
        <extensions>
          <ns3:TrackPointExtension>
            <ns3:atemp>16.0</ns3:atemp>
          </ns3:TrackPointExtension>
        </extensions>
      </trkpt>
      <trkpt lat="46.80537099950015544891357421875" lon="6.8978209979832172393798828125">
        <ele>377.79998779296875</ele>
        <time>2013-09-01T16:47:59.000Z</time>
        <extensions>
          <ns3:TrackPointExtension>
            <ns3:atemp>16.0</ns3:atemp>
          </ns3:TrackPointExtension>
        </extensions>
      </trkpt>
      <trkpt lat="46.8053893558681011199951171875" lon="6.89773223362863063812255859375">
        <ele>377.79998779296875</ele>
        <time>2013-09-01T16:48:00.000Z</time>
        <extensions>
          <ns3:TrackPointExtension>
            <ns3:atemp>16.0</ns3:atemp>
          </ns3:TrackPointExtension>
        </extensions>
      </trkpt>
      <trkpt lat="46.8054051138460636138916015625" lon="6.89764590002596378326416015625">
        <ele>378</ele>
        <time>2013-09-01T16:48:01.000Z</time>
        <extensions>
          <ns3:TrackPointExtension>
            <ns3:atemp>16.0</ns3:atemp>
          </ns3:TrackPointExtension>
        </extensions>
      </trkpt>
      <trkpt lat="46.8054218776524066925048828125" lon="6.89756560139358043670654296875">
        <ele>378</ele>
        <time>2013-09-01T16:48:02.000Z</time>
        <extensions>
          <ns3:TrackPointExtension>
            <ns3:atemp>16.0</ns3:atemp>
          </ns3:TrackPointExtension>
        </extensions>
      </trkpt>
      <trkpt lat="46.8054339475929737091064453125" lon="6.89748580567538738250732421875">
        <ele>378.20001220703125</ele>
        <time>2013-09-01T16:48:03.000Z</time>
        <extensions>
          <ns3:TrackPointExtension>
            <ns3:atemp>16.0</ns3:atemp>
          </ns3:TrackPointExtension>
        </extensions>
      </trkpt>
      <trkpt lat="46.80545029230415821075439453125" lon="6.89740634523332118988037109375">
        <ele>378.399993896484375</ele>
        <time>2013-09-01T16:48:04.000Z</time>
        <extensions>
          <ns3:TrackPointExtension>
            <ns3:atemp>16.0</ns3:atemp>
          </ns3:TrackPointExtension>
        </extensions>
      </trkpt>
      <trkpt lat="46.80546018294990062713623046875" lon="6.89732923172414302825927734375">
        <ele>378.600006103515625</ele>
        <time>2013-09-01T16:48:05.000Z</time>
        <extensions>
          <ns3:TrackPointExtension>
            <ns3:atemp>16.0</ns3:atemp>
          </ns3:TrackPointExtension>
        </extensions>
      </trkpt>
      <trkpt lat="46.80546655319631099700927734375" lon="6.897253878414630889892578125">
        <ele>378.600006103515625</ele>
        <time>2013-09-01T16:48:06.000Z</time>
        <extensions>
          <ns3:TrackPointExtension>
            <ns3:atemp>16.0</ns3:atemp>
          </ns3:TrackPointExtension>
        </extensions>
      </trkpt>
      <trkpt lat="46.80546856485307216644287109375" lon="6.8971886672079563140869140625">
        <ele>378.79998779296875</ele>
        <time>2013-09-01T16:48:07.000Z</time>
        <extensions>
          <ns3:TrackPointExtension>
            <ns3:atemp>16.0</ns3:atemp>
          </ns3:TrackPointExtension>
        </extensions>
      </trkpt>
      <trkpt lat="46.80547124706208705902099609375" lon="6.897128485143184661865234375">
        <ele>379</ele>
        <time>2013-09-01T16:48:08.000Z</time>
        <extensions>
          <ns3:TrackPointExtension>
            <ns3:atemp>16.0</ns3:atemp>
          </ns3:TrackPointExtension>
        </extensions>
      </trkpt>
      <trkpt lat="46.80547359399497509002685546875" lon="6.897070817649364471435546875">
        <ele>379</ele>
        <time>2013-09-01T16:48:09.000Z</time>
        <extensions>
          <ns3:TrackPointExtension>
            <ns3:atemp>16.0</ns3:atemp>
          </ns3:TrackPointExtension>
        </extensions>
      </trkpt>
      <trkpt lat="46.805472336709499359130859375" lon="6.89701415598392486572265625">
        <ele>379.20001220703125</ele>
        <time>2013-09-01T16:48:10.000Z</time>
        <extensions>
          <ns3:TrackPointExtension>
            <ns3:atemp>16.0</ns3:atemp>
          </ns3:TrackPointExtension>
        </extensions>
      </trkpt>
      <trkpt lat="46.8054671399295330047607421875" lon="6.8969522975385189056396484375">
        <ele>379.20001220703125</ele>
        <time>2013-09-01T16:48:11.000Z</time>
        <extensions>
          <ns3:TrackPointExtension>
            <ns3:atemp>16.0</ns3:atemp>
          </ns3:TrackPointExtension>
        </extensions>
      </trkpt>
      <trkpt lat="46.80546370334923267364501953125" lon="6.89689018763601779937744140625">
        <ele>379.600006103515625</ele>
        <time>2013-09-01T16:48:12.000Z</time>
        <extensions>
          <ns3:TrackPointExtension>
            <ns3:atemp>16.0</ns3:atemp>
          </ns3:TrackPointExtension>
        </extensions>
      </trkpt>
      <trkpt lat="46.80546185933053493499755859375" lon="6.896831430494785308837890625">
        <ele>379.79998779296875</ele>
        <time>2013-09-01T16:48:13.000Z</time>
        <extensions>
          <ns3:TrackPointExtension>
            <ns3:atemp>16.0</ns3:atemp>
          </ns3:TrackPointExtension>
        </extensions>
      </trkpt>
      <trkpt lat="46.8054564110934734344482421875" lon="6.8967662192881107330322265625">
        <ele>380</ele>
        <time>2013-09-01T16:48:14.000Z</time>
        <extensions>
          <ns3:TrackPointExtension>
            <ns3:atemp>16.0</ns3:atemp>
          </ns3:TrackPointExtension>
        </extensions>
      </trkpt>
      <trkpt lat="46.80545029230415821075439453125" lon="6.89670042134821414947509765625">
        <ele>380.20001220703125</ele>
        <time>2013-09-01T16:48:15.000Z</time>
        <extensions>
          <ns3:TrackPointExtension>
            <ns3:atemp>16.0</ns3:atemp>
          </ns3:TrackPointExtension>
        </extensions>
      </trkpt>
      <trkpt lat="46.80544526316225528717041015625" lon="6.89663638360798358917236328125">
        <ele>380.399993896484375</ele>
        <time>2013-09-01T16:48:16.000Z</time>
        <extensions>
          <ns3:TrackPointExtension>
            <ns3:atemp>16.0</ns3:atemp>
          </ns3:TrackPointExtension>
        </extensions>
      </trkpt>
      <trkpt lat="46.80544023402035236358642578125" lon="6.89657469280064105987548828125">
        <ele>380.600006103515625</ele>
        <time>2013-09-01T16:48:17.000Z</time>
        <extensions>
          <ns3:TrackPointExtension>
            <ns3:atemp>16.0</ns3:atemp>
          </ns3:TrackPointExtension>
        </extensions>
      </trkpt>
      <trkpt lat="46.8054289184510707855224609375" lon="6.89651216380298137664794921875">
        <ele>380.79998779296875</ele>
        <time>2013-09-01T16:48:18.000Z</time>
        <extensions>
          <ns3:TrackPointExtension>
            <ns3:atemp>16.0</ns3:atemp>
          </ns3:TrackPointExtension>
        </extensions>
      </trkpt>
      <trkpt lat="46.8054111488163471221923828125" lon="6.89645550213754177093505859375">
        <ele>381</ele>
        <time>2013-09-01T16:48:19.000Z</time>
        <extensions>
          <ns3:TrackPointExtension>
            <ns3:atemp>16.0</ns3:atemp>
          </ns3:TrackPointExtension>
        </extensions>
      </trkpt>
      <trkpt lat="46.80539849214255809783935546875" lon="6.89639716409146785736083984375">
        <ele>381.20001220703125</ele>
        <time>2013-09-01T16:48:20.000Z</time>
        <extensions>
          <ns3:TrackPointExtension>
            <ns3:atemp>16.0</ns3:atemp>
          </ns3:TrackPointExtension>
        </extensions>
      </trkpt>
      <trkpt lat="46.8053855001926422119140625" lon="6.8963327072560787200927734375">
        <ele>381.600006103515625</ele>
        <time>2013-09-01T16:48:21.000Z</time>
        <extensions>
          <ns3:TrackPointExtension>
            <ns3:atemp>16.0</ns3:atemp>
          </ns3:TrackPointExtension>
        </extensions>
      </trkpt>
      <trkpt lat="46.80536898784339427947998046875" lon="6.89626405946910381317138671875">
        <ele>381.79998779296875</ele>
        <time>2013-09-01T16:48:22.000Z</time>
        <extensions>
          <ns3:TrackPointExtension>
            <ns3:atemp>16.0</ns3:atemp>
          </ns3:TrackPointExtension>
        </extensions>
      </trkpt>
      <trkpt lat="46.80535038001835346221923828125" lon="6.89619784243404865264892578125">
        <ele>382</ele>
        <time>2013-09-01T16:48:23.000Z</time>
        <extensions>
          <ns3:TrackPointExtension>
            <ns3:atemp>16.0</ns3:atemp>
          </ns3:TrackPointExtension>
        </extensions>
      </trkpt>
      <trkpt lat="46.8053340353071689605712890625" lon="6.8961350619792938232421875">
        <ele>382.399993896484375</ele>
        <time>2013-09-01T16:48:24.000Z</time>
        <extensions>
          <ns3:TrackPointExtension>
            <ns3:atemp>16.0</ns3:atemp>
          </ns3:TrackPointExtension>
        </extensions>
      </trkpt>
      <trkpt lat="46.80531467311084270477294921875" lon="6.89607529900968074798583984375">
        <ele>382.600006103515625</ele>
        <time>2013-09-01T16:48:25.000Z</time>
        <extensions>
          <ns3:TrackPointExtension>
            <ns3:atemp>16.0</ns3:atemp>
          </ns3:TrackPointExtension>
        </extensions>
      </trkpt>
      <trkpt lat="46.80530427955090999603271484375" lon="6.896021403372287750244140625">
        <ele>382.600006103515625</ele>
        <time>2013-09-01T16:48:26.000Z</time>
        <extensions>
          <ns3:TrackPointExtension>
            <ns3:atemp>16.0</ns3:atemp>
          </ns3:TrackPointExtension>
        </extensions>
      </trkpt>
      <trkpt lat="46.80529036559164524078369140625" lon="6.89596734009683132171630859375">
        <ele>382.79998779296875</ele>
        <time>2013-09-01T16:48:27.000Z</time>
        <extensions>
          <ns3:TrackPointExtension>
            <ns3:atemp>16.0</ns3:atemp>
          </ns3:TrackPointExtension>
        </extensions>
      </trkpt>
      <trkpt lat="46.80527728982269763946533203125" lon="6.895914785563945770263671875">
        <ele>383</ele>
        <time>2013-09-01T16:48:28.000Z</time>
        <extensions>
          <ns3:TrackPointExtension>
            <ns3:atemp>16.0</ns3:atemp>
          </ns3:TrackPointExtension>
        </extensions>
      </trkpt>
      <trkpt lat="46.80526438169181346893310546875" lon="6.89586080610752105712890625">
        <ele>383</ele>
        <time>2013-09-01T16:48:29.000Z</time>
        <extensions>
          <ns3:TrackPointExtension>
            <ns3:atemp>16.0</ns3:atemp>
          </ns3:TrackPointExtension>
        </extensions>
      </trkpt>
      <trkpt lat="46.80525214411318302154541015625" lon="6.8958009593188762664794921875">
        <ele>383.20001220703125</ele>
        <time>2013-09-01T16:48:30.000Z</time>
        <extensions>
          <ns3:TrackPointExtension>
            <ns3:atemp>16.0</ns3:atemp>
          </ns3:TrackPointExtension>
        </extensions>
      </trkpt>
      <trkpt lat="46.8052341230213642120361328125" lon="6.89572426490485668182373046875">
        <ele>383.20001220703125</ele>
        <time>2013-09-01T16:48:31.000Z</time>
        <extensions>
          <ns3:TrackPointExtension>
            <ns3:atemp>16.0</ns3:atemp>
          </ns3:TrackPointExtension>
        </extensions>
      </trkpt>
      <trkpt lat="46.8052126653492450714111328125" lon="6.89565184526145458221435546875">
        <ele>383.20001220703125</ele>
        <time>2013-09-01T16:48:32.000Z</time>
        <extensions>
          <ns3:TrackPointExtension>
            <ns3:atemp>16.0</ns3:atemp>
          </ns3:TrackPointExtension>
        </extensions>
      </trkpt>
      <trkpt lat="46.80518366396427154541015625" lon="6.8955838680267333984375">
        <ele>383.20001220703125</ele>
        <time>2013-09-01T16:48:33.000Z</time>
        <extensions>
          <ns3:TrackPointExtension>
            <ns3:atemp>16.0</ns3:atemp>
          </ns3:TrackPointExtension>
        </extensions>
      </trkpt>
      <trkpt lat="46.805154494941234588623046875" lon="6.8955186568200588226318359375">
        <ele>383.399993896484375</ele>
        <time>2013-09-01T16:48:34.000Z</time>
        <extensions>
          <ns3:TrackPointExtension>
            <ns3:atemp>16.0</ns3:atemp>
          </ns3:TrackPointExtension>
        </extensions>
      </trkpt>
      <trkpt lat="46.80512624792754650115966796875" lon="6.8954633362591266632080078125">
        <ele>383.399993896484375</ele>
        <time>2013-09-01T16:48:35.000Z</time>
        <extensions>
          <ns3:TrackPointExtension>
            <ns3:atemp>16.0</ns3:atemp>
          </ns3:TrackPointExtension>
        </extensions>
      </trkpt>
      <trkpt lat="46.8050966598093509674072265625" lon="6.8954096920788288116455078125">
        <ele>383.600006103515625</ele>
        <time>2013-09-01T16:48:36.000Z</time>
        <extensions>
          <ns3:TrackPointExtension>
            <ns3:atemp>16.0</ns3:atemp>
          </ns3:TrackPointExtension>
        </extensions>
      </trkpt>
      <trkpt lat="46.8050689995288848876953125" lon="6.895364262163639068603515625">
        <ele>383.79998779296875</ele>
        <time>2013-09-01T16:48:37.000Z</time>
        <extensions>
          <ns3:TrackPointExtension>
            <ns3:atemp>16.0</ns3:atemp>
          </ns3:TrackPointExtension>
        </extensions>
      </trkpt>
      <trkpt lat="46.80504259653389453887939453125" lon="6.89531899988651275634765625">
        <ele>384</ele>
        <time>2013-09-01T16:48:38.000Z</time>
        <extensions>
          <ns3:TrackPointExtension>
            <ns3:atemp>16.0</ns3:atemp>
          </ns3:TrackPointExtension>
        </extensions>
      </trkpt>
      <trkpt lat="46.8050084821879863739013671875" lon="6.895273737609386444091796875">
        <ele>384.20001220703125</ele>
        <time>2013-09-01T16:48:39.000Z</time>
        <extensions>
          <ns3:TrackPointExtension>
            <ns3:atemp>16.0</ns3:atemp>
          </ns3:TrackPointExtension>
        </extensions>
      </trkpt>
      <trkpt lat="46.80497420020401477813720703125" lon="6.8952259607613086700439453125">
        <ele>384.20001220703125</ele>
        <time>2013-09-01T16:48:40.000Z</time>
        <extensions>
          <ns3:TrackPointExtension>
            <ns3:atemp>16.0</ns3:atemp>
          </ns3:TrackPointExtension>
        </extensions>
      </trkpt>
      <trkpt lat="46.80493983440101146697998046875" lon="6.8951793573796749114990234375">
        <ele>384.399993896484375</ele>
        <time>2013-09-01T16:48:41.000Z</time>
        <extensions>
          <ns3:TrackPointExtension>
            <ns3:atemp>16.0</ns3:atemp>
          </ns3:TrackPointExtension>
        </extensions>
      </trkpt>
      <trkpt lat="46.8049042113125324249267578125" lon="6.89513568766415119171142578125">
        <ele>384.600006103515625</ele>
        <time>2013-09-01T16:48:42.000Z</time>
        <extensions>
          <ns3:TrackPointExtension>
            <ns3:atemp>16.0</ns3:atemp>
          </ns3:TrackPointExtension>
        </extensions>
      </trkpt>
      <trkpt lat="46.8048723600804805755615234375" lon="6.89509595744311809539794921875">
        <ele>384.79998779296875</ele>
        <time>2013-09-01T16:48:43.000Z</time>
        <extensions>
          <ns3:TrackPointExtension>
            <ns3:atemp>16.0</ns3:atemp>
          </ns3:TrackPointExtension>
        </extensions>
      </trkpt>
      <trkpt lat="46.804839335381984710693359375" lon="6.89504943788051605224609375">
        <ele>385</ele>
        <time>2013-09-01T16:48:44.000Z</time>
        <extensions>
          <ns3:TrackPointExtension>
            <ns3:atemp>16.0</ns3:atemp>
          </ns3:TrackPointExtension>
        </extensions>
      </trkpt>
      <trkpt lat="46.804806478321552276611328125" lon="6.89499445259571075439453125">
        <ele>385.20001220703125</ele>
        <time>2013-09-01T16:48:45.000Z</time>
        <extensions>
          <ns3:TrackPointExtension>
            <ns3:atemp>16.0</ns3:atemp>
          </ns3:TrackPointExtension>
        </extensions>
      </trkpt>
      <trkpt lat="46.80477621965110301971435546875" lon="6.89493703655898571014404296875">
        <ele>385.600006103515625</ele>
        <time>2013-09-01T16:48:46.000Z</time>
        <extensions>
          <ns3:TrackPointExtension>
            <ns3:atemp>16.0</ns3:atemp>
          </ns3:TrackPointExtension>
        </extensions>
      </trkpt>
      <trkpt lat="46.80473783053457736968994140625" lon="6.89489328302443027496337890625">
        <ele>385.79998779296875</ele>
        <time>2013-09-01T16:48:47.000Z</time>
        <extensions>
          <ns3:TrackPointExtension>
            <ns3:atemp>16.0</ns3:atemp>
          </ns3:TrackPointExtension>
        </extensions>
      </trkpt>
      <trkpt lat="46.80470757186412811279296875" lon="6.8948529660701751708984375">
        <ele>385.79998779296875</ele>
        <time>2013-09-01T16:48:49.000Z</time>
        <extensions>
          <ns3:TrackPointExtension>
            <ns3:atemp>16.0</ns3:atemp>
          </ns3:TrackPointExtension>
        </extensions>
      </trkpt>
      <trkpt lat="46.80468066595494747161865234375" lon="6.8948175944387912750244140625">
        <ele>386.20001220703125</ele>
        <time>2013-09-01T16:48:50.000Z</time>
        <extensions>
          <ns3:TrackPointExtension>
            <ns3:atemp>16.0</ns3:atemp>
          </ns3:TrackPointExtension>
        </extensions>
      </trkpt>
      <trkpt lat="46.8046527542173862457275390625" lon="6.89477861858904361724853515625">
        <ele>386.600006103515625</ele>
        <time>2013-09-01T16:48:51.000Z</time>
        <extensions>
          <ns3:TrackPointExtension>
            <ns3:atemp>16.0</ns3:atemp>
          </ns3:TrackPointExtension>
        </extensions>
      </trkpt>
      <trkpt lat="46.80462442338466644287109375" lon="6.89473737962543964385986328125">
        <ele>386.79998779296875</ele>
        <time>2013-09-01T16:48:52.000Z</time>
        <extensions>
          <ns3:TrackPointExtension>
            <ns3:atemp>16.0</ns3:atemp>
          </ns3:TrackPointExtension>
        </extensions>
      </trkpt>
      <trkpt lat="46.80459634400904178619384765625" lon="6.8946982361376285552978515625">
        <ele>387.20001220703125</ele>
        <time>2013-09-01T16:48:53.000Z</time>
        <extensions>
          <ns3:TrackPointExtension>
            <ns3:atemp>16.0</ns3:atemp>
          </ns3:TrackPointExtension>
        </extensions>
      </trkpt>
      <trkpt lat="46.8045722879469394683837890625" lon="6.8946600146591663360595703125">
        <ele>387.600006103515625</ele>
        <time>2013-09-01T16:48:54.000Z</time>
        <extensions>
          <ns3:TrackPointExtension>
            <ns3:atemp>16.0</ns3:atemp>
          </ns3:TrackPointExtension>
        </extensions>
      </trkpt>
      <trkpt lat="46.80454487912356853485107421875" lon="6.8946238048374652862548828125">
        <ele>387.79998779296875</ele>
        <time>2013-09-01T16:48:55.000Z</time>
        <extensions>
          <ns3:TrackPointExtension>
            <ns3:atemp>16.0</ns3:atemp>
          </ns3:TrackPointExtension>
        </extensions>
      </trkpt>
      <trkpt lat="46.804514788091182708740234375" lon="6.894581727683544158935546875">
        <ele>388</ele>
        <time>2013-09-01T16:48:56.000Z</time>
        <extensions>
          <ns3:TrackPointExtension>
            <ns3:atemp>16.0</ns3:atemp>
          </ns3:TrackPointExtension>
        </extensions>
      </trkpt>
      <trkpt lat="46.80448402650654315948486328125" lon="6.894530095160007476806640625">
        <ele>388.20001220703125</ele>
        <time>2013-09-01T16:48:57.000Z</time>
        <extensions>
          <ns3:TrackPointExtension>
            <ns3:atemp>16.0</ns3:atemp>
          </ns3:TrackPointExtension>
        </extensions>
      </trkpt>
      <trkpt lat="46.8044549413025379180908203125" lon="6.89447100274264812469482421875">
        <ele>388.20001220703125</ele>
        <time>2013-09-01T16:48:58.000Z</time>
        <extensions>
          <ns3:TrackPointExtension>
            <ns3:atemp>16.0</ns3:atemp>
          </ns3:TrackPointExtension>
        </extensions>
      </trkpt>
      <trkpt lat="46.80442635901272296905517578125" lon="6.89441509544849395751953125">
        <ele>388.399993896484375</ele>
        <time>2013-09-01T16:48:59.000Z</time>
        <extensions>
          <ns3:TrackPointExtension>
            <ns3:atemp>16.0</ns3:atemp>
          </ns3:TrackPointExtension>
        </extensions>
      </trkpt>
      <trkpt lat="46.80439769290387630462646484375" lon="6.8943549133837223052978515625">
        <ele>388.399993896484375</ele>
        <time>2013-09-01T16:49:00.000Z</time>
        <extensions>
          <ns3:TrackPointExtension>
            <ns3:atemp>16.0</ns3:atemp>
          </ns3:TrackPointExtension>
        </extensions>
      </trkpt>
      <trkpt lat="46.80437229573726654052734375" lon="6.894294060766696929931640625">
        <ele>388.399993896484375</ele>
        <time>2013-09-01T16:49:01.000Z</time>
        <extensions>
          <ns3:TrackPointExtension>
            <ns3:atemp>16.0</ns3:atemp>
          </ns3:TrackPointExtension>
        </extensions>
      </trkpt>
      <trkpt lat="46.80434756912291049957275390625" lon="6.89423404633998870849609375">
        <ele>388.399993896484375</ele>
        <time>2013-09-01T16:49:02.000Z</time>
        <extensions>
          <ns3:TrackPointExtension>
            <ns3:atemp>16.0</ns3:atemp>
          </ns3:TrackPointExtension>
        </extensions>
      </trkpt>
      <trkpt lat="46.8043278716504573822021484375" lon="6.89417101442813873291015625">
        <ele>388.600006103515625</ele>
        <time>2013-09-01T16:49:03.000Z</time>
        <extensions>
          <ns3:TrackPointExtension>
            <ns3:atemp>16.0</ns3:atemp>
          </ns3:TrackPointExtension>
        </extensions>
      </trkpt>
      <trkpt lat="46.80430733598768711090087890625" lon="6.89411024563014507293701171875">
        <ele>388.79998779296875</ele>
        <time>2013-09-01T16:49:04.000Z</time>
        <extensions>
          <ns3:TrackPointExtension>
            <ns3:atemp>16.0</ns3:atemp>
          </ns3:TrackPointExtension>
        </extensions>
      </trkpt>
      <trkpt lat="46.8042873032391071319580078125" lon="6.89405626617372035980224609375">
        <ele>389</ele>
        <time>2013-09-01T16:49:05.000Z</time>
        <extensions>
          <ns3:TrackPointExtension>
            <ns3:atemp>16.0</ns3:atemp>
          </ns3:TrackPointExtension>
        </extensions>
      </trkpt>
      <trkpt lat="46.80427028797566890716552734375" lon="6.8939975090324878692626953125">
        <ele>389.20001220703125</ele>
        <time>2013-09-01T16:49:06.000Z</time>
        <extensions>
          <ns3:TrackPointExtension>
            <ns3:atemp>16.0</ns3:atemp>
          </ns3:TrackPointExtension>
        </extensions>
      </trkpt>
      <trkpt lat="46.8042536079883575439453125" lon="6.89393171109259128570556640625">
        <ele>389.20001220703125</ele>
        <time>2013-09-01T16:49:07.000Z</time>
        <extensions>
          <ns3:TrackPointExtension>
            <ns3:atemp>16.0</ns3:atemp>
          </ns3:TrackPointExtension>
        </extensions>
      </trkpt>
      <trkpt lat="46.80424564518034458160400390625" lon="6.8938620574772357940673828125">
        <ele>389.20001220703125</ele>
        <time>2013-09-01T16:49:08.000Z</time>
        <extensions>
          <ns3:TrackPointExtension>
            <ns3:atemp>16.0</ns3:atemp>
          </ns3:TrackPointExtension>
        </extensions>
      </trkpt>
      <trkpt lat="46.80423843674361705780029296875" lon="6.89378972165286540985107421875">
        <ele>389.399993896484375</ele>
        <time>2013-09-01T16:49:09.000Z</time>
        <extensions>
          <ns3:TrackPointExtension>
            <ns3:atemp>16.0</ns3:atemp>
          </ns3:TrackPointExtension>
        </extensions>
      </trkpt>
      <trkpt lat="46.8042339943349361419677734375" lon="6.89371746964752674102783203125">
        <ele>389.399993896484375</ele>
        <time>2013-09-01T16:49:10.000Z</time>
        <extensions>
          <ns3:TrackPointExtension>
            <ns3:atemp>16.0</ns3:atemp>
          </ns3:TrackPointExtension>
        </extensions>
      </trkpt>
      <trkpt lat="46.80422401987016201019287109375" lon="6.893646307289600372314453125">
        <ele>389.600006103515625</ele>
        <time>2013-09-01T16:49:11.000Z</time>
        <extensions>
          <ns3:TrackPointExtension>
            <ns3:atemp>16.0</ns3:atemp>
          </ns3:TrackPointExtension>
        </extensions>
      </trkpt>
      <trkpt lat="46.804215051233768463134765625" lon="6.893574893474578857421875">
        <ele>389.79998779296875</ele>
        <time>2013-09-01T16:49:12.000Z</time>
        <extensions>
          <ns3:TrackPointExtension>
            <ns3:atemp>16.0</ns3:atemp>
          </ns3:TrackPointExtension>
        </extensions>
      </trkpt>
      <trkpt lat="46.80420574732124805450439453125" lon="6.89350557513535022735595703125">
        <ele>389.79998779296875</ele>
        <time>2013-09-01T16:49:13.000Z</time>
        <extensions>
          <ns3:TrackPointExtension>
            <ns3:atemp>16.0</ns3:atemp>
          </ns3:TrackPointExtension>
        </extensions>
      </trkpt>
      <trkpt lat="46.80419116280972957611083984375" lon="6.89343835227191448211669921875">
        <ele>389.79998779296875</ele>
        <time>2013-09-01T16:49:14.000Z</time>
        <extensions>
          <ns3:TrackPointExtension>
            <ns3:atemp>16.0</ns3:atemp>
          </ns3:TrackPointExtension>
        </extensions>
      </trkpt>
      <trkpt lat="46.80417071096599102020263671875" lon="6.89337213523685932159423828125">
        <ele>390</ele>
        <time>2013-09-01T16:49:15.000Z</time>
        <extensions>
          <ns3:TrackPointExtension>
            <ns3:atemp>16.0</ns3:atemp>
          </ns3:TrackPointExtension>
        </extensions>
      </trkpt>
      <trkpt lat="46.80415713228285312652587890625" lon="6.8933135457336902618408203125">
        <ele>390.399993896484375</ele>
        <time>2013-09-01T16:49:16.000Z</time>
        <extensions>
          <ns3:TrackPointExtension>
            <ns3:atemp>16.0</ns3:atemp>
          </ns3:TrackPointExtension>
        </extensions>
      </trkpt>
      <trkpt lat="46.80414497852325439453125" lon="6.893258392810821533203125">
        <ele>390.79998779296875</ele>
        <time>2013-09-01T16:49:17.000Z</time>
        <extensions>
          <ns3:TrackPointExtension>
            <ns3:atemp>16.0</ns3:atemp>
          </ns3:TrackPointExtension>
        </extensions>
      </trkpt>
      <trkpt lat="46.804130561649799346923828125" lon="6.89320768229663372039794921875">
        <ele>391</ele>
        <time>2013-09-01T16:49:18.000Z</time>
        <extensions>
          <ns3:TrackPointExtension>
            <ns3:atemp>16.0</ns3:atemp>
          </ns3:TrackPointExtension>
        </extensions>
      </trkpt>
      <trkpt lat="46.8041126243770122528076171875" lon="6.89315336756408214569091796875">
        <ele>391.399993896484375</ele>
        <time>2013-09-01T16:49:19.000Z</time>
        <extensions>
          <ns3:TrackPointExtension>
            <ns3:atemp>16.0</ns3:atemp>
          </ns3:TrackPointExtension>
        </extensions>
      </trkpt>
      <trkpt lat="46.80409208871424198150634765625" lon="6.89309938810765743255615234375">
        <ele>391.600006103515625</ele>
        <time>2013-09-01T16:49:20.000Z</time>
        <extensions>
          <ns3:TrackPointExtension>
            <ns3:atemp>16.0</ns3:atemp>
          </ns3:TrackPointExtension>
        </extensions>
      </trkpt>
      <trkpt lat="46.80406912229955196380615234375" lon="6.89304582774639129638671875">
        <ele>391.79998779296875</ele>
        <time>2013-09-01T16:49:21.000Z</time>
        <extensions>
          <ns3:TrackPointExtension>
            <ns3:atemp>16.0</ns3:atemp>
          </ns3:TrackPointExtension>
        </extensions>
      </trkpt>
      <trkpt lat="46.8040479160845279693603515625" lon="6.8929930217564105987548828125">
        <ele>391.79998779296875</ele>
        <time>2013-09-01T16:49:22.000Z</time>
        <extensions>
          <ns3:TrackPointExtension>
            <ns3:atemp>16.0</ns3:atemp>
          </ns3:TrackPointExtension>
        </extensions>
      </trkpt>
      <trkpt lat="46.80403039790689945220947265625" lon="6.892942227423191070556640625">
        <ele>391.79998779296875</ele>
        <time>2013-09-01T16:49:23.000Z</time>
        <extensions>
          <ns3:TrackPointExtension>
            <ns3:atemp>16.0</ns3:atemp>
          </ns3:TrackPointExtension>
        </extensions>
      </trkpt>
      <trkpt lat="46.8040127120912075042724609375" lon="6.89288598485291004180908203125">
        <ele>391.79998779296875</ele>
        <time>2013-09-01T16:49:24.000Z</time>
        <extensions>
          <ns3:TrackPointExtension>
            <ns3:atemp>16.0</ns3:atemp>
          </ns3:TrackPointExtension>
        </extensions>
      </trkpt>
      <trkpt lat="46.80399972014129161834716796875" lon="6.89283259212970733642578125">
        <ele>391.79998779296875</ele>
        <time>2013-09-01T16:49:25.000Z</time>
        <extensions>
          <ns3:TrackPointExtension>
            <ns3:atemp>16.0</ns3:atemp>
          </ns3:TrackPointExtension>
        </extensions>
      </trkpt>
      <trkpt lat="46.80399200879037380218505859375" lon="6.89277760684490203857421875">
        <ele>391.79998779296875</ele>
        <time>2013-09-01T16:49:26.000Z</time>
        <extensions>
          <ns3:TrackPointExtension>
            <ns3:atemp>16.0</ns3:atemp>
          </ns3:TrackPointExtension>
        </extensions>
      </trkpt>
      <trkpt lat="46.80398873984813690185546875" lon="6.892720274627208709716796875">
        <ele>391.600006103515625</ele>
        <time>2013-09-01T16:49:27.000Z</time>
        <extensions>
          <ns3:TrackPointExtension>
            <ns3:atemp>16.0</ns3:atemp>
          </ns3:TrackPointExtension>
        </extensions>
      </trkpt>
      <trkpt lat="46.80398664437234401702880859375" lon="6.89266319386661052703857421875">
        <ele>391.600006103515625</ele>
        <time>2013-09-01T16:49:28.000Z</time>
        <extensions>
          <ns3:TrackPointExtension>
            <ns3:atemp>16.0</ns3:atemp>
          </ns3:TrackPointExtension>
        </extensions>
      </trkpt>
      <trkpt lat="46.80399016477167606353759765625" lon="6.89260586164891719818115234375">
        <ele>391.399993896484375</ele>
        <time>2013-09-01T16:49:29.000Z</time>
        <extensions>
          <ns3:TrackPointExtension>
            <ns3:atemp>16.0</ns3:atemp>
          </ns3:TrackPointExtension>
        </extensions>
      </trkpt>
      <trkpt lat="46.8039956130087375640869140625" lon="6.89254157245159149169921875">
        <ele>391.600006103515625</ele>
        <time>2013-09-01T16:49:30.000Z</time>
        <extensions>
          <ns3:TrackPointExtension>
            <ns3:atemp>16.0</ns3:atemp>
          </ns3:TrackPointExtension>
        </extensions>
      </trkpt>
      <trkpt lat="46.80401514284312725067138671875" lon="6.89247049391269683837890625">
        <ele>391.600006103515625</ele>
        <time>2013-09-01T16:49:31.000Z</time>
        <extensions>
          <ns3:TrackPointExtension>
            <ns3:atemp>16.0</ns3:atemp>
          </ns3:TrackPointExtension>
        </extensions>
      </trkpt>
      <trkpt lat="46.80402939207851886749267578125" lon="6.892407126724720001220703125">
        <ele>391.79998779296875</ele>
        <time>2013-09-01T16:49:32.000Z</time>
        <extensions>
          <ns3:TrackPointExtension>
            <ns3:atemp>16.0</ns3:atemp>
          </ns3:TrackPointExtension>
        </extensions>
      </trkpt>
      <trkpt lat="46.80403794161975383758544921875" lon="6.89234417863190174102783203125">
        <ele>392</ele>
        <time>2013-09-01T16:49:33.000Z</time>
        <extensions>
          <ns3:TrackPointExtension>
            <ns3:atemp>16.0</ns3:atemp>
          </ns3:TrackPointExtension>
        </extensions>
      </trkpt>
      <trkpt lat="46.804042048752307891845703125" lon="6.89227930270135402679443359375">
        <ele>392.20001220703125</ele>
        <time>2013-09-01T16:49:34.000Z</time>
        <extensions>
          <ns3:TrackPointExtension>
            <ns3:atemp>16.0</ns3:atemp>
          </ns3:TrackPointExtension>
        </extensions>
      </trkpt>
      <trkpt lat="46.8040391989052295684814453125" lon="6.89222347922623157501220703125">
        <ele>392.399993896484375</ele>
        <time>2013-09-01T16:49:35.000Z</time>
        <extensions>
          <ns3:TrackPointExtension>
            <ns3:atemp>16.0</ns3:atemp>
          </ns3:TrackPointExtension>
        </extensions>
      </trkpt>
      <trkpt lat="46.8040308170020580291748046875" lon="6.89217033796012401580810546875">
        <ele>392.600006103515625</ele>
        <time>2013-09-01T16:49:36.000Z</time>
        <extensions>
          <ns3:TrackPointExtension>
            <ns3:atemp>16.0</ns3:atemp>
          </ns3:TrackPointExtension>
        </extensions>
      </trkpt>
      <trkpt lat="46.80402000434696674346923828125" lon="6.89211837016046047210693359375">
        <ele>393</ele>
        <time>2013-09-01T16:49:37.000Z</time>
        <extensions>
          <ns3:TrackPointExtension>
            <ns3:atemp>16.0</ns3:atemp>
          </ns3:TrackPointExtension>
        </extensions>
      </trkpt>
      <trkpt lat="46.80401044897735118865966796875" lon="6.892061792314052581787109375">
        <ele>393.399993896484375</ele>
        <time>2013-09-01T16:49:38.000Z</time>
        <extensions>
          <ns3:TrackPointExtension>
            <ns3:atemp>16.0</ns3:atemp>
          </ns3:TrackPointExtension>
        </extensions>
      </trkpt>
      <trkpt lat="46.80399955250322818756103515625" lon="6.8920103274285793304443359375">
        <ele>393.600006103515625</ele>
        <time>2013-09-01T16:49:39.000Z</time>
        <extensions>
          <ns3:TrackPointExtension>
            <ns3:atemp>16.0</ns3:atemp>
          </ns3:TrackPointExtension>
        </extensions>
      </trkpt>
      <trkpt lat="46.80398471653461456298828125" lon="6.89195358194410800933837890625">
        <ele>393.600006103515625</ele>
        <time>2013-09-01T16:49:40.000Z</time>
        <extensions>
          <ns3:TrackPointExtension>
            <ns3:atemp>16.0</ns3:atemp>
          </ns3:TrackPointExtension>
        </extensions>
      </trkpt>
      <trkpt lat="46.803972311317920684814453125" lon="6.8919027037918567657470703125">
        <ele>394</ele>
        <time>2013-09-01T16:49:41.000Z</time>
        <extensions>
          <ns3:TrackPointExtension>
            <ns3:atemp>16.0</ns3:atemp>
          </ns3:TrackPointExtension>
        </extensions>
      </trkpt>
      <trkpt lat="46.8039523623883724212646484375" lon="6.8918430246412754058837890625">
        <ele>394</ele>
        <time>2013-09-01T16:49:42.000Z</time>
        <extensions>
          <ns3:TrackPointExtension>
            <ns3:atemp>16.0</ns3:atemp>
          </ns3:TrackPointExtension>
        </extensions>
      </trkpt>
      <trkpt lat="46.80393350310623645782470703125" lon="6.89177957363426685333251953125">
        <ele>394.20001220703125</ele>
        <time>2013-09-01T16:49:43.000Z</time>
        <extensions>
          <ns3:TrackPointExtension>
            <ns3:atemp>16.0</ns3:atemp>
          </ns3:TrackPointExtension>
        </extensions>
      </trkpt>
      <trkpt lat="46.80391355417668819427490234375" lon="6.89170748926699161529541015625">
        <ele>394.20001220703125</ele>
        <time>2013-09-01T16:49:44.000Z</time>
        <extensions>
          <ns3:TrackPointExtension>
            <ns3:atemp>16.0</ns3:atemp>
          </ns3:TrackPointExtension>
        </extensions>
      </trkpt>
      <trkpt lat="46.80389813147485256195068359375" lon="6.89163791947066783905029296875">
        <ele>394.20001220703125</ele>
        <time>2013-09-01T16:49:45.000Z</time>
        <extensions>
          <ns3:TrackPointExtension>
            <ns3:atemp>16.0</ns3:atemp>
          </ns3:TrackPointExtension>
        </extensions>
      </trkpt>
      <trkpt lat="46.8038829602301120758056640625" lon="6.8915691040456295013427734375">
        <ele>394.399993896484375</ele>
        <time>2013-09-01T16:49:46.000Z</time>
        <extensions>
          <ns3:TrackPointExtension>
            <ns3:atemp>16.0</ns3:atemp>
          </ns3:TrackPointExtension>
        </extensions>
      </trkpt>
      <trkpt lat="46.80386259220540523529052734375" lon="6.891495175659656524658203125">
        <ele>394.600006103515625</ele>
        <time>2013-09-01T16:49:47.000Z</time>
        <extensions>
          <ns3:TrackPointExtension>
            <ns3:atemp>16.0</ns3:atemp>
          </ns3:TrackPointExtension>
        </extensions>
      </trkpt>
      <trkpt lat="46.80383459664881229400634765625" lon="6.8914202414453029632568359375">
        <ele>395</ele>
        <time>2013-09-01T16:49:48.000Z</time>
        <extensions>
          <ns3:TrackPointExtension>
            <ns3:atemp>16.0</ns3:atemp>
          </ns3:TrackPointExtension>
        </extensions>
      </trkpt>
      <trkpt lat="46.80380878038704395294189453125" lon="6.89135494641959667205810546875">
        <ele>395.20001220703125</ele>
        <time>2013-09-01T16:49:49.000Z</time>
        <extensions>
          <ns3:TrackPointExtension>
            <ns3:atemp>16.0</ns3:atemp>
          </ns3:TrackPointExtension>
        </extensions>
      </trkpt>
      <trkpt lat="46.80378765799105167388916015625" lon="6.89129627309739589691162109375">
        <ele>395.600006103515625</ele>
        <time>2013-09-01T16:49:50.000Z</time>
        <extensions>
          <ns3:TrackPointExtension>
            <ns3:atemp>16.0</ns3:atemp>
          </ns3:TrackPointExtension>
        </extensions>
      </trkpt>
      <trkpt lat="46.8037682957947254180908203125" lon="6.89123801887035369873046875">
        <ele>396</ele>
        <time>2013-09-01T16:49:51.000Z</time>
        <extensions>
          <ns3:TrackPointExtension>
            <ns3:atemp>16.0</ns3:atemp>
          </ns3:TrackPointExtension>
        </extensions>
      </trkpt>
      <trkpt lat="46.8037493526935577392578125" lon="6.891182027757167816162109375">
        <ele>396.399993896484375</ele>
        <time>2013-09-01T16:49:52.000Z</time>
        <extensions>
          <ns3:TrackPointExtension>
            <ns3:atemp>16.0</ns3:atemp>
          </ns3:TrackPointExtension>
        </extensions>
      </trkpt>
      <trkpt lat="46.80372797884047031402587890625" lon="6.89112746156752109527587890625">
        <ele>396.600006103515625</ele>
        <time>2013-09-01T16:49:53.000Z</time>
        <extensions>
          <ns3:TrackPointExtension>
            <ns3:atemp>16.0</ns3:atemp>
          </ns3:TrackPointExtension>
        </extensions>
      </trkpt>
      <trkpt lat="46.80370769463479518890380859375" lon="6.8910648487508296966552734375">
        <ele>396.79998779296875</ele>
        <time>2013-09-01T16:49:54.000Z</time>
        <extensions>
          <ns3:TrackPointExtension>
            <ns3:atemp>16.0</ns3:atemp>
          </ns3:TrackPointExtension>
        </extensions>
      </trkpt>
      <trkpt lat="46.80368271656334400177001953125" lon="6.89100156538188457489013671875">
        <ele>396.79998779296875</ele>
        <time>2013-09-01T16:49:55.000Z</time>
        <extensions>
          <ns3:TrackPointExtension>
            <ns3:atemp>16.0</ns3:atemp>
          </ns3:TrackPointExtension>
        </extensions>
      </trkpt>
      <trkpt lat="46.803657151758670806884765625" lon="6.89093836583197116851806640625">
        <ele>397</ele>
        <time>2013-09-01T16:49:56.000Z</time>
        <extensions>
          <ns3:TrackPointExtension>
            <ns3:atemp>16.0</ns3:atemp>
          </ns3:TrackPointExtension>
        </extensions>
      </trkpt>
      <trkpt lat="46.80362932384014129638671875" lon="6.89087315462529659271240234375">
        <ele>397</ele>
        <time>2013-09-01T16:49:57.000Z</time>
        <extensions>
          <ns3:TrackPointExtension>
            <ns3:atemp>16.0</ns3:atemp>
          </ns3:TrackPointExtension>
        </extensions>
      </trkpt>
      <trkpt lat="46.8036046810448169708251953125" lon="6.89080375246703624725341796875">
        <ele>397</ele>
        <time>2013-09-01T16:49:58.000Z</time>
        <extensions>
          <ns3:TrackPointExtension>
            <ns3:atemp>16.0</ns3:atemp>
          </ns3:TrackPointExtension>
        </extensions>
      </trkpt>
      <trkpt lat="46.80357760749757289886474609375" lon="6.89073384739458560943603515625">
        <ele>397</ele>
        <time>2013-09-01T16:49:59.000Z</time>
        <extensions>
          <ns3:TrackPointExtension>
            <ns3:atemp>16.0</ns3:atemp>
          </ns3:TrackPointExtension>
        </extensions>
      </trkpt>
      <trkpt lat="46.803551875054836273193359375" lon="6.89066000282764434814453125">
        <ele>397.20001220703125</ele>
        <time>2013-09-01T16:50:00.000Z</time>
        <extensions>
          <ns3:TrackPointExtension>
            <ns3:atemp>16.0</ns3:atemp>
          </ns3:TrackPointExtension>
        </extensions>
      </trkpt>
      <trkpt lat="46.80352983064949512481689453125" lon="6.8905827216804027557373046875">
        <ele>397.20001220703125</ele>
        <time>2013-09-01T16:50:01.000Z</time>
        <extensions>
          <ns3:TrackPointExtension>
            <ns3:atemp>16.0</ns3:atemp>
          </ns3:TrackPointExtension>
        </extensions>
      </trkpt>
      <trkpt lat="46.80350820533931255340576171875" lon="6.89050334505736827850341796875">
        <ele>397.399993896484375</ele>
        <time>2013-09-01T16:50:02.000Z</time>
        <extensions>
          <ns3:TrackPointExtension>
            <ns3:atemp>16.0</ns3:atemp>
          </ns3:TrackPointExtension>
        </extensions>
      </trkpt>
      <trkpt lat="46.80348942987620830535888671875" lon="6.89042354933917522430419921875">
        <ele>397.399993896484375</ele>
        <time>2013-09-01T16:50:03.000Z</time>
        <extensions>
          <ns3:TrackPointExtension>
            <ns3:atemp>16.0</ns3:atemp>
          </ns3:TrackPointExtension>
        </extensions>
      </trkpt>
      <trkpt lat="46.803473420441150665283203125" lon="6.89034081995487213134765625">
        <ele>397.600006103515625</ele>
        <time>2013-09-01T16:50:04.000Z</time>
        <extensions>
          <ns3:TrackPointExtension>
            <ns3:atemp>16.0</ns3:atemp>
          </ns3:TrackPointExtension>
        </extensions>
      </trkpt>
      <trkpt lat="46.80346026085317134857177734375" lon="6.8902618624269962310791015625">
        <ele>397.600006103515625</ele>
        <time>2013-09-01T16:50:05.000Z</time>
        <extensions>
          <ns3:TrackPointExtension>
            <ns3:atemp>16.0</ns3:atemp>
          </ns3:TrackPointExtension>
        </extensions>
      </trkpt>
      <trkpt lat="46.8034504540264606475830078125" lon="6.89018365927040576934814453125">
        <ele>397.399993896484375</ele>
        <time>2013-09-01T16:50:06.000Z</time>
        <extensions>
          <ns3:TrackPointExtension>
            <ns3:atemp>16.0</ns3:atemp>
          </ns3:TrackPointExtension>
        </extensions>
      </trkpt>
      <trkpt lat="46.80344785563647747039794921875" lon="6.8900982476770877838134765625">
        <ele>397.399993896484375</ele>
        <time>2013-09-01T16:50:07.000Z</time>
        <extensions>
          <ns3:TrackPointExtension>
            <ns3:atemp>16.0</ns3:atemp>
          </ns3:TrackPointExtension>
        </extensions>
      </trkpt>
      <trkpt lat="46.8034481070935726165771484375" lon="6.89000830985605716705322265625">
        <ele>397.399993896484375</ele>
        <time>2013-09-01T16:50:08.000Z</time>
        <extensions>
          <ns3:TrackPointExtension>
            <ns3:atemp>16.0</ns3:atemp>
          </ns3:TrackPointExtension>
        </extensions>
      </trkpt>
      <trkpt lat="46.80344752036035060882568359375" lon="6.8899135105311870574951171875">
        <ele>397.399993896484375</ele>
        <time>2013-09-01T16:50:09.000Z</time>
        <extensions>
          <ns3:TrackPointExtension>
            <ns3:atemp>16.0</ns3:atemp>
          </ns3:TrackPointExtension>
        </extensions>
      </trkpt>
      <trkpt lat="46.803451292216777801513671875" lon="6.889820136129856109619140625">
        <ele>397.20001220703125</ele>
        <time>2013-09-01T16:50:10.000Z</time>
        <extensions>
          <ns3:TrackPointExtension>
            <ns3:atemp>16.0</ns3:atemp>
          </ns3:TrackPointExtension>
        </extensions>
      </trkpt>
      <trkpt lat="46.80345389060676097869873046875" lon="6.8897259235382080078125">
        <ele>397.399993896484375</ele>
        <time>2013-09-01T16:50:11.000Z</time>
        <extensions>
          <ns3:TrackPointExtension>
            <ns3:atemp>16.0</ns3:atemp>
          </ns3:TrackPointExtension>
        </extensions>
      </trkpt>
      <trkpt lat="46.80345875211060047149658203125" lon="6.8896302022039890289306640625">
        <ele>397.399993896484375</ele>
        <time>2013-09-01T16:50:12.000Z</time>
        <extensions>
          <ns3:TrackPointExtension>
            <ns3:atemp>16.0</ns3:atemp>
          </ns3:TrackPointExtension>
        </extensions>
      </trkpt>
      <trkpt lat="46.80346679873764514923095703125" lon="6.8895309604704380035400390625">
        <ele>397.399993896484375</ele>
        <time>2013-09-01T16:50:13.000Z</time>
        <extensions>
          <ns3:TrackPointExtension>
            <ns3:atemp>16.0</ns3:atemp>
          </ns3:TrackPointExtension>
        </extensions>
      </trkpt>
      <trkpt lat="46.8034826405346393585205078125" lon="6.88943968154489994049072265625">
        <ele>397</ele>
        <time>2013-09-01T16:50:14.000Z</time>
        <extensions>
          <ns3:TrackPointExtension>
            <ns3:atemp>16.0</ns3:atemp>
          </ns3:TrackPointExtension>
        </extensions>
      </trkpt>
      <trkpt lat="46.80350594222545623779296875" lon="6.8893572874367237091064453125">
        <ele>397</ele>
        <time>2013-09-01T16:50:15.000Z</time>
        <extensions>
          <ns3:TrackPointExtension>
            <ns3:atemp>16.0</ns3:atemp>
          </ns3:TrackPointExtension>
        </extensions>
      </trkpt>
      <trkpt lat="46.80353921838104724884033203125" lon="6.889286041259765625">
        <ele>397.20001220703125</ele>
        <time>2013-09-01T16:50:16.000Z</time>
        <extensions>
          <ns3:TrackPointExtension>
            <ns3:atemp>16.0</ns3:atemp>
          </ns3:TrackPointExtension>
        </extensions>
      </trkpt>
      <trkpt lat="46.80359621532261371612548828125" lon="6.8892288766801357269287109375">
        <ele>397.399993896484375</ele>
        <time>2013-09-01T16:50:17.000Z</time>
        <extensions>
          <ns3:TrackPointExtension>
            <ns3:atemp>16.0</ns3:atemp>
          </ns3:TrackPointExtension>
        </extensions>
      </trkpt>
      <trkpt lat="46.80365748703479766845703125" lon="6.8891909904778003692626953125">
        <ele>397.399993896484375</ele>
        <time>2013-09-01T16:50:18.000Z</time>
        <extensions>
          <ns3:TrackPointExtension>
            <ns3:atemp>16.0</ns3:atemp>
          </ns3:TrackPointExtension>
        </extensions>
      </trkpt>
      <trkpt lat="46.80371875874698162078857421875" lon="6.8891554512083530426025390625">
        <ele>397.20001220703125</ele>
        <time>2013-09-01T16:50:19.000Z</time>
        <extensions>
          <ns3:TrackPointExtension>
            <ns3:atemp>16.0</ns3:atemp>
          </ns3:TrackPointExtension>
        </extensions>
      </trkpt>
      <trkpt lat="46.8037763424217700958251953125" lon="6.88912083394825458526611328125">
        <ele>397.20001220703125</ele>
        <time>2013-09-01T16:50:20.000Z</time>
        <extensions>
          <ns3:TrackPointExtension>
            <ns3:atemp>16.0</ns3:atemp>
          </ns3:TrackPointExtension>
        </extensions>
      </trkpt>
      <trkpt lat="46.80383183062076568603515625" lon="6.88908227719366550445556640625">
        <ele>397.399993896484375</ele>
        <time>2013-09-01T16:50:21.000Z</time>
        <extensions>
          <ns3:TrackPointExtension>
            <ns3:atemp>16.0</ns3:atemp>
          </ns3:TrackPointExtension>
        </extensions>
      </trkpt>
      <trkpt lat="46.803883798420429229736328125" lon="6.8890427984297275543212890625">
        <ele>397.600006103515625</ele>
        <time>2013-09-01T16:50:22.000Z</time>
        <extensions>
          <ns3:TrackPointExtension>
            <ns3:atemp>16.0</ns3:atemp>
          </ns3:TrackPointExtension>
        </extensions>
      </trkpt>
      <trkpt lat="46.8039339222013950347900390625" lon="6.88900432549417018890380859375">
        <ele>397.79998779296875</ele>
        <time>2013-09-01T16:50:23.000Z</time>
        <extensions>
          <ns3:TrackPointExtension>
            <ns3:atemp>16.0</ns3:atemp>
          </ns3:TrackPointExtension>
        </extensions>
      </trkpt>
      <trkpt lat="46.8039825372397899627685546875" lon="6.888963170349597930908203125">
        <ele>398</ele>
        <time>2013-09-01T16:50:24.000Z</time>
        <extensions>
          <ns3:TrackPointExtension>
            <ns3:atemp>16.0</ns3:atemp>
          </ns3:TrackPointExtension>
        </extensions>
      </trkpt>
      <trkpt lat="46.8040321581065654754638671875" lon="6.88892084173858165740966796875">
        <ele>398</ele>
        <time>2013-09-01T16:50:25.000Z</time>
        <extensions>
          <ns3:TrackPointExtension>
            <ns3:atemp>16.0</ns3:atemp>
          </ns3:TrackPointExtension>
        </extensions>
      </trkpt>
      <trkpt lat="46.80408018641173839569091796875" lon="6.88888035714626312255859375">
        <ele>397.79998779296875</ele>
        <time>2013-09-01T16:50:26.000Z</time>
        <extensions>
          <ns3:TrackPointExtension>
            <ns3:atemp>16.0</ns3:atemp>
          </ns3:TrackPointExtension>
        </extensions>
      </trkpt>
      <trkpt lat="46.80412880145013332366943359375" lon="6.88884012401103973388671875">
        <ele>398</ele>
        <time>2013-09-01T16:50:27.000Z</time>
        <extensions>
          <ns3:TrackPointExtension>
            <ns3:atemp>16.0</ns3:atemp>
          </ns3:TrackPointExtension>
        </extensions>
      </trkpt>
      <trkpt lat="46.8041756562888622283935546875" lon="6.88879544846713542938232421875">
        <ele>398.20001220703125</ele>
        <time>2013-09-01T16:50:28.000Z</time>
        <extensions>
          <ns3:TrackPointExtension>
            <ns3:atemp>16.0</ns3:atemp>
          </ns3:TrackPointExtension>
        </extensions>
      </trkpt>
      <trkpt lat="46.80422234348952770233154296875" lon="6.888751275837421417236328125">
        <ele>398.399993896484375</ele>
        <time>2013-09-01T16:50:29.000Z</time>
        <extensions>
          <ns3:TrackPointExtension>
            <ns3:atemp>16.0</ns3:atemp>
          </ns3:TrackPointExtension>
        </extensions>
      </trkpt>
      <trkpt lat="46.80426995269954204559326171875" lon="6.88871045596897602081298828125">
        <ele>398.600006103515625</ele>
        <time>2013-09-01T16:50:30.000Z</time>
        <extensions>
          <ns3:TrackPointExtension>
            <ns3:atemp>16.0</ns3:atemp>
          </ns3:TrackPointExtension>
        </extensions>
      </trkpt>
      <trkpt lat="46.80431756190955638885498046875" lon="6.88867039047181606292724609375">
        <ele>398.79998779296875</ele>
        <time>2013-09-01T16:50:31.000Z</time>
        <extensions>
          <ns3:TrackPointExtension>
            <ns3:atemp>16.0</ns3:atemp>
          </ns3:TrackPointExtension>
        </extensions>
      </trkpt>
      <trkpt lat="46.8043634109199047088623046875" lon="6.88863183371722698211669921875">
        <ele>399.20001220703125</ele>
        <time>2013-09-01T16:50:32.000Z</time>
        <extensions>
          <ns3:TrackPointExtension>
            <ns3:atemp>16.0</ns3:atemp>
          </ns3:TrackPointExtension>
        </extensions>
      </trkpt>
      <trkpt lat="46.8044096790254116058349609375" lon="6.88859109766781330108642578125">
        <ele>399.600006103515625</ele>
        <time>2013-09-01T16:50:33.000Z</time>
        <extensions>
          <ns3:TrackPointExtension>
            <ns3:atemp>16.0</ns3:atemp>
          </ns3:TrackPointExtension>
        </extensions>
      </trkpt>
      <trkpt lat="46.8044556118547916412353515625" lon="6.8885563127696514129638671875">
        <ele>399.600006103515625</ele>
        <time>2013-09-01T16:50:34.000Z</time>
        <extensions>
          <ns3:TrackPointExtension>
            <ns3:atemp>16.0</ns3:atemp>
          </ns3:TrackPointExtension>
        </extensions>
      </trkpt>
      <trkpt lat="46.8045025505125522613525390625" lon="6.8885160796344280242919921875">
        <ele>399.399993896484375</ele>
        <time>2013-09-01T16:50:35.000Z</time>
        <extensions>
          <ns3:TrackPointExtension>
            <ns3:atemp>16.0</ns3:atemp>
          </ns3:TrackPointExtension>
        </extensions>
      </trkpt>
      <trkpt lat="46.80454839952290058135986328125" lon="6.88847391866147518157958984375">
        <ele>398.79998779296875</ele>
        <time>2013-09-01T16:50:36.000Z</time>
        <extensions>
          <ns3:TrackPointExtension>
            <ns3:atemp>16.0</ns3:atemp>
          </ns3:TrackPointExtension>
        </extensions>
      </trkpt>
      <trkpt lat="46.8045969307422637939453125" lon="6.88843368552625179290771484375">
        <ele>398.600006103515625</ele>
        <time>2013-09-01T16:50:37.000Z</time>
        <extensions>
          <ns3:TrackPointExtension>
            <ns3:atemp>16.0</ns3:atemp>
          </ns3:TrackPointExtension>
        </extensions>
      </trkpt>
      <trkpt lat="46.80464814417064189910888671875" lon="6.88840485177934169769287109375">
        <ele>398.600006103515625</ele>
        <time>2013-09-01T16:50:38.000Z</time>
        <extensions>
          <ns3:TrackPointExtension>
            <ns3:atemp>16.0</ns3:atemp>
          </ns3:TrackPointExtension>
        </extensions>
      </trkpt>
      <trkpt lat="46.8047017045319080352783203125" lon="6.88837165944278240203857421875">
        <ele>398.79998779296875</ele>
        <time>2013-09-01T16:50:39.000Z</time>
        <extensions>
          <ns3:TrackPointExtension>
            <ns3:atemp>16.0</ns3:atemp>
          </ns3:TrackPointExtension>
        </extensions>
      </trkpt>
      <trkpt lat="46.80475425906479358673095703125" lon="6.88834249041974544525146484375">
        <ele>399.20001220703125</ele>
        <time>2013-09-01T16:50:40.000Z</time>
        <extensions>
          <ns3:TrackPointExtension>
            <ns3:atemp>16.0</ns3:atemp>
          </ns3:TrackPointExtension>
        </extensions>
      </trkpt>
      <trkpt lat="46.80480689741671085357666015625" lon="6.888318099081516265869140625">
        <ele>399.79998779296875</ele>
        <time>2013-09-01T16:50:41.000Z</time>
        <extensions>
          <ns3:TrackPointExtension>
            <ns3:atemp>16.0</ns3:atemp>
          </ns3:TrackPointExtension>
        </extensions>
      </trkpt>
      <trkpt lat="46.80485802702605724334716796875" lon="6.88829161226749420166015625">
        <ele>400.20001220703125</ele>
        <time>2013-09-01T16:50:42.000Z</time>
        <extensions>
          <ns3:TrackPointExtension>
            <ns3:atemp>16.0</ns3:atemp>
          </ns3:TrackPointExtension>
        </extensions>
      </trkpt>
      <trkpt lat="46.804909408092498779296875" lon="6.8882709927856922149658203125">
        <ele>400.20001220703125</ele>
        <time>2013-09-01T16:50:43.000Z</time>
        <extensions>
          <ns3:TrackPointExtension>
            <ns3:atemp>16.0</ns3:atemp>
          </ns3:TrackPointExtension>
        </extensions>
      </trkpt>
      <trkpt lat="46.80496037006378173828125" lon="6.88825699500739574432373046875">
        <ele>400.20001220703125</ele>
        <time>2013-09-01T16:50:44.000Z</time>
        <extensions>
          <ns3:TrackPointExtension>
            <ns3:atemp>16.0</ns3:atemp>
          </ns3:TrackPointExtension>
        </extensions>
      </trkpt>
      <trkpt lat="46.80501141585409641265869140625" lon="6.8882455118000507354736328125">
        <ele>400.399993896484375</ele>
        <time>2013-09-01T16:50:45.000Z</time>
        <extensions>
          <ns3:TrackPointExtension>
            <ns3:atemp>16.0</ns3:atemp>
          </ns3:TrackPointExtension>
        </extensions>
      </trkpt>
      <trkpt lat="46.80506162345409393310546875" lon="6.8882357887923717498779296875">
        <ele>400.399993896484375</ele>
        <time>2013-09-01T16:50:46.000Z</time>
        <extensions>
          <ns3:TrackPointExtension>
            <ns3:atemp>16.0</ns3:atemp>
          </ns3:TrackPointExtension>
        </extensions>
      </trkpt>
      <trkpt lat="46.80511434562504291534423828125" lon="6.88823101110756397247314453125">
        <ele>400.399993896484375</ele>
        <time>2013-09-01T16:50:47.000Z</time>
        <extensions>
          <ns3:TrackPointExtension>
            <ns3:atemp>16.0</ns3:atemp>
          </ns3:TrackPointExtension>
        </extensions>
      </trkpt>
      <trkpt lat="46.8051670677959918975830078125" lon="6.8882310949265956878662109375">
        <ele>400.20001220703125</ele>
        <time>2013-09-01T16:50:48.000Z</time>
        <extensions>
          <ns3:TrackPointExtension>
            <ns3:atemp>16.0</ns3:atemp>
          </ns3:TrackPointExtension>
        </extensions>
      </trkpt>
      <trkpt lat="46.805220544338226318359375" lon="6.88823251985013484954833984375">
        <ele>400.20001220703125</ele>
        <time>2013-09-01T16:50:49.000Z</time>
        <extensions>
          <ns3:TrackPointExtension>
            <ns3:atemp>16.0</ns3:atemp>
          </ns3:TrackPointExtension>
        </extensions>
      </trkpt>
      <trkpt lat="46.80527544580399990081787109375" lon="6.8882364593446254730224609375">
        <ele>400.20001220703125</ele>
        <time>2013-09-01T16:50:50.000Z</time>
        <extensions>
          <ns3:TrackPointExtension>
            <ns3:atemp>16.0</ns3:atemp>
          </ns3:TrackPointExtension>
        </extensions>
      </trkpt>
      <trkpt lat="46.8053313530981540679931640625" lon="6.88824509270489215850830078125">
        <ele>400.399993896484375</ele>
        <time>2013-09-01T16:50:51.000Z</time>
        <extensions>
          <ns3:TrackPointExtension>
            <ns3:atemp>16.0</ns3:atemp>
          </ns3:TrackPointExtension>
        </extensions>
      </trkpt>
      <trkpt lat="46.805386841297149658203125" lon="6.88825448043644428253173828125">
        <ele>400.399993896484375</ele>
        <time>2013-09-01T16:50:52.000Z</time>
        <extensions>
          <ns3:TrackPointExtension>
            <ns3:atemp>16.0</ns3:atemp>
          </ns3:TrackPointExtension>
        </extensions>
      </trkpt>
      <trkpt lat="46.80544459261000156402587890625" lon="6.88826479017734527587890625">
        <ele>400.600006103515625</ele>
        <time>2013-09-01T16:50:53.000Z</time>
        <extensions>
          <ns3:TrackPointExtension>
            <ns3:atemp>16.0</ns3:atemp>
          </ns3:TrackPointExtension>
        </extensions>
      </trkpt>
      <trkpt lat="46.80550226010382175445556640625" lon="6.88828046433627605438232421875">
        <ele>400.79998779296875</ele>
        <time>2013-09-01T16:50:54.000Z</time>
        <extensions>
          <ns3:TrackPointExtension>
            <ns3:atemp>16.0</ns3:atemp>
          </ns3:TrackPointExtension>
        </extensions>
      </trkpt>
      <trkpt lat="46.80555975995957851409912109375" lon="6.88829789869487285614013671875">
        <ele>401</ele>
        <time>2013-09-01T16:50:55.000Z</time>
        <extensions>
          <ns3:TrackPointExtension>
            <ns3:atemp>16.0</ns3:atemp>
          </ns3:TrackPointExtension>
        </extensions>
      </trkpt>
      <trkpt lat="46.80561910383403301239013671875" lon="6.8883149139583110809326171875">
        <ele>401</ele>
        <time>2013-09-01T16:50:56.000Z</time>
        <extensions>
          <ns3:TrackPointExtension>
            <ns3:atemp>16.0</ns3:atemp>
          </ns3:TrackPointExtension>
        </extensions>
      </trkpt>
      <trkpt lat="46.8056780286133289337158203125" lon="6.8883370421826839447021484375">
        <ele>401</ele>
        <time>2013-09-01T16:50:57.000Z</time>
        <extensions>
          <ns3:TrackPointExtension>
            <ns3:atemp>16.0</ns3:atemp>
          </ns3:TrackPointExtension>
        </extensions>
      </trkpt>
      <trkpt lat="46.80573527701199054718017578125" lon="6.888359673321247100830078125">
        <ele>400.79998779296875</ele>
        <time>2013-09-01T16:50:58.000Z</time>
        <extensions>
          <ns3:TrackPointExtension>
            <ns3:atemp>16.0</ns3:atemp>
          </ns3:TrackPointExtension>
        </extensions>
      </trkpt>
      <trkpt lat="46.8057931959629058837890625" lon="6.8883807957172393798828125">
        <ele>400.79998779296875</ele>
        <time>2013-09-01T16:50:59.000Z</time>
        <extensions>
          <ns3:TrackPointExtension>
            <ns3:atemp>16.0</ns3:atemp>
          </ns3:TrackPointExtension>
        </extensions>
      </trkpt>
      <trkpt lat="46.80585145018994808197021484375" lon="6.88840334303677082061767578125">
        <ele>400.79998779296875</ele>
        <time>2013-09-01T16:51:00.000Z</time>
        <extensions>
          <ns3:TrackPointExtension>
            <ns3:atemp>16.0</ns3:atemp>
          </ns3:TrackPointExtension>
        </extensions>
      </trkpt>
      <trkpt lat="46.8059098720550537109375" lon="6.88842572271823883056640625">
        <ele>400.600006103515625</ele>
        <time>2013-09-01T16:51:01.000Z</time>
        <extensions>
          <ns3:TrackPointExtension>
            <ns3:atemp>16.0</ns3:atemp>
          </ns3:TrackPointExtension>
        </extensions>
      </trkpt>
      <trkpt lat="46.80596795864403247833251953125" lon="6.88844852149486541748046875">
        <ele>400.399993896484375</ele>
        <time>2013-09-01T16:51:02.000Z</time>
        <extensions>
          <ns3:TrackPointExtension>
            <ns3:atemp>16.0</ns3:atemp>
          </ns3:TrackPointExtension>
        </extensions>
      </trkpt>
      <trkpt lat="46.806025542318820953369140625" lon="6.88847358338534832000732421875">
        <ele>400.20001220703125</ele>
        <time>2013-09-01T16:51:03.000Z</time>
        <extensions>
          <ns3:TrackPointExtension>
            <ns3:atemp>16.0</ns3:atemp>
          </ns3:TrackPointExtension>
        </extensions>
      </trkpt>
      <trkpt lat="46.80608346126973628997802734375" lon="6.8884976394474506378173828125">
        <ele>400.20001220703125</ele>
        <time>2013-09-01T16:51:04.000Z</time>
        <extensions>
          <ns3:TrackPointExtension>
            <ns3:atemp>16.0</ns3:atemp>
          </ns3:TrackPointExtension>
        </extensions>
      </trkpt>
      <trkpt lat="46.8061410449445247650146484375" lon="6.8885197676718235015869140625">
        <ele>400.20001220703125</ele>
        <time>2013-09-01T16:51:05.000Z</time>
        <extensions>
          <ns3:TrackPointExtension>
            <ns3:atemp>16.0</ns3:atemp>
          </ns3:TrackPointExtension>
        </extensions>
      </trkpt>
      <trkpt lat="46.806198544800281524658203125" lon="6.88854265026748180389404296875">
        <ele>400</ele>
        <time>2013-09-01T16:51:06.000Z</time>
        <extensions>
          <ns3:TrackPointExtension>
            <ns3:atemp>16.0</ns3:atemp>
          </ns3:TrackPointExtension>
        </extensions>
      </trkpt>
      <trkpt lat="46.80625512264668941497802734375" lon="6.88856762833893299102783203125">
        <ele>400.20001220703125</ele>
        <time>2013-09-01T16:51:07.000Z</time>
        <extensions>
          <ns3:TrackPointExtension>
            <ns3:atemp>16.0</ns3:atemp>
          </ns3:TrackPointExtension>
        </extensions>
      </trkpt>
      <trkpt lat="46.806312538683414459228515625" lon="6.888587661087512969970703125">
        <ele>400</ele>
        <time>2013-09-01T16:51:08.000Z</time>
        <extensions>
          <ns3:TrackPointExtension>
            <ns3:atemp>16.0</ns3:atemp>
          </ns3:TrackPointExtension>
        </extensions>
      </trkpt>
      <trkpt lat="46.806371547281742095947265625" lon="6.88860920257866382598876953125">
        <ele>400</ele>
        <time>2013-09-01T16:51:09.000Z</time>
        <extensions>
          <ns3:TrackPointExtension>
            <ns3:atemp>16.0</ns3:atemp>
          </ns3:TrackPointExtension>
        </extensions>
      </trkpt>
      <trkpt lat="46.80643022060394287109375" lon="6.888630576431751251220703125">
        <ele>400</ele>
        <time>2013-09-01T16:51:10.000Z</time>
        <extensions>
          <ns3:TrackPointExtension>
            <ns3:atemp>16.0</ns3:atemp>
          </ns3:TrackPointExtension>
        </extensions>
      </trkpt>
      <trkpt lat="46.8064887262880802154541015625" lon="6.88864893279969692230224609375">
        <ele>400.20001220703125</ele>
        <time>2013-09-01T16:51:11.000Z</time>
        <extensions>
          <ns3:TrackPointExtension>
            <ns3:atemp>16.0</ns3:atemp>
          </ns3:TrackPointExtension>
        </extensions>
      </trkpt>
      <trkpt lat="46.80654823780059814453125" lon="6.8886679597198963165283203125">
        <ele>400.20001220703125</ele>
        <time>2013-09-01T16:51:12.000Z</time>
        <extensions>
          <ns3:TrackPointExtension>
            <ns3:atemp>16.0</ns3:atemp>
          </ns3:TrackPointExtension>
        </extensions>
      </trkpt>
      <trkpt lat="46.80660850368440151214599609375" lon="6.88869260251522064208984375">
        <ele>400.399993896484375</ele>
        <time>2013-09-01T16:51:13.000Z</time>
        <extensions>
          <ns3:TrackPointExtension>
            <ns3:atemp>16.0</ns3:atemp>
          </ns3:TrackPointExtension>
        </extensions>
      </trkpt>
      <trkpt lat="46.80666918866336345672607421875" lon="6.88871632330119609832763671875">
        <ele>400.399993896484375</ele>
        <time>2013-09-01T16:51:14.000Z</time>
        <extensions>
          <ns3:TrackPointExtension>
            <ns3:atemp>16.0</ns3:atemp>
          </ns3:TrackPointExtension>
        </extensions>
      </trkpt>
      <trkpt lat="46.806730292737483978271484375" lon="6.88873359002172946929931640625">
        <ele>400.399993896484375</ele>
        <time>2013-09-01T16:51:15.000Z</time>
        <extensions>
          <ns3:TrackPointExtension>
            <ns3:atemp>16.0</ns3:atemp>
          </ns3:TrackPointExtension>
        </extensions>
      </trkpt>
      <trkpt lat="46.806790642440319061279296875" lon="6.88875203020870685577392578125">
        <ele>400.20001220703125</ele>
        <time>2013-09-01T16:51:16.000Z</time>
        <extensions>
          <ns3:TrackPointExtension>
            <ns3:atemp>16.0</ns3:atemp>
          </ns3:TrackPointExtension>
        </extensions>
      </trkpt>
      <trkpt lat="46.8068514950573444366455078125" lon="6.8887708894908428192138671875">
        <ele>400.600006103515625</ele>
        <time>2013-09-01T16:51:17.000Z</time>
        <extensions>
          <ns3:TrackPointExtension>
            <ns3:atemp>16.0</ns3:atemp>
          </ns3:TrackPointExtension>
        </extensions>
      </trkpt>
      <trkpt lat="46.80691142566502094268798828125" lon="6.88878706656396389007568359375">
        <ele>400.79998779296875</ele>
        <time>2013-09-01T16:51:18.000Z</time>
        <extensions>
          <ns3:TrackPointExtension>
            <ns3:atemp>16.0</ns3:atemp>
          </ns3:TrackPointExtension>
        </extensions>
      </trkpt>
      <trkpt lat="46.80697110481560230255126953125" lon="6.88879980705678462982177734375">
        <ele>400.79998779296875</ele>
        <time>2013-09-01T16:51:19.000Z</time>
        <extensions>
          <ns3:TrackPointExtension>
            <ns3:atemp>16.0</ns3:atemp>
          </ns3:TrackPointExtension>
        </extensions>
      </trkpt>
      <trkpt lat="46.80703111924231052398681640625" lon="6.8888111226260662078857421875">
        <ele>400.600006103515625</ele>
        <time>2013-09-01T16:51:20.000Z</time>
        <extensions>
          <ns3:TrackPointExtension>
            <ns3:atemp>16.0</ns3:atemp>
          </ns3:TrackPointExtension>
        </extensions>
      </trkpt>
      <trkpt lat="46.807093061506748199462890625" lon="6.8888181634247303009033203125">
        <ele>400.600006103515625</ele>
        <time>2013-09-01T16:51:21.000Z</time>
        <extensions>
          <ns3:TrackPointExtension>
            <ns3:atemp>16.0</ns3:atemp>
          </ns3:TrackPointExtension>
        </extensions>
      </trkpt>
      <trkpt lat="46.80715349502861499786376953125" lon="6.88881690613925457000732421875">
        <ele>400.600006103515625</ele>
        <time>2013-09-01T16:51:22.000Z</time>
        <extensions>
          <ns3:TrackPointExtension>
            <ns3:atemp>16.0</ns3:atemp>
          </ns3:TrackPointExtension>
        </extensions>
      </trkpt>
      <trkpt lat="46.80721367709338665008544921875" lon="6.8888111226260662078857421875">
        <ele>400.79998779296875</ele>
        <time>2013-09-01T16:51:23.000Z</time>
        <extensions>
          <ns3:TrackPointExtension>
            <ns3:atemp>16.0</ns3:atemp>
          </ns3:TrackPointExtension>
        </extensions>
      </trkpt>
      <trkpt lat="46.80727436207234859466552734375" lon="6.88881137408316135406494140625">
        <ele>400.600006103515625</ele>
        <time>2013-09-01T16:51:24.000Z</time>
        <extensions>
          <ns3:TrackPointExtension>
            <ns3:atemp>16.0</ns3:atemp>
          </ns3:TrackPointExtension>
        </extensions>
      </trkpt>
      <trkpt lat="46.807336471974849700927734375" lon="6.8888060934841632843017578125">
        <ele>400.600006103515625</ele>
        <time>2013-09-01T16:51:25.000Z</time>
        <extensions>
          <ns3:TrackPointExtension>
            <ns3:atemp>16.0</ns3:atemp>
          </ns3:TrackPointExtension>
        </extensions>
      </trkpt>
      <trkpt lat="46.80739707313477993011474609375" lon="6.888800561428070068359375">
        <ele>400.399993896484375</ele>
        <time>2013-09-01T16:51:26.000Z</time>
        <extensions>
          <ns3:TrackPointExtension>
            <ns3:atemp>16.0</ns3:atemp>
          </ns3:TrackPointExtension>
        </extensions>
      </trkpt>
      <trkpt lat="46.8074580095708370208740234375" lon="6.88879008404910564422607421875">
        <ele>400.20001220703125</ele>
        <time>2013-09-01T16:51:27.000Z</time>
        <extensions>
          <ns3:TrackPointExtension>
            <ns3:atemp>16.0</ns3:atemp>
          </ns3:TrackPointExtension>
        </extensions>
      </trkpt>
      <trkpt lat="46.80751928128302097320556640625" lon="6.8887802772223949432373046875">
        <ele>400</ele>
        <time>2013-09-01T16:51:28.000Z</time>
        <extensions>
          <ns3:TrackPointExtension>
            <ns3:atemp>16.0</ns3:atemp>
          </ns3:TrackPointExtension>
        </extensions>
      </trkpt>
      <trkpt lat="46.807580552995204925537109375" lon="6.88877315260469913482666015625">
        <ele>400</ele>
        <time>2013-09-01T16:51:29.000Z</time>
        <extensions>
          <ns3:TrackPointExtension>
            <ns3:atemp>16.0</ns3:atemp>
          </ns3:TrackPointExtension>
        </extensions>
      </trkpt>
      <trkpt lat="46.80764031596481800079345703125" lon="6.88876762054860591888427734375">
        <ele>400.399993896484375</ele>
        <time>2013-09-01T16:51:30.000Z</time>
        <extensions>
          <ns3:TrackPointExtension>
            <ns3:atemp>16.0</ns3:atemp>
          </ns3:TrackPointExtension>
        </extensions>
      </trkpt>
      <trkpt lat="46.807701252400875091552734375" lon="6.88876342959702014923095703125">
        <ele>401</ele>
        <time>2013-09-01T16:51:31.000Z</time>
        <extensions>
          <ns3:TrackPointExtension>
            <ns3:atemp>16.0</ns3:atemp>
          </ns3:TrackPointExtension>
        </extensions>
      </trkpt>
      <trkpt lat="46.8077607639133930206298828125" lon="6.8887588195502758026123046875">
        <ele>401.399993896484375</ele>
        <time>2013-09-01T16:51:32.000Z</time>
        <extensions>
          <ns3:TrackPointExtension>
            <ns3:atemp>16.0</ns3:atemp>
          </ns3:TrackPointExtension>
        </extensions>
      </trkpt>
      <trkpt lat="46.80781893432140350341796875" lon="6.8887511081993579864501953125">
        <ele>401.600006103515625</ele>
        <time>2013-09-01T16:51:33.000Z</time>
        <extensions>
          <ns3:TrackPointExtension>
            <ns3:atemp>16.0</ns3:atemp>
          </ns3:TrackPointExtension>
        </extensions>
      </trkpt>
      <trkpt lat="46.807875931262969970703125" lon="6.8887417204678058624267578125">
        <ele>402</ele>
        <time>2013-09-01T16:51:34.000Z</time>
        <extensions>
          <ns3:TrackPointExtension>
            <ns3:atemp>16.0</ns3:atemp>
          </ns3:TrackPointExtension>
        </extensions>
      </trkpt>
      <trkpt lat="46.80793234147131443023681640625" lon="6.888725124299526214599609375">
        <ele>402.20001220703125</ele>
        <time>2013-09-01T16:51:35.000Z</time>
        <extensions>
          <ns3:TrackPointExtension>
            <ns3:atemp>16.0</ns3:atemp>
          </ns3:TrackPointExtension>
        </extensions>
      </trkpt>
      <trkpt lat="46.807990930974483489990234375" lon="6.888711042702198028564453125">
        <ele>402.20001220703125</ele>
        <time>2013-09-01T16:51:36.000Z</time>
        <extensions>
          <ns3:TrackPointExtension>
            <ns3:atemp>16.0</ns3:atemp>
          </ns3:TrackPointExtension>
        </extensions>
      </trkpt>
      <trkpt lat="46.80805069394409656524658203125" lon="6.88870123587548732757568359375">
        <ele>401.20001220703125</ele>
        <time>2013-09-01T16:51:37.000Z</time>
        <extensions>
          <ns3:TrackPointExtension>
            <ns3:atemp>16.0</ns3:atemp>
          </ns3:TrackPointExtension>
        </extensions>
      </trkpt>
      <trkpt lat="46.80811121128499507904052734375" lon="6.88869017176330089569091796875">
        <ele>400.600006103515625</ele>
        <time>2013-09-01T16:51:38.000Z</time>
        <extensions>
          <ns3:TrackPointExtension>
            <ns3:atemp>16.0</ns3:atemp>
          </ns3:TrackPointExtension>
        </extensions>
      </trkpt>
      <trkpt lat="46.8081744946539402008056640625" lon="6.888677515089511871337890625">
        <ele>400.20001220703125</ele>
        <time>2013-09-01T16:51:39.000Z</time>
        <extensions>
          <ns3:TrackPointExtension>
            <ns3:atemp>16.0</ns3:atemp>
          </ns3:TrackPointExtension>
        </extensions>
      </trkpt>
      <trkpt lat="46.8082402087748050689697265625" lon="6.88866402022540569305419921875">
        <ele>400</ele>
        <time>2013-09-01T16:51:40.000Z</time>
        <extensions>
          <ns3:TrackPointExtension>
            <ns3:atemp>16.0</ns3:atemp>
          </ns3:TrackPointExtension>
        </extensions>
      </trkpt>
      <trkpt lat="46.80830768309533596038818359375" lon="6.88865362666547298431396484375">
        <ele>400.79998779296875</ele>
        <time>2013-09-01T16:51:41.000Z</time>
        <extensions>
          <ns3:TrackPointExtension>
            <ns3:atemp>16.0</ns3:atemp>
          </ns3:TrackPointExtension>
        </extensions>
      </trkpt>
      <trkpt lat="46.80837624706327915191650390625" lon="6.8886434845626354217529296875">
        <ele>401</ele>
        <time>2013-09-01T16:51:42.000Z</time>
        <extensions>
          <ns3:TrackPointExtension>
            <ns3:atemp>16.0</ns3:atemp>
          </ns3:TrackPointExtension>
        </extensions>
      </trkpt>
      <trkpt lat="46.80844682268798351287841796875" lon="6.888633258640766143798828125">
        <ele>401.20001220703125</ele>
        <time>2013-09-01T16:51:43.000Z</time>
        <extensions>
          <ns3:TrackPointExtension>
            <ns3:atemp>16.0</ns3:atemp>
          </ns3:TrackPointExtension>
        </extensions>
      </trkpt>
      <trkpt lat="46.8085171468555927276611328125" lon="6.88862613402307033538818359375">
        <ele>401</ele>
        <time>2013-09-01T16:51:44.000Z</time>
        <extensions>
          <ns3:TrackPointExtension>
            <ns3:atemp>16.0</ns3:atemp>
          </ns3:TrackPointExtension>
        </extensions>
      </trkpt>
      <trkpt lat="46.80859048850834369659423828125" lon="6.88861741684377193450927734375">
        <ele>400.600006103515625</ele>
        <time>2013-09-01T16:51:45.000Z</time>
        <extensions>
          <ns3:TrackPointExtension>
            <ns3:atemp>16.0</ns3:atemp>
          </ns3:TrackPointExtension>
        </extensions>
      </trkpt>
      <trkpt lat="46.80866743437945842742919921875" lon="6.88860752619802951812744140625">
        <ele>400.399993896484375</ele>
        <time>2013-09-01T16:51:46.000Z</time>
        <extensions>
          <ns3:TrackPointExtension>
            <ns3:atemp>16.0</ns3:atemp>
          </ns3:TrackPointExtension>
        </extensions>
      </trkpt>
      <trkpt lat="46.8087458051741123199462890625" lon="6.8885968811810016632080078125">
        <ele>399.79998779296875</ele>
        <time>2013-09-01T16:51:47.000Z</time>
        <extensions>
          <ns3:TrackPointExtension>
            <ns3:atemp>16.0</ns3:atemp>
          </ns3:TrackPointExtension>
        </extensions>
      </trkpt>
      <trkpt lat="46.80882585234940052032470703125" lon="6.88858975656330585479736328125">
        <ele>399.600006103515625</ele>
        <time>2013-09-01T16:51:48.000Z</time>
        <extensions>
          <ns3:TrackPointExtension>
            <ns3:atemp>16.0</ns3:atemp>
          </ns3:TrackPointExtension>
        </extensions>
      </trkpt>
      <trkpt lat="46.80890916846692562103271484375" lon="6.88858288340270519256591796875">
        <ele>399.20001220703125</ele>
        <time>2013-09-01T16:51:49.000Z</time>
        <extensions>
          <ns3:TrackPointExtension>
            <ns3:atemp>16.0</ns3:atemp>
          </ns3:TrackPointExtension>
        </extensions>
      </trkpt>
      <trkpt lat="46.80899516679346561431884765625" lon="6.88857114873826503753662109375">
        <ele>398.600006103515625</ele>
        <time>2013-09-01T16:51:50.000Z</time>
        <extensions>
          <ns3:TrackPointExtension>
            <ns3:atemp>16.0</ns3:atemp>
          </ns3:TrackPointExtension>
        </extensions>
      </trkpt>
      <trkpt lat="46.80908200331032276153564453125" lon="6.88855438493192195892333984375">
        <ele>398</ele>
        <time>2013-09-01T16:51:51.000Z</time>
        <extensions>
          <ns3:TrackPointExtension>
            <ns3:atemp>16.0</ns3:atemp>
          </ns3:TrackPointExtension>
        </extensions>
      </trkpt>
      <trkpt lat="46.80917269550263881683349609375" lon="6.8885395489633083343505859375">
        <ele>397.399993896484375</ele>
        <time>2013-09-01T16:51:52.000Z</time>
        <extensions>
          <ns3:TrackPointExtension>
            <ns3:atemp>16.0</ns3:atemp>
          </ns3:TrackPointExtension>
        </extensions>
      </trkpt>
      <trkpt lat="46.80926598608493804931640625" lon="6.88852471299469470977783203125">
        <ele>396.600006103515625</ele>
        <time>2013-09-01T16:51:53.000Z</time>
        <extensions>
          <ns3:TrackPointExtension>
            <ns3:atemp>16.0</ns3:atemp>
          </ns3:TrackPointExtension>
        </extensions>
      </trkpt>
      <trkpt lat="46.8093633837997913360595703125" lon="6.88851214013993740081787109375">
        <ele>396</ele>
        <time>2013-09-01T16:51:54.000Z</time>
        <extensions>
          <ns3:TrackPointExtension>
            <ns3:atemp>16.0</ns3:atemp>
          </ns3:TrackPointExtension>
        </extensions>
      </trkpt>
      <trkpt lat="46.80946388281881809234619140625" lon="6.888497807085514068603515625">
        <ele>395.399993896484375</ele>
        <time>2013-09-01T16:51:55.000Z</time>
        <extensions>
          <ns3:TrackPointExtension>
            <ns3:atemp>16.0</ns3:atemp>
          </ns3:TrackPointExtension>
        </extensions>
      </trkpt>
      <trkpt lat="46.80956505239009857177734375" lon="6.88848129473626613616943359375">
        <ele>394.600006103515625</ele>
        <time>2013-09-01T16:51:56.000Z</time>
        <extensions>
          <ns3:TrackPointExtension>
            <ns3:atemp>16.0</ns3:atemp>
          </ns3:TrackPointExtension>
        </extensions>
      </trkpt>
      <trkpt lat="46.809669323265552520751953125" lon="6.88846888951957225799560546875">
        <ele>394.20001220703125</ele>
        <time>2013-09-01T16:51:57.000Z</time>
        <extensions>
          <ns3:TrackPointExtension>
            <ns3:atemp>16.0</ns3:atemp>
          </ns3:TrackPointExtension>
        </extensions>
      </trkpt>
      <trkpt lat="46.809775941073894500732421875" lon="6.88845455646514892578125">
        <ele>393.600006103515625</ele>
        <time>2013-09-01T16:51:58.000Z</time>
        <extensions>
          <ns3:TrackPointExtension>
            <ns3:atemp>16.0</ns3:atemp>
          </ns3:TrackPointExtension>
        </extensions>
      </trkpt>
      <trkpt lat="46.80988490581512451171875" lon="6.8884419836103916168212890625">
        <ele>393</ele>
        <time>2013-09-01T16:51:59.000Z</time>
        <extensions>
          <ns3:TrackPointExtension>
            <ns3:atemp>16.0</ns3:atemp>
          </ns3:TrackPointExtension>
        </extensions>
      </trkpt>
      <trkpt lat="46.80999579839408397674560546875" lon="6.88842832110822200775146484375">
        <ele>392</ele>
        <time>2013-09-01T16:52:00.000Z</time>
        <extensions>
          <ns3:TrackPointExtension>
            <ns3:atemp>16.0</ns3:atemp>
          </ns3:TrackPointExtension>
        </extensions>
      </trkpt>
      <trkpt lat="46.8101090379059314727783203125" lon="6.88841206021606922149658203125">
        <ele>391.20001220703125</ele>
        <time>2013-09-01T16:52:01.000Z</time>
        <extensions>
          <ns3:TrackPointExtension>
            <ns3:atemp>16.0</ns3:atemp>
          </ns3:TrackPointExtension>
        </extensions>
      </trkpt>
      <trkpt lat="46.81022462435066699981689453125" lon="6.888394542038440704345703125">
        <ele>389.399993896484375</ele>
        <time>2013-09-01T16:52:02.000Z</time>
        <extensions>
          <ns3:TrackPointExtension>
            <ns3:atemp>16.0</ns3:atemp>
          </ns3:TrackPointExtension>
        </extensions>
      </trkpt>
      <trkpt lat="46.810342557728290557861328125" lon="6.888377107679843902587890625">
        <ele>387.79998779296875</ele>
        <time>2013-09-01T16:52:03.000Z</time>
        <extensions>
          <ns3:TrackPointExtension>
            <ns3:atemp>16.0</ns3:atemp>
          </ns3:TrackPointExtension>
        </extensions>
      </trkpt>
      <trkpt lat="46.81046049110591411590576171875" lon="6.88835942186415195465087890625">
        <ele>386</ele>
        <time>2013-09-01T16:52:04.000Z</time>
        <extensions>
          <ns3:TrackPointExtension>
            <ns3:atemp>16.0</ns3:atemp>
          </ns3:TrackPointExtension>
        </extensions>
      </trkpt>
      <trkpt lat="46.8105777539312839508056640625" lon="6.8883440829813480377197265625">
        <ele>385</ele>
        <time>2013-09-01T16:52:05.000Z</time>
        <extensions>
          <ns3:TrackPointExtension>
            <ns3:atemp>16.0</ns3:atemp>
          </ns3:TrackPointExtension>
        </extensions>
      </trkpt>
      <trkpt lat="46.81069786660373210906982421875" lon="6.88833008520305156707763671875">
        <ele>384.20001220703125</ele>
        <time>2013-09-01T16:52:06.000Z</time>
        <extensions>
          <ns3:TrackPointExtension>
            <ns3:atemp>16.0</ns3:atemp>
          </ns3:TrackPointExtension>
        </extensions>
      </trkpt>
      <trkpt lat="46.81081739254295825958251953125" lon="6.888313405215740203857421875">
        <ele>383.20001220703125</ele>
        <time>2013-09-01T16:52:07.000Z</time>
        <extensions>
          <ns3:TrackPointExtension>
            <ns3:atemp>16.0</ns3:atemp>
          </ns3:TrackPointExtension>
        </extensions>
      </trkpt>
      <trkpt lat="46.8109351582825183868408203125" lon="6.88829773105680942535400390625">
        <ele>382</ele>
        <time>2013-09-01T16:52:08.000Z</time>
        <extensions>
          <ns3:TrackPointExtension>
            <ns3:atemp>16.0</ns3:atemp>
          </ns3:TrackPointExtension>
        </extensions>
      </trkpt>
      <trkpt lat="46.81105225346982479095458984375" lon="6.888281218707561492919921875">
        <ele>381.399993896484375</ele>
        <time>2013-09-01T16:52:09.000Z</time>
        <extensions>
          <ns3:TrackPointExtension>
            <ns3:atemp>16.0</ns3:atemp>
          </ns3:TrackPointExtension>
        </extensions>
      </trkpt>
      <trkpt lat="46.81116876192390918731689453125" lon="6.88826344907283782958984375">
        <ele>381</ele>
        <time>2013-09-01T16:52:10.000Z</time>
        <extensions>
          <ns3:TrackPointExtension>
            <ns3:atemp>16.0</ns3:atemp>
          </ns3:TrackPointExtension>
        </extensions>
      </trkpt>
      <trkpt lat="46.81128376163542270660400390625" lon="6.88824660144746303558349609375">
        <ele>380.600006103515625</ele>
        <time>2013-09-01T16:52:11.000Z</time>
        <extensions>
          <ns3:TrackPointExtension>
            <ns3:atemp>16.0</ns3:atemp>
          </ns3:TrackPointExtension>
        </extensions>
      </trkpt>
      <trkpt lat="46.81139674969017505645751953125" lon="6.88823260366916656494140625">
        <ele>380.20001220703125</ele>
        <time>2013-09-01T16:52:12.000Z</time>
        <extensions>
          <ns3:TrackPointExtension>
            <ns3:atemp>16.0</ns3:atemp>
          </ns3:TrackPointExtension>
        </extensions>
      </trkpt>
      <trkpt lat="46.81150873191654682159423828125" lon="6.8882203660905361175537109375">
        <ele>379.399993896484375</ele>
        <time>2013-09-01T16:52:13.000Z</time>
        <extensions>
          <ns3:TrackPointExtension>
            <ns3:atemp>16.0</ns3:atemp>
          </ns3:TrackPointExtension>
        </extensions>
      </trkpt>
      <trkpt lat="46.81162054650485515594482421875" lon="6.88821324147284030914306640625">
        <ele>378.399993896484375</ele>
        <time>2013-09-01T16:52:14.000Z</time>
        <extensions>
          <ns3:TrackPointExtension>
            <ns3:atemp>16.0</ns3:atemp>
          </ns3:TrackPointExtension>
        </extensions>
      </trkpt>
      <trkpt lat="46.8117311038076877593994140625" lon="6.888208128511905670166015625">
        <ele>377.399993896484375</ele>
        <time>2013-09-01T16:52:15.000Z</time>
        <extensions>
          <ns3:TrackPointExtension>
            <ns3:atemp>16.0</ns3:atemp>
          </ns3:TrackPointExtension>
        </extensions>
      </trkpt>
      <trkpt lat="46.81183881126344203948974609375" lon="6.8882156722247600555419921875">
        <ele>377</ele>
        <time>2013-09-01T16:52:16.000Z</time>
        <extensions>
          <ns3:TrackPointExtension>
            <ns3:atemp>16.0</ns3:atemp>
          </ns3:TrackPointExtension>
        </extensions>
      </trkpt>
      <trkpt lat="46.8119435012340545654296875" lon="6.888225562870502471923828125">
        <ele>376.600006103515625</ele>
        <time>2013-09-01T16:52:17.000Z</time>
        <extensions>
          <ns3:TrackPointExtension>
            <ns3:atemp>16.0</ns3:atemp>
          </ns3:TrackPointExtension>
        </extensions>
      </trkpt>
      <trkpt lat="46.8120476044714450836181640625" lon="6.888232268393039703369140625">
        <ele>376</ele>
        <time>2013-09-01T16:52:18.000Z</time>
        <extensions>
          <ns3:TrackPointExtension>
            <ns3:atemp>16.0</ns3:atemp>
          </ns3:TrackPointExtension>
        </extensions>
      </trkpt>
      <trkpt lat="46.8121508695185184478759765625" lon="6.88823922537267208099365234375">
        <ele>374.79998779296875</ele>
        <time>2013-09-01T16:52:19.000Z</time>
        <extensions>
          <ns3:TrackPointExtension>
            <ns3:atemp>16.0</ns3:atemp>
          </ns3:TrackPointExtension>
        </extensions>
      </trkpt>
      <trkpt lat="46.81225371547043323516845703125" lon="6.8882428295910358428955078125">
        <ele>373.79998779296875</ele>
        <time>2013-09-01T16:52:20.000Z</time>
        <extensions>
          <ns3:TrackPointExtension>
            <ns3:atemp>16.0</ns3:atemp>
          </ns3:TrackPointExtension>
        </extensions>
      </trkpt>
      <trkpt lat="46.8123580701649188995361328125" lon="6.88824894838035106658935546875">
        <ele>373.20001220703125</ele>
        <time>2013-09-01T16:52:21.000Z</time>
        <extensions>
          <ns3:TrackPointExtension>
            <ns3:atemp>16.0</ns3:atemp>
          </ns3:TrackPointExtension>
        </extensions>
      </trkpt>
      <trkpt lat="46.81246208958327770233154296875" lon="6.8882582522928714752197265625">
        <ele>372.600006103515625</ele>
        <time>2013-09-01T16:52:22.000Z</time>
        <extensions>
          <ns3:TrackPointExtension>
            <ns3:atemp>16.0</ns3:atemp>
          </ns3:TrackPointExtension>
        </extensions>
      </trkpt>
      <trkpt lat="46.812566109001636505126953125" lon="6.88826789148151874542236328125">
        <ele>372.399993896484375</ele>
        <time>2013-09-01T16:52:23.000Z</time>
        <extensions>
          <ns3:TrackPointExtension>
            <ns3:atemp>16.0</ns3:atemp>
          </ns3:TrackPointExtension>
        </extensions>
      </trkpt>
      <trkpt lat="46.81267130188643932342529296875" lon="6.88827593810856342315673828125">
        <ele>371.600006103515625</ele>
        <time>2013-09-01T16:52:24.000Z</time>
        <extensions>
          <ns3:TrackPointExtension>
            <ns3:atemp>16.0</ns3:atemp>
          </ns3:TrackPointExtension>
        </extensions>
      </trkpt>
      <trkpt lat="46.812776662409305572509765625" lon="6.88828465528786182403564453125">
        <ele>371</ele>
        <time>2013-09-01T16:52:25.000Z</time>
        <extensions>
          <ns3:TrackPointExtension>
            <ns3:atemp>16.0</ns3:atemp>
          </ns3:TrackPointExtension>
        </extensions>
      </trkpt>
      <trkpt lat="46.8128834478557109832763671875" lon="6.8882921151816844940185546875">
        <ele>370</ele>
        <time>2013-09-01T16:52:26.000Z</time>
        <extensions>
          <ns3:TrackPointExtension>
            <ns3:atemp>16.0</ns3:atemp>
          </ns3:TrackPointExtension>
        </extensions>
      </trkpt>
      <trkpt lat="46.812988221645355224609375" lon="6.88830091618001461029052734375">
        <ele>369</ele>
        <time>2013-09-01T16:52:27.000Z</time>
        <extensions>
          <ns3:TrackPointExtension>
            <ns3:atemp>16.0</ns3:atemp>
          </ns3:TrackPointExtension>
        </extensions>
      </trkpt>
      <trkpt lat="46.81309006176888942718505859375" lon="6.8883155845105648040771484375">
        <ele>368.20001220703125</ele>
        <time>2013-09-01T16:52:28.000Z</time>
        <extensions>
          <ns3:TrackPointExtension>
            <ns3:atemp>16.0</ns3:atemp>
          </ns3:TrackPointExtension>
        </extensions>
      </trkpt>
      <trkpt lat="46.81318896822631359100341796875" lon="6.8883397243916988372802734375">
        <ele>367.600006103515625</ele>
        <time>2013-09-01T16:52:29.000Z</time>
        <extensions>
          <ns3:TrackPointExtension>
            <ns3:atemp>16.0</ns3:atemp>
          </ns3:TrackPointExtension>
        </extensions>
      </trkpt>
      <trkpt lat="46.8132851086556911468505859375" lon="6.88836076296865940093994140625">
        <ele>367.399993896484375</ele>
        <time>2013-09-01T16:52:30.000Z</time>
        <extensions>
          <ns3:TrackPointExtension>
            <ns3:atemp>16.0</ns3:atemp>
          </ns3:TrackPointExtension>
        </extensions>
      </trkpt>
      <trkpt lat="46.81337772868573665618896484375" lon="6.88838540576398372650146484375">
        <ele>367.20001220703125</ele>
        <time>2013-09-01T16:52:31.000Z</time>
        <extensions>
          <ns3:TrackPointExtension>
            <ns3:atemp>16.0</ns3:atemp>
          </ns3:TrackPointExtension>
        </extensions>
      </trkpt>
      <trkpt lat="46.813465990126132965087890625" lon="6.88841289840638637542724609375">
        <ele>366.399993896484375</ele>
        <time>2013-09-01T16:52:32.000Z</time>
        <extensions>
          <ns3:TrackPointExtension>
            <ns3:atemp>16.0</ns3:atemp>
          </ns3:TrackPointExtension>
        </extensions>
      </trkpt>
      <trkpt lat="46.8135499767959117889404296875" lon="6.888443492352962493896484375">
        <ele>365.79998779296875</ele>
        <time>2013-09-01T16:52:33.000Z</time>
        <extensions>
          <ns3:TrackPointExtension>
            <ns3:atemp>16.0</ns3:atemp>
          </ns3:TrackPointExtension>
        </extensions>
      </trkpt>
      <trkpt lat="46.8136344663798809051513671875" lon="6.888477690517902374267578125">
        <ele>365</ele>
        <time>2013-09-01T16:52:34.000Z</time>
        <extensions>
          <ns3:TrackPointExtension>
            <ns3:atemp>16.0</ns3:atemp>
          </ns3:TrackPointExtension>
        </extensions>
      </trkpt>
      <trkpt lat="46.81371585465967655181884765625" lon="6.88851515762507915496826171875">
        <ele>365</ele>
        <time>2013-09-01T16:52:35.000Z</time>
        <extensions>
          <ns3:TrackPointExtension>
            <ns3:atemp>16.0</ns3:atemp>
          </ns3:TrackPointExtension>
        </extensions>
      </trkpt>
      <trkpt lat="46.81379447691142559051513671875" lon="6.888557486236095428466796875">
        <ele>364.399993896484375</ele>
        <time>2013-09-01T16:52:36.000Z</time>
        <extensions>
          <ns3:TrackPointExtension>
            <ns3:atemp>16.0</ns3:atemp>
          </ns3:TrackPointExtension>
        </extensions>
      </trkpt>
      <trkpt lat="46.8138735182583332061767578125" lon="6.88860165886580944061279296875">
        <ele>364.399993896484375</ele>
        <time>2013-09-01T16:52:37.000Z</time>
        <extensions>
          <ns3:TrackPointExtension>
            <ns3:atemp>16.0</ns3:atemp>
          </ns3:TrackPointExtension>
        </extensions>
      </trkpt>
      <trkpt lat="46.81394786573946475982666015625" lon="6.8886404670774936676025390625">
        <ele>364.600006103515625</ele>
        <time>2013-09-01T16:52:38.000Z</time>
        <extensions>
          <ns3:TrackPointExtension>
            <ns3:atemp>16.0</ns3:atemp>
          </ns3:TrackPointExtension>
        </extensions>
      </trkpt>
      <trkpt lat="46.8140220455825328826904296875" lon="6.88866938464343547821044921875">
        <ele>364.79998779296875</ele>
        <time>2013-09-01T16:52:39.000Z</time>
        <extensions>
          <ns3:TrackPointExtension>
            <ns3:atemp>16.0</ns3:atemp>
          </ns3:TrackPointExtension>
        </extensions>
      </trkpt>
      <trkpt lat="46.81409505195915699005126953125" lon="6.8886994756758213043212890625">
        <ele>364.79998779296875</ele>
        <time>2013-09-01T16:52:40.000Z</time>
        <extensions>
          <ns3:TrackPointExtension>
            <ns3:atemp>16.0</ns3:atemp>
          </ns3:TrackPointExtension>
        </extensions>
      </trkpt>
      <trkpt lat="46.81416772305965423583984375" lon="6.88872990198433399200439453125">
        <ele>364.20001220703125</ele>
        <time>2013-09-01T16:52:41.000Z</time>
        <extensions>
          <ns3:TrackPointExtension>
            <ns3:atemp>16.0</ns3:atemp>
          </ns3:TrackPointExtension>
        </extensions>
      </trkpt>
      <trkpt lat="46.814238466322422027587890625" lon="6.8887621723115444183349609375">
        <ele>363.79998779296875</ele>
        <time>2013-09-01T16:52:42.000Z</time>
        <extensions>
          <ns3:TrackPointExtension>
            <ns3:atemp>16.0</ns3:atemp>
          </ns3:TrackPointExtension>
        </extensions>
      </trkpt>
      <trkpt lat="46.814310215413570404052734375" lon="6.88879041932523250579833984375">
        <ele>363.399993896484375</ele>
        <time>2013-09-01T16:52:43.000Z</time>
        <extensions>
          <ns3:TrackPointExtension>
            <ns3:atemp>16.0</ns3:atemp>
          </ns3:TrackPointExtension>
        </extensions>
      </trkpt>
      <trkpt lat="46.81438271887600421905517578125" lon="6.88881254754960536956787109375">
        <ele>363.20001220703125</ele>
        <time>2013-09-01T16:52:44.000Z</time>
        <extensions>
          <ns3:TrackPointExtension>
            <ns3:atemp>16.0</ns3:atemp>
          </ns3:TrackPointExtension>
        </extensions>
      </trkpt>
      <trkpt lat="46.8144567310810089111328125" lon="6.88883249647915363311767578125">
        <ele>363.20001220703125</ele>
        <time>2013-09-01T16:52:45.000Z</time>
        <extensions>
          <ns3:TrackPointExtension>
            <ns3:atemp>16.0</ns3:atemp>
          </ns3:TrackPointExtension>
        </extensions>
      </trkpt>
      <trkpt lat="46.814529486000537872314453125" lon="6.88883987255394458770751953125">
        <ele>363.20001220703125</ele>
        <time>2013-09-01T16:52:46.000Z</time>
        <extensions>
          <ns3:TrackPointExtension>
            <ns3:atemp>16.0</ns3:atemp>
          </ns3:TrackPointExtension>
        </extensions>
      </trkpt>
      <trkpt lat="46.81460014544427394866943359375" lon="6.88883878290653228759765625">
        <ele>363</ele>
        <time>2013-09-01T16:52:47.000Z</time>
        <extensions>
          <ns3:TrackPointExtension>
            <ns3:atemp>16.0</ns3:atemp>
          </ns3:TrackPointExtension>
        </extensions>
      </trkpt>
      <trkpt lat="46.81466552428901195526123046875" lon="6.888850517570972442626953125">
        <ele>362.399993896484375</ele>
        <time>2013-09-01T16:52:48.000Z</time>
        <extensions>
          <ns3:TrackPointExtension>
            <ns3:atemp>16.0</ns3:atemp>
          </ns3:TrackPointExtension>
        </extensions>
      </trkpt>
      <trkpt lat="46.814717911183834075927734375" lon="6.88887524418532848358154296875">
        <ele>361.79998779296875</ele>
        <time>2013-09-01T16:52:49.000Z</time>
        <extensions>
          <ns3:TrackPointExtension>
            <ns3:atemp>16.0</ns3:atemp>
          </ns3:TrackPointExtension>
        </extensions>
      </trkpt>
      <trkpt lat="46.81476049125194549560546875" lon="6.88892486505210399627685546875">
        <ele>361.20001220703125</ele>
        <time>2013-09-01T16:52:50.000Z</time>
        <extensions>
          <ns3:TrackPointExtension>
            <ns3:atemp>16.0</ns3:atemp>
          </ns3:TrackPointExtension>
        </extensions>
      </trkpt>
      <trkpt lat="46.814778931438922882080078125" lon="6.88899728469550609588623046875">
        <ele>360.20001220703125</ele>
        <time>2013-09-01T16:52:51.000Z</time>
        <extensions>
          <ns3:TrackPointExtension>
            <ns3:atemp>16.0</ns3:atemp>
          </ns3:TrackPointExtension>
        </extensions>
      </trkpt>
      <trkpt lat="46.814788989722728729248046875" lon="6.8890781700611114501953125">
        <ele>359.20001220703125</ele>
        <time>2013-09-01T16:52:52.000Z</time>
        <extensions>
          <ns3:TrackPointExtension>
            <ns3:atemp>16.0</ns3:atemp>
          </ns3:TrackPointExtension>
        </extensions>
      </trkpt>
      <trkpt lat="46.81479133665561676025390625" lon="6.88916509039700031280517578125">
        <ele>358.399993896484375</ele>
        <time>2013-09-01T16:52:53.000Z</time>
        <extensions>
          <ns3:TrackPointExtension>
            <ns3:atemp>16.0</ns3:atemp>
          </ns3:TrackPointExtension>
        </extensions>
      </trkpt>
      <trkpt lat="46.8147920072078704833984375" lon="6.889256872236728668212890625">
        <ele>357.79998779296875</ele>
        <time>2013-09-01T16:52:54.000Z</time>
        <extensions>
          <ns3:TrackPointExtension>
            <ns3:atemp>16.0</ns3:atemp>
          </ns3:TrackPointExtension>
        </extensions>
      </trkpt>
      <trkpt lat="46.81478798389434814453125" lon="6.889350749552249908447265625">
        <ele>358</ele>
        <time>2013-09-01T16:52:55.000Z</time>
        <extensions>
          <ns3:TrackPointExtension>
            <ns3:atemp>16.0</ns3:atemp>
          </ns3:TrackPointExtension>
        </extensions>
      </trkpt>
      <trkpt lat="46.8147827871143817901611328125" lon="6.88944672234356403350830078125">
        <ele>358</ele>
        <time>2013-09-01T16:52:56.000Z</time>
        <extensions>
          <ns3:TrackPointExtension>
            <ns3:atemp>16.0</ns3:atemp>
          </ns3:TrackPointExtension>
        </extensions>
      </trkpt>
      <trkpt lat="46.81477499194443225860595703125" lon="6.889544539153575897216796875">
        <ele>358.399993896484375</ele>
        <time>2013-09-01T16:52:57.000Z</time>
        <extensions>
          <ns3:TrackPointExtension>
            <ns3:atemp>16.0</ns3:atemp>
          </ns3:TrackPointExtension>
        </extensions>
      </trkpt>
      <trkpt lat="46.8147723935544490814208984375" lon="6.88964369706809520721435546875">
        <ele>358.600006103515625</ele>
        <time>2013-09-01T16:52:58.000Z</time>
        <extensions>
          <ns3:TrackPointExtension>
            <ns3:atemp>16.0</ns3:atemp>
          </ns3:TrackPointExtension>
        </extensions>
      </trkpt>
      <trkpt lat="46.81477080099284648895263671875" lon="6.8897391669452190399169921875">
        <ele>358.600006103515625</ele>
        <time>2013-09-01T16:52:59.000Z</time>
        <extensions>
          <ns3:TrackPointExtension>
            <ns3:atemp>16.0</ns3:atemp>
          </ns3:TrackPointExtension>
        </extensions>
      </trkpt>
      <trkpt lat="46.81477365083992481231689453125" lon="6.8898317031562328338623046875">
        <ele>358.399993896484375</ele>
        <time>2013-09-01T16:53:00.000Z</time>
        <extensions>
          <ns3:TrackPointExtension>
            <ns3:atemp>16.0</ns3:atemp>
          </ns3:TrackPointExtension>
        </extensions>
      </trkpt>
      <trkpt lat="46.81477658450603485107421875" lon="6.889920048415660858154296875">
        <ele>358.20001220703125</ele>
        <time>2013-09-01T16:53:01.000Z</time>
        <extensions>
          <ns3:TrackPointExtension>
            <ns3:atemp>16.0</ns3:atemp>
          </ns3:TrackPointExtension>
        </extensions>
      </trkpt>
      <trkpt lat="46.81477784179151058197021484375" lon="6.89000696875154972076416015625">
        <ele>358.20001220703125</ele>
        <time>2013-09-01T16:53:02.000Z</time>
        <extensions>
          <ns3:TrackPointExtension>
            <ns3:atemp>16.0</ns3:atemp>
          </ns3:TrackPointExtension>
        </extensions>
      </trkpt>
      <trkpt lat="46.8147827871143817901611328125" lon="6.89009263180196285247802734375">
        <ele>358.20001220703125</ele>
        <time>2013-09-01T16:53:03.000Z</time>
        <extensions>
          <ns3:TrackPointExtension>
            <ns3:atemp>16.0</ns3:atemp>
          </ns3:TrackPointExtension>
        </extensions>
      </trkpt>
      <trkpt lat="46.8147918395698070526123046875" lon="6.8901760317385196685791015625">
        <ele>358.20001220703125</ele>
        <time>2013-09-01T16:53:04.000Z</time>
        <extensions>
          <ns3:TrackPointExtension>
            <ns3:atemp>16.0</ns3:atemp>
          </ns3:TrackPointExtension>
        </extensions>
      </trkpt>
      <trkpt lat="46.81480986066162586212158203125" lon="6.89024627208709716796875">
        <ele>358.399993896484375</ele>
        <time>2013-09-01T16:53:05.000Z</time>
        <extensions>
          <ns3:TrackPointExtension>
            <ns3:atemp>16.0</ns3:atemp>
          </ns3:TrackPointExtension>
        </extensions>
      </trkpt>
      <trkpt lat="46.8148367665708065032958984375" lon="6.89030284993350505828857421875">
        <ele>358.399993896484375</ele>
        <time>2013-09-01T16:53:06.000Z</time>
        <extensions>
          <ns3:TrackPointExtension>
            <ns3:atemp>16.0</ns3:atemp>
          </ns3:TrackPointExtension>
        </extensions>
      </trkpt>
      <trkpt lat="46.81487909518182277679443359375" lon="6.89031424932181835174560546875">
        <ele>358.600006103515625</ele>
        <time>2013-09-01T16:53:07.000Z</time>
        <extensions>
          <ns3:TrackPointExtension>
            <ns3:atemp>16.0</ns3:atemp>
          </ns3:TrackPointExtension>
        </extensions>
      </trkpt>
      <trkpt lat="46.81492653675377368927001953125" lon="6.89031072892248630523681640625">
        <ele>358.79998779296875</ele>
        <time>2013-09-01T16:53:08.000Z</time>
        <extensions>
          <ns3:TrackPointExtension>
            <ns3:atemp>16.0</ns3:atemp>
          </ns3:TrackPointExtension>
        </extensions>
      </trkpt>
      <trkpt lat="46.81497213430702686309814453125" lon="6.890296898782253265380859375">
        <ele>359</ele>
        <time>2013-09-01T16:53:09.000Z</time>
        <extensions>
          <ns3:TrackPointExtension>
            <ns3:atemp>16.0</ns3:atemp>
          </ns3:TrackPointExtension>
        </extensions>
      </trkpt>
      <trkpt lat="46.81501555256545543670654296875" lon="6.89027720130980014801025390625">
        <ele>359</ele>
        <time>2013-09-01T16:53:10.000Z</time>
        <extensions>
          <ns3:TrackPointExtension>
            <ns3:atemp>16.0</ns3:atemp>
          </ns3:TrackPointExtension>
        </extensions>
      </trkpt>
      <trkpt lat="46.81506148539483547210693359375" lon="6.890224479138851165771484375">
        <ele>358.600006103515625</ele>
        <time>2013-09-01T16:53:11.000Z</time>
        <extensions>
          <ns3:TrackPointExtension>
            <ns3:atemp>16.0</ns3:atemp>
          </ns3:TrackPointExtension>
        </extensions>
      </trkpt>
      <trkpt lat="46.815090738236904144287109375" lon="6.89016371034085750579833984375">
        <ele>358.20001220703125</ele>
        <time>2013-09-01T16:53:12.000Z</time>
        <extensions>
          <ns3:TrackPointExtension>
            <ns3:atemp>16.0</ns3:atemp>
          </ns3:TrackPointExtension>
        </extensions>
      </trkpt>
      <trkpt lat="46.81510674767196178436279296875" lon="6.890113167464733123779296875">
        <ele>357.79998779296875</ele>
        <time>2013-09-01T16:53:13.000Z</time>
        <extensions>
          <ns3:TrackPointExtension>
            <ns3:atemp>16.0</ns3:atemp>
          </ns3:TrackPointExtension>
        </extensions>
      </trkpt>
      <trkpt lat="46.81510448455810546875" lon="6.8900633789598941802978515625">
        <ele>357.600006103515625</ele>
        <time>2013-09-01T16:53:14.000Z</time>
        <extensions>
          <ns3:TrackPointExtension>
            <ns3:atemp>16.0</ns3:atemp>
          </ns3:TrackPointExtension>
        </extensions>
      </trkpt>
      <trkpt lat="46.81510255672037601470947265625" lon="6.89002390019595623016357421875">
        <ele>357.399993896484375</ele>
        <time>2013-09-01T16:53:15.000Z</time>
        <extensions>
          <ns3:TrackPointExtension>
            <ns3:atemp>16.0</ns3:atemp>
          </ns3:TrackPointExtension>
        </extensions>
      </trkpt>
      <trkpt lat="46.815104149281978607177734375" lon="6.8899949826300144195556640625">
        <ele>357.20001220703125</ele>
        <time>2013-09-01T16:53:16.000Z</time>
        <extensions>
          <ns3:TrackPointExtension>
            <ns3:atemp>16.0</ns3:atemp>
          </ns3:TrackPointExtension>
        </extensions>
      </trkpt>
      <trkpt lat="46.8151033110916614532470703125" lon="6.89001266844570636749267578125">
        <ele>356.79998779296875</ele>
        <time>2013-09-01T16:53:17.000Z</time>
        <extensions>
          <ns3:TrackPointExtension>
            <ns3:atemp>16.0</ns3:atemp>
          </ns3:TrackPointExtension>
        </extensions>
      </trkpt>
      <trkpt lat="46.81510305963456630706787109375" lon="6.88999523408710956573486328125">
        <ele>356.79998779296875</ele>
        <time>2013-09-01T16:53:18.000Z</time>
        <extensions>
          <ns3:TrackPointExtension>
            <ns3:atemp>16.0</ns3:atemp>
          </ns3:TrackPointExtension>
        </extensions>
      </trkpt>
      <trkpt lat="46.81510113179683685302734375" lon="6.88999137841165065765380859375">
        <ele>356.79998779296875</ele>
        <time>2013-09-01T16:53:19.000Z</time>
        <extensions>
          <ns3:TrackPointExtension>
            <ns3:atemp>16.0</ns3:atemp>
          </ns3:TrackPointExtension>
        </extensions>
      </trkpt>
      <trkpt lat="46.81509819813072681427001953125" lon="6.889989785850048065185546875">
        <ele>356.79998779296875</ele>
        <time>2013-09-01T16:53:20.000Z</time>
        <extensions>
          <ns3:TrackPointExtension>
            <ns3:atemp>16.0</ns3:atemp>
          </ns3:TrackPointExtension>
        </extensions>
      </trkpt>
    </trkseg>
  </trk>
</gpx>
